<?xml version="1.0" encoding="UTF-8" standalone="no" ?>
<gpx xmlns="http://www.topografix.com/GPX/1/1" xmlns:xsi="http://www.w3.org/2001/XMLSchema-instance" xsi:schemaLocation="http://www.topografix.com/GPX/1/1 http://www.topografix.com/GPX/1/1/gpx.xsd" version="1.1" creator="VisuGPX - https://www.visugpx.com">
  <metadata>
    <name>Traces 2022</name>
    <desc><![CDATA[8 traces potentielles pour la sortie 2022 !]]></desc>
  </metadata>
  <trk>
    <name><![CDATA[Trace 1]]></name>
    <desc><![CDATA[Tout en corniches + arche !]]></desc>
    <extensions>
      <line xmlns="http://www.topografix.com/GPX/gpx_style/0/2">
        <color>00ff00</color>
        <width>4</width>
          <extensions>
            <sens>1</sens>
          </extensions>
      </line>
    </extensions>
    <trkseg>
      <trkpt lat="44.12319" lon="3.11844">
        <ele>834.4</ele>
        <time>2021-09-30T12:06:37Z</time>
      </trkpt>
      <trkpt lat="44.1233" lon="3.11856">
        <ele>834.3</ele>
        <time>2021-09-30T12:06:39Z</time>
      </trkpt>
      <trkpt lat="44.12335" lon="3.1186">
        <ele>834.2</ele>
        <time>2021-09-30T12:06:40Z</time>
      </trkpt>
      <trkpt lat="44.12348" lon="3.11857">
        <ele>834</ele>
        <time>2021-09-30T12:06:42Z</time>
      </trkpt>
      <trkpt lat="44.12353" lon="3.11853">
        <ele>833.9</ele>
        <time>2021-09-30T12:06:43Z</time>
      </trkpt>
      <trkpt lat="44.12358" lon="3.1185">
        <ele>833.9</ele>
        <time>2021-09-30T12:06:44Z</time>
      </trkpt>
      <trkpt lat="44.12367" lon="3.11845">
        <ele>833.5</ele>
        <time>2021-09-30T12:06:46Z</time>
      </trkpt>
      <trkpt lat="44.1238" lon="3.11846">
        <ele>833</ele>
        <time>2021-09-30T12:06:48Z</time>
      </trkpt>
      <trkpt lat="44.12392" lon="3.11858">
        <ele>832.5</ele>
        <time>2021-09-30T12:06:50Z</time>
      </trkpt>
      <trkpt lat="44.12396" lon="3.11863">
        <ele>832.5</ele>
        <time>2021-09-30T12:06:51Z</time>
      </trkpt>
      <trkpt lat="44.12404" lon="3.1187">
        <ele>832.3</ele>
        <time>2021-09-30T12:06:53Z</time>
      </trkpt>
      <trkpt lat="44.1241" lon="3.1187">
        <ele>832.2</ele>
        <time>2021-09-30T12:06:54Z</time>
      </trkpt>
      <trkpt lat="44.12423" lon="3.11876">
        <ele>831.4</ele>
        <time>2021-09-30T12:06:56Z</time>
      </trkpt>
      <trkpt lat="44.12435" lon="3.11877">
        <ele>830.8</ele>
        <time>2021-09-30T12:06:58Z</time>
      </trkpt>
      <trkpt lat="44.12441" lon="3.11872">
        <ele>830.2</ele>
        <time>2021-09-30T12:06:59Z</time>
      </trkpt>
      <trkpt lat="44.12447" lon="3.11867">
        <ele>829.1</ele>
        <time>2021-09-30T12:07:00Z</time>
      </trkpt>
      <trkpt lat="44.1246" lon="3.11857">
        <ele>827.2</ele>
        <time>2021-09-30T12:07:02Z</time>
      </trkpt>
      <trkpt lat="44.12474" lon="3.11853">
        <ele>825.4</ele>
        <time>2021-09-30T12:07:04Z</time>
      </trkpt>
      <trkpt lat="44.12481" lon="3.11851">
        <ele>824.4</ele>
        <time>2021-09-30T12:07:05Z</time>
      </trkpt>
      <trkpt lat="44.12489" lon="3.11849">
        <ele>823.2</ele>
        <time>2021-09-30T12:07:06Z</time>
      </trkpt>
      <trkpt lat="44.12505" lon="3.11847">
        <ele>820.8</ele>
        <time>2021-09-30T12:07:08Z</time>
      </trkpt>
      <trkpt lat="44.12519" lon="3.1185">
        <ele>818.9</ele>
        <time>2021-09-30T12:07:10Z</time>
      </trkpt>
      <trkpt lat="44.12525" lon="3.11853">
        <ele>818.3</ele>
        <time>2021-09-30T12:07:11Z</time>
      </trkpt>
      <trkpt lat="44.12528" lon="3.11855">
        <ele>817.9</ele>
        <time>2021-09-30T12:07:12Z</time>
      </trkpt>
      <trkpt lat="44.12538" lon="3.11854">
        <ele>816.6</ele>
        <time>2021-09-30T12:07:14Z</time>
      </trkpt>
      <trkpt lat="44.12549" lon="3.11852">
        <ele>814.7</ele>
        <time>2021-09-30T12:07:16Z</time>
      </trkpt>
      <trkpt lat="44.12562" lon="3.11851">
        <ele>812.7</ele>
        <time>2021-09-30T12:07:18Z</time>
      </trkpt>
      <trkpt lat="44.12575" lon="3.11847">
        <ele>810.7</ele>
        <time>2021-09-30T12:07:20Z</time>
      </trkpt>
      <trkpt lat="44.1258" lon="3.11841">
        <ele>809.6</ele>
        <time>2021-09-30T12:07:21Z</time>
      </trkpt>
      <trkpt lat="44.12587" lon="3.11836">
        <ele>808.5</ele>
        <time>2021-09-30T12:07:22Z</time>
      </trkpt>
      <trkpt lat="44.12602" lon="3.11833">
        <ele>806.2</ele>
        <time>2021-09-30T12:07:24Z</time>
      </trkpt>
      <trkpt lat="44.12611" lon="3.11827">
        <ele>804.7</ele>
        <time>2021-09-30T12:07:26Z</time>
      </trkpt>
      <trkpt lat="44.12613" lon="3.11822">
        <ele>804.5</ele>
        <time>2021-09-30T12:07:27Z</time>
      </trkpt>
      <trkpt lat="44.12611" lon="3.11821">
        <ele>804.6</ele>
        <time>2021-09-30T12:07:28Z</time>
      </trkpt>
      <trkpt lat="44.1261" lon="3.11821">
        <ele>805.1</ele>
        <time>2021-09-30T12:07:29Z</time>
      </trkpt>
      <trkpt lat="44.12608" lon="3.11821">
        <ele>805.2</ele>
        <time>2021-09-30T12:07:30Z</time>
      </trkpt>
      <trkpt lat="44.12605" lon="3.11819">
        <ele>805.7</ele>
        <time>2021-09-30T12:07:31Z</time>
      </trkpt>
      <trkpt lat="44.12602" lon="3.11816">
        <ele>806.1</ele>
        <time>2021-09-30T12:07:32Z</time>
      </trkpt>
      <trkpt lat="44.12601" lon="3.11815">
        <ele>806.6</ele>
        <time>2021-09-30T12:07:33Z</time>
      </trkpt>
      <trkpt lat="44.12598" lon="3.11812">
        <ele>807</ele>
        <time>2021-09-30T12:07:35Z</time>
      </trkpt>
      <trkpt lat="44.12595" lon="3.11813">
        <ele>807.1</ele>
        <time>2021-09-30T12:07:37Z</time>
      </trkpt>
      <trkpt lat="44.12595" lon="3.11815">
        <ele>807.7</ele>
        <time>2021-09-30T12:07:38Z</time>
      </trkpt>
      <trkpt lat="44.12593" lon="3.11812">
        <ele>807.6</ele>
        <time>2021-09-30T12:07:39Z</time>
      </trkpt>
      <trkpt lat="44.12591" lon="3.11808">
        <ele>808</ele>
        <time>2021-09-30T12:07:41Z</time>
      </trkpt>
      <trkpt lat="44.12589" lon="3.11803">
        <ele>808.5</ele>
        <time>2021-09-30T12:07:42Z</time>
      </trkpt>
      <trkpt lat="44.12586" lon="3.11798">
        <ele>808.9</ele>
        <time>2021-09-30T12:07:43Z</time>
      </trkpt>
      <trkpt lat="44.12584" lon="3.11794">
        <ele>809</ele>
        <time>2021-09-30T12:07:44Z</time>
      </trkpt>
      <trkpt lat="44.12582" lon="3.11789">
        <ele>809.5</ele>
        <time>2021-09-30T12:07:45Z</time>
      </trkpt>
      <trkpt lat="44.12581" lon="3.11783">
        <ele>809.7</ele>
        <time>2021-09-30T12:07:46Z</time>
      </trkpt>
      <trkpt lat="44.1258" lon="3.11776">
        <ele>809.8</ele>
        <time>2021-09-30T12:07:48Z</time>
      </trkpt>
      <trkpt lat="44.1258" lon="3.11771">
        <ele>809.9</ele>
        <time>2021-09-30T12:07:49Z</time>
      </trkpt>
      <trkpt lat="44.12581" lon="3.11764">
        <ele>810</ele>
        <time>2021-09-30T12:07:50Z</time>
      </trkpt>
      <trkpt lat="44.12581" lon="3.11757">
        <ele>810.2</ele>
        <time>2021-09-30T12:07:52Z</time>
      </trkpt>
      <trkpt lat="44.12579" lon="3.11749">
        <ele>810.9</ele>
        <time>2021-09-30T12:07:53Z</time>
      </trkpt>
      <trkpt lat="44.12577" lon="3.11745">
        <ele>811</ele>
        <time>2021-09-30T12:07:54Z</time>
      </trkpt>
      <trkpt lat="44.12572" lon="3.1174">
        <ele>812</ele>
        <time>2021-09-30T12:07:56Z</time>
      </trkpt>
      <trkpt lat="44.12569" lon="3.11734">
        <ele>812.6</ele>
        <time>2021-09-30T12:07:57Z</time>
      </trkpt>
      <trkpt lat="44.12569" lon="3.11729">
        <ele>812.7</ele>
        <time>2021-09-30T12:07:58Z</time>
      </trkpt>
      <trkpt lat="44.12569" lon="3.11724">
        <ele>812.9</ele>
        <time>2021-09-30T12:08:00Z</time>
      </trkpt>
      <trkpt lat="44.12569" lon="3.11723">
        <ele>813.1</ele>
        <time>2021-09-30T12:08:01Z</time>
      </trkpt>
      <trkpt lat="44.12569" lon="3.11717">
        <ele>813.3</ele>
        <time>2021-09-30T12:08:02Z</time>
      </trkpt>
      <trkpt lat="44.12568" lon="3.11712">
        <ele>813.4</ele>
        <time>2021-09-30T12:08:03Z</time>
      </trkpt>
      <trkpt lat="44.12567" lon="3.11707">
        <ele>814</ele>
        <time>2021-09-30T12:08:04Z</time>
      </trkpt>
      <trkpt lat="44.12566" lon="3.11701">
        <ele>814.1</ele>
        <time>2021-09-30T12:08:06Z</time>
      </trkpt>
      <trkpt lat="44.12564" lon="3.11694">
        <ele>814.6</ele>
        <time>2021-09-30T12:08:07Z</time>
      </trkpt>
      <trkpt lat="44.12563" lon="3.1169">
        <ele>814.7</ele>
        <time>2021-09-30T12:08:08Z</time>
      </trkpt>
      <trkpt lat="44.12561" lon="3.11686">
        <ele>814.8</ele>
        <time>2021-09-30T12:08:10Z</time>
      </trkpt>
      <trkpt lat="44.12558" lon="3.11682">
        <ele>815.3</ele>
        <time>2021-09-30T12:08:11Z</time>
      </trkpt>
      <trkpt lat="44.12554" lon="3.11679">
        <ele>816</ele>
        <time>2021-09-30T12:08:13Z</time>
      </trkpt>
      <trkpt lat="44.12551" lon="3.11675">
        <ele>816.4</ele>
        <time>2021-09-30T12:08:14Z</time>
      </trkpt>
      <trkpt lat="44.12548" lon="3.11672">
        <ele>816.8</ele>
        <time>2021-09-30T12:08:15Z</time>
      </trkpt>
      <trkpt lat="44.12544" lon="3.11667">
        <ele>817</ele>
        <time>2021-09-30T12:08:17Z</time>
      </trkpt>
      <trkpt lat="44.12541" lon="3.11662">
        <ele>817.2</ele>
        <time>2021-09-30T12:08:18Z</time>
      </trkpt>
      <trkpt lat="44.1254" lon="3.11656">
        <ele>817.3</ele>
        <time>2021-09-30T12:08:19Z</time>
      </trkpt>
      <trkpt lat="44.12539" lon="3.11648">
        <ele>817.4</ele>
        <time>2021-09-30T12:08:21Z</time>
      </trkpt>
      <trkpt lat="44.1254" lon="3.11642">
        <ele>817.3</ele>
        <time>2021-09-30T12:08:22Z</time>
      </trkpt>
      <trkpt lat="44.12542" lon="3.11635">
        <ele>817.2</ele>
        <time>2021-09-30T12:08:23Z</time>
      </trkpt>
      <trkpt lat="44.12544" lon="3.1163">
        <ele>817.2</ele>
        <time>2021-09-30T12:08:24Z</time>
      </trkpt>
      <trkpt lat="44.12545" lon="3.11621">
        <ele>817.1</ele>
        <time>2021-09-30T12:08:26Z</time>
      </trkpt>
      <trkpt lat="44.12544" lon="3.11613">
        <ele>817</ele>
        <time>2021-09-30T12:08:27Z</time>
      </trkpt>
      <trkpt lat="44.12543" lon="3.11604">
        <ele>816.9</ele>
        <time>2021-09-30T12:08:28Z</time>
      </trkpt>
      <trkpt lat="44.1253" lon="3.11585">
        <ele>816.7</ele>
        <time>2021-09-30T12:08:30Z</time>
      </trkpt>
      <trkpt lat="44.12524" lon="3.1158">
        <ele>816.6</ele>
        <time>2021-09-30T12:08:31Z</time>
      </trkpt>
      <trkpt lat="44.12514" lon="3.11569">
        <ele>816.5</ele>
        <time>2021-09-30T12:08:33Z</time>
      </trkpt>
      <trkpt lat="44.12508" lon="3.1155">
        <ele>816.4</ele>
        <time>2021-09-30T12:08:35Z</time>
      </trkpt>
      <trkpt lat="44.12506" lon="3.11541">
        <ele>816.3</ele>
        <time>2021-09-30T12:08:36Z</time>
      </trkpt>
      <trkpt lat="44.12497" lon="3.1153">
        <ele>816.1</ele>
        <time>2021-09-30T12:08:38Z</time>
      </trkpt>
      <trkpt lat="44.12485" lon="3.11525">
        <ele>816</ele>
        <time>2021-09-30T12:08:40Z</time>
      </trkpt>
      <trkpt lat="44.12473" lon="3.1152">
        <ele>815.7</ele>
        <time>2021-09-30T12:08:42Z</time>
      </trkpt>
      <trkpt lat="44.1247" lon="3.11517">
        <ele>815.6</ele>
        <time>2021-09-30T12:08:43Z</time>
      </trkpt>
      <trkpt lat="44.12467" lon="3.11516">
        <ele>815.6</ele>
        <time>2021-09-30T12:08:44Z</time>
      </trkpt>
      <trkpt lat="44.12454" lon="3.1151">
        <ele>815.3</ele>
        <time>2021-09-30T12:08:46Z</time>
      </trkpt>
      <trkpt lat="44.12447" lon="3.11507">
        <ele>815.2</ele>
        <time>2021-09-30T12:08:47Z</time>
      </trkpt>
      <trkpt lat="44.12434" lon="3.11498">
        <ele>814.9</ele>
        <time>2021-09-30T12:08:49Z</time>
      </trkpt>
      <trkpt lat="44.12427" lon="3.11493">
        <ele>814.7</ele>
        <time>2021-09-30T12:08:50Z</time>
      </trkpt>
      <trkpt lat="44.1242" lon="3.11488">
        <ele>814.5</ele>
        <time>2021-09-30T12:08:51Z</time>
      </trkpt>
      <trkpt lat="44.1241" lon="3.11484">
        <ele>814.2</ele>
        <time>2021-09-30T12:08:53Z</time>
      </trkpt>
      <trkpt lat="44.12397" lon="3.11477">
        <ele>813.7</ele>
        <time>2021-09-30T12:08:55Z</time>
      </trkpt>
      <trkpt lat="44.12393" lon="3.11471">
        <ele>813.5</ele>
        <time>2021-09-30T12:08:56Z</time>
      </trkpt>
      <trkpt lat="44.12383" lon="3.11458">
        <ele>813.1</ele>
        <time>2021-09-30T12:08:58Z</time>
      </trkpt>
      <trkpt lat="44.12374" lon="3.11447">
        <ele>812.7</ele>
        <time>2021-09-30T12:09:00Z</time>
      </trkpt>
      <trkpt lat="44.12369" lon="3.11442">
        <ele>812.6</ele>
        <time>2021-09-30T12:09:01Z</time>
      </trkpt>
      <trkpt lat="44.12357" lon="3.11433">
        <ele>812.1</ele>
        <time>2021-09-30T12:09:03Z</time>
      </trkpt>
      <trkpt lat="44.12347" lon="3.11427">
        <ele>811.8</ele>
        <time>2021-09-30T12:09:05Z</time>
      </trkpt>
      <trkpt lat="44.12343" lon="3.11425">
        <ele>811.7</ele>
        <time>2021-09-30T12:09:06Z</time>
      </trkpt>
      <trkpt lat="44.12333" lon="3.1142">
        <ele>811.4</ele>
        <time>2021-09-30T12:09:08Z</time>
      </trkpt>
      <trkpt lat="44.12326" lon="3.11419">
        <ele>811.2</ele>
        <time>2021-09-30T12:09:09Z</time>
      </trkpt>
      <trkpt lat="44.12315" lon="3.11419">
        <ele>810.9</ele>
        <time>2021-09-30T12:09:11Z</time>
      </trkpt>
      <trkpt lat="44.1231" lon="3.11419">
        <ele>810.8</ele>
        <time>2021-09-30T12:09:12Z</time>
      </trkpt>
      <trkpt lat="44.123" lon="3.11417">
        <ele>810.6</ele>
        <time>2021-09-30T12:09:14Z</time>
      </trkpt>
      <trkpt lat="44.12291" lon="3.11415">
        <ele>810.4</ele>
        <time>2021-09-30T12:09:16Z</time>
      </trkpt>
      <trkpt lat="44.12279" lon="3.11414">
        <ele>810.1</ele>
        <time>2021-09-30T12:09:18Z</time>
      </trkpt>
      <trkpt lat="44.12273" lon="3.11413">
        <ele>810</ele>
        <time>2021-09-30T12:09:19Z</time>
      </trkpt>
      <trkpt lat="44.12263" lon="3.11412">
        <ele>809.8</ele>
        <time>2021-09-30T12:09:21Z</time>
      </trkpt>
      <trkpt lat="44.12258" lon="3.11411">
        <ele>809.7</ele>
        <time>2021-09-30T12:09:22Z</time>
      </trkpt>
      <trkpt lat="44.12247" lon="3.11408">
        <ele>809.4</ele>
        <time>2021-09-30T12:09:24Z</time>
      </trkpt>
      <trkpt lat="44.12237" lon="3.11409">
        <ele>809.2</ele>
        <time>2021-09-30T12:09:26Z</time>
      </trkpt>
      <trkpt lat="44.12233" lon="3.1141">
        <ele>809.1</ele>
        <time>2021-09-30T12:09:27Z</time>
      </trkpt>
      <trkpt lat="44.12228" lon="3.11409">
        <ele>808.9</ele>
        <time>2021-09-30T12:09:29Z</time>
      </trkpt>
      <trkpt lat="44.12222" lon="3.11406">
        <ele>808.8</ele>
        <time>2021-09-30T12:09:30Z</time>
      </trkpt>
      <trkpt lat="44.12216" lon="3.11404">
        <ele>808.6</ele>
        <time>2021-09-30T12:09:31Z</time>
      </trkpt>
      <trkpt lat="44.12209" lon="3.11401">
        <ele>808.5</ele>
        <time>2021-09-30T12:09:32Z</time>
      </trkpt>
      <trkpt lat="44.12203" lon="3.11397">
        <ele>808.3</ele>
        <time>2021-09-30T12:09:33Z</time>
      </trkpt>
      <trkpt lat="44.12189" lon="3.11391">
        <ele>808</ele>
        <time>2021-09-30T12:09:35Z</time>
      </trkpt>
      <trkpt lat="44.12178" lon="3.11384">
        <ele>807.9</ele>
        <time>2021-09-30T12:09:37Z</time>
      </trkpt>
      <trkpt lat="44.12172" lon="3.1138">
        <ele>803.7</ele>
        <time>2021-09-30T12:09:38Z</time>
      </trkpt>
      <trkpt lat="44.12162" lon="3.11373">
        <ele>802.2</ele>
        <time>2021-09-30T12:09:40Z</time>
      </trkpt>
      <trkpt lat="44.12156" lon="3.11367">
        <ele>801.4</ele>
        <time>2021-09-30T12:09:41Z</time>
      </trkpt>
      <trkpt lat="44.12151" lon="3.11362">
        <ele>800.7</ele>
        <time>2021-09-30T12:09:42Z</time>
      </trkpt>
      <trkpt lat="44.12141" lon="3.11354">
        <ele>799.4</ele>
        <time>2021-09-30T12:09:44Z</time>
      </trkpt>
      <trkpt lat="44.12134" lon="3.11344">
        <ele>794.2</ele>
        <time>2019-04-19T11:43:36Z</time>
      </trkpt>
      <trkpt lat="44.12131" lon="3.11339">
        <ele>793.4</ele>
        <time>2019-04-19T11:43:37Z</time>
      </trkpt>
      <trkpt lat="44.12124" lon="3.11332">
        <ele>792.3</ele>
        <time>2019-04-19T11:43:38Z</time>
      </trkpt>
      <trkpt lat="44.1212" lon="3.11327">
        <ele>791.7</ele>
        <time>2019-04-19T11:43:39Z</time>
      </trkpt>
      <trkpt lat="44.12116" lon="3.11323">
        <ele>791</ele>
        <time>2019-04-19T11:43:40Z</time>
      </trkpt>
      <trkpt lat="44.12113" lon="3.1132">
        <ele>790.5</ele>
        <time>2019-04-19T11:43:41Z</time>
      </trkpt>
      <trkpt lat="44.12108" lon="3.11317">
        <ele>789.8</ele>
        <time>2019-04-19T11:43:42Z</time>
      </trkpt>
      <trkpt lat="44.12105" lon="3.11314">
        <ele>789.4</ele>
        <time>2019-04-19T11:43:43Z</time>
      </trkpt>
      <trkpt lat="44.12102" lon="3.11313">
        <ele>789</ele>
        <time>2019-04-19T11:43:44Z</time>
      </trkpt>
      <trkpt lat="44.12099" lon="3.11314">
        <ele>789.3</ele>
        <time>2019-04-19T11:43:45Z</time>
      </trkpt>
      <trkpt lat="44.12097" lon="3.11311">
        <ele>789.6</ele>
        <time>2019-04-19T11:43:48Z</time>
      </trkpt>
      <trkpt lat="44.12093" lon="3.1131">
        <ele>789.9</ele>
        <time>2019-04-19T11:43:51Z</time>
      </trkpt>
      <trkpt lat="44.12089" lon="3.11311">
        <ele>790.3</ele>
        <time>2019-04-19T11:43:53Z</time>
      </trkpt>
      <trkpt lat="44.12085" lon="3.11312">
        <ele>790.6</ele>
        <time>2019-04-19T11:43:54Z</time>
      </trkpt>
      <trkpt lat="44.12082" lon="3.11313">
        <ele>790.9</ele>
        <time>2019-04-19T11:43:55Z</time>
      </trkpt>
      <trkpt lat="44.12078" lon="3.11314">
        <ele>791.1</ele>
        <time>2019-04-19T11:43:56Z</time>
      </trkpt>
      <trkpt lat="44.12075" lon="3.11314">
        <ele>791.4</ele>
        <time>2019-04-19T11:43:57Z</time>
      </trkpt>
      <trkpt lat="44.12071" lon="3.11312">
        <ele>791.5</ele>
        <time>2019-04-19T11:43:58Z</time>
      </trkpt>
      <trkpt lat="44.12067" lon="3.11309">
        <ele>791.7</ele>
        <time>2019-04-19T11:43:59Z</time>
      </trkpt>
      <trkpt lat="44.12062" lon="3.11306">
        <ele>791.9</ele>
        <time>2019-04-19T11:44:00Z</time>
      </trkpt>
      <trkpt lat="44.12055" lon="3.11301">
        <ele>792.2</ele>
        <time>2019-04-19T11:44:01Z</time>
      </trkpt>
      <trkpt lat="44.12053" lon="3.11299">
        <ele>792.4</ele>
        <time>2019-04-19T11:44:02Z</time>
      </trkpt>
      <trkpt lat="44.1205" lon="3.11298">
        <ele>792.6</ele>
        <time>2019-04-19T11:44:03Z</time>
      </trkpt>
      <trkpt lat="44.12046" lon="3.11297">
        <ele>792.9</ele>
        <time>2019-04-19T11:44:04Z</time>
      </trkpt>
      <trkpt lat="44.12043" lon="3.11295">
        <ele>793.1</ele>
        <time>2019-04-19T11:44:05Z</time>
      </trkpt>
      <trkpt lat="44.12039" lon="3.11298">
        <ele>793.5</ele>
        <time>2019-04-19T11:44:06Z</time>
      </trkpt>
      <trkpt lat="44.12033" lon="3.11297">
        <ele>793.9</ele>
        <time>2019-04-19T11:44:07Z</time>
      </trkpt>
      <trkpt lat="44.1203" lon="3.11295">
        <ele>794.1</ele>
        <time>2019-04-19T11:44:08Z</time>
      </trkpt>
      <trkpt lat="44.12026" lon="3.11296">
        <ele>794.5</ele>
        <time>2019-04-19T11:44:10Z</time>
      </trkpt>
      <trkpt lat="44.12018" lon="3.11299">
        <ele>795.2</ele>
        <time>2019-04-19T11:44:11Z</time>
      </trkpt>
      <trkpt lat="44.12015" lon="3.113">
        <ele>795.5</ele>
        <time>2019-04-19T11:44:12Z</time>
      </trkpt>
      <trkpt lat="44.1201" lon="3.11302">
        <ele>795.9</ele>
        <time>2019-04-19T11:44:14Z</time>
      </trkpt>
      <trkpt lat="44.12005" lon="3.11304">
        <ele>796.3</ele>
        <time>2019-04-19T11:44:16Z</time>
      </trkpt>
      <trkpt lat="44.12002" lon="3.11302">
        <ele>796.6</ele>
        <time>2019-04-19T11:44:18Z</time>
      </trkpt>
      <trkpt lat="44.12" lon="3.11299">
        <ele>796.8</ele>
        <time>2019-04-19T11:44:19Z</time>
      </trkpt>
      <trkpt lat="44.11998" lon="3.11295">
        <ele>796.9</ele>
        <time>2019-04-19T11:44:20Z</time>
      </trkpt>
      <trkpt lat="44.11995" lon="3.11292">
        <ele>797.1</ele>
        <time>2019-04-19T11:44:21Z</time>
      </trkpt>
      <trkpt lat="44.11993" lon="3.11289">
        <ele>797.3</ele>
        <time>2019-04-19T11:44:22Z</time>
      </trkpt>
      <trkpt lat="44.11991" lon="3.11285">
        <ele>797.4</ele>
        <time>2019-04-19T11:44:23Z</time>
      </trkpt>
      <trkpt lat="44.11987" lon="3.1128">
        <ele>797.5</ele>
        <time>2019-04-19T11:44:24Z</time>
      </trkpt>
      <trkpt lat="44.11984" lon="3.11275">
        <ele>797.7</ele>
        <time>2019-04-19T11:44:25Z</time>
      </trkpt>
      <trkpt lat="44.11981" lon="3.11272">
        <ele>797.8</ele>
        <time>2019-04-19T11:44:26Z</time>
      </trkpt>
      <trkpt lat="44.11977" lon="3.11273">
        <ele>797.9</ele>
        <time>2019-04-19T11:44:28Z</time>
      </trkpt>
      <trkpt lat="44.11974" lon="3.11273">
        <ele>798</ele>
        <time>2019-04-19T11:44:32Z</time>
      </trkpt>
      <trkpt lat="44.11971" lon="3.11271">
        <ele>798.1</ele>
        <time>2019-04-19T11:44:37Z</time>
      </trkpt>
      <trkpt lat="44.11967" lon="3.11267">
        <ele>798.2</ele>
        <time>2019-04-19T11:44:39Z</time>
      </trkpt>
      <trkpt lat="44.11965" lon="3.11265">
        <ele>798.3</ele>
        <time>2019-04-19T11:44:40Z</time>
      </trkpt>
      <trkpt lat="44.11961" lon="3.11262">
        <ele>798.4</ele>
        <time>2019-04-19T11:44:41Z</time>
      </trkpt>
      <trkpt lat="44.11957" lon="3.11259">
        <ele>798.5</ele>
        <time>2019-04-19T11:44:42Z</time>
      </trkpt>
      <trkpt lat="44.11954" lon="3.11257">
        <ele>798.5</ele>
        <time>2019-04-19T11:44:43Z</time>
      </trkpt>
      <trkpt lat="44.1195" lon="3.11255">
        <ele>798.5</ele>
        <time>2019-04-19T11:44:44Z</time>
      </trkpt>
      <trkpt lat="44.11943" lon="3.11246">
        <ele>798.6</ele>
        <time>2019-04-19T11:44:45Z</time>
      </trkpt>
      <trkpt lat="44.11929" lon="3.11243">
        <ele>799</ele>
        <time>2019-04-19T11:44:46Z</time>
      </trkpt>
      <trkpt lat="44.11928" lon="3.11238">
        <ele>799.3</ele>
        <time>2019-04-19T11:44:47Z</time>
      </trkpt>
      <trkpt lat="44.11925" lon="3.11234">
        <ele>799.5</ele>
        <time>2019-04-19T11:44:48Z</time>
      </trkpt>
      <trkpt lat="44.11921" lon="3.1123">
        <ele>800</ele>
        <time>2019-04-19T11:44:49Z</time>
      </trkpt>
      <trkpt lat="44.11918" lon="3.11225">
        <ele>800.3</ele>
        <time>2019-04-19T11:44:50Z</time>
      </trkpt>
      <trkpt lat="44.11914" lon="3.11217">
        <ele>800.8</ele>
        <time>2019-04-19T11:44:51Z</time>
      </trkpt>
      <trkpt lat="44.11909" lon="3.11215">
        <ele>800.9</ele>
        <time>2019-04-19T11:44:52Z</time>
      </trkpt>
      <trkpt lat="44.11906" lon="3.1121">
        <ele>801</ele>
        <time>2019-04-19T11:44:53Z</time>
      </trkpt>
      <trkpt lat="44.119" lon="3.11202">
        <ele>800.9</ele>
        <time>2019-04-19T11:44:54Z</time>
      </trkpt>
      <trkpt lat="44.11895" lon="3.11195">
        <ele>800.5</ele>
        <time>2019-04-19T11:44:55Z</time>
      </trkpt>
      <trkpt lat="44.11891" lon="3.11186">
        <ele>800.3</ele>
        <time>2019-04-19T11:44:56Z</time>
      </trkpt>
      <trkpt lat="44.11893" lon="3.11179">
        <ele>800.1</ele>
        <time>2019-04-19T11:44:57Z</time>
      </trkpt>
      <trkpt lat="44.11893" lon="3.11169">
        <ele>799.9</ele>
        <time>2019-04-19T11:44:58Z</time>
      </trkpt>
      <trkpt lat="44.11893" lon="3.1116">
        <ele>799.7</ele>
        <time>2019-04-19T11:44:59Z</time>
      </trkpt>
      <trkpt lat="44.11891" lon="3.11152">
        <ele>799.6</ele>
        <time>2019-04-19T11:45:00Z</time>
      </trkpt>
      <trkpt lat="44.11889" lon="3.1115">
        <ele>799.6</ele>
        <time>2019-04-19T11:45:01Z</time>
      </trkpt>
      <trkpt lat="44.11886" lon="3.11147">
        <ele>799.5</ele>
        <time>2019-04-19T11:45:02Z</time>
      </trkpt>
      <trkpt lat="44.11884" lon="3.11146">
        <ele>799.5</ele>
        <time>2019-04-19T11:45:03Z</time>
      </trkpt>
      <trkpt lat="44.11885" lon="3.11141">
        <ele>799.6</ele>
        <time>2019-04-19T11:45:05Z</time>
      </trkpt>
      <trkpt lat="44.11887" lon="3.11135">
        <ele>799.7</ele>
        <time>2019-04-19T11:45:07Z</time>
      </trkpt>
      <trkpt lat="44.11889" lon="3.11132">
        <ele>800.2</ele>
        <time>2019-04-19T11:45:08Z</time>
      </trkpt>
      <trkpt lat="44.11889" lon="3.11125">
        <ele>800.3</ele>
        <time>2019-04-19T11:45:09Z</time>
      </trkpt>
      <trkpt lat="44.1189" lon="3.11121">
        <ele>800.5</ele>
        <time>2019-04-19T11:45:10Z</time>
      </trkpt>
      <trkpt lat="44.11889" lon="3.11117">
        <ele>800.6</ele>
        <time>2019-04-19T11:45:11Z</time>
      </trkpt>
      <trkpt lat="44.11889" lon="3.11113">
        <ele>800.7</ele>
        <time>2019-04-19T11:45:12Z</time>
      </trkpt>
      <trkpt lat="44.11889" lon="3.11109">
        <ele>800.9</ele>
        <time>2019-04-19T11:45:13Z</time>
      </trkpt>
      <trkpt lat="44.11888" lon="3.11105">
        <ele>801.1</ele>
        <time>2019-04-19T11:45:14Z</time>
      </trkpt>
      <trkpt lat="44.11888" lon="3.111">
        <ele>801.4</ele>
        <time>2019-04-19T11:45:15Z</time>
      </trkpt>
      <trkpt lat="44.11887" lon="3.11094">
        <ele>801.8</ele>
        <time>2019-04-19T11:45:17Z</time>
      </trkpt>
      <trkpt lat="44.11886" lon="3.1109">
        <ele>802</ele>
        <time>2019-04-19T11:45:18Z</time>
      </trkpt>
      <trkpt lat="44.11885" lon="3.11086">
        <ele>802.3</ele>
        <time>2019-04-19T11:45:19Z</time>
      </trkpt>
      <trkpt lat="44.11884" lon="3.11081">
        <ele>802.6</ele>
        <time>2019-04-19T11:45:20Z</time>
      </trkpt>
      <trkpt lat="44.11884" lon="3.11075">
        <ele>802.9</ele>
        <time>2019-04-19T11:45:21Z</time>
      </trkpt>
      <trkpt lat="44.11883" lon="3.1107">
        <ele>803</ele>
        <time>2019-04-19T11:45:22Z</time>
      </trkpt>
      <trkpt lat="44.11882" lon="3.11066">
        <ele>803.2</ele>
        <time>2019-04-19T11:45:23Z</time>
      </trkpt>
      <trkpt lat="44.11881" lon="3.11061">
        <ele>803.4</ele>
        <time>2019-04-19T11:45:24Z</time>
      </trkpt>
      <trkpt lat="44.11881" lon="3.11056">
        <ele>803.5</ele>
        <time>2019-04-19T11:45:25Z</time>
      </trkpt>
      <trkpt lat="44.11881" lon="3.11051">
        <ele>803.7</ele>
        <time>2019-04-19T11:45:26Z</time>
      </trkpt>
      <trkpt lat="44.11881" lon="3.11046">
        <ele>803.9</ele>
        <time>2019-04-19T11:45:27Z</time>
      </trkpt>
      <trkpt lat="44.11881" lon="3.11042">
        <ele>804.1</ele>
        <time>2019-04-19T11:45:28Z</time>
      </trkpt>
      <trkpt lat="44.11881" lon="3.11037">
        <ele>804.3</ele>
        <time>2019-04-19T11:45:29Z</time>
      </trkpt>
      <trkpt lat="44.11881" lon="3.11033">
        <ele>804.5</ele>
        <time>2019-04-19T11:45:30Z</time>
      </trkpt>
      <trkpt lat="44.1188" lon="3.11028">
        <ele>804.7</ele>
        <time>2019-04-19T11:45:31Z</time>
      </trkpt>
      <trkpt lat="44.11879" lon="3.11024">
        <ele>804.9</ele>
        <time>2019-04-19T11:45:32Z</time>
      </trkpt>
      <trkpt lat="44.11878" lon="3.11019">
        <ele>805.1</ele>
        <time>2019-04-19T11:45:33Z</time>
      </trkpt>
      <trkpt lat="44.11876" lon="3.11015">
        <ele>805.4</ele>
        <time>2019-04-19T11:45:34Z</time>
      </trkpt>
      <trkpt lat="44.11875" lon="3.11011">
        <ele>805.6</ele>
        <time>2019-04-19T11:45:35Z</time>
      </trkpt>
      <trkpt lat="44.11874" lon="3.11007">
        <ele>805.8</ele>
        <time>2019-04-19T11:45:36Z</time>
      </trkpt>
      <trkpt lat="44.11873" lon="3.11003">
        <ele>806</ele>
        <time>2019-04-19T11:45:37Z</time>
      </trkpt>
      <trkpt lat="44.11871" lon="3.10997">
        <ele>806.4</ele>
        <time>2019-04-19T11:45:39Z</time>
      </trkpt>
      <trkpt lat="44.11869" lon="3.10993">
        <ele>806.6</ele>
        <time>2019-04-19T11:45:40Z</time>
      </trkpt>
      <trkpt lat="44.11866" lon="3.10988">
        <ele>807</ele>
        <time>2019-04-19T11:45:42Z</time>
      </trkpt>
      <trkpt lat="44.11862" lon="3.10986">
        <ele>807.4</ele>
        <time>2019-04-19T11:45:44Z</time>
      </trkpt>
      <trkpt lat="44.11859" lon="3.10983">
        <ele>807.8</ele>
        <time>2019-04-19T11:45:46Z</time>
      </trkpt>
      <trkpt lat="44.11854" lon="3.10982">
        <ele>808.3</ele>
        <time>2019-04-19T11:45:48Z</time>
      </trkpt>
      <trkpt lat="44.11851" lon="3.10981">
        <ele>808.7</ele>
        <time>2019-04-19T11:45:49Z</time>
      </trkpt>
      <trkpt lat="44.11847" lon="3.10981">
        <ele>809</ele>
        <time>2019-04-19T11:45:51Z</time>
      </trkpt>
      <trkpt lat="44.11843" lon="3.1098">
        <ele>809.3</ele>
        <time>2019-04-19T11:45:53Z</time>
      </trkpt>
      <trkpt lat="44.11839" lon="3.1098">
        <ele>809.8</ele>
        <time>2019-04-19T11:45:55Z</time>
      </trkpt>
      <trkpt lat="44.11835" lon="3.10979">
        <ele>810.4</ele>
        <time>2019-04-19T11:45:57Z</time>
      </trkpt>
      <trkpt lat="44.11831" lon="3.10975">
        <ele>810.9</ele>
        <time>2019-04-19T11:45:59Z</time>
      </trkpt>
      <trkpt lat="44.11829" lon="3.10972">
        <ele>811.2</ele>
        <time>2019-04-19T11:46:01Z</time>
      </trkpt>
      <trkpt lat="44.11827" lon="3.10968">
        <ele>811.6</ele>
        <time>2019-04-19T11:46:03Z</time>
      </trkpt>
      <trkpt lat="44.11825" lon="3.10965">
        <ele>811.9</ele>
        <time>2019-04-19T11:46:04Z</time>
      </trkpt>
      <trkpt lat="44.11823" lon="3.10961">
        <ele>812.2</ele>
        <time>2019-04-19T11:46:05Z</time>
      </trkpt>
      <trkpt lat="44.1182" lon="3.10959">
        <ele>812.6</ele>
        <time>2019-04-19T11:46:06Z</time>
      </trkpt>
      <trkpt lat="44.11817" lon="3.10957">
        <ele>812.9</ele>
        <time>2019-04-19T11:46:07Z</time>
      </trkpt>
      <trkpt lat="44.11813" lon="3.10952">
        <ele>813.2</ele>
        <time>2019-04-19T11:46:09Z</time>
      </trkpt>
      <trkpt lat="44.11811" lon="3.1095">
        <ele>813.3</ele>
        <time>2019-04-19T11:46:10Z</time>
      </trkpt>
      <trkpt lat="44.11808" lon="3.10948">
        <ele>813.4</ele>
        <time>2019-04-19T11:46:11Z</time>
      </trkpt>
      <trkpt lat="44.11804" lon="3.10945">
        <ele>813.5</ele>
        <time>2019-04-19T11:46:13Z</time>
      </trkpt>
      <trkpt lat="44.11798" lon="3.10944">
        <ele>813.4</ele>
        <time>2019-04-19T11:46:15Z</time>
      </trkpt>
      <trkpt lat="44.11793" lon="3.10943">
        <ele>813.3</ele>
        <time>2019-04-19T11:46:16Z</time>
      </trkpt>
      <trkpt lat="44.11788" lon="3.10941">
        <ele>812.9</ele>
        <time>2019-04-19T11:46:17Z</time>
      </trkpt>
      <trkpt lat="44.11764" lon="3.10928">
        <ele>809.2</ele>
        <time>2019-04-19T11:46:19Z</time>
      </trkpt>
      <trkpt lat="44.11761" lon="3.10916">
        <ele>807.8</ele>
        <time>2019-04-19T11:46:20Z</time>
      </trkpt>
      <trkpt lat="44.11753" lon="3.10907">
        <ele>806.1</ele>
        <time>2019-04-19T11:46:21Z</time>
      </trkpt>
      <trkpt lat="44.1175" lon="3.10896">
        <ele>804.2</ele>
        <time>2019-04-19T11:46:22Z</time>
      </trkpt>
      <trkpt lat="44.11743" lon="3.10882">
        <ele>801.6</ele>
        <time>2019-04-19T11:46:23Z</time>
      </trkpt>
      <trkpt lat="44.11742" lon="3.1087">
        <ele>799.5</ele>
        <time>2019-04-19T11:46:24Z</time>
      </trkpt>
      <trkpt lat="44.1174" lon="3.10858">
        <ele>797.5</ele>
        <time>2019-04-19T11:46:25Z</time>
      </trkpt>
      <trkpt lat="44.11739" lon="3.1085">
        <ele>796.5</ele>
        <time>2019-04-19T11:46:26Z</time>
      </trkpt>
      <trkpt lat="44.11736" lon="3.10844">
        <ele>795.7</ele>
        <time>2019-04-19T11:46:27Z</time>
      </trkpt>
      <trkpt lat="44.1173" lon="3.10839">
        <ele>794.9</ele>
        <time>2019-04-19T11:46:28Z</time>
      </trkpt>
      <trkpt lat="44.11726" lon="3.10834">
        <ele>794.3</ele>
        <time>2019-04-19T11:46:29Z</time>
      </trkpt>
      <trkpt lat="44.11725" lon="3.10828">
        <ele>793.8</ele>
        <time>2019-04-19T11:46:30Z</time>
      </trkpt>
      <trkpt lat="44.11721" lon="3.10818">
        <ele>792.8</ele>
        <time>2019-04-19T11:46:31Z</time>
      </trkpt>
      <trkpt lat="44.11712" lon="3.10808">
        <ele>791.6</ele>
        <time>2019-04-19T11:46:32Z</time>
      </trkpt>
      <trkpt lat="44.11708" lon="3.10804">
        <ele>791.2</ele>
        <time>2019-04-19T11:46:33Z</time>
      </trkpt>
      <trkpt lat="44.11703" lon="3.10802">
        <ele>790.8</ele>
        <time>2019-04-19T11:46:34Z</time>
      </trkpt>
      <trkpt lat="44.11698" lon="3.10801">
        <ele>790.3</ele>
        <time>2019-04-19T11:46:35Z</time>
      </trkpt>
      <trkpt lat="44.11696" lon="3.10808">
        <ele>789.9</ele>
        <time>2019-04-19T11:46:36Z</time>
      </trkpt>
      <trkpt lat="44.1169" lon="3.10805">
        <ele>789.6</ele>
        <time>2019-04-19T11:46:37Z</time>
      </trkpt>
      <trkpt lat="44.11687" lon="3.108">
        <ele>789.3</ele>
        <time>2019-04-19T11:46:38Z</time>
      </trkpt>
      <trkpt lat="44.11681" lon="3.10796">
        <ele>788.8</ele>
        <time>2019-04-19T11:46:39Z</time>
      </trkpt>
      <trkpt lat="44.11674" lon="3.10797">
        <ele>788.4</ele>
        <time>2019-04-19T11:46:40Z</time>
      </trkpt>
      <trkpt lat="44.11672" lon="3.10794">
        <ele>788.2</ele>
        <time>2019-04-19T11:46:41Z</time>
      </trkpt>
      <trkpt lat="44.11667" lon="3.1079">
        <ele>788</ele>
        <time>2019-04-19T11:46:42Z</time>
      </trkpt>
      <trkpt lat="44.11664" lon="3.10788">
        <ele>787.8</ele>
        <time>2019-04-19T11:46:43Z</time>
      </trkpt>
      <trkpt lat="44.11662" lon="3.10785">
        <ele>787.8</ele>
        <time>2019-04-19T11:46:44Z</time>
      </trkpt>
      <trkpt lat="44.11657" lon="3.1078">
        <ele>787.7</ele>
        <time>2019-04-19T11:46:46Z</time>
      </trkpt>
      <trkpt lat="44.11655" lon="3.10777">
        <ele>787.8</ele>
        <time>2019-04-19T11:46:47Z</time>
      </trkpt>
      <trkpt lat="44.1165" lon="3.10774">
        <ele>788</ele>
        <time>2019-04-19T11:46:48Z</time>
      </trkpt>
      <trkpt lat="44.11647" lon="3.10771">
        <ele>788.2</ele>
        <time>2019-04-19T11:46:49Z</time>
      </trkpt>
      <trkpt lat="44.11643" lon="3.10768">
        <ele>788.5</ele>
        <time>2019-04-19T11:46:50Z</time>
      </trkpt>
      <trkpt lat="44.1164" lon="3.10766">
        <ele>788.8</ele>
        <time>2019-04-19T11:46:52Z</time>
      </trkpt>
      <trkpt lat="44.11637" lon="3.10764">
        <ele>789.3</ele>
        <time>2019-04-19T11:46:54Z</time>
      </trkpt>
      <trkpt lat="44.11632" lon="3.10762">
        <ele>789.8</ele>
        <time>2019-04-19T11:46:56Z</time>
      </trkpt>
      <trkpt lat="44.11629" lon="3.10762">
        <ele>790.1</ele>
        <time>2019-04-19T11:46:58Z</time>
      </trkpt>
      <trkpt lat="44.11626" lon="3.10761">
        <ele>790.5</ele>
        <time>2019-04-19T11:47:00Z</time>
      </trkpt>
      <trkpt lat="44.11622" lon="3.10759">
        <ele>791</ele>
        <time>2019-04-19T11:47:02Z</time>
      </trkpt>
      <trkpt lat="44.11619" lon="3.10755">
        <ele>791.5</ele>
        <time>2019-04-19T11:47:04Z</time>
      </trkpt>
      <trkpt lat="44.11616" lon="3.10753">
        <ele>791.8</ele>
        <time>2019-04-19T11:47:05Z</time>
      </trkpt>
      <trkpt lat="44.11614" lon="3.10751">
        <ele>792</ele>
        <time>2019-04-19T11:47:06Z</time>
      </trkpt>
      <trkpt lat="44.11611" lon="3.10747">
        <ele>792.4</ele>
        <time>2019-04-19T11:47:08Z</time>
      </trkpt>
      <trkpt lat="44.11608" lon="3.10741">
        <ele>793</ele>
        <time>2019-04-19T11:47:10Z</time>
      </trkpt>
      <trkpt lat="44.11605" lon="3.10737">
        <ele>793.4</ele>
        <time>2019-04-19T11:47:12Z</time>
      </trkpt>
      <trkpt lat="44.11603" lon="3.10734">
        <ele>793.7</ele>
        <time>2019-04-19T11:47:13Z</time>
      </trkpt>
      <trkpt lat="44.11601" lon="3.10732">
        <ele>794</ele>
        <time>2019-04-19T11:47:14Z</time>
      </trkpt>
      <trkpt lat="44.11597" lon="3.10729">
        <ele>794.7</ele>
        <time>2019-04-19T11:47:16Z</time>
      </trkpt>
      <trkpt lat="44.11594" lon="3.10725">
        <ele>795.1</ele>
        <time>2019-04-19T11:47:18Z</time>
      </trkpt>
      <trkpt lat="44.11592" lon="3.10722">
        <ele>795.5</ele>
        <time>2019-04-19T11:47:20Z</time>
      </trkpt>
      <trkpt lat="44.1159" lon="3.10719">
        <ele>796</ele>
        <time>2019-04-19T11:47:22Z</time>
      </trkpt>
      <trkpt lat="44.11587" lon="3.10716">
        <ele>796.5</ele>
        <time>2019-04-19T11:47:24Z</time>
      </trkpt>
      <trkpt lat="44.11585" lon="3.10713">
        <ele>797</ele>
        <time>2019-04-19T11:47:27Z</time>
      </trkpt>
      <trkpt lat="44.11582" lon="3.1071">
        <ele>797.6</ele>
        <time>2019-04-19T11:47:30Z</time>
      </trkpt>
      <trkpt lat="44.1158" lon="3.10706">
        <ele>798.3</ele>
        <time>2019-04-19T11:47:33Z</time>
      </trkpt>
      <trkpt lat="44.11577" lon="3.10703">
        <ele>799</ele>
        <time>2019-04-19T11:47:36Z</time>
      </trkpt>
      <trkpt lat="44.11574" lon="3.107">
        <ele>799.5</ele>
        <time>2019-04-19T11:47:39Z</time>
      </trkpt>
      <trkpt lat="44.11572" lon="3.10696">
        <ele>800.1</ele>
        <time>2019-04-19T11:47:43Z</time>
      </trkpt>
      <trkpt lat="44.1157" lon="3.10693">
        <ele>800.6</ele>
        <time>2019-04-19T11:47:46Z</time>
      </trkpt>
      <trkpt lat="44.11566" lon="3.10689">
        <ele>801.4</ele>
        <time>2019-04-19T11:47:49Z</time>
      </trkpt>
      <trkpt lat="44.11564" lon="3.10688">
        <ele>801.9</ele>
        <time>2019-04-19T11:47:50Z</time>
      </trkpt>
      <trkpt lat="44.1156" lon="3.10687">
        <ele>802.6</ele>
        <time>2019-04-19T11:47:52Z</time>
      </trkpt>
      <trkpt lat="44.11557" lon="3.10687">
        <ele>803.1</ele>
        <time>2019-04-19T11:47:53Z</time>
      </trkpt>
      <trkpt lat="44.11552" lon="3.10687">
        <ele>803.8</ele>
        <time>2019-04-19T11:47:55Z</time>
      </trkpt>
      <trkpt lat="44.11548" lon="3.10688">
        <ele>804.5</ele>
        <time>2019-04-19T11:47:57Z</time>
      </trkpt>
      <trkpt lat="44.11545" lon="3.10688">
        <ele>805.1</ele>
        <time>2019-04-19T11:48:00Z</time>
      </trkpt>
      <trkpt lat="44.11543" lon="3.10685">
        <ele>805.6</ele>
        <time>2019-04-19T11:48:03Z</time>
      </trkpt>
      <trkpt lat="44.11543" lon="3.1068">
        <ele>806</ele>
        <time>2019-04-19T11:48:07Z</time>
      </trkpt>
      <trkpt lat="44.11542" lon="3.10677">
        <ele>806.3</ele>
        <time>2019-04-19T11:48:09Z</time>
      </trkpt>
      <trkpt lat="44.11543" lon="3.10671">
        <ele>806.6</ele>
        <time>2019-04-19T11:48:12Z</time>
      </trkpt>
      <trkpt lat="44.11542" lon="3.10666">
        <ele>806.8</ele>
        <time>2019-04-19T11:48:14Z</time>
      </trkpt>
      <trkpt lat="44.1154" lon="3.10661">
        <ele>807.1</ele>
        <time>2019-04-19T11:48:16Z</time>
      </trkpt>
      <trkpt lat="44.11538" lon="3.10659">
        <ele>807.4</ele>
        <time>2019-04-19T11:48:18Z</time>
      </trkpt>
      <trkpt lat="44.11535" lon="3.10657">
        <ele>807.7</ele>
        <time>2019-04-19T11:48:20Z</time>
      </trkpt>
      <trkpt lat="44.11531" lon="3.10652">
        <ele>808.2</ele>
        <time>2019-04-19T11:48:22Z</time>
      </trkpt>
      <trkpt lat="44.11527" lon="3.10649">
        <ele>808.8</ele>
        <time>2019-04-19T11:48:24Z</time>
      </trkpt>
      <trkpt lat="44.11524" lon="3.10648">
        <ele>809.1</ele>
        <time>2019-04-19T11:48:25Z</time>
      </trkpt>
      <trkpt lat="44.1152" lon="3.10645">
        <ele>809.6</ele>
        <time>2019-04-19T11:48:27Z</time>
      </trkpt>
      <trkpt lat="44.11516" lon="3.10643">
        <ele>810.2</ele>
        <time>2019-04-19T11:48:29Z</time>
      </trkpt>
      <trkpt lat="44.11512" lon="3.10642">
        <ele>810.6</ele>
        <time>2019-04-19T11:48:31Z</time>
      </trkpt>
      <trkpt lat="44.11508" lon="3.10643">
        <ele>811.2</ele>
        <time>2019-04-19T11:48:34Z</time>
      </trkpt>
      <trkpt lat="44.11504" lon="3.10645">
        <ele>811.7</ele>
        <time>2019-04-19T11:48:36Z</time>
      </trkpt>
      <trkpt lat="44.115" lon="3.10644">
        <ele>812.1</ele>
        <time>2019-04-19T11:48:38Z</time>
      </trkpt>
      <trkpt lat="44.11496" lon="3.10645">
        <ele>812.4</ele>
        <time>2019-04-19T11:48:41Z</time>
      </trkpt>
      <trkpt lat="44.11492" lon="3.10645">
        <ele>812.7</ele>
        <time>2019-04-19T11:48:43Z</time>
      </trkpt>
      <trkpt lat="44.11489" lon="3.10644">
        <ele>812.9</ele>
        <time>2019-04-19T11:48:44Z</time>
      </trkpt>
      <trkpt lat="44.11485" lon="3.10645">
        <ele>813.1</ele>
        <time>2019-04-19T11:48:46Z</time>
      </trkpt>
      <trkpt lat="44.11482" lon="3.10642">
        <ele>813.3</ele>
        <time>2019-04-19T11:48:49Z</time>
      </trkpt>
      <trkpt lat="44.11479" lon="3.10639">
        <ele>813.3</ele>
        <time>2019-04-19T11:48:51Z</time>
      </trkpt>
      <trkpt lat="44.11477" lon="3.10635">
        <ele>813.4</ele>
        <time>2019-04-19T11:48:53Z</time>
      </trkpt>
      <trkpt lat="44.11473" lon="3.1063">
        <ele>813.4</ele>
        <time>2019-04-19T11:48:55Z</time>
      </trkpt>
      <trkpt lat="44.11471" lon="3.10627">
        <ele>813.4</ele>
        <time>2019-04-19T11:48:56Z</time>
      </trkpt>
      <trkpt lat="44.11469" lon="3.10624">
        <ele>813.5</ele>
        <time>2019-04-19T11:48:57Z</time>
      </trkpt>
      <trkpt lat="44.11466" lon="3.1062">
        <ele>813.5</ele>
        <time>2019-04-19T11:48:58Z</time>
      </trkpt>
      <trkpt lat="44.11464" lon="3.10617">
        <ele>813.5</ele>
        <time>2019-04-19T11:48:59Z</time>
      </trkpt>
      <trkpt lat="44.1146" lon="3.10612">
        <ele>813.5</ele>
        <time>2019-04-19T11:49:01Z</time>
      </trkpt>
      <trkpt lat="44.11457" lon="3.1061">
        <ele>813.5</ele>
        <time>2019-04-19T11:49:02Z</time>
      </trkpt>
      <trkpt lat="44.11455" lon="3.10607">
        <ele>813.5</ele>
        <time>2019-04-19T11:49:03Z</time>
      </trkpt>
      <trkpt lat="44.11453" lon="3.10603">
        <ele>813.5</ele>
        <time>2019-04-19T11:49:04Z</time>
      </trkpt>
      <trkpt lat="44.1145" lon="3.10598">
        <ele>813.6</ele>
        <time>2019-04-19T11:49:05Z</time>
      </trkpt>
      <trkpt lat="44.11448" lon="3.10594">
        <ele>813.6</ele>
        <time>2019-04-19T11:49:06Z</time>
      </trkpt>
      <trkpt lat="44.11445" lon="3.1059">
        <ele>813.6</ele>
        <time>2019-04-19T11:49:07Z</time>
      </trkpt>
      <trkpt lat="44.11442" lon="3.10587">
        <ele>813.6</ele>
        <time>2019-04-19T11:49:08Z</time>
      </trkpt>
      <trkpt lat="44.11438" lon="3.10584">
        <ele>813.6</ele>
        <time>2019-04-19T11:49:09Z</time>
      </trkpt>
      <trkpt lat="44.11435" lon="3.1058">
        <ele>813.6</ele>
        <time>2019-04-19T11:49:10Z</time>
      </trkpt>
      <trkpt lat="44.11432" lon="3.10577">
        <ele>813.5</ele>
        <time>2019-04-19T11:49:11Z</time>
      </trkpt>
      <trkpt lat="44.11429" lon="3.10573">
        <ele>813.4</ele>
        <time>2019-04-19T11:49:12Z</time>
      </trkpt>
      <trkpt lat="44.11426" lon="3.1057">
        <ele>813.3</ele>
        <time>2019-04-19T11:49:13Z</time>
      </trkpt>
      <trkpt lat="44.11422" lon="3.10568">
        <ele>813.2</ele>
        <time>2019-04-19T11:49:14Z</time>
      </trkpt>
      <trkpt lat="44.11419" lon="3.10565">
        <ele>813.1</ele>
        <time>2019-04-19T11:49:15Z</time>
      </trkpt>
      <trkpt lat="44.11415" lon="3.10563">
        <ele>813</ele>
        <time>2019-04-19T11:49:16Z</time>
      </trkpt>
      <trkpt lat="44.11412" lon="3.10561">
        <ele>813</ele>
        <time>2019-04-19T11:49:17Z</time>
      </trkpt>
      <trkpt lat="44.11409" lon="3.10558">
        <ele>813</ele>
        <time>2019-04-19T11:49:18Z</time>
      </trkpt>
      <trkpt lat="44.11406" lon="3.10555">
        <ele>813.1</ele>
        <time>2019-04-19T11:49:19Z</time>
      </trkpt>
      <trkpt lat="44.11403" lon="3.10552">
        <ele>813.2</ele>
        <time>2019-04-19T11:49:20Z</time>
      </trkpt>
      <trkpt lat="44.114" lon="3.1055">
        <ele>813.2</ele>
        <time>2019-04-19T11:49:21Z</time>
      </trkpt>
      <trkpt lat="44.11398" lon="3.10547">
        <ele>813.4</ele>
        <time>2019-04-19T11:49:22Z</time>
      </trkpt>
      <trkpt lat="44.11395" lon="3.10544">
        <ele>813.5</ele>
        <time>2019-04-19T11:49:23Z</time>
      </trkpt>
      <trkpt lat="44.11393" lon="3.10542">
        <ele>813.6</ele>
        <time>2019-04-19T11:49:24Z</time>
      </trkpt>
      <trkpt lat="44.11391" lon="3.10538">
        <ele>813.8</ele>
        <time>2019-04-19T11:49:26Z</time>
      </trkpt>
      <trkpt lat="44.11389" lon="3.10533">
        <ele>814</ele>
        <time>2019-04-19T11:49:28Z</time>
      </trkpt>
      <trkpt lat="44.11387" lon="3.10531">
        <ele>814.1</ele>
        <time>2019-04-19T11:49:29Z</time>
      </trkpt>
      <trkpt lat="44.11383" lon="3.1053">
        <ele>814.4</ele>
        <time>2019-04-19T11:49:31Z</time>
      </trkpt>
      <trkpt lat="44.11379" lon="3.10529">
        <ele>814.7</ele>
        <time>2019-04-19T11:49:33Z</time>
      </trkpt>
      <trkpt lat="44.11375" lon="3.10529">
        <ele>815</ele>
        <time>2019-04-19T11:49:35Z</time>
      </trkpt>
      <trkpt lat="44.1137" lon="3.10529">
        <ele>815.4</ele>
        <time>2019-04-19T11:49:37Z</time>
      </trkpt>
      <trkpt lat="44.11365" lon="3.10527">
        <ele>815.8</ele>
        <time>2019-04-19T11:49:39Z</time>
      </trkpt>
      <trkpt lat="44.11362" lon="3.10525">
        <ele>816.2</ele>
        <time>2019-04-19T11:49:41Z</time>
      </trkpt>
      <trkpt lat="44.11357" lon="3.10523">
        <ele>816.6</ele>
        <time>2019-04-19T11:49:43Z</time>
      </trkpt>
      <trkpt lat="44.11353" lon="3.10522">
        <ele>816.9</ele>
        <time>2019-04-19T11:49:44Z</time>
      </trkpt>
      <trkpt lat="44.1135" lon="3.10521">
        <ele>817.2</ele>
        <time>2019-04-19T11:49:45Z</time>
      </trkpt>
      <trkpt lat="44.11346" lon="3.1052">
        <ele>817.5</ele>
        <time>2019-04-19T11:49:46Z</time>
      </trkpt>
      <trkpt lat="44.11344" lon="3.1052">
        <ele>817.8</ele>
        <time>2019-04-19T11:49:47Z</time>
      </trkpt>
      <trkpt lat="44.11339" lon="3.10522">
        <ele>818.2</ele>
        <time>2019-04-19T11:49:49Z</time>
      </trkpt>
      <trkpt lat="44.11335" lon="3.10527">
        <ele>818.8</ele>
        <time>2019-04-19T11:49:51Z</time>
      </trkpt>
      <trkpt lat="44.11333" lon="3.1053">
        <ele>819.1</ele>
        <time>2019-04-19T11:49:52Z</time>
      </trkpt>
      <trkpt lat="44.1133" lon="3.10533">
        <ele>819.4</ele>
        <time>2019-04-19T11:49:54Z</time>
      </trkpt>
      <trkpt lat="44.11327" lon="3.10535">
        <ele>819.7</ele>
        <time>2019-04-19T11:49:56Z</time>
      </trkpt>
      <trkpt lat="44.11323" lon="3.10541">
        <ele>820</ele>
        <time>2019-04-19T11:49:58Z</time>
      </trkpt>
      <trkpt lat="44.11321" lon="3.10546">
        <ele>820.1</ele>
        <time>2019-04-19T11:49:59Z</time>
      </trkpt>
      <trkpt lat="44.1132" lon="3.1055">
        <ele>820.2</ele>
        <time>2019-04-19T11:50:00Z</time>
      </trkpt>
      <trkpt lat="44.11318" lon="3.10557">
        <ele>820.2</ele>
        <time>2019-04-19T11:50:02Z</time>
      </trkpt>
      <trkpt lat="44.11315" lon="3.1056">
        <ele>820.3</ele>
        <time>2019-04-19T11:50:04Z</time>
      </trkpt>
      <trkpt lat="44.11312" lon="3.1056">
        <ele>820.3</ele>
        <time>2019-04-19T11:50:06Z</time>
      </trkpt>
      <trkpt lat="44.11308" lon="3.1056">
        <ele>820.3</ele>
        <time>2019-04-19T11:50:08Z</time>
      </trkpt>
      <trkpt lat="44.11304" lon="3.10559">
        <ele>820.3</ele>
        <time>2019-04-19T11:50:12Z</time>
      </trkpt>
      <trkpt lat="44.113" lon="3.10558">
        <ele>820.3</ele>
        <time>2019-04-19T11:50:13Z</time>
      </trkpt>
      <trkpt lat="44.11296" lon="3.10559">
        <ele>820.2</ele>
        <time>2019-04-19T11:50:14Z</time>
      </trkpt>
      <trkpt lat="44.11292" lon="3.10558">
        <ele>820.2</ele>
        <time>2019-04-19T11:50:15Z</time>
      </trkpt>
      <trkpt lat="44.11288" lon="3.10557">
        <ele>820.2</ele>
        <time>2019-04-19T11:50:16Z</time>
      </trkpt>
      <trkpt lat="44.11284" lon="3.10557">
        <ele>820.2</ele>
        <time>2019-04-19T11:50:17Z</time>
      </trkpt>
      <trkpt lat="44.11281" lon="3.10556">
        <ele>820.1</ele>
        <time>2019-04-19T11:50:18Z</time>
      </trkpt>
      <trkpt lat="44.11278" lon="3.10555">
        <ele>820.1</ele>
        <time>2019-04-19T11:50:19Z</time>
      </trkpt>
      <trkpt lat="44.11275" lon="3.10554">
        <ele>820</ele>
        <time>2019-04-19T11:50:20Z</time>
      </trkpt>
      <trkpt lat="44.11271" lon="3.10553">
        <ele>819.9</ele>
        <time>2019-04-19T11:50:21Z</time>
      </trkpt>
      <trkpt lat="44.11266" lon="3.10553">
        <ele>819.7</ele>
        <time>2019-04-19T11:50:22Z</time>
      </trkpt>
      <trkpt lat="44.11261" lon="3.10554">
        <ele>819.5</ele>
        <time>2019-04-19T11:50:23Z</time>
      </trkpt>
      <trkpt lat="44.11257" lon="3.10555">
        <ele>819.2</ele>
        <time>2019-04-19T11:50:24Z</time>
      </trkpt>
      <trkpt lat="44.11252" lon="3.10555">
        <ele>818.9</ele>
        <time>2019-04-19T11:50:25Z</time>
      </trkpt>
      <trkpt lat="44.11247" lon="3.10554">
        <ele>818.5</ele>
        <time>2019-04-19T11:50:26Z</time>
      </trkpt>
      <trkpt lat="44.11243" lon="3.10551">
        <ele>818</ele>
        <time>2019-04-19T11:50:27Z</time>
      </trkpt>
      <trkpt lat="44.11238" lon="3.10547">
        <ele>817.7</ele>
        <time>2019-04-19T11:50:28Z</time>
      </trkpt>
      <trkpt lat="44.11235" lon="3.10542">
        <ele>817.2</ele>
        <time>2019-04-19T11:50:29Z</time>
      </trkpt>
      <trkpt lat="44.11233" lon="3.10538">
        <ele>817</ele>
        <time>2019-04-19T11:50:30Z</time>
      </trkpt>
      <trkpt lat="44.11232" lon="3.10532">
        <ele>816.7</ele>
        <time>2019-04-19T11:50:31Z</time>
      </trkpt>
      <trkpt lat="44.1123" lon="3.10525">
        <ele>816.5</ele>
        <time>2019-04-19T11:50:32Z</time>
      </trkpt>
      <trkpt lat="44.11228" lon="3.1052">
        <ele>816.4</ele>
        <time>2019-04-19T11:50:33Z</time>
      </trkpt>
      <trkpt lat="44.11227" lon="3.10514">
        <ele>816.4</ele>
        <time>2019-04-19T11:50:34Z</time>
      </trkpt>
      <trkpt lat="44.11226" lon="3.10511">
        <ele>816.4</ele>
        <time>2019-04-19T11:50:35Z</time>
      </trkpt>
      <trkpt lat="44.11222" lon="3.10507">
        <ele>816.5</ele>
        <time>2019-04-19T11:50:37Z</time>
      </trkpt>
      <trkpt lat="44.11218" lon="3.10503">
        <ele>816.7</ele>
        <time>2019-04-19T11:50:39Z</time>
      </trkpt>
      <trkpt lat="44.11214" lon="3.10501">
        <ele>817</ele>
        <time>2019-04-19T11:50:41Z</time>
      </trkpt>
      <trkpt lat="44.11213" lon="3.10498">
        <ele>817.2</ele>
        <time>2019-04-19T11:50:42Z</time>
      </trkpt>
      <trkpt lat="44.1121" lon="3.10495">
        <ele>817.4</ele>
        <time>2019-04-19T11:50:43Z</time>
      </trkpt>
      <trkpt lat="44.11208" lon="3.10491">
        <ele>817.6</ele>
        <time>2019-04-19T11:50:44Z</time>
      </trkpt>
      <trkpt lat="44.11205" lon="3.10486">
        <ele>818</ele>
        <time>2019-04-19T11:50:46Z</time>
      </trkpt>
      <trkpt lat="44.11202" lon="3.10483">
        <ele>818.3</ele>
        <time>2019-04-19T11:50:47Z</time>
      </trkpt>
      <trkpt lat="44.11199" lon="3.10481">
        <ele>818.6</ele>
        <time>2019-04-19T11:50:48Z</time>
      </trkpt>
      <trkpt lat="44.11197" lon="3.10479">
        <ele>818.9</ele>
        <time>2019-04-19T11:50:49Z</time>
      </trkpt>
      <trkpt lat="44.11193" lon="3.10478">
        <ele>819.2</ele>
        <time>2019-04-19T11:50:50Z</time>
      </trkpt>
      <trkpt lat="44.1119" lon="3.10476">
        <ele>819.6</ele>
        <time>2019-04-19T11:50:53Z</time>
      </trkpt>
      <trkpt lat="44.11188" lon="3.10473">
        <ele>820</ele>
        <time>2019-04-19T11:50:55Z</time>
      </trkpt>
      <trkpt lat="44.11184" lon="3.10469">
        <ele>820.5</ele>
        <time>2019-04-19T11:50:58Z</time>
      </trkpt>
      <trkpt lat="44.11183" lon="3.10464">
        <ele>820.9</ele>
        <time>2019-04-19T11:51:00Z</time>
      </trkpt>
      <trkpt lat="44.11182" lon="3.10457">
        <ele>821.3</ele>
        <time>2019-04-19T11:51:02Z</time>
      </trkpt>
      <trkpt lat="44.11179" lon="3.10453">
        <ele>821.8</ele>
        <time>2019-04-19T11:51:04Z</time>
      </trkpt>
      <trkpt lat="44.11177" lon="3.10451">
        <ele>822.1</ele>
        <time>2019-04-19T11:51:05Z</time>
      </trkpt>
      <trkpt lat="44.11173" lon="3.10447">
        <ele>822.7</ele>
        <time>2019-04-19T11:51:07Z</time>
      </trkpt>
      <trkpt lat="44.11169" lon="3.10442">
        <ele>823.3</ele>
        <time>2019-04-19T11:51:09Z</time>
      </trkpt>
      <trkpt lat="44.11166" lon="3.1044">
        <ele>823.7</ele>
        <time>2019-04-19T11:51:10Z</time>
      </trkpt>
      <trkpt lat="44.11163" lon="3.10438">
        <ele>824</ele>
        <time>2019-04-19T11:51:11Z</time>
      </trkpt>
      <trkpt lat="44.1116" lon="3.10436">
        <ele>824.2</ele>
        <time>2019-04-19T11:51:12Z</time>
      </trkpt>
      <trkpt lat="44.11157" lon="3.10433">
        <ele>824.4</ele>
        <time>2019-04-19T11:51:13Z</time>
      </trkpt>
      <trkpt lat="44.11155" lon="3.10429">
        <ele>824.7</ele>
        <time>2019-04-19T11:51:14Z</time>
      </trkpt>
      <trkpt lat="44.11153" lon="3.10425">
        <ele>824.9</ele>
        <time>2019-04-19T11:51:15Z</time>
      </trkpt>
      <trkpt lat="44.11151" lon="3.10421">
        <ele>825</ele>
        <time>2019-04-19T11:51:16Z</time>
      </trkpt>
      <trkpt lat="44.11149" lon="3.10418">
        <ele>825</ele>
        <time>2019-04-19T11:51:17Z</time>
      </trkpt>
      <trkpt lat="44.11147" lon="3.10415">
        <ele>825.1</ele>
        <time>2019-04-19T11:51:18Z</time>
      </trkpt>
      <trkpt lat="44.11145" lon="3.10412">
        <ele>825.1</ele>
        <time>2019-04-19T11:51:19Z</time>
      </trkpt>
      <trkpt lat="44.11142" lon="3.10408">
        <ele>825.2</ele>
        <time>2019-04-19T11:51:21Z</time>
      </trkpt>
      <trkpt lat="44.11139" lon="3.10402">
        <ele>825.3</ele>
        <time>2019-04-19T11:51:23Z</time>
      </trkpt>
      <trkpt lat="44.11138" lon="3.10397">
        <ele>825.4</ele>
        <time>2019-04-19T11:51:24Z</time>
      </trkpt>
      <trkpt lat="44.11138" lon="3.10393">
        <ele>825.5</ele>
        <time>2019-04-19T11:51:25Z</time>
      </trkpt>
      <trkpt lat="44.11136" lon="3.10389">
        <ele>825.6</ele>
        <time>2019-04-19T11:51:26Z</time>
      </trkpt>
      <trkpt lat="44.11134" lon="3.10386">
        <ele>825.7</ele>
        <time>2019-04-19T11:51:27Z</time>
      </trkpt>
      <trkpt lat="44.11132" lon="3.10383">
        <ele>825.8</ele>
        <time>2019-04-19T11:51:28Z</time>
      </trkpt>
      <trkpt lat="44.11129" lon="3.1038">
        <ele>826</ele>
        <time>2019-04-19T11:51:29Z</time>
      </trkpt>
      <trkpt lat="44.11126" lon="3.10376">
        <ele>826.1</ele>
        <time>2019-04-19T11:51:30Z</time>
      </trkpt>
      <trkpt lat="44.11124" lon="3.10373">
        <ele>826.2</ele>
        <time>2019-04-19T11:51:31Z</time>
      </trkpt>
      <trkpt lat="44.11122" lon="3.10371">
        <ele>826.3</ele>
        <time>2019-04-19T11:51:32Z</time>
      </trkpt>
      <trkpt lat="44.1112" lon="3.10368">
        <ele>826.4</ele>
        <time>2019-04-19T11:51:33Z</time>
      </trkpt>
      <trkpt lat="44.11118" lon="3.10365">
        <ele>826.3</ele>
        <time>2019-04-19T11:51:34Z</time>
      </trkpt>
      <trkpt lat="44.11115" lon="3.10359">
        <ele>826.2</ele>
        <time>2019-04-19T11:51:36Z</time>
      </trkpt>
      <trkpt lat="44.11112" lon="3.10355">
        <ele>826.1</ele>
        <time>2019-04-19T11:51:37Z</time>
      </trkpt>
      <trkpt lat="44.1111" lon="3.10351">
        <ele>826.1</ele>
        <time>2019-04-19T11:51:38Z</time>
      </trkpt>
      <trkpt lat="44.11107" lon="3.10347">
        <ele>826</ele>
        <time>2019-04-19T11:51:39Z</time>
      </trkpt>
      <trkpt lat="44.11104" lon="3.10341">
        <ele>825.9</ele>
        <time>2019-04-19T11:51:40Z</time>
      </trkpt>
      <trkpt lat="44.11101" lon="3.10335">
        <ele>825.7</ele>
        <time>2019-04-19T11:51:41Z</time>
      </trkpt>
      <trkpt lat="44.11099" lon="3.10329">
        <ele>825.5</ele>
        <time>2019-04-19T11:51:42Z</time>
      </trkpt>
      <trkpt lat="44.11097" lon="3.10322">
        <ele>825.3</ele>
        <time>2019-04-19T11:51:43Z</time>
      </trkpt>
      <trkpt lat="44.11096" lon="3.10317">
        <ele>825.1</ele>
        <time>2019-04-19T11:51:44Z</time>
      </trkpt>
      <trkpt lat="44.11094" lon="3.10313">
        <ele>824.9</ele>
        <time>2019-04-19T11:51:45Z</time>
      </trkpt>
      <trkpt lat="44.11092" lon="3.10308">
        <ele>824.7</ele>
        <time>2019-04-19T11:51:46Z</time>
      </trkpt>
      <trkpt lat="44.1109" lon="3.10303">
        <ele>824.5</ele>
        <time>2019-04-19T11:51:47Z</time>
      </trkpt>
      <trkpt lat="44.11087" lon="3.10298">
        <ele>824.3</ele>
        <time>2019-04-19T11:51:48Z</time>
      </trkpt>
      <trkpt lat="44.11085" lon="3.10293">
        <ele>824</ele>
        <time>2019-04-19T11:51:49Z</time>
      </trkpt>
      <trkpt lat="44.11082" lon="3.10289">
        <ele>823.8</ele>
        <time>2019-04-19T11:51:50Z</time>
      </trkpt>
      <trkpt lat="44.11081" lon="3.10285">
        <ele>823.7</ele>
        <time>2019-04-19T11:51:51Z</time>
      </trkpt>
      <trkpt lat="44.11077" lon="3.1028">
        <ele>823.5</ele>
        <time>2019-04-19T11:51:53Z</time>
      </trkpt>
      <trkpt lat="44.11076" lon="3.10274">
        <ele>823.4</ele>
        <time>2019-04-19T11:51:55Z</time>
      </trkpt>
      <trkpt lat="44.11077" lon="3.1027">
        <ele>823.3</ele>
        <time>2019-04-19T11:51:57Z</time>
      </trkpt>
      <trkpt lat="44.11081" lon="3.10268">
        <ele>823.3</ele>
        <time>2019-04-19T11:51:59Z</time>
      </trkpt>
      <trkpt lat="44.11085" lon="3.10266">
        <ele>823.3</ele>
        <time>2019-04-19T11:52:01Z</time>
      </trkpt>
      <trkpt lat="44.11088" lon="3.10259">
        <ele>822.8</ele>
        <time>2019-04-19T11:52:03Z</time>
      </trkpt>
      <trkpt lat="44.11088" lon="3.10254">
        <ele>822.5</ele>
        <time>2019-04-19T11:52:04Z</time>
      </trkpt>
      <trkpt lat="44.11088" lon="3.10249">
        <ele>822.2</ele>
        <time>2019-04-19T11:52:05Z</time>
      </trkpt>
      <trkpt lat="44.11086" lon="3.10244">
        <ele>821.9</ele>
        <time>2019-04-19T11:52:06Z</time>
      </trkpt>
      <trkpt lat="44.11084" lon="3.10239">
        <ele>821.6</ele>
        <time>2019-04-19T11:52:07Z</time>
      </trkpt>
      <trkpt lat="44.11082" lon="3.10235">
        <ele>821.3</ele>
        <time>2019-04-19T11:52:08Z</time>
      </trkpt>
      <trkpt lat="44.1108" lon="3.1023">
        <ele>821.1</ele>
        <time>2019-04-19T11:52:09Z</time>
      </trkpt>
      <trkpt lat="44.11077" lon="3.10226">
        <ele>820.8</ele>
        <time>2019-04-19T11:52:10Z</time>
      </trkpt>
      <trkpt lat="44.11075" lon="3.10221">
        <ele>820.5</ele>
        <time>2019-04-19T11:52:11Z</time>
      </trkpt>
      <trkpt lat="44.11072" lon="3.10216">
        <ele>820.2</ele>
        <time>2019-04-19T11:52:12Z</time>
      </trkpt>
      <trkpt lat="44.11069" lon="3.10211">
        <ele>819.8</ele>
        <time>2019-04-19T11:52:13Z</time>
      </trkpt>
      <trkpt lat="44.11066" lon="3.10206">
        <ele>819.5</ele>
        <time>2019-04-19T11:52:14Z</time>
      </trkpt>
      <trkpt lat="44.11063" lon="3.10202">
        <ele>819.2</ele>
        <time>2019-04-19T11:52:15Z</time>
      </trkpt>
      <trkpt lat="44.11061" lon="3.10199">
        <ele>818.9</ele>
        <time>2019-04-19T11:52:16Z</time>
      </trkpt>
      <trkpt lat="44.11059" lon="3.10195">
        <ele>818.6</ele>
        <time>2019-04-19T11:52:17Z</time>
      </trkpt>
      <trkpt lat="44.11057" lon="3.1019">
        <ele>818.3</ele>
        <time>2019-04-19T11:52:18Z</time>
      </trkpt>
      <trkpt lat="44.11057" lon="3.10184">
        <ele>818</ele>
        <time>2019-04-19T11:52:19Z</time>
      </trkpt>
      <trkpt lat="44.11056" lon="3.10178">
        <ele>817.7</ele>
        <time>2019-04-19T11:52:20Z</time>
      </trkpt>
      <trkpt lat="44.11056" lon="3.10172">
        <ele>817.4</ele>
        <time>2019-04-19T11:52:21Z</time>
      </trkpt>
      <trkpt lat="44.11056" lon="3.10166">
        <ele>817.1</ele>
        <time>2019-04-19T11:52:22Z</time>
      </trkpt>
      <trkpt lat="44.11056" lon="3.10162">
        <ele>816.8</ele>
        <time>2019-04-19T11:52:23Z</time>
      </trkpt>
      <trkpt lat="44.11056" lon="3.10157">
        <ele>816.6</ele>
        <time>2019-04-19T11:52:25Z</time>
      </trkpt>
      <trkpt lat="44.11053" lon="3.10156">
        <ele>816.4</ele>
        <time>2019-04-19T11:53:13Z</time>
      </trkpt>
      <trkpt lat="44.1105" lon="3.10154">
        <ele>816.2</ele>
        <time>2019-04-19T11:53:15Z</time>
      </trkpt>
      <trkpt lat="44.11045" lon="3.10153">
        <ele>816</ele>
        <time>2019-04-19T11:53:17Z</time>
      </trkpt>
      <trkpt lat="44.11042" lon="3.10153">
        <ele>815.9</ele>
        <time>2019-04-19T11:53:18Z</time>
      </trkpt>
      <trkpt lat="44.11038" lon="3.10152">
        <ele>815.7</ele>
        <time>2019-04-19T11:53:19Z</time>
      </trkpt>
      <trkpt lat="44.11035" lon="3.10151">
        <ele>815.6</ele>
        <time>2019-04-19T11:53:20Z</time>
      </trkpt>
      <trkpt lat="44.11032" lon="3.1015">
        <ele>815.5</ele>
        <time>2019-04-19T11:53:21Z</time>
      </trkpt>
      <trkpt lat="44.11027" lon="3.10148">
        <ele>815.3</ele>
        <time>2019-04-19T11:53:23Z</time>
      </trkpt>
      <trkpt lat="44.11022" lon="3.10148">
        <ele>815.1</ele>
        <time>2019-04-19T11:53:25Z</time>
      </trkpt>
      <trkpt lat="44.11019" lon="3.10147">
        <ele>815</ele>
        <time>2019-04-19T11:53:26Z</time>
      </trkpt>
      <trkpt lat="44.11016" lon="3.10148">
        <ele>814.8</ele>
        <time>2019-04-19T11:53:27Z</time>
      </trkpt>
      <trkpt lat="44.11012" lon="3.10149">
        <ele>814.6</ele>
        <time>2019-04-19T11:53:28Z</time>
      </trkpt>
      <trkpt lat="44.11008" lon="3.1015">
        <ele>814.2</ele>
        <time>2019-04-19T11:53:29Z</time>
      </trkpt>
      <trkpt lat="44.11006" lon="3.10152">
        <ele>814.8</ele>
        <time>2019-04-19T11:53:30Z</time>
      </trkpt>
      <trkpt lat="44.11003" lon="3.10156">
        <ele>815.6</ele>
        <time>2019-04-19T11:53:32Z</time>
      </trkpt>
      <trkpt lat="44.11" lon="3.1016">
        <ele>816.1</ele>
        <time>2019-04-19T11:53:34Z</time>
      </trkpt>
      <trkpt lat="44.10998" lon="3.10164">
        <ele>816.7</ele>
        <time>2019-04-19T11:53:36Z</time>
      </trkpt>
      <trkpt lat="44.10998" lon="3.10168">
        <ele>817.3</ele>
        <time>2019-04-19T11:53:38Z</time>
      </trkpt>
      <trkpt lat="44.11001" lon="3.10172">
        <ele>818.1</ele>
        <time>2019-04-19T11:53:41Z</time>
      </trkpt>
      <trkpt lat="44.11002" lon="3.10176">
        <ele>818.6</ele>
        <time>2019-04-19T11:53:43Z</time>
      </trkpt>
      <trkpt lat="44.11003" lon="3.1018">
        <ele>819.3</ele>
        <time>2019-04-19T11:53:46Z</time>
      </trkpt>
      <trkpt lat="44.11003" lon="3.10184">
        <ele>819.8</ele>
        <time>2019-04-19T11:53:48Z</time>
      </trkpt>
      <trkpt lat="44.11005" lon="3.10188">
        <ele>820.5</ele>
        <time>2019-04-19T11:53:51Z</time>
      </trkpt>
      <trkpt lat="44.11008" lon="3.10187">
        <ele>821</ele>
        <time>2019-04-19T11:53:59Z</time>
      </trkpt>
      <trkpt lat="44.11009" lon="3.10191">
        <ele>821.7</ele>
        <time>2019-04-19T11:54:12Z</time>
      </trkpt>
      <trkpt lat="44.1101" lon="3.10196">
        <ele>822.3</ele>
        <time>2019-04-19T11:54:16Z</time>
      </trkpt>
      <trkpt lat="44.11011" lon="3.102">
        <ele>822.6</ele>
        <time>2019-04-19T11:54:22Z</time>
      </trkpt>
      <trkpt lat="44.11012" lon="3.10203">
        <ele>823</ele>
        <time>2019-04-19T11:54:26Z</time>
      </trkpt>
      <trkpt lat="44.11012" lon="3.10208">
        <ele>823.3</ele>
        <time>2019-04-19T11:54:29Z</time>
      </trkpt>
      <trkpt lat="44.11013" lon="3.10213">
        <ele>823.8</ele>
        <time>2019-04-19T11:54:33Z</time>
      </trkpt>
      <trkpt lat="44.11014" lon="3.10216">
        <ele>824.1</ele>
        <time>2019-04-19T11:54:35Z</time>
      </trkpt>
      <trkpt lat="44.11015" lon="3.10221">
        <ele>824.5</ele>
        <time>2019-04-19T11:54:38Z</time>
      </trkpt>
      <trkpt lat="44.11016" lon="3.10225">
        <ele>824.8</ele>
        <time>2019-04-19T11:54:41Z</time>
      </trkpt>
      <trkpt lat="44.11017" lon="3.10228">
        <ele>825.1</ele>
        <time>2019-04-19T11:54:46Z</time>
      </trkpt>
      <trkpt lat="44.11018" lon="3.10233">
        <ele>825.5</ele>
        <time>2019-04-19T11:54:48Z</time>
      </trkpt>
      <trkpt lat="44.11019" lon="3.1024">
        <ele>826.2</ele>
        <time>2019-04-19T11:54:50Z</time>
      </trkpt>
      <trkpt lat="44.1102" lon="3.10247">
        <ele>826.9</ele>
        <time>2019-04-19T11:54:52Z</time>
      </trkpt>
      <trkpt lat="44.11022" lon="3.10253">
        <ele>827.5</ele>
        <time>2019-04-19T11:54:54Z</time>
      </trkpt>
      <trkpt lat="44.11023" lon="3.1026">
        <ele>827.9</ele>
        <time>2019-04-19T11:54:56Z</time>
      </trkpt>
      <trkpt lat="44.11026" lon="3.10266">
        <ele>828.4</ele>
        <time>2019-04-19T11:54:58Z</time>
      </trkpt>
      <trkpt lat="44.11028" lon="3.10272">
        <ele>828.8</ele>
        <time>2019-04-19T11:55:00Z</time>
      </trkpt>
      <trkpt lat="44.1103" lon="3.10277">
        <ele>829</ele>
        <time>2019-04-19T11:55:02Z</time>
      </trkpt>
      <trkpt lat="44.11031" lon="3.10285">
        <ele>829.3</ele>
        <time>2019-04-19T11:55:04Z</time>
      </trkpt>
      <trkpt lat="44.1103" lon="3.10289">
        <ele>829.4</ele>
        <time>2019-04-19T11:55:05Z</time>
      </trkpt>
      <trkpt lat="44.11029" lon="3.10295">
        <ele>829.5</ele>
        <time>2019-04-19T11:55:07Z</time>
      </trkpt>
      <trkpt lat="44.11026" lon="3.103">
        <ele>829.6</ele>
        <time>2019-04-19T11:55:09Z</time>
      </trkpt>
      <trkpt lat="44.11024" lon="3.10302">
        <ele>829.6</ele>
        <time>2019-04-19T11:55:11Z</time>
      </trkpt>
      <trkpt lat="44.11021" lon="3.10303">
        <ele>829.6</ele>
        <time>2019-04-19T11:55:14Z</time>
      </trkpt>
      <trkpt lat="44.11019" lon="3.10307">
        <ele>829.6</ele>
        <time>2019-04-19T11:55:17Z</time>
      </trkpt>
      <trkpt lat="44.11019" lon="3.10312">
        <ele>829.6</ele>
        <time>2019-04-19T11:55:20Z</time>
      </trkpt>
      <trkpt lat="44.11019" lon="3.10317">
        <ele>829.5</ele>
        <time>2019-04-19T11:55:22Z</time>
      </trkpt>
      <trkpt lat="44.11019" lon="3.10322">
        <ele>829.4</ele>
        <time>2019-04-19T11:55:24Z</time>
      </trkpt>
      <trkpt lat="44.11018" lon="3.10326">
        <ele>829.3</ele>
        <time>2019-04-19T11:55:34Z</time>
      </trkpt>
      <trkpt lat="44.11017" lon="3.1033">
        <ele>829.3</ele>
        <time>2019-04-19T11:55:38Z</time>
      </trkpt>
      <trkpt lat="44.11016" lon="3.10335">
        <ele>829.2</ele>
        <time>2019-04-19T11:55:40Z</time>
      </trkpt>
      <trkpt lat="44.11016" lon="3.1034">
        <ele>829.1</ele>
        <time>2019-04-19T11:55:42Z</time>
      </trkpt>
      <trkpt lat="44.11015" lon="3.10347">
        <ele>829</ele>
        <time>2019-04-19T11:55:44Z</time>
      </trkpt>
      <trkpt lat="44.11015" lon="3.10352">
        <ele>829.1</ele>
        <time>2019-04-19T11:55:45Z</time>
      </trkpt>
      <trkpt lat="44.11015" lon="3.10357">
        <ele>829.2</ele>
        <time>2019-04-19T11:55:46Z</time>
      </trkpt>
      <trkpt lat="44.11015" lon="3.10362">
        <ele>829.4</ele>
        <time>2019-04-19T11:55:47Z</time>
      </trkpt>
      <trkpt lat="44.11013" lon="3.10371">
        <ele>829.6</ele>
        <time>2019-04-19T11:55:48Z</time>
      </trkpt>
      <trkpt lat="44.11012" lon="3.10378">
        <ele>829.7</ele>
        <time>2019-04-19T11:55:49Z</time>
      </trkpt>
      <trkpt lat="44.11012" lon="3.10386">
        <ele>829.8</ele>
        <time>2019-04-19T11:55:50Z</time>
      </trkpt>
      <trkpt lat="44.11011" lon="3.10395">
        <ele>829.9</ele>
        <time>2019-04-19T11:55:51Z</time>
      </trkpt>
      <trkpt lat="44.1101" lon="3.10403">
        <ele>829.9</ele>
        <time>2019-04-19T11:55:52Z</time>
      </trkpt>
      <trkpt lat="44.1101" lon="3.10411">
        <ele>829.9</ele>
        <time>2019-04-19T11:55:53Z</time>
      </trkpt>
      <trkpt lat="44.1101" lon="3.10426">
        <ele>830.3</ele>
        <time>2019-04-19T11:55:54Z</time>
      </trkpt>
      <trkpt lat="44.11009" lon="3.1043">
        <ele>830.5</ele>
        <time>2019-04-19T11:55:55Z</time>
      </trkpt>
      <trkpt lat="44.11008" lon="3.10439">
        <ele>830.9</ele>
        <time>2019-04-19T11:55:57Z</time>
      </trkpt>
      <trkpt lat="44.11007" lon="3.10444">
        <ele>831.1</ele>
        <time>2019-04-19T11:55:58Z</time>
      </trkpt>
      <trkpt lat="44.11006" lon="3.10449">
        <ele>831.4</ele>
        <time>2019-04-19T11:55:59Z</time>
      </trkpt>
      <trkpt lat="44.11006" lon="3.10454">
        <ele>831.6</ele>
        <time>2019-04-19T11:56:00Z</time>
      </trkpt>
      <trkpt lat="44.11004" lon="3.1046">
        <ele>831.8</ele>
        <time>2019-04-19T11:56:01Z</time>
      </trkpt>
      <trkpt lat="44.11004" lon="3.10465">
        <ele>832</ele>
        <time>2019-04-19T11:56:02Z</time>
      </trkpt>
      <trkpt lat="44.11003" lon="3.10472">
        <ele>832.3</ele>
        <time>2019-04-19T11:56:03Z</time>
      </trkpt>
      <trkpt lat="44.11007" lon="3.105">
        <ele>832.9</ele>
        <time>2019-04-19T11:56:05Z</time>
      </trkpt>
      <trkpt lat="44.11006" lon="3.10507">
        <ele>833</ele>
        <time>2019-04-19T11:56:06Z</time>
      </trkpt>
      <trkpt lat="44.11005" lon="3.10512">
        <ele>833.1</ele>
        <time>2019-04-19T11:56:07Z</time>
      </trkpt>
      <trkpt lat="44.11004" lon="3.10519">
        <ele>833.1</ele>
        <time>2019-04-19T11:56:08Z</time>
      </trkpt>
      <trkpt lat="44.11003" lon="3.10524">
        <ele>833.1</ele>
        <time>2019-04-19T11:56:09Z</time>
      </trkpt>
      <trkpt lat="44.11002" lon="3.10531">
        <ele>832.9</ele>
        <time>2019-04-19T11:56:10Z</time>
      </trkpt>
      <trkpt lat="44.11003" lon="3.10539">
        <ele>832.6</ele>
        <time>2019-04-19T11:56:11Z</time>
      </trkpt>
      <trkpt lat="44.11003" lon="3.10546">
        <ele>832.3</ele>
        <time>2019-04-19T11:56:12Z</time>
      </trkpt>
      <trkpt lat="44.11004" lon="3.10554">
        <ele>831.6</ele>
        <time>2019-04-19T11:56:13Z</time>
      </trkpt>
      <trkpt lat="44.11003" lon="3.10562">
        <ele>830.8</ele>
        <time>2019-04-19T11:56:14Z</time>
      </trkpt>
      <trkpt lat="44.10999" lon="3.10561">
        <ele>830.4</ele>
        <time>2019-04-19T11:56:15Z</time>
      </trkpt>
      <trkpt lat="44.10995" lon="3.10563">
        <ele>829.8</ele>
        <time>2019-04-19T11:56:17Z</time>
      </trkpt>
      <trkpt lat="44.10993" lon="3.10568">
        <ele>829.3</ele>
        <time>2019-04-19T11:56:18Z</time>
      </trkpt>
      <trkpt lat="44.10994" lon="3.10577">
        <ele>828.4</ele>
        <time>2019-04-19T11:56:19Z</time>
      </trkpt>
      <trkpt lat="44.10994" lon="3.10585">
        <ele>827.5</ele>
        <time>2019-04-19T11:56:20Z</time>
      </trkpt>
      <trkpt lat="44.10993" lon="3.10593">
        <ele>826.6</ele>
        <time>2019-04-19T11:56:21Z</time>
      </trkpt>
      <trkpt lat="44.10992" lon="3.10598">
        <ele>825.9</ele>
        <time>2019-04-19T11:56:22Z</time>
      </trkpt>
      <trkpt lat="44.10994" lon="3.10603">
        <ele>825</ele>
        <time>2019-04-19T11:56:39Z</time>
      </trkpt>
      <trkpt lat="44.10998" lon="3.10605">
        <ele>824.4</ele>
        <time>2019-04-19T11:56:41Z</time>
      </trkpt>
      <trkpt lat="44.11001" lon="3.10606">
        <ele>823.9</ele>
        <time>2019-04-19T11:56:42Z</time>
      </trkpt>
      <trkpt lat="44.11004" lon="3.10609">
        <ele>823.2</ele>
        <time>2019-04-19T11:56:44Z</time>
      </trkpt>
      <trkpt lat="44.11001" lon="3.10609">
        <ele>822.5</ele>
        <time>2019-04-19T11:56:59Z</time>
      </trkpt>
      <trkpt lat="44.10996" lon="3.10606">
        <ele>821.6</ele>
        <time>2019-04-19T11:57:01Z</time>
      </trkpt>
      <trkpt lat="44.10992" lon="3.10605">
        <ele>821</ele>
        <time>2019-04-19T11:57:03Z</time>
      </trkpt>
      <trkpt lat="44.10988" lon="3.10606">
        <ele>820.5</ele>
        <time>2019-04-19T11:57:06Z</time>
      </trkpt>
      <trkpt lat="44.10985" lon="3.10605">
        <ele>820.1</ele>
        <time>2019-04-19T11:57:08Z</time>
      </trkpt>
      <trkpt lat="44.10982" lon="3.10606">
        <ele>819.8</ele>
        <time>2019-04-19T11:57:10Z</time>
      </trkpt>
      <trkpt lat="44.1098" lon="3.10616">
        <ele>819.3</ele>
        <time>2019-04-19T11:57:12Z</time>
      </trkpt>
      <trkpt lat="44.10983" lon="3.10629">
        <ele>819.1</ele>
        <time>2019-04-19T11:57:13Z</time>
      </trkpt>
      <trkpt lat="44.10985" lon="3.10638">
        <ele>819.1</ele>
        <time>2019-04-19T11:57:14Z</time>
      </trkpt>
      <trkpt lat="44.10987" lon="3.10645">
        <ele>819.1</ele>
        <time>2019-04-19T11:57:15Z</time>
      </trkpt>
      <trkpt lat="44.1099" lon="3.10653">
        <ele>819.1</ele>
        <time>2019-04-19T11:57:16Z</time>
      </trkpt>
      <trkpt lat="44.10994" lon="3.10657">
        <ele>819</ele>
        <time>2019-04-19T11:57:17Z</time>
      </trkpt>
      <trkpt lat="44.10999" lon="3.10659">
        <ele>818.7</ele>
        <time>2019-04-19T11:57:18Z</time>
      </trkpt>
      <trkpt lat="44.11004" lon="3.10662">
        <ele>818.5</ele>
        <time>2019-04-19T11:57:19Z</time>
      </trkpt>
      <trkpt lat="44.1101" lon="3.10665">
        <ele>818.2</ele>
        <time>2019-04-19T11:57:20Z</time>
      </trkpt>
      <trkpt lat="44.11014" lon="3.1067">
        <ele>818</ele>
        <time>2019-04-19T11:57:21Z</time>
      </trkpt>
      <trkpt lat="44.11018" lon="3.10677">
        <ele>817.8</ele>
        <time>2019-04-19T11:57:22Z</time>
      </trkpt>
      <trkpt lat="44.1102" lon="3.10681">
        <ele>817.7</ele>
        <time>2019-04-19T11:57:23Z</time>
      </trkpt>
      <trkpt lat="44.11027" lon="3.10685">
        <ele>817.6</ele>
        <time>2019-04-19T11:57:24Z</time>
      </trkpt>
      <trkpt lat="44.11032" lon="3.10685">
        <ele>817.4</ele>
        <time>2019-04-19T11:57:25Z</time>
      </trkpt>
      <trkpt lat="44.11037" lon="3.10685">
        <ele>817.2</ele>
        <time>2019-04-19T11:57:26Z</time>
      </trkpt>
      <trkpt lat="44.11044" lon="3.10683">
        <ele>816.5</ele>
        <time>2019-04-19T11:57:27Z</time>
      </trkpt>
      <trkpt lat="44.11048" lon="3.10682">
        <ele>815.9</ele>
        <time>2019-04-19T11:57:28Z</time>
      </trkpt>
      <trkpt lat="44.11053" lon="3.10682">
        <ele>815.2</ele>
        <time>2019-04-19T11:57:29Z</time>
      </trkpt>
      <trkpt lat="44.11055" lon="3.10688">
        <ele>814.3</ele>
        <time>2019-04-19T11:57:31Z</time>
      </trkpt>
      <trkpt lat="44.11057" lon="3.10694">
        <ele>813.4</ele>
        <time>2019-04-19T11:57:32Z</time>
      </trkpt>
      <trkpt lat="44.11057" lon="3.10701">
        <ele>812.5</ele>
        <time>2019-04-19T11:57:33Z</time>
      </trkpt>
      <trkpt lat="44.11058" lon="3.10709">
        <ele>811.4</ele>
        <time>2019-04-19T11:57:34Z</time>
      </trkpt>
      <trkpt lat="44.1106" lon="3.10716">
        <ele>810.5</ele>
        <time>2019-04-19T11:57:35Z</time>
      </trkpt>
      <trkpt lat="44.11062" lon="3.10726">
        <ele>809.4</ele>
        <time>2019-04-19T11:57:36Z</time>
      </trkpt>
      <trkpt lat="44.11063" lon="3.10736">
        <ele>808.3</ele>
        <time>2019-04-19T11:57:37Z</time>
      </trkpt>
      <trkpt lat="44.11065" lon="3.10744">
        <ele>807.3</ele>
        <time>2019-04-19T11:57:38Z</time>
      </trkpt>
      <trkpt lat="44.11065" lon="3.10751">
        <ele>806.6</ele>
        <time>2019-04-19T11:57:39Z</time>
      </trkpt>
      <trkpt lat="44.11065" lon="3.10757">
        <ele>806</ele>
        <time>2019-04-19T11:57:40Z</time>
      </trkpt>
      <trkpt lat="44.11066" lon="3.10762">
        <ele>805.5</ele>
        <time>2019-04-19T11:57:41Z</time>
      </trkpt>
      <trkpt lat="44.11069" lon="3.1076">
        <ele>805.1</ele>
        <time>2019-04-19T11:57:42Z</time>
      </trkpt>
      <trkpt lat="44.11073" lon="3.10762">
        <ele>804.7</ele>
        <time>2019-04-19T11:57:43Z</time>
      </trkpt>
      <trkpt lat="44.11074" lon="3.10768">
        <ele>804.3</ele>
        <time>2019-04-19T11:57:45Z</time>
      </trkpt>
      <trkpt lat="44.11075" lon="3.10782">
        <ele>803.3</ele>
        <time>2019-04-19T11:57:47Z</time>
      </trkpt>
      <trkpt lat="44.11075" lon="3.10788">
        <ele>803</ele>
        <time>2019-04-19T11:57:48Z</time>
      </trkpt>
      <trkpt lat="44.11072" lon="3.10795">
        <ele>802.5</ele>
        <time>2019-04-19T11:57:49Z</time>
      </trkpt>
      <trkpt lat="44.11071" lon="3.10804">
        <ele>802</ele>
        <time>2019-04-19T11:57:50Z</time>
      </trkpt>
      <trkpt lat="44.11071" lon="3.10814">
        <ele>801.6</ele>
        <time>2019-04-19T11:57:51Z</time>
      </trkpt>
      <trkpt lat="44.1107" lon="3.10821">
        <ele>801.3</ele>
        <time>2019-04-19T11:57:52Z</time>
      </trkpt>
      <trkpt lat="44.11068" lon="3.10831">
        <ele>800.9</ele>
        <time>2019-04-19T11:57:53Z</time>
      </trkpt>
      <trkpt lat="44.11068" lon="3.1084">
        <ele>800.6</ele>
        <time>2019-04-19T11:57:54Z</time>
      </trkpt>
      <trkpt lat="44.11069" lon="3.10848">
        <ele>800.3</ele>
        <time>2019-04-19T11:57:55Z</time>
      </trkpt>
      <trkpt lat="44.11069" lon="3.10858">
        <ele>799.8</ele>
        <time>2019-04-19T11:57:56Z</time>
      </trkpt>
      <trkpt lat="44.11073" lon="3.10871">
        <ele>799.1</ele>
        <time>2019-04-19T11:57:57Z</time>
      </trkpt>
      <trkpt lat="44.11077" lon="3.10881">
        <ele>798.7</ele>
        <time>2019-04-19T11:57:58Z</time>
      </trkpt>
      <trkpt lat="44.11081" lon="3.10892">
        <ele>798.3</ele>
        <time>2019-04-19T11:57:59Z</time>
      </trkpt>
      <trkpt lat="44.11085" lon="3.109">
        <ele>798</ele>
        <time>2019-04-19T11:58:00Z</time>
      </trkpt>
      <trkpt lat="44.11091" lon="3.10912">
        <ele>797.4</ele>
        <time>2019-04-19T11:58:01Z</time>
      </trkpt>
      <trkpt lat="44.11098" lon="3.10925">
        <ele>796.5</ele>
        <time>2019-04-19T11:58:02Z</time>
      </trkpt>
      <trkpt lat="44.11103" lon="3.10932">
        <ele>795.7</ele>
        <time>2019-04-19T11:58:03Z</time>
      </trkpt>
      <trkpt lat="44.11113" lon="3.10943">
        <ele>794.6</ele>
        <time>2019-04-19T11:58:04Z</time>
      </trkpt>
      <trkpt lat="44.11121" lon="3.10947">
        <ele>794.1</ele>
        <time>2019-04-19T11:58:05Z</time>
      </trkpt>
      <trkpt lat="44.11129" lon="3.10951">
        <ele>793.8</ele>
        <time>2019-04-19T11:58:06Z</time>
      </trkpt>
      <trkpt lat="44.11136" lon="3.10953">
        <ele>793.8</ele>
        <time>2019-04-19T11:58:07Z</time>
      </trkpt>
      <trkpt lat="44.11143" lon="3.10953">
        <ele>793.7</ele>
        <time>2019-04-19T11:58:08Z</time>
      </trkpt>
      <trkpt lat="44.11151" lon="3.10954">
        <ele>793.7</ele>
        <time>2019-04-19T11:58:09Z</time>
      </trkpt>
      <trkpt lat="44.11158" lon="3.10955">
        <ele>793.7</ele>
        <time>2019-04-19T11:58:10Z</time>
      </trkpt>
      <trkpt lat="44.11165" lon="3.10959">
        <ele>793.7</ele>
        <time>2019-04-19T11:58:11Z</time>
      </trkpt>
      <trkpt lat="44.11169" lon="3.10962">
        <ele>793.6</ele>
        <time>2019-04-19T11:58:12Z</time>
      </trkpt>
      <trkpt lat="44.11173" lon="3.10965">
        <ele>793.6</ele>
        <time>2019-04-19T11:58:13Z</time>
      </trkpt>
      <trkpt lat="44.11177" lon="3.1097">
        <ele>793.5</ele>
        <time>2019-04-19T11:58:14Z</time>
      </trkpt>
      <trkpt lat="44.11181" lon="3.10972">
        <ele>793.3</ele>
        <time>2019-04-19T11:58:15Z</time>
      </trkpt>
      <trkpt lat="44.11187" lon="3.10977">
        <ele>793</ele>
        <time>2019-04-19T11:58:16Z</time>
      </trkpt>
      <trkpt lat="44.11188" lon="3.10983">
        <ele>792.7</ele>
        <time>2019-04-19T11:58:17Z</time>
      </trkpt>
      <trkpt lat="44.1119" lon="3.1099">
        <ele>792.5</ele>
        <time>2019-04-19T11:58:18Z</time>
      </trkpt>
      <trkpt lat="44.11193" lon="3.10995">
        <ele>792.3</ele>
        <time>2019-04-19T11:58:19Z</time>
      </trkpt>
      <trkpt lat="44.11197" lon="3.10998">
        <ele>792.1</ele>
        <time>2019-04-19T11:58:20Z</time>
      </trkpt>
      <trkpt lat="44.11201" lon="3.11004">
        <ele>791.9</ele>
        <time>2019-04-19T11:58:21Z</time>
      </trkpt>
      <trkpt lat="44.11205" lon="3.11006">
        <ele>791.9</ele>
        <time>2019-04-19T11:58:22Z</time>
      </trkpt>
      <trkpt lat="44.1121" lon="3.11009">
        <ele>791.8</ele>
        <time>2019-04-19T11:58:23Z</time>
      </trkpt>
      <trkpt lat="44.11212" lon="3.11013">
        <ele>791.8</ele>
        <time>2019-04-19T11:58:24Z</time>
      </trkpt>
      <trkpt lat="44.11216" lon="3.11014">
        <ele>791.9</ele>
        <time>2019-04-19T11:58:26Z</time>
      </trkpt>
      <trkpt lat="44.11217" lon="3.11018">
        <ele>791.9</ele>
        <time>2019-04-19T11:58:27Z</time>
      </trkpt>
      <trkpt lat="44.11221" lon="3.11022">
        <ele>792</ele>
        <time>2019-04-19T11:58:28Z</time>
      </trkpt>
      <trkpt lat="44.11227" lon="3.11028">
        <ele>792.2</ele>
        <time>2019-04-19T11:58:29Z</time>
      </trkpt>
      <trkpt lat="44.1123" lon="3.11034">
        <ele>792.4</ele>
        <time>2019-04-19T11:58:30Z</time>
      </trkpt>
      <trkpt lat="44.11234" lon="3.11039">
        <ele>792.6</ele>
        <time>2019-04-19T11:58:31Z</time>
      </trkpt>
      <trkpt lat="44.11238" lon="3.11045">
        <ele>792.8</ele>
        <time>2019-04-19T11:58:32Z</time>
      </trkpt>
      <trkpt lat="44.11243" lon="3.11047">
        <ele>793</ele>
        <time>2019-04-19T11:58:33Z</time>
      </trkpt>
      <trkpt lat="44.11245" lon="3.1105">
        <ele>793</ele>
        <time>2019-04-19T11:58:34Z</time>
      </trkpt>
      <trkpt lat="44.11251" lon="3.11051">
        <ele>793.1</ele>
        <time>2019-04-19T11:58:35Z</time>
      </trkpt>
      <trkpt lat="44.11256" lon="3.11056">
        <ele>793</ele>
        <time>2019-04-19T11:58:36Z</time>
      </trkpt>
      <trkpt lat="44.1126" lon="3.1106">
        <ele>792.9</ele>
        <time>2019-04-19T11:58:37Z</time>
      </trkpt>
      <trkpt lat="44.11266" lon="3.11062">
        <ele>792.9</ele>
        <time>2019-04-19T11:58:38Z</time>
      </trkpt>
      <trkpt lat="44.11271" lon="3.11067">
        <ele>792.8</ele>
        <time>2019-04-19T11:58:39Z</time>
      </trkpt>
      <trkpt lat="44.11275" lon="3.11072">
        <ele>792.8</ele>
        <time>2019-04-19T11:58:40Z</time>
      </trkpt>
      <trkpt lat="44.11278" lon="3.11077">
        <ele>792.8</ele>
        <time>2019-04-19T11:58:41Z</time>
      </trkpt>
      <trkpt lat="44.11282" lon="3.1108">
        <ele>792.8</ele>
        <time>2019-04-19T11:58:42Z</time>
      </trkpt>
      <trkpt lat="44.11287" lon="3.11082">
        <ele>792.8</ele>
        <time>2019-04-19T11:58:43Z</time>
      </trkpt>
      <trkpt lat="44.11294" lon="3.11086">
        <ele>792.8</ele>
        <time>2019-04-19T11:58:44Z</time>
      </trkpt>
      <trkpt lat="44.11298" lon="3.11088">
        <ele>792.9</ele>
        <time>2019-04-19T11:58:45Z</time>
      </trkpt>
      <trkpt lat="44.11302" lon="3.11092">
        <ele>792.9</ele>
        <time>2019-04-19T11:58:46Z</time>
      </trkpt>
      <trkpt lat="44.11305" lon="3.11096">
        <ele>793</ele>
        <time>2019-04-19T11:58:47Z</time>
      </trkpt>
      <trkpt lat="44.11309" lon="3.11097">
        <ele>793</ele>
        <time>2019-04-19T11:58:48Z</time>
      </trkpt>
      <trkpt lat="44.11312" lon="3.11099">
        <ele>793.1</ele>
        <time>2019-04-19T11:58:49Z</time>
      </trkpt>
      <trkpt lat="44.11316" lon="3.111">
        <ele>793.1</ele>
        <time>2019-04-19T11:58:50Z</time>
      </trkpt>
      <trkpt lat="44.11319" lon="3.11103">
        <ele>793.1</ele>
        <time>2019-04-19T11:58:51Z</time>
      </trkpt>
      <trkpt lat="44.11322" lon="3.11106">
        <ele>793.1</ele>
        <time>2019-04-19T11:58:52Z</time>
      </trkpt>
      <trkpt lat="44.11326" lon="3.1111">
        <ele>793.1</ele>
        <time>2019-04-19T11:58:53Z</time>
      </trkpt>
      <trkpt lat="44.1133" lon="3.11113">
        <ele>793</ele>
        <time>2019-04-19T11:58:54Z</time>
      </trkpt>
      <trkpt lat="44.11334" lon="3.11116">
        <ele>793</ele>
        <time>2019-04-19T11:58:55Z</time>
      </trkpt>
      <trkpt lat="44.11346" lon="3.11123">
        <ele>793</ele>
        <time>2019-04-19T11:58:56Z</time>
      </trkpt>
      <trkpt lat="44.1135" lon="3.11127">
        <ele>792.9</ele>
        <time>2019-04-19T11:58:57Z</time>
      </trkpt>
      <trkpt lat="44.11356" lon="3.1113">
        <ele>792.9</ele>
        <time>2019-04-19T11:58:58Z</time>
      </trkpt>
      <trkpt lat="44.1136" lon="3.11135">
        <ele>792.8</ele>
        <time>2019-04-19T11:58:59Z</time>
      </trkpt>
      <trkpt lat="44.11365" lon="3.1114">
        <ele>792.7</ele>
        <time>2019-04-19T11:59:00Z</time>
      </trkpt>
      <trkpt lat="44.11372" lon="3.11141">
        <ele>792.5</ele>
        <time>2019-04-19T11:59:01Z</time>
      </trkpt>
      <trkpt lat="44.1138" lon="3.1114">
        <ele>792.1</ele>
        <time>2019-04-19T11:59:02Z</time>
      </trkpt>
      <trkpt lat="44.11386" lon="3.11142">
        <ele>791.8</ele>
        <time>2019-04-19T11:59:03Z</time>
      </trkpt>
      <trkpt lat="44.11393" lon="3.11142">
        <ele>791.5</ele>
        <time>2019-04-19T11:59:04Z</time>
      </trkpt>
      <trkpt lat="44.11399" lon="3.11144">
        <ele>791.2</ele>
        <time>2019-04-19T11:59:05Z</time>
      </trkpt>
      <trkpt lat="44.11406" lon="3.11146">
        <ele>791</ele>
        <time>2019-04-19T11:59:06Z</time>
      </trkpt>
      <trkpt lat="44.11413" lon="3.11144">
        <ele>790.9</ele>
        <time>2019-04-19T11:59:07Z</time>
      </trkpt>
      <trkpt lat="44.11418" lon="3.11144">
        <ele>790.9</ele>
        <time>2019-04-19T11:59:08Z</time>
      </trkpt>
      <trkpt lat="44.11423" lon="3.11143">
        <ele>790.9</ele>
        <time>2019-04-19T11:59:09Z</time>
      </trkpt>
      <trkpt lat="44.11428" lon="3.11141">
        <ele>790.9</ele>
        <time>2019-04-19T11:59:10Z</time>
      </trkpt>
      <trkpt lat="44.11433" lon="3.11136">
        <ele>790.9</ele>
        <time>2019-04-19T11:59:11Z</time>
      </trkpt>
      <trkpt lat="44.11441" lon="3.1113">
        <ele>790.9</ele>
        <time>2019-04-19T11:59:12Z</time>
      </trkpt>
      <trkpt lat="44.11447" lon="3.11126">
        <ele>790.8</ele>
        <time>2019-04-19T11:59:13Z</time>
      </trkpt>
      <trkpt lat="44.11457" lon="3.11113">
        <ele>791.1</ele>
        <time>2019-04-19T11:59:14Z</time>
      </trkpt>
      <trkpt lat="44.11464" lon="3.11109">
        <ele>791.4</ele>
        <time>2019-04-19T11:59:15Z</time>
      </trkpt>
      <trkpt lat="44.11468" lon="3.11104">
        <ele>791.6</ele>
        <time>2019-04-19T11:59:16Z</time>
      </trkpt>
      <trkpt lat="44.11474" lon="3.11103">
        <ele>791.6</ele>
        <time>2019-04-19T11:59:17Z</time>
      </trkpt>
      <trkpt lat="44.11477" lon="3.11104">
        <ele>791.7</ele>
        <time>2019-04-19T11:59:18Z</time>
      </trkpt>
      <trkpt lat="44.11481" lon="3.11108">
        <ele>791.8</ele>
        <time>2019-04-19T11:59:19Z</time>
      </trkpt>
      <trkpt lat="44.11487" lon="3.11108">
        <ele>791.8</ele>
        <time>2019-04-19T11:59:20Z</time>
      </trkpt>
      <trkpt lat="44.11488" lon="3.11114">
        <ele>791.7</ele>
        <time>2019-04-19T11:59:21Z</time>
      </trkpt>
      <trkpt lat="44.11489" lon="3.11121">
        <ele>791.5</ele>
        <time>2019-04-19T11:59:24Z</time>
      </trkpt>
      <trkpt lat="44.11489" lon="3.11124">
        <ele>791.4</ele>
        <time>2019-04-19T11:59:25Z</time>
      </trkpt>
      <trkpt lat="44.11487" lon="3.11127">
        <ele>791.3</ele>
        <time>2019-04-19T11:59:26Z</time>
      </trkpt>
      <trkpt lat="44.11485" lon="3.11132">
        <ele>791</ele>
        <time>2019-04-19T11:59:27Z</time>
      </trkpt>
      <trkpt lat="44.11483" lon="3.11138">
        <ele>790.8</ele>
        <time>2019-04-19T11:59:28Z</time>
      </trkpt>
      <trkpt lat="44.11483" lon="3.11143">
        <ele>790.6</ele>
        <time>2019-04-19T11:59:29Z</time>
      </trkpt>
      <trkpt lat="44.11483" lon="3.11153">
        <ele>790.4</ele>
        <time>2019-04-19T11:59:30Z</time>
      </trkpt>
      <trkpt lat="44.11483" lon="3.11161">
        <ele>790.3</ele>
        <time>2019-04-19T11:59:31Z</time>
      </trkpt>
      <trkpt lat="44.11484" lon="3.11169">
        <ele>790.3</ele>
        <time>2019-04-19T11:59:32Z</time>
      </trkpt>
      <trkpt lat="44.11487" lon="3.11176">
        <ele>790.4</ele>
        <time>2019-04-19T11:59:33Z</time>
      </trkpt>
      <trkpt lat="44.11482" lon="3.11181">
        <ele>790.5</ele>
        <time>2019-04-19T11:59:34Z</time>
      </trkpt>
      <trkpt lat="44.11476" lon="3.11185">
        <ele>790.8</ele>
        <time>2019-04-19T11:59:35Z</time>
      </trkpt>
      <trkpt lat="44.11473" lon="3.11187">
        <ele>791</ele>
        <time>2019-04-19T11:59:36Z</time>
      </trkpt>
      <trkpt lat="44.11473" lon="3.11199">
        <ele>792</ele>
        <time>2019-04-19T11:59:39Z</time>
      </trkpt>
      <trkpt lat="44.11474" lon="3.11204">
        <ele>792</ele>
        <time>2019-04-19T11:59:40Z</time>
      </trkpt>
      <trkpt lat="44.11474" lon="3.11209">
        <ele>792</ele>
        <time>2019-04-19T11:59:43Z</time>
      </trkpt>
      <trkpt lat="44.11476" lon="3.11213">
        <ele>792.9</ele>
        <time>2019-04-19T11:59:45Z</time>
      </trkpt>
      <trkpt lat="44.11478" lon="3.11217">
        <ele>793.4</ele>
        <time>2019-04-19T11:59:47Z</time>
      </trkpt>
      <trkpt lat="44.11479" lon="3.11222">
        <ele>793.9</ele>
        <time>2019-04-19T11:59:49Z</time>
      </trkpt>
      <trkpt lat="44.1148" lon="3.11227">
        <ele>794.4</ele>
        <time>2019-04-19T11:59:52Z</time>
      </trkpt>
      <trkpt lat="44.11482" lon="3.11231">
        <ele>795</ele>
        <time>2019-04-19T11:59:54Z</time>
      </trkpt>
      <trkpt lat="44.11485" lon="3.11236">
        <ele>796</ele>
        <time>2019-04-19T11:59:56Z</time>
      </trkpt>
      <trkpt lat="44.11487" lon="3.11241">
        <ele>796.9</ele>
        <time>2019-04-19T11:59:58Z</time>
      </trkpt>
      <trkpt lat="44.11488" lon="3.11246">
        <ele>797.7</ele>
        <time>2019-04-19T12:00:00Z</time>
      </trkpt>
      <trkpt lat="44.1149" lon="3.11249">
        <ele>798.5</ele>
        <time>2019-04-19T12:00:03Z</time>
      </trkpt>
      <trkpt lat="44.11493" lon="3.11253">
        <ele>799.3</ele>
        <time>2019-04-19T12:00:05Z</time>
      </trkpt>
      <trkpt lat="44.11495" lon="3.11254">
        <ele>799.9</ele>
        <time>2019-04-19T12:00:12Z</time>
      </trkpt>
      <trkpt lat="44.11505" lon="3.11272">
        <ele>802.8</ele>
        <time>2019-04-19T12:01:27Z</time>
      </trkpt>
      <trkpt lat="44.11503" lon="3.11275">
        <ele>803.3</ele>
        <time>2019-04-19T12:01:29Z</time>
      </trkpt>
      <trkpt lat="44.11502" lon="3.11278">
        <ele>803.7</ele>
        <time>2019-04-19T12:01:31Z</time>
      </trkpt>
      <trkpt lat="44.115" lon="3.11282">
        <ele>805.1</ele>
        <time>2019-04-19T12:01:34Z</time>
      </trkpt>
      <trkpt lat="44.11499" lon="3.11286">
        <ele>805.3</ele>
        <time>2019-04-19T12:01:37Z</time>
      </trkpt>
      <trkpt lat="44.11498" lon="3.1129">
        <ele>805.6</ele>
        <time>2019-04-19T12:01:40Z</time>
      </trkpt>
      <trkpt lat="44.11497" lon="3.11295">
        <ele>805.8</ele>
        <time>2019-04-19T12:01:43Z</time>
      </trkpt>
      <trkpt lat="44.11495" lon="3.11299">
        <ele>806.1</ele>
        <time>2019-04-19T12:01:45Z</time>
      </trkpt>
      <trkpt lat="44.11493" lon="3.11302">
        <ele>806.3</ele>
        <time>2019-04-19T12:01:47Z</time>
      </trkpt>
      <trkpt lat="44.1149" lon="3.11303">
        <ele>806.5</ele>
        <time>2019-04-19T12:01:50Z</time>
      </trkpt>
      <trkpt lat="44.11488" lon="3.11308">
        <ele>806.7</ele>
        <time>2019-04-19T12:01:52Z</time>
      </trkpt>
      <trkpt lat="44.11486" lon="3.11312">
        <ele>806.9</ele>
        <time>2019-04-19T12:01:53Z</time>
      </trkpt>
      <trkpt lat="44.11484" lon="3.11316">
        <ele>807</ele>
        <time>2019-04-19T12:01:54Z</time>
      </trkpt>
      <trkpt lat="44.11481" lon="3.11321">
        <ele>807.2</ele>
        <time>2019-04-19T12:01:55Z</time>
      </trkpt>
      <trkpt lat="44.11477" lon="3.11322">
        <ele>807.3</ele>
        <time>2019-04-19T12:01:56Z</time>
      </trkpt>
      <trkpt lat="44.11474" lon="3.11323">
        <ele>807.4</ele>
        <time>2019-04-19T12:01:57Z</time>
      </trkpt>
      <trkpt lat="44.1147" lon="3.11324">
        <ele>807.5</ele>
        <time>2019-04-19T12:01:58Z</time>
      </trkpt>
      <trkpt lat="44.11466" lon="3.11325">
        <ele>807.7</ele>
        <time>2019-04-19T12:01:59Z</time>
      </trkpt>
      <trkpt lat="44.11463" lon="3.11326">
        <ele>807.8</ele>
        <time>2019-04-19T12:02:00Z</time>
      </trkpt>
      <trkpt lat="44.11459" lon="3.11328">
        <ele>807.9</ele>
        <time>2019-04-19T12:02:02Z</time>
      </trkpt>
      <trkpt lat="44.11455" lon="3.11332">
        <ele>808.2</ele>
        <time>2019-04-19T12:02:04Z</time>
      </trkpt>
      <trkpt lat="44.11452" lon="3.11336">
        <ele>808.4</ele>
        <time>2019-04-19T12:02:06Z</time>
      </trkpt>
      <trkpt lat="44.11449" lon="3.11343">
        <ele>808.7</ele>
        <time>2019-04-19T12:02:08Z</time>
      </trkpt>
      <trkpt lat="44.11446" lon="3.11346">
        <ele>809</ele>
        <time>2019-04-19T12:02:09Z</time>
      </trkpt>
      <trkpt lat="44.11442" lon="3.11348">
        <ele>809.3</ele>
        <time>2019-04-19T12:02:10Z</time>
      </trkpt>
      <trkpt lat="44.11438" lon="3.1135">
        <ele>809.7</ele>
        <time>2019-04-19T12:02:11Z</time>
      </trkpt>
      <trkpt lat="44.11434" lon="3.11351">
        <ele>809.9</ele>
        <time>2019-04-19T12:02:12Z</time>
      </trkpt>
      <trkpt lat="44.11431" lon="3.11352">
        <ele>810.1</ele>
        <time>2019-04-19T12:02:13Z</time>
      </trkpt>
      <trkpt lat="44.11428" lon="3.11353">
        <ele>810.3</ele>
        <time>2019-04-19T12:02:14Z</time>
      </trkpt>
      <trkpt lat="44.11425" lon="3.11354">
        <ele>810.6</ele>
        <time>2019-04-19T12:02:15Z</time>
      </trkpt>
      <trkpt lat="44.11422" lon="3.11355">
        <ele>810.8</ele>
        <time>2019-04-19T12:02:16Z</time>
      </trkpt>
      <trkpt lat="44.1142" lon="3.11357">
        <ele>811</ele>
        <time>2019-04-19T12:02:17Z</time>
      </trkpt>
      <trkpt lat="44.11417" lon="3.1136">
        <ele>811.2</ele>
        <time>2019-04-19T12:02:18Z</time>
      </trkpt>
      <trkpt lat="44.11415" lon="3.11362">
        <ele>811.4</ele>
        <time>2019-04-19T12:02:19Z</time>
      </trkpt>
      <trkpt lat="44.11411" lon="3.11366">
        <ele>811.9</ele>
        <time>2019-04-19T12:02:21Z</time>
      </trkpt>
      <trkpt lat="44.11409" lon="3.11372">
        <ele>812.4</ele>
        <time>2019-04-19T12:02:23Z</time>
      </trkpt>
      <trkpt lat="44.11405" lon="3.11379">
        <ele>813.2</ele>
        <time>2019-04-19T12:02:25Z</time>
      </trkpt>
      <trkpt lat="44.11404" lon="3.11383">
        <ele>813.5</ele>
        <time>2019-04-19T12:02:26Z</time>
      </trkpt>
      <trkpt lat="44.114" lon="3.11388">
        <ele>814.2</ele>
        <time>2019-04-19T12:02:27Z</time>
      </trkpt>
      <trkpt lat="44.11395" lon="3.11391">
        <ele>814.8</ele>
        <time>2019-04-19T12:02:28Z</time>
      </trkpt>
      <trkpt lat="44.11393" lon="3.11394">
        <ele>815.2</ele>
        <time>2019-04-19T12:02:29Z</time>
      </trkpt>
      <trkpt lat="44.11389" lon="3.11397">
        <ele>815.8</ele>
        <time>2019-04-19T12:02:31Z</time>
      </trkpt>
      <trkpt lat="44.11386" lon="3.11399">
        <ele>816.2</ele>
        <time>2019-04-19T12:02:33Z</time>
      </trkpt>
      <trkpt lat="44.11383" lon="3.11402">
        <ele>816.7</ele>
        <time>2019-04-19T12:02:35Z</time>
      </trkpt>
      <trkpt lat="44.11379" lon="3.11404">
        <ele>817.1</ele>
        <time>2019-04-19T12:02:37Z</time>
      </trkpt>
      <trkpt lat="44.11376" lon="3.11406">
        <ele>817.5</ele>
        <time>2019-04-19T12:02:39Z</time>
      </trkpt>
      <trkpt lat="44.11373" lon="3.11409">
        <ele>817.9</ele>
        <time>2019-04-19T12:02:41Z</time>
      </trkpt>
      <trkpt lat="44.1137" lon="3.1141">
        <ele>818.3</ele>
        <time>2019-04-19T12:02:43Z</time>
      </trkpt>
      <trkpt lat="44.11366" lon="3.11411">
        <ele>818.7</ele>
        <time>2019-04-19T12:02:45Z</time>
      </trkpt>
      <trkpt lat="44.11364" lon="3.11413">
        <ele>819</ele>
        <time>2019-04-19T12:02:47Z</time>
      </trkpt>
      <trkpt lat="44.11361" lon="3.11413">
        <ele>819.3</ele>
        <time>2019-04-19T12:02:49Z</time>
      </trkpt>
      <trkpt lat="44.11358" lon="3.11415">
        <ele>819.7</ele>
        <time>2019-04-19T12:02:51Z</time>
      </trkpt>
      <trkpt lat="44.11356" lon="3.11421">
        <ele>820.3</ele>
        <time>2019-04-19T12:02:54Z</time>
      </trkpt>
      <trkpt lat="44.11355" lon="3.11428">
        <ele>820.9</ele>
        <time>2019-04-19T12:02:56Z</time>
      </trkpt>
      <trkpt lat="44.11354" lon="3.11432">
        <ele>821.2</ele>
        <time>2019-04-19T12:02:58Z</time>
      </trkpt>
      <trkpt lat="44.1135" lon="3.11431">
        <ele>821.6</ele>
        <time>2019-04-19T12:03:01Z</time>
      </trkpt>
      <trkpt lat="44.11347" lon="3.11432">
        <ele>821.8</ele>
        <time>2019-04-19T12:03:03Z</time>
      </trkpt>
      <trkpt lat="44.11343" lon="3.11434">
        <ele>822.1</ele>
        <time>2019-04-19T12:03:05Z</time>
      </trkpt>
      <trkpt lat="44.11338" lon="3.11436">
        <ele>822.6</ele>
        <time>2019-04-19T12:03:07Z</time>
      </trkpt>
      <trkpt lat="44.11334" lon="3.11437">
        <ele>822.8</ele>
        <time>2019-04-19T12:03:09Z</time>
      </trkpt>
      <trkpt lat="44.11332" lon="3.11439">
        <ele>823</ele>
        <time>2019-04-19T12:03:12Z</time>
      </trkpt>
      <trkpt lat="44.11328" lon="3.11442">
        <ele>823.1</ele>
        <time>2019-04-19T12:03:14Z</time>
      </trkpt>
      <trkpt lat="44.11324" lon="3.11443">
        <ele>823.2</ele>
        <time>2019-04-19T12:03:15Z</time>
      </trkpt>
      <trkpt lat="44.11321" lon="3.11443">
        <ele>823.3</ele>
        <time>2019-04-19T12:03:16Z</time>
      </trkpt>
      <trkpt lat="44.11316" lon="3.11443">
        <ele>823.3</ele>
        <time>2019-04-19T12:03:17Z</time>
      </trkpt>
      <trkpt lat="44.11311" lon="3.11443">
        <ele>823.4</ele>
        <time>2019-04-19T12:03:18Z</time>
      </trkpt>
      <trkpt lat="44.11306" lon="3.11443">
        <ele>823.5</ele>
        <time>2019-04-19T12:03:19Z</time>
      </trkpt>
      <trkpt lat="44.11301" lon="3.11443">
        <ele>823.5</ele>
        <time>2019-04-19T12:03:20Z</time>
      </trkpt>
      <trkpt lat="44.11296" lon="3.11444">
        <ele>823.6</ele>
        <time>2019-04-19T12:03:21Z</time>
      </trkpt>
      <trkpt lat="44.11289" lon="3.11444">
        <ele>823.6</ele>
        <time>2019-04-19T12:03:22Z</time>
      </trkpt>
      <trkpt lat="44.11283" lon="3.11445">
        <ele>823.7</ele>
        <time>2019-04-19T12:03:23Z</time>
      </trkpt>
      <trkpt lat="44.11279" lon="3.11445">
        <ele>823.7</ele>
        <time>2019-04-19T12:03:24Z</time>
      </trkpt>
      <trkpt lat="44.11276" lon="3.11444">
        <ele>823.7</ele>
        <time>2019-04-19T12:03:25Z</time>
      </trkpt>
      <trkpt lat="44.11272" lon="3.11443">
        <ele>823.8</ele>
        <time>2019-04-19T12:03:26Z</time>
      </trkpt>
      <trkpt lat="44.11268" lon="3.11442">
        <ele>823.7</ele>
        <time>2019-04-19T12:03:27Z</time>
      </trkpt>
      <trkpt lat="44.11265" lon="3.11442">
        <ele>823.7</ele>
        <time>2019-04-19T12:03:28Z</time>
      </trkpt>
      <trkpt lat="44.11261" lon="3.11442">
        <ele>823.7</ele>
        <time>2019-04-19T12:03:29Z</time>
      </trkpt>
      <trkpt lat="44.11257" lon="3.11442">
        <ele>823.7</ele>
        <time>2019-04-19T12:03:30Z</time>
      </trkpt>
      <trkpt lat="44.11254" lon="3.11443">
        <ele>823.7</ele>
        <time>2019-04-19T12:03:31Z</time>
      </trkpt>
      <trkpt lat="44.11251" lon="3.11444">
        <ele>823.6</ele>
        <time>2019-04-19T12:03:32Z</time>
      </trkpt>
      <trkpt lat="44.11247" lon="3.11445">
        <ele>823.6</ele>
        <time>2019-04-19T12:03:33Z</time>
      </trkpt>
      <trkpt lat="44.11243" lon="3.11446">
        <ele>823.5</ele>
        <time>2019-04-19T12:03:34Z</time>
      </trkpt>
      <trkpt lat="44.11239" lon="3.11448">
        <ele>823.5</ele>
        <time>2019-04-19T12:03:35Z</time>
      </trkpt>
      <trkpt lat="44.11233" lon="3.11452">
        <ele>823.4</ele>
        <time>2019-04-19T12:03:36Z</time>
      </trkpt>
      <trkpt lat="44.11228" lon="3.11457">
        <ele>823.3</ele>
        <time>2019-04-19T12:03:37Z</time>
      </trkpt>
      <trkpt lat="44.11215" lon="3.11461">
        <ele>822.9</ele>
        <time>2019-04-19T12:03:38Z</time>
      </trkpt>
      <trkpt lat="44.1121" lon="3.11462">
        <ele>822.8</ele>
        <time>2019-04-19T12:03:39Z</time>
      </trkpt>
      <trkpt lat="44.11204" lon="3.11465">
        <ele>822.6</ele>
        <time>2019-04-19T12:03:40Z</time>
      </trkpt>
      <trkpt lat="44.112" lon="3.11464">
        <ele>822.5</ele>
        <time>2019-04-19T12:03:41Z</time>
      </trkpt>
      <trkpt lat="44.11193" lon="3.11466">
        <ele>822.3</ele>
        <time>2019-04-19T12:03:42Z</time>
      </trkpt>
      <trkpt lat="44.11189" lon="3.11474">
        <ele>822</ele>
        <time>2019-04-19T12:03:43Z</time>
      </trkpt>
      <trkpt lat="44.11182" lon="3.11474">
        <ele>821.7</ele>
        <time>2019-04-19T12:03:44Z</time>
      </trkpt>
      <trkpt lat="44.11178" lon="3.11476">
        <ele>821.5</ele>
        <time>2019-04-19T12:03:45Z</time>
      </trkpt>
      <trkpt lat="44.11172" lon="3.1148">
        <ele>821.3</ele>
        <time>2019-04-19T12:03:46Z</time>
      </trkpt>
      <trkpt lat="44.11166" lon="3.11484">
        <ele>821</ele>
        <time>2019-04-19T12:03:47Z</time>
      </trkpt>
      <trkpt lat="44.11161" lon="3.11489">
        <ele>820.8</ele>
        <time>2019-04-19T12:03:48Z</time>
      </trkpt>
      <trkpt lat="44.11157" lon="3.11496">
        <ele>820.5</ele>
        <time>2019-04-19T12:03:49Z</time>
      </trkpt>
      <trkpt lat="44.11154" lon="3.115">
        <ele>820.3</ele>
        <time>2019-04-19T12:03:50Z</time>
      </trkpt>
      <trkpt lat="44.11148" lon="3.11507">
        <ele>820</ele>
        <time>2019-04-19T12:03:51Z</time>
      </trkpt>
      <trkpt lat="44.11144" lon="3.11513">
        <ele>819.7</ele>
        <time>2019-04-19T12:03:52Z</time>
      </trkpt>
      <trkpt lat="44.11138" lon="3.1152">
        <ele>819.3</ele>
        <time>2019-04-19T12:03:53Z</time>
      </trkpt>
      <trkpt lat="44.11133" lon="3.11526">
        <ele>818.9</ele>
        <time>2019-04-19T12:03:54Z</time>
      </trkpt>
      <trkpt lat="44.11128" lon="3.11532">
        <ele>818.5</ele>
        <time>2019-04-19T12:03:55Z</time>
      </trkpt>
      <trkpt lat="44.11124" lon="3.11538">
        <ele>818.1</ele>
        <time>2019-04-19T12:03:56Z</time>
      </trkpt>
      <trkpt lat="44.11118" lon="3.11545">
        <ele>817.8</ele>
        <time>2019-04-19T12:03:57Z</time>
      </trkpt>
      <trkpt lat="44.11113" lon="3.11551">
        <ele>817.4</ele>
        <time>2019-04-19T12:03:58Z</time>
      </trkpt>
      <trkpt lat="44.11109" lon="3.11563">
        <ele>816.9</ele>
        <time>2019-04-19T12:03:59Z</time>
      </trkpt>
      <trkpt lat="44.11104" lon="3.1157">
        <ele>816.6</ele>
        <time>2019-04-19T12:04:00Z</time>
      </trkpt>
      <trkpt lat="44.11099" lon="3.11576">
        <ele>816.2</ele>
        <time>2019-04-19T12:04:01Z</time>
      </trkpt>
      <trkpt lat="44.11095" lon="3.11583">
        <ele>815.9</ele>
        <time>2019-04-19T12:04:02Z</time>
      </trkpt>
      <trkpt lat="44.11093" lon="3.11589">
        <ele>815.6</ele>
        <time>2019-04-19T12:04:03Z</time>
      </trkpt>
      <trkpt lat="44.1109" lon="3.11595">
        <ele>815.6</ele>
        <time>2019-04-19T12:04:05Z</time>
      </trkpt>
      <trkpt lat="44.11088" lon="3.11599">
        <ele>816.1</ele>
        <time>2019-04-19T12:04:07Z</time>
      </trkpt>
      <trkpt lat="44.11091" lon="3.11605">
        <ele>816.8</ele>
        <time>2019-04-19T12:04:10Z</time>
      </trkpt>
      <trkpt lat="44.11094" lon="3.11604">
        <ele>817.3</ele>
        <time>2019-04-19T12:04:12Z</time>
      </trkpt>
      <trkpt lat="44.11097" lon="3.11606">
        <ele>817.8</ele>
        <time>2019-04-19T12:04:14Z</time>
      </trkpt>
      <trkpt lat="44.111" lon="3.11608">
        <ele>818.2</ele>
        <time>2019-04-19T12:04:16Z</time>
      </trkpt>
      <trkpt lat="44.11104" lon="3.1161">
        <ele>818.7</ele>
        <time>2019-04-19T12:04:18Z</time>
      </trkpt>
      <trkpt lat="44.1111" lon="3.11609">
        <ele>819.3</ele>
        <time>2019-04-19T12:04:20Z</time>
      </trkpt>
      <trkpt lat="44.11114" lon="3.11607">
        <ele>819.8</ele>
        <time>2019-04-19T12:04:22Z</time>
      </trkpt>
      <trkpt lat="44.11119" lon="3.11607">
        <ele>820.3</ele>
        <time>2019-04-19T12:04:24Z</time>
      </trkpt>
      <trkpt lat="44.11122" lon="3.11607">
        <ele>820.7</ele>
        <time>2019-04-19T12:04:26Z</time>
      </trkpt>
      <trkpt lat="44.11126" lon="3.11608">
        <ele>821.1</ele>
        <time>2019-04-19T12:04:28Z</time>
      </trkpt>
      <trkpt lat="44.11131" lon="3.11609">
        <ele>821.6</ele>
        <time>2019-04-19T12:04:30Z</time>
      </trkpt>
      <trkpt lat="44.11135" lon="3.11611">
        <ele>822.1</ele>
        <time>2019-04-19T12:04:32Z</time>
      </trkpt>
      <trkpt lat="44.11139" lon="3.11612">
        <ele>822.7</ele>
        <time>2019-04-19T12:04:35Z</time>
      </trkpt>
      <trkpt lat="44.11143" lon="3.11612">
        <ele>823.2</ele>
        <time>2019-04-19T12:04:37Z</time>
      </trkpt>
      <trkpt lat="44.11146" lon="3.11614">
        <ele>823.6</ele>
        <time>2019-04-19T12:04:39Z</time>
      </trkpt>
      <trkpt lat="44.11148" lon="3.11617">
        <ele>824</ele>
        <time>2019-04-19T12:04:41Z</time>
      </trkpt>
      <trkpt lat="44.11152" lon="3.11618">
        <ele>824.5</ele>
        <time>2019-04-19T12:04:43Z</time>
      </trkpt>
      <trkpt lat="44.11157" lon="3.1162">
        <ele>825.1</ele>
        <time>2019-04-19T12:04:45Z</time>
      </trkpt>
      <trkpt lat="44.1116" lon="3.1162">
        <ele>825.5</ele>
        <time>2019-04-19T12:04:46Z</time>
      </trkpt>
      <trkpt lat="44.11164" lon="3.11622">
        <ele>826</ele>
        <time>2019-04-19T12:04:48Z</time>
      </trkpt>
      <trkpt lat="44.11166" lon="3.11624">
        <ele>826.4</ele>
        <time>2019-04-19T12:04:50Z</time>
      </trkpt>
      <trkpt lat="44.11171" lon="3.11623">
        <ele>827</ele>
        <time>2019-04-19T12:04:53Z</time>
      </trkpt>
      <trkpt lat="44.11173" lon="3.11626">
        <ele>827.4</ele>
        <time>2019-04-19T12:04:55Z</time>
      </trkpt>
      <trkpt lat="44.11177" lon="3.11628">
        <ele>827.8</ele>
        <time>2019-04-19T12:04:58Z</time>
      </trkpt>
      <trkpt lat="44.11182" lon="3.11627">
        <ele>828.4</ele>
        <time>2019-04-19T12:05:00Z</time>
      </trkpt>
      <trkpt lat="44.11184" lon="3.11625">
        <ele>828.8</ele>
        <time>2019-04-19T12:05:02Z</time>
      </trkpt>
      <trkpt lat="44.11188" lon="3.11624">
        <ele>829.3</ele>
        <time>2019-04-19T12:05:04Z</time>
      </trkpt>
      <trkpt lat="44.11193" lon="3.11624">
        <ele>829.9</ele>
        <time>2019-04-19T12:05:06Z</time>
      </trkpt>
      <trkpt lat="44.11196" lon="3.11624">
        <ele>830.3</ele>
        <time>2019-04-19T12:05:08Z</time>
      </trkpt>
      <trkpt lat="44.11199" lon="3.11626">
        <ele>830.7</ele>
        <time>2019-04-19T12:05:10Z</time>
      </trkpt>
      <trkpt lat="44.11202" lon="3.1163">
        <ele>831.2</ele>
        <time>2019-04-19T12:05:13Z</time>
      </trkpt>
      <trkpt lat="44.11203" lon="3.11634">
        <ele>831.6</ele>
        <time>2019-04-19T12:05:16Z</time>
      </trkpt>
      <trkpt lat="44.11206" lon="3.11635">
        <ele>832</ele>
        <time>2019-04-19T12:05:18Z</time>
      </trkpt>
      <trkpt lat="44.1121" lon="3.11636">
        <ele>832.5</ele>
        <time>2019-04-19T12:05:20Z</time>
      </trkpt>
      <trkpt lat="44.11212" lon="3.11632">
        <ele>832.9</ele>
        <time>2019-04-19T12:05:24Z</time>
      </trkpt>
      <trkpt lat="44.11212" lon="3.11628">
        <ele>833.3</ele>
        <time>2019-04-19T12:05:31Z</time>
      </trkpt>
      <trkpt lat="44.11215" lon="3.11627">
        <ele>833.7</ele>
        <time>2019-04-19T12:07:08Z</time>
      </trkpt>
      <trkpt lat="44.11218" lon="3.11627">
        <ele>834.1</ele>
        <time>2019-04-19T12:07:11Z</time>
      </trkpt>
      <trkpt lat="44.11222" lon="3.11626">
        <ele>834.5</ele>
        <time>2019-04-19T12:07:13Z</time>
      </trkpt>
      <trkpt lat="44.11225" lon="3.11626">
        <ele>835</ele>
        <time>2019-04-19T12:07:15Z</time>
      </trkpt>
      <trkpt lat="44.11228" lon="3.11627">
        <ele>835.4</ele>
        <time>2019-04-19T12:07:17Z</time>
      </trkpt>
      <trkpt lat="44.11232" lon="3.11627">
        <ele>836</ele>
        <time>2019-04-19T12:07:19Z</time>
      </trkpt>
      <trkpt lat="44.11235" lon="3.11627">
        <ele>836.5</ele>
        <time>2019-04-19T12:07:21Z</time>
      </trkpt>
      <trkpt lat="44.11239" lon="3.11627">
        <ele>837</ele>
        <time>2019-04-19T12:07:23Z</time>
      </trkpt>
      <trkpt lat="44.11243" lon="3.11627">
        <ele>837.4</ele>
        <time>2019-04-19T12:07:25Z</time>
      </trkpt>
      <trkpt lat="44.11247" lon="3.11627">
        <ele>837.8</ele>
        <time>2019-04-19T12:07:27Z</time>
      </trkpt>
      <trkpt lat="44.1125" lon="3.11625">
        <ele>838.2</ele>
        <time>2019-04-19T12:07:29Z</time>
      </trkpt>
      <trkpt lat="44.11253" lon="3.11624">
        <ele>838.5</ele>
        <time>2019-04-19T12:07:31Z</time>
      </trkpt>
      <trkpt lat="44.11257" lon="3.11622">
        <ele>838.9</ele>
        <time>2019-04-19T12:07:33Z</time>
      </trkpt>
      <trkpt lat="44.1126" lon="3.11621">
        <ele>839.3</ele>
        <time>2019-04-19T12:07:35Z</time>
      </trkpt>
      <trkpt lat="44.11263" lon="3.1162">
        <ele>839.6</ele>
        <time>2019-04-19T12:07:37Z</time>
      </trkpt>
      <trkpt lat="44.11268" lon="3.11619">
        <ele>840.1</ele>
        <time>2019-04-19T12:07:39Z</time>
      </trkpt>
      <trkpt lat="44.11271" lon="3.11619">
        <ele>840.5</ele>
        <time>2019-04-19T12:07:41Z</time>
      </trkpt>
      <trkpt lat="44.11275" lon="3.1162">
        <ele>841</ele>
        <time>2019-04-19T12:07:44Z</time>
      </trkpt>
      <trkpt lat="44.11279" lon="3.11618">
        <ele>841.5</ele>
        <time>2019-04-19T12:07:46Z</time>
      </trkpt>
      <trkpt lat="44.11281" lon="3.11615">
        <ele>841.9</ele>
        <time>2019-04-19T12:07:47Z</time>
      </trkpt>
      <trkpt lat="44.11285" lon="3.11614">
        <ele>842.1</ele>
        <time>2019-04-19T12:07:48Z</time>
      </trkpt>
      <trkpt lat="44.11288" lon="3.11613">
        <ele>842.3</ele>
        <time>2019-04-19T12:07:49Z</time>
      </trkpt>
      <trkpt lat="44.11292" lon="3.11613">
        <ele>842.7</ele>
        <time>2019-04-19T12:07:51Z</time>
      </trkpt>
      <trkpt lat="44.11295" lon="3.11613">
        <ele>842.9</ele>
        <time>2019-04-19T12:07:52Z</time>
      </trkpt>
      <trkpt lat="44.11298" lon="3.11613">
        <ele>843.1</ele>
        <time>2019-04-19T12:07:53Z</time>
      </trkpt>
      <trkpt lat="44.11302" lon="3.11613">
        <ele>843.3</ele>
        <time>2019-04-19T12:07:55Z</time>
      </trkpt>
      <trkpt lat="44.11305" lon="3.11615">
        <ele>843.5</ele>
        <time>2019-04-19T12:07:57Z</time>
      </trkpt>
      <trkpt lat="44.11308" lon="3.11618">
        <ele>843.6</ele>
        <time>2019-04-19T12:07:59Z</time>
      </trkpt>
      <trkpt lat="44.1131" lon="3.11621">
        <ele>843.7</ele>
        <time>2019-04-19T12:08:01Z</time>
      </trkpt>
      <trkpt lat="44.11314" lon="3.11626">
        <ele>843.8</ele>
        <time>2019-04-19T12:08:03Z</time>
      </trkpt>
      <trkpt lat="44.11317" lon="3.11628">
        <ele>843.9</ele>
        <time>2019-04-19T12:08:04Z</time>
      </trkpt>
      <trkpt lat="44.1132" lon="3.1163">
        <ele>844</ele>
        <time>2019-04-19T12:08:05Z</time>
      </trkpt>
      <trkpt lat="44.11323" lon="3.11631">
        <ele>844.1</ele>
        <time>2019-04-19T12:08:06Z</time>
      </trkpt>
      <trkpt lat="44.11328" lon="3.11632">
        <ele>844.4</ele>
        <time>2019-04-19T12:08:08Z</time>
      </trkpt>
      <trkpt lat="44.11331" lon="3.11633">
        <ele>844.6</ele>
        <time>2019-04-19T12:08:10Z</time>
      </trkpt>
      <trkpt lat="44.11334" lon="3.11634">
        <ele>844.8</ele>
        <time>2019-04-19T12:08:12Z</time>
      </trkpt>
      <trkpt lat="44.11337" lon="3.11634">
        <ele>845</ele>
        <time>2019-04-19T12:08:13Z</time>
      </trkpt>
      <trkpt lat="44.1134" lon="3.11635">
        <ele>845.2</ele>
        <time>2019-04-19T12:08:14Z</time>
      </trkpt>
      <trkpt lat="44.11345" lon="3.11637">
        <ele>845.7</ele>
        <time>2019-04-19T12:08:16Z</time>
      </trkpt>
      <trkpt lat="44.11349" lon="3.11639">
        <ele>846.1</ele>
        <time>2019-04-19T12:08:18Z</time>
      </trkpt>
      <trkpt lat="44.11353" lon="3.11641">
        <ele>846.4</ele>
        <time>2019-04-19T12:08:19Z</time>
      </trkpt>
      <trkpt lat="44.11356" lon="3.11642">
        <ele>846.6</ele>
        <time>2019-04-19T12:08:20Z</time>
      </trkpt>
      <trkpt lat="44.11361" lon="3.11645">
        <ele>847</ele>
        <time>2019-04-19T12:08:22Z</time>
      </trkpt>
      <trkpt lat="44.11364" lon="3.11647">
        <ele>847.1</ele>
        <time>2019-04-19T12:08:23Z</time>
      </trkpt>
      <trkpt lat="44.11369" lon="3.1165">
        <ele>847.4</ele>
        <time>2019-04-19T12:08:25Z</time>
      </trkpt>
      <trkpt lat="44.11373" lon="3.11652">
        <ele>847.6</ele>
        <time>2019-04-19T12:08:26Z</time>
      </trkpt>
      <trkpt lat="44.11376" lon="3.11653">
        <ele>847.8</ele>
        <time>2019-04-19T12:08:27Z</time>
      </trkpt>
      <trkpt lat="44.1138" lon="3.11654">
        <ele>848</ele>
        <time>2019-04-19T12:08:28Z</time>
      </trkpt>
      <trkpt lat="44.11383" lon="3.11655">
        <ele>848.2</ele>
        <time>2019-04-19T12:08:29Z</time>
      </trkpt>
      <trkpt lat="44.11387" lon="3.11656">
        <ele>848.5</ele>
        <time>2019-04-19T12:08:30Z</time>
      </trkpt>
      <trkpt lat="44.1139" lon="3.11657">
        <ele>848.7</ele>
        <time>2019-04-19T12:08:31Z</time>
      </trkpt>
      <trkpt lat="44.11393" lon="3.11657">
        <ele>849</ele>
        <time>2019-04-19T12:08:32Z</time>
      </trkpt>
      <trkpt lat="44.11396" lon="3.11658">
        <ele>849.2</ele>
        <time>2019-04-19T12:08:33Z</time>
      </trkpt>
      <trkpt lat="44.11399" lon="3.11658">
        <ele>849.4</ele>
        <time>2019-04-19T12:08:34Z</time>
      </trkpt>
      <trkpt lat="44.11403" lon="3.1166">
        <ele>849.8</ele>
        <time>2019-04-19T12:08:36Z</time>
      </trkpt>
      <trkpt lat="44.11406" lon="3.11661">
        <ele>850</ele>
        <time>2019-04-19T12:08:38Z</time>
      </trkpt>
      <trkpt lat="44.11409" lon="3.11663">
        <ele>850.3</ele>
        <time>2019-04-19T12:08:39Z</time>
      </trkpt>
      <trkpt lat="44.11412" lon="3.11664">
        <ele>850.5</ele>
        <time>2019-04-19T12:08:40Z</time>
      </trkpt>
      <trkpt lat="44.11416" lon="3.11666">
        <ele>850.8</ele>
        <time>2019-04-19T12:08:41Z</time>
      </trkpt>
      <trkpt lat="44.11419" lon="3.11666">
        <ele>851</ele>
        <time>2019-04-19T12:08:42Z</time>
      </trkpt>
      <trkpt lat="44.11422" lon="3.11666">
        <ele>851.3</ele>
        <time>2019-04-19T12:08:43Z</time>
      </trkpt>
      <trkpt lat="44.11426" lon="3.11666">
        <ele>851.6</ele>
        <time>2019-04-19T12:08:44Z</time>
      </trkpt>
      <trkpt lat="44.1143" lon="3.11668">
        <ele>851.9</ele>
        <time>2019-04-19T12:08:45Z</time>
      </trkpt>
      <trkpt lat="44.11433" lon="3.11669">
        <ele>852.1</ele>
        <time>2019-04-19T12:08:46Z</time>
      </trkpt>
      <trkpt lat="44.11437" lon="3.11671">
        <ele>852.3</ele>
        <time>2019-04-19T12:08:47Z</time>
      </trkpt>
      <trkpt lat="44.1144" lon="3.11672">
        <ele>852.5</ele>
        <time>2019-04-19T12:08:48Z</time>
      </trkpt>
      <trkpt lat="44.11443" lon="3.11674">
        <ele>852.6</ele>
        <time>2019-04-19T12:08:49Z</time>
      </trkpt>
      <trkpt lat="44.11446" lon="3.11676">
        <ele>852.8</ele>
        <time>2019-04-19T12:08:50Z</time>
      </trkpt>
      <trkpt lat="44.11449" lon="3.11678">
        <ele>852.9</ele>
        <time>2019-04-19T12:08:51Z</time>
      </trkpt>
      <trkpt lat="44.11452" lon="3.11679">
        <ele>853</ele>
        <time>2019-04-19T12:08:52Z</time>
      </trkpt>
      <trkpt lat="44.11457" lon="3.1168">
        <ele>853.2</ele>
        <time>2019-04-19T12:08:54Z</time>
      </trkpt>
      <trkpt lat="44.11461" lon="3.1168">
        <ele>853.4</ele>
        <time>2019-04-19T12:08:55Z</time>
      </trkpt>
      <trkpt lat="44.11464" lon="3.1168">
        <ele>853.5</ele>
        <time>2019-04-19T12:08:56Z</time>
      </trkpt>
      <trkpt lat="44.11467" lon="3.11681">
        <ele>853.6</ele>
        <time>2019-04-19T12:08:57Z</time>
      </trkpt>
      <trkpt lat="44.11471" lon="3.11682">
        <ele>853.6</ele>
        <time>2019-04-19T12:08:58Z</time>
      </trkpt>
      <trkpt lat="44.11474" lon="3.11683">
        <ele>853.7</ele>
        <time>2019-04-19T12:08:59Z</time>
      </trkpt>
      <trkpt lat="44.11477" lon="3.11684">
        <ele>853.7</ele>
        <time>2019-04-19T12:09:00Z</time>
      </trkpt>
      <trkpt lat="44.1148" lon="3.11686">
        <ele>853.8</ele>
        <time>2019-04-19T12:09:01Z</time>
      </trkpt>
      <trkpt lat="44.11483" lon="3.11687">
        <ele>853.9</ele>
        <time>2019-04-19T12:09:02Z</time>
      </trkpt>
      <trkpt lat="44.11486" lon="3.11689">
        <ele>854</ele>
        <time>2019-04-19T12:09:03Z</time>
      </trkpt>
      <trkpt lat="44.11488" lon="3.11693">
        <ele>854.6</ele>
        <time>2019-04-19T12:09:04Z</time>
      </trkpt>
      <trkpt lat="44.1149" lon="3.11697">
        <ele>854.8</ele>
        <time>2019-04-19T12:09:05Z</time>
      </trkpt>
      <trkpt lat="44.11492" lon="3.11701">
        <ele>854.9</ele>
        <time>2019-04-19T12:09:07Z</time>
      </trkpt>
      <trkpt lat="44.11494" lon="3.11705">
        <ele>855.1</ele>
        <time>2019-04-19T12:09:09Z</time>
      </trkpt>
      <trkpt lat="44.11496" lon="3.1171">
        <ele>855.2</ele>
        <time>2019-04-19T12:09:11Z</time>
      </trkpt>
      <trkpt lat="44.11499" lon="3.11715">
        <ele>855.3</ele>
        <time>2019-04-19T12:09:13Z</time>
      </trkpt>
      <trkpt lat="44.11502" lon="3.11718">
        <ele>855.4</ele>
        <time>2019-04-19T12:09:14Z</time>
      </trkpt>
      <trkpt lat="44.11504" lon="3.11722">
        <ele>855.5</ele>
        <time>2019-04-19T12:09:15Z</time>
      </trkpt>
      <trkpt lat="44.11507" lon="3.11725">
        <ele>855.6</ele>
        <time>2019-04-19T12:09:16Z</time>
      </trkpt>
      <trkpt lat="44.11509" lon="3.11729">
        <ele>855.7</ele>
        <time>2019-04-19T12:09:17Z</time>
      </trkpt>
      <trkpt lat="44.11512" lon="3.11732">
        <ele>855.8</ele>
        <time>2019-04-19T12:09:18Z</time>
      </trkpt>
      <trkpt lat="44.11514" lon="3.11736">
        <ele>855.9</ele>
        <time>2019-04-19T12:09:19Z</time>
      </trkpt>
      <trkpt lat="44.11517" lon="3.1174">
        <ele>855.9</ele>
        <time>2019-04-19T12:09:20Z</time>
      </trkpt>
      <trkpt lat="44.11519" lon="3.11745">
        <ele>856</ele>
        <time>2019-04-19T12:09:21Z</time>
      </trkpt>
      <trkpt lat="44.11522" lon="3.1175">
        <ele>856.1</ele>
        <time>2019-04-19T12:09:22Z</time>
      </trkpt>
      <trkpt lat="44.11525" lon="3.11754">
        <ele>856.1</ele>
        <time>2019-04-19T12:09:23Z</time>
      </trkpt>
      <trkpt lat="44.11527" lon="3.11757">
        <ele>856.1</ele>
        <time>2019-04-19T12:09:24Z</time>
      </trkpt>
      <trkpt lat="44.11529" lon="3.11762">
        <ele>856.1</ele>
        <time>2019-04-19T12:09:25Z</time>
      </trkpt>
      <trkpt lat="44.11536" lon="3.11788">
        <ele>855.6</ele>
        <time>2019-04-19T12:09:27Z</time>
      </trkpt>
      <trkpt lat="44.11538" lon="3.11797">
        <ele>855.3</ele>
        <time>2019-04-19T12:09:28Z</time>
      </trkpt>
      <trkpt lat="44.11543" lon="3.11808">
        <ele>854.7</ele>
        <time>2019-04-19T12:09:29Z</time>
      </trkpt>
      <trkpt lat="44.11547" lon="3.11822">
        <ele>853.8</ele>
        <time>2019-04-19T12:09:30Z</time>
      </trkpt>
      <trkpt lat="44.11552" lon="3.11828">
        <ele>853.2</ele>
        <time>2019-04-19T12:09:31Z</time>
      </trkpt>
      <trkpt lat="44.11555" lon="3.1184">
        <ele>852.2</ele>
        <time>2019-04-19T12:09:32Z</time>
      </trkpt>
      <trkpt lat="44.11558" lon="3.11852">
        <ele>851.2</ele>
        <time>2019-04-19T12:09:33Z</time>
      </trkpt>
      <trkpt lat="44.11562" lon="3.11864">
        <ele>850.2</ele>
        <time>2019-04-19T12:09:34Z</time>
      </trkpt>
      <trkpt lat="44.11565" lon="3.11881">
        <ele>848.8</ele>
        <time>2019-04-19T12:09:35Z</time>
      </trkpt>
      <trkpt lat="44.11569" lon="3.11896">
        <ele>847.3</ele>
        <time>2019-04-19T12:09:36Z</time>
      </trkpt>
      <trkpt lat="44.11572" lon="3.11908">
        <ele>845.9</ele>
        <time>2019-04-19T12:09:37Z</time>
      </trkpt>
      <trkpt lat="44.11572" lon="3.1192">
        <ele>844.5</ele>
        <time>2019-04-19T12:09:38Z</time>
      </trkpt>
      <trkpt lat="44.11574" lon="3.11938">
        <ele>842.2</ele>
        <time>2019-04-19T12:09:39Z</time>
      </trkpt>
      <trkpt lat="44.11577" lon="3.11954">
        <ele>839.8</ele>
        <time>2019-04-19T12:09:40Z</time>
      </trkpt>
      <trkpt lat="44.11578" lon="3.11963">
        <ele>838.5</ele>
        <time>2019-04-19T12:09:41Z</time>
      </trkpt>
      <trkpt lat="44.11579" lon="3.11973">
        <ele>837.2</ele>
        <time>2019-04-19T12:09:42Z</time>
      </trkpt>
      <trkpt lat="44.11582" lon="3.11981">
        <ele>835.8</ele>
        <time>2019-04-19T12:09:43Z</time>
      </trkpt>
      <trkpt lat="44.11581" lon="3.11985">
        <ele>835.2</ele>
        <time>2019-04-19T12:09:45Z</time>
      </trkpt>
      <trkpt lat="44.11583" lon="3.11987">
        <ele>834.7</ele>
        <time>2019-04-19T12:09:48Z</time>
      </trkpt>
      <trkpt lat="44.11585" lon="3.1199">
        <ele>834.1</ele>
        <time>2019-04-19T12:09:49Z</time>
      </trkpt>
      <trkpt lat="44.11586" lon="3.11995">
        <ele>832.8</ele>
        <time>2019-04-19T12:10:08Z</time>
      </trkpt>
      <trkpt lat="44.1159" lon="3.11997">
        <ele>832.5</ele>
        <time>2019-04-19T12:10:10Z</time>
      </trkpt>
      <trkpt lat="44.11594" lon="3.12001">
        <ele>832.1</ele>
        <time>2019-04-19T12:10:12Z</time>
      </trkpt>
      <trkpt lat="44.11598" lon="3.12005">
        <ele>831.8</ele>
        <time>2019-04-19T12:10:13Z</time>
      </trkpt>
      <trkpt lat="44.116" lon="3.12007">
        <ele>831.6</ele>
        <time>2019-04-19T12:10:14Z</time>
      </trkpt>
      <trkpt lat="44.11603" lon="3.12009">
        <ele>831.4</ele>
        <time>2019-04-19T12:10:15Z</time>
      </trkpt>
      <trkpt lat="44.11606" lon="3.12011">
        <ele>831.1</ele>
        <time>2019-04-19T12:10:16Z</time>
      </trkpt>
      <trkpt lat="44.1161" lon="3.12013">
        <ele>830.8</ele>
        <time>2019-04-19T12:10:17Z</time>
      </trkpt>
      <trkpt lat="44.11617" lon="3.12016">
        <ele>830.3</ele>
        <time>2019-04-19T12:10:18Z</time>
      </trkpt>
      <trkpt lat="44.11623" lon="3.12019">
        <ele>829.9</ele>
        <time>2019-04-19T12:10:19Z</time>
      </trkpt>
      <trkpt lat="44.1163" lon="3.12024">
        <ele>829.5</ele>
        <time>2019-04-19T12:10:20Z</time>
      </trkpt>
      <trkpt lat="44.11635" lon="3.12028">
        <ele>829.2</ele>
        <time>2019-04-19T12:10:21Z</time>
      </trkpt>
      <trkpt lat="44.11641" lon="3.1203">
        <ele>828.9</ele>
        <time>2019-04-19T12:10:22Z</time>
      </trkpt>
      <trkpt lat="44.11646" lon="3.12032">
        <ele>828.8</ele>
        <time>2019-04-19T12:10:23Z</time>
      </trkpt>
      <trkpt lat="44.1165" lon="3.12035">
        <ele>828.7</ele>
        <time>2019-04-19T12:10:24Z</time>
      </trkpt>
      <trkpt lat="44.11654" lon="3.12042">
        <ele>828.7</ele>
        <time>2019-04-19T12:10:25Z</time>
      </trkpt>
      <trkpt lat="44.11654" lon="3.12046">
        <ele>828.8</ele>
        <time>2019-04-19T12:10:26Z</time>
      </trkpt>
      <trkpt lat="44.11655" lon="3.1205">
        <ele>829.2</ele>
        <time>2019-04-19T12:10:27Z</time>
      </trkpt>
      <trkpt lat="44.11657" lon="3.12057">
        <ele>829.2</ele>
        <time>2019-04-19T12:10:28Z</time>
      </trkpt>
      <trkpt lat="44.11659" lon="3.12062">
        <ele>829.3</ele>
        <time>2019-04-19T12:10:29Z</time>
      </trkpt>
      <trkpt lat="44.11662" lon="3.12068">
        <ele>829.4</ele>
        <time>2019-04-19T12:10:30Z</time>
      </trkpt>
      <trkpt lat="44.11663" lon="3.12076">
        <ele>829.5</ele>
        <time>2019-04-19T12:10:31Z</time>
      </trkpt>
      <trkpt lat="44.11665" lon="3.12085">
        <ele>829.5</ele>
        <time>2019-04-19T12:10:32Z</time>
      </trkpt>
      <trkpt lat="44.11669" lon="3.12095">
        <ele>829.5</ele>
        <time>2019-04-19T12:10:33Z</time>
      </trkpt>
      <trkpt lat="44.11675" lon="3.12103">
        <ele>829.4</ele>
        <time>2019-04-19T12:10:34Z</time>
      </trkpt>
      <trkpt lat="44.11674" lon="3.12107">
        <ele>829.3</ele>
        <time>2019-04-19T12:10:35Z</time>
      </trkpt>
      <trkpt lat="44.11671" lon="3.12109">
        <ele>829.2</ele>
        <time>2019-04-19T12:10:36Z</time>
      </trkpt>
      <trkpt lat="44.11671" lon="3.12113">
        <ele>829</ele>
        <time>2019-04-19T12:10:37Z</time>
      </trkpt>
      <trkpt lat="44.1167" lon="3.12119">
        <ele>829</ele>
        <time>2019-04-19T12:10:38Z</time>
      </trkpt>
      <trkpt lat="44.11669" lon="3.12124">
        <ele>829</ele>
        <time>2019-04-19T12:10:39Z</time>
      </trkpt>
      <trkpt lat="44.11668" lon="3.12131">
        <ele>829</ele>
        <time>2019-04-19T12:10:40Z</time>
      </trkpt>
      <trkpt lat="44.11669" lon="3.1214">
        <ele>829.1</ele>
        <time>2019-04-19T12:10:41Z</time>
      </trkpt>
      <trkpt lat="44.11669" lon="3.12146">
        <ele>829.2</ele>
        <time>2019-04-19T12:10:42Z</time>
      </trkpt>
      <trkpt lat="44.11667" lon="3.12151">
        <ele>829.3</ele>
        <time>2019-04-19T12:10:43Z</time>
      </trkpt>
      <trkpt lat="44.11664" lon="3.12156">
        <ele>829.4</ele>
        <time>2019-04-19T12:10:44Z</time>
      </trkpt>
      <trkpt lat="44.11662" lon="3.12162">
        <ele>829.5</ele>
        <time>2019-04-19T12:10:45Z</time>
      </trkpt>
      <trkpt lat="44.11661" lon="3.12167">
        <ele>829.7</ele>
        <time>2019-04-19T12:10:46Z</time>
      </trkpt>
      <trkpt lat="44.11659" lon="3.12174">
        <ele>829.8</ele>
        <time>2019-04-19T12:10:47Z</time>
      </trkpt>
      <trkpt lat="44.11658" lon="3.1218">
        <ele>830</ele>
        <time>2019-04-19T12:10:48Z</time>
      </trkpt>
      <trkpt lat="44.11656" lon="3.12185">
        <ele>830.1</ele>
        <time>2019-04-19T12:10:49Z</time>
      </trkpt>
      <trkpt lat="44.11656" lon="3.12192">
        <ele>830.2</ele>
        <time>2019-04-19T12:10:50Z</time>
      </trkpt>
      <trkpt lat="44.11655" lon="3.12199">
        <ele>830.4</ele>
        <time>2019-04-19T12:10:51Z</time>
      </trkpt>
      <trkpt lat="44.11654" lon="3.12205">
        <ele>830.5</ele>
        <time>2019-04-19T12:10:52Z</time>
      </trkpt>
      <trkpt lat="44.11653" lon="3.12212">
        <ele>830.6</ele>
        <time>2019-04-19T12:10:53Z</time>
      </trkpt>
      <trkpt lat="44.11652" lon="3.12219">
        <ele>830.8</ele>
        <time>2019-04-19T12:10:54Z</time>
      </trkpt>
      <trkpt lat="44.1165" lon="3.1223">
        <ele>831</ele>
        <time>2019-04-19T12:10:55Z</time>
      </trkpt>
      <trkpt lat="44.11648" lon="3.12236">
        <ele>831.2</ele>
        <time>2019-04-19T12:10:56Z</time>
      </trkpt>
      <trkpt lat="44.11647" lon="3.12242">
        <ele>831.3</ele>
        <time>2019-04-19T12:10:57Z</time>
      </trkpt>
      <trkpt lat="44.11646" lon="3.12246">
        <ele>831.5</ele>
        <time>2019-04-19T12:10:59Z</time>
      </trkpt>
      <trkpt lat="44.11644" lon="3.12249">
        <ele>831.6</ele>
        <time>2019-04-19T12:11:00Z</time>
      </trkpt>
      <trkpt lat="44.11645" lon="3.12265">
        <ele>832.2</ele>
        <time>2019-04-19T12:11:02Z</time>
      </trkpt>
      <trkpt lat="44.11646" lon="3.12269">
        <ele>832.3</ele>
        <time>2019-04-19T12:11:03Z</time>
      </trkpt>
      <trkpt lat="44.11646" lon="3.12278">
        <ele>832.6</ele>
        <time>2019-04-19T12:11:04Z</time>
      </trkpt>
      <trkpt lat="44.11647" lon="3.12281">
        <ele>832.6</ele>
        <time>2019-04-19T12:11:05Z</time>
      </trkpt>
      <trkpt lat="44.11648" lon="3.12289">
        <ele>832.7</ele>
        <time>2019-04-19T12:11:07Z</time>
      </trkpt>
      <trkpt lat="44.1165" lon="3.12293">
        <ele>832.6</ele>
        <time>2019-04-19T12:11:08Z</time>
      </trkpt>
      <trkpt lat="44.11652" lon="3.12297">
        <ele>832.6</ele>
        <time>2019-04-19T12:11:09Z</time>
      </trkpt>
      <trkpt lat="44.11653" lon="3.12301">
        <ele>832.6</ele>
        <time>2019-04-19T12:11:10Z</time>
      </trkpt>
      <trkpt lat="44.11655" lon="3.12305">
        <ele>832.5</ele>
        <time>2019-04-19T12:11:11Z</time>
      </trkpt>
      <trkpt lat="44.11657" lon="3.12308">
        <ele>832.4</ele>
        <time>2019-04-19T12:11:12Z</time>
      </trkpt>
      <trkpt lat="44.11659" lon="3.12312">
        <ele>832.3</ele>
        <time>2019-04-19T12:11:14Z</time>
      </trkpt>
      <trkpt lat="44.11661" lon="3.12316">
        <ele>832.3</ele>
        <time>2019-04-19T12:11:15Z</time>
      </trkpt>
      <trkpt lat="44.11663" lon="3.12319">
        <ele>832.2</ele>
        <time>2019-04-19T12:11:16Z</time>
      </trkpt>
      <trkpt lat="44.11664" lon="3.12324">
        <ele>832.1</ele>
        <time>2019-04-19T12:11:17Z</time>
      </trkpt>
      <trkpt lat="44.11666" lon="3.12329">
        <ele>832.1</ele>
        <time>2019-04-19T12:11:18Z</time>
      </trkpt>
      <trkpt lat="44.11667" lon="3.12334">
        <ele>832.1</ele>
        <time>2019-04-19T12:11:19Z</time>
      </trkpt>
      <trkpt lat="44.11668" lon="3.12339">
        <ele>832</ele>
        <time>2019-04-19T12:11:20Z</time>
      </trkpt>
      <trkpt lat="44.11668" lon="3.12344">
        <ele>832</ele>
        <time>2019-04-19T12:11:21Z</time>
      </trkpt>
      <trkpt lat="44.1167" lon="3.12349">
        <ele>832</ele>
        <time>2019-04-19T12:11:22Z</time>
      </trkpt>
      <trkpt lat="44.11671" lon="3.12354">
        <ele>831.9</ele>
        <time>2019-04-19T12:11:23Z</time>
      </trkpt>
      <trkpt lat="44.11674" lon="3.1236">
        <ele>831.7</ele>
        <time>2019-04-19T12:11:24Z</time>
      </trkpt>
      <trkpt lat="44.11677" lon="3.12365">
        <ele>831.5</ele>
        <time>2019-04-19T12:11:25Z</time>
      </trkpt>
      <trkpt lat="44.1168" lon="3.1237">
        <ele>831.3</ele>
        <time>2019-04-19T12:11:26Z</time>
      </trkpt>
      <trkpt lat="44.11683" lon="3.12375">
        <ele>830.9</ele>
        <time>2019-04-19T12:11:27Z</time>
      </trkpt>
      <trkpt lat="44.11687" lon="3.1238">
        <ele>830.6</ele>
        <time>2019-04-19T12:11:28Z</time>
      </trkpt>
      <trkpt lat="44.1169" lon="3.12384">
        <ele>830.3</ele>
        <time>2019-04-19T12:11:29Z</time>
      </trkpt>
      <trkpt lat="44.11693" lon="3.12388">
        <ele>829.9</ele>
        <time>2019-04-19T12:11:30Z</time>
      </trkpt>
      <trkpt lat="44.11695" lon="3.12392">
        <ele>829.6</ele>
        <time>2019-04-19T12:11:31Z</time>
      </trkpt>
      <trkpt lat="44.11705" lon="3.12402">
        <ele>828.8</ele>
        <time>2019-04-19T12:11:32Z</time>
      </trkpt>
      <trkpt lat="44.11711" lon="3.12409">
        <ele>828.3</ele>
        <time>2019-04-19T12:11:33Z</time>
      </trkpt>
      <trkpt lat="44.11715" lon="3.12417">
        <ele>827.8</ele>
        <time>2019-04-19T12:11:34Z</time>
      </trkpt>
      <trkpt lat="44.11727" lon="3.12428">
        <ele>826.7</ele>
        <time>2019-04-19T12:11:35Z</time>
      </trkpt>
      <trkpt lat="44.11732" lon="3.12435">
        <ele>826.2</ele>
        <time>2019-04-19T12:11:36Z</time>
      </trkpt>
      <trkpt lat="44.11739" lon="3.1244">
        <ele>825.7</ele>
        <time>2019-04-19T12:11:37Z</time>
      </trkpt>
      <trkpt lat="44.11744" lon="3.12441">
        <ele>825.4</ele>
        <time>2019-04-19T12:11:38Z</time>
      </trkpt>
      <trkpt lat="44.11755" lon="3.12444">
        <ele>824.9</ele>
        <time>2019-04-19T12:11:39Z</time>
      </trkpt>
      <trkpt lat="44.11762" lon="3.1245">
        <ele>824.4</ele>
        <time>2019-04-19T12:11:40Z</time>
      </trkpt>
      <trkpt lat="44.1176" lon="3.12458">
        <ele>823.3</ele>
        <time>2019-04-19T12:11:41Z</time>
      </trkpt>
      <trkpt lat="44.11759" lon="3.12462">
        <ele>823</ele>
        <time>2019-04-19T12:11:42Z</time>
      </trkpt>
      <trkpt lat="44.11756" lon="3.12465">
        <ele>822.6</ele>
        <time>2019-04-19T12:11:43Z</time>
      </trkpt>
      <trkpt lat="44.11754" lon="3.12468">
        <ele>822.3</ele>
        <time>2019-04-19T12:11:44Z</time>
      </trkpt>
      <trkpt lat="44.11752" lon="3.12474">
        <ele>822</ele>
        <time>2019-04-19T12:11:45Z</time>
      </trkpt>
      <trkpt lat="44.11749" lon="3.1248">
        <ele>821.7</ele>
        <time>2019-04-19T12:11:46Z</time>
      </trkpt>
      <trkpt lat="44.11746" lon="3.12485">
        <ele>821.4</ele>
        <time>2019-04-19T12:11:47Z</time>
      </trkpt>
      <trkpt lat="44.1174" lon="3.1249">
        <ele>820.9</ele>
        <time>2019-04-19T12:11:48Z</time>
      </trkpt>
      <trkpt lat="44.1174" lon="3.12495">
        <ele>820.7</ele>
        <time>2019-04-19T12:11:49Z</time>
      </trkpt>
      <trkpt lat="44.11737" lon="3.12502">
        <ele>820.4</ele>
        <time>2019-04-19T12:11:50Z</time>
      </trkpt>
      <trkpt lat="44.11737" lon="3.12509">
        <ele>820.2</ele>
        <time>2019-04-19T12:11:51Z</time>
      </trkpt>
      <trkpt lat="44.11736" lon="3.12514">
        <ele>820</ele>
        <time>2019-04-19T12:11:52Z</time>
      </trkpt>
      <trkpt lat="44.11738" lon="3.12509">
        <ele>819.9</ele>
        <time>2019-04-19T12:12:05Z</time>
      </trkpt>
      <trkpt lat="44.11739" lon="3.12508">
        <ele>819.8</ele>
        <time>2019-04-19T12:12:08Z</time>
      </trkpt>
      <trkpt lat="44.11739" lon="3.12507">
        <ele>819.8</ele>
        <time>2019-04-19T12:12:10Z</time>
      </trkpt>
      <trkpt lat="44.1174" lon="3.12506">
        <ele>819.7</ele>
        <time>2019-04-19T12:12:13Z</time>
      </trkpt>
      <trkpt lat="44.11741" lon="3.12505">
        <ele>819.7</ele>
        <time>2019-04-19T12:12:15Z</time>
      </trkpt>
      <trkpt lat="44.11741" lon="3.12504">
        <ele>819.6</ele>
        <time>2019-04-19T12:14:34Z</time>
      </trkpt>
      <trkpt lat="44.11742" lon="3.12503">
        <ele>819.6</ele>
        <time>2019-04-19T12:14:35Z</time>
      </trkpt>
      <trkpt lat="44.11739" lon="3.12508">
        <ele>819.4</ele>
        <time>2019-04-19T12:14:36Z</time>
      </trkpt>
      <trkpt lat="44.11737" lon="3.12513">
        <ele>819.2</ele>
        <time>2019-04-19T12:14:37Z</time>
      </trkpt>
      <trkpt lat="44.11738" lon="3.12522">
        <ele>818.9</ele>
        <time>2019-04-19T12:14:38Z</time>
      </trkpt>
      <trkpt lat="44.11735" lon="3.12533">
        <ele>818.5</ele>
        <time>2019-04-19T12:14:39Z</time>
      </trkpt>
      <trkpt lat="44.11734" lon="3.12541">
        <ele>818.1</ele>
        <time>2019-04-19T12:14:40Z</time>
      </trkpt>
      <trkpt lat="44.11735" lon="3.12547">
        <ele>817.9</ele>
        <time>2019-04-19T12:14:41Z</time>
      </trkpt>
      <trkpt lat="44.11739" lon="3.12554">
        <ele>817.5</ele>
        <time>2019-04-19T12:14:42Z</time>
      </trkpt>
      <trkpt lat="44.11743" lon="3.12556">
        <ele>817.2</ele>
        <time>2019-04-19T12:14:43Z</time>
      </trkpt>
      <trkpt lat="44.11743" lon="3.12563">
        <ele>816.9</ele>
        <time>2019-04-19T12:14:45Z</time>
      </trkpt>
      <trkpt lat="44.11741" lon="3.12571">
        <ele>816.5</ele>
        <time>2019-04-19T12:14:46Z</time>
      </trkpt>
      <trkpt lat="44.11743" lon="3.12577">
        <ele>816.2</ele>
        <time>2019-04-19T12:14:47Z</time>
      </trkpt>
      <trkpt lat="44.11748" lon="3.12584">
        <ele>815.8</ele>
        <time>2019-04-19T12:14:48Z</time>
      </trkpt>
      <trkpt lat="44.1175" lon="3.12591">
        <ele>815.5</ele>
        <time>2019-04-19T12:14:49Z</time>
      </trkpt>
      <trkpt lat="44.11751" lon="3.12599">
        <ele>815.2</ele>
        <time>2019-04-19T12:14:50Z</time>
      </trkpt>
      <trkpt lat="44.11755" lon="3.12608">
        <ele>814.9</ele>
        <time>2019-04-19T12:14:51Z</time>
      </trkpt>
      <trkpt lat="44.11757" lon="3.12617">
        <ele>814.6</ele>
        <time>2019-04-19T12:14:52Z</time>
      </trkpt>
      <trkpt lat="44.11757" lon="3.12626">
        <ele>814.2</ele>
        <time>2019-04-19T12:14:53Z</time>
      </trkpt>
      <trkpt lat="44.11759" lon="3.12634">
        <ele>813.9</ele>
        <time>2019-04-19T12:14:54Z</time>
      </trkpt>
      <trkpt lat="44.11761" lon="3.1264">
        <ele>813.5</ele>
        <time>2019-04-19T12:14:55Z</time>
      </trkpt>
      <trkpt lat="44.11764" lon="3.12645">
        <ele>813.2</ele>
        <time>2019-04-19T12:14:56Z</time>
      </trkpt>
      <trkpt lat="44.1177" lon="3.12646">
        <ele>813</ele>
        <time>2019-04-19T12:14:57Z</time>
      </trkpt>
      <trkpt lat="44.11773" lon="3.12653">
        <ele>812.9</ele>
        <time>2019-04-19T12:14:59Z</time>
      </trkpt>
      <trkpt lat="44.11775" lon="3.12658">
        <ele>813</ele>
        <time>2019-04-19T12:15:00Z</time>
      </trkpt>
      <trkpt lat="44.11781" lon="3.1266">
        <ele>813.1</ele>
        <time>2019-04-19T12:15:01Z</time>
      </trkpt>
      <trkpt lat="44.11785" lon="3.12664">
        <ele>813.2</ele>
        <time>2019-04-19T12:15:02Z</time>
      </trkpt>
      <trkpt lat="44.11787" lon="3.1267">
        <ele>813.4</ele>
        <time>2019-04-19T12:15:03Z</time>
      </trkpt>
      <trkpt lat="44.11787" lon="3.12675">
        <ele>813.5</ele>
        <time>2019-04-19T12:15:04Z</time>
      </trkpt>
      <trkpt lat="44.11788" lon="3.12681">
        <ele>813.8</ele>
        <time>2019-04-19T12:15:06Z</time>
      </trkpt>
      <trkpt lat="44.11789" lon="3.12685">
        <ele>813.9</ele>
        <time>2019-04-19T12:15:07Z</time>
      </trkpt>
      <trkpt lat="44.1179" lon="3.1269">
        <ele>814.1</ele>
        <time>2019-04-19T12:15:08Z</time>
      </trkpt>
      <trkpt lat="44.11791" lon="3.12695">
        <ele>814.3</ele>
        <time>2019-04-19T12:15:09Z</time>
      </trkpt>
      <trkpt lat="44.11791" lon="3.12699">
        <ele>814.6</ele>
        <time>2019-04-19T12:15:10Z</time>
      </trkpt>
      <trkpt lat="44.11791" lon="3.12704">
        <ele>814.8</ele>
        <time>2019-04-19T12:15:11Z</time>
      </trkpt>
      <trkpt lat="44.11792" lon="3.12708">
        <ele>815.1</ele>
        <time>2019-04-19T12:15:12Z</time>
      </trkpt>
      <trkpt lat="44.11793" lon="3.12711">
        <ele>815.3</ele>
        <time>2019-04-19T12:15:13Z</time>
      </trkpt>
      <trkpt lat="44.11795" lon="3.12715">
        <ele>815.6</ele>
        <time>2019-04-19T12:15:14Z</time>
      </trkpt>
      <trkpt lat="44.11797" lon="3.12719">
        <ele>816</ele>
        <time>2019-04-19T12:15:15Z</time>
      </trkpt>
      <trkpt lat="44.118" lon="3.12723">
        <ele>816.3</ele>
        <time>2019-04-19T12:15:16Z</time>
      </trkpt>
      <trkpt lat="44.11802" lon="3.12727">
        <ele>816.7</ele>
        <time>2019-04-19T12:15:17Z</time>
      </trkpt>
      <trkpt lat="44.11803" lon="3.12732">
        <ele>817</ele>
        <time>2019-04-19T12:15:18Z</time>
      </trkpt>
      <trkpt lat="44.11805" lon="3.12736">
        <ele>817.4</ele>
        <time>2019-04-19T12:15:19Z</time>
      </trkpt>
      <trkpt lat="44.11808" lon="3.12741">
        <ele>817.9</ele>
        <time>2019-04-19T12:15:21Z</time>
      </trkpt>
      <trkpt lat="44.11811" lon="3.12744">
        <ele>818.2</ele>
        <time>2019-04-19T12:15:23Z</time>
      </trkpt>
      <trkpt lat="44.11813" lon="3.12748">
        <ele>818.4</ele>
        <time>2019-04-19T12:15:25Z</time>
      </trkpt>
      <trkpt lat="44.11814" lon="3.12752">
        <ele>818.7</ele>
        <time>2019-04-19T12:15:26Z</time>
      </trkpt>
      <trkpt lat="44.11816" lon="3.12757">
        <ele>819.1</ele>
        <time>2019-04-19T12:15:28Z</time>
      </trkpt>
      <trkpt lat="44.11819" lon="3.1276">
        <ele>819.4</ele>
        <time>2019-04-19T12:15:30Z</time>
      </trkpt>
      <trkpt lat="44.11822" lon="3.12763">
        <ele>819.7</ele>
        <time>2019-04-19T12:15:32Z</time>
      </trkpt>
      <trkpt lat="44.11826" lon="3.12766">
        <ele>820.1</ele>
        <time>2019-04-19T12:15:34Z</time>
      </trkpt>
      <trkpt lat="44.11829" lon="3.12767">
        <ele>820.4</ele>
        <time>2019-04-19T12:15:36Z</time>
      </trkpt>
      <trkpt lat="44.11833" lon="3.12768">
        <ele>820.7</ele>
        <time>2019-04-19T12:15:38Z</time>
      </trkpt>
      <trkpt lat="44.11836" lon="3.12769">
        <ele>821</ele>
        <time>2019-04-19T12:15:40Z</time>
      </trkpt>
      <trkpt lat="44.11839" lon="3.12774">
        <ele>821.4</ele>
        <time>2019-04-19T12:15:42Z</time>
      </trkpt>
      <trkpt lat="44.11841" lon="3.12778">
        <ele>821.7</ele>
        <time>2019-04-19T12:15:43Z</time>
      </trkpt>
      <trkpt lat="44.11842" lon="3.12782">
        <ele>822</ele>
        <time>2019-04-19T12:15:44Z</time>
      </trkpt>
      <trkpt lat="44.11845" lon="3.12787">
        <ele>822.7</ele>
        <time>2019-04-19T12:15:46Z</time>
      </trkpt>
      <trkpt lat="44.11848" lon="3.12789">
        <ele>822.4</ele>
        <time>2019-04-19T12:15:47Z</time>
      </trkpt>
      <trkpt lat="44.1185" lon="3.12791">
        <ele>822.2</ele>
        <time>2019-04-19T12:15:49Z</time>
      </trkpt>
      <trkpt lat="44.11851" lon="3.12795">
        <ele>821.8</ele>
        <time>2019-04-19T12:15:51Z</time>
      </trkpt>
      <trkpt lat="44.11853" lon="3.12802">
        <ele>821.3</ele>
        <time>2019-04-19T12:15:53Z</time>
      </trkpt>
      <trkpt lat="44.11853" lon="3.12809">
        <ele>820.6</ele>
        <time>2019-04-19T12:15:55Z</time>
      </trkpt>
      <trkpt lat="44.11854" lon="3.12814">
        <ele>820.2</ele>
        <time>2019-04-19T12:15:56Z</time>
      </trkpt>
      <trkpt lat="44.11854" lon="3.12819">
        <ele>819.7</ele>
        <time>2019-04-19T12:15:57Z</time>
      </trkpt>
      <trkpt lat="44.11854" lon="3.12824">
        <ele>819.2</ele>
        <time>2019-04-19T12:15:58Z</time>
      </trkpt>
      <trkpt lat="44.11854" lon="3.12829">
        <ele>818.8</ele>
        <time>2019-04-19T12:15:59Z</time>
      </trkpt>
      <trkpt lat="44.11855" lon="3.12836">
        <ele>818.3</ele>
        <time>2019-04-19T12:16:00Z</time>
      </trkpt>
      <trkpt lat="44.11855" lon="3.12843">
        <ele>817.8</ele>
        <time>2019-04-19T12:16:01Z</time>
      </trkpt>
      <trkpt lat="44.11856" lon="3.12859">
        <ele>816.6</ele>
        <time>2019-04-19T12:16:02Z</time>
      </trkpt>
      <trkpt lat="44.11854" lon="3.12864">
        <ele>816.1</ele>
        <time>2019-04-19T12:16:03Z</time>
      </trkpt>
      <trkpt lat="44.11853" lon="3.12873">
        <ele>815.1</ele>
        <time>2019-04-19T12:16:04Z</time>
      </trkpt>
      <trkpt lat="44.11851" lon="3.12877">
        <ele>814.6</ele>
        <time>2019-04-19T12:16:05Z</time>
      </trkpt>
      <trkpt lat="44.1185" lon="3.12886">
        <ele>813.4</ele>
        <time>2019-04-19T12:16:06Z</time>
      </trkpt>
      <trkpt lat="44.11848" lon="3.12892">
        <ele>812.5</ele>
        <time>2019-04-19T12:16:07Z</time>
      </trkpt>
      <trkpt lat="44.11845" lon="3.12898">
        <ele>811.5</ele>
        <time>2019-04-19T12:16:08Z</time>
      </trkpt>
      <trkpt lat="44.11843" lon="3.12903">
        <ele>810.7</ele>
        <time>2019-04-19T12:16:09Z</time>
      </trkpt>
      <trkpt lat="44.11843" lon="3.12913">
        <ele>809.6</ele>
        <time>2019-04-19T12:16:10Z</time>
      </trkpt>
      <trkpt lat="44.11841" lon="3.12916">
        <ele>809</ele>
        <time>2019-04-19T12:16:11Z</time>
      </trkpt>
      <trkpt lat="44.11839" lon="3.12922">
        <ele>808.2</ele>
        <time>2019-04-19T12:16:13Z</time>
      </trkpt>
      <trkpt lat="44.11836" lon="3.12929">
        <ele>807.5</ele>
        <time>2019-04-19T12:16:14Z</time>
      </trkpt>
      <trkpt lat="44.11834" lon="3.12934">
        <ele>807.2</ele>
        <time>2019-04-19T12:16:15Z</time>
      </trkpt>
      <trkpt lat="44.1183" lon="3.12935">
        <ele>807</ele>
        <time>2019-04-19T12:16:16Z</time>
      </trkpt>
      <trkpt lat="44.11826" lon="3.12938">
        <ele>806.9</ele>
        <time>2019-04-19T12:16:17Z</time>
      </trkpt>
      <trkpt lat="44.11823" lon="3.12941">
        <ele>806.9</ele>
        <time>2019-04-19T12:16:19Z</time>
      </trkpt>
      <trkpt lat="44.11822" lon="3.12947">
        <ele>807</ele>
        <time>2019-04-19T12:16:21Z</time>
      </trkpt>
      <trkpt lat="44.11819" lon="3.12948">
        <ele>807.1</ele>
        <time>2019-04-19T12:16:22Z</time>
      </trkpt>
      <trkpt lat="44.11816" lon="3.12951">
        <ele>807.3</ele>
        <time>2019-04-19T12:16:24Z</time>
      </trkpt>
      <trkpt lat="44.11816" lon="3.12956">
        <ele>807.4</ele>
        <time>2019-04-19T12:16:25Z</time>
      </trkpt>
      <trkpt lat="44.11817" lon="3.1296">
        <ele>807.6</ele>
        <time>2019-04-19T12:16:26Z</time>
      </trkpt>
      <trkpt lat="44.11814" lon="3.12965">
        <ele>807.8</ele>
        <time>2019-04-19T12:16:28Z</time>
      </trkpt>
      <trkpt lat="44.11811" lon="3.12969">
        <ele>807.9</ele>
        <time>2019-04-19T12:16:30Z</time>
      </trkpt>
      <trkpt lat="44.11809" lon="3.12972">
        <ele>808</ele>
        <time>2019-04-19T12:16:31Z</time>
      </trkpt>
      <trkpt lat="44.11808" lon="3.12976">
        <ele>808.1</ele>
        <time>2019-04-19T12:16:32Z</time>
      </trkpt>
      <trkpt lat="44.11805" lon="3.12981">
        <ele>808.1</ele>
        <time>2019-04-19T12:16:33Z</time>
      </trkpt>
      <trkpt lat="44.11803" lon="3.12985">
        <ele>808.1</ele>
        <time>2019-04-19T12:16:34Z</time>
      </trkpt>
      <trkpt lat="44.11801" lon="3.12989">
        <ele>808.1</ele>
        <time>2019-04-19T12:16:35Z</time>
      </trkpt>
      <trkpt lat="44.11798" lon="3.12993">
        <ele>808.1</ele>
        <time>2019-04-19T12:16:36Z</time>
      </trkpt>
      <trkpt lat="44.11796" lon="3.12996">
        <ele>808</ele>
        <time>2019-04-19T12:16:37Z</time>
      </trkpt>
      <trkpt lat="44.11792" lon="3.13001">
        <ele>807.9</ele>
        <time>2019-04-19T12:16:38Z</time>
      </trkpt>
      <trkpt lat="44.11789" lon="3.13007">
        <ele>807.6</ele>
        <time>2019-04-19T12:16:39Z</time>
      </trkpt>
      <trkpt lat="44.11783" lon="3.13017">
        <ele>807.1</ele>
        <time>2019-04-19T12:16:40Z</time>
      </trkpt>
      <trkpt lat="44.11779" lon="3.13023">
        <ele>806.8</ele>
        <time>2019-04-19T12:16:41Z</time>
      </trkpt>
      <trkpt lat="44.11776" lon="3.13029">
        <ele>806.5</ele>
        <time>2019-04-19T12:16:42Z</time>
      </trkpt>
      <trkpt lat="44.11772" lon="3.13036">
        <ele>806.2</ele>
        <time>2019-04-19T12:16:43Z</time>
      </trkpt>
      <trkpt lat="44.11769" lon="3.13041">
        <ele>806</ele>
        <time>2019-04-19T12:16:44Z</time>
      </trkpt>
      <trkpt lat="44.11767" lon="3.13046">
        <ele>805.9</ele>
        <time>2019-04-19T12:16:45Z</time>
      </trkpt>
      <trkpt lat="44.11763" lon="3.1305">
        <ele>805.8</ele>
        <time>2019-04-19T12:16:46Z</time>
      </trkpt>
      <trkpt lat="44.11758" lon="3.13063">
        <ele>805.6</ele>
        <time>2019-04-19T12:16:47Z</time>
      </trkpt>
      <trkpt lat="44.11753" lon="3.13068">
        <ele>805.5</ele>
        <time>2019-04-19T12:16:48Z</time>
      </trkpt>
      <trkpt lat="44.11749" lon="3.13071">
        <ele>805.5</ele>
        <time>2019-04-19T12:16:49Z</time>
      </trkpt>
      <trkpt lat="44.11747" lon="3.13074">
        <ele>805.5</ele>
        <time>2019-04-19T12:16:51Z</time>
      </trkpt>
      <trkpt lat="44.11746" lon="3.13078">
        <ele>805.5</ele>
        <time>2019-04-19T12:16:53Z</time>
      </trkpt>
      <trkpt lat="44.11745" lon="3.13086">
        <ele>805.5</ele>
        <time>2019-04-19T12:16:57Z</time>
      </trkpt>
      <trkpt lat="44.11744" lon="3.13091">
        <ele>805.5</ele>
        <time>2019-04-19T12:16:59Z</time>
      </trkpt>
      <trkpt lat="44.11744" lon="3.13098">
        <ele>805.9</ele>
        <time>2019-04-19T12:17:01Z</time>
      </trkpt>
      <trkpt lat="44.11741" lon="3.13103">
        <ele>806.1</ele>
        <time>2019-04-19T12:17:03Z</time>
      </trkpt>
      <trkpt lat="44.11741" lon="3.13109">
        <ele>806.4</ele>
        <time>2019-04-19T12:17:05Z</time>
      </trkpt>
      <trkpt lat="44.11739" lon="3.13117">
        <ele>806.6</ele>
        <time>2019-04-19T12:17:07Z</time>
      </trkpt>
      <trkpt lat="44.11738" lon="3.13121">
        <ele>806.7</ele>
        <time>2019-04-19T12:17:08Z</time>
      </trkpt>
      <trkpt lat="44.11736" lon="3.13125">
        <ele>806.8</ele>
        <time>2019-04-19T12:17:09Z</time>
      </trkpt>
      <trkpt lat="44.11734" lon="3.13129">
        <ele>806.9</ele>
        <time>2019-04-19T12:17:10Z</time>
      </trkpt>
      <trkpt lat="44.11732" lon="3.13132">
        <ele>807</ele>
        <time>2019-04-19T12:17:11Z</time>
      </trkpt>
      <trkpt lat="44.1173" lon="3.13135">
        <ele>807.1</ele>
        <time>2019-04-19T12:17:12Z</time>
      </trkpt>
      <trkpt lat="44.11728" lon="3.1314">
        <ele>807.2</ele>
        <time>2019-04-19T12:17:13Z</time>
      </trkpt>
      <trkpt lat="44.11726" lon="3.13146">
        <ele>807.3</ele>
        <time>2019-04-19T12:17:14Z</time>
      </trkpt>
      <trkpt lat="44.11725" lon="3.1315">
        <ele>807.4</ele>
        <time>2019-04-19T12:17:15Z</time>
      </trkpt>
      <trkpt lat="44.11722" lon="3.13155">
        <ele>807.6</ele>
        <time>2019-04-19T12:17:17Z</time>
      </trkpt>
      <trkpt lat="44.11721" lon="3.13159">
        <ele>807.7</ele>
        <time>2019-04-19T12:17:18Z</time>
      </trkpt>
      <trkpt lat="44.1172" lon="3.13162">
        <ele>807.9</ele>
        <time>2019-04-19T12:17:19Z</time>
      </trkpt>
      <trkpt lat="44.11719" lon="3.13166">
        <ele>808.1</ele>
        <time>2019-04-19T12:17:20Z</time>
      </trkpt>
      <trkpt lat="44.11718" lon="3.13171">
        <ele>808.3</ele>
        <time>2019-04-19T12:17:21Z</time>
      </trkpt>
      <trkpt lat="44.11717" lon="3.13175">
        <ele>808.6</ele>
        <time>2019-04-19T12:17:22Z</time>
      </trkpt>
      <trkpt lat="44.11717" lon="3.13179">
        <ele>808.8</ele>
        <time>2019-04-19T12:17:23Z</time>
      </trkpt>
      <trkpt lat="44.11717" lon="3.13183">
        <ele>809.1</ele>
        <time>2019-04-19T12:17:24Z</time>
      </trkpt>
      <trkpt lat="44.11717" lon="3.13187">
        <ele>809.3</ele>
        <time>2019-04-19T12:17:25Z</time>
      </trkpt>
      <trkpt lat="44.11717" lon="3.13193">
        <ele>809.7</ele>
        <time>2019-04-19T12:17:27Z</time>
      </trkpt>
      <trkpt lat="44.11717" lon="3.13198">
        <ele>810</ele>
        <time>2019-04-19T12:17:29Z</time>
      </trkpt>
      <trkpt lat="44.11718" lon="3.13205">
        <ele>810.4</ele>
        <time>2019-04-19T12:17:31Z</time>
      </trkpt>
      <trkpt lat="44.11718" lon="3.13209">
        <ele>810.7</ele>
        <time>2019-04-19T12:17:32Z</time>
      </trkpt>
      <trkpt lat="44.1172" lon="3.13215">
        <ele>811</ele>
        <time>2019-04-19T12:17:34Z</time>
      </trkpt>
      <trkpt lat="44.11721" lon="3.13219">
        <ele>811.2</ele>
        <time>2019-04-19T12:17:35Z</time>
      </trkpt>
      <trkpt lat="44.11722" lon="3.13224">
        <ele>811.4</ele>
        <time>2019-04-19T12:17:36Z</time>
      </trkpt>
      <trkpt lat="44.11724" lon="3.13228">
        <ele>811.5</ele>
        <time>2019-04-19T12:17:37Z</time>
      </trkpt>
      <trkpt lat="44.11724" lon="3.13232">
        <ele>811.7</ele>
        <time>2019-04-19T12:17:38Z</time>
      </trkpt>
      <trkpt lat="44.11725" lon="3.1324">
        <ele>811.8</ele>
        <time>2019-04-19T12:17:40Z</time>
      </trkpt>
      <trkpt lat="44.11726" lon="3.13244">
        <ele>811.9</ele>
        <time>2019-04-19T12:17:41Z</time>
      </trkpt>
      <trkpt lat="44.11726" lon="3.1325">
        <ele>812</ele>
        <time>2019-04-19T12:17:42Z</time>
      </trkpt>
      <trkpt lat="44.11726" lon="3.13255">
        <ele>812</ele>
        <time>2019-04-19T12:17:43Z</time>
      </trkpt>
      <trkpt lat="44.11726" lon="3.1326">
        <ele>812.1</ele>
        <time>2019-04-19T12:17:44Z</time>
      </trkpt>
      <trkpt lat="44.11727" lon="3.13264">
        <ele>812.2</ele>
        <time>2019-04-19T12:17:45Z</time>
      </trkpt>
      <trkpt lat="44.11727" lon="3.13268">
        <ele>812.2</ele>
        <time>2019-04-19T12:17:46Z</time>
      </trkpt>
      <trkpt lat="44.11727" lon="3.13273">
        <ele>812.4</ele>
        <time>2019-04-19T12:17:48Z</time>
      </trkpt>
      <trkpt lat="44.11727" lon="3.13279">
        <ele>812.5</ele>
        <time>2019-04-19T12:17:50Z</time>
      </trkpt>
      <trkpt lat="44.11728" lon="3.13283">
        <ele>812.7</ele>
        <time>2019-04-19T12:17:51Z</time>
      </trkpt>
      <trkpt lat="44.11729" lon="3.13286">
        <ele>812.8</ele>
        <time>2019-04-19T12:17:52Z</time>
      </trkpt>
      <trkpt lat="44.11731" lon="3.1329">
        <ele>813</ele>
        <time>2019-04-19T12:17:53Z</time>
      </trkpt>
      <trkpt lat="44.11733" lon="3.13292">
        <ele>813.3</ele>
        <time>2019-04-19T12:17:54Z</time>
      </trkpt>
      <trkpt lat="44.11737" lon="3.13297">
        <ele>813.7</ele>
        <time>2019-04-19T12:17:56Z</time>
      </trkpt>
      <trkpt lat="44.11741" lon="3.133">
        <ele>814.3</ele>
        <time>2019-04-19T12:17:58Z</time>
      </trkpt>
      <trkpt lat="44.11745" lon="3.13304">
        <ele>814.9</ele>
        <time>2019-04-19T12:18:00Z</time>
      </trkpt>
      <trkpt lat="44.1175" lon="3.13306">
        <ele>815.4</ele>
        <time>2019-04-19T12:18:02Z</time>
      </trkpt>
      <trkpt lat="44.11753" lon="3.13307">
        <ele>815.8</ele>
        <time>2019-04-19T12:18:04Z</time>
      </trkpt>
      <trkpt lat="44.11756" lon="3.13309">
        <ele>816.2</ele>
        <time>2019-04-19T12:18:06Z</time>
      </trkpt>
      <trkpt lat="44.11759" lon="3.13312">
        <ele>816.7</ele>
        <time>2019-04-19T12:18:09Z</time>
      </trkpt>
      <trkpt lat="44.11762" lon="3.13316">
        <ele>817.1</ele>
        <time>2019-04-19T12:18:13Z</time>
      </trkpt>
      <trkpt lat="44.11766" lon="3.13316">
        <ele>817.5</ele>
        <time>2019-04-19T12:18:16Z</time>
      </trkpt>
      <trkpt lat="44.11769" lon="3.13317">
        <ele>817.7</ele>
        <time>2019-04-19T12:18:18Z</time>
      </trkpt>
      <trkpt lat="44.11774" lon="3.13321">
        <ele>818.1</ele>
        <time>2019-04-19T12:18:20Z</time>
      </trkpt>
      <trkpt lat="44.11778" lon="3.13323">
        <ele>818.4</ele>
        <time>2019-04-19T12:18:22Z</time>
      </trkpt>
      <trkpt lat="44.11781" lon="3.13324">
        <ele>818.6</ele>
        <time>2019-04-19T12:18:23Z</time>
      </trkpt>
      <trkpt lat="44.11784" lon="3.13327">
        <ele>818.8</ele>
        <time>2019-04-19T12:18:24Z</time>
      </trkpt>
      <trkpt lat="44.11786" lon="3.13329">
        <ele>818.9</ele>
        <time>2019-04-19T12:18:25Z</time>
      </trkpt>
      <trkpt lat="44.11788" lon="3.13332">
        <ele>819</ele>
        <time>2019-04-19T12:18:26Z</time>
      </trkpt>
      <trkpt lat="44.1179" lon="3.13334">
        <ele>819.1</ele>
        <time>2019-04-19T12:18:28Z</time>
      </trkpt>
      <trkpt lat="44.11793" lon="3.13333">
        <ele>819.1</ele>
        <time>2019-04-19T12:18:35Z</time>
      </trkpt>
      <trkpt lat="44.118" lon="3.13336">
        <ele>819.2</ele>
        <time>2019-04-19T12:19:18Z</time>
      </trkpt>
      <trkpt lat="44.11803" lon="3.13338">
        <ele>819.2</ele>
        <time>2019-04-19T12:19:20Z</time>
      </trkpt>
      <trkpt lat="44.11807" lon="3.13341">
        <ele>819.2</ele>
        <time>2019-04-19T12:19:22Z</time>
      </trkpt>
      <trkpt lat="44.1181" lon="3.13341">
        <ele>819.3</ele>
        <time>2019-04-19T12:19:23Z</time>
      </trkpt>
      <trkpt lat="44.11814" lon="3.13341">
        <ele>819.5</ele>
        <time>2019-04-19T12:19:24Z</time>
      </trkpt>
      <trkpt lat="44.11817" lon="3.1334">
        <ele>819.6</ele>
        <time>2019-04-19T12:19:25Z</time>
      </trkpt>
      <trkpt lat="44.1182" lon="3.1334">
        <ele>819.8</ele>
        <time>2019-04-19T12:19:26Z</time>
      </trkpt>
      <trkpt lat="44.11824" lon="3.13339">
        <ele>820</ele>
        <time>2019-04-19T12:19:28Z</time>
      </trkpt>
      <trkpt lat="44.11828" lon="3.1334">
        <ele>820.3</ele>
        <time>2019-04-19T12:19:32Z</time>
      </trkpt>
      <trkpt lat="44.11833" lon="3.13342">
        <ele>820.5</ele>
        <time>2019-04-19T12:19:34Z</time>
      </trkpt>
      <trkpt lat="44.11837" lon="3.13344">
        <ele>820.8</ele>
        <time>2019-04-19T12:19:36Z</time>
      </trkpt>
      <trkpt lat="44.1184" lon="3.13346">
        <ele>821</ele>
        <time>2019-04-19T12:19:38Z</time>
      </trkpt>
      <trkpt lat="44.11843" lon="3.13349">
        <ele>821.3</ele>
        <time>2019-04-19T12:19:40Z</time>
      </trkpt>
      <trkpt lat="44.11846" lon="3.13355">
        <ele>821.6</ele>
        <time>2019-04-19T12:19:42Z</time>
      </trkpt>
      <trkpt lat="44.11849" lon="3.13359">
        <ele>821.9</ele>
        <time>2019-04-19T12:19:44Z</time>
      </trkpt>
      <trkpt lat="44.11852" lon="3.13362">
        <ele>822.1</ele>
        <time>2019-04-19T12:19:45Z</time>
      </trkpt>
      <trkpt lat="44.11854" lon="3.13364">
        <ele>822.2</ele>
        <time>2019-04-19T12:19:46Z</time>
      </trkpt>
      <trkpt lat="44.11856" lon="3.13367">
        <ele>822.3</ele>
        <time>2019-04-19T12:19:47Z</time>
      </trkpt>
      <trkpt lat="44.11859" lon="3.13372">
        <ele>822.5</ele>
        <time>2019-04-19T12:19:49Z</time>
      </trkpt>
      <trkpt lat="44.11861" lon="3.13375">
        <ele>822.6</ele>
        <time>2019-04-19T12:19:50Z</time>
      </trkpt>
      <trkpt lat="44.11864" lon="3.13379">
        <ele>822.7</ele>
        <time>2019-04-19T12:19:51Z</time>
      </trkpt>
      <trkpt lat="44.11867" lon="3.13382">
        <ele>822.7</ele>
        <time>2019-04-19T12:19:52Z</time>
      </trkpt>
      <trkpt lat="44.11871" lon="3.13384">
        <ele>822.6</ele>
        <time>2019-04-19T12:19:53Z</time>
      </trkpt>
      <trkpt lat="44.11876" lon="3.13386">
        <ele>822.5</ele>
        <time>2019-04-19T12:19:54Z</time>
      </trkpt>
      <trkpt lat="44.11881" lon="3.13389">
        <ele>822.2</ele>
        <time>2019-04-19T12:19:55Z</time>
      </trkpt>
      <trkpt lat="44.11885" lon="3.13392">
        <ele>821.9</ele>
        <time>2019-04-19T12:19:56Z</time>
      </trkpt>
      <trkpt lat="44.11889" lon="3.13396">
        <ele>821.6</ele>
        <time>2019-04-19T12:19:57Z</time>
      </trkpt>
      <trkpt lat="44.11893" lon="3.13401">
        <ele>821.2</ele>
        <time>2019-04-19T12:19:58Z</time>
      </trkpt>
      <trkpt lat="44.11896" lon="3.13406">
        <ele>820.7</ele>
        <time>2019-04-19T12:19:59Z</time>
      </trkpt>
      <trkpt lat="44.11899" lon="3.13411">
        <ele>820.3</ele>
        <time>2019-04-19T12:20:00Z</time>
      </trkpt>
      <trkpt lat="44.11901" lon="3.13415">
        <ele>819.9</ele>
        <time>2019-04-19T12:20:01Z</time>
      </trkpt>
      <trkpt lat="44.11901" lon="3.13421">
        <ele>819.5</ele>
        <time>2019-04-19T12:20:02Z</time>
      </trkpt>
      <trkpt lat="44.11902" lon="3.13426">
        <ele>819</ele>
        <time>2019-04-19T12:20:03Z</time>
      </trkpt>
      <trkpt lat="44.11903" lon="3.13432">
        <ele>818.5</ele>
        <time>2019-04-19T12:20:04Z</time>
      </trkpt>
      <trkpt lat="44.11905" lon="3.13437">
        <ele>817.8</ele>
        <time>2019-04-19T12:20:05Z</time>
      </trkpt>
      <trkpt lat="44.11907" lon="3.13441">
        <ele>817.2</ele>
        <time>2019-04-19T12:20:06Z</time>
      </trkpt>
      <trkpt lat="44.11909" lon="3.13444">
        <ele>816.7</ele>
        <time>2019-04-19T12:20:07Z</time>
      </trkpt>
      <trkpt lat="44.11912" lon="3.13447">
        <ele>816.2</ele>
        <time>2019-04-19T12:20:08Z</time>
      </trkpt>
      <trkpt lat="44.11915" lon="3.1345">
        <ele>815.6</ele>
        <time>2019-04-19T12:20:09Z</time>
      </trkpt>
      <trkpt lat="44.11918" lon="3.13453">
        <ele>815.1</ele>
        <time>2019-04-19T12:20:10Z</time>
      </trkpt>
      <trkpt lat="44.11921" lon="3.13455">
        <ele>814.7</ele>
        <time>2019-04-19T12:20:11Z</time>
      </trkpt>
      <trkpt lat="44.11926" lon="3.13458">
        <ele>814.1</ele>
        <time>2019-04-19T12:20:13Z</time>
      </trkpt>
      <trkpt lat="44.1193" lon="3.13458">
        <ele>813.6</ele>
        <time>2019-04-19T12:20:14Z</time>
      </trkpt>
      <trkpt lat="44.11934" lon="3.13458">
        <ele>813.2</ele>
        <time>2019-04-19T12:20:15Z</time>
      </trkpt>
      <trkpt lat="44.11939" lon="3.13458">
        <ele>812.8</ele>
        <time>2019-04-19T12:20:16Z</time>
      </trkpt>
      <trkpt lat="44.11943" lon="3.13458">
        <ele>812.6</ele>
        <time>2019-04-19T12:20:17Z</time>
      </trkpt>
      <trkpt lat="44.11946" lon="3.13461">
        <ele>812.4</ele>
        <time>2019-04-19T12:20:18Z</time>
      </trkpt>
      <trkpt lat="44.11948" lon="3.13463">
        <ele>812.2</ele>
        <time>2019-04-19T12:20:19Z</time>
      </trkpt>
      <trkpt lat="44.1195" lon="3.13467">
        <ele>812</ele>
        <time>2019-04-19T12:20:20Z</time>
      </trkpt>
      <trkpt lat="44.11953" lon="3.13473">
        <ele>811.7</ele>
        <time>2019-04-19T12:20:21Z</time>
      </trkpt>
      <trkpt lat="44.1196" lon="3.13484">
        <ele>811</ele>
        <time>2019-04-19T12:20:22Z</time>
      </trkpt>
      <trkpt lat="44.11961" lon="3.1349">
        <ele>810.6</ele>
        <time>2019-04-19T12:20:23Z</time>
      </trkpt>
      <trkpt lat="44.11967" lon="3.13501">
        <ele>809.4</ele>
        <time>2019-04-19T12:20:24Z</time>
      </trkpt>
      <trkpt lat="44.11971" lon="3.13507">
        <ele>808.5</ele>
        <time>2019-04-19T12:20:25Z</time>
      </trkpt>
      <trkpt lat="44.11974" lon="3.13515">
        <ele>807.6</ele>
        <time>2019-04-19T12:20:26Z</time>
      </trkpt>
      <trkpt lat="44.11976" lon="3.1352">
        <ele>806.8</ele>
        <time>2019-04-19T12:20:27Z</time>
      </trkpt>
      <trkpt lat="44.11978" lon="3.13526">
        <ele>805.9</ele>
        <time>2019-04-19T12:20:28Z</time>
      </trkpt>
      <trkpt lat="44.11981" lon="3.13529">
        <ele>805.2</ele>
        <time>2019-04-19T12:20:29Z</time>
      </trkpt>
      <trkpt lat="44.11983" lon="3.13534">
        <ele>804.4</ele>
        <time>2019-04-19T12:20:31Z</time>
      </trkpt>
      <trkpt lat="44.11985" lon="3.13537">
        <ele>803.8</ele>
        <time>2019-04-19T12:20:32Z</time>
      </trkpt>
      <trkpt lat="44.11988" lon="3.13541">
        <ele>803</ele>
        <time>2019-04-19T12:20:33Z</time>
      </trkpt>
      <trkpt lat="44.11992" lon="3.13544">
        <ele>802.4</ele>
        <time>2019-04-19T12:20:34Z</time>
      </trkpt>
      <trkpt lat="44.1199" lon="3.13551">
        <ele>801.7</ele>
        <time>2019-04-19T12:20:36Z</time>
      </trkpt>
      <trkpt lat="44.1199" lon="3.13556">
        <ele>801.1</ele>
        <time>2019-04-19T12:20:37Z</time>
      </trkpt>
      <trkpt lat="44.11989" lon="3.13561">
        <ele>800.5</ele>
        <time>2019-04-19T12:20:38Z</time>
      </trkpt>
      <trkpt lat="44.11992" lon="3.13572">
        <ele>799.3</ele>
        <time>2019-04-19T12:20:39Z</time>
      </trkpt>
      <trkpt lat="44.11992" lon="3.13577">
        <ele>798.8</ele>
        <time>2019-04-19T12:20:40Z</time>
      </trkpt>
      <trkpt lat="44.11989" lon="3.13586">
        <ele>797.6</ele>
        <time>2019-04-19T12:20:41Z</time>
      </trkpt>
      <trkpt lat="44.11987" lon="3.13593">
        <ele>796.7</ele>
        <time>2019-04-19T12:20:42Z</time>
      </trkpt>
      <trkpt lat="44.11986" lon="3.13601">
        <ele>795.7</ele>
        <time>2019-04-19T12:20:43Z</time>
      </trkpt>
      <trkpt lat="44.11985" lon="3.13611">
        <ele>794.5</ele>
        <time>2019-04-19T12:20:45Z</time>
      </trkpt>
      <trkpt lat="44.11986" lon="3.13615">
        <ele>793.9</ele>
        <time>2019-04-19T12:20:46Z</time>
      </trkpt>
      <trkpt lat="44.11987" lon="3.13623">
        <ele>793</ele>
        <time>2019-04-19T12:20:47Z</time>
      </trkpt>
      <trkpt lat="44.11993" lon="3.13632">
        <ele>791.7</ele>
        <time>2019-04-19T12:20:48Z</time>
      </trkpt>
      <trkpt lat="44.11994" lon="3.13638">
        <ele>791.1</ele>
        <time>2019-04-19T12:20:49Z</time>
      </trkpt>
      <trkpt lat="44.11996" lon="3.13646">
        <ele>790.4</ele>
        <time>2019-04-19T12:20:50Z</time>
      </trkpt>
      <trkpt lat="44.11997" lon="3.1365">
        <ele>790</ele>
        <time>2019-04-19T12:20:51Z</time>
      </trkpt>
      <trkpt lat="44.11998" lon="3.13657">
        <ele>789.3</ele>
        <time>2019-04-19T12:20:52Z</time>
      </trkpt>
      <trkpt lat="44.12001" lon="3.13664">
        <ele>788.8</ele>
        <time>2019-04-19T12:20:53Z</time>
      </trkpt>
      <trkpt lat="44.12001" lon="3.1367">
        <ele>788.4</ele>
        <time>2019-04-19T12:20:54Z</time>
      </trkpt>
      <trkpt lat="44.12005" lon="3.13679">
        <ele>787.6</ele>
        <time>2019-04-19T12:20:55Z</time>
      </trkpt>
      <trkpt lat="44.12006" lon="3.13684">
        <ele>787.2</ele>
        <time>2019-04-19T12:20:56Z</time>
      </trkpt>
      <trkpt lat="44.12009" lon="3.13688">
        <ele>786.7</ele>
        <time>2019-04-19T12:20:57Z</time>
      </trkpt>
      <trkpt lat="44.12014" lon="3.13692">
        <ele>786.1</ele>
        <time>2019-04-19T12:20:58Z</time>
      </trkpt>
      <trkpt lat="44.12016" lon="3.13697">
        <ele>785.7</ele>
        <time>2019-04-19T12:20:59Z</time>
      </trkpt>
      <trkpt lat="44.12019" lon="3.13701">
        <ele>785.3</ele>
        <time>2019-04-19T12:21:00Z</time>
      </trkpt>
      <trkpt lat="44.12021" lon="3.13704">
        <ele>785</ele>
        <time>2019-04-19T12:21:01Z</time>
      </trkpt>
      <trkpt lat="44.12023" lon="3.13707">
        <ele>784.8</ele>
        <time>2019-04-19T12:21:02Z</time>
      </trkpt>
      <trkpt lat="44.12025" lon="3.1371">
        <ele>784.5</ele>
        <time>2019-04-19T12:21:03Z</time>
      </trkpt>
      <trkpt lat="44.12027" lon="3.13714">
        <ele>784.3</ele>
        <time>2019-04-19T12:21:14Z</time>
      </trkpt>
      <trkpt lat="44.12029" lon="3.13718">
        <ele>784</ele>
        <time>2019-04-19T12:21:15Z</time>
      </trkpt>
      <trkpt lat="44.12033" lon="3.13729">
        <ele>783.5</ele>
        <time>2019-04-19T12:21:16Z</time>
      </trkpt>
      <trkpt lat="44.12036" lon="3.13736">
        <ele>783.1</ele>
        <time>2019-04-19T12:21:17Z</time>
      </trkpt>
      <trkpt lat="44.1204" lon="3.13744">
        <ele>782.7</ele>
        <time>2019-04-19T12:21:18Z</time>
      </trkpt>
      <trkpt lat="44.12042" lon="3.1375">
        <ele>782.3</ele>
        <time>2019-04-19T12:21:19Z</time>
      </trkpt>
      <trkpt lat="44.12043" lon="3.13755">
        <ele>782</ele>
        <time>2019-04-19T12:21:20Z</time>
      </trkpt>
      <trkpt lat="44.12046" lon="3.13761">
        <ele>781.3</ele>
        <time>2019-04-19T12:21:21Z</time>
      </trkpt>
      <trkpt lat="44.12049" lon="3.13767">
        <ele>780.7</ele>
        <time>2019-04-19T12:21:22Z</time>
      </trkpt>
      <trkpt lat="44.12051" lon="3.13772">
        <ele>780.1</ele>
        <time>2019-04-19T12:21:23Z</time>
      </trkpt>
      <trkpt lat="44.12054" lon="3.13778">
        <ele>779.4</ele>
        <time>2019-04-19T12:21:24Z</time>
      </trkpt>
      <trkpt lat="44.12055" lon="3.13782">
        <ele>779</ele>
        <time>2019-04-19T12:21:25Z</time>
      </trkpt>
      <trkpt lat="44.12051" lon="3.13777">
        <ele>778.3</ele>
        <time>2019-04-19T12:21:54Z</time>
      </trkpt>
      <trkpt lat="44.12055" lon="3.1377">
        <ele>777.6</ele>
        <time>2019-04-19T12:23:06Z</time>
      </trkpt>
      <trkpt lat="44.12055" lon="3.13766">
        <ele>778.4</ele>
        <time>2019-04-19T12:23:09Z</time>
      </trkpt>
      <trkpt lat="44.12059" lon="3.13765">
        <ele>779.3</ele>
        <time>2019-04-19T12:23:12Z</time>
      </trkpt>
      <trkpt lat="44.12062" lon="3.13766">
        <ele>780.2</ele>
        <time>2019-04-19T12:23:14Z</time>
      </trkpt>
      <trkpt lat="44.12065" lon="3.13765">
        <ele>781.8</ele>
        <time>2019-04-19T12:23:17Z</time>
      </trkpt>
      <trkpt lat="44.12069" lon="3.13762">
        <ele>783.1</ele>
        <time>2019-04-19T12:23:20Z</time>
      </trkpt>
      <trkpt lat="44.12072" lon="3.1376">
        <ele>783.8</ele>
        <time>2019-04-19T12:23:23Z</time>
      </trkpt>
      <trkpt lat="44.12071" lon="3.13756">
        <ele>783.9</ele>
        <time>2019-04-19T12:23:33Z</time>
      </trkpt>
      <trkpt lat="44.12073" lon="3.13754">
        <ele>784.6</ele>
        <time>2019-04-19T12:24:15Z</time>
      </trkpt>
      <trkpt lat="44.12077" lon="3.13753">
        <ele>785.9</ele>
        <time>2019-04-19T12:24:17Z</time>
      </trkpt>
      <trkpt lat="44.12081" lon="3.13751">
        <ele>787.1</ele>
        <time>2019-04-19T12:24:19Z</time>
      </trkpt>
      <trkpt lat="44.12084" lon="3.13747">
        <ele>788.4</ele>
        <time>2019-04-19T12:24:23Z</time>
      </trkpt>
      <trkpt lat="44.12086" lon="3.13744">
        <ele>789.2</ele>
        <time>2019-04-19T12:24:26Z</time>
      </trkpt>
      <trkpt lat="44.12089" lon="3.13743">
        <ele>789.8</ele>
        <time>2019-04-19T12:24:28Z</time>
      </trkpt>
      <trkpt lat="44.12093" lon="3.13742">
        <ele>790.4</ele>
        <time>2019-04-19T12:24:30Z</time>
      </trkpt>
      <trkpt lat="44.12096" lon="3.13743">
        <ele>790.9</ele>
        <time>2019-04-19T12:24:32Z</time>
      </trkpt>
      <trkpt lat="44.12099" lon="3.13744">
        <ele>791.3</ele>
        <time>2019-04-19T12:24:34Z</time>
      </trkpt>
      <trkpt lat="44.12102" lon="3.13742">
        <ele>791.9</ele>
        <time>2019-04-19T12:24:37Z</time>
      </trkpt>
      <trkpt lat="44.12105" lon="3.13741">
        <ele>792.7</ele>
        <time>2019-04-19T12:24:40Z</time>
      </trkpt>
      <trkpt lat="44.12106" lon="3.13737">
        <ele>793.1</ele>
        <time>2019-04-19T12:24:43Z</time>
      </trkpt>
      <trkpt lat="44.12106" lon="3.13732">
        <ele>794.5</ele>
        <time>2019-04-19T12:24:45Z</time>
      </trkpt>
      <trkpt lat="44.12108" lon="3.13728">
        <ele>795.5</ele>
        <time>2019-04-19T12:24:48Z</time>
      </trkpt>
      <trkpt lat="44.12112" lon="3.13727">
        <ele>795.8</ele>
        <time>2019-04-19T12:24:51Z</time>
      </trkpt>
      <trkpt lat="44.12115" lon="3.13727">
        <ele>796.1</ele>
        <time>2019-04-19T12:24:53Z</time>
      </trkpt>
      <trkpt lat="44.12118" lon="3.13725">
        <ele>796.3</ele>
        <time>2019-04-19T12:24:56Z</time>
      </trkpt>
      <trkpt lat="44.12121" lon="3.13723">
        <ele>797</ele>
        <time>2019-04-19T12:24:58Z</time>
      </trkpt>
      <trkpt lat="44.12124" lon="3.13721">
        <ele>797.2</ele>
        <time>2019-04-19T12:25:01Z</time>
      </trkpt>
      <trkpt lat="44.12127" lon="3.13722">
        <ele>797.4</ele>
        <time>2019-04-19T12:25:04Z</time>
      </trkpt>
      <trkpt lat="44.12131" lon="3.13723">
        <ele>797.6</ele>
        <time>2019-04-19T12:25:07Z</time>
      </trkpt>
      <trkpt lat="44.12134" lon="3.13724">
        <ele>797.7</ele>
        <time>2019-04-19T12:25:09Z</time>
      </trkpt>
      <trkpt lat="44.12137" lon="3.13722">
        <ele>797.9</ele>
        <time>2019-04-19T12:25:11Z</time>
      </trkpt>
      <trkpt lat="44.12141" lon="3.13719">
        <ele>798.5</ele>
        <time>2019-04-19T12:25:13Z</time>
      </trkpt>
      <trkpt lat="44.12144" lon="3.13719">
        <ele>798.6</ele>
        <time>2019-04-19T12:25:15Z</time>
      </trkpt>
      <trkpt lat="44.12147" lon="3.13722">
        <ele>798.2</ele>
        <time>2019-04-19T12:25:17Z</time>
      </trkpt>
      <trkpt lat="44.12149" lon="3.13727">
        <ele>797.8</ele>
        <time>2019-04-19T12:25:19Z</time>
      </trkpt>
      <trkpt lat="44.12153" lon="3.13729">
        <ele>797.4</ele>
        <time>2019-04-19T12:25:22Z</time>
      </trkpt>
      <trkpt lat="44.12157" lon="3.13727">
        <ele>797.9</ele>
        <time>2019-04-19T12:25:24Z</time>
      </trkpt>
      <trkpt lat="44.1216" lon="3.13725">
        <ele>798</ele>
        <time>2019-04-19T12:25:26Z</time>
      </trkpt>
      <trkpt lat="44.12163" lon="3.13721">
        <ele>798.6</ele>
        <time>2019-04-19T12:25:28Z</time>
      </trkpt>
      <trkpt lat="44.12164" lon="3.13718">
        <ele>799.2</ele>
        <time>2019-04-19T12:25:31Z</time>
      </trkpt>
      <trkpt lat="44.12165" lon="3.13713">
        <ele>799.7</ele>
        <time>2019-04-19T12:25:34Z</time>
      </trkpt>
      <trkpt lat="44.12167" lon="3.1371">
        <ele>800.3</ele>
        <time>2019-04-19T12:25:37Z</time>
      </trkpt>
      <trkpt lat="44.1217" lon="3.13708">
        <ele>800.3</ele>
        <time>2019-04-19T12:25:40Z</time>
      </trkpt>
      <trkpt lat="44.12174" lon="3.13707">
        <ele>800.4</ele>
        <time>2019-04-19T12:25:42Z</time>
      </trkpt>
      <trkpt lat="44.12177" lon="3.13706">
        <ele>800.9</ele>
        <time>2019-04-19T12:25:44Z</time>
      </trkpt>
      <trkpt lat="44.1218" lon="3.13704">
        <ele>800.9</ele>
        <time>2019-04-19T12:25:46Z</time>
      </trkpt>
      <trkpt lat="44.12183" lon="3.13701">
        <ele>801.3</ele>
        <time>2019-04-19T12:25:48Z</time>
      </trkpt>
      <trkpt lat="44.12186" lon="3.13699">
        <ele>801.3</ele>
        <time>2019-04-19T12:25:50Z</time>
      </trkpt>
      <trkpt lat="44.12189" lon="3.13695">
        <ele>801.8</ele>
        <time>2019-04-19T12:25:52Z</time>
      </trkpt>
      <trkpt lat="44.12192" lon="3.13693">
        <ele>802.2</ele>
        <time>2019-04-19T12:25:54Z</time>
      </trkpt>
      <trkpt lat="44.12196" lon="3.13694">
        <ele>802.2</ele>
        <time>2019-04-19T12:25:56Z</time>
      </trkpt>
      <trkpt lat="44.122" lon="3.13694">
        <ele>802.1</ele>
        <time>2019-04-19T12:25:58Z</time>
      </trkpt>
      <trkpt lat="44.12202" lon="3.13691">
        <ele>802.1</ele>
        <time>2019-04-19T12:26:00Z</time>
      </trkpt>
      <trkpt lat="44.12204" lon="3.13688">
        <ele>802.7</ele>
        <time>2019-04-19T12:26:02Z</time>
      </trkpt>
      <trkpt lat="44.12206" lon="3.13685">
        <ele>803.2</ele>
        <time>2019-04-19T12:26:05Z</time>
      </trkpt>
      <trkpt lat="44.12209" lon="3.13681">
        <ele>803.6</ele>
        <time>2019-04-19T12:26:07Z</time>
      </trkpt>
      <trkpt lat="44.1221" lon="3.13676">
        <ele>804.1</ele>
        <time>2019-04-19T12:26:09Z</time>
      </trkpt>
      <trkpt lat="44.1221" lon="3.13672">
        <ele>804.6</ele>
        <time>2019-04-19T12:26:12Z</time>
      </trkpt>
      <trkpt lat="44.12212" lon="3.13668">
        <ele>805.1</ele>
        <time>2019-04-19T12:26:14Z</time>
      </trkpt>
      <trkpt lat="44.12214" lon="3.13663">
        <ele>805.5</ele>
        <time>2019-04-19T12:26:16Z</time>
      </trkpt>
      <trkpt lat="44.12215" lon="3.13658">
        <ele>806</ele>
        <time>2019-04-19T12:26:18Z</time>
      </trkpt>
      <trkpt lat="44.12216" lon="3.13654">
        <ele>806.4</ele>
        <time>2019-04-19T12:26:20Z</time>
      </trkpt>
      <trkpt lat="44.12217" lon="3.13649">
        <ele>806.9</ele>
        <time>2019-04-19T12:26:22Z</time>
      </trkpt>
      <trkpt lat="44.1222" lon="3.13646">
        <ele>807.3</ele>
        <time>2019-04-19T12:26:25Z</time>
      </trkpt>
      <trkpt lat="44.12222" lon="3.13644">
        <ele>807.4</ele>
        <time>2019-04-19T12:26:27Z</time>
      </trkpt>
      <trkpt lat="44.12224" lon="3.1364">
        <ele>807.8</ele>
        <time>2019-04-19T12:26:29Z</time>
      </trkpt>
      <trkpt lat="44.12226" lon="3.13636">
        <ele>808.1</ele>
        <time>2019-04-19T12:26:31Z</time>
      </trkpt>
      <trkpt lat="44.12229" lon="3.13633">
        <ele>808.5</ele>
        <time>2019-04-19T12:26:34Z</time>
      </trkpt>
      <trkpt lat="44.12232" lon="3.1363">
        <ele>808.4</ele>
        <time>2019-04-19T12:26:37Z</time>
      </trkpt>
      <trkpt lat="44.12235" lon="3.13626">
        <ele>808.8</ele>
        <time>2019-04-19T12:26:39Z</time>
      </trkpt>
      <trkpt lat="44.12237" lon="3.1362">
        <ele>809.8</ele>
        <time>2019-04-19T12:26:41Z</time>
      </trkpt>
      <trkpt lat="44.1224" lon="3.13615">
        <ele>810.2</ele>
        <time>2019-04-19T12:26:43Z</time>
      </trkpt>
      <trkpt lat="44.12243" lon="3.1361">
        <ele>810.6</ele>
        <time>2019-04-19T12:26:45Z</time>
      </trkpt>
      <trkpt lat="44.12246" lon="3.13605">
        <ele>811</ele>
        <time>2019-04-19T12:26:47Z</time>
      </trkpt>
      <trkpt lat="44.12248" lon="3.13602">
        <ele>811.4</ele>
        <time>2019-04-19T12:26:48Z</time>
      </trkpt>
      <trkpt lat="44.12251" lon="3.13597">
        <ele>811.7</ele>
        <time>2019-04-19T12:26:50Z</time>
      </trkpt>
      <trkpt lat="44.12253" lon="3.13592">
        <ele>812.2</ele>
        <time>2019-04-19T12:26:52Z</time>
      </trkpt>
      <trkpt lat="44.12255" lon="3.13585">
        <ele>812.7</ele>
        <time>2019-04-19T12:26:54Z</time>
      </trkpt>
      <trkpt lat="44.12256" lon="3.13582">
        <ele>813.2</ele>
        <time>2019-04-19T12:26:55Z</time>
      </trkpt>
      <trkpt lat="44.12258" lon="3.13576">
        <ele>813.4</ele>
        <time>2019-04-19T12:26:57Z</time>
      </trkpt>
      <trkpt lat="44.1226" lon="3.13572">
        <ele>813.6</ele>
        <time>2019-04-19T12:26:59Z</time>
      </trkpt>
      <trkpt lat="44.12262" lon="3.1357">
        <ele>814</ele>
        <time>2019-04-19T12:27:01Z</time>
      </trkpt>
      <trkpt lat="44.12265" lon="3.13566">
        <ele>813.9</ele>
        <time>2019-04-19T12:27:03Z</time>
      </trkpt>
      <trkpt lat="44.12267" lon="3.13563">
        <ele>814.1</ele>
        <time>2019-04-19T12:27:05Z</time>
      </trkpt>
      <trkpt lat="44.12271" lon="3.1356">
        <ele>814.3</ele>
        <time>2019-04-19T12:27:08Z</time>
      </trkpt>
      <trkpt lat="44.12274" lon="3.1356">
        <ele>814.1</ele>
        <time>2019-04-19T12:27:09Z</time>
      </trkpt>
      <trkpt lat="44.12277" lon="3.13558">
        <ele>813.9</ele>
        <time>2019-04-19T12:27:11Z</time>
      </trkpt>
      <trkpt lat="44.12279" lon="3.13554">
        <ele>814</ele>
        <time>2019-04-19T12:27:13Z</time>
      </trkpt>
      <trkpt lat="44.1228" lon="3.1355">
        <ele>814.4</ele>
        <time>2019-04-19T12:27:15Z</time>
      </trkpt>
      <trkpt lat="44.12281" lon="3.13544">
        <ele>814.8</ele>
        <time>2019-04-19T12:27:17Z</time>
      </trkpt>
      <trkpt lat="44.12281" lon="3.1354">
        <ele>814.8</ele>
        <time>2019-04-19T12:27:18Z</time>
      </trkpt>
      <trkpt lat="44.12282" lon="3.13535">
        <ele>815.2</ele>
        <time>2019-04-19T12:27:19Z</time>
      </trkpt>
      <trkpt lat="44.12283" lon="3.13531">
        <ele>815.9</ele>
        <time>2019-04-19T12:27:20Z</time>
      </trkpt>
      <trkpt lat="44.12284" lon="3.13526">
        <ele>816.3</ele>
        <time>2019-04-19T12:27:21Z</time>
      </trkpt>
      <trkpt lat="44.12285" lon="3.13523">
        <ele>816</ele>
        <time>2019-04-19T12:27:22Z</time>
      </trkpt>
      <trkpt lat="44.12287" lon="3.13517">
        <ele>816.8</ele>
        <time>2019-04-19T12:27:24Z</time>
      </trkpt>
      <trkpt lat="44.12288" lon="3.13513">
        <ele>816.9</ele>
        <time>2019-04-19T12:27:25Z</time>
      </trkpt>
      <trkpt lat="44.12288" lon="3.13509">
        <ele>817.3</ele>
        <time>2019-04-19T12:27:26Z</time>
      </trkpt>
      <trkpt lat="44.12288" lon="3.13505">
        <ele>817.7</ele>
        <time>2019-04-19T12:27:27Z</time>
      </trkpt>
      <trkpt lat="44.12288" lon="3.135">
        <ele>818</ele>
        <time>2019-04-19T12:27:28Z</time>
      </trkpt>
      <trkpt lat="44.12288" lon="3.13496">
        <ele>818.3</ele>
        <time>2019-04-19T12:27:29Z</time>
      </trkpt>
      <trkpt lat="44.12287" lon="3.13491">
        <ele>818.6</ele>
        <time>2019-04-19T12:27:30Z</time>
      </trkpt>
      <trkpt lat="44.12286" lon="3.13487">
        <ele>818.6</ele>
        <time>2019-04-19T12:27:31Z</time>
      </trkpt>
      <trkpt lat="44.12285" lon="3.13483">
        <ele>818.6</ele>
        <time>2019-04-19T12:27:32Z</time>
      </trkpt>
      <trkpt lat="44.12283" lon="3.13477">
        <ele>818.9</ele>
        <time>2019-04-19T12:27:34Z</time>
      </trkpt>
      <trkpt lat="44.1228" lon="3.13471">
        <ele>819.4</ele>
        <time>2019-04-19T12:27:36Z</time>
      </trkpt>
      <trkpt lat="44.12278" lon="3.13468">
        <ele>819.6</ele>
        <time>2019-04-19T12:27:37Z</time>
      </trkpt>
      <trkpt lat="44.12274" lon="3.13463">
        <ele>819.9</ele>
        <time>2019-04-19T12:27:39Z</time>
      </trkpt>
      <trkpt lat="44.12273" lon="3.13459">
        <ele>820</ele>
        <time>2019-04-19T12:27:40Z</time>
      </trkpt>
      <trkpt lat="44.12271" lon="3.13456">
        <ele>820.2</ele>
        <time>2019-04-19T12:27:41Z</time>
      </trkpt>
      <trkpt lat="44.12269" lon="3.13452">
        <ele>820.3</ele>
        <time>2019-04-19T12:27:42Z</time>
      </trkpt>
      <trkpt lat="44.12268" lon="3.13449">
        <ele>820.4</ele>
        <time>2019-04-19T12:27:43Z</time>
      </trkpt>
      <trkpt lat="44.12264" lon="3.13446">
        <ele>820.6</ele>
        <time>2019-04-19T12:27:44Z</time>
      </trkpt>
      <trkpt lat="44.12262" lon="3.13444">
        <ele>820.7</ele>
        <time>2019-04-19T12:27:45Z</time>
      </trkpt>
      <trkpt lat="44.12258" lon="3.13442">
        <ele>820.7</ele>
        <time>2019-04-19T12:27:46Z</time>
      </trkpt>
      <trkpt lat="44.12254" lon="3.1344">
        <ele>820.8</ele>
        <time>2019-04-19T12:27:47Z</time>
      </trkpt>
      <trkpt lat="44.1225" lon="3.13436">
        <ele>820.8</ele>
        <time>2019-04-19T12:27:48Z</time>
      </trkpt>
      <trkpt lat="44.12247" lon="3.13433">
        <ele>820.8</ele>
        <time>2019-04-19T12:27:49Z</time>
      </trkpt>
      <trkpt lat="44.12245" lon="3.13429">
        <ele>820.9</ele>
        <time>2019-04-19T12:27:50Z</time>
      </trkpt>
      <trkpt lat="44.12243" lon="3.13424">
        <ele>820.9</ele>
        <time>2019-04-19T12:27:51Z</time>
      </trkpt>
      <trkpt lat="44.12241" lon="3.13419">
        <ele>821</ele>
        <time>2019-04-19T12:27:52Z</time>
      </trkpt>
      <trkpt lat="44.12239" lon="3.13413">
        <ele>821</ele>
        <time>2019-04-19T12:27:53Z</time>
      </trkpt>
      <trkpt lat="44.12236" lon="3.13408">
        <ele>821</ele>
        <time>2019-04-19T12:27:54Z</time>
      </trkpt>
      <trkpt lat="44.12233" lon="3.13403">
        <ele>820.9</ele>
        <time>2019-04-19T12:27:55Z</time>
      </trkpt>
      <trkpt lat="44.12231" lon="3.13398">
        <ele>820.9</ele>
        <time>2019-04-19T12:27:56Z</time>
      </trkpt>
      <trkpt lat="44.12228" lon="3.13392">
        <ele>820.8</ele>
        <time>2019-04-19T12:27:57Z</time>
      </trkpt>
      <trkpt lat="44.12227" lon="3.13386">
        <ele>820.8</ele>
        <time>2019-04-19T12:27:58Z</time>
      </trkpt>
      <trkpt lat="44.12225" lon="3.1338">
        <ele>820.7</ele>
        <time>2019-04-19T12:27:59Z</time>
      </trkpt>
      <trkpt lat="44.12224" lon="3.13374">
        <ele>820.7</ele>
        <time>2019-04-19T12:28:00Z</time>
      </trkpt>
      <trkpt lat="44.12223" lon="3.13369">
        <ele>820.7</ele>
        <time>2019-04-19T12:28:01Z</time>
      </trkpt>
      <trkpt lat="44.12222" lon="3.13363">
        <ele>820.9</ele>
        <time>2019-04-19T12:28:02Z</time>
      </trkpt>
      <trkpt lat="44.12221" lon="3.13357">
        <ele>821</ele>
        <time>2019-04-19T12:28:03Z</time>
      </trkpt>
      <trkpt lat="44.1222" lon="3.13351">
        <ele>821.2</ele>
        <time>2019-04-19T12:28:04Z</time>
      </trkpt>
      <trkpt lat="44.12217" lon="3.13345">
        <ele>821.6</ele>
        <time>2019-04-19T12:28:05Z</time>
      </trkpt>
      <trkpt lat="44.12216" lon="3.13339">
        <ele>821.9</ele>
        <time>2019-04-19T12:28:06Z</time>
      </trkpt>
      <trkpt lat="44.12214" lon="3.13334">
        <ele>822.2</ele>
        <time>2019-04-19T12:28:07Z</time>
      </trkpt>
      <trkpt lat="44.12211" lon="3.13329">
        <ele>822.4</ele>
        <time>2019-04-19T12:28:08Z</time>
      </trkpt>
      <trkpt lat="44.1221" lon="3.13325">
        <ele>822.6</ele>
        <time>2019-04-19T12:28:09Z</time>
      </trkpt>
      <trkpt lat="44.12208" lon="3.13319">
        <ele>823.1</ele>
        <time>2019-04-19T12:28:10Z</time>
      </trkpt>
      <trkpt lat="44.12206" lon="3.13312">
        <ele>823.4</ele>
        <time>2019-04-19T12:28:12Z</time>
      </trkpt>
      <trkpt lat="44.12207" lon="3.13306">
        <ele>823.7</ele>
        <time>2019-04-19T12:28:14Z</time>
      </trkpt>
      <trkpt lat="44.12206" lon="3.13299">
        <ele>824</ele>
        <time>2019-04-19T12:28:16Z</time>
      </trkpt>
      <trkpt lat="44.12206" lon="3.13292">
        <ele>824.2</ele>
        <time>2019-04-19T12:28:18Z</time>
      </trkpt>
      <trkpt lat="44.12206" lon="3.13285">
        <ele>824.4</ele>
        <time>2019-04-19T12:28:20Z</time>
      </trkpt>
      <trkpt lat="44.12208" lon="3.13278">
        <ele>824.6</ele>
        <time>2019-04-19T12:28:22Z</time>
      </trkpt>
      <trkpt lat="44.1221" lon="3.13274">
        <ele>824.7</ele>
        <time>2019-04-19T12:28:23Z</time>
      </trkpt>
      <trkpt lat="44.12211" lon="3.1327">
        <ele>824.9</ele>
        <time>2019-04-19T12:28:24Z</time>
      </trkpt>
      <trkpt lat="44.12212" lon="3.13263">
        <ele>825.2</ele>
        <time>2019-04-19T12:28:26Z</time>
      </trkpt>
      <trkpt lat="44.12215" lon="3.13257">
        <ele>825.4</ele>
        <time>2019-04-19T12:28:28Z</time>
      </trkpt>
      <trkpt lat="44.12218" lon="3.13252">
        <ele>825.7</ele>
        <time>2019-04-19T12:28:30Z</time>
      </trkpt>
      <trkpt lat="44.12222" lon="3.13247">
        <ele>826</ele>
        <time>2019-04-19T12:28:32Z</time>
      </trkpt>
      <trkpt lat="44.12225" lon="3.13242">
        <ele>826.3</ele>
        <time>2019-04-19T12:28:34Z</time>
      </trkpt>
      <trkpt lat="44.12226" lon="3.13239">
        <ele>826.5</ele>
        <time>2019-04-19T12:28:35Z</time>
      </trkpt>
      <trkpt lat="44.12228" lon="3.13236">
        <ele>826.7</ele>
        <time>2019-04-19T12:28:36Z</time>
      </trkpt>
      <trkpt lat="44.12231" lon="3.13231">
        <ele>826.9</ele>
        <time>2019-04-19T12:28:38Z</time>
      </trkpt>
      <trkpt lat="44.12235" lon="3.13228">
        <ele>827</ele>
        <time>2019-04-19T12:28:40Z</time>
      </trkpt>
      <trkpt lat="44.12239" lon="3.13226">
        <ele>827.2</ele>
        <time>2019-04-19T12:28:42Z</time>
      </trkpt>
      <trkpt lat="44.12241" lon="3.13223">
        <ele>827.3</ele>
        <time>2019-04-19T12:28:43Z</time>
      </trkpt>
      <trkpt lat="44.12245" lon="3.13218">
        <ele>827.5</ele>
        <time>2019-04-19T12:28:45Z</time>
      </trkpt>
      <trkpt lat="44.12248" lon="3.13214">
        <ele>827.5</ele>
        <time>2019-04-19T12:28:46Z</time>
      </trkpt>
      <trkpt lat="44.12251" lon="3.13212">
        <ele>827.5</ele>
        <time>2019-04-19T12:28:47Z</time>
      </trkpt>
      <trkpt lat="44.12254" lon="3.1321">
        <ele>827.5</ele>
        <time>2019-04-19T12:28:49Z</time>
      </trkpt>
      <trkpt lat="44.12258" lon="3.13208">
        <ele>827.6</ele>
        <time>2019-04-19T12:28:51Z</time>
      </trkpt>
      <trkpt lat="44.12262" lon="3.13203">
        <ele>827.6</ele>
        <time>2019-04-19T12:28:53Z</time>
      </trkpt>
      <trkpt lat="44.12264" lon="3.132">
        <ele>827.7</ele>
        <time>2019-04-19T12:28:54Z</time>
      </trkpt>
      <trkpt lat="44.12267" lon="3.13195">
        <ele>828</ele>
        <time>2019-04-19T12:28:56Z</time>
      </trkpt>
      <trkpt lat="44.12268" lon="3.13189">
        <ele>828.3</ele>
        <time>2019-04-19T12:28:58Z</time>
      </trkpt>
      <trkpt lat="44.12269" lon="3.13184">
        <ele>828.6</ele>
        <time>2019-04-19T12:29:00Z</time>
      </trkpt>
      <trkpt lat="44.12269" lon="3.13179">
        <ele>829</ele>
        <time>2019-04-19T12:29:02Z</time>
      </trkpt>
      <trkpt lat="44.1227" lon="3.13173">
        <ele>829.2</ele>
        <time>2019-04-19T12:29:04Z</time>
      </trkpt>
      <trkpt lat="44.12271" lon="3.13166">
        <ele>829.5</ele>
        <time>2019-04-19T12:29:06Z</time>
      </trkpt>
      <trkpt lat="44.12273" lon="3.1316">
        <ele>830</ele>
        <time>2019-04-19T12:29:08Z</time>
      </trkpt>
      <trkpt lat="44.12275" lon="3.13155">
        <ele>830.4</ele>
        <time>2019-04-19T12:29:10Z</time>
      </trkpt>
      <trkpt lat="44.12276" lon="3.13149">
        <ele>830.9</ele>
        <time>2019-04-19T12:29:12Z</time>
      </trkpt>
      <trkpt lat="44.12276" lon="3.13143">
        <ele>831.4</ele>
        <time>2019-04-19T12:29:14Z</time>
      </trkpt>
      <trkpt lat="44.12278" lon="3.1314">
        <ele>831.6</ele>
        <time>2019-04-19T12:29:15Z</time>
      </trkpt>
      <trkpt lat="44.1228" lon="3.13135">
        <ele>831.8</ele>
        <time>2019-04-19T12:29:17Z</time>
      </trkpt>
      <trkpt lat="44.12282" lon="3.13131">
        <ele>832.1</ele>
        <time>2019-04-19T12:29:18Z</time>
      </trkpt>
      <trkpt lat="44.12283" lon="3.13127">
        <ele>832.4</ele>
        <time>2019-04-19T12:29:19Z</time>
      </trkpt>
      <trkpt lat="44.12284" lon="3.13124">
        <ele>832.7</ele>
        <time>2019-04-19T12:29:20Z</time>
      </trkpt>
      <trkpt lat="44.12285" lon="3.1312">
        <ele>832.9</ele>
        <time>2019-04-19T12:29:21Z</time>
      </trkpt>
      <trkpt lat="44.12287" lon="3.13117">
        <ele>833.2</ele>
        <time>2019-04-19T12:29:22Z</time>
      </trkpt>
      <trkpt lat="44.12289" lon="3.13114">
        <ele>833.5</ele>
        <time>2019-04-19T12:29:23Z</time>
      </trkpt>
      <trkpt lat="44.12292" lon="3.13108">
        <ele>833.9</ele>
        <time>2019-04-19T12:29:25Z</time>
      </trkpt>
      <trkpt lat="44.12294" lon="3.131">
        <ele>834.4</ele>
        <time>2019-04-19T12:29:27Z</time>
      </trkpt>
      <trkpt lat="44.12295" lon="3.13096">
        <ele>834.8</ele>
        <time>2019-04-19T12:29:28Z</time>
      </trkpt>
      <trkpt lat="44.12295" lon="3.13091">
        <ele>835.1</ele>
        <time>2019-04-19T12:29:29Z</time>
      </trkpt>
      <trkpt lat="44.12294" lon="3.13087">
        <ele>835.5</ele>
        <time>2019-04-19T12:29:30Z</time>
      </trkpt>
      <trkpt lat="44.12294" lon="3.13083">
        <ele>835.7</ele>
        <time>2019-04-19T12:29:31Z</time>
      </trkpt>
      <trkpt lat="44.12294" lon="3.13078">
        <ele>836</ele>
        <time>2019-04-19T12:29:32Z</time>
      </trkpt>
      <trkpt lat="44.12294" lon="3.13074">
        <ele>836.2</ele>
        <time>2019-04-19T12:29:33Z</time>
      </trkpt>
      <trkpt lat="44.12293" lon="3.13069">
        <ele>836.5</ele>
        <time>2019-04-19T12:29:35Z</time>
      </trkpt>
      <trkpt lat="44.1229" lon="3.13061">
        <ele>837</ele>
        <time>2019-04-19T12:29:37Z</time>
      </trkpt>
      <trkpt lat="44.12289" lon="3.13057">
        <ele>837.3</ele>
        <time>2019-04-19T12:29:38Z</time>
      </trkpt>
      <trkpt lat="44.12288" lon="3.13052">
        <ele>837.5</ele>
        <time>2019-04-19T12:29:39Z</time>
      </trkpt>
      <trkpt lat="44.12286" lon="3.13048">
        <ele>837.9</ele>
        <time>2019-04-19T12:29:40Z</time>
      </trkpt>
      <trkpt lat="44.12284" lon="3.13044">
        <ele>838.1</ele>
        <time>2019-04-19T12:29:41Z</time>
      </trkpt>
      <trkpt lat="44.12282" lon="3.13041">
        <ele>838.3</ele>
        <time>2019-04-19T12:29:42Z</time>
      </trkpt>
      <trkpt lat="44.12279" lon="3.13035">
        <ele>838.7</ele>
        <time>2019-04-19T12:29:44Z</time>
      </trkpt>
      <trkpt lat="44.12277" lon="3.13028">
        <ele>839</ele>
        <time>2019-04-19T12:29:46Z</time>
      </trkpt>
      <trkpt lat="44.12275" lon="3.13021">
        <ele>839.4</ele>
        <time>2019-04-19T12:29:48Z</time>
      </trkpt>
      <trkpt lat="44.12274" lon="3.13018">
        <ele>839.6</ele>
        <time>2019-04-19T12:29:49Z</time>
      </trkpt>
      <trkpt lat="44.12274" lon="3.13014">
        <ele>839.7</ele>
        <time>2019-04-19T12:29:50Z</time>
      </trkpt>
      <trkpt lat="44.12273" lon="3.1301">
        <ele>839.8</ele>
        <time>2019-04-19T12:29:51Z</time>
      </trkpt>
      <trkpt lat="44.12272" lon="3.13006">
        <ele>840</ele>
        <time>2019-04-19T12:29:52Z</time>
      </trkpt>
      <trkpt lat="44.12272" lon="3.12999">
        <ele>840.2</ele>
        <time>2019-04-19T12:29:54Z</time>
      </trkpt>
      <trkpt lat="44.12271" lon="3.12994">
        <ele>840.4</ele>
        <time>2019-04-19T12:29:56Z</time>
      </trkpt>
      <trkpt lat="44.12269" lon="3.12989">
        <ele>840.5</ele>
        <time>2019-04-19T12:29:58Z</time>
      </trkpt>
      <trkpt lat="44.12267" lon="3.12981">
        <ele>840.6</ele>
        <time>2019-04-19T12:30:00Z</time>
      </trkpt>
      <trkpt lat="44.12267" lon="3.12975">
        <ele>840.7</ele>
        <time>2019-04-19T12:30:02Z</time>
      </trkpt>
      <trkpt lat="44.12267" lon="3.1297">
        <ele>840.8</ele>
        <time>2019-04-19T12:30:04Z</time>
      </trkpt>
      <trkpt lat="44.12267" lon="3.12964">
        <ele>841</ele>
        <time>2019-04-19T12:30:06Z</time>
      </trkpt>
      <trkpt lat="44.12266" lon="3.12958">
        <ele>841.2</ele>
        <time>2019-04-19T12:30:08Z</time>
      </trkpt>
      <trkpt lat="44.12265" lon="3.12952">
        <ele>841.6</ele>
        <time>2019-04-19T12:30:10Z</time>
      </trkpt>
      <trkpt lat="44.12265" lon="3.12944">
        <ele>841.9</ele>
        <time>2019-04-19T12:30:12Z</time>
      </trkpt>
      <trkpt lat="44.12265" lon="3.1294">
        <ele>842.1</ele>
        <time>2019-04-19T12:30:13Z</time>
      </trkpt>
      <trkpt lat="44.12266" lon="3.12936">
        <ele>842.2</ele>
        <time>2019-04-19T12:30:14Z</time>
      </trkpt>
      <trkpt lat="44.12267" lon="3.12933">
        <ele>842.4</ele>
        <time>2019-04-19T12:30:15Z</time>
      </trkpt>
      <trkpt lat="44.12268" lon="3.12926">
        <ele>842.6</ele>
        <time>2019-04-19T12:30:17Z</time>
      </trkpt>
      <trkpt lat="44.12268" lon="3.12922">
        <ele>842.7</ele>
        <time>2019-04-19T12:30:18Z</time>
      </trkpt>
      <trkpt lat="44.12267" lon="3.12918">
        <ele>842.8</ele>
        <time>2019-04-19T12:30:19Z</time>
      </trkpt>
      <trkpt lat="44.12266" lon="3.12911">
        <ele>842.9</ele>
        <time>2019-04-19T12:30:21Z</time>
      </trkpt>
      <trkpt lat="44.12266" lon="3.12904">
        <ele>843</ele>
        <time>2019-04-19T12:30:23Z</time>
      </trkpt>
      <trkpt lat="44.12267" lon="3.12898">
        <ele>843.1</ele>
        <time>2019-04-19T12:30:25Z</time>
      </trkpt>
      <trkpt lat="44.12268" lon="3.12892">
        <ele>843.2</ele>
        <time>2019-04-19T12:30:27Z</time>
      </trkpt>
      <trkpt lat="44.12269" lon="3.12885">
        <ele>843.4</ele>
        <time>2019-04-19T12:30:29Z</time>
      </trkpt>
      <trkpt lat="44.1227" lon="3.12881">
        <ele>843.5</ele>
        <time>2019-04-19T12:30:30Z</time>
      </trkpt>
      <trkpt lat="44.1227" lon="3.12877">
        <ele>843.6</ele>
        <time>2019-04-19T12:30:31Z</time>
      </trkpt>
      <trkpt lat="44.1227" lon="3.12872">
        <ele>843.7</ele>
        <time>2019-04-19T12:30:32Z</time>
      </trkpt>
      <trkpt lat="44.1227" lon="3.12868">
        <ele>843.9</ele>
        <time>2019-04-19T12:30:33Z</time>
      </trkpt>
      <trkpt lat="44.12269" lon="3.12864">
        <ele>844.1</ele>
        <time>2019-04-19T12:30:34Z</time>
      </trkpt>
      <trkpt lat="44.12268" lon="3.1286">
        <ele>844.3</ele>
        <time>2019-04-19T12:30:35Z</time>
      </trkpt>
      <trkpt lat="44.12268" lon="3.12857">
        <ele>844.5</ele>
        <time>2019-04-19T12:30:36Z</time>
      </trkpt>
      <trkpt lat="44.12267" lon="3.12851">
        <ele>845</ele>
        <time>2019-04-19T12:30:38Z</time>
      </trkpt>
      <trkpt lat="44.12267" lon="3.12843">
        <ele>845.3</ele>
        <time>2019-04-19T12:30:40Z</time>
      </trkpt>
      <trkpt lat="44.12267" lon="3.12839">
        <ele>845.4</ele>
        <time>2019-04-19T12:30:41Z</time>
      </trkpt>
      <trkpt lat="44.12267" lon="3.12834">
        <ele>845.6</ele>
        <time>2019-04-19T12:30:42Z</time>
      </trkpt>
      <trkpt lat="44.12267" lon="3.1283">
        <ele>845.7</ele>
        <time>2019-04-19T12:30:43Z</time>
      </trkpt>
      <trkpt lat="44.12266" lon="3.12825">
        <ele>845.8</ele>
        <time>2019-04-19T12:30:44Z</time>
      </trkpt>
      <trkpt lat="44.12266" lon="3.1282">
        <ele>845.9</ele>
        <time>2019-04-19T12:30:45Z</time>
      </trkpt>
      <trkpt lat="44.12266" lon="3.12815">
        <ele>846</ele>
        <time>2019-04-19T12:30:46Z</time>
      </trkpt>
      <trkpt lat="44.12266" lon="3.1281">
        <ele>846.1</ele>
        <time>2019-04-19T12:30:47Z</time>
      </trkpt>
      <trkpt lat="44.12265" lon="3.12805">
        <ele>846.2</ele>
        <time>2019-04-19T12:30:48Z</time>
      </trkpt>
      <trkpt lat="44.12265" lon="3.128">
        <ele>846.4</ele>
        <time>2019-04-19T12:30:49Z</time>
      </trkpt>
      <trkpt lat="44.12266" lon="3.12795">
        <ele>846.5</ele>
        <time>2019-04-19T12:30:50Z</time>
      </trkpt>
      <trkpt lat="44.12266" lon="3.1279">
        <ele>846.7</ele>
        <time>2019-04-19T12:30:51Z</time>
      </trkpt>
      <trkpt lat="44.12266" lon="3.12786">
        <ele>846.9</ele>
        <time>2019-04-19T12:30:52Z</time>
      </trkpt>
      <trkpt lat="44.12265" lon="3.12781">
        <ele>847</ele>
        <time>2019-04-19T12:30:53Z</time>
      </trkpt>
      <trkpt lat="44.12265" lon="3.12775">
        <ele>847.1</ele>
        <time>2019-04-19T12:30:54Z</time>
      </trkpt>
      <trkpt lat="44.12265" lon="3.12769">
        <ele>847.2</ele>
        <time>2019-04-19T12:30:55Z</time>
      </trkpt>
      <trkpt lat="44.12265" lon="3.12763">
        <ele>847.4</ele>
        <time>2019-04-19T12:30:56Z</time>
      </trkpt>
      <trkpt lat="44.12265" lon="3.12758">
        <ele>847.6</ele>
        <time>2019-04-19T12:30:57Z</time>
      </trkpt>
      <trkpt lat="44.12265" lon="3.12752">
        <ele>847.8</ele>
        <time>2019-04-19T12:30:58Z</time>
      </trkpt>
      <trkpt lat="44.12266" lon="3.12747">
        <ele>848</ele>
        <time>2019-04-19T12:30:59Z</time>
      </trkpt>
      <trkpt lat="44.12266" lon="3.12742">
        <ele>848.1</ele>
        <time>2019-04-19T12:31:00Z</time>
      </trkpt>
      <trkpt lat="44.12265" lon="3.12736">
        <ele>848.2</ele>
        <time>2019-04-19T12:31:01Z</time>
      </trkpt>
      <trkpt lat="44.12265" lon="3.12731">
        <ele>848.1</ele>
        <time>2019-04-19T12:31:02Z</time>
      </trkpt>
      <trkpt lat="44.12264" lon="3.12727">
        <ele>848</ele>
        <time>2019-04-19T12:31:03Z</time>
      </trkpt>
      <trkpt lat="44.12263" lon="3.12723">
        <ele>848.1</ele>
        <time>2019-04-19T12:31:04Z</time>
      </trkpt>
      <trkpt lat="44.12263" lon="3.12718">
        <ele>848.1</ele>
        <time>2019-04-19T12:31:05Z</time>
      </trkpt>
      <trkpt lat="44.12264" lon="3.12712">
        <ele>847.9</ele>
        <time>2019-04-19T12:31:06Z</time>
      </trkpt>
      <trkpt lat="44.12265" lon="3.12706">
        <ele>847.8</ele>
        <time>2019-04-19T12:31:07Z</time>
      </trkpt>
      <trkpt lat="44.12266" lon="3.12703">
        <ele>847.8</ele>
        <time>2019-04-19T12:31:08Z</time>
      </trkpt>
      <trkpt lat="44.1227" lon="3.12698">
        <ele>847.7</ele>
        <time>2019-04-19T12:31:10Z</time>
      </trkpt>
      <trkpt lat="44.12273" lon="3.12696">
        <ele>847.7</ele>
        <time>2019-04-19T12:31:11Z</time>
      </trkpt>
      <trkpt lat="44.12277" lon="3.12693">
        <ele>847.7</ele>
        <time>2019-04-19T12:31:12Z</time>
      </trkpt>
      <trkpt lat="44.12284" lon="3.12688">
        <ele>847.5</ele>
        <time>2019-04-19T12:31:13Z</time>
      </trkpt>
      <trkpt lat="44.1229" lon="3.12679">
        <ele>847.1</ele>
        <time>2019-04-19T12:31:14Z</time>
      </trkpt>
      <trkpt lat="44.12298" lon="3.12671">
        <ele>846.8</ele>
        <time>2019-04-19T12:31:15Z</time>
      </trkpt>
      <trkpt lat="44.12304" lon="3.12664">
        <ele>846.5</ele>
        <time>2019-04-19T12:31:16Z</time>
      </trkpt>
      <trkpt lat="44.12309" lon="3.12659">
        <ele>846.3</ele>
        <time>2019-04-19T12:31:17Z</time>
      </trkpt>
      <trkpt lat="44.12308" lon="3.12662">
        <ele>846.2</ele>
        <time>2019-04-19T12:31:18Z</time>
      </trkpt>
      <trkpt lat="44.12312" lon="3.12664">
        <ele>846</ele>
        <time>2019-04-19T12:31:20Z</time>
      </trkpt>
      <trkpt lat="44.12316" lon="3.12664">
        <ele>845.6</ele>
        <time>2019-04-19T12:31:21Z</time>
      </trkpt>
      <trkpt lat="44.12321" lon="3.12669">
        <ele>845.6</ele>
        <time>2019-04-19T12:31:23Z</time>
      </trkpt>
      <trkpt lat="44.12322" lon="3.12676">
        <ele>845.6</ele>
        <time>2019-04-19T12:31:25Z</time>
      </trkpt>
      <trkpt lat="44.12324" lon="3.12681">
        <ele>845.6</ele>
        <time>2019-04-19T12:31:26Z</time>
      </trkpt>
      <trkpt lat="44.12328" lon="3.12686">
        <ele>845.6</ele>
        <time>2019-04-19T12:31:27Z</time>
      </trkpt>
      <trkpt lat="44.12332" lon="3.1269">
        <ele>845.1</ele>
        <time>2019-04-19T12:31:28Z</time>
      </trkpt>
      <trkpt lat="44.12337" lon="3.12694">
        <ele>844.8</ele>
        <time>2019-04-19T12:31:29Z</time>
      </trkpt>
      <trkpt lat="44.12343" lon="3.12697">
        <ele>844.5</ele>
        <time>2019-04-19T12:31:30Z</time>
      </trkpt>
      <trkpt lat="44.12348" lon="3.12701">
        <ele>844.3</ele>
        <time>2019-04-19T12:31:31Z</time>
      </trkpt>
      <trkpt lat="44.12353" lon="3.12707">
        <ele>844</ele>
        <time>2019-04-19T12:31:32Z</time>
      </trkpt>
      <trkpt lat="44.12355" lon="3.1271">
        <ele>843.9</ele>
        <time>2019-04-19T12:31:33Z</time>
      </trkpt>
      <trkpt lat="44.12359" lon="3.12712">
        <ele>843.9</ele>
        <time>2019-04-19T12:31:34Z</time>
      </trkpt>
      <trkpt lat="44.12365" lon="3.12715">
        <ele>843.9</ele>
        <time>2019-04-19T12:31:35Z</time>
      </trkpt>
      <trkpt lat="44.12369" lon="3.12716">
        <ele>843.9</ele>
        <time>2019-04-19T12:31:36Z</time>
      </trkpt>
      <trkpt lat="44.12374" lon="3.12716">
        <ele>844</ele>
        <time>2019-04-19T12:31:37Z</time>
      </trkpt>
      <trkpt lat="44.12379" lon="3.12716">
        <ele>844.1</ele>
        <time>2019-04-19T12:31:38Z</time>
      </trkpt>
      <trkpt lat="44.12383" lon="3.12718">
        <ele>844.2</ele>
        <time>2019-04-19T12:31:39Z</time>
      </trkpt>
      <trkpt lat="44.12388" lon="3.12721">
        <ele>844.2</ele>
        <time>2019-04-19T12:31:40Z</time>
      </trkpt>
      <trkpt lat="44.12392" lon="3.1272">
        <ele>844.2</ele>
        <time>2019-04-19T12:31:41Z</time>
      </trkpt>
      <trkpt lat="44.12397" lon="3.1272">
        <ele>844.2</ele>
        <time>2019-04-19T12:31:42Z</time>
      </trkpt>
      <trkpt lat="44.124" lon="3.12723">
        <ele>844.2</ele>
        <time>2019-04-19T12:31:43Z</time>
      </trkpt>
      <trkpt lat="44.12405" lon="3.12723">
        <ele>844.2</ele>
        <time>2019-04-19T12:31:44Z</time>
      </trkpt>
      <trkpt lat="44.12408" lon="3.12727">
        <ele>844.2</ele>
        <time>2019-04-19T12:31:45Z</time>
      </trkpt>
      <trkpt lat="44.1241" lon="3.12731">
        <ele>844.2</ele>
        <time>2019-04-19T12:31:46Z</time>
      </trkpt>
      <trkpt lat="44.12415" lon="3.12733">
        <ele>844.2</ele>
        <time>2019-04-19T12:31:47Z</time>
      </trkpt>
      <trkpt lat="44.1242" lon="3.12735">
        <ele>844.1</ele>
        <time>2019-04-19T12:31:48Z</time>
      </trkpt>
      <trkpt lat="44.12425" lon="3.12738">
        <ele>844</ele>
        <time>2019-04-19T12:31:49Z</time>
      </trkpt>
      <trkpt lat="44.12431" lon="3.1274">
        <ele>843.9</ele>
        <time>2019-04-19T12:31:50Z</time>
      </trkpt>
      <trkpt lat="44.12435" lon="3.12742">
        <ele>843.9</ele>
        <time>2019-04-19T12:31:51Z</time>
      </trkpt>
      <trkpt lat="44.12437" lon="3.12749">
        <ele>843.8</ele>
        <time>2019-04-19T12:31:52Z</time>
      </trkpt>
      <trkpt lat="44.1244" lon="3.12754">
        <ele>843.7</ele>
        <time>2019-04-19T12:31:53Z</time>
      </trkpt>
      <trkpt lat="44.12444" lon="3.12757">
        <ele>843.7</ele>
        <time>2019-04-19T12:31:54Z</time>
      </trkpt>
      <trkpt lat="44.12447" lon="3.12762">
        <ele>843.6</ele>
        <time>2019-04-19T12:31:55Z</time>
      </trkpt>
      <trkpt lat="44.12452" lon="3.12763">
        <ele>843.6</ele>
        <time>2019-04-19T12:31:56Z</time>
      </trkpt>
      <trkpt lat="44.12455" lon="3.12768">
        <ele>843.6</ele>
        <time>2019-04-19T12:31:57Z</time>
      </trkpt>
      <trkpt lat="44.1246" lon="3.12772">
        <ele>843.5</ele>
        <time>2019-04-19T12:31:58Z</time>
      </trkpt>
      <trkpt lat="44.12466" lon="3.12775">
        <ele>843.5</ele>
        <time>2019-04-19T12:31:59Z</time>
      </trkpt>
      <trkpt lat="44.12469" lon="3.12779">
        <ele>843.5</ele>
        <time>2019-04-19T12:32:00Z</time>
      </trkpt>
      <trkpt lat="44.12473" lon="3.12781">
        <ele>843.4</ele>
        <time>2019-04-19T12:32:01Z</time>
      </trkpt>
      <trkpt lat="44.12477" lon="3.12782">
        <ele>843.4</ele>
        <time>2019-04-19T12:32:02Z</time>
      </trkpt>
      <trkpt lat="44.12481" lon="3.12783">
        <ele>843.4</ele>
        <time>2019-04-19T12:32:03Z</time>
      </trkpt>
      <trkpt lat="44.12484" lon="3.12781">
        <ele>843.4</ele>
        <time>2019-04-19T12:32:04Z</time>
      </trkpt>
      <trkpt lat="44.12488" lon="3.12779">
        <ele>843.3</ele>
        <time>2019-04-19T12:32:05Z</time>
      </trkpt>
      <trkpt lat="44.12492" lon="3.12776">
        <ele>843.3</ele>
        <time>2019-04-19T12:32:06Z</time>
      </trkpt>
      <trkpt lat="44.12496" lon="3.12771">
        <ele>843.3</ele>
        <time>2019-04-19T12:32:07Z</time>
      </trkpt>
      <trkpt lat="44.12499" lon="3.12772">
        <ele>843.3</ele>
        <time>2019-04-19T12:32:08Z</time>
      </trkpt>
      <trkpt lat="44.12504" lon="3.12773">
        <ele>843.1</ele>
        <time>2019-04-19T12:32:09Z</time>
      </trkpt>
      <trkpt lat="44.12509" lon="3.12769">
        <ele>842.9</ele>
        <time>2019-04-19T12:32:10Z</time>
      </trkpt>
      <trkpt lat="44.12512" lon="3.12765">
        <ele>842.6</ele>
        <time>2019-04-19T12:32:11Z</time>
      </trkpt>
      <trkpt lat="44.12516" lon="3.12762">
        <ele>842.3</ele>
        <time>2019-04-19T12:32:12Z</time>
      </trkpt>
      <trkpt lat="44.12519" lon="3.12761">
        <ele>842</ele>
        <time>2019-04-19T12:32:13Z</time>
      </trkpt>
      <trkpt lat="44.12523" lon="3.12762">
        <ele>841.8</ele>
        <time>2019-04-19T12:32:14Z</time>
      </trkpt>
      <trkpt lat="44.12526" lon="3.12766">
        <ele>841.5</ele>
        <time>2019-04-19T12:32:15Z</time>
      </trkpt>
      <trkpt lat="44.12529" lon="3.12771">
        <ele>841.1</ele>
        <time>2019-04-19T12:32:16Z</time>
      </trkpt>
      <trkpt lat="44.12532" lon="3.12776">
        <ele>840.7</ele>
        <time>2019-04-19T12:32:17Z</time>
      </trkpt>
      <trkpt lat="44.12537" lon="3.12791">
        <ele>839.7</ele>
        <time>2019-04-19T12:32:18Z</time>
      </trkpt>
      <trkpt lat="44.12538" lon="3.12801">
        <ele>839.3</ele>
        <time>2019-04-19T12:32:19Z</time>
      </trkpt>
      <trkpt lat="44.12539" lon="3.12808">
        <ele>839</ele>
        <time>2019-04-19T12:32:20Z</time>
      </trkpt>
      <trkpt lat="44.12541" lon="3.12816">
        <ele>838.7</ele>
        <time>2019-04-19T12:32:21Z</time>
      </trkpt>
      <trkpt lat="44.12546" lon="3.12824">
        <ele>838.2</ele>
        <time>2019-04-19T12:32:22Z</time>
      </trkpt>
      <trkpt lat="44.12551" lon="3.1283">
        <ele>837.8</ele>
        <time>2019-04-19T12:32:23Z</time>
      </trkpt>
      <trkpt lat="44.12557" lon="3.1284">
        <ele>837.3</ele>
        <time>2019-04-19T12:32:24Z</time>
      </trkpt>
      <trkpt lat="44.12561" lon="3.12848">
        <ele>836.9</ele>
        <time>2019-04-19T12:32:25Z</time>
      </trkpt>
      <trkpt lat="44.12566" lon="3.12855">
        <ele>836.5</ele>
        <time>2019-04-19T12:32:26Z</time>
      </trkpt>
      <trkpt lat="44.12572" lon="3.12864">
        <ele>835.9</ele>
        <time>2019-04-19T12:32:27Z</time>
      </trkpt>
      <trkpt lat="44.12578" lon="3.12872">
        <ele>835.1</ele>
        <time>2019-04-19T12:32:28Z</time>
      </trkpt>
      <trkpt lat="44.12584" lon="3.12881">
        <ele>834.4</ele>
        <time>2019-04-19T12:32:29Z</time>
      </trkpt>
      <trkpt lat="44.12591" lon="3.12892">
        <ele>833.8</ele>
        <time>2019-04-19T12:32:30Z</time>
      </trkpt>
      <trkpt lat="44.12597" lon="3.12902">
        <ele>833.2</ele>
        <time>2019-04-19T12:32:31Z</time>
      </trkpt>
      <trkpt lat="44.12606" lon="3.12908">
        <ele>832.5</ele>
        <time>2019-04-19T12:32:32Z</time>
      </trkpt>
      <trkpt lat="44.12613" lon="3.12919">
        <ele>832</ele>
        <time>2019-04-19T12:32:33Z</time>
      </trkpt>
      <trkpt lat="44.12621" lon="3.12921">
        <ele>831.7</ele>
        <time>2019-04-19T12:32:34Z</time>
      </trkpt>
      <trkpt lat="44.12628" lon="3.12927">
        <ele>831.5</ele>
        <time>2019-04-19T12:32:35Z</time>
      </trkpt>
      <trkpt lat="44.12635" lon="3.12932">
        <ele>831.2</ele>
        <time>2019-04-19T12:32:36Z</time>
      </trkpt>
      <trkpt lat="44.12639" lon="3.12933">
        <ele>831.1</ele>
        <time>2019-04-19T12:32:37Z</time>
      </trkpt>
      <trkpt lat="44.12642" lon="3.12938">
        <ele>831</ele>
        <time>2019-04-19T12:32:38Z</time>
      </trkpt>
      <trkpt lat="44.12645" lon="3.12945">
        <ele>830.9</ele>
        <time>2019-04-19T12:32:39Z</time>
      </trkpt>
      <trkpt lat="44.1265" lon="3.12952">
        <ele>830.8</ele>
        <time>2019-04-19T12:32:40Z</time>
      </trkpt>
      <trkpt lat="44.12653" lon="3.12957">
        <ele>830.7</ele>
        <time>2019-04-19T12:32:41Z</time>
      </trkpt>
      <trkpt lat="44.12655" lon="3.12962">
        <ele>830.6</ele>
        <time>2019-04-19T12:32:42Z</time>
      </trkpt>
      <trkpt lat="44.1266" lon="3.12974">
        <ele>830.3</ele>
        <time>2019-04-19T12:32:43Z</time>
      </trkpt>
      <trkpt lat="44.12666" lon="3.12983">
        <ele>829.8</ele>
        <time>2019-04-19T12:32:44Z</time>
      </trkpt>
      <trkpt lat="44.12669" lon="3.12995">
        <ele>829.3</ele>
        <time>2019-04-19T12:32:45Z</time>
      </trkpt>
      <trkpt lat="44.12671" lon="3.13003">
        <ele>828.8</ele>
        <time>2019-04-19T12:32:46Z</time>
      </trkpt>
      <trkpt lat="44.12671" lon="3.1301">
        <ele>828.4</ele>
        <time>2019-04-19T12:32:47Z</time>
      </trkpt>
      <trkpt lat="44.12676" lon="3.13018">
        <ele>827.6</ele>
        <time>2019-04-19T12:32:48Z</time>
      </trkpt>
      <trkpt lat="44.12682" lon="3.13026">
        <ele>826.7</ele>
        <time>2019-04-19T12:32:49Z</time>
      </trkpt>
      <trkpt lat="44.12689" lon="3.13033">
        <ele>825.9</ele>
        <time>2019-04-19T12:32:50Z</time>
      </trkpt>
      <trkpt lat="44.12695" lon="3.13036">
        <ele>824.3</ele>
        <time>2019-04-19T12:32:51Z</time>
      </trkpt>
      <trkpt lat="44.12699" lon="3.13039">
        <ele>824.1</ele>
        <time>2019-04-19T12:32:52Z</time>
      </trkpt>
      <trkpt lat="44.12704" lon="3.13041">
        <ele>824</ele>
        <time>2019-04-19T12:32:53Z</time>
      </trkpt>
      <trkpt lat="44.12709" lon="3.13045">
        <ele>823.8</ele>
        <time>2019-04-19T12:32:54Z</time>
      </trkpt>
      <trkpt lat="44.12716" lon="3.13039">
        <ele>823.5</ele>
        <time>2019-04-19T12:32:55Z</time>
      </trkpt>
      <trkpt lat="44.1272" lon="3.1304">
        <ele>823.4</ele>
        <time>2019-04-19T12:32:56Z</time>
      </trkpt>
      <trkpt lat="44.12725" lon="3.13039">
        <ele>823.3</ele>
        <time>2019-04-19T12:32:57Z</time>
      </trkpt>
      <trkpt lat="44.12729" lon="3.13039">
        <ele>823.2</ele>
        <time>2019-04-19T12:32:58Z</time>
      </trkpt>
      <trkpt lat="44.12737" lon="3.13032">
        <ele>823</ele>
        <time>2019-04-19T12:33:00Z</time>
      </trkpt>
      <trkpt lat="44.12742" lon="3.13031">
        <ele>822.8</ele>
        <time>2019-04-19T12:33:01Z</time>
      </trkpt>
      <trkpt lat="44.12748" lon="3.13024">
        <ele>822.7</ele>
        <time>2019-04-19T12:33:02Z</time>
      </trkpt>
      <trkpt lat="44.1275" lon="3.13026">
        <ele>822.6</ele>
        <time>2019-04-19T12:33:03Z</time>
      </trkpt>
      <trkpt lat="44.12755" lon="3.13025">
        <ele>822.5</ele>
        <time>2019-04-19T12:33:04Z</time>
      </trkpt>
      <trkpt lat="44.1276" lon="3.13024">
        <ele>822.4</ele>
        <time>2019-04-19T12:33:05Z</time>
      </trkpt>
      <trkpt lat="44.12765" lon="3.13021">
        <ele>822.2</ele>
        <time>2019-04-19T12:33:06Z</time>
      </trkpt>
      <trkpt lat="44.1277" lon="3.13018">
        <ele>822.1</ele>
        <time>2019-04-19T12:33:07Z</time>
      </trkpt>
      <trkpt lat="44.12776" lon="3.13015">
        <ele>821.9</ele>
        <time>2019-04-19T12:33:08Z</time>
      </trkpt>
      <trkpt lat="44.12784" lon="3.1301">
        <ele>821.6</ele>
        <time>2019-04-19T12:33:09Z</time>
      </trkpt>
      <trkpt lat="44.1279" lon="3.13002">
        <ele>821.4</ele>
        <time>2019-04-19T12:33:10Z</time>
      </trkpt>
      <trkpt lat="44.12793" lon="3.12997">
        <ele>821.2</ele>
        <time>2019-04-19T12:33:11Z</time>
      </trkpt>
      <trkpt lat="44.12794" lon="3.12989">
        <ele>821</ele>
        <time>2019-04-19T12:33:12Z</time>
      </trkpt>
      <trkpt lat="44.12798" lon="3.12977">
        <ele>820.5</ele>
        <time>2019-04-19T12:33:13Z</time>
      </trkpt>
      <trkpt lat="44.128" lon="3.12966">
        <ele>820</ele>
        <time>2019-04-19T12:33:14Z</time>
      </trkpt>
      <trkpt lat="44.12805" lon="3.12958">
        <ele>819.5</ele>
        <time>2019-04-19T12:33:15Z</time>
      </trkpt>
      <trkpt lat="44.12804" lon="3.1295">
        <ele>819.2</ele>
        <time>2019-04-19T12:33:16Z</time>
      </trkpt>
      <trkpt lat="44.12804" lon="3.12944">
        <ele>819</ele>
        <time>2019-04-19T12:33:17Z</time>
      </trkpt>
      <trkpt lat="44.12807" lon="3.12933">
        <ele>818.5</ele>
        <time>2019-04-19T12:33:18Z</time>
      </trkpt>
      <trkpt lat="44.12808" lon="3.12923">
        <ele>818</ele>
        <time>2019-04-19T12:33:19Z</time>
      </trkpt>
      <trkpt lat="44.1281" lon="3.12911">
        <ele>817.5</ele>
        <time>2019-04-19T12:33:20Z</time>
      </trkpt>
      <trkpt lat="44.12811" lon="3.12901">
        <ele>817.2</ele>
        <time>2019-04-19T12:33:21Z</time>
      </trkpt>
      <trkpt lat="44.12812" lon="3.12889">
        <ele>816.8</ele>
        <time>2019-04-19T12:33:22Z</time>
      </trkpt>
      <trkpt lat="44.12811" lon="3.12876">
        <ele>816.6</ele>
        <time>2019-04-19T12:33:23Z</time>
      </trkpt>
      <trkpt lat="44.12813" lon="3.12866">
        <ele>816.4</ele>
        <time>2019-04-19T12:33:24Z</time>
      </trkpt>
      <trkpt lat="44.12816" lon="3.12857">
        <ele>816.4</ele>
        <time>2019-04-19T12:33:25Z</time>
      </trkpt>
      <trkpt lat="44.12821" lon="3.12851">
        <ele>816.3</ele>
        <time>2019-04-19T12:33:26Z</time>
      </trkpt>
      <trkpt lat="44.12827" lon="3.12848">
        <ele>816.3</ele>
        <time>2019-04-19T12:33:27Z</time>
      </trkpt>
      <trkpt lat="44.12832" lon="3.12847">
        <ele>816.3</ele>
        <time>2019-04-19T12:33:28Z</time>
      </trkpt>
      <trkpt lat="44.12841" lon="3.12849">
        <ele>816.3</ele>
        <time>2019-04-19T12:33:29Z</time>
      </trkpt>
      <trkpt lat="44.12848" lon="3.12851">
        <ele>816.4</ele>
        <time>2019-04-19T12:33:30Z</time>
      </trkpt>
      <trkpt lat="44.12854" lon="3.12851">
        <ele>816.4</ele>
        <time>2019-04-19T12:33:31Z</time>
      </trkpt>
      <trkpt lat="44.1286" lon="3.12851">
        <ele>816.5</ele>
        <time>2019-04-19T12:33:32Z</time>
      </trkpt>
      <trkpt lat="44.12865" lon="3.12853">
        <ele>816.5</ele>
        <time>2019-04-19T12:33:33Z</time>
      </trkpt>
      <trkpt lat="44.12871" lon="3.12854">
        <ele>816.6</ele>
        <time>2019-04-19T12:33:34Z</time>
      </trkpt>
      <trkpt lat="44.12877" lon="3.12854">
        <ele>816.7</ele>
        <time>2019-04-19T12:33:35Z</time>
      </trkpt>
      <trkpt lat="44.12881" lon="3.12856">
        <ele>816.7</ele>
        <time>2019-04-19T12:33:36Z</time>
      </trkpt>
      <trkpt lat="44.12885" lon="3.12857">
        <ele>816.7</ele>
        <time>2019-04-19T12:33:37Z</time>
      </trkpt>
      <trkpt lat="44.12891" lon="3.12857">
        <ele>816.8</ele>
        <time>2019-04-19T12:33:38Z</time>
      </trkpt>
      <trkpt lat="44.12895" lon="3.12858">
        <ele>816.9</ele>
        <time>2019-04-19T12:33:39Z</time>
      </trkpt>
      <trkpt lat="44.12901" lon="3.12855">
        <ele>816.9</ele>
        <time>2019-04-19T12:33:40Z</time>
      </trkpt>
      <trkpt lat="44.12906" lon="3.12856">
        <ele>817</ele>
        <time>2019-04-19T12:33:41Z</time>
      </trkpt>
      <trkpt lat="44.12912" lon="3.1286">
        <ele>817</ele>
        <time>2019-04-19T12:33:42Z</time>
      </trkpt>
      <trkpt lat="44.12919" lon="3.12858">
        <ele>817.1</ele>
        <time>2019-04-19T12:33:43Z</time>
      </trkpt>
      <trkpt lat="44.12924" lon="3.1286">
        <ele>817.1</ele>
        <time>2019-04-19T12:33:44Z</time>
      </trkpt>
      <trkpt lat="44.12929" lon="3.1286">
        <ele>817.1</ele>
        <time>2019-04-19T12:33:45Z</time>
      </trkpt>
      <trkpt lat="44.12929" lon="3.12864">
        <ele>817.1</ele>
        <time>2019-04-19T12:33:46Z</time>
      </trkpt>
      <trkpt lat="44.12935" lon="3.12866">
        <ele>817.1</ele>
        <time>2019-04-19T12:33:48Z</time>
      </trkpt>
      <trkpt lat="44.12941" lon="3.12869">
        <ele>817.2</ele>
        <time>2019-04-19T12:33:49Z</time>
      </trkpt>
      <trkpt lat="44.12949" lon="3.12871">
        <ele>817.1</ele>
        <time>2019-04-19T12:33:51Z</time>
      </trkpt>
      <trkpt lat="44.12956" lon="3.12871">
        <ele>817.1</ele>
        <time>2019-04-19T12:33:52Z</time>
      </trkpt>
      <trkpt lat="44.12961" lon="3.12875">
        <ele>817</ele>
        <time>2019-04-19T12:33:54Z</time>
      </trkpt>
      <trkpt lat="44.12966" lon="3.12877">
        <ele>817</ele>
        <time>2019-04-19T12:33:55Z</time>
      </trkpt>
      <trkpt lat="44.12971" lon="3.12879">
        <ele>816.9</ele>
        <time>2019-04-19T12:33:56Z</time>
      </trkpt>
      <trkpt lat="44.12975" lon="3.12885">
        <ele>816.5</ele>
        <time>2019-04-19T12:33:57Z</time>
      </trkpt>
      <trkpt lat="44.12978" lon="3.12889">
        <ele>816.4</ele>
        <time>2019-04-19T12:33:58Z</time>
      </trkpt>
      <trkpt lat="44.12982" lon="3.12898">
        <ele>816.2</ele>
        <time>2019-04-19T12:33:59Z</time>
      </trkpt>
      <trkpt lat="44.12986" lon="3.12903">
        <ele>816.1</ele>
        <time>2019-04-19T12:34:00Z</time>
      </trkpt>
      <trkpt lat="44.12985" lon="3.12909">
        <ele>816</ele>
        <time>2019-04-19T12:34:01Z</time>
      </trkpt>
      <trkpt lat="44.12988" lon="3.1292">
        <ele>815.9</ele>
        <time>2019-04-19T12:34:02Z</time>
      </trkpt>
      <trkpt lat="44.1299" lon="3.12927">
        <ele>815.8</ele>
        <time>2019-04-19T12:34:03Z</time>
      </trkpt>
      <trkpt lat="44.12992" lon="3.12933">
        <ele>815.7</ele>
        <time>2019-04-19T12:34:04Z</time>
      </trkpt>
      <trkpt lat="44.12994" lon="3.12939">
        <ele>815.6</ele>
        <time>2019-04-19T12:34:05Z</time>
      </trkpt>
      <trkpt lat="44.12995" lon="3.12945">
        <ele>815.6</ele>
        <time>2019-04-19T12:34:06Z</time>
      </trkpt>
      <trkpt lat="44.12993" lon="3.12948">
        <ele>815.6</ele>
        <time>2019-04-19T12:34:10Z</time>
      </trkpt>
      <trkpt lat="44.12997" lon="3.12942">
        <ele>815.5</ele>
        <time>2019-04-19T12:34:15Z</time>
      </trkpt>
      <trkpt lat="44.12997" lon="3.12938">
        <ele>815.5</ele>
        <time>2019-04-19T12:34:16Z</time>
      </trkpt>
      <trkpt lat="44.12996" lon="3.12932">
        <ele>815.5</ele>
        <time>2019-04-19T12:34:18Z</time>
      </trkpt>
      <trkpt lat="44.12995" lon="3.12928">
        <ele>815.5</ele>
        <time>2019-04-19T12:34:19Z</time>
      </trkpt>
      <trkpt lat="44.12994" lon="3.12924">
        <ele>815.5</ele>
        <time>2019-04-19T12:34:20Z</time>
      </trkpt>
      <trkpt lat="44.12993" lon="3.1292">
        <ele>815.4</ele>
        <time>2019-04-19T12:34:21Z</time>
      </trkpt>
      <trkpt lat="44.12992" lon="3.12916">
        <ele>815.4</ele>
        <time>2019-04-19T12:34:22Z</time>
      </trkpt>
      <trkpt lat="44.12992" lon="3.12912">
        <ele>815.4</ele>
        <time>2019-04-19T12:34:23Z</time>
      </trkpt>
      <trkpt lat="44.12991" lon="3.12906">
        <ele>815.4</ele>
        <time>2019-04-19T12:34:25Z</time>
      </trkpt>
      <trkpt lat="44.12994" lon="3.12909">
        <ele>815.4</ele>
        <time>2019-04-19T12:34:28Z</time>
      </trkpt>
      <trkpt lat="44.12996" lon="3.12913">
        <ele>815.4</ele>
        <time>2019-04-19T12:34:29Z</time>
      </trkpt>
      <trkpt lat="44.12998" lon="3.12917">
        <ele>815.4</ele>
        <time>2019-04-19T12:34:30Z</time>
      </trkpt>
      <trkpt lat="44.13001" lon="3.12924">
        <ele>815.4</ele>
        <time>2019-04-19T12:34:31Z</time>
      </trkpt>
      <trkpt lat="44.13006" lon="3.12937">
        <ele>815.4</ele>
        <time>2019-04-19T12:34:32Z</time>
      </trkpt>
      <trkpt lat="44.13008" lon="3.12943">
        <ele>815.4</ele>
        <time>2019-04-19T12:34:33Z</time>
      </trkpt>
      <trkpt lat="44.1301" lon="3.12948">
        <ele>815.4</ele>
        <time>2019-04-19T12:34:34Z</time>
      </trkpt>
      <trkpt lat="44.13014" lon="3.12955">
        <ele>815.4</ele>
        <time>2019-04-19T12:34:35Z</time>
      </trkpt>
      <trkpt lat="44.13018" lon="3.12959">
        <ele>815.2</ele>
        <time>2019-04-19T12:34:36Z</time>
      </trkpt>
      <trkpt lat="44.13022" lon="3.12963">
        <ele>815</ele>
        <time>2019-04-19T12:34:37Z</time>
      </trkpt>
      <trkpt lat="44.13027" lon="3.12969">
        <ele>814.6</ele>
        <time>2019-04-19T12:34:38Z</time>
      </trkpt>
      <trkpt lat="44.13031" lon="3.12974">
        <ele>814.3</ele>
        <time>2019-04-19T12:34:39Z</time>
      </trkpt>
      <trkpt lat="44.13034" lon="3.12979">
        <ele>814.2</ele>
        <time>2019-04-19T12:34:40Z</time>
      </trkpt>
      <trkpt lat="44.13041" lon="3.12986">
        <ele>813.8</ele>
        <time>2019-04-19T12:34:41Z</time>
      </trkpt>
      <trkpt lat="44.13044" lon="3.12987">
        <ele>813.7</ele>
        <time>2019-04-19T12:34:42Z</time>
      </trkpt>
      <trkpt lat="44.13051" lon="3.12983">
        <ele>813.5</ele>
        <time>2019-04-19T12:34:43Z</time>
      </trkpt>
      <trkpt lat="44.13059" lon="3.12987">
        <ele>813</ele>
        <time>2019-04-19T12:34:44Z</time>
      </trkpt>
      <trkpt lat="44.13063" lon="3.12985">
        <ele>813</ele>
        <time>2019-04-19T12:34:45Z</time>
      </trkpt>
      <trkpt lat="44.13067" lon="3.12984">
        <ele>812.9</ele>
        <time>2019-04-19T12:34:46Z</time>
      </trkpt>
      <trkpt lat="44.13071" lon="3.1298">
        <ele>813.1</ele>
        <time>2019-04-19T12:34:47Z</time>
      </trkpt>
      <trkpt lat="44.13074" lon="3.12978">
        <ele>813.2</ele>
        <time>2019-04-19T12:34:48Z</time>
      </trkpt>
      <trkpt lat="44.1308" lon="3.12975">
        <ele>813.7</ele>
        <time>2019-04-19T12:34:49Z</time>
      </trkpt>
      <trkpt lat="44.13085" lon="3.12971">
        <ele>814.4</ele>
        <time>2019-04-19T12:34:50Z</time>
      </trkpt>
      <trkpt lat="44.13087" lon="3.12974">
        <ele>814.1</ele>
        <time>2019-04-19T12:34:51Z</time>
      </trkpt>
      <trkpt lat="44.13096" lon="3.12972">
        <ele>815.2</ele>
        <time>2019-04-19T12:34:53Z</time>
      </trkpt>
      <trkpt lat="44.13099" lon="3.12973">
        <ele>815.4</ele>
        <time>2019-04-19T12:34:54Z</time>
      </trkpt>
      <trkpt lat="44.13102" lon="3.12973">
        <ele>815.4</ele>
        <time>2019-04-19T12:34:55Z</time>
      </trkpt>
      <trkpt lat="44.13106" lon="3.12973">
        <ele>816.2</ele>
        <time>2019-04-19T12:34:56Z</time>
      </trkpt>
      <trkpt lat="44.13111" lon="3.12974">
        <ele>816.3</ele>
        <time>2019-04-19T12:34:57Z</time>
      </trkpt>
      <trkpt lat="44.13114" lon="3.12977">
        <ele>816.6</ele>
        <time>2019-04-19T12:34:58Z</time>
      </trkpt>
      <trkpt lat="44.13118" lon="3.12979">
        <ele>816.6</ele>
        <time>2019-04-19T12:34:59Z</time>
      </trkpt>
      <trkpt lat="44.13123" lon="3.12981">
        <ele>817.1</ele>
        <time>2019-04-19T12:35:00Z</time>
      </trkpt>
      <trkpt lat="44.13127" lon="3.12983">
        <ele>817.2</ele>
        <time>2019-04-19T12:35:01Z</time>
      </trkpt>
      <trkpt lat="44.13131" lon="3.12985">
        <ele>817.8</ele>
        <time>2019-04-19T12:35:02Z</time>
      </trkpt>
      <trkpt lat="44.13135" lon="3.12988">
        <ele>818</ele>
        <time>2019-04-19T12:35:03Z</time>
      </trkpt>
      <trkpt lat="44.13138" lon="3.12991">
        <ele>818.1</ele>
        <time>2019-04-19T12:35:04Z</time>
      </trkpt>
      <trkpt lat="44.13139" lon="3.12994">
        <ele>818.1</ele>
        <time>2019-04-19T12:35:05Z</time>
      </trkpt>
      <trkpt lat="44.13141" lon="3.12999">
        <ele>818.2</ele>
        <time>2019-04-19T12:35:06Z</time>
      </trkpt>
      <trkpt lat="44.13142" lon="3.13004">
        <ele>818.1</ele>
        <time>2019-04-19T12:35:07Z</time>
      </trkpt>
      <trkpt lat="44.13144" lon="3.1301">
        <ele>818.3</ele>
        <time>2019-04-19T12:35:08Z</time>
      </trkpt>
      <trkpt lat="44.13146" lon="3.13015">
        <ele>818.2</ele>
        <time>2019-04-19T12:35:09Z</time>
      </trkpt>
      <trkpt lat="44.13147" lon="3.1302">
        <ele>818.4</ele>
        <time>2019-04-19T12:35:10Z</time>
      </trkpt>
      <trkpt lat="44.13149" lon="3.13026">
        <ele>818.2</ele>
        <time>2019-04-19T12:35:11Z</time>
      </trkpt>
      <trkpt lat="44.1315" lon="3.13031">
        <ele>818.4</ele>
        <time>2019-04-19T12:35:12Z</time>
      </trkpt>
      <trkpt lat="44.13152" lon="3.13034">
        <ele>818.2</ele>
        <time>2019-04-19T12:35:13Z</time>
      </trkpt>
      <trkpt lat="44.13156" lon="3.1304">
        <ele>818.4</ele>
        <time>2019-04-19T12:35:15Z</time>
      </trkpt>
      <trkpt lat="44.13158" lon="3.13044">
        <ele>818.6</ele>
        <time>2019-04-19T12:35:16Z</time>
      </trkpt>
      <trkpt lat="44.13161" lon="3.13048">
        <ele>818.7</ele>
        <time>2019-04-19T12:35:17Z</time>
      </trkpt>
      <trkpt lat="44.13164" lon="3.13053">
        <ele>818.8</ele>
        <time>2019-04-19T12:35:18Z</time>
      </trkpt>
      <trkpt lat="44.13168" lon="3.13057">
        <ele>818.9</ele>
        <time>2019-04-19T12:35:19Z</time>
      </trkpt>
      <trkpt lat="44.13172" lon="3.13061">
        <ele>819.3</ele>
        <time>2019-04-19T12:35:20Z</time>
      </trkpt>
      <trkpt lat="44.13175" lon="3.13064">
        <ele>819.4</ele>
        <time>2019-04-19T12:35:21Z</time>
      </trkpt>
      <trkpt lat="44.13177" lon="3.13067">
        <ele>819.4</ele>
        <time>2019-04-19T12:35:22Z</time>
      </trkpt>
      <trkpt lat="44.13179" lon="3.13069">
        <ele>819.5</ele>
        <time>2019-04-19T12:35:23Z</time>
      </trkpt>
      <trkpt lat="44.13181" lon="3.13073">
        <ele>819.6</ele>
        <time>2019-04-19T12:35:24Z</time>
      </trkpt>
      <trkpt lat="44.13184" lon="3.13078">
        <ele>819.7</ele>
        <time>2019-04-19T12:35:25Z</time>
      </trkpt>
      <trkpt lat="44.13199" lon="3.13103">
        <ele>819.9</ele>
        <time>2019-04-19T12:35:27Z</time>
      </trkpt>
      <trkpt lat="44.13193" lon="3.13103">
        <ele>819.4</ele>
        <time>2019-04-19T12:35:29Z</time>
      </trkpt>
      <trkpt lat="44.13189" lon="3.13107">
        <ele>818.7</ele>
        <time>2019-04-19T12:35:30Z</time>
      </trkpt>
      <trkpt lat="44.13187" lon="3.13112">
        <ele>818.4</ele>
        <time>2019-04-19T12:35:31Z</time>
      </trkpt>
      <trkpt lat="44.13188" lon="3.13119">
        <ele>817.9</ele>
        <time>2019-04-19T12:35:32Z</time>
      </trkpt>
      <trkpt lat="44.13187" lon="3.13123">
        <ele>817.9</ele>
        <time>2019-04-19T12:35:33Z</time>
      </trkpt>
      <trkpt lat="44.13184" lon="3.13128">
        <ele>817.2</ele>
        <time>2019-04-19T12:35:35Z</time>
      </trkpt>
      <trkpt lat="44.13182" lon="3.13132">
        <ele>816.9</ele>
        <time>2019-04-19T12:35:36Z</time>
      </trkpt>
      <trkpt lat="44.1318" lon="3.13134">
        <ele>816.7</ele>
        <time>2019-04-19T12:35:37Z</time>
      </trkpt>
      <trkpt lat="44.1318" lon="3.13141">
        <ele>815.8</ele>
        <time>2019-04-19T12:35:38Z</time>
      </trkpt>
      <trkpt lat="44.13179" lon="3.13147">
        <ele>815.5</ele>
        <time>2019-04-19T12:35:39Z</time>
      </trkpt>
      <trkpt lat="44.13178" lon="3.13152">
        <ele>815.3</ele>
        <time>2019-04-19T12:35:40Z</time>
      </trkpt>
      <trkpt lat="44.13177" lon="3.13157">
        <ele>814.7</ele>
        <time>2019-04-19T12:35:41Z</time>
      </trkpt>
      <trkpt lat="44.13175" lon="3.13162">
        <ele>814.3</ele>
        <time>2019-04-19T12:35:42Z</time>
      </trkpt>
      <trkpt lat="44.13174" lon="3.13169">
        <ele>814.1</ele>
        <time>2019-04-19T12:35:43Z</time>
      </trkpt>
      <trkpt lat="44.13176" lon="3.13187">
        <ele>813.5</ele>
        <time>2019-04-19T12:35:44Z</time>
      </trkpt>
      <trkpt lat="44.13176" lon="3.13194">
        <ele>813.3</ele>
        <time>2019-04-19T12:35:45Z</time>
      </trkpt>
      <trkpt lat="44.13176" lon="3.13203">
        <ele>813.1</ele>
        <time>2019-04-19T12:35:46Z</time>
      </trkpt>
      <trkpt lat="44.13173" lon="3.13213">
        <ele>812.6</ele>
        <time>2019-04-19T12:35:47Z</time>
      </trkpt>
      <trkpt lat="44.13171" lon="3.13221">
        <ele>812.1</ele>
        <time>2019-04-19T12:35:48Z</time>
      </trkpt>
      <trkpt lat="44.13171" lon="3.13228">
        <ele>812</ele>
        <time>2019-04-19T12:35:49Z</time>
      </trkpt>
      <trkpt lat="44.1317" lon="3.13235">
        <ele>812</ele>
        <time>2019-04-19T12:35:50Z</time>
      </trkpt>
      <trkpt lat="44.13169" lon="3.13242">
        <ele>811.9</ele>
        <time>2019-04-19T12:35:51Z</time>
      </trkpt>
      <trkpt lat="44.13167" lon="3.13252">
        <ele>811.7</ele>
        <time>2019-04-19T12:35:52Z</time>
      </trkpt>
      <trkpt lat="44.13169" lon="3.1326">
        <ele>811.9</ele>
        <time>2019-04-19T12:35:53Z</time>
      </trkpt>
      <trkpt lat="44.13169" lon="3.1327">
        <ele>811.9</ele>
        <time>2019-04-19T12:35:54Z</time>
      </trkpt>
      <trkpt lat="44.13169" lon="3.13277">
        <ele>811.9</ele>
        <time>2019-04-19T12:35:55Z</time>
      </trkpt>
      <trkpt lat="44.13166" lon="3.13284">
        <ele>811.7</ele>
        <time>2019-04-19T12:35:56Z</time>
      </trkpt>
      <trkpt lat="44.13165" lon="3.13293">
        <ele>811.7</ele>
        <time>2019-04-19T12:35:58Z</time>
      </trkpt>
      <trkpt lat="44.13163" lon="3.13304">
        <ele>811.7</ele>
        <time>2019-04-19T12:35:59Z</time>
      </trkpt>
      <trkpt lat="44.13162" lon="3.13307">
        <ele>811.6</ele>
        <time>2019-04-19T12:36:00Z</time>
      </trkpt>
      <trkpt lat="44.13158" lon="3.13311">
        <ele>811.6</ele>
        <time>2019-04-19T12:36:02Z</time>
      </trkpt>
      <trkpt lat="44.13157" lon="3.13316">
        <ele>811.7</ele>
        <time>2019-04-19T12:36:03Z</time>
      </trkpt>
      <trkpt lat="44.13157" lon="3.13331">
        <ele>811.8</ele>
        <time>2019-04-19T12:36:04Z</time>
      </trkpt>
      <trkpt lat="44.13157" lon="3.1334">
        <ele>811.9</ele>
        <time>2019-04-19T12:36:05Z</time>
      </trkpt>
      <trkpt lat="44.13155" lon="3.13348">
        <ele>812</ele>
        <time>2019-04-19T12:36:06Z</time>
      </trkpt>
      <trkpt lat="44.13155" lon="3.13355">
        <ele>812.1</ele>
        <time>2019-04-19T12:36:07Z</time>
      </trkpt>
      <trkpt lat="44.13155" lon="3.13363">
        <ele>812.1</ele>
        <time>2019-04-19T12:36:08Z</time>
      </trkpt>
      <trkpt lat="44.13153" lon="3.13368">
        <ele>812.2</ele>
        <time>2019-04-19T12:36:09Z</time>
      </trkpt>
      <trkpt lat="44.13152" lon="3.13377">
        <ele>812.3</ele>
        <time>2019-04-19T12:36:10Z</time>
      </trkpt>
      <trkpt lat="44.13153" lon="3.13385">
        <ele>812.3</ele>
        <time>2019-04-19T12:36:11Z</time>
      </trkpt>
      <trkpt lat="44.13155" lon="3.13394">
        <ele>812.4</ele>
        <time>2019-04-19T12:36:12Z</time>
      </trkpt>
      <trkpt lat="44.13155" lon="3.13401">
        <ele>812.4</ele>
        <time>2019-04-19T12:36:13Z</time>
      </trkpt>
      <trkpt lat="44.13156" lon="3.13411">
        <ele>812.4</ele>
        <time>2019-04-19T12:36:14Z</time>
      </trkpt>
      <trkpt lat="44.13157" lon="3.13418">
        <ele>812.4</ele>
        <time>2019-04-19T12:36:15Z</time>
      </trkpt>
      <trkpt lat="44.13158" lon="3.13424">
        <ele>812.4</ele>
        <time>2019-04-19T12:36:16Z</time>
      </trkpt>
      <trkpt lat="44.13157" lon="3.13432">
        <ele>812.4</ele>
        <time>2019-04-19T12:36:17Z</time>
      </trkpt>
      <trkpt lat="44.1316" lon="3.13436">
        <ele>812.4</ele>
        <time>2019-04-19T12:36:18Z</time>
      </trkpt>
      <trkpt lat="44.13163" lon="3.13439">
        <ele>812.3</ele>
        <time>2019-04-19T12:36:20Z</time>
      </trkpt>
      <trkpt lat="44.13169" lon="3.13445">
        <ele>812.2</ele>
        <time>2019-04-19T12:36:22Z</time>
      </trkpt>
      <trkpt lat="44.13172" lon="3.13448">
        <ele>812.2</ele>
        <time>2019-04-19T12:36:24Z</time>
      </trkpt>
      <trkpt lat="44.13176" lon="3.13449">
        <ele>812.2</ele>
        <time>2019-04-19T12:36:26Z</time>
      </trkpt>
      <trkpt lat="44.13182" lon="3.13449">
        <ele>812.3</ele>
        <time>2019-04-19T12:36:28Z</time>
      </trkpt>
      <trkpt lat="44.13186" lon="3.13449">
        <ele>812.3</ele>
        <time>2019-04-19T12:36:29Z</time>
      </trkpt>
      <trkpt lat="44.1319" lon="3.13449">
        <ele>812.4</ele>
        <time>2019-04-19T12:36:30Z</time>
      </trkpt>
      <trkpt lat="44.13194" lon="3.13449">
        <ele>812.4</ele>
        <time>2019-04-19T12:36:31Z</time>
      </trkpt>
      <trkpt lat="44.13198" lon="3.13448">
        <ele>812.5</ele>
        <time>2019-04-19T12:36:32Z</time>
      </trkpt>
      <trkpt lat="44.13201" lon="3.13447">
        <ele>812.5</ele>
        <time>2019-04-19T12:36:33Z</time>
      </trkpt>
      <trkpt lat="44.13203" lon="3.13451">
        <ele>812.6</ele>
        <time>2019-04-19T12:36:40Z</time>
      </trkpt>
      <trkpt lat="44.13203" lon="3.13454">
        <ele>812.6</ele>
        <time>2019-04-19T12:36:45Z</time>
      </trkpt>
      <trkpt lat="44.13209" lon="3.13457">
        <ele>812.7</ele>
        <time>2019-04-19T12:38:38Z</time>
      </trkpt>
      <trkpt lat="44.13212" lon="3.13457">
        <ele>812.8</ele>
        <time>2019-04-19T12:38:41Z</time>
      </trkpt>
      <trkpt lat="44.13214" lon="3.13455">
        <ele>812.9</ele>
        <time>2019-04-19T12:38:43Z</time>
      </trkpt>
      <trkpt lat="44.1322" lon="3.13452">
        <ele>813</ele>
        <time>2019-04-19T12:38:45Z</time>
      </trkpt>
      <trkpt lat="44.13222" lon="3.13452">
        <ele>813.1</ele>
        <time>2019-04-19T12:38:46Z</time>
      </trkpt>
      <trkpt lat="44.13227" lon="3.1345">
        <ele>813.2</ele>
        <time>2019-04-19T12:38:48Z</time>
      </trkpt>
      <trkpt lat="44.13233" lon="3.13451">
        <ele>813.4</ele>
        <time>2019-04-19T12:38:50Z</time>
      </trkpt>
      <trkpt lat="44.13238" lon="3.13453">
        <ele>813.6</ele>
        <time>2019-04-19T12:38:52Z</time>
      </trkpt>
      <trkpt lat="44.1324" lon="3.13453">
        <ele>813.7</ele>
        <time>2019-04-19T12:38:53Z</time>
      </trkpt>
      <trkpt lat="44.13244" lon="3.13452">
        <ele>813.8</ele>
        <time>2019-04-19T12:38:54Z</time>
      </trkpt>
      <trkpt lat="44.13247" lon="3.13451">
        <ele>814.1</ele>
        <time>2019-04-19T12:38:55Z</time>
      </trkpt>
      <trkpt lat="44.13251" lon="3.13449">
        <ele>814.3</ele>
        <time>2019-04-19T12:38:56Z</time>
      </trkpt>
      <trkpt lat="44.13254" lon="3.13448">
        <ele>814.5</ele>
        <time>2019-04-19T12:38:57Z</time>
      </trkpt>
      <trkpt lat="44.13258" lon="3.13447">
        <ele>814.7</ele>
        <time>2019-04-19T12:38:58Z</time>
      </trkpt>
      <trkpt lat="44.13262" lon="3.13447">
        <ele>814.9</ele>
        <time>2019-04-19T12:38:59Z</time>
      </trkpt>
      <trkpt lat="44.13265" lon="3.13446">
        <ele>815.2</ele>
        <time>2019-04-19T12:39:00Z</time>
      </trkpt>
      <trkpt lat="44.13268" lon="3.13446">
        <ele>815.4</ele>
        <time>2019-04-19T12:39:01Z</time>
      </trkpt>
      <trkpt lat="44.13273" lon="3.13445">
        <ele>815.6</ele>
        <time>2019-04-19T12:39:03Z</time>
      </trkpt>
      <trkpt lat="44.13278" lon="3.13443">
        <ele>815.8</ele>
        <time>2019-04-19T12:39:05Z</time>
      </trkpt>
      <trkpt lat="44.13282" lon="3.13443">
        <ele>816</ele>
        <time>2019-04-19T12:39:06Z</time>
      </trkpt>
      <trkpt lat="44.13286" lon="3.13442">
        <ele>816.1</ele>
        <time>2019-04-19T12:39:07Z</time>
      </trkpt>
      <trkpt lat="44.13291" lon="3.13441">
        <ele>816.3</ele>
        <time>2019-04-19T12:39:09Z</time>
      </trkpt>
      <trkpt lat="44.13294" lon="3.13441">
        <ele>816.4</ele>
        <time>2019-04-19T12:39:10Z</time>
      </trkpt>
      <trkpt lat="44.13297" lon="3.1344">
        <ele>816.5</ele>
        <time>2019-04-19T12:39:11Z</time>
      </trkpt>
      <trkpt lat="44.13302" lon="3.13438">
        <ele>816.7</ele>
        <time>2019-04-19T12:39:13Z</time>
      </trkpt>
      <trkpt lat="44.13306" lon="3.13435">
        <ele>816.9</ele>
        <time>2019-04-19T12:39:15Z</time>
      </trkpt>
      <trkpt lat="44.13309" lon="3.13433">
        <ele>817</ele>
        <time>2019-04-19T12:39:16Z</time>
      </trkpt>
      <trkpt lat="44.13312" lon="3.13431">
        <ele>817.2</ele>
        <time>2019-04-19T12:39:17Z</time>
      </trkpt>
      <trkpt lat="44.13315" lon="3.13428">
        <ele>817.5</ele>
        <time>2019-04-19T12:39:18Z</time>
      </trkpt>
      <trkpt lat="44.13318" lon="3.13427">
        <ele>817.7</ele>
        <time>2019-04-19T12:39:19Z</time>
      </trkpt>
      <trkpt lat="44.13321" lon="3.13426">
        <ele>817.8</ele>
        <time>2019-04-19T12:39:20Z</time>
      </trkpt>
      <trkpt lat="44.13325" lon="3.13425">
        <ele>818</ele>
        <time>2019-04-19T12:39:21Z</time>
      </trkpt>
      <trkpt lat="44.13328" lon="3.13424">
        <ele>818.2</ele>
        <time>2019-04-19T12:39:22Z</time>
      </trkpt>
      <trkpt lat="44.13334" lon="3.13425">
        <ele>818.8</ele>
        <time>2019-04-19T12:39:24Z</time>
      </trkpt>
      <trkpt lat="44.13337" lon="3.13426">
        <ele>819</ele>
        <time>2019-04-19T12:39:25Z</time>
      </trkpt>
      <trkpt lat="44.1334" lon="3.13426">
        <ele>819.2</ele>
        <time>2019-04-19T12:39:26Z</time>
      </trkpt>
      <trkpt lat="44.13343" lon="3.13427">
        <ele>819.4</ele>
        <time>2019-04-19T12:39:27Z</time>
      </trkpt>
      <trkpt lat="44.13347" lon="3.13428">
        <ele>819.6</ele>
        <time>2019-04-19T12:39:29Z</time>
      </trkpt>
      <trkpt lat="44.1335" lon="3.13432">
        <ele>819.9</ele>
        <time>2019-04-19T12:39:31Z</time>
      </trkpt>
      <trkpt lat="44.13354" lon="3.13434">
        <ele>820.2</ele>
        <time>2019-04-19T12:39:33Z</time>
      </trkpt>
      <trkpt lat="44.13357" lon="3.13433">
        <ele>820.4</ele>
        <time>2019-04-19T12:39:34Z</time>
      </trkpt>
      <trkpt lat="44.13361" lon="3.13433">
        <ele>820.6</ele>
        <time>2019-04-19T12:39:35Z</time>
      </trkpt>
      <trkpt lat="44.13365" lon="3.13432">
        <ele>820.9</ele>
        <time>2019-04-19T12:39:37Z</time>
      </trkpt>
      <trkpt lat="44.13369" lon="3.13434">
        <ele>821.1</ele>
        <time>2019-04-19T12:39:39Z</time>
      </trkpt>
      <trkpt lat="44.13372" lon="3.13436">
        <ele>821.4</ele>
        <time>2019-04-19T12:39:41Z</time>
      </trkpt>
      <trkpt lat="44.13377" lon="3.13439">
        <ele>821.8</ele>
        <time>2019-04-19T12:39:43Z</time>
      </trkpt>
      <trkpt lat="44.13379" lon="3.13441">
        <ele>822.1</ele>
        <time>2019-04-19T12:39:44Z</time>
      </trkpt>
      <trkpt lat="44.13382" lon="3.13444">
        <ele>822.4</ele>
        <time>2019-04-19T12:39:45Z</time>
      </trkpt>
      <trkpt lat="44.13384" lon="3.13448">
        <ele>822.7</ele>
        <time>2019-04-19T12:39:46Z</time>
      </trkpt>
      <trkpt lat="44.13386" lon="3.13452">
        <ele>823</ele>
        <time>2019-04-19T12:39:47Z</time>
      </trkpt>
      <trkpt lat="44.13388" lon="3.13455">
        <ele>823.3</ele>
        <time>2019-04-19T12:39:48Z</time>
      </trkpt>
      <trkpt lat="44.13391" lon="3.13459">
        <ele>823.6</ele>
        <time>2019-04-19T12:39:49Z</time>
      </trkpt>
      <trkpt lat="44.13393" lon="3.13463">
        <ele>824</ele>
        <time>2019-04-19T12:39:50Z</time>
      </trkpt>
      <trkpt lat="44.13396" lon="3.13466">
        <ele>823.9</ele>
        <time>2019-04-19T12:39:51Z</time>
      </trkpt>
      <trkpt lat="44.134" lon="3.13469">
        <ele>823.7</ele>
        <time>2019-04-19T12:39:52Z</time>
      </trkpt>
      <trkpt lat="44.13404" lon="3.13473">
        <ele>823.4</ele>
        <time>2019-04-19T12:39:53Z</time>
      </trkpt>
      <trkpt lat="44.13408" lon="3.13476">
        <ele>823.2</ele>
        <time>2019-04-19T12:39:54Z</time>
      </trkpt>
      <trkpt lat="44.13412" lon="3.13479">
        <ele>823</ele>
        <time>2019-04-19T12:39:55Z</time>
      </trkpt>
      <trkpt lat="44.13416" lon="3.13481">
        <ele>822.9</ele>
        <time>2019-04-19T12:39:56Z</time>
      </trkpt>
      <trkpt lat="44.13419" lon="3.13483">
        <ele>822.7</ele>
        <time>2019-04-19T12:39:57Z</time>
      </trkpt>
      <trkpt lat="44.13423" lon="3.13486">
        <ele>822.6</ele>
        <time>2019-04-19T12:39:58Z</time>
      </trkpt>
      <trkpt lat="44.13427" lon="3.13488">
        <ele>822.5</ele>
        <time>2019-04-19T12:39:59Z</time>
      </trkpt>
      <trkpt lat="44.13431" lon="3.13491">
        <ele>822.5</ele>
        <time>2019-04-19T12:40:00Z</time>
      </trkpt>
      <trkpt lat="44.13434" lon="3.13493">
        <ele>822.5</ele>
        <time>2019-04-19T12:40:01Z</time>
      </trkpt>
      <trkpt lat="44.13437" lon="3.13494">
        <ele>822.5</ele>
        <time>2019-04-19T12:40:02Z</time>
      </trkpt>
      <trkpt lat="44.1344" lon="3.13496">
        <ele>822.5</ele>
        <time>2019-04-19T12:40:03Z</time>
      </trkpt>
      <trkpt lat="44.13443" lon="3.13498">
        <ele>822.6</ele>
        <time>2019-04-19T12:40:04Z</time>
      </trkpt>
      <trkpt lat="44.13446" lon="3.135">
        <ele>822.7</ele>
        <time>2019-04-19T12:40:05Z</time>
      </trkpt>
      <trkpt lat="44.1345" lon="3.13503">
        <ele>822.8</ele>
        <time>2019-04-19T12:40:06Z</time>
      </trkpt>
      <trkpt lat="44.13454" lon="3.13506">
        <ele>823</ele>
        <time>2019-04-19T12:40:07Z</time>
      </trkpt>
      <trkpt lat="44.13459" lon="3.1351">
        <ele>823.3</ele>
        <time>2019-04-19T12:40:08Z</time>
      </trkpt>
      <trkpt lat="44.13464" lon="3.13513">
        <ele>823.5</ele>
        <time>2019-04-19T12:40:09Z</time>
      </trkpt>
      <trkpt lat="44.13469" lon="3.13515">
        <ele>823.7</ele>
        <time>2019-04-19T12:40:10Z</time>
      </trkpt>
      <trkpt lat="44.13476" lon="3.13517">
        <ele>823.8</ele>
        <time>2019-04-19T12:40:11Z</time>
      </trkpt>
      <trkpt lat="44.13482" lon="3.13518">
        <ele>823.8</ele>
        <time>2019-04-19T12:40:12Z</time>
      </trkpt>
      <trkpt lat="44.13487" lon="3.13518">
        <ele>823.9</ele>
        <time>2019-04-19T12:40:13Z</time>
      </trkpt>
      <trkpt lat="44.13493" lon="3.13517">
        <ele>823.8</ele>
        <time>2019-04-19T12:40:14Z</time>
      </trkpt>
      <trkpt lat="44.13498" lon="3.13516">
        <ele>823.8</ele>
        <time>2019-04-19T12:40:15Z</time>
      </trkpt>
      <trkpt lat="44.13504" lon="3.13515">
        <ele>823.7</ele>
        <time>2019-04-19T12:40:16Z</time>
      </trkpt>
      <trkpt lat="44.13509" lon="3.13514">
        <ele>823.6</ele>
        <time>2019-04-19T12:40:17Z</time>
      </trkpt>
      <trkpt lat="44.13514" lon="3.13513">
        <ele>823.4</ele>
        <time>2019-04-19T12:40:18Z</time>
      </trkpt>
      <trkpt lat="44.13518" lon="3.13514">
        <ele>823.2</ele>
        <time>2019-04-19T12:40:19Z</time>
      </trkpt>
      <trkpt lat="44.13523" lon="3.13515">
        <ele>823</ele>
        <time>2019-04-19T12:40:20Z</time>
      </trkpt>
      <trkpt lat="44.13528" lon="3.13516">
        <ele>822.9</ele>
        <time>2019-04-19T12:40:21Z</time>
      </trkpt>
      <trkpt lat="44.13532" lon="3.13515">
        <ele>822.7</ele>
        <time>2019-04-19T12:40:22Z</time>
      </trkpt>
      <trkpt lat="44.13536" lon="3.13513">
        <ele>822.6</ele>
        <time>2019-04-19T12:40:23Z</time>
      </trkpt>
      <trkpt lat="44.13541" lon="3.13511">
        <ele>822.6</ele>
        <time>2019-04-19T12:40:24Z</time>
      </trkpt>
      <trkpt lat="44.13545" lon="3.13508">
        <ele>822.6</ele>
        <time>2019-04-19T12:40:25Z</time>
      </trkpt>
      <trkpt lat="44.13549" lon="3.13505">
        <ele>822.6</ele>
        <time>2019-04-19T12:40:26Z</time>
      </trkpt>
      <trkpt lat="44.13552" lon="3.13502">
        <ele>822.7</ele>
        <time>2019-04-19T12:40:27Z</time>
      </trkpt>
      <trkpt lat="44.13555" lon="3.13499">
        <ele>822.7</ele>
        <time>2019-04-19T12:40:28Z</time>
      </trkpt>
      <trkpt lat="44.13558" lon="3.13496">
        <ele>822.8</ele>
        <time>2019-04-19T12:40:29Z</time>
      </trkpt>
      <trkpt lat="44.13561" lon="3.13494">
        <ele>822.9</ele>
        <time>2019-04-19T12:40:30Z</time>
      </trkpt>
      <trkpt lat="44.13564" lon="3.13491">
        <ele>822.9</ele>
        <time>2019-04-19T12:40:31Z</time>
      </trkpt>
      <trkpt lat="44.13567" lon="3.13489">
        <ele>823</ele>
        <time>2019-04-19T12:40:32Z</time>
      </trkpt>
      <trkpt lat="44.1357" lon="3.13487">
        <ele>823.1</ele>
        <time>2019-04-19T12:40:33Z</time>
      </trkpt>
      <trkpt lat="44.13573" lon="3.13484">
        <ele>823.3</ele>
        <time>2019-04-19T12:40:34Z</time>
      </trkpt>
      <trkpt lat="44.13576" lon="3.1348">
        <ele>823.4</ele>
        <time>2019-04-19T12:40:35Z</time>
      </trkpt>
      <trkpt lat="44.13579" lon="3.13478">
        <ele>823.5</ele>
        <time>2019-04-19T12:40:36Z</time>
      </trkpt>
      <trkpt lat="44.13582" lon="3.13475">
        <ele>823.6</ele>
        <time>2019-04-19T12:40:37Z</time>
      </trkpt>
      <trkpt lat="44.13585" lon="3.13473">
        <ele>823.7</ele>
        <time>2019-04-19T12:40:38Z</time>
      </trkpt>
      <trkpt lat="44.13588" lon="3.13472">
        <ele>823.8</ele>
        <time>2019-04-19T12:40:39Z</time>
      </trkpt>
      <trkpt lat="44.13591" lon="3.1347">
        <ele>823.9</ele>
        <time>2019-04-19T12:40:40Z</time>
      </trkpt>
      <trkpt lat="44.13594" lon="3.13468">
        <ele>824.1</ele>
        <time>2019-04-19T12:40:41Z</time>
      </trkpt>
      <trkpt lat="44.13597" lon="3.13465">
        <ele>824.3</ele>
        <time>2019-04-19T12:40:42Z</time>
      </trkpt>
      <trkpt lat="44.136" lon="3.13462">
        <ele>824.6</ele>
        <time>2019-04-19T12:40:43Z</time>
      </trkpt>
      <trkpt lat="44.13603" lon="3.13459">
        <ele>824.8</ele>
        <time>2019-04-19T12:40:44Z</time>
      </trkpt>
      <trkpt lat="44.13606" lon="3.13456">
        <ele>825</ele>
        <time>2019-04-19T12:40:45Z</time>
      </trkpt>
      <trkpt lat="44.1361" lon="3.13453">
        <ele>825.2</ele>
        <time>2019-04-19T12:40:46Z</time>
      </trkpt>
      <trkpt lat="44.13613" lon="3.1345">
        <ele>825.5</ele>
        <time>2019-04-19T12:40:47Z</time>
      </trkpt>
      <trkpt lat="44.13617" lon="3.13448">
        <ele>825.8</ele>
        <time>2019-04-19T12:40:48Z</time>
      </trkpt>
      <trkpt lat="44.1362" lon="3.13445">
        <ele>826</ele>
        <time>2019-04-19T12:40:49Z</time>
      </trkpt>
      <trkpt lat="44.13624" lon="3.13443">
        <ele>826.3</ele>
        <time>2019-04-19T12:40:50Z</time>
      </trkpt>
      <trkpt lat="44.13627" lon="3.13441">
        <ele>826.5</ele>
        <time>2019-04-19T12:40:51Z</time>
      </trkpt>
      <trkpt lat="44.1363" lon="3.13439">
        <ele>826.7</ele>
        <time>2019-04-19T12:40:52Z</time>
      </trkpt>
      <trkpt lat="44.13632" lon="3.13436">
        <ele>826.9</ele>
        <time>2019-04-19T12:40:53Z</time>
      </trkpt>
      <trkpt lat="44.13635" lon="3.13433">
        <ele>827.1</ele>
        <time>2019-04-19T12:40:54Z</time>
      </trkpt>
      <trkpt lat="44.13637" lon="3.13431">
        <ele>827.3</ele>
        <time>2019-04-19T12:40:55Z</time>
      </trkpt>
      <trkpt lat="44.13641" lon="3.13428">
        <ele>827.5</ele>
        <time>2019-04-19T12:40:56Z</time>
      </trkpt>
      <trkpt lat="44.13644" lon="3.13427">
        <ele>827.7</ele>
        <time>2019-04-19T12:40:57Z</time>
      </trkpt>
      <trkpt lat="44.13647" lon="3.13425">
        <ele>828</ele>
        <time>2019-04-19T12:40:58Z</time>
      </trkpt>
      <trkpt lat="44.13651" lon="3.13423">
        <ele>828.2</ele>
        <time>2019-04-19T12:40:59Z</time>
      </trkpt>
      <trkpt lat="44.13654" lon="3.13421">
        <ele>828.5</ele>
        <time>2019-04-19T12:41:00Z</time>
      </trkpt>
      <trkpt lat="44.13657" lon="3.13419">
        <ele>828.7</ele>
        <time>2019-04-19T12:41:01Z</time>
      </trkpt>
      <trkpt lat="44.1366" lon="3.13416">
        <ele>828.9</ele>
        <time>2019-04-19T12:41:02Z</time>
      </trkpt>
      <trkpt lat="44.13663" lon="3.13414">
        <ele>829.2</ele>
        <time>2019-04-19T12:41:03Z</time>
      </trkpt>
      <trkpt lat="44.13666" lon="3.13412">
        <ele>829.6</ele>
        <time>2019-04-19T12:41:04Z</time>
      </trkpt>
      <trkpt lat="44.13669" lon="3.1341">
        <ele>829.8</ele>
        <time>2019-04-19T12:41:05Z</time>
      </trkpt>
      <trkpt lat="44.13672" lon="3.13408">
        <ele>830</ele>
        <time>2019-04-19T12:41:06Z</time>
      </trkpt>
      <trkpt lat="44.13676" lon="3.13406">
        <ele>830.1</ele>
        <time>2019-04-19T12:41:07Z</time>
      </trkpt>
      <trkpt lat="44.13679" lon="3.13403">
        <ele>830.3</ele>
        <time>2019-04-19T12:41:08Z</time>
      </trkpt>
      <trkpt lat="44.13682" lon="3.13402">
        <ele>830.5</ele>
        <time>2019-04-19T12:41:09Z</time>
      </trkpt>
      <trkpt lat="44.13685" lon="3.134">
        <ele>830.7</ele>
        <time>2019-04-19T12:41:10Z</time>
      </trkpt>
      <trkpt lat="44.13688" lon="3.13398">
        <ele>830.9</ele>
        <time>2019-04-19T12:41:11Z</time>
      </trkpt>
      <trkpt lat="44.13691" lon="3.13396">
        <ele>831</ele>
        <time>2019-04-19T12:41:12Z</time>
      </trkpt>
      <trkpt lat="44.13693" lon="3.13394">
        <ele>831.2</ele>
        <time>2019-04-19T12:41:13Z</time>
      </trkpt>
      <trkpt lat="44.13696" lon="3.13392">
        <ele>831.4</ele>
        <time>2019-04-19T12:41:14Z</time>
      </trkpt>
      <trkpt lat="44.13701" lon="3.13389">
        <ele>831.7</ele>
        <time>2019-04-19T12:41:16Z</time>
      </trkpt>
      <trkpt lat="44.13704" lon="3.13387">
        <ele>831.9</ele>
        <time>2019-04-19T12:41:17Z</time>
      </trkpt>
      <trkpt lat="44.13707" lon="3.13385">
        <ele>832.1</ele>
        <time>2019-04-19T12:41:18Z</time>
      </trkpt>
      <trkpt lat="44.1371" lon="3.13383">
        <ele>832.4</ele>
        <time>2019-04-19T12:41:19Z</time>
      </trkpt>
      <trkpt lat="44.13712" lon="3.1338">
        <ele>832.6</ele>
        <time>2019-04-19T12:41:20Z</time>
      </trkpt>
      <trkpt lat="44.13715" lon="3.13377">
        <ele>832.8</ele>
        <time>2019-04-19T12:41:21Z</time>
      </trkpt>
      <trkpt lat="44.13717" lon="3.13374">
        <ele>833</ele>
        <time>2019-04-19T12:41:22Z</time>
      </trkpt>
      <trkpt lat="44.1372" lon="3.13372">
        <ele>833.3</ele>
        <time>2019-04-19T12:41:23Z</time>
      </trkpt>
      <trkpt lat="44.13723" lon="3.13369">
        <ele>833.7</ele>
        <time>2019-04-19T12:41:24Z</time>
      </trkpt>
      <trkpt lat="44.13726" lon="3.13367">
        <ele>834</ele>
        <time>2019-04-19T12:41:25Z</time>
      </trkpt>
      <trkpt lat="44.13728" lon="3.13365">
        <ele>834.2</ele>
        <time>2019-04-19T12:41:26Z</time>
      </trkpt>
      <trkpt lat="44.13731" lon="3.13364">
        <ele>834.5</ele>
        <time>2019-04-19T12:41:27Z</time>
      </trkpt>
      <trkpt lat="44.13735" lon="3.13361">
        <ele>834.9</ele>
        <time>2019-04-19T12:41:29Z</time>
      </trkpt>
      <trkpt lat="44.13738" lon="3.13359">
        <ele>835</ele>
        <time>2019-04-19T12:41:30Z</time>
      </trkpt>
      <trkpt lat="44.13741" lon="3.13357">
        <ele>835.2</ele>
        <time>2019-04-19T12:41:31Z</time>
      </trkpt>
      <trkpt lat="44.13743" lon="3.13355">
        <ele>835.4</ele>
        <time>2019-04-19T12:41:32Z</time>
      </trkpt>
      <trkpt lat="44.13746" lon="3.13353">
        <ele>835.5</ele>
        <time>2019-04-19T12:41:33Z</time>
      </trkpt>
      <trkpt lat="44.13751" lon="3.1335">
        <ele>835.9</ele>
        <time>2019-04-19T12:41:35Z</time>
      </trkpt>
      <trkpt lat="44.13753" lon="3.13348">
        <ele>836.1</ele>
        <time>2019-04-19T12:41:36Z</time>
      </trkpt>
      <trkpt lat="44.13756" lon="3.13346">
        <ele>836.3</ele>
        <time>2019-04-19T12:41:37Z</time>
      </trkpt>
      <trkpt lat="44.13759" lon="3.13344">
        <ele>836.5</ele>
        <time>2019-04-19T12:41:38Z</time>
      </trkpt>
      <trkpt lat="44.13761" lon="3.13342">
        <ele>836.7</ele>
        <time>2019-04-19T12:41:39Z</time>
      </trkpt>
      <trkpt lat="44.13764" lon="3.1334">
        <ele>836.9</ele>
        <time>2019-04-19T12:41:40Z</time>
      </trkpt>
      <trkpt lat="44.13768" lon="3.13337">
        <ele>837.2</ele>
        <time>2019-04-19T12:41:42Z</time>
      </trkpt>
      <trkpt lat="44.1377" lon="3.13334">
        <ele>837.4</ele>
        <time>2019-04-19T12:41:43Z</time>
      </trkpt>
      <trkpt lat="44.13775" lon="3.1333">
        <ele>837.7</ele>
        <time>2019-04-19T12:41:45Z</time>
      </trkpt>
      <trkpt lat="44.13777" lon="3.13328">
        <ele>837.8</ele>
        <time>2019-04-19T12:41:46Z</time>
      </trkpt>
      <trkpt lat="44.1378" lon="3.13326">
        <ele>838</ele>
        <time>2019-04-19T12:41:47Z</time>
      </trkpt>
      <trkpt lat="44.13784" lon="3.13323">
        <ele>838.3</ele>
        <time>2019-04-19T12:41:49Z</time>
      </trkpt>
      <trkpt lat="44.13787" lon="3.13321">
        <ele>838.6</ele>
        <time>2019-04-19T12:41:50Z</time>
      </trkpt>
      <trkpt lat="44.1379" lon="3.1332">
        <ele>838.8</ele>
        <time>2019-04-19T12:41:51Z</time>
      </trkpt>
      <trkpt lat="44.13795" lon="3.13316">
        <ele>839.3</ele>
        <time>2019-04-19T12:41:53Z</time>
      </trkpt>
      <trkpt lat="44.13797" lon="3.13315">
        <ele>839.5</ele>
        <time>2019-04-19T12:41:54Z</time>
      </trkpt>
      <trkpt lat="44.13802" lon="3.13311">
        <ele>839.9</ele>
        <time>2019-04-19T12:41:56Z</time>
      </trkpt>
      <trkpt lat="44.13804" lon="3.13308">
        <ele>840.2</ele>
        <time>2019-04-19T12:41:57Z</time>
      </trkpt>
      <trkpt lat="44.13807" lon="3.13306">
        <ele>840.3</ele>
        <time>2019-04-19T12:41:58Z</time>
      </trkpt>
      <trkpt lat="44.13809" lon="3.13303">
        <ele>840.5</ele>
        <time>2019-04-19T12:41:59Z</time>
      </trkpt>
      <trkpt lat="44.13811" lon="3.133">
        <ele>840.6</ele>
        <time>2019-04-19T12:42:00Z</time>
      </trkpt>
      <trkpt lat="44.13814" lon="3.13295">
        <ele>840.9</ele>
        <time>2019-04-19T12:42:02Z</time>
      </trkpt>
      <trkpt lat="44.13818" lon="3.1329">
        <ele>841.2</ele>
        <time>2019-04-19T12:42:04Z</time>
      </trkpt>
      <trkpt lat="44.13821" lon="3.13284">
        <ele>841.5</ele>
        <time>2019-04-19T12:42:06Z</time>
      </trkpt>
      <trkpt lat="44.13823" lon="3.13281">
        <ele>841.7</ele>
        <time>2019-04-19T12:42:07Z</time>
      </trkpt>
      <trkpt lat="44.13824" lon="3.13277">
        <ele>841.8</ele>
        <time>2019-04-19T12:42:08Z</time>
      </trkpt>
      <trkpt lat="44.13826" lon="3.13274">
        <ele>841.9</ele>
        <time>2019-04-19T12:42:09Z</time>
      </trkpt>
      <trkpt lat="44.13827" lon="3.1327">
        <ele>842</ele>
        <time>2019-04-19T12:42:10Z</time>
      </trkpt>
      <trkpt lat="44.13828" lon="3.13266">
        <ele>842.2</ele>
        <time>2019-04-19T12:42:11Z</time>
      </trkpt>
      <trkpt lat="44.13829" lon="3.13262">
        <ele>842.3</ele>
        <time>2019-04-19T12:42:12Z</time>
      </trkpt>
      <trkpt lat="44.1383" lon="3.13258">
        <ele>842.4</ele>
        <time>2019-04-19T12:42:13Z</time>
      </trkpt>
      <trkpt lat="44.13833" lon="3.13251">
        <ele>842.6</ele>
        <time>2019-04-19T12:42:15Z</time>
      </trkpt>
      <trkpt lat="44.13834" lon="3.13248">
        <ele>842.6</ele>
        <time>2019-04-19T12:42:16Z</time>
      </trkpt>
      <trkpt lat="44.13836" lon="3.13241">
        <ele>842.7</ele>
        <time>2019-04-19T12:42:18Z</time>
      </trkpt>
      <trkpt lat="44.13838" lon="3.13237">
        <ele>842.8</ele>
        <time>2019-04-19T12:42:19Z</time>
      </trkpt>
      <trkpt lat="44.13839" lon="3.13233">
        <ele>842.9</ele>
        <time>2019-04-19T12:42:20Z</time>
      </trkpt>
      <trkpt lat="44.1384" lon="3.13229">
        <ele>842.9</ele>
        <time>2019-04-19T12:42:21Z</time>
      </trkpt>
      <trkpt lat="44.13841" lon="3.13223">
        <ele>842.9</ele>
        <time>2019-04-19T12:42:22Z</time>
      </trkpt>
      <trkpt lat="44.13843" lon="3.13219">
        <ele>843</ele>
        <time>2019-04-19T12:42:23Z</time>
      </trkpt>
      <trkpt lat="44.13844" lon="3.13214">
        <ele>843</ele>
        <time>2019-04-19T12:42:24Z</time>
      </trkpt>
      <trkpt lat="44.13845" lon="3.13208">
        <ele>843</ele>
        <time>2019-04-19T12:42:25Z</time>
      </trkpt>
      <trkpt lat="44.13846" lon="3.13203">
        <ele>843</ele>
        <time>2019-04-19T12:42:26Z</time>
      </trkpt>
      <trkpt lat="44.13848" lon="3.13198">
        <ele>843</ele>
        <time>2019-04-19T12:42:27Z</time>
      </trkpt>
      <trkpt lat="44.13849" lon="3.13193">
        <ele>843</ele>
        <time>2019-04-19T12:42:28Z</time>
      </trkpt>
      <trkpt lat="44.1385" lon="3.13187">
        <ele>843</ele>
        <time>2019-04-19T12:42:29Z</time>
      </trkpt>
      <trkpt lat="44.13852" lon="3.13182">
        <ele>842.9</ele>
        <time>2019-04-19T12:42:30Z</time>
      </trkpt>
      <trkpt lat="44.13853" lon="3.13176">
        <ele>842.9</ele>
        <time>2019-04-19T12:42:31Z</time>
      </trkpt>
      <trkpt lat="44.13854" lon="3.1317">
        <ele>842.9</ele>
        <time>2019-04-19T12:42:32Z</time>
      </trkpt>
      <trkpt lat="44.13854" lon="3.13162">
        <ele>842.8</ele>
        <time>2019-04-19T12:42:33Z</time>
      </trkpt>
      <trkpt lat="44.13855" lon="3.13156">
        <ele>842.7</ele>
        <time>2019-04-19T12:42:34Z</time>
      </trkpt>
      <trkpt lat="44.13856" lon="3.13151">
        <ele>842.6</ele>
        <time>2019-04-19T12:42:35Z</time>
      </trkpt>
      <trkpt lat="44.13857" lon="3.13142">
        <ele>842.5</ele>
        <time>2019-04-19T12:42:36Z</time>
      </trkpt>
      <trkpt lat="44.13858" lon="3.13135">
        <ele>842.4</ele>
        <time>2019-04-19T12:42:37Z</time>
      </trkpt>
      <trkpt lat="44.13858" lon="3.13128">
        <ele>842</ele>
        <time>2019-04-19T12:42:38Z</time>
      </trkpt>
      <trkpt lat="44.13858" lon="3.13121">
        <ele>841.7</ele>
        <time>2019-04-19T12:42:39Z</time>
      </trkpt>
      <trkpt lat="44.13859" lon="3.13114">
        <ele>841.4</ele>
        <time>2019-04-19T12:42:40Z</time>
      </trkpt>
      <trkpt lat="44.13859" lon="3.13105">
        <ele>841</ele>
        <time>2019-04-19T12:42:41Z</time>
      </trkpt>
      <trkpt lat="44.13859" lon="3.13097">
        <ele>840.5</ele>
        <time>2019-04-19T12:42:42Z</time>
      </trkpt>
      <trkpt lat="44.13859" lon="3.1309">
        <ele>840.2</ele>
        <time>2019-04-19T12:42:43Z</time>
      </trkpt>
      <trkpt lat="44.13858" lon="3.13079">
        <ele>839.7</ele>
        <time>2019-04-19T12:42:44Z</time>
      </trkpt>
      <trkpt lat="44.13858" lon="3.13069">
        <ele>839.2</ele>
        <time>2019-04-19T12:42:45Z</time>
      </trkpt>
      <trkpt lat="44.13857" lon="3.1306">
        <ele>838.8</ele>
        <time>2019-04-19T12:42:46Z</time>
      </trkpt>
      <trkpt lat="44.13857" lon="3.13051">
        <ele>838.4</ele>
        <time>2019-04-19T12:42:47Z</time>
      </trkpt>
      <trkpt lat="44.13857" lon="3.13041">
        <ele>838.2</ele>
        <time>2019-04-19T12:42:48Z</time>
      </trkpt>
      <trkpt lat="44.13856" lon="3.13032">
        <ele>838</ele>
        <time>2019-04-19T12:42:49Z</time>
      </trkpt>
      <trkpt lat="44.13856" lon="3.13022">
        <ele>837.8</ele>
        <time>2019-04-19T12:42:50Z</time>
      </trkpt>
      <trkpt lat="44.13855" lon="3.13012">
        <ele>837.4</ele>
        <time>2019-04-19T12:42:51Z</time>
      </trkpt>
      <trkpt lat="44.13855" lon="3.13">
        <ele>837.1</ele>
        <time>2019-04-19T12:42:52Z</time>
      </trkpt>
      <trkpt lat="44.13856" lon="3.12988">
        <ele>836.7</ele>
        <time>2019-04-19T12:42:53Z</time>
      </trkpt>
      <trkpt lat="44.13855" lon="3.12977">
        <ele>836.4</ele>
        <time>2019-04-19T12:42:54Z</time>
      </trkpt>
      <trkpt lat="44.13854" lon="3.12966">
        <ele>835.9</ele>
        <time>2019-04-19T12:42:55Z</time>
      </trkpt>
      <trkpt lat="44.13854" lon="3.12954">
        <ele>835.7</ele>
        <time>2019-04-19T12:42:56Z</time>
      </trkpt>
      <trkpt lat="44.13853" lon="3.12943">
        <ele>835.4</ele>
        <time>2019-04-19T12:42:57Z</time>
      </trkpt>
      <trkpt lat="44.13852" lon="3.12933">
        <ele>835.2</ele>
        <time>2019-04-19T12:42:58Z</time>
      </trkpt>
      <trkpt lat="44.13852" lon="3.12922">
        <ele>835.1</ele>
        <time>2019-04-19T12:42:59Z</time>
      </trkpt>
      <trkpt lat="44.13851" lon="3.12912">
        <ele>835</ele>
        <time>2019-04-19T12:43:00Z</time>
      </trkpt>
      <trkpt lat="44.13852" lon="3.12905">
        <ele>835</ele>
        <time>2019-04-19T12:43:01Z</time>
      </trkpt>
      <trkpt lat="44.13854" lon="3.129">
        <ele>834.8</ele>
        <time>2019-04-19T12:43:02Z</time>
      </trkpt>
      <trkpt lat="44.1386" lon="3.12899">
        <ele>834.7</ele>
        <time>2019-04-19T12:43:03Z</time>
      </trkpt>
      <trkpt lat="44.13866" lon="3.12898">
        <ele>834.5</ele>
        <time>2019-04-19T12:43:04Z</time>
      </trkpt>
      <trkpt lat="44.1387" lon="3.12898">
        <ele>834.4</ele>
        <time>2019-04-19T12:43:05Z</time>
      </trkpt>
      <trkpt lat="44.13874" lon="3.12901">
        <ele>834.4</ele>
        <time>2019-04-19T12:43:06Z</time>
      </trkpt>
      <trkpt lat="44.13877" lon="3.12901">
        <ele>834.3</ele>
        <time>2019-04-19T12:43:07Z</time>
      </trkpt>
      <trkpt lat="44.13881" lon="3.12902">
        <ele>834.2</ele>
        <time>2019-04-19T12:43:08Z</time>
      </trkpt>
      <trkpt lat="44.13888" lon="3.12901">
        <ele>833.9</ele>
        <time>2019-04-19T12:43:10Z</time>
      </trkpt>
      <trkpt lat="44.13893" lon="3.129">
        <ele>833.4</ele>
        <time>2019-04-19T12:43:11Z</time>
      </trkpt>
      <trkpt lat="44.13896" lon="3.12901">
        <ele>833.4</ele>
        <time>2019-04-19T12:43:12Z</time>
      </trkpt>
      <trkpt lat="44.13901" lon="3.12904">
        <ele>833</ele>
        <time>2019-04-19T12:43:14Z</time>
      </trkpt>
      <trkpt lat="44.13905" lon="3.12907">
        <ele>833.1</ele>
        <time>2019-04-19T12:43:15Z</time>
      </trkpt>
      <trkpt lat="44.1391" lon="3.12913">
        <ele>833.2</ele>
        <time>2019-04-19T12:43:16Z</time>
      </trkpt>
      <trkpt lat="44.13914" lon="3.12911">
        <ele>833</ele>
        <time>2019-04-19T12:43:17Z</time>
      </trkpt>
      <trkpt lat="44.13917" lon="3.12913">
        <ele>833.2</ele>
        <time>2019-04-19T12:43:18Z</time>
      </trkpt>
      <trkpt lat="44.13923" lon="3.12911">
        <ele>832.5</ele>
        <time>2019-04-19T12:43:19Z</time>
      </trkpt>
      <trkpt lat="44.13928" lon="3.12908">
        <ele>832</ele>
        <time>2019-04-19T12:43:20Z</time>
      </trkpt>
      <trkpt lat="44.13934" lon="3.1291">
        <ele>832.1</ele>
        <time>2019-04-19T12:43:21Z</time>
      </trkpt>
      <trkpt lat="44.13937" lon="3.12915">
        <ele>832.4</ele>
        <time>2019-04-19T12:43:22Z</time>
      </trkpt>
      <trkpt lat="44.13943" lon="3.12914">
        <ele>832.1</ele>
        <time>2019-04-19T12:43:23Z</time>
      </trkpt>
      <trkpt lat="44.13948" lon="3.12912">
        <ele>831.2</ele>
        <time>2019-04-19T12:43:24Z</time>
      </trkpt>
      <trkpt lat="44.13951" lon="3.12911">
        <ele>830.9</ele>
        <time>2019-04-19T12:43:25Z</time>
      </trkpt>
      <trkpt lat="44.13957" lon="3.12912">
        <ele>830.5</ele>
        <time>2019-04-19T12:43:26Z</time>
      </trkpt>
      <trkpt lat="44.13961" lon="3.12911">
        <ele>830.2</ele>
        <time>2019-04-19T12:43:27Z</time>
      </trkpt>
      <trkpt lat="44.13964" lon="3.12914">
        <ele>830.4</ele>
        <time>2019-04-19T12:43:28Z</time>
      </trkpt>
      <trkpt lat="44.13969" lon="3.12917">
        <ele>829.8</ele>
        <time>2019-04-19T12:43:30Z</time>
      </trkpt>
      <trkpt lat="44.13974" lon="3.12921">
        <ele>829.9</ele>
        <time>2019-04-19T12:43:31Z</time>
      </trkpt>
      <trkpt lat="44.13979" lon="3.12923">
        <ele>829.6</ele>
        <time>2019-04-19T12:43:32Z</time>
      </trkpt>
      <trkpt lat="44.13984" lon="3.12922">
        <ele>829.3</ele>
        <time>2019-04-19T12:43:33Z</time>
      </trkpt>
      <trkpt lat="44.13987" lon="3.12923">
        <ele>829</ele>
        <time>2019-04-19T12:43:34Z</time>
      </trkpt>
      <trkpt lat="44.1399" lon="3.12923">
        <ele>828.7</ele>
        <time>2019-04-19T12:43:35Z</time>
      </trkpt>
      <trkpt lat="44.13994" lon="3.12924">
        <ele>828.2</ele>
        <time>2019-04-19T12:43:36Z</time>
      </trkpt>
      <trkpt lat="44.13999" lon="3.12926">
        <ele>827.9</ele>
        <time>2019-04-19T12:43:38Z</time>
      </trkpt>
      <trkpt lat="44.14003" lon="3.12927">
        <ele>828.1</ele>
        <time>2019-04-19T12:43:39Z</time>
      </trkpt>
      <trkpt lat="44.14006" lon="3.12928">
        <ele>827.6</ele>
        <time>2019-04-19T12:43:40Z</time>
      </trkpt>
      <trkpt lat="44.1401" lon="3.12929">
        <ele>827.4</ele>
        <time>2019-04-19T12:43:41Z</time>
      </trkpt>
      <trkpt lat="44.14014" lon="3.1293">
        <ele>827.9</ele>
        <time>2019-04-19T12:43:42Z</time>
      </trkpt>
      <trkpt lat="44.14018" lon="3.12932">
        <ele>827.7</ele>
        <time>2019-04-19T12:43:43Z</time>
      </trkpt>
      <trkpt lat="44.14023" lon="3.12933">
        <ele>827.3</ele>
        <time>2019-04-19T12:43:44Z</time>
      </trkpt>
      <trkpt lat="44.14029" lon="3.12935">
        <ele>827.6</ele>
        <time>2019-04-19T12:43:45Z</time>
      </trkpt>
      <trkpt lat="44.14036" lon="3.12937">
        <ele>827.2</ele>
        <time>2019-04-19T12:43:46Z</time>
      </trkpt>
      <trkpt lat="44.14042" lon="3.12938">
        <ele>826.8</ele>
        <time>2019-04-19T12:43:47Z</time>
      </trkpt>
      <trkpt lat="44.14048" lon="3.1294">
        <ele>826.8</ele>
        <time>2019-04-19T12:43:48Z</time>
      </trkpt>
      <trkpt lat="44.14053" lon="3.12941">
        <ele>826.2</ele>
        <time>2019-04-19T12:43:49Z</time>
      </trkpt>
      <trkpt lat="44.14059" lon="3.12941">
        <ele>825.6</ele>
        <time>2019-04-19T12:43:50Z</time>
      </trkpt>
      <trkpt lat="44.14064" lon="3.12941">
        <ele>825</ele>
        <time>2019-04-19T12:43:51Z</time>
      </trkpt>
      <trkpt lat="44.14068" lon="3.12941">
        <ele>824.8</ele>
        <time>2019-04-19T12:43:52Z</time>
      </trkpt>
      <trkpt lat="44.14072" lon="3.12941">
        <ele>824.6</ele>
        <time>2019-04-19T12:43:53Z</time>
      </trkpt>
      <trkpt lat="44.14075" lon="3.12941">
        <ele>824.4</ele>
        <time>2019-04-19T12:43:54Z</time>
      </trkpt>
      <trkpt lat="44.14078" lon="3.12941">
        <ele>824.3</ele>
        <time>2019-04-19T12:43:55Z</time>
      </trkpt>
      <trkpt lat="44.14083" lon="3.12942">
        <ele>824.1</ele>
        <time>2019-04-19T12:43:56Z</time>
      </trkpt>
      <trkpt lat="44.14086" lon="3.12942">
        <ele>824</ele>
        <time>2019-04-19T12:43:57Z</time>
      </trkpt>
      <trkpt lat="44.14089" lon="3.12942">
        <ele>823.9</ele>
        <time>2019-04-19T12:43:58Z</time>
      </trkpt>
      <trkpt lat="44.14096" lon="3.12943">
        <ele>823.9</ele>
        <time>2019-04-19T12:44:00Z</time>
      </trkpt>
      <trkpt lat="44.141" lon="3.12943">
        <ele>823.9</ele>
        <time>2019-04-19T12:44:01Z</time>
      </trkpt>
      <trkpt lat="44.14105" lon="3.12941">
        <ele>823.9</ele>
        <time>2019-04-19T12:44:02Z</time>
      </trkpt>
      <trkpt lat="44.14108" lon="3.12939">
        <ele>823.9</ele>
        <time>2019-04-19T12:44:03Z</time>
      </trkpt>
      <trkpt lat="44.14112" lon="3.12937">
        <ele>823.5</ele>
        <time>2019-04-19T12:44:04Z</time>
      </trkpt>
      <trkpt lat="44.14115" lon="3.12937">
        <ele>823.5</ele>
        <time>2019-04-19T12:44:05Z</time>
      </trkpt>
      <trkpt lat="44.14117" lon="3.12936">
        <ele>823.5</ele>
        <time>2019-04-19T12:44:06Z</time>
      </trkpt>
      <trkpt lat="44.14121" lon="3.12936">
        <ele>823.5</ele>
        <time>2019-04-19T12:44:07Z</time>
      </trkpt>
      <trkpt lat="44.14124" lon="3.12936">
        <ele>823.6</ele>
        <time>2019-04-19T12:44:08Z</time>
      </trkpt>
      <trkpt lat="44.14129" lon="3.12936">
        <ele>823.6</ele>
        <time>2019-04-19T12:44:09Z</time>
      </trkpt>
      <trkpt lat="44.14133" lon="3.12936">
        <ele>823.7</ele>
        <time>2019-04-19T12:44:10Z</time>
      </trkpt>
      <trkpt lat="44.14138" lon="3.12937">
        <ele>823.8</ele>
        <time>2019-04-19T12:44:11Z</time>
      </trkpt>
      <trkpt lat="44.14142" lon="3.12938">
        <ele>823.8</ele>
        <time>2019-04-19T12:44:12Z</time>
      </trkpt>
      <trkpt lat="44.14145" lon="3.12939">
        <ele>824.4</ele>
        <time>2019-04-19T12:44:13Z</time>
      </trkpt>
      <trkpt lat="44.14149" lon="3.12942">
        <ele>824.4</ele>
        <time>2019-04-19T12:44:15Z</time>
      </trkpt>
      <trkpt lat="44.14154" lon="3.12947">
        <ele>825.6</ele>
        <time>2019-04-19T12:44:17Z</time>
      </trkpt>
      <trkpt lat="44.14158" lon="3.12951">
        <ele>825.6</ele>
        <time>2019-04-19T12:44:18Z</time>
      </trkpt>
      <trkpt lat="44.14162" lon="3.12955">
        <ele>826.2</ele>
        <time>2019-04-19T12:44:19Z</time>
      </trkpt>
      <trkpt lat="44.14166" lon="3.12959">
        <ele>826.7</ele>
        <time>2019-04-19T12:44:20Z</time>
      </trkpt>
      <trkpt lat="44.1417" lon="3.12962">
        <ele>827.3</ele>
        <time>2019-04-19T12:44:21Z</time>
      </trkpt>
      <trkpt lat="44.14173" lon="3.12964">
        <ele>827.3</ele>
        <time>2019-04-19T12:44:22Z</time>
      </trkpt>
      <trkpt lat="44.14176" lon="3.12967">
        <ele>827.8</ele>
        <time>2019-04-19T12:44:23Z</time>
      </trkpt>
      <trkpt lat="44.14181" lon="3.12971">
        <ele>828.4</ele>
        <time>2019-04-19T12:44:24Z</time>
      </trkpt>
      <trkpt lat="44.14185" lon="3.12973">
        <ele>828.4</ele>
        <time>2019-04-19T12:44:25Z</time>
      </trkpt>
      <trkpt lat="44.14189" lon="3.12973">
        <ele>828.9</ele>
        <time>2019-04-19T12:44:26Z</time>
      </trkpt>
      <trkpt lat="44.14193" lon="3.12974">
        <ele>828.8</ele>
        <time>2019-04-19T12:44:27Z</time>
      </trkpt>
      <trkpt lat="44.14197" lon="3.12973">
        <ele>828.7</ele>
        <time>2019-04-19T12:44:28Z</time>
      </trkpt>
      <trkpt lat="44.14201" lon="3.12974">
        <ele>828.5</ele>
        <time>2019-04-19T12:44:29Z</time>
      </trkpt>
      <trkpt lat="44.14206" lon="3.12976">
        <ele>828.2</ele>
        <time>2019-04-19T12:44:30Z</time>
      </trkpt>
      <trkpt lat="44.14211" lon="3.12978">
        <ele>828.6</ele>
        <time>2019-04-19T12:44:31Z</time>
      </trkpt>
      <trkpt lat="44.14216" lon="3.1298">
        <ele>828.2</ele>
        <time>2019-04-19T12:44:32Z</time>
      </trkpt>
      <trkpt lat="44.1422" lon="3.12981">
        <ele>828</ele>
        <time>2019-04-19T12:44:33Z</time>
      </trkpt>
      <trkpt lat="44.14225" lon="3.12982">
        <ele>828.1</ele>
        <time>2019-04-19T12:44:34Z</time>
      </trkpt>
      <trkpt lat="44.14236" lon="3.12982">
        <ele>826.9</ele>
        <time>2019-04-19T12:44:35Z</time>
      </trkpt>
      <trkpt lat="44.14244" lon="3.12981">
        <ele>826</ele>
        <time>2019-04-19T12:44:36Z</time>
      </trkpt>
      <trkpt lat="44.14251" lon="3.12978">
        <ele>825.3</ele>
        <time>2019-04-19T12:44:37Z</time>
      </trkpt>
      <trkpt lat="44.14256" lon="3.12978">
        <ele>824.4</ele>
        <time>2019-04-19T12:44:38Z</time>
      </trkpt>
      <trkpt lat="44.14264" lon="3.12978">
        <ele>823.4</ele>
        <time>2019-04-19T12:44:39Z</time>
      </trkpt>
      <trkpt lat="44.1427" lon="3.12979">
        <ele>822.5</ele>
        <time>2019-04-19T12:44:40Z</time>
      </trkpt>
      <trkpt lat="44.14275" lon="3.12977">
        <ele>821.2</ele>
        <time>2019-04-19T12:44:41Z</time>
      </trkpt>
      <trkpt lat="44.14283" lon="3.12972">
        <ele>818.8</ele>
        <time>2019-04-19T12:44:42Z</time>
      </trkpt>
      <trkpt lat="44.14292" lon="3.12973">
        <ele>817.8</ele>
        <time>2019-04-19T12:44:43Z</time>
      </trkpt>
      <trkpt lat="44.14301" lon="3.12973">
        <ele>816.4</ele>
        <time>2019-04-19T12:44:44Z</time>
      </trkpt>
      <trkpt lat="44.14309" lon="3.12968">
        <ele>814.7</ele>
        <time>2019-04-19T12:44:45Z</time>
      </trkpt>
      <trkpt lat="44.14317" lon="3.12962">
        <ele>813.6</ele>
        <time>2019-04-19T12:44:46Z</time>
      </trkpt>
      <trkpt lat="44.14323" lon="3.12956">
        <ele>812</ele>
        <time>2019-04-19T12:44:47Z</time>
      </trkpt>
      <trkpt lat="44.1433" lon="3.12954">
        <ele>810.7</ele>
        <time>2019-04-19T12:44:48Z</time>
      </trkpt>
      <trkpt lat="44.14335" lon="3.12954">
        <ele>810.1</ele>
        <time>2019-04-19T12:44:49Z</time>
      </trkpt>
      <trkpt lat="44.1434" lon="3.12954">
        <ele>809.1</ele>
        <time>2019-04-19T12:44:50Z</time>
      </trkpt>
      <trkpt lat="44.14344" lon="3.12951">
        <ele>808.3</ele>
        <time>2019-04-19T12:44:51Z</time>
      </trkpt>
      <trkpt lat="44.14351" lon="3.12949">
        <ele>807.3</ele>
        <time>2019-04-19T12:44:52Z</time>
      </trkpt>
      <trkpt lat="44.14356" lon="3.12946">
        <ele>806.1</ele>
        <time>2019-04-19T12:44:53Z</time>
      </trkpt>
      <trkpt lat="44.14363" lon="3.12939">
        <ele>804.8</ele>
        <time>2019-04-19T12:44:54Z</time>
      </trkpt>
      <trkpt lat="44.14369" lon="3.12935">
        <ele>803.6</ele>
        <time>2019-04-19T12:44:55Z</time>
      </trkpt>
      <trkpt lat="44.14375" lon="3.1293">
        <ele>802</ele>
        <time>2019-04-19T12:44:56Z</time>
      </trkpt>
      <trkpt lat="44.14377" lon="3.12934">
        <ele>802</ele>
        <time>2019-04-19T12:44:57Z</time>
      </trkpt>
      <trkpt lat="44.14383" lon="3.1293">
        <ele>800.8</ele>
        <time>2019-04-19T12:44:58Z</time>
      </trkpt>
      <trkpt lat="44.14385" lon="3.12926">
        <ele>800</ele>
        <time>2019-04-19T12:45:01Z</time>
      </trkpt>
      <trkpt lat="44.14389" lon="3.12929">
        <ele>800</ele>
        <time>2019-04-19T12:45:28Z</time>
      </trkpt>
      <trkpt lat="44.1439" lon="3.12934">
        <ele>800.4</ele>
        <time>2019-04-19T12:45:30Z</time>
      </trkpt>
      <trkpt lat="44.14391" lon="3.12938">
        <ele>800.4</ele>
        <time>2019-04-19T12:45:31Z</time>
      </trkpt>
      <trkpt lat="44.14392" lon="3.12943">
        <ele>800.8</ele>
        <time>2019-04-19T12:45:32Z</time>
      </trkpt>
      <trkpt lat="44.14393" lon="3.12947">
        <ele>801.4</ele>
        <time>2019-04-19T12:45:33Z</time>
      </trkpt>
      <trkpt lat="44.14395" lon="3.12953">
        <ele>801.4</ele>
        <time>2019-04-19T12:45:35Z</time>
      </trkpt>
      <trkpt lat="44.14396" lon="3.12957">
        <ele>801.8</ele>
        <time>2019-04-19T12:45:39Z</time>
      </trkpt>
      <trkpt lat="44.14397" lon="3.12964">
        <ele>802.3</ele>
        <time>2019-04-19T12:45:41Z</time>
      </trkpt>
      <trkpt lat="44.14397" lon="3.12968">
        <ele>802.6</ele>
        <time>2019-04-19T12:45:42Z</time>
      </trkpt>
      <trkpt lat="44.14396" lon="3.12972">
        <ele>802.9</ele>
        <time>2019-04-19T12:45:43Z</time>
      </trkpt>
      <trkpt lat="44.14396" lon="3.12976">
        <ele>803.2</ele>
        <time>2019-04-19T12:45:44Z</time>
      </trkpt>
      <trkpt lat="44.14396" lon="3.1298">
        <ele>803.5</ele>
        <time>2019-04-19T12:45:45Z</time>
      </trkpt>
      <trkpt lat="44.14397" lon="3.12984">
        <ele>803.8</ele>
        <time>2019-04-19T12:45:46Z</time>
      </trkpt>
      <trkpt lat="44.14397" lon="3.12988">
        <ele>804.1</ele>
        <time>2019-04-19T12:45:47Z</time>
      </trkpt>
      <trkpt lat="44.14397" lon="3.12993">
        <ele>804.4</ele>
        <time>2019-04-19T12:45:48Z</time>
      </trkpt>
      <trkpt lat="44.14397" lon="3.12997">
        <ele>804.6</ele>
        <time>2019-04-19T12:45:49Z</time>
      </trkpt>
      <trkpt lat="44.14397" lon="3.13001">
        <ele>804.8</ele>
        <time>2019-04-19T12:45:50Z</time>
      </trkpt>
      <trkpt lat="44.14397" lon="3.13005">
        <ele>805</ele>
        <time>2019-04-19T12:45:51Z</time>
      </trkpt>
      <trkpt lat="44.14397" lon="3.1301">
        <ele>805.3</ele>
        <time>2019-04-19T12:45:52Z</time>
      </trkpt>
      <trkpt lat="44.14398" lon="3.13014">
        <ele>805.5</ele>
        <time>2019-04-19T12:45:53Z</time>
      </trkpt>
      <trkpt lat="44.14399" lon="3.13019">
        <ele>805.7</ele>
        <time>2019-04-19T12:45:54Z</time>
      </trkpt>
      <trkpt lat="44.14399" lon="3.13025">
        <ele>805.9</ele>
        <time>2019-04-19T12:45:55Z</time>
      </trkpt>
      <trkpt lat="44.14399" lon="3.1303">
        <ele>806.1</ele>
        <time>2019-04-19T12:45:56Z</time>
      </trkpt>
      <trkpt lat="44.14399" lon="3.13035">
        <ele>806.2</ele>
        <time>2019-04-19T12:45:57Z</time>
      </trkpt>
      <trkpt lat="44.144" lon="3.13041">
        <ele>806.4</ele>
        <time>2019-04-19T12:45:58Z</time>
      </trkpt>
      <trkpt lat="44.14401" lon="3.13048">
        <ele>806.5</ele>
        <time>2019-04-19T12:45:59Z</time>
      </trkpt>
      <trkpt lat="44.14402" lon="3.13054">
        <ele>806.6</ele>
        <time>2019-04-19T12:46:00Z</time>
      </trkpt>
      <trkpt lat="44.14402" lon="3.1306">
        <ele>806.6</ele>
        <time>2019-04-19T12:46:01Z</time>
      </trkpt>
      <trkpt lat="44.14402" lon="3.13065">
        <ele>806.7</ele>
        <time>2019-04-19T12:46:02Z</time>
      </trkpt>
      <trkpt lat="44.14403" lon="3.1307">
        <ele>806.7</ele>
        <time>2019-04-19T12:46:03Z</time>
      </trkpt>
      <trkpt lat="44.14404" lon="3.13075">
        <ele>806.7</ele>
        <time>2019-04-19T12:46:04Z</time>
      </trkpt>
      <trkpt lat="44.14405" lon="3.13082">
        <ele>806.8</ele>
        <time>2019-04-19T12:46:05Z</time>
      </trkpt>
      <trkpt lat="44.14406" lon="3.13088">
        <ele>806.9</ele>
        <time>2019-04-19T12:46:06Z</time>
      </trkpt>
      <trkpt lat="44.14406" lon="3.13092">
        <ele>807</ele>
        <time>2019-04-19T12:46:07Z</time>
      </trkpt>
      <trkpt lat="44.14407" lon="3.13097">
        <ele>807.1</ele>
        <time>2019-04-19T12:46:08Z</time>
      </trkpt>
      <trkpt lat="44.14406" lon="3.13103">
        <ele>807.2</ele>
        <time>2019-04-19T12:46:09Z</time>
      </trkpt>
      <trkpt lat="44.14406" lon="3.13108">
        <ele>807.4</ele>
        <time>2019-04-19T12:46:10Z</time>
      </trkpt>
      <trkpt lat="44.14405" lon="3.13114">
        <ele>807.5</ele>
        <time>2019-04-19T12:46:11Z</time>
      </trkpt>
      <trkpt lat="44.14405" lon="3.13122">
        <ele>807.7</ele>
        <time>2019-04-19T12:46:12Z</time>
      </trkpt>
      <trkpt lat="44.14403" lon="3.13126">
        <ele>807.8</ele>
        <time>2019-04-19T12:46:13Z</time>
      </trkpt>
      <trkpt lat="44.14403" lon="3.13133">
        <ele>808</ele>
        <time>2019-04-19T12:46:14Z</time>
      </trkpt>
      <trkpt lat="44.14402" lon="3.13139">
        <ele>808</ele>
        <time>2019-04-19T12:46:15Z</time>
      </trkpt>
      <trkpt lat="44.14402" lon="3.13146">
        <ele>808</ele>
        <time>2019-04-19T12:46:16Z</time>
      </trkpt>
      <trkpt lat="44.144" lon="3.13153">
        <ele>808</ele>
        <time>2019-04-19T12:46:17Z</time>
      </trkpt>
      <trkpt lat="44.14399" lon="3.13159">
        <ele>807.9</ele>
        <time>2019-04-19T12:46:18Z</time>
      </trkpt>
      <trkpt lat="44.14399" lon="3.13167">
        <ele>807.6</ele>
        <time>2019-04-19T12:46:19Z</time>
      </trkpt>
      <trkpt lat="44.14398" lon="3.13173">
        <ele>807.4</ele>
        <time>2019-04-19T12:46:20Z</time>
      </trkpt>
      <trkpt lat="44.14397" lon="3.1318">
        <ele>807.1</ele>
        <time>2019-04-19T12:46:21Z</time>
      </trkpt>
      <trkpt lat="44.14397" lon="3.13187">
        <ele>806.8</ele>
        <time>2019-04-19T12:46:22Z</time>
      </trkpt>
      <trkpt lat="44.14395" lon="3.13193">
        <ele>806.7</ele>
        <time>2019-04-19T12:46:23Z</time>
      </trkpt>
      <trkpt lat="44.14394" lon="3.13198">
        <ele>806.6</ele>
        <time>2019-04-19T12:46:24Z</time>
      </trkpt>
      <trkpt lat="44.14392" lon="3.13205">
        <ele>806.5</ele>
        <time>2019-04-19T12:46:25Z</time>
      </trkpt>
      <trkpt lat="44.1439" lon="3.1321">
        <ele>806.4</ele>
        <time>2019-04-19T12:46:26Z</time>
      </trkpt>
      <trkpt lat="44.14389" lon="3.13213">
        <ele>806.4</ele>
        <time>2019-04-19T12:46:27Z</time>
      </trkpt>
      <trkpt lat="44.14387" lon="3.13216">
        <ele>806.4</ele>
        <time>2019-04-19T12:46:28Z</time>
      </trkpt>
      <trkpt lat="44.14386" lon="3.13222">
        <ele>806.3</ele>
        <time>2019-04-19T12:46:29Z</time>
      </trkpt>
      <trkpt lat="44.14385" lon="3.13226">
        <ele>806.4</ele>
        <time>2019-04-19T12:46:30Z</time>
      </trkpt>
      <trkpt lat="44.14384" lon="3.13232">
        <ele>806.4</ele>
        <time>2019-04-19T12:46:31Z</time>
      </trkpt>
      <trkpt lat="44.14381" lon="3.1324">
        <ele>806.6</ele>
        <time>2019-04-19T12:46:32Z</time>
      </trkpt>
      <trkpt lat="44.1438" lon="3.13245">
        <ele>806.8</ele>
        <time>2019-04-19T12:46:33Z</time>
      </trkpt>
      <trkpt lat="44.14379" lon="3.13249">
        <ele>806.9</ele>
        <time>2019-04-19T12:46:34Z</time>
      </trkpt>
      <trkpt lat="44.1438" lon="3.13253">
        <ele>807.1</ele>
        <time>2019-04-19T12:46:35Z</time>
      </trkpt>
      <trkpt lat="44.14377" lon="3.13259">
        <ele>807.4</ele>
        <time>2019-04-19T12:46:36Z</time>
      </trkpt>
      <trkpt lat="44.14379" lon="3.13264">
        <ele>807.7</ele>
        <time>2019-04-19T12:46:37Z</time>
      </trkpt>
      <trkpt lat="44.14378" lon="3.13269">
        <ele>807.9</ele>
        <time>2019-04-19T12:46:38Z</time>
      </trkpt>
      <trkpt lat="44.14377" lon="3.13273">
        <ele>808.2</ele>
        <time>2019-04-19T12:46:39Z</time>
      </trkpt>
      <trkpt lat="44.14375" lon="3.13278">
        <ele>808.5</ele>
        <time>2019-04-19T12:46:40Z</time>
      </trkpt>
      <trkpt lat="44.14377" lon="3.13285">
        <ele>808.9</ele>
        <time>2019-04-19T12:46:42Z</time>
      </trkpt>
      <trkpt lat="44.14377" lon="3.13288">
        <ele>809.1</ele>
        <time>2019-04-19T12:46:43Z</time>
      </trkpt>
      <trkpt lat="44.14377" lon="3.13293">
        <ele>809.4</ele>
        <time>2019-04-19T12:46:44Z</time>
      </trkpt>
      <trkpt lat="44.14377" lon="3.13297">
        <ele>809.7</ele>
        <time>2019-04-19T12:46:45Z</time>
      </trkpt>
      <trkpt lat="44.14377" lon="3.13301">
        <ele>810</ele>
        <time>2019-04-19T12:46:46Z</time>
      </trkpt>
      <trkpt lat="44.14377" lon="3.13305">
        <ele>810.2</ele>
        <time>2019-04-19T12:46:47Z</time>
      </trkpt>
      <trkpt lat="44.14378" lon="3.13309">
        <ele>810.4</ele>
        <time>2019-04-19T12:46:48Z</time>
      </trkpt>
      <trkpt lat="44.14378" lon="3.13313">
        <ele>810.6</ele>
        <time>2019-04-19T12:46:49Z</time>
      </trkpt>
      <trkpt lat="44.14379" lon="3.13317">
        <ele>810.9</ele>
        <time>2019-04-19T12:46:50Z</time>
      </trkpt>
      <trkpt lat="44.14379" lon="3.13321">
        <ele>811.1</ele>
        <time>2019-04-19T12:46:51Z</time>
      </trkpt>
      <trkpt lat="44.14378" lon="3.13325">
        <ele>811.4</ele>
        <time>2019-04-19T12:46:52Z</time>
      </trkpt>
      <trkpt lat="44.14378" lon="3.1333">
        <ele>811.6</ele>
        <time>2019-04-19T12:46:53Z</time>
      </trkpt>
      <trkpt lat="44.14378" lon="3.13334">
        <ele>811.9</ele>
        <time>2019-04-19T12:46:54Z</time>
      </trkpt>
      <trkpt lat="44.14379" lon="3.1334">
        <ele>812.2</ele>
        <time>2019-04-19T12:46:56Z</time>
      </trkpt>
      <trkpt lat="44.14379" lon="3.13346">
        <ele>812.6</ele>
        <time>2019-04-19T12:46:58Z</time>
      </trkpt>
      <trkpt lat="44.1438" lon="3.13354">
        <ele>813.1</ele>
        <time>2019-04-19T12:47:00Z</time>
      </trkpt>
      <trkpt lat="44.14381" lon="3.13357">
        <ele>813.3</ele>
        <time>2019-04-19T12:47:01Z</time>
      </trkpt>
      <trkpt lat="44.14382" lon="3.13365">
        <ele>813.8</ele>
        <time>2019-04-19T12:47:03Z</time>
      </trkpt>
      <trkpt lat="44.14381" lon="3.13371">
        <ele>814.1</ele>
        <time>2019-04-19T12:47:05Z</time>
      </trkpt>
      <trkpt lat="44.14379" lon="3.13376">
        <ele>814.3</ele>
        <time>2019-04-19T12:47:07Z</time>
      </trkpt>
      <trkpt lat="44.14378" lon="3.13381">
        <ele>814.6</ele>
        <time>2019-04-19T12:47:09Z</time>
      </trkpt>
      <trkpt lat="44.14379" lon="3.13388">
        <ele>815</ele>
        <time>2019-04-19T12:47:11Z</time>
      </trkpt>
      <trkpt lat="44.14381" lon="3.13391">
        <ele>815.2</ele>
        <time>2019-04-19T12:47:12Z</time>
      </trkpt>
      <trkpt lat="44.14384" lon="3.13397">
        <ele>815.5</ele>
        <time>2019-04-19T12:47:14Z</time>
      </trkpt>
      <trkpt lat="44.14386" lon="3.134">
        <ele>815.6</ele>
        <time>2019-04-19T12:47:15Z</time>
      </trkpt>
      <trkpt lat="44.14388" lon="3.13404">
        <ele>815.8</ele>
        <time>2019-04-19T12:47:16Z</time>
      </trkpt>
      <trkpt lat="44.14391" lon="3.1341">
        <ele>816.1</ele>
        <time>2019-04-19T12:47:18Z</time>
      </trkpt>
      <trkpt lat="44.14392" lon="3.13416">
        <ele>816.3</ele>
        <time>2019-04-19T12:47:20Z</time>
      </trkpt>
      <trkpt lat="44.14392" lon="3.13423">
        <ele>816.6</ele>
        <time>2019-04-19T12:47:22Z</time>
      </trkpt>
      <trkpt lat="44.14392" lon="3.1343">
        <ele>816.7</ele>
        <time>2019-04-19T12:47:24Z</time>
      </trkpt>
      <trkpt lat="44.14392" lon="3.13434">
        <ele>816.8</ele>
        <time>2019-04-19T12:47:25Z</time>
      </trkpt>
      <trkpt lat="44.14392" lon="3.13438">
        <ele>817</ele>
        <time>2019-04-19T12:47:26Z</time>
      </trkpt>
      <trkpt lat="44.14393" lon="3.13442">
        <ele>817</ele>
        <time>2019-04-19T12:47:27Z</time>
      </trkpt>
      <trkpt lat="44.14394" lon="3.13446">
        <ele>817.1</ele>
        <time>2019-04-19T12:47:28Z</time>
      </trkpt>
      <trkpt lat="44.14395" lon="3.13453">
        <ele>817.3</ele>
        <time>2019-04-19T12:47:30Z</time>
      </trkpt>
      <trkpt lat="44.14396" lon="3.13458">
        <ele>817.4</ele>
        <time>2019-04-19T12:47:31Z</time>
      </trkpt>
      <trkpt lat="44.14398" lon="3.13462">
        <ele>817.4</ele>
        <time>2019-04-19T12:47:32Z</time>
      </trkpt>
      <trkpt lat="44.144" lon="3.13466">
        <ele>817.5</ele>
        <time>2019-04-19T12:47:33Z</time>
      </trkpt>
      <trkpt lat="44.14401" lon="3.1347">
        <ele>817.7</ele>
        <time>2019-04-19T12:47:34Z</time>
      </trkpt>
      <trkpt lat="44.14403" lon="3.13477">
        <ele>817.9</ele>
        <time>2019-04-19T12:47:36Z</time>
      </trkpt>
      <trkpt lat="44.14405" lon="3.13482">
        <ele>818.1</ele>
        <time>2019-04-19T12:47:37Z</time>
      </trkpt>
      <trkpt lat="44.14407" lon="3.13487">
        <ele>818.3</ele>
        <time>2019-04-19T12:47:38Z</time>
      </trkpt>
      <trkpt lat="44.14409" lon="3.13491">
        <ele>818.4</ele>
        <time>2019-04-19T12:47:39Z</time>
      </trkpt>
      <trkpt lat="44.1441" lon="3.13495">
        <ele>818.6</ele>
        <time>2019-04-19T12:47:40Z</time>
      </trkpt>
      <trkpt lat="44.14411" lon="3.135">
        <ele>818.8</ele>
        <time>2019-04-19T12:47:41Z</time>
      </trkpt>
      <trkpt lat="44.14413" lon="3.13505">
        <ele>818.9</ele>
        <time>2019-04-19T12:47:42Z</time>
      </trkpt>
      <trkpt lat="44.14414" lon="3.13511">
        <ele>819.1</ele>
        <time>2019-04-19T12:47:43Z</time>
      </trkpt>
      <trkpt lat="44.14415" lon="3.13516">
        <ele>819.2</ele>
        <time>2019-04-19T12:47:44Z</time>
      </trkpt>
      <trkpt lat="44.14416" lon="3.13521">
        <ele>819.4</ele>
        <time>2019-04-19T12:47:45Z</time>
      </trkpt>
      <trkpt lat="44.14418" lon="3.13525">
        <ele>819.5</ele>
        <time>2019-04-19T12:47:46Z</time>
      </trkpt>
      <trkpt lat="44.14419" lon="3.13529">
        <ele>819.6</ele>
        <time>2019-04-19T12:47:47Z</time>
      </trkpt>
      <trkpt lat="44.14421" lon="3.13533">
        <ele>819.6</ele>
        <time>2019-04-19T12:47:48Z</time>
      </trkpt>
      <trkpt lat="44.14422" lon="3.13537">
        <ele>819.7</ele>
        <time>2019-04-19T12:47:49Z</time>
      </trkpt>
      <trkpt lat="44.14424" lon="3.1354">
        <ele>819.8</ele>
        <time>2019-04-19T12:47:50Z</time>
      </trkpt>
      <trkpt lat="44.14425" lon="3.13546">
        <ele>819.9</ele>
        <time>2019-04-19T12:47:52Z</time>
      </trkpt>
      <trkpt lat="44.14427" lon="3.1355">
        <ele>819.9</ele>
        <time>2019-04-19T12:47:54Z</time>
      </trkpt>
      <trkpt lat="44.14429" lon="3.13556">
        <ele>820</ele>
        <time>2019-04-19T12:47:56Z</time>
      </trkpt>
      <trkpt lat="44.14432" lon="3.13562">
        <ele>820.1</ele>
        <time>2019-04-19T12:47:58Z</time>
      </trkpt>
      <trkpt lat="44.14434" lon="3.13565">
        <ele>820.2</ele>
        <time>2019-04-19T12:47:59Z</time>
      </trkpt>
      <trkpt lat="44.14435" lon="3.13569">
        <ele>820.2</ele>
        <time>2019-04-19T12:48:00Z</time>
      </trkpt>
      <trkpt lat="44.14437" lon="3.13572">
        <ele>820.2</ele>
        <time>2019-04-19T12:48:01Z</time>
      </trkpt>
      <trkpt lat="44.14439" lon="3.13577">
        <ele>820.3</ele>
        <time>2019-04-19T12:48:03Z</time>
      </trkpt>
      <trkpt lat="44.14441" lon="3.13582">
        <ele>820.2</ele>
        <time>2019-04-19T12:48:05Z</time>
      </trkpt>
      <trkpt lat="44.14442" lon="3.13586">
        <ele>820.2</ele>
        <time>2019-04-19T12:48:06Z</time>
      </trkpt>
      <trkpt lat="44.14445" lon="3.1359">
        <ele>820.2</ele>
        <time>2019-04-19T12:48:07Z</time>
      </trkpt>
      <trkpt lat="44.14448" lon="3.13595">
        <ele>820.1</ele>
        <time>2019-04-19T12:48:08Z</time>
      </trkpt>
      <trkpt lat="44.14452" lon="3.136">
        <ele>820</ele>
        <time>2019-04-19T12:48:09Z</time>
      </trkpt>
      <trkpt lat="44.14456" lon="3.13606">
        <ele>819.9</ele>
        <time>2019-04-19T12:48:10Z</time>
      </trkpt>
      <trkpt lat="44.1446" lon="3.13611">
        <ele>819.8</ele>
        <time>2019-04-19T12:48:11Z</time>
      </trkpt>
      <trkpt lat="44.14463" lon="3.13616">
        <ele>819.7</ele>
        <time>2019-04-19T12:48:12Z</time>
      </trkpt>
      <trkpt lat="44.1447" lon="3.13626">
        <ele>819.4</ele>
        <time>2019-04-19T12:48:13Z</time>
      </trkpt>
      <trkpt lat="44.14473" lon="3.13631">
        <ele>819.2</ele>
        <time>2019-04-19T12:48:14Z</time>
      </trkpt>
      <trkpt lat="44.14474" lon="3.13636">
        <ele>819.1</ele>
        <time>2019-04-19T12:48:15Z</time>
      </trkpt>
      <trkpt lat="44.14476" lon="3.13642">
        <ele>818.9</ele>
        <time>2019-04-19T12:48:16Z</time>
      </trkpt>
      <trkpt lat="44.14479" lon="3.13647">
        <ele>818.7</ele>
        <time>2019-04-19T12:48:17Z</time>
      </trkpt>
      <trkpt lat="44.14482" lon="3.13652">
        <ele>818.5</ele>
        <time>2019-04-19T12:48:18Z</time>
      </trkpt>
      <trkpt lat="44.14482" lon="3.13659">
        <ele>818.3</ele>
        <time>2019-04-19T12:48:19Z</time>
      </trkpt>
      <trkpt lat="44.14486" lon="3.13667">
        <ele>818.1</ele>
        <time>2019-04-19T12:48:20Z</time>
      </trkpt>
      <trkpt lat="44.14489" lon="3.13673">
        <ele>818.1</ele>
        <time>2019-04-19T12:48:21Z</time>
      </trkpt>
      <trkpt lat="44.1449" lon="3.13679">
        <ele>818</ele>
        <time>2019-04-19T12:48:22Z</time>
      </trkpt>
      <trkpt lat="44.14492" lon="3.13683">
        <ele>818</ele>
        <time>2019-04-19T12:48:23Z</time>
      </trkpt>
      <trkpt lat="44.14492" lon="3.13687">
        <ele>818</ele>
        <time>2019-04-19T12:48:24Z</time>
      </trkpt>
      <trkpt lat="44.14491" lon="3.13692">
        <ele>818</ele>
        <time>2019-04-19T12:48:25Z</time>
      </trkpt>
      <trkpt lat="44.14494" lon="3.13699">
        <ele>818</ele>
        <time>2019-04-19T12:48:26Z</time>
      </trkpt>
      <trkpt lat="44.14494" lon="3.13703">
        <ele>818</ele>
        <time>2019-04-19T12:48:27Z</time>
      </trkpt>
      <trkpt lat="44.14497" lon="3.13708">
        <ele>818</ele>
        <time>2019-04-19T12:48:28Z</time>
      </trkpt>
      <trkpt lat="44.145" lon="3.13718">
        <ele>818</ele>
        <time>2019-04-19T12:48:29Z</time>
      </trkpt>
      <trkpt lat="44.145" lon="3.13724">
        <ele>818</ele>
        <time>2019-04-19T12:48:30Z</time>
      </trkpt>
      <trkpt lat="44.14502" lon="3.13731">
        <ele>818</ele>
        <time>2019-04-19T12:48:31Z</time>
      </trkpt>
      <trkpt lat="44.14506" lon="3.13739">
        <ele>818</ele>
        <time>2019-04-19T12:48:32Z</time>
      </trkpt>
      <trkpt lat="44.14509" lon="3.13749">
        <ele>818</ele>
        <time>2019-04-19T12:48:33Z</time>
      </trkpt>
      <trkpt lat="44.1451" lon="3.13757">
        <ele>817.9</ele>
        <time>2019-04-19T12:48:34Z</time>
      </trkpt>
      <trkpt lat="44.14511" lon="3.13764">
        <ele>817.8</ele>
        <time>2019-04-19T12:48:35Z</time>
      </trkpt>
      <trkpt lat="44.14513" lon="3.1377">
        <ele>817.7</ele>
        <time>2019-04-19T12:48:36Z</time>
      </trkpt>
      <trkpt lat="44.1452" lon="3.13778">
        <ele>817.6</ele>
        <time>2019-04-19T12:48:37Z</time>
      </trkpt>
      <trkpt lat="44.14522" lon="3.13783">
        <ele>817.4</ele>
        <time>2019-04-19T12:48:38Z</time>
      </trkpt>
      <trkpt lat="44.14527" lon="3.13791">
        <ele>817.3</ele>
        <time>2019-04-19T12:48:39Z</time>
      </trkpt>
      <trkpt lat="44.14527" lon="3.138">
        <ele>817.3</ele>
        <time>2019-04-19T12:48:40Z</time>
      </trkpt>
      <trkpt lat="44.14526" lon="3.13805">
        <ele>817.4</ele>
        <time>2019-04-19T12:48:41Z</time>
      </trkpt>
      <trkpt lat="44.14526" lon="3.13811">
        <ele>817.4</ele>
        <time>2019-04-19T12:48:42Z</time>
      </trkpt>
      <trkpt lat="44.14526" lon="3.13817">
        <ele>817.5</ele>
        <time>2019-04-19T12:48:43Z</time>
      </trkpt>
      <trkpt lat="44.14527" lon="3.13822">
        <ele>817.6</ele>
        <time>2019-04-19T12:48:44Z</time>
      </trkpt>
      <trkpt lat="44.14528" lon="3.13828">
        <ele>817.7</ele>
        <time>2019-04-19T12:48:45Z</time>
      </trkpt>
      <trkpt lat="44.14529" lon="3.13834">
        <ele>817.8</ele>
        <time>2019-04-19T12:48:46Z</time>
      </trkpt>
      <trkpt lat="44.1453" lon="3.13839">
        <ele>817.9</ele>
        <time>2019-04-19T12:48:47Z</time>
      </trkpt>
      <trkpt lat="44.14532" lon="3.13845">
        <ele>818</ele>
        <time>2019-04-19T12:48:48Z</time>
      </trkpt>
      <trkpt lat="44.14533" lon="3.1385">
        <ele>818</ele>
        <time>2019-04-19T12:48:49Z</time>
      </trkpt>
      <trkpt lat="44.14534" lon="3.13855">
        <ele>818.1</ele>
        <time>2019-04-19T12:48:50Z</time>
      </trkpt>
      <trkpt lat="44.14537" lon="3.13861">
        <ele>818.2</ele>
        <time>2019-04-19T12:48:51Z</time>
      </trkpt>
      <trkpt lat="44.14541" lon="3.13869">
        <ele>818.3</ele>
        <time>2019-04-19T12:48:52Z</time>
      </trkpt>
      <trkpt lat="44.14543" lon="3.13875">
        <ele>818.3</ele>
        <time>2019-04-19T12:48:53Z</time>
      </trkpt>
      <trkpt lat="44.14547" lon="3.13879">
        <ele>818.4</ele>
        <time>2019-04-19T12:48:54Z</time>
      </trkpt>
      <trkpt lat="44.1455" lon="3.13884">
        <ele>818.4</ele>
        <time>2019-04-19T12:48:55Z</time>
      </trkpt>
      <trkpt lat="44.14552" lon="3.1389">
        <ele>818.4</ele>
        <time>2019-04-19T12:48:56Z</time>
      </trkpt>
      <trkpt lat="44.14552" lon="3.13894">
        <ele>818.4</ele>
        <time>2019-04-19T12:48:57Z</time>
      </trkpt>
      <trkpt lat="44.14555" lon="3.13897">
        <ele>818.5</ele>
        <time>2019-04-19T12:48:58Z</time>
      </trkpt>
      <trkpt lat="44.14557" lon="3.13901">
        <ele>818.5</ele>
        <time>2019-04-19T12:48:59Z</time>
      </trkpt>
      <trkpt lat="44.14561" lon="3.13907">
        <ele>818.5</ele>
        <time>2019-04-19T12:49:00Z</time>
      </trkpt>
      <trkpt lat="44.14563" lon="3.1391">
        <ele>818.5</ele>
        <time>2019-04-19T12:49:01Z</time>
      </trkpt>
      <trkpt lat="44.14567" lon="3.13913">
        <ele>818.6</ele>
        <time>2019-04-19T12:49:02Z</time>
      </trkpt>
      <trkpt lat="44.14573" lon="3.13916">
        <ele>818.6</ele>
        <time>2019-04-19T12:49:03Z</time>
      </trkpt>
      <trkpt lat="44.14578" lon="3.13917">
        <ele>818.6</ele>
        <time>2019-04-19T12:49:04Z</time>
      </trkpt>
      <trkpt lat="44.14583" lon="3.13917">
        <ele>818.6</ele>
        <time>2019-04-19T12:49:05Z</time>
      </trkpt>
      <trkpt lat="44.14587" lon="3.13919">
        <ele>818.7</ele>
        <time>2019-04-19T12:49:06Z</time>
      </trkpt>
      <trkpt lat="44.14591" lon="3.13919">
        <ele>818.7</ele>
        <time>2019-04-19T12:49:07Z</time>
      </trkpt>
      <trkpt lat="44.14595" lon="3.13918">
        <ele>818.7</ele>
        <time>2019-04-19T12:49:08Z</time>
      </trkpt>
      <trkpt lat="44.14598" lon="3.13916">
        <ele>818.7</ele>
        <time>2019-04-19T12:49:09Z</time>
      </trkpt>
      <trkpt lat="44.14602" lon="3.13915">
        <ele>818.8</ele>
        <time>2019-04-19T12:49:10Z</time>
      </trkpt>
      <trkpt lat="44.14605" lon="3.13913">
        <ele>818.8</ele>
        <time>2019-04-19T12:49:11Z</time>
      </trkpt>
      <trkpt lat="44.1461" lon="3.13908">
        <ele>818.9</ele>
        <time>2019-04-19T12:49:12Z</time>
      </trkpt>
      <trkpt lat="44.14615" lon="3.13905">
        <ele>819</ele>
        <time>2019-04-19T12:49:13Z</time>
      </trkpt>
      <trkpt lat="44.14618" lon="3.13903">
        <ele>819</ele>
        <time>2019-04-19T12:49:14Z</time>
      </trkpt>
      <trkpt lat="44.14623" lon="3.13899">
        <ele>819.1</ele>
        <time>2019-04-19T12:49:15Z</time>
      </trkpt>
      <trkpt lat="44.14629" lon="3.13895">
        <ele>819.1</ele>
        <time>2019-04-19T12:49:17Z</time>
      </trkpt>
      <trkpt lat="44.14632" lon="3.13891">
        <ele>819.2</ele>
        <time>2019-04-19T12:49:18Z</time>
      </trkpt>
      <trkpt lat="44.14635" lon="3.13888">
        <ele>819.3</ele>
        <time>2019-04-19T12:49:19Z</time>
      </trkpt>
      <trkpt lat="44.14638" lon="3.1389">
        <ele>819.3</ele>
        <time>2019-04-19T12:49:20Z</time>
      </trkpt>
      <trkpt lat="44.14641" lon="3.13887">
        <ele>819.3</ele>
        <time>2019-04-19T12:49:21Z</time>
      </trkpt>
      <trkpt lat="44.14645" lon="3.13884">
        <ele>819.4</ele>
        <time>2019-04-19T12:49:22Z</time>
      </trkpt>
      <trkpt lat="44.1465" lon="3.13882">
        <ele>819.5</ele>
        <time>2019-04-19T12:49:24Z</time>
      </trkpt>
      <trkpt lat="44.14653" lon="3.13881">
        <ele>819.5</ele>
        <time>2019-04-19T12:49:25Z</time>
      </trkpt>
      <trkpt lat="44.14657" lon="3.13875">
        <ele>819.6</ele>
        <time>2019-04-19T12:49:26Z</time>
      </trkpt>
      <trkpt lat="44.14661" lon="3.1387">
        <ele>819.7</ele>
        <time>2019-04-19T12:49:27Z</time>
      </trkpt>
      <trkpt lat="44.14666" lon="3.13864">
        <ele>819.8</ele>
        <time>2019-04-19T12:49:29Z</time>
      </trkpt>
      <trkpt lat="44.14671" lon="3.1386">
        <ele>819.9</ele>
        <time>2019-04-19T12:49:30Z</time>
      </trkpt>
      <trkpt lat="44.14674" lon="3.13855">
        <ele>820.1</ele>
        <time>2019-04-19T12:49:31Z</time>
      </trkpt>
      <trkpt lat="44.14677" lon="3.13853">
        <ele>820.2</ele>
        <time>2019-04-19T12:49:32Z</time>
      </trkpt>
      <trkpt lat="44.14681" lon="3.13848">
        <ele>820.3</ele>
        <time>2019-04-19T12:49:33Z</time>
      </trkpt>
      <trkpt lat="44.14685" lon="3.13846">
        <ele>820.4</ele>
        <time>2019-04-19T12:49:34Z</time>
      </trkpt>
      <trkpt lat="44.14688" lon="3.13839">
        <ele>820.6</ele>
        <time>2019-04-19T12:49:35Z</time>
      </trkpt>
      <trkpt lat="44.14693" lon="3.13834">
        <ele>820.7</ele>
        <time>2019-04-19T12:49:36Z</time>
      </trkpt>
      <trkpt lat="44.14698" lon="3.1383">
        <ele>820.9</ele>
        <time>2019-04-19T12:49:37Z</time>
      </trkpt>
      <trkpt lat="44.14702" lon="3.13827">
        <ele>821</ele>
        <time>2019-04-19T12:49:38Z</time>
      </trkpt>
      <trkpt lat="44.14706" lon="3.13823">
        <ele>821.1</ele>
        <time>2019-04-19T12:49:39Z</time>
      </trkpt>
      <trkpt lat="44.14709" lon="3.1382">
        <ele>821.2</ele>
        <time>2019-04-19T12:49:40Z</time>
      </trkpt>
      <trkpt lat="44.14713" lon="3.13814">
        <ele>821.4</ele>
        <time>2019-04-19T12:49:41Z</time>
      </trkpt>
      <trkpt lat="44.14716" lon="3.13811">
        <ele>821.4</ele>
        <time>2019-04-19T12:49:42Z</time>
      </trkpt>
      <trkpt lat="44.1472" lon="3.13809">
        <ele>821.5</ele>
        <time>2019-04-19T12:49:43Z</time>
      </trkpt>
      <trkpt lat="44.14723" lon="3.13804">
        <ele>821.5</ele>
        <time>2019-04-19T12:49:44Z</time>
      </trkpt>
      <trkpt lat="44.14727" lon="3.13804">
        <ele>821.5</ele>
        <time>2019-04-19T12:49:45Z</time>
      </trkpt>
      <trkpt lat="44.14729" lon="3.13809">
        <ele>821.5</ele>
        <time>2019-04-19T12:49:46Z</time>
      </trkpt>
      <trkpt lat="44.14733" lon="3.13809">
        <ele>821.5</ele>
        <time>2019-04-19T12:49:47Z</time>
      </trkpt>
      <trkpt lat="44.14738" lon="3.1381">
        <ele>821.5</ele>
        <time>2019-04-19T12:49:49Z</time>
      </trkpt>
      <trkpt lat="44.14742" lon="3.13808">
        <ele>821.5</ele>
        <time>2019-04-19T12:49:50Z</time>
      </trkpt>
      <trkpt lat="44.14746" lon="3.13809">
        <ele>821.5</ele>
        <time>2019-04-19T12:49:51Z</time>
      </trkpt>
      <trkpt lat="44.14749" lon="3.13807">
        <ele>821.5</ele>
        <time>2019-04-19T12:49:52Z</time>
      </trkpt>
      <trkpt lat="44.14754" lon="3.13808">
        <ele>821.6</ele>
        <time>2019-04-19T12:49:53Z</time>
      </trkpt>
      <trkpt lat="44.1476" lon="3.13797">
        <ele>821.6</ele>
        <time>2019-04-19T12:49:54Z</time>
      </trkpt>
      <trkpt lat="44.14765" lon="3.13794">
        <ele>821.7</ele>
        <time>2019-04-19T12:49:55Z</time>
      </trkpt>
      <trkpt lat="44.14772" lon="3.13789">
        <ele>821.8</ele>
        <time>2019-04-19T12:49:56Z</time>
      </trkpt>
      <trkpt lat="44.14778" lon="3.13789">
        <ele>821.8</ele>
        <time>2019-04-19T12:49:57Z</time>
      </trkpt>
      <trkpt lat="44.14782" lon="3.13789">
        <ele>821.9</ele>
        <time>2019-04-19T12:49:58Z</time>
      </trkpt>
      <trkpt lat="44.14788" lon="3.13788">
        <ele>822</ele>
        <time>2019-04-19T12:49:59Z</time>
      </trkpt>
      <trkpt lat="44.14791" lon="3.13786">
        <ele>822.1</ele>
        <time>2019-04-19T12:50:00Z</time>
      </trkpt>
      <trkpt lat="44.14796" lon="3.13778">
        <ele>822.3</ele>
        <time>2019-04-19T12:50:01Z</time>
      </trkpt>
      <trkpt lat="44.148" lon="3.13777">
        <ele>822.5</ele>
        <time>2019-04-19T12:50:02Z</time>
      </trkpt>
      <trkpt lat="44.14806" lon="3.1377">
        <ele>822.7</ele>
        <time>2019-04-19T12:50:03Z</time>
      </trkpt>
      <trkpt lat="44.14811" lon="3.13766">
        <ele>822.9</ele>
        <time>2019-04-19T12:50:04Z</time>
      </trkpt>
      <trkpt lat="44.14817" lon="3.13766">
        <ele>823</ele>
        <time>2019-04-19T12:50:06Z</time>
      </trkpt>
      <trkpt lat="44.1482" lon="3.13763">
        <ele>823.2</ele>
        <time>2019-04-19T12:50:07Z</time>
      </trkpt>
      <trkpt lat="44.14823" lon="3.13759">
        <ele>823.4</ele>
        <time>2019-04-19T12:50:08Z</time>
      </trkpt>
      <trkpt lat="44.14828" lon="3.13755">
        <ele>823.7</ele>
        <time>2019-04-19T12:50:10Z</time>
      </trkpt>
      <trkpt lat="44.14831" lon="3.13751">
        <ele>824</ele>
        <time>2019-04-19T12:50:11Z</time>
      </trkpt>
      <trkpt lat="44.14832" lon="3.13748">
        <ele>824.1</ele>
        <time>2019-04-19T12:50:12Z</time>
      </trkpt>
      <trkpt lat="44.14838" lon="3.13734">
        <ele>824.5</ele>
        <time>2019-04-19T12:50:14Z</time>
      </trkpt>
      <trkpt lat="44.1484" lon="3.13726">
        <ele>824.7</ele>
        <time>2019-04-19T12:50:16Z</time>
      </trkpt>
      <trkpt lat="44.14841" lon="3.13721">
        <ele>824.9</ele>
        <time>2019-04-19T12:50:18Z</time>
      </trkpt>
      <trkpt lat="44.14842" lon="3.13717">
        <ele>825</ele>
        <time>2019-04-19T12:50:19Z</time>
      </trkpt>
      <trkpt lat="44.14842" lon="3.13713">
        <ele>825.1</ele>
        <time>2019-04-19T12:50:20Z</time>
      </trkpt>
      <trkpt lat="44.14843" lon="3.13708">
        <ele>825.2</ele>
        <time>2019-04-19T12:50:21Z</time>
      </trkpt>
      <trkpt lat="44.14843" lon="3.13704">
        <ele>825.4</ele>
        <time>2019-04-19T12:50:22Z</time>
      </trkpt>
      <trkpt lat="44.14844" lon="3.13696">
        <ele>825.7</ele>
        <time>2019-04-19T12:50:24Z</time>
      </trkpt>
      <trkpt lat="44.14845" lon="3.13692">
        <ele>825.8</ele>
        <time>2019-04-19T12:50:25Z</time>
      </trkpt>
      <trkpt lat="44.14846" lon="3.13688">
        <ele>826</ele>
        <time>2019-04-19T12:50:26Z</time>
      </trkpt>
      <trkpt lat="44.14847" lon="3.13684">
        <ele>826.1</ele>
        <time>2019-04-19T12:50:27Z</time>
      </trkpt>
      <trkpt lat="44.14849" lon="3.1368">
        <ele>826.3</ele>
        <time>2019-04-19T12:50:28Z</time>
      </trkpt>
      <trkpt lat="44.14853" lon="3.13675">
        <ele>826.5</ele>
        <time>2019-04-19T12:50:30Z</time>
      </trkpt>
      <trkpt lat="44.14856" lon="3.13672">
        <ele>826.6</ele>
        <time>2019-04-19T12:50:31Z</time>
      </trkpt>
      <trkpt lat="44.14858" lon="3.1367">
        <ele>826.7</ele>
        <time>2019-04-19T12:50:32Z</time>
      </trkpt>
      <trkpt lat="44.1486" lon="3.13667">
        <ele>826.8</ele>
        <time>2019-04-19T12:50:33Z</time>
      </trkpt>
      <trkpt lat="44.14864" lon="3.13662">
        <ele>827</ele>
        <time>2019-04-19T12:50:35Z</time>
      </trkpt>
      <trkpt lat="44.14866" lon="3.13659">
        <ele>827.1</ele>
        <time>2019-04-19T12:50:36Z</time>
      </trkpt>
      <trkpt lat="44.14868" lon="3.13656">
        <ele>827.2</ele>
        <time>2019-04-19T12:50:37Z</time>
      </trkpt>
      <trkpt lat="44.1487" lon="3.13652">
        <ele>827.3</ele>
        <time>2019-04-19T12:50:38Z</time>
      </trkpt>
      <trkpt lat="44.14872" lon="3.13649">
        <ele>827.3</ele>
        <time>2019-04-19T12:50:39Z</time>
      </trkpt>
      <trkpt lat="44.14875" lon="3.13645">
        <ele>827.4</ele>
        <time>2019-04-19T12:50:40Z</time>
      </trkpt>
      <trkpt lat="44.14876" lon="3.13641">
        <ele>827.4</ele>
        <time>2019-04-19T12:50:41Z</time>
      </trkpt>
      <trkpt lat="44.14878" lon="3.13637">
        <ele>827</ele>
        <time>2019-04-19T12:50:42Z</time>
      </trkpt>
      <trkpt lat="44.1488" lon="3.13632">
        <ele>826.7</ele>
        <time>2019-04-19T12:50:43Z</time>
      </trkpt>
      <trkpt lat="44.14882" lon="3.13627">
        <ele>826.4</ele>
        <time>2019-04-19T12:50:44Z</time>
      </trkpt>
      <trkpt lat="44.14886" lon="3.13621">
        <ele>826.1</ele>
        <time>2019-04-19T12:50:45Z</time>
      </trkpt>
      <trkpt lat="44.14889" lon="3.13614">
        <ele>825.8</ele>
        <time>2019-04-19T12:50:46Z</time>
      </trkpt>
      <trkpt lat="44.14891" lon="3.13608">
        <ele>825.5</ele>
        <time>2019-04-19T12:50:47Z</time>
      </trkpt>
      <trkpt lat="44.14893" lon="3.13601">
        <ele>825.3</ele>
        <time>2019-04-19T12:50:48Z</time>
      </trkpt>
      <trkpt lat="44.14895" lon="3.13594">
        <ele>825.2</ele>
        <time>2019-04-19T12:50:49Z</time>
      </trkpt>
      <trkpt lat="44.14897" lon="3.13588">
        <ele>825</ele>
        <time>2019-04-19T12:50:50Z</time>
      </trkpt>
      <trkpt lat="44.14897" lon="3.1358">
        <ele>824.9</ele>
        <time>2019-04-19T12:50:51Z</time>
      </trkpt>
      <trkpt lat="44.14902" lon="3.13572">
        <ele>824.7</ele>
        <time>2019-04-19T12:50:53Z</time>
      </trkpt>
      <trkpt lat="44.14904" lon="3.13566">
        <ele>824.6</ele>
        <time>2019-04-19T12:50:54Z</time>
      </trkpt>
      <trkpt lat="44.14905" lon="3.1356">
        <ele>824.5</ele>
        <time>2019-04-19T12:50:55Z</time>
      </trkpt>
      <trkpt lat="44.14908" lon="3.13553">
        <ele>824.5</ele>
        <time>2019-04-19T12:50:56Z</time>
      </trkpt>
      <trkpt lat="44.1491" lon="3.13549">
        <ele>824.4</ele>
        <time>2019-04-19T12:50:57Z</time>
      </trkpt>
      <trkpt lat="44.14911" lon="3.13543">
        <ele>824.4</ele>
        <time>2019-04-19T12:50:58Z</time>
      </trkpt>
      <trkpt lat="44.14913" lon="3.13535">
        <ele>824.3</ele>
        <time>2019-04-19T12:50:59Z</time>
      </trkpt>
      <trkpt lat="44.14912" lon="3.13529">
        <ele>824.3</ele>
        <time>2019-04-19T12:51:00Z</time>
      </trkpt>
      <trkpt lat="44.14914" lon="3.13524">
        <ele>824.2</ele>
        <time>2019-04-19T12:51:01Z</time>
      </trkpt>
      <trkpt lat="44.14922" lon="3.1352">
        <ele>824.1</ele>
        <time>2019-04-19T12:51:02Z</time>
      </trkpt>
      <trkpt lat="44.14929" lon="3.1351">
        <ele>823.9</ele>
        <time>2019-04-19T12:51:03Z</time>
      </trkpt>
      <trkpt lat="44.14933" lon="3.13504">
        <ele>823.7</ele>
        <time>2019-04-19T12:51:04Z</time>
      </trkpt>
      <trkpt lat="44.14936" lon="3.13495">
        <ele>823.5</ele>
        <time>2019-04-19T12:51:05Z</time>
      </trkpt>
      <trkpt lat="44.14939" lon="3.13488">
        <ele>823.4</ele>
        <time>2019-04-19T12:51:06Z</time>
      </trkpt>
      <trkpt lat="44.14941" lon="3.13478">
        <ele>823.2</ele>
        <time>2019-04-19T12:51:07Z</time>
      </trkpt>
      <trkpt lat="44.14945" lon="3.13469">
        <ele>822.9</ele>
        <time>2019-04-19T12:51:08Z</time>
      </trkpt>
      <trkpt lat="44.14947" lon="3.13462">
        <ele>822.8</ele>
        <time>2019-04-19T12:51:09Z</time>
      </trkpt>
      <trkpt lat="44.1495" lon="3.13454">
        <ele>822.6</ele>
        <time>2019-04-19T12:51:10Z</time>
      </trkpt>
      <trkpt lat="44.14952" lon="3.13445">
        <ele>822.4</ele>
        <time>2019-04-19T12:51:11Z</time>
      </trkpt>
      <trkpt lat="44.14953" lon="3.13438">
        <ele>822.3</ele>
        <time>2019-04-19T12:51:12Z</time>
      </trkpt>
      <trkpt lat="44.14955" lon="3.13429">
        <ele>822.1</ele>
        <time>2019-04-19T12:51:13Z</time>
      </trkpt>
      <trkpt lat="44.14956" lon="3.13422">
        <ele>821.9</ele>
        <time>2019-04-19T12:51:14Z</time>
      </trkpt>
      <trkpt lat="44.14961" lon="3.13414">
        <ele>821.7</ele>
        <time>2019-04-19T12:51:15Z</time>
      </trkpt>
      <trkpt lat="44.14963" lon="3.13405">
        <ele>821.5</ele>
        <time>2019-04-19T12:51:16Z</time>
      </trkpt>
      <trkpt lat="44.14965" lon="3.13395">
        <ele>821.3</ele>
        <time>2019-04-19T12:51:17Z</time>
      </trkpt>
      <trkpt lat="44.14967" lon="3.13384">
        <ele>821.2</ele>
        <time>2019-04-19T12:51:18Z</time>
      </trkpt>
      <trkpt lat="44.14968" lon="3.13376">
        <ele>821</ele>
        <time>2019-04-19T12:51:19Z</time>
      </trkpt>
      <trkpt lat="44.14969" lon="3.13367">
        <ele>820.9</ele>
        <time>2019-04-19T12:51:20Z</time>
      </trkpt>
      <trkpt lat="44.1497" lon="3.13357">
        <ele>820.7</ele>
        <time>2019-04-19T12:51:21Z</time>
      </trkpt>
      <trkpt lat="44.1497" lon="3.13347">
        <ele>820.6</ele>
        <time>2019-04-19T12:51:22Z</time>
      </trkpt>
      <trkpt lat="44.14971" lon="3.13336">
        <ele>820.5</ele>
        <time>2019-04-19T12:51:23Z</time>
      </trkpt>
      <trkpt lat="44.14971" lon="3.13327">
        <ele>820.3</ele>
        <time>2019-04-19T12:51:24Z</time>
      </trkpt>
      <trkpt lat="44.14973" lon="3.13317">
        <ele>820.2</ele>
        <time>2019-04-19T12:51:25Z</time>
      </trkpt>
      <trkpt lat="44.14971" lon="3.13306">
        <ele>820.1</ele>
        <time>2019-04-19T12:51:26Z</time>
      </trkpt>
      <trkpt lat="44.14974" lon="3.13298">
        <ele>820</ele>
        <time>2019-04-19T12:51:27Z</time>
      </trkpt>
      <trkpt lat="44.14972" lon="3.13287">
        <ele>819.9</ele>
        <time>2019-04-19T12:51:28Z</time>
      </trkpt>
      <trkpt lat="44.14974" lon="3.13278">
        <ele>819.9</ele>
        <time>2019-04-19T12:51:29Z</time>
      </trkpt>
      <trkpt lat="44.14972" lon="3.13269">
        <ele>819.8</ele>
        <time>2019-04-19T12:51:30Z</time>
      </trkpt>
      <trkpt lat="44.14961" lon="3.1326">
        <ele>819.7</ele>
        <time>2019-04-19T12:51:31Z</time>
      </trkpt>
      <trkpt lat="44.14958" lon="3.13252">
        <ele>819.7</ele>
        <time>2019-04-19T12:51:32Z</time>
      </trkpt>
      <trkpt lat="44.14957" lon="3.13243">
        <ele>819.7</ele>
        <time>2019-04-19T12:51:33Z</time>
      </trkpt>
      <trkpt lat="44.14955" lon="3.13234">
        <ele>819.6</ele>
        <time>2019-04-19T12:51:34Z</time>
      </trkpt>
      <trkpt lat="44.14958" lon="3.13226">
        <ele>819.6</ele>
        <time>2019-04-19T12:51:35Z</time>
      </trkpt>
      <trkpt lat="44.14958" lon="3.13218">
        <ele>819.6</ele>
        <time>2019-04-19T12:51:36Z</time>
      </trkpt>
      <trkpt lat="44.14956" lon="3.1321">
        <ele>819.6</ele>
        <time>2019-04-19T12:51:37Z</time>
      </trkpt>
      <trkpt lat="44.14956" lon="3.132">
        <ele>819.6</ele>
        <time>2019-04-19T12:51:38Z</time>
      </trkpt>
      <trkpt lat="44.14955" lon="3.13192">
        <ele>819.6</ele>
        <time>2019-04-19T12:51:39Z</time>
      </trkpt>
      <trkpt lat="44.14953" lon="3.13184">
        <ele>819.5</ele>
        <time>2019-04-19T12:51:40Z</time>
      </trkpt>
      <trkpt lat="44.14954" lon="3.13177">
        <ele>819.5</ele>
        <time>2019-04-19T12:51:41Z</time>
      </trkpt>
      <trkpt lat="44.1495" lon="3.13169">
        <ele>819.4</ele>
        <time>2019-04-19T12:51:42Z</time>
      </trkpt>
      <trkpt lat="44.14946" lon="3.13162">
        <ele>819.3</ele>
        <time>2019-04-19T12:51:43Z</time>
      </trkpt>
      <trkpt lat="44.14944" lon="3.13155">
        <ele>819.2</ele>
        <time>2019-04-19T12:51:44Z</time>
      </trkpt>
      <trkpt lat="44.14939" lon="3.13147">
        <ele>819.1</ele>
        <time>2019-04-19T12:51:45Z</time>
      </trkpt>
      <trkpt lat="44.14937" lon="3.13141">
        <ele>819</ele>
        <time>2019-04-19T12:51:46Z</time>
      </trkpt>
      <trkpt lat="44.14934" lon="3.13133">
        <ele>818.8</ele>
        <time>2019-04-19T12:51:47Z</time>
      </trkpt>
      <trkpt lat="44.14937" lon="3.13126">
        <ele>818.7</ele>
        <time>2019-04-19T12:51:48Z</time>
      </trkpt>
      <trkpt lat="44.14936" lon="3.13119">
        <ele>818.5</ele>
        <time>2019-04-19T12:51:49Z</time>
      </trkpt>
      <trkpt lat="44.14934" lon="3.1311">
        <ele>818</ele>
        <time>2019-04-19T12:51:50Z</time>
      </trkpt>
      <trkpt lat="44.14933" lon="3.13102">
        <ele>817.5</ele>
        <time>2019-04-19T12:51:51Z</time>
      </trkpt>
      <trkpt lat="44.14937" lon="3.13097">
        <ele>817.1</ele>
        <time>2019-04-19T12:51:52Z</time>
      </trkpt>
      <trkpt lat="44.14941" lon="3.13089">
        <ele>816.6</ele>
        <time>2019-04-19T12:51:53Z</time>
      </trkpt>
      <trkpt lat="44.14945" lon="3.13083">
        <ele>816.3</ele>
        <time>2019-04-19T12:51:54Z</time>
      </trkpt>
      <trkpt lat="44.14949" lon="3.13074">
        <ele>815.9</ele>
        <time>2019-04-19T12:51:55Z</time>
      </trkpt>
      <trkpt lat="44.14952" lon="3.13066">
        <ele>815.5</ele>
        <time>2019-04-19T12:51:56Z</time>
      </trkpt>
      <trkpt lat="44.14957" lon="3.13055">
        <ele>815.2</ele>
        <time>2019-04-19T12:51:57Z</time>
      </trkpt>
      <trkpt lat="44.14961" lon="3.13044">
        <ele>814.9</ele>
        <time>2019-04-19T12:51:58Z</time>
      </trkpt>
      <trkpt lat="44.14964" lon="3.13035">
        <ele>814.8</ele>
        <time>2019-04-19T12:51:59Z</time>
      </trkpt>
      <trkpt lat="44.14966" lon="3.13028">
        <ele>814.7</ele>
        <time>2019-04-19T12:52:00Z</time>
      </trkpt>
      <trkpt lat="44.14969" lon="3.13023">
        <ele>814.7</ele>
        <time>2019-04-19T12:52:01Z</time>
      </trkpt>
      <trkpt lat="44.14971" lon="3.13018">
        <ele>814.7</ele>
        <time>2019-04-19T12:52:02Z</time>
      </trkpt>
      <trkpt lat="44.14971" lon="3.13014">
        <ele>814.7</ele>
        <time>2019-04-19T12:52:03Z</time>
      </trkpt>
      <trkpt lat="44.14975" lon="3.13008">
        <ele>814.7</ele>
        <time>2019-04-19T12:52:04Z</time>
      </trkpt>
      <trkpt lat="44.14977" lon="3.13002">
        <ele>814.8</ele>
        <time>2019-04-19T12:52:05Z</time>
      </trkpt>
      <trkpt lat="44.14978" lon="3.12999">
        <ele>814.8</ele>
        <time>2019-04-19T12:52:06Z</time>
      </trkpt>
      <trkpt lat="44.14978" lon="3.12994">
        <ele>814.8</ele>
        <time>2019-04-19T12:52:07Z</time>
      </trkpt>
      <trkpt lat="44.14978" lon="3.12988">
        <ele>814.9</ele>
        <time>2019-04-19T12:52:08Z</time>
      </trkpt>
      <trkpt lat="44.14978" lon="3.12984">
        <ele>814.9</ele>
        <time>2019-04-19T12:52:09Z</time>
      </trkpt>
      <trkpt lat="44.1498" lon="3.12981">
        <ele>815</ele>
        <time>2019-04-19T12:52:10Z</time>
      </trkpt>
      <trkpt lat="44.14983" lon="3.12977">
        <ele>815.1</ele>
        <time>2019-04-19T12:52:11Z</time>
      </trkpt>
      <trkpt lat="44.14989" lon="3.12974">
        <ele>815.2</ele>
        <time>2019-04-19T12:52:13Z</time>
      </trkpt>
      <trkpt lat="44.14995" lon="3.12963">
        <ele>815.5</ele>
        <time>2019-04-19T12:52:14Z</time>
      </trkpt>
      <trkpt lat="44.14997" lon="3.12959">
        <ele>815.6</ele>
        <time>2019-04-19T12:52:16Z</time>
      </trkpt>
      <trkpt lat="44.14995" lon="3.12956">
        <ele>815.7</ele>
        <time>2019-04-19T12:52:21Z</time>
      </trkpt>
      <trkpt lat="44.14992" lon="3.12953">
        <ele>815.8</ele>
        <time>2019-04-19T12:52:23Z</time>
      </trkpt>
      <trkpt lat="44.14989" lon="3.1295">
        <ele>816</ele>
        <time>2019-04-19T12:52:27Z</time>
      </trkpt>
      <trkpt lat="44.14986" lon="3.12948">
        <ele>816.1</ele>
        <time>2019-04-19T12:52:38Z</time>
      </trkpt>
      <trkpt lat="44.14983" lon="3.12946">
        <ele>816.2</ele>
        <time>2019-04-19T12:52:41Z</time>
      </trkpt>
      <trkpt lat="44.14985" lon="3.12956">
        <ele>816.6</ele>
        <time>2019-04-19T12:53:40Z</time>
      </trkpt>
      <trkpt lat="44.14987" lon="3.1296">
        <ele>816.7</ele>
        <time>2019-04-19T12:53:43Z</time>
      </trkpt>
      <trkpt lat="44.14991" lon="3.1296">
        <ele>816.9</ele>
        <time>2019-04-19T12:53:47Z</time>
      </trkpt>
      <trkpt lat="44.14994" lon="3.12959">
        <ele>817</ele>
        <time>2019-04-19T12:53:58Z</time>
      </trkpt>
      <trkpt lat="44.14997" lon="3.12955">
        <ele>817.2</ele>
        <time>2019-04-19T12:54:00Z</time>
      </trkpt>
      <trkpt lat="44.14999" lon="3.1295">
        <ele>817.4</ele>
        <time>2019-04-19T12:54:02Z</time>
      </trkpt>
      <trkpt lat="44.14999" lon="3.12942">
        <ele>817.7</ele>
        <time>2019-04-19T12:54:04Z</time>
      </trkpt>
      <trkpt lat="44.15" lon="3.12935">
        <ele>818</ele>
        <time>2019-04-19T12:54:06Z</time>
      </trkpt>
      <trkpt lat="44.15004" lon="3.1293">
        <ele>818.3</ele>
        <time>2019-04-19T12:54:08Z</time>
      </trkpt>
      <trkpt lat="44.15006" lon="3.12928">
        <ele>818.4</ele>
        <time>2019-04-19T12:54:09Z</time>
      </trkpt>
      <trkpt lat="44.15009" lon="3.12925">
        <ele>818.6</ele>
        <time>2019-04-19T12:54:10Z</time>
      </trkpt>
      <trkpt lat="44.15012" lon="3.12922">
        <ele>818.9</ele>
        <time>2019-04-19T12:54:11Z</time>
      </trkpt>
      <trkpt lat="44.15014" lon="3.12919">
        <ele>819.1</ele>
        <time>2019-04-19T12:54:12Z</time>
      </trkpt>
      <trkpt lat="44.15016" lon="3.12916">
        <ele>819.3</ele>
        <time>2019-04-19T12:54:13Z</time>
      </trkpt>
      <trkpt lat="44.15018" lon="3.12913">
        <ele>819.6</ele>
        <time>2019-04-19T12:54:14Z</time>
      </trkpt>
      <trkpt lat="44.15022" lon="3.12907">
        <ele>820.2</ele>
        <time>2019-04-19T12:54:16Z</time>
      </trkpt>
      <trkpt lat="44.15024" lon="3.12904">
        <ele>820.5</ele>
        <time>2019-04-19T12:54:17Z</time>
      </trkpt>
      <trkpt lat="44.15025" lon="3.129">
        <ele>820.9</ele>
        <time>2019-04-19T12:54:18Z</time>
      </trkpt>
      <trkpt lat="44.15027" lon="3.12897">
        <ele>821.3</ele>
        <time>2019-04-19T12:54:19Z</time>
      </trkpt>
      <trkpt lat="44.1503" lon="3.12892">
        <ele>821.9</ele>
        <time>2019-04-19T12:54:21Z</time>
      </trkpt>
      <trkpt lat="44.15032" lon="3.12887">
        <ele>822.4</ele>
        <time>2019-04-19T12:54:23Z</time>
      </trkpt>
      <trkpt lat="44.15034" lon="3.12882">
        <ele>822.9</ele>
        <time>2019-04-19T12:54:25Z</time>
      </trkpt>
      <trkpt lat="44.15035" lon="3.12877">
        <ele>823.4</ele>
        <time>2019-04-19T12:54:27Z</time>
      </trkpt>
      <trkpt lat="44.15036" lon="3.12872">
        <ele>823.8</ele>
        <time>2019-04-19T12:54:29Z</time>
      </trkpt>
      <trkpt lat="44.15038" lon="3.12865">
        <ele>824.3</ele>
        <time>2019-04-19T12:54:31Z</time>
      </trkpt>
      <trkpt lat="44.15041" lon="3.1286">
        <ele>824.7</ele>
        <time>2019-04-19T12:54:33Z</time>
      </trkpt>
      <trkpt lat="44.15043" lon="3.12858">
        <ele>824.9</ele>
        <time>2019-04-19T12:54:34Z</time>
      </trkpt>
      <trkpt lat="44.15046" lon="3.12855">
        <ele>825.1</ele>
        <time>2019-04-19T12:54:35Z</time>
      </trkpt>
      <trkpt lat="44.1505" lon="3.1285">
        <ele>825.5</ele>
        <time>2019-04-19T12:54:37Z</time>
      </trkpt>
      <trkpt lat="44.15053" lon="3.12847">
        <ele>825.7</ele>
        <time>2019-04-19T12:54:38Z</time>
      </trkpt>
      <trkpt lat="44.15056" lon="3.12844">
        <ele>825.9</ele>
        <time>2019-04-19T12:54:40Z</time>
      </trkpt>
      <trkpt lat="44.15058" lon="3.12839">
        <ele>826.1</ele>
        <time>2019-04-19T12:54:42Z</time>
      </trkpt>
      <trkpt lat="44.15061" lon="3.12833">
        <ele>826.2</ele>
        <time>2019-04-19T12:54:44Z</time>
      </trkpt>
      <trkpt lat="44.15062" lon="3.12827">
        <ele>826.4</ele>
        <time>2019-04-19T12:54:46Z</time>
      </trkpt>
      <trkpt lat="44.15063" lon="3.12823">
        <ele>826.5</ele>
        <time>2019-04-19T12:54:47Z</time>
      </trkpt>
      <trkpt lat="44.15064" lon="3.12819">
        <ele>826.6</ele>
        <time>2019-04-19T12:54:48Z</time>
      </trkpt>
      <trkpt lat="44.15064" lon="3.12815">
        <ele>826.7</ele>
        <time>2019-04-19T12:54:49Z</time>
      </trkpt>
      <trkpt lat="44.15064" lon="3.12811">
        <ele>826.8</ele>
        <time>2019-04-19T12:54:50Z</time>
      </trkpt>
      <trkpt lat="44.15064" lon="3.12807">
        <ele>826.9</ele>
        <time>2019-04-19T12:54:51Z</time>
      </trkpt>
      <trkpt lat="44.15063" lon="3.12799">
        <ele>827.2</ele>
        <time>2019-04-19T12:54:53Z</time>
      </trkpt>
      <trkpt lat="44.15063" lon="3.12795">
        <ele>827.3</ele>
        <time>2019-04-19T12:54:54Z</time>
      </trkpt>
      <trkpt lat="44.15063" lon="3.1279">
        <ele>827.5</ele>
        <time>2019-04-19T12:54:55Z</time>
      </trkpt>
      <trkpt lat="44.15065" lon="3.12786">
        <ele>827.7</ele>
        <time>2019-04-19T12:54:56Z</time>
      </trkpt>
      <trkpt lat="44.15066" lon="3.12782">
        <ele>827.9</ele>
        <time>2019-04-19T12:54:57Z</time>
      </trkpt>
      <trkpt lat="44.15067" lon="3.12778">
        <ele>828.1</ele>
        <time>2019-04-19T12:54:58Z</time>
      </trkpt>
      <trkpt lat="44.15069" lon="3.12772">
        <ele>828.4</ele>
        <time>2019-04-19T12:55:00Z</time>
      </trkpt>
      <trkpt lat="44.15071" lon="3.12766">
        <ele>828.7</ele>
        <time>2019-04-19T12:55:02Z</time>
      </trkpt>
      <trkpt lat="44.15073" lon="3.12758">
        <ele>829.1</ele>
        <time>2019-04-19T12:55:04Z</time>
      </trkpt>
      <trkpt lat="44.15076" lon="3.12755">
        <ele>829.3</ele>
        <time>2019-04-19T12:55:06Z</time>
      </trkpt>
      <trkpt lat="44.15077" lon="3.12751">
        <ele>829.6</ele>
        <time>2019-04-19T12:55:07Z</time>
      </trkpt>
      <trkpt lat="44.15079" lon="3.12747">
        <ele>829.8</ele>
        <time>2019-04-19T12:55:08Z</time>
      </trkpt>
      <trkpt lat="44.15081" lon="3.12743">
        <ele>830</ele>
        <time>2019-04-19T12:55:09Z</time>
      </trkpt>
      <trkpt lat="44.15083" lon="3.12739">
        <ele>830.2</ele>
        <time>2019-04-19T12:55:10Z</time>
      </trkpt>
      <trkpt lat="44.15084" lon="3.12735">
        <ele>830.3</ele>
        <time>2019-04-19T12:55:11Z</time>
      </trkpt>
      <trkpt lat="44.15086" lon="3.12732">
        <ele>830.5</ele>
        <time>2019-04-19T12:55:12Z</time>
      </trkpt>
      <trkpt lat="44.1509" lon="3.12726">
        <ele>830.8</ele>
        <time>2019-04-19T12:55:14Z</time>
      </trkpt>
      <trkpt lat="44.15092" lon="3.12722">
        <ele>830.9</ele>
        <time>2019-04-19T12:55:15Z</time>
      </trkpt>
      <trkpt lat="44.15093" lon="3.12719">
        <ele>831</ele>
        <time>2019-04-19T12:55:16Z</time>
      </trkpt>
      <trkpt lat="44.15095" lon="3.12716">
        <ele>831.1</ele>
        <time>2019-04-19T12:55:17Z</time>
      </trkpt>
      <trkpt lat="44.15097" lon="3.12712">
        <ele>831.2</ele>
        <time>2019-04-19T12:55:18Z</time>
      </trkpt>
      <trkpt lat="44.15099" lon="3.12709">
        <ele>831.3</ele>
        <time>2019-04-19T12:55:19Z</time>
      </trkpt>
      <trkpt lat="44.15101" lon="3.12706">
        <ele>831.4</ele>
        <time>2019-04-19T12:55:20Z</time>
      </trkpt>
      <trkpt lat="44.15104" lon="3.12703">
        <ele>831.5</ele>
        <time>2019-04-19T12:55:21Z</time>
      </trkpt>
      <trkpt lat="44.15107" lon="3.12696">
        <ele>831.6</ele>
        <time>2019-04-19T12:55:23Z</time>
      </trkpt>
      <trkpt lat="44.15109" lon="3.12691">
        <ele>831.7</ele>
        <time>2019-04-19T12:55:24Z</time>
      </trkpt>
      <trkpt lat="44.15112" lon="3.12686">
        <ele>831.8</ele>
        <time>2019-04-19T12:55:25Z</time>
      </trkpt>
      <trkpt lat="44.15114" lon="3.12681">
        <ele>831.9</ele>
        <time>2019-04-19T12:55:26Z</time>
      </trkpt>
      <trkpt lat="44.15115" lon="3.12677">
        <ele>831.9</ele>
        <time>2019-04-19T12:55:27Z</time>
      </trkpt>
      <trkpt lat="44.15115" lon="3.12671">
        <ele>831.9</ele>
        <time>2019-04-19T12:55:28Z</time>
      </trkpt>
      <trkpt lat="44.15115" lon="3.12666">
        <ele>831.9</ele>
        <time>2019-04-19T12:55:29Z</time>
      </trkpt>
      <trkpt lat="44.15115" lon="3.1266">
        <ele>832</ele>
        <time>2019-04-19T12:55:30Z</time>
      </trkpt>
      <trkpt lat="44.15115" lon="3.12654">
        <ele>832</ele>
        <time>2019-04-19T12:55:31Z</time>
      </trkpt>
      <trkpt lat="44.15114" lon="3.12648">
        <ele>832</ele>
        <time>2019-04-19T12:55:32Z</time>
      </trkpt>
      <trkpt lat="44.15113" lon="3.12644">
        <ele>832</ele>
        <time>2019-04-19T12:55:33Z</time>
      </trkpt>
      <trkpt lat="44.15111" lon="3.12639">
        <ele>832.1</ele>
        <time>2019-04-19T12:55:34Z</time>
      </trkpt>
      <trkpt lat="44.15108" lon="3.12635">
        <ele>832.1</ele>
        <time>2019-04-19T12:55:35Z</time>
      </trkpt>
      <trkpt lat="44.15106" lon="3.12632">
        <ele>832.1</ele>
        <time>2019-04-19T12:55:36Z</time>
      </trkpt>
      <trkpt lat="44.15102" lon="3.12628">
        <ele>832.2</ele>
        <time>2019-04-19T12:55:37Z</time>
      </trkpt>
      <trkpt lat="44.15099" lon="3.12624">
        <ele>832.2</ele>
        <time>2019-04-19T12:55:38Z</time>
      </trkpt>
      <trkpt lat="44.15096" lon="3.1262">
        <ele>832.3</ele>
        <time>2019-04-19T12:55:39Z</time>
      </trkpt>
      <trkpt lat="44.15093" lon="3.12616">
        <ele>832.4</ele>
        <time>2019-04-19T12:55:40Z</time>
      </trkpt>
      <trkpt lat="44.1509" lon="3.12612">
        <ele>832.4</ele>
        <time>2019-04-19T12:55:41Z</time>
      </trkpt>
      <trkpt lat="44.15088" lon="3.12608">
        <ele>832.5</ele>
        <time>2019-04-19T12:55:42Z</time>
      </trkpt>
      <trkpt lat="44.15085" lon="3.12605">
        <ele>832.5</ele>
        <time>2019-04-19T12:55:43Z</time>
      </trkpt>
      <trkpt lat="44.15082" lon="3.12601">
        <ele>832.6</ele>
        <time>2019-04-19T12:55:44Z</time>
      </trkpt>
      <trkpt lat="44.15079" lon="3.12598">
        <ele>832.6</ele>
        <time>2019-04-19T12:55:45Z</time>
      </trkpt>
      <trkpt lat="44.15076" lon="3.12594">
        <ele>832.6</ele>
        <time>2019-04-19T12:55:46Z</time>
      </trkpt>
      <trkpt lat="44.15073" lon="3.1259">
        <ele>832.7</ele>
        <time>2019-04-19T12:55:47Z</time>
      </trkpt>
      <trkpt lat="44.1507" lon="3.12588">
        <ele>832.7</ele>
        <time>2019-04-19T12:55:48Z</time>
      </trkpt>
      <trkpt lat="44.15066" lon="3.12586">
        <ele>832.7</ele>
        <time>2019-04-19T12:55:49Z</time>
      </trkpt>
      <trkpt lat="44.15062" lon="3.12583">
        <ele>832.7</ele>
        <time>2019-04-19T12:55:50Z</time>
      </trkpt>
      <trkpt lat="44.15058" lon="3.12581">
        <ele>832.4</ele>
        <time>2019-04-19T12:55:51Z</time>
      </trkpt>
      <trkpt lat="44.15054" lon="3.12578">
        <ele>832.1</ele>
        <time>2019-04-19T12:55:52Z</time>
      </trkpt>
      <trkpt lat="44.1505" lon="3.12575">
        <ele>831.8</ele>
        <time>2019-04-19T12:55:53Z</time>
      </trkpt>
      <trkpt lat="44.15046" lon="3.12572">
        <ele>831.5</ele>
        <time>2019-04-19T12:55:54Z</time>
      </trkpt>
      <trkpt lat="44.15042" lon="3.12568">
        <ele>831.3</ele>
        <time>2019-04-19T12:55:55Z</time>
      </trkpt>
      <trkpt lat="44.15038" lon="3.12565">
        <ele>831.2</ele>
        <time>2019-04-19T12:55:56Z</time>
      </trkpt>
      <trkpt lat="44.15035" lon="3.12562">
        <ele>831.1</ele>
        <time>2019-04-19T12:55:57Z</time>
      </trkpt>
      <trkpt lat="44.15032" lon="3.12557">
        <ele>831</ele>
        <time>2019-04-19T12:55:58Z</time>
      </trkpt>
      <trkpt lat="44.15028" lon="3.12544">
        <ele>830.9</ele>
        <time>2019-04-19T12:55:59Z</time>
      </trkpt>
      <trkpt lat="44.15027" lon="3.12538">
        <ele>830.8</ele>
        <time>2019-04-19T12:56:00Z</time>
      </trkpt>
      <trkpt lat="44.15025" lon="3.12532">
        <ele>830.8</ele>
        <time>2019-04-19T12:56:01Z</time>
      </trkpt>
      <trkpt lat="44.15022" lon="3.12525">
        <ele>830.8</ele>
        <time>2019-04-19T12:56:02Z</time>
      </trkpt>
      <trkpt lat="44.15019" lon="3.12519">
        <ele>830.7</ele>
        <time>2019-04-19T12:56:03Z</time>
      </trkpt>
      <trkpt lat="44.15017" lon="3.12514">
        <ele>830.7</ele>
        <time>2019-04-19T12:56:04Z</time>
      </trkpt>
      <trkpt lat="44.15016" lon="3.12508">
        <ele>830.6</ele>
        <time>2019-04-19T12:56:05Z</time>
      </trkpt>
      <trkpt lat="44.15018" lon="3.12498">
        <ele>830.5</ele>
        <time>2019-04-19T12:56:06Z</time>
      </trkpt>
      <trkpt lat="44.15015" lon="3.12489">
        <ele>830.3</ele>
        <time>2019-04-19T12:56:07Z</time>
      </trkpt>
      <trkpt lat="44.15013" lon="3.12481">
        <ele>830.2</ele>
        <time>2019-04-19T12:56:08Z</time>
      </trkpt>
      <trkpt lat="44.15012" lon="3.12473">
        <ele>830.1</ele>
        <time>2019-04-19T12:56:09Z</time>
      </trkpt>
      <trkpt lat="44.15012" lon="3.12463">
        <ele>830</ele>
        <time>2019-04-19T12:56:11Z</time>
      </trkpt>
      <trkpt lat="44.15009" lon="3.12456">
        <ele>829.9</ele>
        <time>2019-04-19T12:56:12Z</time>
      </trkpt>
      <trkpt lat="44.15007" lon="3.12448">
        <ele>829.9</ele>
        <time>2019-04-19T12:56:13Z</time>
      </trkpt>
      <trkpt lat="44.15003" lon="3.12441">
        <ele>829.9</ele>
        <time>2019-04-19T12:56:14Z</time>
      </trkpt>
      <trkpt lat="44.15005" lon="3.12436">
        <ele>829.9</ele>
        <time>2019-04-19T12:56:15Z</time>
      </trkpt>
      <trkpt lat="44.15005" lon="3.12428">
        <ele>829.9</ele>
        <time>2019-04-19T12:56:16Z</time>
      </trkpt>
      <trkpt lat="44.15003" lon="3.12422">
        <ele>829.9</ele>
        <time>2019-04-19T12:56:17Z</time>
      </trkpt>
      <trkpt lat="44.15" lon="3.12416">
        <ele>830</ele>
        <time>2019-04-19T12:56:18Z</time>
      </trkpt>
      <trkpt lat="44.14998" lon="3.1241">
        <ele>830</ele>
        <time>2019-04-19T12:56:19Z</time>
      </trkpt>
      <trkpt lat="44.14996" lon="3.12406">
        <ele>830.1</ele>
        <time>2019-04-19T12:56:20Z</time>
      </trkpt>
      <trkpt lat="44.14994" lon="3.124">
        <ele>830.2</ele>
        <time>2019-04-19T12:56:21Z</time>
      </trkpt>
      <trkpt lat="44.14994" lon="3.12394">
        <ele>830.3</ele>
        <time>2019-04-19T12:56:22Z</time>
      </trkpt>
      <trkpt lat="44.14994" lon="3.12388">
        <ele>830.4</ele>
        <time>2019-04-19T12:56:23Z</time>
      </trkpt>
      <trkpt lat="44.14989" lon="3.1238">
        <ele>830.6</ele>
        <time>2019-04-19T12:56:24Z</time>
      </trkpt>
      <trkpt lat="44.14986" lon="3.1237">
        <ele>830.7</ele>
        <time>2019-04-19T12:56:25Z</time>
      </trkpt>
      <trkpt lat="44.14983" lon="3.12363">
        <ele>830.9</ele>
        <time>2019-04-19T12:56:26Z</time>
      </trkpt>
      <trkpt lat="44.14981" lon="3.12355">
        <ele>831</ele>
        <time>2019-04-19T12:56:27Z</time>
      </trkpt>
      <trkpt lat="44.14977" lon="3.12347">
        <ele>831.2</ele>
        <time>2019-04-19T12:56:28Z</time>
      </trkpt>
      <trkpt lat="44.14974" lon="3.12339">
        <ele>831.4</ele>
        <time>2019-04-19T12:56:29Z</time>
      </trkpt>
      <trkpt lat="44.14972" lon="3.12329">
        <ele>831.6</ele>
        <time>2019-04-19T12:56:30Z</time>
      </trkpt>
      <trkpt lat="44.14968" lon="3.12321">
        <ele>831.7</ele>
        <time>2019-04-19T12:56:31Z</time>
      </trkpt>
      <trkpt lat="44.1497" lon="3.12317">
        <ele>831.7</ele>
        <time>2019-04-19T12:56:32Z</time>
      </trkpt>
      <trkpt lat="44.14964" lon="3.12313">
        <ele>831.7</ele>
        <time>2019-04-19T12:56:33Z</time>
      </trkpt>
      <trkpt lat="44.14961" lon="3.12307">
        <ele>831.7</ele>
        <time>2019-04-19T12:56:34Z</time>
      </trkpt>
      <trkpt lat="44.14958" lon="3.12298">
        <ele>831.7</ele>
        <time>2019-04-19T12:56:35Z</time>
      </trkpt>
      <trkpt lat="44.14957" lon="3.1229">
        <ele>831.6</ele>
        <time>2019-04-19T12:56:36Z</time>
      </trkpt>
      <trkpt lat="44.14956" lon="3.12282">
        <ele>831.5</ele>
        <time>2019-04-19T12:56:37Z</time>
      </trkpt>
      <trkpt lat="44.14955" lon="3.12277">
        <ele>831.5</ele>
        <time>2019-04-19T12:56:38Z</time>
      </trkpt>
      <trkpt lat="44.14952" lon="3.12268">
        <ele>831.4</ele>
        <time>2019-04-19T12:56:39Z</time>
      </trkpt>
      <trkpt lat="44.14949" lon="3.12263">
        <ele>831.4</ele>
        <time>2019-04-19T12:56:40Z</time>
      </trkpt>
      <trkpt lat="44.1495" lon="3.12255">
        <ele>831.4</ele>
        <time>2019-04-19T12:56:41Z</time>
      </trkpt>
      <trkpt lat="44.1495" lon="3.12248">
        <ele>831.4</ele>
        <time>2019-04-19T12:56:42Z</time>
      </trkpt>
      <trkpt lat="44.14944" lon="3.12239">
        <ele>831.5</ele>
        <time>2019-04-19T12:56:43Z</time>
      </trkpt>
      <trkpt lat="44.14943" lon="3.12231">
        <ele>831.6</ele>
        <time>2019-04-19T12:56:44Z</time>
      </trkpt>
      <trkpt lat="44.14944" lon="3.12225">
        <ele>831.7</ele>
        <time>2019-04-19T12:56:45Z</time>
      </trkpt>
      <trkpt lat="44.14943" lon="3.12218">
        <ele>831.8</ele>
        <time>2019-04-19T12:56:46Z</time>
      </trkpt>
      <trkpt lat="44.14941" lon="3.12211">
        <ele>831.9</ele>
        <time>2019-04-19T12:56:47Z</time>
      </trkpt>
      <trkpt lat="44.14936" lon="3.12204">
        <ele>832</ele>
        <time>2019-04-19T12:56:48Z</time>
      </trkpt>
      <trkpt lat="44.14941" lon="3.12198">
        <ele>832.1</ele>
        <time>2019-04-19T12:56:49Z</time>
      </trkpt>
      <trkpt lat="44.14938" lon="3.12191">
        <ele>832.2</ele>
        <time>2019-04-19T12:56:50Z</time>
      </trkpt>
      <trkpt lat="44.14938" lon="3.12186">
        <ele>832.3</ele>
        <time>2019-04-19T12:56:51Z</time>
      </trkpt>
      <trkpt lat="44.1494" lon="3.1218">
        <ele>832.4</ele>
        <time>2019-04-19T12:56:52Z</time>
      </trkpt>
      <trkpt lat="44.1494" lon="3.12175">
        <ele>832.5</ele>
        <time>2019-04-19T12:56:53Z</time>
      </trkpt>
      <trkpt lat="44.14938" lon="3.1217">
        <ele>832.6</ele>
        <time>2019-04-19T12:56:54Z</time>
      </trkpt>
      <trkpt lat="44.14933" lon="3.12164">
        <ele>832.8</ele>
        <time>2019-04-19T12:56:55Z</time>
      </trkpt>
      <trkpt lat="44.14933" lon="3.12156">
        <ele>833.1</ele>
        <time>2019-04-19T12:56:57Z</time>
      </trkpt>
      <trkpt lat="44.14931" lon="3.12152">
        <ele>833.2</ele>
        <time>2019-04-19T12:56:58Z</time>
      </trkpt>
      <trkpt lat="44.1493" lon="3.12148">
        <ele>833.4</ele>
        <time>2019-04-19T12:56:59Z</time>
      </trkpt>
      <trkpt lat="44.14928" lon="3.12145">
        <ele>833.5</ele>
        <time>2019-04-19T12:57:00Z</time>
      </trkpt>
      <trkpt lat="44.14926" lon="3.12141">
        <ele>833.7</ele>
        <time>2019-04-19T12:57:01Z</time>
      </trkpt>
      <trkpt lat="44.14922" lon="3.12138">
        <ele>834</ele>
        <time>2019-04-19T12:57:02Z</time>
      </trkpt>
      <trkpt lat="44.14919" lon="3.12135">
        <ele>834.2</ele>
        <time>2019-04-19T12:57:03Z</time>
      </trkpt>
      <trkpt lat="44.14917" lon="3.12131">
        <ele>834.5</ele>
        <time>2019-04-19T12:57:04Z</time>
      </trkpt>
      <trkpt lat="44.14914" lon="3.12127">
        <ele>834.8</ele>
        <time>2019-04-19T12:57:05Z</time>
      </trkpt>
      <trkpt lat="44.14911" lon="3.12124">
        <ele>835</ele>
        <time>2019-04-19T12:57:06Z</time>
      </trkpt>
      <trkpt lat="44.14909" lon="3.12121">
        <ele>835.3</ele>
        <time>2019-04-19T12:57:07Z</time>
      </trkpt>
      <trkpt lat="44.14907" lon="3.12117">
        <ele>835.5</ele>
        <time>2019-04-19T12:57:08Z</time>
      </trkpt>
      <trkpt lat="44.14904" lon="3.12111">
        <ele>836.1</ele>
        <time>2019-04-19T12:57:10Z</time>
      </trkpt>
      <trkpt lat="44.14901" lon="3.12107">
        <ele>836.4</ele>
        <time>2019-04-19T12:57:11Z</time>
      </trkpt>
      <trkpt lat="44.14899" lon="3.12104">
        <ele>836.8</ele>
        <time>2019-04-19T12:57:12Z</time>
      </trkpt>
      <trkpt lat="44.14897" lon="3.121">
        <ele>837.1</ele>
        <time>2019-04-19T12:57:13Z</time>
      </trkpt>
      <trkpt lat="44.14895" lon="3.12097">
        <ele>837.5</ele>
        <time>2019-04-19T12:57:14Z</time>
      </trkpt>
      <trkpt lat="44.14894" lon="3.12091">
        <ele>838.1</ele>
        <time>2019-04-19T12:57:16Z</time>
      </trkpt>
      <trkpt lat="44.14894" lon="3.12085">
        <ele>838.6</ele>
        <time>2019-04-19T12:57:18Z</time>
      </trkpt>
      <trkpt lat="44.14892" lon="3.12078">
        <ele>839.2</ele>
        <time>2019-04-19T12:57:20Z</time>
      </trkpt>
      <trkpt lat="44.14891" lon="3.12075">
        <ele>839.5</ele>
        <time>2019-04-19T12:57:21Z</time>
      </trkpt>
      <trkpt lat="44.14889" lon="3.12067">
        <ele>840.1</ele>
        <time>2019-04-19T12:57:23Z</time>
      </trkpt>
      <trkpt lat="44.14887" lon="3.12064">
        <ele>840.4</ele>
        <time>2019-04-19T12:57:24Z</time>
      </trkpt>
      <trkpt lat="44.14885" lon="3.1206">
        <ele>840.7</ele>
        <time>2019-04-19T12:57:25Z</time>
      </trkpt>
      <trkpt lat="44.14883" lon="3.12056">
        <ele>841</ele>
        <time>2019-04-19T12:57:26Z</time>
      </trkpt>
      <trkpt lat="44.1488" lon="3.12052">
        <ele>841.2</ele>
        <time>2019-04-19T12:57:27Z</time>
      </trkpt>
      <trkpt lat="44.14877" lon="3.12047">
        <ele>841.4</ele>
        <time>2019-04-19T12:57:28Z</time>
      </trkpt>
      <trkpt lat="44.14875" lon="3.12043">
        <ele>841.6</ele>
        <time>2019-04-19T12:57:29Z</time>
      </trkpt>
      <trkpt lat="44.14872" lon="3.12038">
        <ele>841.8</ele>
        <time>2019-04-19T12:57:30Z</time>
      </trkpt>
      <trkpt lat="44.1487" lon="3.12033">
        <ele>842</ele>
        <time>2019-04-19T12:57:31Z</time>
      </trkpt>
      <trkpt lat="44.14868" lon="3.12028">
        <ele>842.1</ele>
        <time>2019-04-19T12:57:32Z</time>
      </trkpt>
      <trkpt lat="44.14866" lon="3.12024">
        <ele>842.3</ele>
        <time>2019-04-19T12:57:33Z</time>
      </trkpt>
      <trkpt lat="44.14865" lon="3.12019">
        <ele>842.4</ele>
        <time>2019-04-19T12:57:34Z</time>
      </trkpt>
      <trkpt lat="44.14863" lon="3.12013">
        <ele>842.5</ele>
        <time>2019-04-19T12:57:35Z</time>
      </trkpt>
      <trkpt lat="44.14861" lon="3.12008">
        <ele>842.6</ele>
        <time>2019-04-19T12:57:36Z</time>
      </trkpt>
      <trkpt lat="44.14856" lon="3.11999">
        <ele>842.8</ele>
        <time>2019-04-19T12:57:37Z</time>
      </trkpt>
      <trkpt lat="44.1485" lon="3.11995">
        <ele>842.9</ele>
        <time>2019-04-19T12:57:38Z</time>
      </trkpt>
      <trkpt lat="44.14847" lon="3.11989">
        <ele>842.9</ele>
        <time>2019-04-19T12:57:39Z</time>
      </trkpt>
      <trkpt lat="44.14845" lon="3.11982">
        <ele>842.9</ele>
        <time>2019-04-19T12:57:40Z</time>
      </trkpt>
      <trkpt lat="44.14843" lon="3.11976">
        <ele>843</ele>
        <time>2019-04-19T12:57:41Z</time>
      </trkpt>
      <trkpt lat="44.14847" lon="3.1197">
        <ele>843</ele>
        <time>2019-04-19T12:57:42Z</time>
      </trkpt>
      <trkpt lat="44.1485" lon="3.11964">
        <ele>842.7</ele>
        <time>2019-04-19T12:57:43Z</time>
      </trkpt>
      <trkpt lat="44.14853" lon="3.11958">
        <ele>842.3</ele>
        <time>2019-04-19T12:57:44Z</time>
      </trkpt>
      <trkpt lat="44.14858" lon="3.11955">
        <ele>841.9</ele>
        <time>2019-04-19T12:57:45Z</time>
      </trkpt>
      <trkpt lat="44.14861" lon="3.11952">
        <ele>841.7</ele>
        <time>2019-04-19T12:57:46Z</time>
      </trkpt>
      <trkpt lat="44.14867" lon="3.1195">
        <ele>841.3</ele>
        <time>2019-04-19T12:57:48Z</time>
      </trkpt>
      <trkpt lat="44.1487" lon="3.11946">
        <ele>841</ele>
        <time>2019-04-19T12:57:49Z</time>
      </trkpt>
      <trkpt lat="44.14874" lon="3.11947">
        <ele>840.8</ele>
        <time>2019-04-19T12:57:50Z</time>
      </trkpt>
      <trkpt lat="44.14877" lon="3.11943">
        <ele>840.5</ele>
        <time>2019-04-19T12:57:51Z</time>
      </trkpt>
      <trkpt lat="44.14882" lon="3.1194">
        <ele>840.2</ele>
        <time>2019-04-19T12:57:52Z</time>
      </trkpt>
      <trkpt lat="44.14884" lon="3.11937">
        <ele>839.9</ele>
        <time>2019-04-19T12:57:53Z</time>
      </trkpt>
      <trkpt lat="44.14886" lon="3.11933">
        <ele>839.5</ele>
        <time>2019-04-19T12:57:54Z</time>
      </trkpt>
      <trkpt lat="44.14891" lon="3.11936">
        <ele>839.1</ele>
        <time>2019-04-19T12:57:56Z</time>
      </trkpt>
      <trkpt lat="44.14893" lon="3.11935">
        <ele>838.8</ele>
        <time>2019-04-19T12:57:57Z</time>
      </trkpt>
      <trkpt lat="44.14896" lon="3.11933">
        <ele>838.6</ele>
        <time>2019-04-19T12:57:58Z</time>
      </trkpt>
      <trkpt lat="44.149" lon="3.11927">
        <ele>838.2</ele>
        <time>2019-04-19T12:57:59Z</time>
      </trkpt>
      <trkpt lat="44.14903" lon="3.11922">
        <ele>838</ele>
        <time>2019-04-19T12:58:00Z</time>
      </trkpt>
      <trkpt lat="44.14906" lon="3.11915">
        <ele>837.6</ele>
        <time>2019-04-19T12:58:01Z</time>
      </trkpt>
      <trkpt lat="44.14907" lon="3.1191">
        <ele>837.4</ele>
        <time>2019-04-19T12:58:02Z</time>
      </trkpt>
      <trkpt lat="44.14908" lon="3.11904">
        <ele>837.2</ele>
        <time>2019-04-19T12:58:03Z</time>
      </trkpt>
      <trkpt lat="44.14909" lon="3.11899">
        <ele>837</ele>
        <time>2019-04-19T12:58:04Z</time>
      </trkpt>
      <trkpt lat="44.1491" lon="3.11894">
        <ele>836.6</ele>
        <time>2019-04-19T12:58:05Z</time>
      </trkpt>
      <trkpt lat="44.14914" lon="3.11889">
        <ele>836.1</ele>
        <time>2019-04-19T12:58:06Z</time>
      </trkpt>
      <trkpt lat="44.14915" lon="3.11884">
        <ele>835.8</ele>
        <time>2019-04-19T12:58:07Z</time>
      </trkpt>
      <trkpt lat="44.14916" lon="3.11877">
        <ele>835.5</ele>
        <time>2019-04-19T12:58:08Z</time>
      </trkpt>
      <trkpt lat="44.14919" lon="3.11871">
        <ele>835.4</ele>
        <time>2019-04-19T12:58:09Z</time>
      </trkpt>
      <trkpt lat="44.14922" lon="3.11864">
        <ele>835.1</ele>
        <time>2019-04-19T12:58:10Z</time>
      </trkpt>
      <trkpt lat="44.14922" lon="3.11858">
        <ele>835</ele>
        <time>2019-04-19T12:58:11Z</time>
      </trkpt>
      <trkpt lat="44.14923" lon="3.11852">
        <ele>834.8</ele>
        <time>2019-04-19T12:58:12Z</time>
      </trkpt>
      <trkpt lat="44.14924" lon="3.11845">
        <ele>834.5</ele>
        <time>2019-04-19T12:58:13Z</time>
      </trkpt>
      <trkpt lat="44.14927" lon="3.11837">
        <ele>834.2</ele>
        <time>2019-04-19T12:58:14Z</time>
      </trkpt>
      <trkpt lat="44.14926" lon="3.11831">
        <ele>834.1</ele>
        <time>2019-04-19T12:58:15Z</time>
      </trkpt>
      <trkpt lat="44.14928" lon="3.11825">
        <ele>834</ele>
        <time>2019-04-19T12:58:16Z</time>
      </trkpt>
      <trkpt lat="44.1493" lon="3.11821">
        <ele>833.9</ele>
        <time>2019-04-19T12:58:17Z</time>
      </trkpt>
      <trkpt lat="44.14933" lon="3.11816">
        <ele>833.8</ele>
        <time>2019-04-19T12:58:18Z</time>
      </trkpt>
      <trkpt lat="44.14935" lon="3.11811">
        <ele>833.6</ele>
        <time>2019-04-19T12:58:19Z</time>
      </trkpt>
      <trkpt lat="44.14937" lon="3.11806">
        <ele>833.5</ele>
        <time>2019-04-19T12:58:20Z</time>
      </trkpt>
      <trkpt lat="44.14939" lon="3.11801">
        <ele>833.4</ele>
        <time>2019-04-19T12:58:21Z</time>
      </trkpt>
      <trkpt lat="44.1494" lon="3.11796">
        <ele>833.3</ele>
        <time>2019-04-19T12:58:22Z</time>
      </trkpt>
      <trkpt lat="44.14942" lon="3.11791">
        <ele>833.2</ele>
        <time>2019-04-19T12:58:23Z</time>
      </trkpt>
      <trkpt lat="44.14945" lon="3.11787">
        <ele>833</ele>
        <time>2019-04-19T12:58:24Z</time>
      </trkpt>
      <trkpt lat="44.14948" lon="3.11784">
        <ele>832.8</ele>
        <time>2019-04-19T12:58:25Z</time>
      </trkpt>
      <trkpt lat="44.14951" lon="3.11782">
        <ele>832.7</ele>
        <time>2019-04-19T12:58:26Z</time>
      </trkpt>
      <trkpt lat="44.14954" lon="3.11779">
        <ele>832.5</ele>
        <time>2019-04-19T12:58:27Z</time>
      </trkpt>
      <trkpt lat="44.14958" lon="3.11778">
        <ele>832.3</ele>
        <time>2019-04-19T12:58:28Z</time>
      </trkpt>
      <trkpt lat="44.14962" lon="3.11777">
        <ele>832.2</ele>
        <time>2019-04-19T12:58:29Z</time>
      </trkpt>
      <trkpt lat="44.14965" lon="3.11777">
        <ele>832.1</ele>
        <time>2019-04-19T12:58:30Z</time>
      </trkpt>
      <trkpt lat="44.14968" lon="3.11776">
        <ele>831.9</ele>
        <time>2019-04-19T12:58:31Z</time>
      </trkpt>
      <trkpt lat="44.14972" lon="3.11774">
        <ele>831.8</ele>
        <time>2019-04-19T12:58:32Z</time>
      </trkpt>
      <trkpt lat="44.14975" lon="3.11773">
        <ele>831.6</ele>
        <time>2019-04-19T12:58:33Z</time>
      </trkpt>
      <trkpt lat="44.14978" lon="3.11772">
        <ele>831.4</ele>
        <time>2019-04-19T12:58:34Z</time>
      </trkpt>
      <trkpt lat="44.14981" lon="3.11771">
        <ele>831.2</ele>
        <time>2019-04-19T12:58:35Z</time>
      </trkpt>
      <trkpt lat="44.14985" lon="3.1177">
        <ele>830.9</ele>
        <time>2019-04-19T12:58:36Z</time>
      </trkpt>
      <trkpt lat="44.14989" lon="3.11769">
        <ele>830.7</ele>
        <time>2019-04-19T12:58:37Z</time>
      </trkpt>
      <trkpt lat="44.14993" lon="3.1177">
        <ele>830.3</ele>
        <time>2019-04-19T12:58:38Z</time>
      </trkpt>
      <trkpt lat="44.14997" lon="3.11771">
        <ele>830</ele>
        <time>2019-04-19T12:58:39Z</time>
      </trkpt>
      <trkpt lat="44.15002" lon="3.11772">
        <ele>829.7</ele>
        <time>2019-04-19T12:58:40Z</time>
      </trkpt>
      <trkpt lat="44.15006" lon="3.11773">
        <ele>829.5</ele>
        <time>2019-04-19T12:58:41Z</time>
      </trkpt>
      <trkpt lat="44.1501" lon="3.11774">
        <ele>829.2</ele>
        <time>2019-04-19T12:58:42Z</time>
      </trkpt>
      <trkpt lat="44.15013" lon="3.11775">
        <ele>829.1</ele>
        <time>2019-04-19T12:58:43Z</time>
      </trkpt>
      <trkpt lat="44.15017" lon="3.11776">
        <ele>828.9</ele>
        <time>2019-04-19T12:58:44Z</time>
      </trkpt>
      <trkpt lat="44.1502" lon="3.11777">
        <ele>828.8</ele>
        <time>2019-04-19T12:58:45Z</time>
      </trkpt>
      <trkpt lat="44.15023" lon="3.11778">
        <ele>828.7</ele>
        <time>2019-04-19T12:58:46Z</time>
      </trkpt>
      <trkpt lat="44.15026" lon="3.11779">
        <ele>828.5</ele>
        <time>2019-04-19T12:58:47Z</time>
      </trkpt>
      <trkpt lat="44.1503" lon="3.11778">
        <ele>828.4</ele>
        <time>2019-04-19T12:58:49Z</time>
      </trkpt>
      <trkpt lat="44.15031" lon="3.11775">
        <ele>828.3</ele>
        <time>2019-04-19T12:58:54Z</time>
      </trkpt>
      <trkpt lat="44.15032" lon="3.11771">
        <ele>828.2</ele>
        <time>2019-04-19T12:59:04Z</time>
      </trkpt>
      <trkpt lat="44.15035" lon="3.11768">
        <ele>828</ele>
        <time>2019-04-19T13:00:04Z</time>
      </trkpt>
      <trkpt lat="44.15038" lon="3.11768">
        <ele>827.1</ele>
        <time>2019-04-19T13:00:06Z</time>
      </trkpt>
      <trkpt lat="44.15042" lon="3.11771">
        <ele>826.3</ele>
        <time>2019-04-19T13:00:08Z</time>
      </trkpt>
      <trkpt lat="44.15043" lon="3.11775">
        <ele>827.5</ele>
        <time>2019-04-19T13:00:11Z</time>
      </trkpt>
      <trkpt lat="44.15046" lon="3.11776">
        <ele>827.9</ele>
        <time>2019-04-19T13:06:24Z</time>
      </trkpt>
      <trkpt lat="44.15044" lon="3.11779">
        <ele>827.9</ele>
        <time>2019-04-19T13:06:27Z</time>
      </trkpt>
      <trkpt lat="44.15048" lon="3.11788">
        <ele>829.4</ele>
        <time>2019-04-19T13:06:49Z</time>
      </trkpt>
      <trkpt lat="44.15051" lon="3.11791">
        <ele>829.5</ele>
        <time>2019-04-19T13:06:50Z</time>
      </trkpt>
      <trkpt lat="44.15054" lon="3.11795">
        <ele>829.6</ele>
        <time>2019-04-19T13:06:51Z</time>
      </trkpt>
      <trkpt lat="44.15056" lon="3.11799">
        <ele>830.7</ele>
        <time>2019-04-19T13:06:52Z</time>
      </trkpt>
      <trkpt lat="44.15058" lon="3.11803">
        <ele>830.8</ele>
        <time>2019-04-19T13:06:53Z</time>
      </trkpt>
      <trkpt lat="44.1506" lon="3.11807">
        <ele>830.9</ele>
        <time>2019-04-19T13:06:54Z</time>
      </trkpt>
      <trkpt lat="44.15062" lon="3.11811">
        <ele>831</ele>
        <time>2019-04-19T13:06:55Z</time>
      </trkpt>
      <trkpt lat="44.15064" lon="3.11815">
        <ele>832.2</ele>
        <time>2019-04-19T13:06:56Z</time>
      </trkpt>
      <trkpt lat="44.15065" lon="3.11819">
        <ele>833.4</ele>
        <time>2019-04-19T13:06:57Z</time>
      </trkpt>
      <trkpt lat="44.15065" lon="3.11824">
        <ele>834.5</ele>
        <time>2019-04-19T13:06:58Z</time>
      </trkpt>
      <trkpt lat="44.15064" lon="3.11828">
        <ele>835.6</ele>
        <time>2019-04-19T13:06:59Z</time>
      </trkpt>
      <trkpt lat="44.15065" lon="3.11833">
        <ele>835.8</ele>
        <time>2019-04-19T13:07:00Z</time>
      </trkpt>
      <trkpt lat="44.15067" lon="3.11837">
        <ele>837</ele>
        <time>2019-04-19T13:07:01Z</time>
      </trkpt>
      <trkpt lat="44.15068" lon="3.1184">
        <ele>836.8</ele>
        <time>2019-04-19T13:07:02Z</time>
      </trkpt>
      <trkpt lat="44.1507" lon="3.11843">
        <ele>836.8</ele>
        <time>2019-04-19T13:07:03Z</time>
      </trkpt>
      <trkpt lat="44.15072" lon="3.11847">
        <ele>837</ele>
        <time>2019-04-19T13:07:04Z</time>
      </trkpt>
      <trkpt lat="44.1508" lon="3.11851">
        <ele>835.9</ele>
        <time>2019-04-19T13:07:05Z</time>
      </trkpt>
      <trkpt lat="44.15084" lon="3.11855">
        <ele>835.9</ele>
        <time>2019-04-19T13:07:06Z</time>
      </trkpt>
      <trkpt lat="44.15087" lon="3.11859">
        <ele>834.7</ele>
        <time>2019-04-19T13:07:07Z</time>
      </trkpt>
      <trkpt lat="44.15091" lon="3.11863">
        <ele>834.6</ele>
        <time>2019-04-19T13:07:08Z</time>
      </trkpt>
      <trkpt lat="44.15096" lon="3.11863">
        <ele>833.5</ele>
        <time>2019-04-19T13:07:09Z</time>
      </trkpt>
      <trkpt lat="44.15099" lon="3.11864">
        <ele>831.2</ele>
        <time>2019-04-19T13:07:10Z</time>
      </trkpt>
      <trkpt lat="44.15102" lon="3.11863">
        <ele>829.9</ele>
        <time>2019-04-19T13:07:11Z</time>
      </trkpt>
      <trkpt lat="44.15106" lon="3.11867">
        <ele>829.6</ele>
        <time>2019-04-19T13:07:12Z</time>
      </trkpt>
      <trkpt lat="44.15109" lon="3.11872">
        <ele>829.1</ele>
        <time>2019-04-19T13:07:13Z</time>
      </trkpt>
      <trkpt lat="44.15111" lon="3.11876">
        <ele>829.9</ele>
        <time>2019-04-19T13:07:14Z</time>
      </trkpt>
      <trkpt lat="44.15113" lon="3.11879">
        <ele>829.3</ele>
        <time>2019-04-19T13:07:15Z</time>
      </trkpt>
      <trkpt lat="44.15117" lon="3.11882">
        <ele>827.9</ele>
        <time>2019-04-19T13:07:16Z</time>
      </trkpt>
      <trkpt lat="44.15123" lon="3.11883">
        <ele>825</ele>
        <time>2019-04-19T13:07:17Z</time>
      </trkpt>
      <trkpt lat="44.15127" lon="3.11889">
        <ele>825.4</ele>
        <time>2019-04-19T13:07:18Z</time>
      </trkpt>
      <trkpt lat="44.1513" lon="3.11893">
        <ele>823.6</ele>
        <time>2019-04-19T13:07:19Z</time>
      </trkpt>
      <trkpt lat="44.15131" lon="3.11897">
        <ele>824.5</ele>
        <time>2019-04-19T13:07:20Z</time>
      </trkpt>
      <trkpt lat="44.15136" lon="3.11905">
        <ele>824.9</ele>
        <time>2019-04-19T13:07:21Z</time>
      </trkpt>
      <trkpt lat="44.1514" lon="3.11913">
        <ele>823</ele>
        <time>2019-04-19T13:07:22Z</time>
      </trkpt>
      <trkpt lat="44.15146" lon="3.11917">
        <ele>821.3</ele>
        <time>2019-04-19T13:07:23Z</time>
      </trkpt>
      <trkpt lat="44.15151" lon="3.11919">
        <ele>821</ele>
        <time>2019-04-19T13:07:24Z</time>
      </trkpt>
      <trkpt lat="44.15155" lon="3.11918">
        <ele>818.9</ele>
        <time>2019-04-19T13:07:25Z</time>
      </trkpt>
      <trkpt lat="44.15161" lon="3.11914">
        <ele>815.5</ele>
        <time>2019-04-19T13:08:50Z</time>
      </trkpt>
      <trkpt lat="44.15165" lon="3.11917">
        <ele>815.1</ele>
        <time>2019-04-19T13:08:52Z</time>
      </trkpt>
      <trkpt lat="44.15168" lon="3.11921">
        <ele>813.7</ele>
        <time>2019-04-19T13:08:53Z</time>
      </trkpt>
      <trkpt lat="44.15171" lon="3.11925">
        <ele>813.4</ele>
        <time>2019-04-19T13:08:54Z</time>
      </trkpt>
      <trkpt lat="44.15175" lon="3.11929">
        <ele>813.3</ele>
        <time>2019-04-19T13:08:55Z</time>
      </trkpt>
      <trkpt lat="44.15178" lon="3.11933">
        <ele>813.3</ele>
        <time>2019-04-19T13:08:56Z</time>
      </trkpt>
      <trkpt lat="44.15181" lon="3.11937">
        <ele>813.4</ele>
        <time>2019-04-19T13:08:57Z</time>
      </trkpt>
      <trkpt lat="44.15184" lon="3.11942">
        <ele>813.5</ele>
        <time>2019-04-19T13:08:58Z</time>
      </trkpt>
      <trkpt lat="44.15186" lon="3.11946">
        <ele>813.6</ele>
        <time>2019-04-19T13:08:59Z</time>
      </trkpt>
      <trkpt lat="44.15183" lon="3.11955">
        <ele>816.9</ele>
        <time>2019-04-19T13:09:00Z</time>
      </trkpt>
      <trkpt lat="44.1518" lon="3.11963">
        <ele>819.7</ele>
        <time>2019-04-19T13:09:02Z</time>
      </trkpt>
      <trkpt lat="44.15176" lon="3.11966">
        <ele>821.5</ele>
        <time>2019-04-19T13:09:04Z</time>
      </trkpt>
      <trkpt lat="44.15172" lon="3.11968">
        <ele>823.3</ele>
        <time>2019-04-19T13:09:05Z</time>
      </trkpt>
      <trkpt lat="44.15172" lon="3.11973">
        <ele>824.1</ele>
        <time>2019-04-19T13:09:06Z</time>
      </trkpt>
      <trkpt lat="44.15169" lon="3.1198">
        <ele>826.6</ele>
        <time>2019-04-19T13:09:07Z</time>
      </trkpt>
      <trkpt lat="44.15168" lon="3.11987">
        <ele>828.1</ele>
        <time>2019-04-19T13:09:08Z</time>
      </trkpt>
      <trkpt lat="44.15168" lon="3.11993">
        <ele>828.7</ele>
        <time>2019-04-19T13:09:09Z</time>
      </trkpt>
      <trkpt lat="44.15168" lon="3.11998">
        <ele>829.3</ele>
        <time>2019-04-19T13:09:10Z</time>
      </trkpt>
      <trkpt lat="44.15169" lon="3.12006">
        <ele>830.3</ele>
        <time>2019-04-19T13:09:11Z</time>
      </trkpt>
      <trkpt lat="44.15171" lon="3.1201">
        <ele>830.1</ele>
        <time>2019-04-19T13:09:12Z</time>
      </trkpt>
      <trkpt lat="44.15176" lon="3.12015">
        <ele>830.2</ele>
        <time>2019-04-19T13:09:14Z</time>
      </trkpt>
      <trkpt lat="44.15179" lon="3.12019">
        <ele>829.6</ele>
        <time>2019-04-19T13:09:15Z</time>
      </trkpt>
      <trkpt lat="44.15184" lon="3.12022">
        <ele>829.4</ele>
        <time>2019-04-19T13:09:17Z</time>
      </trkpt>
      <trkpt lat="44.1519" lon="3.12022">
        <ele>828</ele>
        <time>2019-04-19T13:09:18Z</time>
      </trkpt>
      <trkpt lat="44.15194" lon="3.12023">
        <ele>827.2</ele>
        <time>2019-04-19T13:09:19Z</time>
      </trkpt>
      <trkpt lat="44.15199" lon="3.12025">
        <ele>826.2</ele>
        <time>2019-04-19T13:09:20Z</time>
      </trkpt>
      <trkpt lat="44.15203" lon="3.12026">
        <ele>825.4</ele>
        <time>2019-04-19T13:09:21Z</time>
      </trkpt>
      <trkpt lat="44.15206" lon="3.12028">
        <ele>824.6</ele>
        <time>2019-04-19T13:09:22Z</time>
      </trkpt>
      <trkpt lat="44.1521" lon="3.12029">
        <ele>823.8</ele>
        <time>2019-04-19T13:09:23Z</time>
      </trkpt>
      <trkpt lat="44.15213" lon="3.12029">
        <ele>822</ele>
        <time>2019-04-19T13:09:24Z</time>
      </trkpt>
      <trkpt lat="44.15216" lon="3.12029">
        <ele>821</ele>
        <time>2019-04-19T13:09:25Z</time>
      </trkpt>
      <trkpt lat="44.15221" lon="3.1203">
        <ele>820.6</ele>
        <time>2019-04-19T13:09:27Z</time>
      </trkpt>
      <trkpt lat="44.15225" lon="3.12032">
        <ele>818.4</ele>
        <time>2019-04-19T13:09:28Z</time>
      </trkpt>
      <trkpt lat="44.1523" lon="3.12034">
        <ele>818</ele>
        <time>2019-04-19T13:09:29Z</time>
      </trkpt>
      <trkpt lat="44.15233" lon="3.12037">
        <ele>816.9</ele>
        <time>2019-04-19T13:09:30Z</time>
      </trkpt>
      <trkpt lat="44.15236" lon="3.12039">
        <ele>816.7</ele>
        <time>2019-04-19T13:09:31Z</time>
      </trkpt>
      <trkpt lat="44.15239" lon="3.1204">
        <ele>815.7</ele>
        <time>2019-04-19T13:09:33Z</time>
      </trkpt>
      <trkpt lat="44.15243" lon="3.12041">
        <ele>814.6</ele>
        <time>2019-04-19T13:09:35Z</time>
      </trkpt>
      <trkpt lat="44.15248" lon="3.12043">
        <ele>813.2</ele>
        <time>2019-04-19T13:09:37Z</time>
      </trkpt>
      <trkpt lat="44.15251" lon="3.12044">
        <ele>811.9</ele>
        <time>2019-04-19T13:09:38Z</time>
      </trkpt>
      <trkpt lat="44.15254" lon="3.12047">
        <ele>811.4</ele>
        <time>2019-04-19T13:09:39Z</time>
      </trkpt>
      <trkpt lat="44.15257" lon="3.1205">
        <ele>810.2</ele>
        <time>2019-04-19T13:09:40Z</time>
      </trkpt>
      <trkpt lat="44.1526" lon="3.12054">
        <ele>809.8</ele>
        <time>2019-04-19T13:09:41Z</time>
      </trkpt>
      <trkpt lat="44.15263" lon="3.1206">
        <ele>810.4</ele>
        <time>2019-04-19T13:09:43Z</time>
      </trkpt>
      <trkpt lat="44.15267" lon="3.12063">
        <ele>809.3</ele>
        <time>2019-04-19T13:09:44Z</time>
      </trkpt>
      <trkpt lat="44.15271" lon="3.12066">
        <ele>809.1</ele>
        <time>2019-04-19T13:09:45Z</time>
      </trkpt>
      <trkpt lat="44.15274" lon="3.12069">
        <ele>809</ele>
        <time>2019-04-19T13:09:46Z</time>
      </trkpt>
      <trkpt lat="44.15276" lon="3.12071">
        <ele>807.7</ele>
        <time>2019-04-19T13:09:47Z</time>
      </trkpt>
      <trkpt lat="44.15279" lon="3.12076">
        <ele>808.8</ele>
        <time>2019-04-19T13:09:49Z</time>
      </trkpt>
      <trkpt lat="44.15281" lon="3.12079">
        <ele>807.7</ele>
        <time>2019-04-19T13:09:50Z</time>
      </trkpt>
      <trkpt lat="44.15283" lon="3.12082">
        <ele>808.9</ele>
        <time>2019-04-19T13:09:52Z</time>
      </trkpt>
      <trkpt lat="44.15285" lon="3.12086">
        <ele>809.1</ele>
        <time>2019-04-19T13:09:53Z</time>
      </trkpt>
      <trkpt lat="44.15287" lon="3.12089">
        <ele>808.2</ele>
        <time>2019-04-19T13:09:57Z</time>
      </trkpt>
      <trkpt lat="44.15292" lon="3.12096">
        <ele>808.7</ele>
        <time>2019-04-19T13:10:16Z</time>
      </trkpt>
      <trkpt lat="44.15294" lon="3.12099">
        <ele>808.9</ele>
        <time>2019-04-19T13:10:18Z</time>
      </trkpt>
      <trkpt lat="44.15297" lon="3.12101">
        <ele>809.1</ele>
        <time>2019-04-19T13:10:19Z</time>
      </trkpt>
      <trkpt lat="44.15301" lon="3.12104">
        <ele>809.4</ele>
        <time>2019-04-19T13:10:21Z</time>
      </trkpt>
      <trkpt lat="44.15304" lon="3.12106">
        <ele>809.6</ele>
        <time>2019-04-19T13:10:23Z</time>
      </trkpt>
      <trkpt lat="44.15307" lon="3.12108">
        <ele>809.8</ele>
        <time>2019-04-19T13:10:26Z</time>
      </trkpt>
      <trkpt lat="44.1531" lon="3.12111">
        <ele>809.9</ele>
        <time>2019-04-19T13:10:28Z</time>
      </trkpt>
      <trkpt lat="44.15315" lon="3.12116">
        <ele>810</ele>
        <time>2019-04-19T13:10:30Z</time>
      </trkpt>
      <trkpt lat="44.15318" lon="3.12121">
        <ele>810.1</ele>
        <time>2019-04-19T13:10:32Z</time>
      </trkpt>
      <trkpt lat="44.15321" lon="3.12126">
        <ele>810.2</ele>
        <time>2019-04-19T13:10:34Z</time>
      </trkpt>
      <trkpt lat="44.15324" lon="3.1213">
        <ele>810.3</ele>
        <time>2019-04-19T13:10:36Z</time>
      </trkpt>
      <trkpt lat="44.15328" lon="3.12133">
        <ele>810.4</ele>
        <time>2019-04-19T13:10:38Z</time>
      </trkpt>
      <trkpt lat="44.15332" lon="3.12135">
        <ele>810.4</ele>
        <time>2019-04-19T13:10:40Z</time>
      </trkpt>
      <trkpt lat="44.15335" lon="3.12138">
        <ele>810.3</ele>
        <time>2019-04-19T13:10:41Z</time>
      </trkpt>
      <trkpt lat="44.15339" lon="3.12141">
        <ele>810.2</ele>
        <time>2019-04-19T13:10:42Z</time>
      </trkpt>
      <trkpt lat="44.15343" lon="3.12144">
        <ele>810</ele>
        <time>2019-04-19T13:10:43Z</time>
      </trkpt>
      <trkpt lat="44.15347" lon="3.12147">
        <ele>809.9</ele>
        <time>2019-04-19T13:10:44Z</time>
      </trkpt>
      <trkpt lat="44.15351" lon="3.12151">
        <ele>809.8</ele>
        <time>2019-04-19T13:10:45Z</time>
      </trkpt>
      <trkpt lat="44.15356" lon="3.12154">
        <ele>809.7</ele>
        <time>2019-04-19T13:10:46Z</time>
      </trkpt>
      <trkpt lat="44.1536" lon="3.12158">
        <ele>809.6</ele>
        <time>2019-04-19T13:10:47Z</time>
      </trkpt>
      <trkpt lat="44.15363" lon="3.12162">
        <ele>809.5</ele>
        <time>2019-04-19T13:10:48Z</time>
      </trkpt>
      <trkpt lat="44.15366" lon="3.12166">
        <ele>809.5</ele>
        <time>2019-04-19T13:10:49Z</time>
      </trkpt>
      <trkpt lat="44.1537" lon="3.1217">
        <ele>809.5</ele>
        <time>2019-04-19T13:10:50Z</time>
      </trkpt>
      <trkpt lat="44.15373" lon="3.12173">
        <ele>809.5</ele>
        <time>2019-04-19T13:10:51Z</time>
      </trkpt>
      <trkpt lat="44.15377" lon="3.12175">
        <ele>809.5</ele>
        <time>2019-04-19T13:10:52Z</time>
      </trkpt>
      <trkpt lat="44.15381" lon="3.12177">
        <ele>809.7</ele>
        <time>2019-04-19T13:10:53Z</time>
      </trkpt>
      <trkpt lat="44.15385" lon="3.1218">
        <ele>809.8</ele>
        <time>2019-04-19T13:10:54Z</time>
      </trkpt>
      <trkpt lat="44.15389" lon="3.12183">
        <ele>810</ele>
        <time>2019-04-19T13:10:55Z</time>
      </trkpt>
      <trkpt lat="44.15392" lon="3.12185">
        <ele>810.1</ele>
        <time>2019-04-19T13:10:56Z</time>
      </trkpt>
      <trkpt lat="44.15395" lon="3.12187">
        <ele>810.3</ele>
        <time>2019-04-19T13:10:57Z</time>
      </trkpt>
      <trkpt lat="44.15398" lon="3.12189">
        <ele>810.4</ele>
        <time>2019-04-19T13:10:58Z</time>
      </trkpt>
      <trkpt lat="44.15401" lon="3.12192">
        <ele>810.6</ele>
        <time>2019-04-19T13:10:59Z</time>
      </trkpt>
      <trkpt lat="44.15403" lon="3.12197">
        <ele>810.7</ele>
        <time>2019-04-19T13:11:00Z</time>
      </trkpt>
      <trkpt lat="44.15405" lon="3.12202">
        <ele>810.8</ele>
        <time>2019-04-19T13:11:02Z</time>
      </trkpt>
      <trkpt lat="44.15408" lon="3.12203">
        <ele>810.9</ele>
        <time>2019-04-19T13:11:05Z</time>
      </trkpt>
      <trkpt lat="44.15411" lon="3.12205">
        <ele>810.9</ele>
        <time>2019-04-19T13:11:10Z</time>
      </trkpt>
      <trkpt lat="44.15414" lon="3.12211">
        <ele>811</ele>
        <time>2019-04-19T13:11:12Z</time>
      </trkpt>
      <trkpt lat="44.15417" lon="3.12216">
        <ele>811</ele>
        <time>2019-04-19T13:11:14Z</time>
      </trkpt>
      <trkpt lat="44.15421" lon="3.1222">
        <ele>811.1</ele>
        <time>2019-04-19T13:11:16Z</time>
      </trkpt>
      <trkpt lat="44.15422" lon="3.12223">
        <ele>811.1</ele>
        <time>2019-04-19T13:11:17Z</time>
      </trkpt>
      <trkpt lat="44.15424" lon="3.12227">
        <ele>811.1</ele>
        <time>2019-04-19T13:11:18Z</time>
      </trkpt>
      <trkpt lat="44.15425" lon="3.12233">
        <ele>811.2</ele>
        <time>2019-04-19T13:11:20Z</time>
      </trkpt>
      <trkpt lat="44.15425" lon="3.12238">
        <ele>811.2</ele>
        <time>2019-04-19T13:11:21Z</time>
      </trkpt>
      <trkpt lat="44.15423" lon="3.12241">
        <ele>811.2</ele>
        <time>2019-04-19T13:11:22Z</time>
      </trkpt>
      <trkpt lat="44.15422" lon="3.12245">
        <ele>811.2</ele>
        <time>2019-04-19T13:11:23Z</time>
      </trkpt>
      <trkpt lat="44.1542" lon="3.12249">
        <ele>811.3</ele>
        <time>2019-04-19T13:11:24Z</time>
      </trkpt>
      <trkpt lat="44.1542" lon="3.12253">
        <ele>811.3</ele>
        <time>2019-04-19T13:11:25Z</time>
      </trkpt>
      <trkpt lat="44.15423" lon="3.12259">
        <ele>811.3</ele>
        <time>2019-04-19T13:11:27Z</time>
      </trkpt>
      <trkpt lat="44.15426" lon="3.12261">
        <ele>811.3</ele>
        <time>2019-04-19T13:11:28Z</time>
      </trkpt>
      <trkpt lat="44.15429" lon="3.12263">
        <ele>811.3</ele>
        <time>2019-04-19T13:11:29Z</time>
      </trkpt>
      <trkpt lat="44.15432" lon="3.12265">
        <ele>811.3</ele>
        <time>2019-04-19T13:11:30Z</time>
      </trkpt>
      <trkpt lat="44.15436" lon="3.12266">
        <ele>811.3</ele>
        <time>2019-04-19T13:11:31Z</time>
      </trkpt>
      <trkpt lat="44.15441" lon="3.12267">
        <ele>811.3</ele>
        <time>2019-04-19T13:11:32Z</time>
      </trkpt>
      <trkpt lat="44.15446" lon="3.12268">
        <ele>811.3</ele>
        <time>2019-04-19T13:11:33Z</time>
      </trkpt>
      <trkpt lat="44.15451" lon="3.12268">
        <ele>811.3</ele>
        <time>2019-04-19T13:11:34Z</time>
      </trkpt>
      <trkpt lat="44.15454" lon="3.12269">
        <ele>811.3</ele>
        <time>2019-04-19T13:11:35Z</time>
      </trkpt>
      <trkpt lat="44.15458" lon="3.1227">
        <ele>811.3</ele>
        <time>2019-04-19T13:13:11Z</time>
      </trkpt>
      <trkpt lat="44.15459" lon="3.12274">
        <ele>811.3</ele>
        <time>2019-04-19T13:13:13Z</time>
      </trkpt>
      <trkpt lat="44.15461" lon="3.12279">
        <ele>811.3</ele>
        <time>2019-04-19T13:13:15Z</time>
      </trkpt>
      <trkpt lat="44.15466" lon="3.12284">
        <ele>811.3</ele>
        <time>2019-04-19T13:13:17Z</time>
      </trkpt>
      <trkpt lat="44.15469" lon="3.1229">
        <ele>811.3</ele>
        <time>2019-04-19T13:13:18Z</time>
      </trkpt>
      <trkpt lat="44.15473" lon="3.12294">
        <ele>811.3</ele>
        <time>2019-04-19T13:13:19Z</time>
      </trkpt>
      <trkpt lat="44.15477" lon="3.12299">
        <ele>811.3</ele>
        <time>2019-04-19T13:13:20Z</time>
      </trkpt>
      <trkpt lat="44.1548" lon="3.12304">
        <ele>811.4</ele>
        <time>2019-04-19T13:13:21Z</time>
      </trkpt>
      <trkpt lat="44.15484" lon="3.12308">
        <ele>811.4</ele>
        <time>2019-04-19T13:13:22Z</time>
      </trkpt>
      <trkpt lat="44.15488" lon="3.12312">
        <ele>811.4</ele>
        <time>2019-04-19T13:13:23Z</time>
      </trkpt>
      <trkpt lat="44.15492" lon="3.12316">
        <ele>811.4</ele>
        <time>2019-04-19T13:13:24Z</time>
      </trkpt>
      <trkpt lat="44.15495" lon="3.12321">
        <ele>811.4</ele>
        <time>2019-04-19T13:13:25Z</time>
      </trkpt>
      <trkpt lat="44.15499" lon="3.12324">
        <ele>811.5</ele>
        <time>2019-04-19T13:13:26Z</time>
      </trkpt>
      <trkpt lat="44.15505" lon="3.12329">
        <ele>811.6</ele>
        <time>2019-04-19T13:13:27Z</time>
      </trkpt>
      <trkpt lat="44.15507" lon="3.12335">
        <ele>811.6</ele>
        <time>2019-04-19T13:13:28Z</time>
      </trkpt>
      <trkpt lat="44.15508" lon="3.12341">
        <ele>811.7</ele>
        <time>2019-04-19T13:13:29Z</time>
      </trkpt>
      <trkpt lat="44.15511" lon="3.12346">
        <ele>811.7</ele>
        <time>2019-04-19T13:13:30Z</time>
      </trkpt>
      <trkpt lat="44.15514" lon="3.12351">
        <ele>811.8</ele>
        <time>2019-04-19T13:13:31Z</time>
      </trkpt>
      <trkpt lat="44.15515" lon="3.12358">
        <ele>811.8</ele>
        <time>2019-04-19T13:13:33Z</time>
      </trkpt>
      <trkpt lat="44.15517" lon="3.12362">
        <ele>811.8</ele>
        <time>2019-04-19T13:13:34Z</time>
      </trkpt>
      <trkpt lat="44.15518" lon="3.12365">
        <ele>811.9</ele>
        <time>2019-04-19T13:13:35Z</time>
      </trkpt>
      <trkpt lat="44.15521" lon="3.12367">
        <ele>811.9</ele>
        <time>2019-04-19T13:13:36Z</time>
      </trkpt>
      <trkpt lat="44.15526" lon="3.12368">
        <ele>812</ele>
        <time>2019-04-19T13:13:37Z</time>
      </trkpt>
      <trkpt lat="44.15528" lon="3.12371">
        <ele>812</ele>
        <time>2019-04-19T13:13:38Z</time>
      </trkpt>
      <trkpt lat="44.15533" lon="3.12374">
        <ele>812.1</ele>
        <time>2019-04-19T13:13:39Z</time>
      </trkpt>
      <trkpt lat="44.15536" lon="3.12375">
        <ele>812.1</ele>
        <time>2019-04-19T13:13:40Z</time>
      </trkpt>
      <trkpt lat="44.15539" lon="3.12378">
        <ele>812.2</ele>
        <time>2019-04-19T13:13:41Z</time>
      </trkpt>
      <trkpt lat="44.15543" lon="3.12381">
        <ele>812.2</ele>
        <time>2019-04-19T13:13:42Z</time>
      </trkpt>
      <trkpt lat="44.15547" lon="3.12384">
        <ele>812.3</ele>
        <time>2019-04-19T13:13:43Z</time>
      </trkpt>
      <trkpt lat="44.1555" lon="3.12386">
        <ele>812.4</ele>
        <time>2019-04-19T13:13:44Z</time>
      </trkpt>
      <trkpt lat="44.15553" lon="3.12388">
        <ele>812.5</ele>
        <time>2019-04-19T13:13:45Z</time>
      </trkpt>
      <trkpt lat="44.15556" lon="3.1239">
        <ele>812.6</ele>
        <time>2019-04-19T13:13:46Z</time>
      </trkpt>
      <trkpt lat="44.1556" lon="3.12392">
        <ele>812.7</ele>
        <time>2019-04-19T13:13:48Z</time>
      </trkpt>
      <trkpt lat="44.15564" lon="3.12392">
        <ele>812.9</ele>
        <time>2019-04-19T13:13:50Z</time>
      </trkpt>
      <trkpt lat="44.15569" lon="3.12391">
        <ele>813.2</ele>
        <time>2019-04-19T13:13:52Z</time>
      </trkpt>
      <trkpt lat="44.15572" lon="3.12392">
        <ele>813.4</ele>
        <time>2019-04-19T13:13:53Z</time>
      </trkpt>
      <trkpt lat="44.15575" lon="3.12393">
        <ele>813.6</ele>
        <time>2019-04-19T13:13:54Z</time>
      </trkpt>
      <trkpt lat="44.15578" lon="3.12394">
        <ele>813.9</ele>
        <time>2019-04-19T13:13:55Z</time>
      </trkpt>
      <trkpt lat="44.15581" lon="3.12396">
        <ele>814.2</ele>
        <time>2019-04-19T13:13:56Z</time>
      </trkpt>
      <trkpt lat="44.15584" lon="3.12397">
        <ele>814.5</ele>
        <time>2019-04-19T13:13:57Z</time>
      </trkpt>
      <trkpt lat="44.15587" lon="3.124">
        <ele>814.7</ele>
        <time>2019-04-19T13:13:58Z</time>
      </trkpt>
      <trkpt lat="44.15591" lon="3.12402">
        <ele>815</ele>
        <time>2019-04-19T13:13:59Z</time>
      </trkpt>
      <trkpt lat="44.15594" lon="3.12405">
        <ele>815.2</ele>
        <time>2019-04-19T13:14:00Z</time>
      </trkpt>
      <trkpt lat="44.15598" lon="3.12409">
        <ele>815.5</ele>
        <time>2019-04-19T13:14:01Z</time>
      </trkpt>
      <trkpt lat="44.15601" lon="3.12412">
        <ele>815.7</ele>
        <time>2019-04-19T13:14:02Z</time>
      </trkpt>
      <trkpt lat="44.15604" lon="3.12416">
        <ele>815.9</ele>
        <time>2019-04-19T13:14:03Z</time>
      </trkpt>
      <trkpt lat="44.15607" lon="3.12419">
        <ele>816</ele>
        <time>2019-04-19T13:14:04Z</time>
      </trkpt>
      <trkpt lat="44.1561" lon="3.1242">
        <ele>816</ele>
        <time>2019-04-19T13:14:05Z</time>
      </trkpt>
      <trkpt lat="44.15614" lon="3.12422">
        <ele>816.1</ele>
        <time>2019-04-19T13:14:06Z</time>
      </trkpt>
      <trkpt lat="44.15618" lon="3.12423">
        <ele>816.1</ele>
        <time>2019-04-19T13:14:07Z</time>
      </trkpt>
      <trkpt lat="44.15621" lon="3.12425">
        <ele>816.2</ele>
        <time>2019-04-19T13:14:08Z</time>
      </trkpt>
      <trkpt lat="44.15625" lon="3.12426">
        <ele>816.2</ele>
        <time>2019-04-19T13:14:09Z</time>
      </trkpt>
      <trkpt lat="44.15629" lon="3.12428">
        <ele>816.2</ele>
        <time>2019-04-19T13:14:10Z</time>
      </trkpt>
      <trkpt lat="44.15633" lon="3.12431">
        <ele>816.2</ele>
        <time>2019-04-19T13:14:11Z</time>
      </trkpt>
      <trkpt lat="44.15637" lon="3.12435">
        <ele>816.2</ele>
        <time>2019-04-19T13:14:12Z</time>
      </trkpt>
      <trkpt lat="44.1564" lon="3.12438">
        <ele>816.3</ele>
        <time>2019-04-19T13:14:13Z</time>
      </trkpt>
      <trkpt lat="44.15643" lon="3.12441">
        <ele>816.3</ele>
        <time>2019-04-19T13:14:14Z</time>
      </trkpt>
      <trkpt lat="44.15646" lon="3.12443">
        <ele>816.3</ele>
        <time>2019-04-19T13:14:15Z</time>
      </trkpt>
      <trkpt lat="44.1565" lon="3.12447">
        <ele>816.3</ele>
        <time>2019-04-19T13:14:16Z</time>
      </trkpt>
      <trkpt lat="44.15654" lon="3.12451">
        <ele>816.3</ele>
        <time>2019-04-19T13:14:17Z</time>
      </trkpt>
      <trkpt lat="44.15657" lon="3.12455">
        <ele>816.4</ele>
        <time>2019-04-19T13:14:18Z</time>
      </trkpt>
      <trkpt lat="44.15661" lon="3.12457">
        <ele>816.4</ele>
        <time>2019-04-19T13:14:19Z</time>
      </trkpt>
      <trkpt lat="44.15665" lon="3.12459">
        <ele>816.4</ele>
        <time>2019-04-19T13:14:20Z</time>
      </trkpt>
      <trkpt lat="44.15669" lon="3.12459">
        <ele>816.5</ele>
        <time>2019-04-19T13:14:21Z</time>
      </trkpt>
      <trkpt lat="44.15673" lon="3.1246">
        <ele>816.5</ele>
        <time>2019-04-19T13:14:22Z</time>
      </trkpt>
      <trkpt lat="44.15678" lon="3.12463">
        <ele>816.5</ele>
        <time>2019-04-19T13:14:23Z</time>
      </trkpt>
      <trkpt lat="44.15682" lon="3.12465">
        <ele>816.5</ele>
        <time>2019-04-19T13:14:24Z</time>
      </trkpt>
      <trkpt lat="44.15686" lon="3.12469">
        <ele>816.4</ele>
        <time>2019-04-19T13:14:25Z</time>
      </trkpt>
      <trkpt lat="44.15699" lon="3.12471">
        <ele>816</ele>
        <time>2019-04-19T13:14:26Z</time>
      </trkpt>
      <trkpt lat="44.15705" lon="3.12476">
        <ele>815.7</ele>
        <time>2019-04-19T13:14:27Z</time>
      </trkpt>
      <trkpt lat="44.15708" lon="3.12481">
        <ele>815.5</ele>
        <time>2019-04-19T13:14:28Z</time>
      </trkpt>
      <trkpt lat="44.15712" lon="3.12486">
        <ele>815.3</ele>
        <time>2019-04-19T13:14:29Z</time>
      </trkpt>
      <trkpt lat="44.15714" lon="3.12493">
        <ele>815</ele>
        <time>2019-04-19T13:14:30Z</time>
      </trkpt>
      <trkpt lat="44.15717" lon="3.125">
        <ele>814.8</ele>
        <time>2019-04-19T13:14:31Z</time>
      </trkpt>
      <trkpt lat="44.15719" lon="3.12506">
        <ele>814.6</ele>
        <time>2019-04-19T13:14:32Z</time>
      </trkpt>
      <trkpt lat="44.15723" lon="3.12512">
        <ele>814.2</ele>
        <time>2019-04-19T13:14:33Z</time>
      </trkpt>
      <trkpt lat="44.15727" lon="3.12519">
        <ele>813.9</ele>
        <time>2019-04-19T13:14:34Z</time>
      </trkpt>
      <trkpt lat="44.15732" lon="3.12527">
        <ele>813.4</ele>
        <time>2019-04-19T13:14:35Z</time>
      </trkpt>
      <trkpt lat="44.15734" lon="3.12537">
        <ele>813</ele>
        <time>2019-04-19T13:14:36Z</time>
      </trkpt>
      <trkpt lat="44.15736" lon="3.12546">
        <ele>812.7</ele>
        <time>2019-04-19T13:14:37Z</time>
      </trkpt>
      <trkpt lat="44.15737" lon="3.12556">
        <ele>812.3</ele>
        <time>2019-04-19T13:14:38Z</time>
      </trkpt>
      <trkpt lat="44.1574" lon="3.12565">
        <ele>812.1</ele>
        <time>2019-04-19T13:14:39Z</time>
      </trkpt>
      <trkpt lat="44.15742" lon="3.12579">
        <ele>812</ele>
        <time>2019-04-19T13:14:40Z</time>
      </trkpt>
      <trkpt lat="44.15745" lon="3.12588">
        <ele>812.1</ele>
        <time>2019-04-19T13:14:41Z</time>
      </trkpt>
      <trkpt lat="44.15747" lon="3.12597">
        <ele>812.2</ele>
        <time>2019-04-19T13:14:42Z</time>
      </trkpt>
      <trkpt lat="44.15747" lon="3.12603">
        <ele>812.2</ele>
        <time>2019-04-19T13:14:43Z</time>
      </trkpt>
      <trkpt lat="44.15749" lon="3.12607">
        <ele>812.3</ele>
        <time>2019-04-19T13:14:44Z</time>
      </trkpt>
      <trkpt lat="44.15753" lon="3.12607">
        <ele>812.4</ele>
        <time>2019-04-19T13:14:46Z</time>
      </trkpt>
      <trkpt lat="44.15758" lon="3.1261">
        <ele>812.4</ele>
        <time>2019-04-19T13:14:48Z</time>
      </trkpt>
      <trkpt lat="44.15763" lon="3.12614">
        <ele>812.4</ele>
        <time>2019-04-19T13:14:49Z</time>
      </trkpt>
      <trkpt lat="44.15769" lon="3.12618">
        <ele>812.2</ele>
        <time>2019-04-19T13:14:50Z</time>
      </trkpt>
      <trkpt lat="44.15772" lon="3.12622">
        <ele>812.1</ele>
        <time>2019-04-19T13:14:51Z</time>
      </trkpt>
      <trkpt lat="44.15774" lon="3.12626">
        <ele>812</ele>
        <time>2019-04-19T13:14:52Z</time>
      </trkpt>
      <trkpt lat="44.15779" lon="3.12627">
        <ele>811.8</ele>
        <time>2019-04-19T13:14:54Z</time>
      </trkpt>
      <trkpt lat="44.15781" lon="3.12629">
        <ele>811.7</ele>
        <time>2019-04-19T13:14:55Z</time>
      </trkpt>
      <trkpt lat="44.15784" lon="3.12633">
        <ele>811.4</ele>
        <time>2019-04-19T13:14:56Z</time>
      </trkpt>
      <trkpt lat="44.15787" lon="3.12638">
        <ele>811.2</ele>
        <time>2019-04-19T13:14:57Z</time>
      </trkpt>
      <trkpt lat="44.15789" lon="3.12644">
        <ele>810.9</ele>
        <time>2019-04-19T13:14:58Z</time>
      </trkpt>
      <trkpt lat="44.1579" lon="3.12649">
        <ele>810.7</ele>
        <time>2019-04-19T13:14:59Z</time>
      </trkpt>
      <trkpt lat="44.15792" lon="3.12653">
        <ele>810.4</ele>
        <time>2019-04-19T13:15:00Z</time>
      </trkpt>
      <trkpt lat="44.15795" lon="3.12657">
        <ele>810.1</ele>
        <time>2019-04-19T13:15:01Z</time>
      </trkpt>
      <trkpt lat="44.15797" lon="3.1266">
        <ele>809.7</ele>
        <time>2019-04-19T13:15:02Z</time>
      </trkpt>
      <trkpt lat="44.15798" lon="3.12667">
        <ele>809.3</ele>
        <time>2019-04-19T13:15:04Z</time>
      </trkpt>
      <trkpt lat="44.15801" lon="3.12675">
        <ele>808.5</ele>
        <time>2019-04-19T13:15:06Z</time>
      </trkpt>
      <trkpt lat="44.15803" lon="3.1268">
        <ele>808.1</ele>
        <time>2019-04-19T13:15:07Z</time>
      </trkpt>
      <trkpt lat="44.15806" lon="3.12686">
        <ele>807.7</ele>
        <time>2019-04-19T13:15:08Z</time>
      </trkpt>
      <trkpt lat="44.15808" lon="3.12693">
        <ele>807.2</ele>
        <time>2019-04-19T13:15:09Z</time>
      </trkpt>
      <trkpt lat="44.15808" lon="3.127">
        <ele>806.7</ele>
        <time>2019-04-19T13:15:10Z</time>
      </trkpt>
      <trkpt lat="44.15806" lon="3.12706">
        <ele>806.2</ele>
        <time>2019-04-19T13:15:11Z</time>
      </trkpt>
      <trkpt lat="44.15804" lon="3.12712">
        <ele>805.8</ele>
        <time>2019-04-19T13:15:12Z</time>
      </trkpt>
      <trkpt lat="44.15801" lon="3.12717">
        <ele>805.4</ele>
        <time>2019-04-19T13:15:13Z</time>
      </trkpt>
      <trkpt lat="44.15799" lon="3.12722">
        <ele>805.2</ele>
        <time>2019-04-19T13:15:14Z</time>
      </trkpt>
      <trkpt lat="44.15797" lon="3.12727">
        <ele>804.9</ele>
        <time>2019-04-19T13:15:15Z</time>
      </trkpt>
      <trkpt lat="44.15796" lon="3.12732">
        <ele>804.7</ele>
        <time>2019-04-19T13:15:16Z</time>
      </trkpt>
      <trkpt lat="44.15795" lon="3.1274">
        <ele>804.4</ele>
        <time>2019-04-19T13:15:18Z</time>
      </trkpt>
      <trkpt lat="44.15795" lon="3.12744">
        <ele>804.2</ele>
        <time>2019-04-19T13:15:19Z</time>
      </trkpt>
      <trkpt lat="44.15794" lon="3.12748">
        <ele>804</ele>
        <time>2019-04-19T13:15:20Z</time>
      </trkpt>
      <trkpt lat="44.15797" lon="3.12754">
        <ele>803.7</ele>
        <time>2019-04-19T13:15:22Z</time>
      </trkpt>
      <trkpt lat="44.15799" lon="3.12758">
        <ele>803.6</ele>
        <time>2019-04-19T13:15:23Z</time>
      </trkpt>
      <trkpt lat="44.15802" lon="3.12761">
        <ele>803.4</ele>
        <time>2019-04-19T13:15:24Z</time>
      </trkpt>
      <trkpt lat="44.15802" lon="3.12767">
        <ele>803.3</ele>
        <time>2019-04-19T13:15:25Z</time>
      </trkpt>
      <trkpt lat="44.15802" lon="3.12773">
        <ele>803.1</ele>
        <time>2019-04-19T13:15:26Z</time>
      </trkpt>
      <trkpt lat="44.15802" lon="3.1278">
        <ele>802.9</ele>
        <time>2019-04-19T13:15:27Z</time>
      </trkpt>
      <trkpt lat="44.15803" lon="3.12786">
        <ele>802.6</ele>
        <time>2019-04-19T13:15:28Z</time>
      </trkpt>
      <trkpt lat="44.15805" lon="3.12791">
        <ele>802.4</ele>
        <time>2019-04-19T13:15:29Z</time>
      </trkpt>
      <trkpt lat="44.15807" lon="3.12794">
        <ele>802.3</ele>
        <time>2019-04-19T13:15:30Z</time>
      </trkpt>
      <trkpt lat="44.15809" lon="3.12798">
        <ele>802.1</ele>
        <time>2019-04-19T13:15:31Z</time>
      </trkpt>
      <trkpt lat="44.15811" lon="3.12801">
        <ele>801.9</ele>
        <time>2019-04-19T13:15:32Z</time>
      </trkpt>
      <trkpt lat="44.15814" lon="3.12806">
        <ele>801.7</ele>
        <time>2019-04-19T13:15:34Z</time>
      </trkpt>
      <trkpt lat="44.15816" lon="3.12808">
        <ele>801.6</ele>
        <time>2019-04-19T13:15:35Z</time>
      </trkpt>
      <trkpt lat="44.15819" lon="3.12811">
        <ele>801.3</ele>
        <time>2019-04-19T13:15:36Z</time>
      </trkpt>
      <trkpt lat="44.15822" lon="3.12814">
        <ele>801.1</ele>
        <time>2019-04-19T13:15:37Z</time>
      </trkpt>
      <trkpt lat="44.15824" lon="3.12816">
        <ele>800.8</ele>
        <time>2019-04-19T13:15:38Z</time>
      </trkpt>
      <trkpt lat="44.15827" lon="3.12819">
        <ele>800.6</ele>
        <time>2019-04-19T13:15:39Z</time>
      </trkpt>
      <trkpt lat="44.1583" lon="3.12821">
        <ele>800.3</ele>
        <time>2019-04-19T13:15:40Z</time>
      </trkpt>
      <trkpt lat="44.15832" lon="3.12823">
        <ele>800.1</ele>
        <time>2019-04-19T13:15:41Z</time>
      </trkpt>
      <trkpt lat="44.15834" lon="3.12826">
        <ele>800.2</ele>
        <time>2019-04-19T13:15:42Z</time>
      </trkpt>
      <trkpt lat="44.15837" lon="3.12829">
        <ele>800.5</ele>
        <time>2019-04-19T13:15:43Z</time>
      </trkpt>
      <trkpt lat="44.1584" lon="3.12832">
        <ele>800.9</ele>
        <time>2019-04-19T13:15:44Z</time>
      </trkpt>
      <trkpt lat="44.15843" lon="3.12835">
        <ele>801.4</ele>
        <time>2019-04-19T13:15:45Z</time>
      </trkpt>
      <trkpt lat="44.15846" lon="3.12838">
        <ele>801.8</ele>
        <time>2019-04-19T13:15:46Z</time>
      </trkpt>
      <trkpt lat="44.15849" lon="3.12841">
        <ele>802.1</ele>
        <time>2019-04-19T13:15:47Z</time>
      </trkpt>
      <trkpt lat="44.15851" lon="3.12844">
        <ele>802.2</ele>
        <time>2019-04-19T13:15:48Z</time>
      </trkpt>
      <trkpt lat="44.15854" lon="3.12847">
        <ele>802.4</ele>
        <time>2019-04-19T13:15:50Z</time>
      </trkpt>
      <trkpt lat="44.15857" lon="3.12849">
        <ele>802.5</ele>
        <time>2019-04-19T13:15:51Z</time>
      </trkpt>
      <trkpt lat="44.15859" lon="3.12852">
        <ele>802.7</ele>
        <time>2019-04-19T13:15:52Z</time>
      </trkpt>
      <trkpt lat="44.15862" lon="3.12855">
        <ele>802.8</ele>
        <time>2019-04-19T13:15:53Z</time>
      </trkpt>
      <trkpt lat="44.15864" lon="3.12857">
        <ele>802.9</ele>
        <time>2019-04-19T13:15:54Z</time>
      </trkpt>
      <trkpt lat="44.15868" lon="3.12862">
        <ele>803.2</ele>
        <time>2019-04-19T13:15:56Z</time>
      </trkpt>
      <trkpt lat="44.15871" lon="3.12864">
        <ele>803.4</ele>
        <time>2019-04-19T13:15:57Z</time>
      </trkpt>
      <trkpt lat="44.15874" lon="3.12866">
        <ele>803.6</ele>
        <time>2019-04-19T13:15:58Z</time>
      </trkpt>
      <trkpt lat="44.15877" lon="3.12867">
        <ele>803.8</ele>
        <time>2019-04-19T13:15:59Z</time>
      </trkpt>
      <trkpt lat="44.15881" lon="3.12868">
        <ele>803.9</ele>
        <time>2019-04-19T13:16:00Z</time>
      </trkpt>
      <trkpt lat="44.15884" lon="3.1287">
        <ele>804.1</ele>
        <time>2019-04-19T13:16:01Z</time>
      </trkpt>
      <trkpt lat="44.15887" lon="3.12873">
        <ele>804.2</ele>
        <time>2019-04-19T13:16:02Z</time>
      </trkpt>
      <trkpt lat="44.1589" lon="3.12877">
        <ele>804.4</ele>
        <time>2019-04-19T13:16:04Z</time>
      </trkpt>
      <trkpt lat="44.15893" lon="3.12879">
        <ele>804.5</ele>
        <time>2019-04-19T13:16:06Z</time>
      </trkpt>
      <trkpt lat="44.15895" lon="3.12883">
        <ele>804.7</ele>
        <time>2019-04-19T13:16:08Z</time>
      </trkpt>
      <trkpt lat="44.15899" lon="3.12889">
        <ele>804.9</ele>
        <time>2019-04-19T13:16:10Z</time>
      </trkpt>
      <trkpt lat="44.15903" lon="3.12891">
        <ele>805.1</ele>
        <time>2019-04-19T13:16:11Z</time>
      </trkpt>
      <trkpt lat="44.15906" lon="3.12894">
        <ele>805.3</ele>
        <time>2019-04-19T13:16:12Z</time>
      </trkpt>
      <trkpt lat="44.15909" lon="3.12896">
        <ele>805.4</ele>
        <time>2019-04-19T13:16:13Z</time>
      </trkpt>
      <trkpt lat="44.15913" lon="3.12898">
        <ele>805.5</ele>
        <time>2019-04-19T13:16:14Z</time>
      </trkpt>
      <trkpt lat="44.15917" lon="3.129">
        <ele>805.6</ele>
        <time>2019-04-19T13:16:15Z</time>
      </trkpt>
      <trkpt lat="44.1592" lon="3.12902">
        <ele>805.7</ele>
        <time>2019-04-19T13:16:16Z</time>
      </trkpt>
      <trkpt lat="44.15923" lon="3.12904">
        <ele>805.7</ele>
        <time>2019-04-19T13:16:17Z</time>
      </trkpt>
      <trkpt lat="44.15926" lon="3.12906">
        <ele>805.7</ele>
        <time>2019-04-19T13:16:18Z</time>
      </trkpt>
      <trkpt lat="44.15928" lon="3.12909">
        <ele>805.7</ele>
        <time>2019-04-19T13:16:19Z</time>
      </trkpt>
      <trkpt lat="44.1593" lon="3.12914">
        <ele>805.7</ele>
        <time>2019-04-19T13:16:21Z</time>
      </trkpt>
      <trkpt lat="44.1593" lon="3.12922">
        <ele>805.7</ele>
        <time>2019-04-19T13:16:23Z</time>
      </trkpt>
      <trkpt lat="44.1593" lon="3.12927">
        <ele>805.6</ele>
        <time>2019-04-19T13:16:24Z</time>
      </trkpt>
      <trkpt lat="44.15931" lon="3.12931">
        <ele>805.6</ele>
        <time>2019-04-19T13:16:25Z</time>
      </trkpt>
      <trkpt lat="44.15934" lon="3.12935">
        <ele>805.5</ele>
        <time>2019-04-19T13:16:26Z</time>
      </trkpt>
      <trkpt lat="44.15937" lon="3.12938">
        <ele>805.4</ele>
        <time>2019-04-19T13:16:27Z</time>
      </trkpt>
      <trkpt lat="44.1594" lon="3.12942">
        <ele>805.3</ele>
        <time>2019-04-19T13:16:28Z</time>
      </trkpt>
      <trkpt lat="44.15943" lon="3.12945">
        <ele>805.2</ele>
        <time>2019-04-19T13:16:29Z</time>
      </trkpt>
      <trkpt lat="44.15945" lon="3.12947">
        <ele>805.1</ele>
        <time>2019-04-19T13:16:30Z</time>
      </trkpt>
      <trkpt lat="44.15948" lon="3.12949">
        <ele>805.1</ele>
        <time>2019-04-19T13:16:31Z</time>
      </trkpt>
      <trkpt lat="44.1595" lon="3.12952">
        <ele>805</ele>
        <time>2019-04-19T13:16:32Z</time>
      </trkpt>
      <trkpt lat="44.15952" lon="3.12955">
        <ele>804.8</ele>
        <time>2019-04-19T13:16:33Z</time>
      </trkpt>
      <trkpt lat="44.15953" lon="3.1296">
        <ele>804.6</ele>
        <time>2019-04-19T13:16:34Z</time>
      </trkpt>
      <trkpt lat="44.15954" lon="3.12964">
        <ele>804.5</ele>
        <time>2019-04-19T13:16:35Z</time>
      </trkpt>
      <trkpt lat="44.15954" lon="3.1297">
        <ele>804.3</ele>
        <time>2019-04-19T13:16:36Z</time>
      </trkpt>
      <trkpt lat="44.15954" lon="3.12977">
        <ele>804.1</ele>
        <time>2019-04-19T13:16:37Z</time>
      </trkpt>
      <trkpt lat="44.15953" lon="3.12983">
        <ele>804</ele>
        <time>2019-04-19T13:16:38Z</time>
      </trkpt>
      <trkpt lat="44.15952" lon="3.12988">
        <ele>803.8</ele>
        <time>2019-04-19T13:16:39Z</time>
      </trkpt>
      <trkpt lat="44.15952" lon="3.12996">
        <ele>803.5</ele>
        <time>2019-04-19T13:16:40Z</time>
      </trkpt>
      <trkpt lat="44.15955" lon="3.13004">
        <ele>803.1</ele>
        <time>2019-04-19T13:16:41Z</time>
      </trkpt>
      <trkpt lat="44.15958" lon="3.13011">
        <ele>802.8</ele>
        <time>2019-04-19T13:16:42Z</time>
      </trkpt>
      <trkpt lat="44.15961" lon="3.13014">
        <ele>802.7</ele>
        <time>2019-04-19T13:16:43Z</time>
      </trkpt>
      <trkpt lat="44.15964" lon="3.13017">
        <ele>802.5</ele>
        <time>2019-04-19T13:16:44Z</time>
      </trkpt>
      <trkpt lat="44.15968" lon="3.13019">
        <ele>802.4</ele>
        <time>2019-04-19T13:16:45Z</time>
      </trkpt>
      <trkpt lat="44.15971" lon="3.13021">
        <ele>802.3</ele>
        <time>2019-04-19T13:16:46Z</time>
      </trkpt>
      <trkpt lat="44.15974" lon="3.13023">
        <ele>802.2</ele>
        <time>2019-04-19T13:16:47Z</time>
      </trkpt>
      <trkpt lat="44.15976" lon="3.13025">
        <ele>802.1</ele>
        <time>2019-04-19T13:16:48Z</time>
      </trkpt>
      <trkpt lat="44.1598" lon="3.13028">
        <ele>801.9</ele>
        <time>2019-04-19T13:16:49Z</time>
      </trkpt>
      <trkpt lat="44.15982" lon="3.13031">
        <ele>801.7</ele>
        <time>2019-04-19T13:16:50Z</time>
      </trkpt>
      <trkpt lat="44.15987" lon="3.13038">
        <ele>801.6</ele>
        <time>2019-04-19T13:16:52Z</time>
      </trkpt>
      <trkpt lat="44.15989" lon="3.13043">
        <ele>801.6</ele>
        <time>2019-04-19T13:16:54Z</time>
      </trkpt>
      <trkpt lat="44.15993" lon="3.13048">
        <ele>801.8</ele>
        <time>2019-04-19T13:17:07Z</time>
      </trkpt>
      <trkpt lat="44.15996" lon="3.1305">
        <ele>801.9</ele>
        <time>2019-04-19T13:17:10Z</time>
      </trkpt>
      <trkpt lat="44.15998" lon="3.13054">
        <ele>802</ele>
        <time>2019-04-19T13:17:12Z</time>
      </trkpt>
      <trkpt lat="44.16001" lon="3.13054">
        <ele>802.2</ele>
        <time>2019-04-19T13:17:19Z</time>
      </trkpt>
      <trkpt lat="44.16012" lon="3.13051">
        <ele>802.9</ele>
        <time>2019-04-19T13:18:45Z</time>
      </trkpt>
      <trkpt lat="44.16016" lon="3.1305">
        <ele>803.1</ele>
        <time>2019-04-19T13:18:46Z</time>
      </trkpt>
      <trkpt lat="44.1602" lon="3.1305">
        <ele>803.4</ele>
        <time>2019-04-19T13:18:48Z</time>
      </trkpt>
      <trkpt lat="44.16024" lon="3.13051">
        <ele>803.6</ele>
        <time>2019-04-19T13:18:50Z</time>
      </trkpt>
      <trkpt lat="44.16028" lon="3.13052">
        <ele>803.9</ele>
        <time>2019-04-19T13:18:52Z</time>
      </trkpt>
      <trkpt lat="44.16032" lon="3.13053">
        <ele>804.2</ele>
        <time>2019-04-19T13:18:53Z</time>
      </trkpt>
      <trkpt lat="44.16035" lon="3.13054">
        <ele>804.3</ele>
        <time>2019-04-19T13:18:54Z</time>
      </trkpt>
      <trkpt lat="44.16039" lon="3.13055">
        <ele>804.5</ele>
        <time>2019-04-19T13:18:55Z</time>
      </trkpt>
      <trkpt lat="44.16042" lon="3.13056">
        <ele>804.6</ele>
        <time>2019-04-19T13:18:56Z</time>
      </trkpt>
      <trkpt lat="44.16048" lon="3.13057">
        <ele>804.8</ele>
        <time>2019-04-19T13:18:57Z</time>
      </trkpt>
      <trkpt lat="44.16053" lon="3.13058">
        <ele>804.9</ele>
        <time>2019-04-19T13:18:58Z</time>
      </trkpt>
      <trkpt lat="44.16057" lon="3.13057">
        <ele>805.1</ele>
        <time>2019-04-19T13:18:59Z</time>
      </trkpt>
      <trkpt lat="44.16059" lon="3.13053">
        <ele>805.2</ele>
        <time>2019-04-19T13:19:00Z</time>
      </trkpt>
      <trkpt lat="44.16062" lon="3.13048">
        <ele>805.4</ele>
        <time>2019-04-19T13:19:01Z</time>
      </trkpt>
      <trkpt lat="44.16064" lon="3.13043">
        <ele>805.6</ele>
        <time>2019-04-19T13:19:02Z</time>
      </trkpt>
      <trkpt lat="44.16066" lon="3.13038">
        <ele>805.8</ele>
        <time>2019-04-19T13:19:03Z</time>
      </trkpt>
      <trkpt lat="44.16067" lon="3.13033">
        <ele>805.9</ele>
        <time>2019-04-19T13:19:04Z</time>
      </trkpt>
      <trkpt lat="44.16068" lon="3.13027">
        <ele>806</ele>
        <time>2019-04-19T13:19:06Z</time>
      </trkpt>
      <trkpt lat="44.1607" lon="3.13025">
        <ele>806.1</ele>
        <time>2019-04-19T13:19:07Z</time>
      </trkpt>
      <trkpt lat="44.16073" lon="3.13023">
        <ele>806.3</ele>
        <time>2019-04-19T13:19:08Z</time>
      </trkpt>
      <trkpt lat="44.16076" lon="3.1302">
        <ele>806.5</ele>
        <time>2019-04-19T13:19:09Z</time>
      </trkpt>
      <trkpt lat="44.16079" lon="3.13018">
        <ele>806.6</ele>
        <time>2019-04-19T13:19:10Z</time>
      </trkpt>
      <trkpt lat="44.16081" lon="3.13015">
        <ele>806.7</ele>
        <time>2019-04-19T13:19:11Z</time>
      </trkpt>
      <trkpt lat="44.16084" lon="3.13011">
        <ele>806.9</ele>
        <time>2019-04-19T13:19:12Z</time>
      </trkpt>
      <trkpt lat="44.16086" lon="3.13009">
        <ele>807.1</ele>
        <time>2019-04-19T13:19:13Z</time>
      </trkpt>
      <trkpt lat="44.16088" lon="3.13006">
        <ele>807.2</ele>
        <time>2019-04-19T13:19:14Z</time>
      </trkpt>
      <trkpt lat="44.16091" lon="3.13003">
        <ele>807.5</ele>
        <time>2019-04-19T13:19:15Z</time>
      </trkpt>
      <trkpt lat="44.16094" lon="3.13">
        <ele>807.8</ele>
        <time>2019-04-19T13:19:16Z</time>
      </trkpt>
      <trkpt lat="44.16097" lon="3.12996">
        <ele>808.1</ele>
        <time>2019-04-19T13:19:17Z</time>
      </trkpt>
      <trkpt lat="44.16099" lon="3.12992">
        <ele>808.3</ele>
        <time>2019-04-19T13:19:18Z</time>
      </trkpt>
      <trkpt lat="44.16102" lon="3.12989">
        <ele>808.6</ele>
        <time>2019-04-19T13:19:20Z</time>
      </trkpt>
      <trkpt lat="44.16105" lon="3.12987">
        <ele>808.8</ele>
        <time>2019-04-19T13:19:23Z</time>
      </trkpt>
      <trkpt lat="44.16109" lon="3.12987">
        <ele>809.1</ele>
        <time>2019-04-19T13:19:30Z</time>
      </trkpt>
      <trkpt lat="44.16113" lon="3.12987">
        <ele>809.5</ele>
        <time>2019-04-19T13:19:38Z</time>
      </trkpt>
      <trkpt lat="44.16116" lon="3.12987">
        <ele>809.8</ele>
        <time>2019-04-19T13:19:40Z</time>
      </trkpt>
      <trkpt lat="44.16122" lon="3.12988">
        <ele>810.3</ele>
        <time>2019-04-19T13:19:42Z</time>
      </trkpt>
      <trkpt lat="44.16125" lon="3.12988">
        <ele>810.6</ele>
        <time>2019-04-19T13:19:43Z</time>
      </trkpt>
      <trkpt lat="44.16128" lon="3.12988">
        <ele>810.7</ele>
        <time>2019-04-19T13:19:44Z</time>
      </trkpt>
      <trkpt lat="44.16131" lon="3.12988">
        <ele>810.9</ele>
        <time>2019-04-19T13:19:45Z</time>
      </trkpt>
      <trkpt lat="44.16135" lon="3.12988">
        <ele>811.1</ele>
        <time>2019-04-19T13:19:46Z</time>
      </trkpt>
      <trkpt lat="44.16138" lon="3.12989">
        <ele>811.2</ele>
        <time>2019-04-19T13:19:47Z</time>
      </trkpt>
      <trkpt lat="44.16141" lon="3.12994">
        <ele>811.4</ele>
        <time>2019-04-19T13:19:49Z</time>
      </trkpt>
      <trkpt lat="44.16141" lon="3.12998">
        <ele>811.5</ele>
        <time>2019-04-19T13:19:50Z</time>
      </trkpt>
      <trkpt lat="44.1614" lon="3.13004">
        <ele>811.6</ele>
        <time>2019-04-19T13:19:51Z</time>
      </trkpt>
      <trkpt lat="44.16138" lon="3.13008">
        <ele>811.7</ele>
        <time>2019-04-19T13:19:52Z</time>
      </trkpt>
      <trkpt lat="44.16135" lon="3.13012">
        <ele>811.7</ele>
        <time>2019-04-19T13:19:53Z</time>
      </trkpt>
      <trkpt lat="44.16133" lon="3.13018">
        <ele>811.8</ele>
        <time>2019-04-19T13:19:54Z</time>
      </trkpt>
      <trkpt lat="44.16133" lon="3.13023">
        <ele>811.8</ele>
        <time>2019-04-19T13:19:55Z</time>
      </trkpt>
      <trkpt lat="44.16135" lon="3.13029">
        <ele>811.8</ele>
        <time>2019-04-19T13:19:56Z</time>
      </trkpt>
      <trkpt lat="44.16138" lon="3.13033">
        <ele>811.8</ele>
        <time>2019-04-19T13:19:57Z</time>
      </trkpt>
      <trkpt lat="44.1614" lon="3.13036">
        <ele>811.7</ele>
        <time>2019-04-19T13:19:58Z</time>
      </trkpt>
      <trkpt lat="44.16144" lon="3.1304">
        <ele>811.7</ele>
        <time>2019-04-19T13:20:00Z</time>
      </trkpt>
      <trkpt lat="44.16147" lon="3.13039">
        <ele>811.7</ele>
        <time>2019-04-19T13:20:02Z</time>
      </trkpt>
      <trkpt lat="44.16151" lon="3.13042">
        <ele>811.7</ele>
        <time>2019-04-19T13:20:04Z</time>
      </trkpt>
      <trkpt lat="44.16154" lon="3.13043">
        <ele>811.7</ele>
        <time>2019-04-19T13:20:05Z</time>
      </trkpt>
      <trkpt lat="44.16157" lon="3.13043">
        <ele>811.7</ele>
        <time>2019-04-19T13:20:06Z</time>
      </trkpt>
      <trkpt lat="44.1616" lon="3.13043">
        <ele>811.7</ele>
        <time>2019-04-19T13:20:07Z</time>
      </trkpt>
      <trkpt lat="44.16164" lon="3.13047">
        <ele>811.7</ele>
        <time>2019-04-19T13:20:09Z</time>
      </trkpt>
      <trkpt lat="44.16165" lon="3.1305">
        <ele>811.7</ele>
        <time>2019-04-19T13:20:10Z</time>
      </trkpt>
      <trkpt lat="44.16166" lon="3.13057">
        <ele>811.7</ele>
        <time>2019-04-19T13:20:12Z</time>
      </trkpt>
      <trkpt lat="44.16168" lon="3.13064">
        <ele>811.7</ele>
        <time>2019-04-19T13:20:13Z</time>
      </trkpt>
      <trkpt lat="44.16169" lon="3.13071">
        <ele>811.7</ele>
        <time>2019-04-19T13:20:14Z</time>
      </trkpt>
      <trkpt lat="44.16169" lon="3.13077">
        <ele>811.8</ele>
        <time>2019-04-19T13:20:15Z</time>
      </trkpt>
      <trkpt lat="44.16173" lon="3.13081">
        <ele>811.8</ele>
        <time>2019-04-19T13:20:16Z</time>
      </trkpt>
      <trkpt lat="44.16176" lon="3.13085">
        <ele>811.9</ele>
        <time>2019-04-19T13:20:17Z</time>
      </trkpt>
      <trkpt lat="44.16178" lon="3.13091">
        <ele>812</ele>
        <time>2019-04-19T13:20:18Z</time>
      </trkpt>
      <trkpt lat="44.16179" lon="3.13093">
        <ele>812</ele>
        <time>2019-04-19T13:20:19Z</time>
      </trkpt>
      <trkpt lat="44.1618" lon="3.13098">
        <ele>812.1</ele>
        <time>2019-04-19T13:20:20Z</time>
      </trkpt>
      <trkpt lat="44.16179" lon="3.13101">
        <ele>812.2</ele>
        <time>2019-04-19T13:20:21Z</time>
      </trkpt>
      <trkpt lat="44.16179" lon="3.13106">
        <ele>812.3</ele>
        <time>2019-04-19T13:20:22Z</time>
      </trkpt>
      <trkpt lat="44.16178" lon="3.13113">
        <ele>812.4</ele>
        <time>2019-04-19T13:20:23Z</time>
      </trkpt>
      <trkpt lat="44.16181" lon="3.13115">
        <ele>812.5</ele>
        <time>2019-04-19T13:20:24Z</time>
      </trkpt>
      <trkpt lat="44.16184" lon="3.13116">
        <ele>812.6</ele>
        <time>2019-04-19T13:20:25Z</time>
      </trkpt>
      <trkpt lat="44.16187" lon="3.13117">
        <ele>812.8</ele>
        <time>2019-04-19T13:20:27Z</time>
      </trkpt>
      <trkpt lat="44.1619" lon="3.13118">
        <ele>813</ele>
        <time>2019-04-19T13:20:28Z</time>
      </trkpt>
      <trkpt lat="44.16193" lon="3.13118">
        <ele>813.1</ele>
        <time>2019-04-19T13:20:29Z</time>
      </trkpt>
      <trkpt lat="44.16195" lon="3.13118">
        <ele>813.3</ele>
        <time>2019-04-19T13:20:30Z</time>
      </trkpt>
      <trkpt lat="44.16199" lon="3.13117">
        <ele>813.4</ele>
        <time>2019-04-19T13:20:32Z</time>
      </trkpt>
      <trkpt lat="44.16203" lon="3.13119">
        <ele>813.8</ele>
        <time>2019-04-19T13:20:34Z</time>
      </trkpt>
      <trkpt lat="44.16206" lon="3.13123">
        <ele>814</ele>
        <time>2019-04-19T13:20:36Z</time>
      </trkpt>
      <trkpt lat="44.16211" lon="3.13126">
        <ele>814.4</ele>
        <time>2019-04-19T13:20:38Z</time>
      </trkpt>
      <trkpt lat="44.16214" lon="3.13127">
        <ele>814.6</ele>
        <time>2019-04-19T13:20:39Z</time>
      </trkpt>
      <trkpt lat="44.16217" lon="3.13129">
        <ele>814.8</ele>
        <time>2019-04-19T13:20:40Z</time>
      </trkpt>
      <trkpt lat="44.16219" lon="3.1313">
        <ele>815</ele>
        <time>2019-04-19T13:20:41Z</time>
      </trkpt>
      <trkpt lat="44.16223" lon="3.13133">
        <ele>815.3</ele>
        <time>2019-04-19T13:20:42Z</time>
      </trkpt>
      <trkpt lat="44.16226" lon="3.13136">
        <ele>815.6</ele>
        <time>2019-04-19T13:20:43Z</time>
      </trkpt>
      <trkpt lat="44.16229" lon="3.13139">
        <ele>815.9</ele>
        <time>2019-04-19T13:20:44Z</time>
      </trkpt>
      <trkpt lat="44.16232" lon="3.13143">
        <ele>816.2</ele>
        <time>2019-04-19T13:20:45Z</time>
      </trkpt>
      <trkpt lat="44.16234" lon="3.13146">
        <ele>816.4</ele>
        <time>2019-04-19T13:20:46Z</time>
      </trkpt>
      <trkpt lat="44.16236" lon="3.13149">
        <ele>816.7</ele>
        <time>2019-04-19T13:20:47Z</time>
      </trkpt>
      <trkpt lat="44.16239" lon="3.13152">
        <ele>816.9</ele>
        <time>2019-04-19T13:20:48Z</time>
      </trkpt>
      <trkpt lat="44.16243" lon="3.13155">
        <ele>817.1</ele>
        <time>2019-04-19T13:20:49Z</time>
      </trkpt>
      <trkpt lat="44.16247" lon="3.13158">
        <ele>817.3</ele>
        <time>2019-04-19T13:20:50Z</time>
      </trkpt>
      <trkpt lat="44.16251" lon="3.13159">
        <ele>817.5</ele>
        <time>2019-04-19T13:20:51Z</time>
      </trkpt>
      <trkpt lat="44.16254" lon="3.13162">
        <ele>817.6</ele>
        <time>2019-04-19T13:20:52Z</time>
      </trkpt>
      <trkpt lat="44.16258" lon="3.13164">
        <ele>817.8</ele>
        <time>2019-04-19T13:20:53Z</time>
      </trkpt>
      <trkpt lat="44.16261" lon="3.13167">
        <ele>817.9</ele>
        <time>2019-04-19T13:20:54Z</time>
      </trkpt>
      <trkpt lat="44.16264" lon="3.13169">
        <ele>818</ele>
        <time>2019-04-19T13:20:55Z</time>
      </trkpt>
      <trkpt lat="44.16268" lon="3.13172">
        <ele>818.2</ele>
        <time>2019-04-19T13:20:56Z</time>
      </trkpt>
      <trkpt lat="44.1627" lon="3.13175">
        <ele>818.2</ele>
        <time>2019-04-19T13:20:57Z</time>
      </trkpt>
      <trkpt lat="44.16274" lon="3.13178">
        <ele>818.4</ele>
        <time>2019-04-19T13:20:59Z</time>
      </trkpt>
      <trkpt lat="44.16276" lon="3.1318">
        <ele>818.4</ele>
        <time>2019-04-19T13:21:00Z</time>
      </trkpt>
      <trkpt lat="44.16281" lon="3.13183">
        <ele>818.6</ele>
        <time>2019-04-19T13:21:02Z</time>
      </trkpt>
      <trkpt lat="44.16286" lon="3.13187">
        <ele>818.7</ele>
        <time>2019-04-19T13:21:04Z</time>
      </trkpt>
      <trkpt lat="44.16288" lon="3.13192">
        <ele>818.9</ele>
        <time>2019-04-19T13:21:06Z</time>
      </trkpt>
      <trkpt lat="44.1629" lon="3.13195">
        <ele>819.1</ele>
        <time>2019-04-19T13:21:09Z</time>
      </trkpt>
      <trkpt lat="44.16294" lon="3.13197">
        <ele>819.3</ele>
        <time>2019-04-19T13:21:11Z</time>
      </trkpt>
      <trkpt lat="44.16299" lon="3.13201">
        <ele>819.6</ele>
        <time>2019-04-19T13:21:13Z</time>
      </trkpt>
      <trkpt lat="44.16302" lon="3.13204">
        <ele>819.7</ele>
        <time>2019-04-19T13:21:14Z</time>
      </trkpt>
      <trkpt lat="44.16305" lon="3.13207">
        <ele>819.8</ele>
        <time>2019-04-19T13:21:15Z</time>
      </trkpt>
      <trkpt lat="44.16309" lon="3.1321">
        <ele>819.9</ele>
        <time>2019-04-19T13:21:16Z</time>
      </trkpt>
      <trkpt lat="44.16313" lon="3.13212">
        <ele>820</ele>
        <time>2019-04-19T13:21:17Z</time>
      </trkpt>
      <trkpt lat="44.16316" lon="3.13213">
        <ele>820</ele>
        <time>2019-04-19T13:21:18Z</time>
      </trkpt>
      <trkpt lat="44.1632" lon="3.13215">
        <ele>820.1</ele>
        <time>2019-04-19T13:21:19Z</time>
      </trkpt>
      <trkpt lat="44.16324" lon="3.1322">
        <ele>820.2</ele>
        <time>2019-04-19T13:21:21Z</time>
      </trkpt>
      <trkpt lat="44.16327" lon="3.13223">
        <ele>820.2</ele>
        <time>2019-04-19T13:21:22Z</time>
      </trkpt>
      <trkpt lat="44.16339" lon="3.13229">
        <ele>820.2</ele>
        <time>2019-04-19T13:21:23Z</time>
      </trkpt>
      <trkpt lat="44.16345" lon="3.13232">
        <ele>820.2</ele>
        <time>2019-04-19T13:21:24Z</time>
      </trkpt>
      <trkpt lat="44.16352" lon="3.13236">
        <ele>820.1</ele>
        <time>2019-04-19T13:21:25Z</time>
      </trkpt>
      <trkpt lat="44.16356" lon="3.1324">
        <ele>820</ele>
        <time>2019-04-19T13:21:26Z</time>
      </trkpt>
      <trkpt lat="44.16359" lon="3.13243">
        <ele>819.9</ele>
        <time>2019-04-19T13:21:27Z</time>
      </trkpt>
      <trkpt lat="44.16366" lon="3.13248">
        <ele>819.7</ele>
        <time>2019-04-19T13:21:28Z</time>
      </trkpt>
      <trkpt lat="44.16371" lon="3.13253">
        <ele>819.5</ele>
        <time>2019-04-19T13:21:29Z</time>
      </trkpt>
      <trkpt lat="44.16378" lon="3.13256">
        <ele>819.3</ele>
        <time>2019-04-19T13:21:30Z</time>
      </trkpt>
      <trkpt lat="44.16382" lon="3.13252">
        <ele>819</ele>
        <time>2019-04-19T13:21:31Z</time>
      </trkpt>
      <trkpt lat="44.16386" lon="3.13253">
        <ele>818.7</ele>
        <time>2019-04-19T13:21:32Z</time>
      </trkpt>
      <trkpt lat="44.16391" lon="3.13253">
        <ele>818.5</ele>
        <time>2019-04-19T13:21:33Z</time>
      </trkpt>
      <trkpt lat="44.16395" lon="3.13257">
        <ele>818.3</ele>
        <time>2019-04-19T13:21:34Z</time>
      </trkpt>
      <trkpt lat="44.16398" lon="3.1326">
        <ele>818.2</ele>
        <time>2019-04-19T13:21:35Z</time>
      </trkpt>
      <trkpt lat="44.16405" lon="3.13265">
        <ele>817.9</ele>
        <time>2019-04-19T13:21:36Z</time>
      </trkpt>
      <trkpt lat="44.16409" lon="3.13269">
        <ele>817.6</ele>
        <time>2019-04-19T13:21:37Z</time>
      </trkpt>
      <trkpt lat="44.16413" lon="3.13271">
        <ele>817.3</ele>
        <time>2019-04-19T13:21:38Z</time>
      </trkpt>
      <trkpt lat="44.16418" lon="3.13271">
        <ele>817.1</ele>
        <time>2019-04-19T13:21:39Z</time>
      </trkpt>
      <trkpt lat="44.16421" lon="3.13271">
        <ele>817</ele>
        <time>2019-04-19T13:21:40Z</time>
      </trkpt>
      <trkpt lat="44.16425" lon="3.13278">
        <ele>816.8</ele>
        <time>2019-04-19T13:21:41Z</time>
      </trkpt>
      <trkpt lat="44.1643" lon="3.13281">
        <ele>816.7</ele>
        <time>2019-04-19T13:21:42Z</time>
      </trkpt>
      <trkpt lat="44.16434" lon="3.13284">
        <ele>816.6</ele>
        <time>2019-04-19T13:21:43Z</time>
      </trkpt>
      <trkpt lat="44.1644" lon="3.13286">
        <ele>816.6</ele>
        <time>2019-04-19T13:21:44Z</time>
      </trkpt>
      <trkpt lat="44.16443" lon="3.13291">
        <ele>816.6</ele>
        <time>2019-04-19T13:21:45Z</time>
      </trkpt>
      <trkpt lat="44.16449" lon="3.13293">
        <ele>816.6</ele>
        <time>2019-04-19T13:21:46Z</time>
      </trkpt>
      <trkpt lat="44.16456" lon="3.13294">
        <ele>816.6</ele>
        <time>2019-04-19T13:21:47Z</time>
      </trkpt>
      <trkpt lat="44.16463" lon="3.13296">
        <ele>816.5</ele>
        <time>2019-04-19T13:21:48Z</time>
      </trkpt>
      <trkpt lat="44.16473" lon="3.13296">
        <ele>816.3</ele>
        <time>2019-04-19T13:21:49Z</time>
      </trkpt>
      <trkpt lat="44.16478" lon="3.133">
        <ele>816.2</ele>
        <time>2019-04-19T13:21:50Z</time>
      </trkpt>
      <trkpt lat="44.16485" lon="3.13304">
        <ele>816.1</ele>
        <time>2019-04-19T13:21:51Z</time>
      </trkpt>
      <trkpt lat="44.16495" lon="3.13305">
        <ele>815.9</ele>
        <time>2019-04-19T13:21:52Z</time>
      </trkpt>
      <trkpt lat="44.16503" lon="3.13305">
        <ele>815.7</ele>
        <time>2019-04-19T13:21:53Z</time>
      </trkpt>
      <trkpt lat="44.16509" lon="3.13304">
        <ele>815.5</ele>
        <time>2019-04-19T13:21:54Z</time>
      </trkpt>
      <trkpt lat="44.16517" lon="3.13304">
        <ele>815.4</ele>
        <time>2019-04-19T13:21:55Z</time>
      </trkpt>
      <trkpt lat="44.1652" lon="3.13308">
        <ele>815.3</ele>
        <time>2019-04-19T13:21:56Z</time>
      </trkpt>
      <trkpt lat="44.16525" lon="3.13312">
        <ele>815.2</ele>
        <time>2019-04-19T13:21:57Z</time>
      </trkpt>
      <trkpt lat="44.16528" lon="3.13316">
        <ele>815.1</ele>
        <time>2019-04-19T13:21:58Z</time>
      </trkpt>
      <trkpt lat="44.1653" lon="3.13324">
        <ele>815.1</ele>
        <time>2019-04-19T13:21:59Z</time>
      </trkpt>
      <trkpt lat="44.16532" lon="3.13331">
        <ele>815.2</ele>
        <time>2019-04-19T13:22:00Z</time>
      </trkpt>
      <trkpt lat="44.16537" lon="3.13334">
        <ele>815.2</ele>
        <time>2019-04-19T13:22:02Z</time>
      </trkpt>
      <trkpt lat="44.16543" lon="3.13335">
        <ele>815.3</ele>
        <time>2019-04-19T13:22:03Z</time>
      </trkpt>
      <trkpt lat="44.16549" lon="3.13338">
        <ele>815.3</ele>
        <time>2019-04-19T13:22:05Z</time>
      </trkpt>
      <trkpt lat="44.16551" lon="3.13343">
        <ele>815.4</ele>
        <time>2019-04-19T13:22:06Z</time>
      </trkpt>
      <trkpt lat="44.16554" lon="3.13346">
        <ele>815.5</ele>
        <time>2019-04-19T13:22:07Z</time>
      </trkpt>
      <trkpt lat="44.16557" lon="3.13347">
        <ele>815.5</ele>
        <time>2019-04-19T13:22:08Z</time>
      </trkpt>
      <trkpt lat="44.1656" lon="3.13347">
        <ele>815.6</ele>
        <time>2019-04-19T13:22:09Z</time>
      </trkpt>
      <trkpt lat="44.16564" lon="3.1335">
        <ele>815.7</ele>
        <time>2019-04-19T13:22:10Z</time>
      </trkpt>
      <trkpt lat="44.16567" lon="3.13351">
        <ele>815.7</ele>
        <time>2019-04-19T13:22:11Z</time>
      </trkpt>
      <trkpt lat="44.16571" lon="3.13356">
        <ele>815.8</ele>
        <time>2019-04-19T13:22:13Z</time>
      </trkpt>
      <trkpt lat="44.16573" lon="3.1336">
        <ele>815.9</ele>
        <time>2019-04-19T13:22:14Z</time>
      </trkpt>
      <trkpt lat="44.16575" lon="3.13365">
        <ele>815.9</ele>
        <time>2019-04-19T13:22:15Z</time>
      </trkpt>
      <trkpt lat="44.16577" lon="3.13369">
        <ele>815.9</ele>
        <time>2019-04-19T13:22:16Z</time>
      </trkpt>
      <trkpt lat="44.1658" lon="3.13373">
        <ele>815.9</ele>
        <time>2019-04-19T13:22:17Z</time>
      </trkpt>
      <trkpt lat="44.16583" lon="3.13376">
        <ele>815.9</ele>
        <time>2019-04-19T13:22:18Z</time>
      </trkpt>
      <trkpt lat="44.16586" lon="3.13378">
        <ele>815.9</ele>
        <time>2019-04-19T13:22:19Z</time>
      </trkpt>
      <trkpt lat="44.16589" lon="3.1338">
        <ele>815.9</ele>
        <time>2019-04-19T13:22:20Z</time>
      </trkpt>
      <trkpt lat="44.16593" lon="3.13381">
        <ele>816</ele>
        <time>2019-04-19T13:22:21Z</time>
      </trkpt>
      <trkpt lat="44.16596" lon="3.13381">
        <ele>816</ele>
        <time>2019-04-19T13:22:22Z</time>
      </trkpt>
      <trkpt lat="44.16601" lon="3.13382">
        <ele>816</ele>
        <time>2019-04-19T13:22:24Z</time>
      </trkpt>
      <trkpt lat="44.16606" lon="3.13381">
        <ele>816</ele>
        <time>2019-04-19T13:22:26Z</time>
      </trkpt>
      <trkpt lat="44.16608" lon="3.13381">
        <ele>816.1</ele>
        <time>2019-04-19T13:22:27Z</time>
      </trkpt>
      <trkpt lat="44.16611" lon="3.13382">
        <ele>816.2</ele>
        <time>2019-04-19T13:22:28Z</time>
      </trkpt>
      <trkpt lat="44.16614" lon="3.13384">
        <ele>816.3</ele>
        <time>2019-04-19T13:22:29Z</time>
      </trkpt>
      <trkpt lat="44.16617" lon="3.13386">
        <ele>816.5</ele>
        <time>2019-04-19T13:22:30Z</time>
      </trkpt>
      <trkpt lat="44.1662" lon="3.13388">
        <ele>816.6</ele>
        <time>2019-04-19T13:22:31Z</time>
      </trkpt>
      <trkpt lat="44.16624" lon="3.13391">
        <ele>816.8</ele>
        <time>2019-04-19T13:22:33Z</time>
      </trkpt>
      <trkpt lat="44.16626" lon="3.13395">
        <ele>817</ele>
        <time>2019-04-19T13:22:35Z</time>
      </trkpt>
      <trkpt lat="44.16629" lon="3.13397">
        <ele>817.2</ele>
        <time>2019-04-19T13:22:38Z</time>
      </trkpt>
      <trkpt lat="44.16634" lon="3.13397">
        <ele>817.5</ele>
        <time>2019-04-19T13:22:41Z</time>
      </trkpt>
      <trkpt lat="44.16639" lon="3.13398">
        <ele>817.8</ele>
        <time>2019-04-19T13:22:43Z</time>
      </trkpt>
      <trkpt lat="44.16644" lon="3.13398">
        <ele>818</ele>
        <time>2019-04-19T13:22:45Z</time>
      </trkpt>
      <trkpt lat="44.16649" lon="3.13399">
        <ele>818.2</ele>
        <time>2019-04-19T13:22:47Z</time>
      </trkpt>
      <trkpt lat="44.16653" lon="3.13403">
        <ele>818.3</ele>
        <time>2019-04-19T13:22:49Z</time>
      </trkpt>
      <trkpt lat="44.16656" lon="3.13405">
        <ele>818.5</ele>
        <time>2019-04-19T13:22:51Z</time>
      </trkpt>
      <trkpt lat="44.16661" lon="3.13407">
        <ele>818.7</ele>
        <time>2019-04-19T13:22:53Z</time>
      </trkpt>
      <trkpt lat="44.16663" lon="3.13412">
        <ele>818.8</ele>
        <time>2019-04-19T13:22:55Z</time>
      </trkpt>
      <trkpt lat="44.16666" lon="3.13414">
        <ele>818.8</ele>
        <time>2019-04-19T13:22:58Z</time>
      </trkpt>
      <trkpt lat="44.1667" lon="3.13414">
        <ele>818.9</ele>
        <time>2019-04-19T13:23:00Z</time>
      </trkpt>
      <trkpt lat="44.16673" lon="3.13415">
        <ele>818.9</ele>
        <time>2019-04-19T13:23:01Z</time>
      </trkpt>
      <trkpt lat="44.16676" lon="3.13417">
        <ele>819</ele>
        <time>2019-04-19T13:23:02Z</time>
      </trkpt>
      <trkpt lat="44.16678" lon="3.1342">
        <ele>819</ele>
        <time>2019-04-19T13:23:03Z</time>
      </trkpt>
      <trkpt lat="44.16681" lon="3.13424">
        <ele>819.1</ele>
        <time>2019-04-19T13:23:04Z</time>
      </trkpt>
      <trkpt lat="44.16683" lon="3.13427">
        <ele>819.1</ele>
        <time>2019-04-19T13:23:05Z</time>
      </trkpt>
      <trkpt lat="44.16685" lon="3.1343">
        <ele>819.2</ele>
        <time>2019-04-19T13:23:06Z</time>
      </trkpt>
      <trkpt lat="44.16688" lon="3.13432">
        <ele>819.2</ele>
        <time>2019-04-19T13:23:07Z</time>
      </trkpt>
      <trkpt lat="44.16691" lon="3.13434">
        <ele>819.2</ele>
        <time>2019-04-19T13:23:08Z</time>
      </trkpt>
      <trkpt lat="44.16694" lon="3.13436">
        <ele>819.2</ele>
        <time>2019-04-19T13:23:09Z</time>
      </trkpt>
      <trkpt lat="44.16696" lon="3.13437">
        <ele>819.2</ele>
        <time>2019-04-19T13:23:10Z</time>
      </trkpt>
      <trkpt lat="44.167" lon="3.1344">
        <ele>819.2</ele>
        <time>2019-04-19T13:23:12Z</time>
      </trkpt>
      <trkpt lat="44.16703" lon="3.13445">
        <ele>819.2</ele>
        <time>2019-04-19T13:23:14Z</time>
      </trkpt>
      <trkpt lat="44.16704" lon="3.13449">
        <ele>819.2</ele>
        <time>2019-04-19T13:23:15Z</time>
      </trkpt>
      <trkpt lat="44.16707" lon="3.13456">
        <ele>819.2</ele>
        <time>2019-04-19T13:23:17Z</time>
      </trkpt>
      <trkpt lat="44.16709" lon="3.1346">
        <ele>819.1</ele>
        <time>2019-04-19T13:23:18Z</time>
      </trkpt>
      <trkpt lat="44.16711" lon="3.13465">
        <ele>819</ele>
        <time>2019-04-19T13:23:19Z</time>
      </trkpt>
      <trkpt lat="44.16713" lon="3.13471">
        <ele>819</ele>
        <time>2019-04-19T13:23:20Z</time>
      </trkpt>
      <trkpt lat="44.16716" lon="3.13475">
        <ele>818.8</ele>
        <time>2019-04-19T13:23:21Z</time>
      </trkpt>
      <trkpt lat="44.16719" lon="3.13479">
        <ele>818.7</ele>
        <time>2019-04-19T13:23:22Z</time>
      </trkpt>
      <trkpt lat="44.16726" lon="3.13486">
        <ele>818.5</ele>
        <time>2019-04-19T13:23:23Z</time>
      </trkpt>
      <trkpt lat="44.16729" lon="3.13493">
        <ele>818.3</ele>
        <time>2019-04-19T13:23:24Z</time>
      </trkpt>
      <trkpt lat="44.16732" lon="3.13501">
        <ele>817.8</ele>
        <time>2019-04-19T13:23:25Z</time>
      </trkpt>
      <trkpt lat="44.16735" lon="3.13508">
        <ele>817.4</ele>
        <time>2019-04-19T13:23:26Z</time>
      </trkpt>
      <trkpt lat="44.16737" lon="3.13514">
        <ele>817</ele>
        <time>2019-04-19T13:23:27Z</time>
      </trkpt>
      <trkpt lat="44.1674" lon="3.13518">
        <ele>816.7</ele>
        <time>2019-04-19T13:23:28Z</time>
      </trkpt>
      <trkpt lat="44.16742" lon="3.13523">
        <ele>816.4</ele>
        <time>2019-04-19T13:23:29Z</time>
      </trkpt>
      <trkpt lat="44.16744" lon="3.13523">
        <ele>816.2</ele>
        <time>2019-04-19T13:23:31Z</time>
      </trkpt>
      <trkpt lat="44.16749" lon="3.13523">
        <ele>815.8</ele>
        <time>2019-04-19T13:23:33Z</time>
      </trkpt>
      <trkpt lat="44.16752" lon="3.13525">
        <ele>815.6</ele>
        <time>2019-04-19T13:23:35Z</time>
      </trkpt>
      <trkpt lat="44.16755" lon="3.13524">
        <ele>815.4</ele>
        <time>2019-04-19T13:23:36Z</time>
      </trkpt>
      <trkpt lat="44.16758" lon="3.13523">
        <ele>815.2</ele>
        <time>2019-04-19T13:23:37Z</time>
      </trkpt>
      <trkpt lat="44.16762" lon="3.13524">
        <ele>814.8</ele>
        <time>2019-04-19T13:23:38Z</time>
      </trkpt>
      <trkpt lat="44.16767" lon="3.13525">
        <ele>814.7</ele>
        <time>2019-04-19T13:23:40Z</time>
      </trkpt>
      <trkpt lat="44.1677" lon="3.13526">
        <ele>814.7</ele>
        <time>2019-04-19T13:23:41Z</time>
      </trkpt>
      <trkpt lat="44.16774" lon="3.13528">
        <ele>814.6</ele>
        <time>2019-04-19T13:23:42Z</time>
      </trkpt>
      <trkpt lat="44.16778" lon="3.1353">
        <ele>814.5</ele>
        <time>2019-04-19T13:23:43Z</time>
      </trkpt>
      <trkpt lat="44.16782" lon="3.13533">
        <ele>814.4</ele>
        <time>2019-04-19T13:23:44Z</time>
      </trkpt>
      <trkpt lat="44.16786" lon="3.13535">
        <ele>814.2</ele>
        <time>2019-04-19T13:23:45Z</time>
      </trkpt>
      <trkpt lat="44.16791" lon="3.13539">
        <ele>814.1</ele>
        <time>2019-04-19T13:23:46Z</time>
      </trkpt>
      <trkpt lat="44.16795" lon="3.13542">
        <ele>814</ele>
        <time>2019-04-19T13:23:47Z</time>
      </trkpt>
      <trkpt lat="44.16801" lon="3.1355">
        <ele>813.7</ele>
        <time>2019-04-19T13:23:48Z</time>
      </trkpt>
      <trkpt lat="44.16804" lon="3.13556">
        <ele>813.5</ele>
        <time>2019-04-19T13:23:49Z</time>
      </trkpt>
      <trkpt lat="44.16805" lon="3.13563">
        <ele>813.4</ele>
        <time>2019-04-19T13:23:50Z</time>
      </trkpt>
      <trkpt lat="44.16807" lon="3.13567">
        <ele>813.2</ele>
        <time>2019-04-19T13:23:51Z</time>
      </trkpt>
      <trkpt lat="44.16809" lon="3.13574">
        <ele>813</ele>
        <time>2019-04-19T13:23:52Z</time>
      </trkpt>
      <trkpt lat="44.16811" lon="3.13578">
        <ele>812.9</ele>
        <time>2019-04-19T13:23:53Z</time>
      </trkpt>
      <trkpt lat="44.16811" lon="3.13582">
        <ele>812.8</ele>
        <time>2019-04-19T13:23:54Z</time>
      </trkpt>
      <trkpt lat="44.16812" lon="3.13586">
        <ele>812.7</ele>
        <time>2019-04-19T13:23:55Z</time>
      </trkpt>
      <trkpt lat="44.16812" lon="3.1359">
        <ele>812.6</ele>
        <time>2019-04-19T13:23:56Z</time>
      </trkpt>
      <trkpt lat="44.16815" lon="3.13594">
        <ele>812.5</ele>
        <time>2019-04-19T13:23:58Z</time>
      </trkpt>
      <trkpt lat="44.16813" lon="3.13598">
        <ele>812.4</ele>
        <time>2019-04-19T13:24:00Z</time>
      </trkpt>
      <trkpt lat="44.16813" lon="3.13602">
        <ele>812.3</ele>
        <time>2019-04-19T13:24:02Z</time>
      </trkpt>
      <trkpt lat="44.16815" lon="3.13604">
        <ele>812.2</ele>
        <time>2019-04-19T13:24:04Z</time>
      </trkpt>
      <trkpt lat="44.1682" lon="3.13606">
        <ele>812.1</ele>
        <time>2019-04-19T13:24:06Z</time>
      </trkpt>
      <trkpt lat="44.16825" lon="3.13609">
        <ele>811.9</ele>
        <time>2019-04-19T13:24:08Z</time>
      </trkpt>
      <trkpt lat="44.16827" lon="3.13612">
        <ele>811.9</ele>
        <time>2019-04-19T13:24:09Z</time>
      </trkpt>
      <trkpt lat="44.16828" lon="3.13616">
        <ele>811.8</ele>
        <time>2019-04-19T13:24:10Z</time>
      </trkpt>
      <trkpt lat="44.16831" lon="3.1362">
        <ele>811.6</ele>
        <time>2019-04-19T13:24:11Z</time>
      </trkpt>
      <trkpt lat="44.16834" lon="3.13624">
        <ele>811.5</ele>
        <time>2019-04-19T13:24:12Z</time>
      </trkpt>
      <trkpt lat="44.16837" lon="3.13627">
        <ele>811.4</ele>
        <time>2019-04-19T13:24:13Z</time>
      </trkpt>
      <trkpt lat="44.1684" lon="3.1363">
        <ele>811.3</ele>
        <time>2019-04-19T13:24:14Z</time>
      </trkpt>
      <trkpt lat="44.16844" lon="3.13632">
        <ele>811.2</ele>
        <time>2019-04-19T13:24:15Z</time>
      </trkpt>
      <trkpt lat="44.16847" lon="3.13635">
        <ele>811.1</ele>
        <time>2019-04-19T13:24:16Z</time>
      </trkpt>
      <trkpt lat="44.1685" lon="3.13638">
        <ele>811</ele>
        <time>2019-04-19T13:24:17Z</time>
      </trkpt>
      <trkpt lat="44.16853" lon="3.13642">
        <ele>810.9</ele>
        <time>2019-04-19T13:24:18Z</time>
      </trkpt>
      <trkpt lat="44.16855" lon="3.13645">
        <ele>810.8</ele>
        <time>2019-04-19T13:24:19Z</time>
      </trkpt>
      <trkpt lat="44.16858" lon="3.13647">
        <ele>810.8</ele>
        <time>2019-04-19T13:24:20Z</time>
      </trkpt>
      <trkpt lat="44.16862" lon="3.13648">
        <ele>810.7</ele>
        <time>2019-04-19T13:24:22Z</time>
      </trkpt>
      <trkpt lat="44.16865" lon="3.13648">
        <ele>810.6</ele>
        <time>2019-04-19T13:24:24Z</time>
      </trkpt>
      <trkpt lat="44.16869" lon="3.13652">
        <ele>810.5</ele>
        <time>2019-04-19T13:24:26Z</time>
      </trkpt>
      <trkpt lat="44.16874" lon="3.13655">
        <ele>810.4</ele>
        <time>2019-04-19T13:24:28Z</time>
      </trkpt>
      <trkpt lat="44.16877" lon="3.13655">
        <ele>810.3</ele>
        <time>2019-04-19T13:24:29Z</time>
      </trkpt>
      <trkpt lat="44.1688" lon="3.13656">
        <ele>810.2</ele>
        <time>2019-04-19T13:24:30Z</time>
      </trkpt>
      <trkpt lat="44.16883" lon="3.13657">
        <ele>810.1</ele>
        <time>2019-04-19T13:24:31Z</time>
      </trkpt>
      <trkpt lat="44.16886" lon="3.13658">
        <ele>810</ele>
        <time>2019-04-19T13:24:32Z</time>
      </trkpt>
      <trkpt lat="44.1689" lon="3.13659">
        <ele>809.9</ele>
        <time>2019-04-19T13:24:33Z</time>
      </trkpt>
      <trkpt lat="44.16894" lon="3.1366">
        <ele>809.8</ele>
        <time>2019-04-19T13:24:34Z</time>
      </trkpt>
      <trkpt lat="44.16897" lon="3.13663">
        <ele>809.7</ele>
        <time>2019-04-19T13:24:35Z</time>
      </trkpt>
      <trkpt lat="44.169" lon="3.13667">
        <ele>809.6</ele>
        <time>2019-04-19T13:24:36Z</time>
      </trkpt>
      <trkpt lat="44.16902" lon="3.1367">
        <ele>809.5</ele>
        <time>2019-04-19T13:24:37Z</time>
      </trkpt>
      <trkpt lat="44.16903" lon="3.13677">
        <ele>809.4</ele>
        <time>2019-04-19T13:24:39Z</time>
      </trkpt>
      <trkpt lat="44.16904" lon="3.13682">
        <ele>809.3</ele>
        <time>2019-04-19T13:24:40Z</time>
      </trkpt>
      <trkpt lat="44.16905" lon="3.13688">
        <ele>809.1</ele>
        <time>2019-04-19T13:24:41Z</time>
      </trkpt>
      <trkpt lat="44.16908" lon="3.13694">
        <ele>808.9</ele>
        <time>2019-04-19T13:24:42Z</time>
      </trkpt>
      <trkpt lat="44.1691" lon="3.137">
        <ele>808.7</ele>
        <time>2019-04-19T13:24:43Z</time>
      </trkpt>
      <trkpt lat="44.16914" lon="3.13704">
        <ele>808.6</ele>
        <time>2019-04-19T13:24:44Z</time>
      </trkpt>
      <trkpt lat="44.16919" lon="3.13709">
        <ele>808.4</ele>
        <time>2019-04-19T13:24:45Z</time>
      </trkpt>
      <trkpt lat="44.16923" lon="3.13714">
        <ele>808.2</ele>
        <time>2019-04-19T13:24:46Z</time>
      </trkpt>
      <trkpt lat="44.16926" lon="3.13718">
        <ele>808</ele>
        <time>2019-04-19T13:24:47Z</time>
      </trkpt>
      <trkpt lat="44.16929" lon="3.13721">
        <ele>807.9</ele>
        <time>2019-04-19T13:24:48Z</time>
      </trkpt>
      <trkpt lat="44.16932" lon="3.13727">
        <ele>807.7</ele>
        <time>2019-04-19T13:24:49Z</time>
      </trkpt>
      <trkpt lat="44.1694" lon="3.13752">
        <ele>807.2</ele>
        <time>2019-04-19T13:24:51Z</time>
      </trkpt>
      <trkpt lat="44.16939" lon="3.13757">
        <ele>807.1</ele>
        <time>2019-04-19T13:24:52Z</time>
      </trkpt>
      <trkpt lat="44.16937" lon="3.13763">
        <ele>807</ele>
        <time>2019-04-19T13:24:53Z</time>
      </trkpt>
      <trkpt lat="44.16938" lon="3.13769">
        <ele>806.9</ele>
        <time>2019-04-19T13:24:55Z</time>
      </trkpt>
      <trkpt lat="44.16943" lon="3.13771">
        <ele>806.8</ele>
        <time>2019-04-19T13:24:56Z</time>
      </trkpt>
      <trkpt lat="44.16943" lon="3.13798">
        <ele>806.3</ele>
        <time>2019-04-19T13:24:59Z</time>
      </trkpt>
      <trkpt lat="44.16944" lon="3.13807">
        <ele>806.1</ele>
        <time>2019-04-19T13:25:00Z</time>
      </trkpt>
      <trkpt lat="44.16941" lon="3.13809">
        <ele>806</ele>
        <time>2019-04-19T13:25:03Z</time>
      </trkpt>
      <trkpt lat="44.16938" lon="3.13809">
        <ele>805.8</ele>
        <time>2019-04-19T13:25:07Z</time>
      </trkpt>
      <trkpt lat="44.16934" lon="3.13807">
        <ele>805.6</ele>
        <time>2019-04-19T13:25:09Z</time>
      </trkpt>
      <trkpt lat="44.16924" lon="3.13816">
        <ele>806.9</ele>
        <time>2019-04-19T13:27:05Z</time>
      </trkpt>
      <trkpt lat="44.1692" lon="3.13818">
        <ele>807.3</ele>
        <time>2019-04-19T13:27:07Z</time>
      </trkpt>
      <trkpt lat="44.16916" lon="3.13818">
        <ele>807.8</ele>
        <time>2019-04-19T13:27:08Z</time>
      </trkpt>
      <trkpt lat="44.16911" lon="3.13818">
        <ele>808.2</ele>
        <time>2019-04-19T13:27:09Z</time>
      </trkpt>
      <trkpt lat="44.16907" lon="3.13817">
        <ele>808.4</ele>
        <time>2019-04-19T13:27:10Z</time>
      </trkpt>
      <trkpt lat="44.16903" lon="3.13816">
        <ele>808.5</ele>
        <time>2019-04-19T13:27:12Z</time>
      </trkpt>
      <trkpt lat="44.169" lon="3.13814">
        <ele>808.7</ele>
        <time>2019-04-19T13:27:13Z</time>
      </trkpt>
      <trkpt lat="44.16897" lon="3.13812">
        <ele>808.8</ele>
        <time>2019-04-19T13:27:14Z</time>
      </trkpt>
      <trkpt lat="44.16892" lon="3.13811">
        <ele>809</ele>
        <time>2019-04-19T13:27:16Z</time>
      </trkpt>
      <trkpt lat="44.16887" lon="3.13809">
        <ele>809.3</ele>
        <time>2019-04-19T13:27:18Z</time>
      </trkpt>
      <trkpt lat="44.16883" lon="3.13808">
        <ele>809.6</ele>
        <time>2019-04-19T13:27:19Z</time>
      </trkpt>
      <trkpt lat="44.16881" lon="3.13806">
        <ele>809.9</ele>
        <time>2019-04-19T13:27:20Z</time>
      </trkpt>
      <trkpt lat="44.16878" lon="3.13805">
        <ele>810.2</ele>
        <time>2019-04-19T13:27:21Z</time>
      </trkpt>
      <trkpt lat="44.16875" lon="3.13804">
        <ele>810.3</ele>
        <time>2019-04-19T13:27:22Z</time>
      </trkpt>
      <trkpt lat="44.1687" lon="3.13802">
        <ele>810.3</ele>
        <time>2019-04-19T13:27:24Z</time>
      </trkpt>
      <trkpt lat="44.16866" lon="3.13801">
        <ele>810.4</ele>
        <time>2019-04-19T13:27:26Z</time>
      </trkpt>
      <trkpt lat="44.16862" lon="3.138">
        <ele>810.4</ele>
        <time>2019-04-19T13:27:28Z</time>
      </trkpt>
      <trkpt lat="44.16857" lon="3.13798">
        <ele>810.5</ele>
        <time>2019-04-19T13:27:30Z</time>
      </trkpt>
      <trkpt lat="44.16853" lon="3.13799">
        <ele>810.5</ele>
        <time>2019-04-19T13:27:32Z</time>
      </trkpt>
      <trkpt lat="44.16849" lon="3.13798">
        <ele>810.6</ele>
        <time>2019-04-19T13:27:34Z</time>
      </trkpt>
      <trkpt lat="44.16845" lon="3.13796">
        <ele>810.9</ele>
        <time>2019-04-19T13:27:35Z</time>
      </trkpt>
      <trkpt lat="44.16842" lon="3.13795">
        <ele>811.3</ele>
        <time>2019-04-19T13:27:36Z</time>
      </trkpt>
      <trkpt lat="44.16839" lon="3.13794">
        <ele>811.5</ele>
        <time>2019-04-19T13:27:37Z</time>
      </trkpt>
      <trkpt lat="44.16835" lon="3.13792">
        <ele>811.7</ele>
        <time>2019-04-19T13:27:39Z</time>
      </trkpt>
      <trkpt lat="44.16831" lon="3.1379">
        <ele>811.9</ele>
        <time>2019-04-19T13:27:41Z</time>
      </trkpt>
      <trkpt lat="44.16828" lon="3.13791">
        <ele>812.1</ele>
        <time>2019-04-19T13:27:43Z</time>
      </trkpt>
      <trkpt lat="44.16824" lon="3.13793">
        <ele>812.3</ele>
        <time>2019-04-19T13:27:45Z</time>
      </trkpt>
      <trkpt lat="44.1682" lon="3.13795">
        <ele>812.5</ele>
        <time>2019-04-19T13:27:47Z</time>
      </trkpt>
      <trkpt lat="44.16817" lon="3.13795">
        <ele>812.6</ele>
        <time>2019-04-19T13:27:48Z</time>
      </trkpt>
      <trkpt lat="44.16814" lon="3.13794">
        <ele>812.8</ele>
        <time>2019-04-19T13:27:52Z</time>
      </trkpt>
      <trkpt lat="44.1681" lon="3.13796">
        <ele>813</ele>
        <time>2019-04-19T13:28:22Z</time>
      </trkpt>
      <trkpt lat="44.16806" lon="3.13794">
        <ele>813.2</ele>
        <time>2019-04-19T13:28:25Z</time>
      </trkpt>
      <trkpt lat="44.16803" lon="3.13794">
        <ele>813.4</ele>
        <time>2019-04-19T13:28:26Z</time>
      </trkpt>
      <trkpt lat="44.16799" lon="3.13795">
        <ele>813.6</ele>
        <time>2019-04-19T13:28:27Z</time>
      </trkpt>
      <trkpt lat="44.16796" lon="3.13795">
        <ele>813.8</ele>
        <time>2019-04-19T13:28:28Z</time>
      </trkpt>
      <trkpt lat="44.16792" lon="3.13794">
        <ele>813.9</ele>
        <time>2019-04-19T13:28:29Z</time>
      </trkpt>
      <trkpt lat="44.16788" lon="3.13795">
        <ele>814.1</ele>
        <time>2019-04-19T13:28:30Z</time>
      </trkpt>
      <trkpt lat="44.16785" lon="3.13796">
        <ele>813.9</ele>
        <time>2019-04-19T13:28:31Z</time>
      </trkpt>
      <trkpt lat="44.16782" lon="3.13798">
        <ele>813.7</ele>
        <time>2019-04-19T13:28:32Z</time>
      </trkpt>
      <trkpt lat="44.16779" lon="3.13798">
        <ele>813.6</ele>
        <time>2019-04-19T13:28:33Z</time>
      </trkpt>
      <trkpt lat="44.16775" lon="3.13797">
        <ele>814</ele>
        <time>2019-04-19T13:28:35Z</time>
      </trkpt>
      <trkpt lat="44.16771" lon="3.13795">
        <ele>814.4</ele>
        <time>2019-04-19T13:28:37Z</time>
      </trkpt>
      <trkpt lat="44.16766" lon="3.13797">
        <ele>814.7</ele>
        <time>2019-04-19T13:28:39Z</time>
      </trkpt>
      <trkpt lat="44.16765" lon="3.138">
        <ele>814.8</ele>
        <time>2019-04-19T13:28:40Z</time>
      </trkpt>
      <trkpt lat="44.16763" lon="3.13804">
        <ele>815.2</ele>
        <time>2019-04-19T13:28:42Z</time>
      </trkpt>
      <trkpt lat="44.16759" lon="3.13809">
        <ele>815.7</ele>
        <time>2019-04-19T13:28:44Z</time>
      </trkpt>
      <trkpt lat="44.16757" lon="3.13812">
        <ele>815.4</ele>
        <time>2019-04-19T13:28:45Z</time>
      </trkpt>
      <trkpt lat="44.16755" lon="3.13815">
        <ele>815.1</ele>
        <time>2019-04-19T13:28:46Z</time>
      </trkpt>
      <trkpt lat="44.16752" lon="3.1382">
        <ele>814.5</ele>
        <time>2019-04-19T13:28:47Z</time>
      </trkpt>
      <trkpt lat="44.1675" lon="3.13826">
        <ele>813.2</ele>
        <time>2019-04-19T13:28:48Z</time>
      </trkpt>
      <trkpt lat="44.16743" lon="3.13838">
        <ele>811.8</ele>
        <time>2019-04-19T13:28:49Z</time>
      </trkpt>
      <trkpt lat="44.1674" lon="3.13851">
        <ele>810.6</ele>
        <time>2019-04-19T13:28:50Z</time>
      </trkpt>
      <trkpt lat="44.16735" lon="3.13861">
        <ele>810.1</ele>
        <time>2019-04-19T13:28:51Z</time>
      </trkpt>
      <trkpt lat="44.1673" lon="3.13871">
        <ele>808.9</ele>
        <time>2019-04-19T13:28:52Z</time>
      </trkpt>
      <trkpt lat="44.16727" lon="3.13876">
        <ele>808.2</ele>
        <time>2019-04-19T13:28:53Z</time>
      </trkpt>
      <trkpt lat="44.16723" lon="3.13885">
        <ele>807.5</ele>
        <time>2019-04-19T13:28:54Z</time>
      </trkpt>
      <trkpt lat="44.1672" lon="3.13889">
        <ele>807.4</ele>
        <time>2019-04-19T13:28:55Z</time>
      </trkpt>
      <trkpt lat="44.16718" lon="3.13893">
        <ele>807.4</ele>
        <time>2019-04-19T13:28:56Z</time>
      </trkpt>
      <trkpt lat="44.16716" lon="3.13897">
        <ele>807.4</ele>
        <time>2019-04-19T13:28:57Z</time>
      </trkpt>
      <trkpt lat="44.16715" lon="3.13901">
        <ele>807.4</ele>
        <time>2019-04-19T13:28:58Z</time>
      </trkpt>
      <trkpt lat="44.16714" lon="3.13909">
        <ele>807.7</ele>
        <time>2019-04-19T13:28:59Z</time>
      </trkpt>
      <trkpt lat="44.16714" lon="3.13917">
        <ele>808.1</ele>
        <time>2019-04-19T13:29:00Z</time>
      </trkpt>
      <trkpt lat="44.16713" lon="3.13925">
        <ele>808</ele>
        <time>2019-04-19T13:29:02Z</time>
      </trkpt>
      <trkpt lat="44.16711" lon="3.13928">
        <ele>808</ele>
        <time>2019-04-19T13:29:03Z</time>
      </trkpt>
      <trkpt lat="44.16708" lon="3.1393">
        <ele>808.1</ele>
        <time>2019-04-19T13:29:04Z</time>
      </trkpt>
      <trkpt lat="44.16704" lon="3.13934">
        <ele>808.2</ele>
        <time>2019-04-19T13:29:06Z</time>
      </trkpt>
      <trkpt lat="44.16701" lon="3.13935">
        <ele>808.4</ele>
        <time>2019-04-19T13:29:07Z</time>
      </trkpt>
      <trkpt lat="44.16696" lon="3.13937">
        <ele>808.8</ele>
        <time>2019-04-19T13:29:08Z</time>
      </trkpt>
      <trkpt lat="44.16691" lon="3.1394">
        <ele>809.5</ele>
        <time>2019-04-19T13:29:09Z</time>
      </trkpt>
      <trkpt lat="44.16687" lon="3.13943">
        <ele>809.8</ele>
        <time>2019-04-19T13:29:10Z</time>
      </trkpt>
      <trkpt lat="44.16664" lon="3.13955">
        <ele>810.6</ele>
        <time>2019-04-19T13:29:12Z</time>
      </trkpt>
      <trkpt lat="44.16659" lon="3.13956">
        <ele>811.2</ele>
        <time>2019-04-19T13:29:13Z</time>
      </trkpt>
      <trkpt lat="44.16658" lon="3.13961">
        <ele>811.7</ele>
        <time>2019-04-19T13:29:14Z</time>
      </trkpt>
      <trkpt lat="44.16654" lon="3.13963">
        <ele>811.8</ele>
        <time>2019-04-19T13:29:15Z</time>
      </trkpt>
      <trkpt lat="44.16649" lon="3.13965">
        <ele>811.7</ele>
        <time>2019-04-19T13:29:16Z</time>
      </trkpt>
      <trkpt lat="44.16643" lon="3.13967">
        <ele>811.8</ele>
        <time>2019-04-19T13:29:17Z</time>
      </trkpt>
      <trkpt lat="44.16638" lon="3.13968">
        <ele>812</ele>
        <time>2019-04-19T13:29:18Z</time>
      </trkpt>
      <trkpt lat="44.16633" lon="3.13972">
        <ele>812.4</ele>
        <time>2019-04-19T13:29:19Z</time>
      </trkpt>
      <trkpt lat="44.16632" lon="3.13977">
        <ele>812.4</ele>
        <time>2019-04-19T13:29:20Z</time>
      </trkpt>
      <trkpt lat="44.16632" lon="3.13983">
        <ele>811.9</ele>
        <time>2019-04-19T13:29:21Z</time>
      </trkpt>
      <trkpt lat="44.16632" lon="3.13988">
        <ele>811.4</ele>
        <time>2019-04-19T13:29:22Z</time>
      </trkpt>
      <trkpt lat="44.16631" lon="3.13993">
        <ele>811.2</ele>
        <time>2019-04-19T13:29:23Z</time>
      </trkpt>
      <trkpt lat="44.16629" lon="3.13997">
        <ele>811</ele>
        <time>2019-04-19T13:29:24Z</time>
      </trkpt>
      <trkpt lat="44.16623" lon="3.14003">
        <ele>810.6</ele>
        <time>2019-04-19T13:29:25Z</time>
      </trkpt>
      <trkpt lat="44.16617" lon="3.14009">
        <ele>810.2</ele>
        <time>2019-04-19T13:29:26Z</time>
      </trkpt>
      <trkpt lat="44.16611" lon="3.14017">
        <ele>809.9</ele>
        <time>2019-04-19T13:29:27Z</time>
      </trkpt>
      <trkpt lat="44.16607" lon="3.14021">
        <ele>809.7</ele>
        <time>2019-04-19T13:29:28Z</time>
      </trkpt>
      <trkpt lat="44.16603" lon="3.14025">
        <ele>809.3</ele>
        <time>2019-04-19T13:29:29Z</time>
      </trkpt>
      <trkpt lat="44.16597" lon="3.14029">
        <ele>808.6</ele>
        <time>2019-04-19T13:29:30Z</time>
      </trkpt>
      <trkpt lat="44.16593" lon="3.14035">
        <ele>808.3</ele>
        <time>2019-04-19T13:29:31Z</time>
      </trkpt>
      <trkpt lat="44.1659" lon="3.14042">
        <ele>808</ele>
        <time>2019-04-19T13:29:32Z</time>
      </trkpt>
      <trkpt lat="44.16587" lon="3.14048">
        <ele>807.5</ele>
        <time>2019-04-19T13:29:33Z</time>
      </trkpt>
      <trkpt lat="44.16585" lon="3.14059">
        <ele>807.3</ele>
        <time>2019-04-19T13:29:34Z</time>
      </trkpt>
      <trkpt lat="44.16583" lon="3.14072">
        <ele>807.3</ele>
        <time>2019-04-19T13:29:35Z</time>
      </trkpt>
      <trkpt lat="44.1658" lon="3.14085">
        <ele>806.8</ele>
        <time>2019-04-19T13:29:36Z</time>
      </trkpt>
      <trkpt lat="44.16576" lon="3.14094">
        <ele>806.4</ele>
        <time>2019-04-19T13:29:37Z</time>
      </trkpt>
      <trkpt lat="44.16573" lon="3.14104">
        <ele>806.2</ele>
        <time>2019-04-19T13:29:38Z</time>
      </trkpt>
      <trkpt lat="44.16569" lon="3.14111">
        <ele>805.6</ele>
        <time>2019-04-19T13:29:39Z</time>
      </trkpt>
      <trkpt lat="44.16565" lon="3.14121">
        <ele>805.3</ele>
        <time>2019-04-19T13:29:40Z</time>
      </trkpt>
      <trkpt lat="44.16562" lon="3.14128">
        <ele>805</ele>
        <time>2019-04-19T13:29:41Z</time>
      </trkpt>
      <trkpt lat="44.1656" lon="3.14135">
        <ele>804.9</ele>
        <time>2019-04-19T13:29:42Z</time>
      </trkpt>
      <trkpt lat="44.16561" lon="3.1415">
        <ele>804.6</ele>
        <time>2019-04-19T13:29:43Z</time>
      </trkpt>
      <trkpt lat="44.16559" lon="3.14162">
        <ele>803.7</ele>
        <time>2019-04-19T13:29:44Z</time>
      </trkpt>
      <trkpt lat="44.16559" lon="3.14171">
        <ele>803.2</ele>
        <time>2019-04-19T13:29:45Z</time>
      </trkpt>
      <trkpt lat="44.16555" lon="3.1418">
        <ele>802.7</ele>
        <time>2019-04-19T13:29:46Z</time>
      </trkpt>
      <trkpt lat="44.1656" lon="3.14188">
        <ele>801.3</ele>
        <time>2019-04-19T13:29:47Z</time>
      </trkpt>
      <trkpt lat="44.16563" lon="3.14185">
        <ele>800.8</ele>
        <time>2019-04-19T13:29:49Z</time>
      </trkpt>
      <trkpt lat="44.16565" lon="3.14189">
        <ele>800.4</ele>
        <time>2019-04-19T13:29:50Z</time>
      </trkpt>
      <trkpt lat="44.16568" lon="3.14191">
        <ele>799.9</ele>
        <time>2019-04-19T13:29:53Z</time>
      </trkpt>
      <trkpt lat="44.16571" lon="3.14193">
        <ele>799.4</ele>
        <time>2019-04-19T13:29:54Z</time>
      </trkpt>
      <trkpt lat="44.16575" lon="3.14193">
        <ele>798.8</ele>
        <time>2019-04-19T13:29:56Z</time>
      </trkpt>
      <trkpt lat="44.16578" lon="3.14194">
        <ele>798.1</ele>
        <time>2019-04-19T13:29:59Z</time>
      </trkpt>
      <trkpt lat="44.16583" lon="3.14195">
        <ele>796.9</ele>
        <time>2019-04-19T13:30:01Z</time>
      </trkpt>
      <trkpt lat="44.16588" lon="3.14196">
        <ele>796.2</ele>
        <time>2019-04-19T13:30:03Z</time>
      </trkpt>
      <trkpt lat="44.16592" lon="3.14199">
        <ele>795.4</ele>
        <time>2019-04-19T13:30:05Z</time>
      </trkpt>
      <trkpt lat="44.16594" lon="3.14202">
        <ele>795</ele>
        <time>2019-04-19T13:30:06Z</time>
      </trkpt>
      <trkpt lat="44.16597" lon="3.14208">
        <ele>794.6</ele>
        <time>2019-04-19T13:30:08Z</time>
      </trkpt>
      <trkpt lat="44.16599" lon="3.14212">
        <ele>794.6</ele>
        <time>2019-04-19T13:30:11Z</time>
      </trkpt>
      <trkpt lat="44.166" lon="3.14215">
        <ele>794.7</ele>
        <time>2019-04-19T13:30:13Z</time>
      </trkpt>
      <trkpt lat="44.16599" lon="3.14219">
        <ele>794.9</ele>
        <time>2019-04-19T13:30:15Z</time>
      </trkpt>
      <trkpt lat="44.16596" lon="3.14224">
        <ele>795.3</ele>
        <time>2019-04-19T13:30:17Z</time>
      </trkpt>
      <trkpt lat="44.16594" lon="3.14227">
        <ele>795.5</ele>
        <time>2019-04-19T13:30:18Z</time>
      </trkpt>
      <trkpt lat="44.16591" lon="3.14234">
        <ele>796</ele>
        <time>2019-04-19T13:30:20Z</time>
      </trkpt>
      <trkpt lat="44.16589" lon="3.14238">
        <ele>796.2</ele>
        <time>2019-04-19T13:30:21Z</time>
      </trkpt>
      <trkpt lat="44.16588" lon="3.14241">
        <ele>796.6</ele>
        <time>2019-04-19T13:30:22Z</time>
      </trkpt>
      <trkpt lat="44.16586" lon="3.14244">
        <ele>797.1</ele>
        <time>2019-04-19T13:30:23Z</time>
      </trkpt>
      <trkpt lat="44.16584" lon="3.14247">
        <ele>797.5</ele>
        <time>2019-04-19T13:30:24Z</time>
      </trkpt>
      <trkpt lat="44.16583" lon="3.14251">
        <ele>797.8</ele>
        <time>2019-04-19T13:30:25Z</time>
      </trkpt>
      <trkpt lat="44.16582" lon="3.14256">
        <ele>798.1</ele>
        <time>2019-04-19T13:30:26Z</time>
      </trkpt>
      <trkpt lat="44.16583" lon="3.14265">
        <ele>798.9</ele>
        <time>2019-04-19T13:30:27Z</time>
      </trkpt>
      <trkpt lat="44.16579" lon="3.14268">
        <ele>799.4</ele>
        <time>2019-04-19T13:30:28Z</time>
      </trkpt>
      <trkpt lat="44.16578" lon="3.14274">
        <ele>799.8</ele>
        <time>2019-04-19T13:30:29Z</time>
      </trkpt>
      <trkpt lat="44.16577" lon="3.14282">
        <ele>800.1</ele>
        <time>2019-04-19T13:30:30Z</time>
      </trkpt>
      <trkpt lat="44.16575" lon="3.14287">
        <ele>800.3</ele>
        <time>2019-04-19T13:30:31Z</time>
      </trkpt>
      <trkpt lat="44.16573" lon="3.1429">
        <ele>800.5</ele>
        <time>2019-04-19T13:30:36Z</time>
      </trkpt>
      <trkpt lat="44.16571" lon="3.14297">
        <ele>800.7</ele>
        <time>2019-04-19T13:30:38Z</time>
      </trkpt>
      <trkpt lat="44.16567" lon="3.14301">
        <ele>800.8</ele>
        <time>2019-04-19T13:30:41Z</time>
      </trkpt>
      <trkpt lat="44.16565" lon="3.14305">
        <ele>800.9</ele>
        <time>2019-04-19T13:30:42Z</time>
      </trkpt>
      <trkpt lat="44.16562" lon="3.14307">
        <ele>800.9</ele>
        <time>2019-04-19T13:30:44Z</time>
      </trkpt>
      <trkpt lat="44.16559" lon="3.14308">
        <ele>801</ele>
        <time>2019-04-19T13:30:46Z</time>
      </trkpt>
      <trkpt lat="44.16556" lon="3.14308">
        <ele>801.1</ele>
        <time>2019-04-19T13:30:47Z</time>
      </trkpt>
      <trkpt lat="44.16553" lon="3.14306">
        <ele>801.3</ele>
        <time>2019-04-19T13:30:48Z</time>
      </trkpt>
      <trkpt lat="44.16551" lon="3.14301">
        <ele>801.6</ele>
        <time>2019-04-19T13:30:50Z</time>
      </trkpt>
      <trkpt lat="44.1655" lon="3.14294">
        <ele>801.8</ele>
        <time>2019-04-19T13:30:52Z</time>
      </trkpt>
      <trkpt lat="44.16549" lon="3.14291">
        <ele>801.9</ele>
        <time>2019-04-19T13:30:53Z</time>
      </trkpt>
      <trkpt lat="44.16548" lon="3.14287">
        <ele>802.1</ele>
        <time>2019-04-19T13:30:54Z</time>
      </trkpt>
      <trkpt lat="44.16544" lon="3.14287">
        <ele>802.4</ele>
        <time>2019-04-19T13:30:57Z</time>
      </trkpt>
      <trkpt lat="44.16541" lon="3.14289">
        <ele>802.6</ele>
        <time>2019-04-19T13:30:58Z</time>
      </trkpt>
      <trkpt lat="44.16538" lon="3.14292">
        <ele>802.8</ele>
        <time>2019-04-19T13:31:00Z</time>
      </trkpt>
      <trkpt lat="44.16536" lon="3.14296">
        <ele>803</ele>
        <time>2019-04-19T13:31:02Z</time>
      </trkpt>
      <trkpt lat="44.16534" lon="3.14299">
        <ele>803.2</ele>
        <time>2019-04-19T13:31:03Z</time>
      </trkpt>
      <trkpt lat="44.16532" lon="3.14302">
        <ele>803.5</ele>
        <time>2019-04-19T13:31:04Z</time>
      </trkpt>
      <trkpt lat="44.1653" lon="3.14305">
        <ele>803.6</ele>
        <time>2019-04-19T13:31:05Z</time>
      </trkpt>
      <trkpt lat="44.16527" lon="3.14308">
        <ele>803.8</ele>
        <time>2019-04-19T13:31:06Z</time>
      </trkpt>
      <trkpt lat="44.16524" lon="3.14311">
        <ele>803.9</ele>
        <time>2019-04-19T13:31:07Z</time>
      </trkpt>
      <trkpt lat="44.1652" lon="3.14315">
        <ele>804.1</ele>
        <time>2019-04-19T13:31:08Z</time>
      </trkpt>
      <trkpt lat="44.16517" lon="3.14318">
        <ele>804.2</ele>
        <time>2019-04-19T13:31:09Z</time>
      </trkpt>
      <trkpt lat="44.16513" lon="3.14322">
        <ele>804.2</ele>
        <time>2019-04-19T13:31:10Z</time>
      </trkpt>
      <trkpt lat="44.16509" lon="3.14326">
        <ele>804.2</ele>
        <time>2019-04-19T13:31:11Z</time>
      </trkpt>
      <trkpt lat="44.16506" lon="3.1433">
        <ele>804.2</ele>
        <time>2019-04-19T13:31:12Z</time>
      </trkpt>
      <trkpt lat="44.16502" lon="3.14334">
        <ele>804.2</ele>
        <time>2019-04-19T13:31:13Z</time>
      </trkpt>
      <trkpt lat="44.165" lon="3.14339">
        <ele>804.2</ele>
        <time>2019-04-19T13:31:14Z</time>
      </trkpt>
      <trkpt lat="44.16498" lon="3.14343">
        <ele>804.2</ele>
        <time>2019-04-19T13:31:15Z</time>
      </trkpt>
      <trkpt lat="44.16496" lon="3.14348">
        <ele>804.2</ele>
        <time>2019-04-19T13:31:16Z</time>
      </trkpt>
      <trkpt lat="44.16495" lon="3.14352">
        <ele>804.2</ele>
        <time>2019-04-19T13:31:17Z</time>
      </trkpt>
      <trkpt lat="44.16492" lon="3.14356">
        <ele>804.1</ele>
        <time>2019-04-19T13:31:18Z</time>
      </trkpt>
      <trkpt lat="44.16489" lon="3.1436">
        <ele>804</ele>
        <time>2019-04-19T13:31:19Z</time>
      </trkpt>
      <trkpt lat="44.16485" lon="3.14363">
        <ele>803.9</ele>
        <time>2019-04-19T13:31:20Z</time>
      </trkpt>
      <trkpt lat="44.16481" lon="3.14365">
        <ele>804</ele>
        <time>2019-04-19T13:31:21Z</time>
      </trkpt>
      <trkpt lat="44.16478" lon="3.14367">
        <ele>804.2</ele>
        <time>2019-04-19T13:31:22Z</time>
      </trkpt>
      <trkpt lat="44.16473" lon="3.14369">
        <ele>804.3</ele>
        <time>2019-04-19T13:31:23Z</time>
      </trkpt>
      <trkpt lat="44.16469" lon="3.1437">
        <ele>804.5</ele>
        <time>2019-04-19T13:31:24Z</time>
      </trkpt>
      <trkpt lat="44.16465" lon="3.1437">
        <ele>804.6</ele>
        <time>2019-04-19T13:31:25Z</time>
      </trkpt>
      <trkpt lat="44.16463" lon="3.14371">
        <ele>804.7</ele>
        <time>2019-04-19T13:31:26Z</time>
      </trkpt>
      <trkpt lat="44.16458" lon="3.14374">
        <ele>804.9</ele>
        <time>2019-04-19T13:31:28Z</time>
      </trkpt>
      <trkpt lat="44.16453" lon="3.14376">
        <ele>805.2</ele>
        <time>2019-04-19T13:31:30Z</time>
      </trkpt>
      <trkpt lat="44.16448" lon="3.14377">
        <ele>805.4</ele>
        <time>2019-04-19T13:31:32Z</time>
      </trkpt>
      <trkpt lat="44.16443" lon="3.14379">
        <ele>805.5</ele>
        <time>2019-04-19T13:31:34Z</time>
      </trkpt>
      <trkpt lat="44.16439" lon="3.1438">
        <ele>805.7</ele>
        <time>2019-04-19T13:31:36Z</time>
      </trkpt>
      <trkpt lat="44.16435" lon="3.14378">
        <ele>805.9</ele>
        <time>2019-04-19T13:31:38Z</time>
      </trkpt>
      <trkpt lat="44.16431" lon="3.14376">
        <ele>806</ele>
        <time>2019-04-19T13:31:40Z</time>
      </trkpt>
      <trkpt lat="44.16427" lon="3.14377">
        <ele>806.1</ele>
        <time>2019-04-19T13:31:42Z</time>
      </trkpt>
      <trkpt lat="44.16424" lon="3.14378">
        <ele>806.2</ele>
        <time>2019-04-19T13:31:44Z</time>
      </trkpt>
      <trkpt lat="44.16419" lon="3.14378">
        <ele>806.3</ele>
        <time>2019-04-19T13:31:46Z</time>
      </trkpt>
      <trkpt lat="44.16414" lon="3.14379">
        <ele>806.3</ele>
        <time>2019-04-19T13:31:48Z</time>
      </trkpt>
      <trkpt lat="44.16411" lon="3.1438">
        <ele>806.4</ele>
        <time>2019-04-19T13:31:49Z</time>
      </trkpt>
      <trkpt lat="44.16408" lon="3.14381">
        <ele>806.4</ele>
        <time>2019-04-19T13:31:50Z</time>
      </trkpt>
      <trkpt lat="44.16403" lon="3.14384">
        <ele>806.4</ele>
        <time>2019-04-19T13:31:52Z</time>
      </trkpt>
      <trkpt lat="44.164" lon="3.14385">
        <ele>806.5</ele>
        <time>2019-04-19T13:31:53Z</time>
      </trkpt>
      <trkpt lat="44.16397" lon="3.14388">
        <ele>806.5</ele>
        <time>2019-04-19T13:31:54Z</time>
      </trkpt>
      <trkpt lat="44.16394" lon="3.1439">
        <ele>806.6</ele>
        <time>2019-04-19T13:31:55Z</time>
      </trkpt>
      <trkpt lat="44.16391" lon="3.14392">
        <ele>806.7</ele>
        <time>2019-04-19T13:31:56Z</time>
      </trkpt>
      <trkpt lat="44.16387" lon="3.14393">
        <ele>806.7</ele>
        <time>2019-04-19T13:31:57Z</time>
      </trkpt>
      <trkpt lat="44.16384" lon="3.14395">
        <ele>806.8</ele>
        <time>2019-04-19T13:31:58Z</time>
      </trkpt>
      <trkpt lat="44.1638" lon="3.14397">
        <ele>806.8</ele>
        <time>2019-04-19T13:31:59Z</time>
      </trkpt>
      <trkpt lat="44.16377" lon="3.14399">
        <ele>806.9</ele>
        <time>2019-04-19T13:32:00Z</time>
      </trkpt>
      <trkpt lat="44.16374" lon="3.14401">
        <ele>807</ele>
        <time>2019-04-19T13:32:01Z</time>
      </trkpt>
      <trkpt lat="44.1637" lon="3.14405">
        <ele>807.1</ele>
        <time>2019-04-19T13:32:03Z</time>
      </trkpt>
      <trkpt lat="44.16366" lon="3.1441">
        <ele>807.3</ele>
        <time>2019-04-19T13:32:05Z</time>
      </trkpt>
      <trkpt lat="44.16362" lon="3.14412">
        <ele>807.4</ele>
        <time>2019-04-19T13:32:07Z</time>
      </trkpt>
      <trkpt lat="44.1636" lon="3.14413">
        <ele>807.5</ele>
        <time>2019-04-19T13:32:08Z</time>
      </trkpt>
      <trkpt lat="44.16356" lon="3.14414">
        <ele>807.7</ele>
        <time>2019-04-19T13:32:09Z</time>
      </trkpt>
      <trkpt lat="44.16352" lon="3.14414">
        <ele>807.8</ele>
        <time>2019-04-19T13:32:10Z</time>
      </trkpt>
      <trkpt lat="44.16349" lon="3.14415">
        <ele>808</ele>
        <time>2019-04-19T13:32:11Z</time>
      </trkpt>
      <trkpt lat="44.16344" lon="3.14414">
        <ele>808.1</ele>
        <time>2019-04-19T13:32:12Z</time>
      </trkpt>
      <trkpt lat="44.16341" lon="3.14412">
        <ele>808.3</ele>
        <time>2019-04-19T13:32:13Z</time>
      </trkpt>
      <trkpt lat="44.16338" lon="3.1441">
        <ele>808.4</ele>
        <time>2019-04-19T13:32:14Z</time>
      </trkpt>
      <trkpt lat="44.16335" lon="3.14408">
        <ele>808.4</ele>
        <time>2019-04-19T13:32:15Z</time>
      </trkpt>
      <trkpt lat="44.16331" lon="3.14406">
        <ele>808.4</ele>
        <time>2019-04-19T13:32:16Z</time>
      </trkpt>
      <trkpt lat="44.16328" lon="3.14405">
        <ele>808.4</ele>
        <time>2019-04-19T13:32:17Z</time>
      </trkpt>
      <trkpt lat="44.16325" lon="3.14403">
        <ele>808.4</ele>
        <time>2019-04-19T13:32:18Z</time>
      </trkpt>
      <trkpt lat="44.16322" lon="3.14401">
        <ele>808.3</ele>
        <time>2019-04-19T13:32:19Z</time>
      </trkpt>
      <trkpt lat="44.16318" lon="3.14399">
        <ele>808.2</ele>
        <time>2019-04-19T13:32:20Z</time>
      </trkpt>
      <trkpt lat="44.16314" lon="3.14397">
        <ele>808.1</ele>
        <time>2019-04-19T13:32:21Z</time>
      </trkpt>
      <trkpt lat="44.1631" lon="3.14395">
        <ele>807.9</ele>
        <time>2019-04-19T13:32:22Z</time>
      </trkpt>
      <trkpt lat="44.16306" lon="3.14393">
        <ele>807.8</ele>
        <time>2019-04-19T13:32:23Z</time>
      </trkpt>
      <trkpt lat="44.16302" lon="3.14391">
        <ele>807.6</ele>
        <time>2019-04-19T13:32:24Z</time>
      </trkpt>
      <trkpt lat="44.16299" lon="3.1439">
        <ele>807.5</ele>
        <time>2019-04-19T13:32:25Z</time>
      </trkpt>
      <trkpt lat="44.16296" lon="3.1439">
        <ele>807.5</ele>
        <time>2019-04-19T13:32:26Z</time>
      </trkpt>
      <trkpt lat="44.16293" lon="3.14389">
        <ele>807.4</ele>
        <time>2019-04-19T13:32:27Z</time>
      </trkpt>
      <trkpt lat="44.16289" lon="3.1439">
        <ele>807.2</ele>
        <time>2019-04-19T13:32:28Z</time>
      </trkpt>
      <trkpt lat="44.16285" lon="3.14392">
        <ele>807.1</ele>
        <time>2019-04-19T13:32:29Z</time>
      </trkpt>
      <trkpt lat="44.16282" lon="3.14394">
        <ele>807</ele>
        <time>2019-04-19T13:32:30Z</time>
      </trkpt>
      <trkpt lat="44.16278" lon="3.14395">
        <ele>806.8</ele>
        <time>2019-04-19T13:32:31Z</time>
      </trkpt>
      <trkpt lat="44.16273" lon="3.14395">
        <ele>806.7</ele>
        <time>2019-04-19T13:32:32Z</time>
      </trkpt>
      <trkpt lat="44.16269" lon="3.14395">
        <ele>806.6</ele>
        <time>2019-04-19T13:32:33Z</time>
      </trkpt>
      <trkpt lat="44.16265" lon="3.14394">
        <ele>806.5</ele>
        <time>2019-04-19T13:32:34Z</time>
      </trkpt>
      <trkpt lat="44.1626" lon="3.14394">
        <ele>806.4</ele>
        <time>2019-04-19T13:32:35Z</time>
      </trkpt>
      <trkpt lat="44.16256" lon="3.14395">
        <ele>806.4</ele>
        <time>2019-04-19T13:32:36Z</time>
      </trkpt>
      <trkpt lat="44.16252" lon="3.14396">
        <ele>806.3</ele>
        <time>2019-04-19T13:32:37Z</time>
      </trkpt>
      <trkpt lat="44.16249" lon="3.14398">
        <ele>806.2</ele>
        <time>2019-04-19T13:32:38Z</time>
      </trkpt>
      <trkpt lat="44.16246" lon="3.14401">
        <ele>806.2</ele>
        <time>2019-04-19T13:32:39Z</time>
      </trkpt>
      <trkpt lat="44.16244" lon="3.14405">
        <ele>806.2</ele>
        <time>2019-04-19T13:32:40Z</time>
      </trkpt>
      <trkpt lat="44.16242" lon="3.14408">
        <ele>806.1</ele>
        <time>2019-04-19T13:32:41Z</time>
      </trkpt>
      <trkpt lat="44.16238" lon="3.14412">
        <ele>806.1</ele>
        <time>2019-04-19T13:32:43Z</time>
      </trkpt>
      <trkpt lat="44.16235" lon="3.14413">
        <ele>806.1</ele>
        <time>2019-04-19T13:32:44Z</time>
      </trkpt>
      <trkpt lat="44.16232" lon="3.14415">
        <ele>806.1</ele>
        <time>2019-04-19T13:32:45Z</time>
      </trkpt>
      <trkpt lat="44.16228" lon="3.14417">
        <ele>806.1</ele>
        <time>2019-04-19T13:32:46Z</time>
      </trkpt>
      <trkpt lat="44.16225" lon="3.14419">
        <ele>806.1</ele>
        <time>2019-04-19T13:32:47Z</time>
      </trkpt>
      <trkpt lat="44.16222" lon="3.1442">
        <ele>806.2</ele>
        <time>2019-04-19T13:32:48Z</time>
      </trkpt>
      <trkpt lat="44.16219" lon="3.14421">
        <ele>806.3</ele>
        <time>2019-04-19T13:32:49Z</time>
      </trkpt>
      <trkpt lat="44.16216" lon="3.14422">
        <ele>806.4</ele>
        <time>2019-04-19T13:32:50Z</time>
      </trkpt>
      <trkpt lat="44.16213" lon="3.14422">
        <ele>806.5</ele>
        <time>2019-04-19T13:32:51Z</time>
      </trkpt>
      <trkpt lat="44.16209" lon="3.14424">
        <ele>806.7</ele>
        <time>2019-04-19T13:32:52Z</time>
      </trkpt>
      <trkpt lat="44.16206" lon="3.14426">
        <ele>806.8</ele>
        <time>2019-04-19T13:32:53Z</time>
      </trkpt>
      <trkpt lat="44.16202" lon="3.14427">
        <ele>807</ele>
        <time>2019-04-19T13:32:54Z</time>
      </trkpt>
      <trkpt lat="44.16199" lon="3.1443">
        <ele>807.1</ele>
        <time>2019-04-19T13:32:55Z</time>
      </trkpt>
      <trkpt lat="44.16196" lon="3.14433">
        <ele>807.3</ele>
        <time>2019-04-19T13:32:56Z</time>
      </trkpt>
      <trkpt lat="44.16193" lon="3.14435">
        <ele>807.5</ele>
        <time>2019-04-19T13:32:57Z</time>
      </trkpt>
      <trkpt lat="44.16191" lon="3.14436">
        <ele>807.6</ele>
        <time>2019-04-19T13:32:58Z</time>
      </trkpt>
      <trkpt lat="44.16187" lon="3.14437">
        <ele>807.7</ele>
        <time>2019-04-19T13:33:00Z</time>
      </trkpt>
      <trkpt lat="44.16183" lon="3.1444">
        <ele>807.9</ele>
        <time>2019-04-19T13:33:02Z</time>
      </trkpt>
      <trkpt lat="44.16179" lon="3.14444">
        <ele>808.1</ele>
        <time>2019-04-19T13:33:04Z</time>
      </trkpt>
      <trkpt lat="44.16176" lon="3.14446">
        <ele>808.2</ele>
        <time>2019-04-19T13:33:05Z</time>
      </trkpt>
      <trkpt lat="44.16173" lon="3.14448">
        <ele>808.3</ele>
        <time>2019-04-19T13:33:06Z</time>
      </trkpt>
      <trkpt lat="44.1617" lon="3.1445">
        <ele>808.5</ele>
        <time>2019-04-19T13:33:08Z</time>
      </trkpt>
      <trkpt lat="44.16166" lon="3.14451">
        <ele>808.6</ele>
        <time>2019-04-19T13:33:09Z</time>
      </trkpt>
      <trkpt lat="44.16162" lon="3.14452">
        <ele>808.7</ele>
        <time>2019-04-19T13:33:10Z</time>
      </trkpt>
      <trkpt lat="44.16157" lon="3.14452">
        <ele>808.8</ele>
        <time>2019-04-19T13:33:11Z</time>
      </trkpt>
      <trkpt lat="44.16154" lon="3.14451">
        <ele>809</ele>
        <time>2019-04-19T13:33:12Z</time>
      </trkpt>
      <trkpt lat="44.1615" lon="3.14451">
        <ele>809.1</ele>
        <time>2019-04-19T13:33:13Z</time>
      </trkpt>
      <trkpt lat="44.16147" lon="3.14452">
        <ele>809.2</ele>
        <time>2019-04-19T13:33:14Z</time>
      </trkpt>
      <trkpt lat="44.16142" lon="3.14454">
        <ele>809.4</ele>
        <time>2019-04-19T13:33:16Z</time>
      </trkpt>
      <trkpt lat="44.16139" lon="3.14456">
        <ele>809.5</ele>
        <time>2019-04-19T13:33:17Z</time>
      </trkpt>
      <trkpt lat="44.16135" lon="3.14458">
        <ele>809.7</ele>
        <time>2019-04-19T13:33:18Z</time>
      </trkpt>
      <trkpt lat="44.16131" lon="3.14459">
        <ele>809.8</ele>
        <time>2019-04-19T13:33:19Z</time>
      </trkpt>
      <trkpt lat="44.16127" lon="3.1446">
        <ele>810.1</ele>
        <time>2019-04-19T13:33:20Z</time>
      </trkpt>
      <trkpt lat="44.16124" lon="3.1446">
        <ele>810.3</ele>
        <time>2019-04-19T13:33:21Z</time>
      </trkpt>
      <trkpt lat="44.1612" lon="3.1446">
        <ele>810.5</ele>
        <time>2019-04-19T13:33:22Z</time>
      </trkpt>
      <trkpt lat="44.16117" lon="3.1446">
        <ele>810.7</ele>
        <time>2019-04-19T13:33:23Z</time>
      </trkpt>
      <trkpt lat="44.16111" lon="3.1446">
        <ele>811</ele>
        <time>2019-04-19T13:33:25Z</time>
      </trkpt>
      <trkpt lat="44.16107" lon="3.14462">
        <ele>811.3</ele>
        <time>2019-04-19T13:33:27Z</time>
      </trkpt>
      <trkpt lat="44.16104" lon="3.14463">
        <ele>811.5</ele>
        <time>2019-04-19T13:33:29Z</time>
      </trkpt>
      <trkpt lat="44.16099" lon="3.14465">
        <ele>811.8</ele>
        <time>2019-04-19T13:33:31Z</time>
      </trkpt>
      <trkpt lat="44.16094" lon="3.14466">
        <ele>812.2</ele>
        <time>2019-04-19T13:33:33Z</time>
      </trkpt>
      <trkpt lat="44.16091" lon="3.14467">
        <ele>812.5</ele>
        <time>2019-04-19T13:33:34Z</time>
      </trkpt>
      <trkpt lat="44.16088" lon="3.1447">
        <ele>812.8</ele>
        <time>2019-04-19T13:33:36Z</time>
      </trkpt>
      <trkpt lat="44.16086" lon="3.14473">
        <ele>813</ele>
        <time>2019-04-19T13:33:39Z</time>
      </trkpt>
      <trkpt lat="44.16085" lon="3.14477">
        <ele>813.3</ele>
        <time>2019-04-19T13:33:43Z</time>
      </trkpt>
      <trkpt lat="44.16069" lon="3.14487">
        <ele>814.7</ele>
        <time>2019-04-19T13:36:44Z</time>
      </trkpt>
      <trkpt lat="44.16067" lon="3.14488">
        <ele>814.9</ele>
        <time>2019-04-19T13:36:45Z</time>
      </trkpt>
      <trkpt lat="44.16063" lon="3.14489">
        <ele>815.2</ele>
        <time>2019-04-19T13:36:47Z</time>
      </trkpt>
      <trkpt lat="44.16057" lon="3.1449">
        <ele>815.6</ele>
        <time>2019-04-19T13:36:49Z</time>
      </trkpt>
      <trkpt lat="44.16055" lon="3.14491">
        <ele>815.9</ele>
        <time>2019-04-19T13:36:50Z</time>
      </trkpt>
      <trkpt lat="44.16051" lon="3.14493">
        <ele>816.2</ele>
        <time>2019-04-19T13:36:53Z</time>
      </trkpt>
      <trkpt lat="44.16049" lon="3.14496">
        <ele>816.5</ele>
        <time>2019-04-19T13:36:56Z</time>
      </trkpt>
      <trkpt lat="44.16045" lon="3.14498">
        <ele>816.7</ele>
        <time>2019-04-19T13:36:58Z</time>
      </trkpt>
      <trkpt lat="44.16042" lon="3.145">
        <ele>817.1</ele>
        <time>2019-04-19T13:36:59Z</time>
      </trkpt>
      <trkpt lat="44.16039" lon="3.14502">
        <ele>817.4</ele>
        <time>2019-04-19T13:37:00Z</time>
      </trkpt>
      <trkpt lat="44.16036" lon="3.14503">
        <ele>817.6</ele>
        <time>2019-04-19T13:37:01Z</time>
      </trkpt>
      <trkpt lat="44.16033" lon="3.14503">
        <ele>817.8</ele>
        <time>2019-04-19T13:37:02Z</time>
      </trkpt>
      <trkpt lat="44.16028" lon="3.14503">
        <ele>818.2</ele>
        <time>2019-04-19T13:37:04Z</time>
      </trkpt>
      <trkpt lat="44.16023" lon="3.14503">
        <ele>818.7</ele>
        <time>2019-04-19T13:37:06Z</time>
      </trkpt>
      <trkpt lat="44.16019" lon="3.14503">
        <ele>819.1</ele>
        <time>2019-04-19T13:37:07Z</time>
      </trkpt>
      <trkpt lat="44.16014" lon="3.14502">
        <ele>819.5</ele>
        <time>2019-04-19T13:37:08Z</time>
      </trkpt>
      <trkpt lat="44.1601" lon="3.14502">
        <ele>820</ele>
        <time>2019-04-19T13:37:09Z</time>
      </trkpt>
      <trkpt lat="44.16006" lon="3.14501">
        <ele>820.3</ele>
        <time>2019-04-19T13:37:10Z</time>
      </trkpt>
      <trkpt lat="44.16002" lon="3.145">
        <ele>820.7</ele>
        <time>2019-04-19T13:37:11Z</time>
      </trkpt>
      <trkpt lat="44.15999" lon="3.14499">
        <ele>820.9</ele>
        <time>2019-04-19T13:37:12Z</time>
      </trkpt>
      <trkpt lat="44.15996" lon="3.14498">
        <ele>821.1</ele>
        <time>2019-04-19T13:37:13Z</time>
      </trkpt>
      <trkpt lat="44.15993" lon="3.14496">
        <ele>821.3</ele>
        <time>2019-04-19T13:37:14Z</time>
      </trkpt>
      <trkpt lat="44.1599" lon="3.14494">
        <ele>821.4</ele>
        <time>2019-04-19T13:37:15Z</time>
      </trkpt>
      <trkpt lat="44.15986" lon="3.14493">
        <ele>821.5</ele>
        <time>2019-04-19T13:37:17Z</time>
      </trkpt>
      <trkpt lat="44.15982" lon="3.14494">
        <ele>821.6</ele>
        <time>2019-04-19T13:37:19Z</time>
      </trkpt>
      <trkpt lat="44.15977" lon="3.14495">
        <ele>821.8</ele>
        <time>2019-04-19T13:37:21Z</time>
      </trkpt>
      <trkpt lat="44.15974" lon="3.14495">
        <ele>821.9</ele>
        <time>2019-04-19T13:37:22Z</time>
      </trkpt>
      <trkpt lat="44.15972" lon="3.14496">
        <ele>822</ele>
        <time>2019-04-19T13:37:23Z</time>
      </trkpt>
      <trkpt lat="44.15968" lon="3.14497">
        <ele>822</ele>
        <time>2019-04-19T13:37:24Z</time>
      </trkpt>
      <trkpt lat="44.15964" lon="3.14498">
        <ele>822.1</ele>
        <time>2019-04-19T13:37:25Z</time>
      </trkpt>
      <trkpt lat="44.15961" lon="3.14498">
        <ele>822.2</ele>
        <time>2019-04-19T13:37:26Z</time>
      </trkpt>
      <trkpt lat="44.15957" lon="3.14498">
        <ele>822.2</ele>
        <time>2019-04-19T13:37:27Z</time>
      </trkpt>
      <trkpt lat="44.15953" lon="3.14498">
        <ele>822.1</ele>
        <time>2019-04-19T13:37:28Z</time>
      </trkpt>
      <trkpt lat="44.15949" lon="3.14499">
        <ele>822.1</ele>
        <time>2019-04-19T13:37:29Z</time>
      </trkpt>
      <trkpt lat="44.15945" lon="3.145">
        <ele>822.1</ele>
        <time>2019-04-19T13:37:30Z</time>
      </trkpt>
      <trkpt lat="44.15943" lon="3.14501">
        <ele>822</ele>
        <time>2019-04-19T13:37:31Z</time>
      </trkpt>
      <trkpt lat="44.1594" lon="3.14503">
        <ele>822</ele>
        <time>2019-04-19T13:37:32Z</time>
      </trkpt>
      <trkpt lat="44.15936" lon="3.14505">
        <ele>821.9</ele>
        <time>2019-04-19T13:37:33Z</time>
      </trkpt>
      <trkpt lat="44.15931" lon="3.14506">
        <ele>821.9</ele>
        <time>2019-04-19T13:37:34Z</time>
      </trkpt>
      <trkpt lat="44.15927" lon="3.14508">
        <ele>821.9</ele>
        <time>2019-04-19T13:37:35Z</time>
      </trkpt>
      <trkpt lat="44.15923" lon="3.14509">
        <ele>821.8</ele>
        <time>2019-04-19T13:37:36Z</time>
      </trkpt>
      <trkpt lat="44.15919" lon="3.14509">
        <ele>821.8</ele>
        <time>2019-04-19T13:37:37Z</time>
      </trkpt>
      <trkpt lat="44.15914" lon="3.14511">
        <ele>821.8</ele>
        <time>2019-04-19T13:37:38Z</time>
      </trkpt>
      <trkpt lat="44.1591" lon="3.14512">
        <ele>821.9</ele>
        <time>2019-04-19T13:37:39Z</time>
      </trkpt>
      <trkpt lat="44.15905" lon="3.14513">
        <ele>822</ele>
        <time>2019-04-19T13:37:40Z</time>
      </trkpt>
      <trkpt lat="44.15901" lon="3.14513">
        <ele>822</ele>
        <time>2019-04-19T13:37:41Z</time>
      </trkpt>
      <trkpt lat="44.15896" lon="3.14513">
        <ele>822.1</ele>
        <time>2019-04-19T13:37:42Z</time>
      </trkpt>
      <trkpt lat="44.15891" lon="3.14512">
        <ele>822.2</ele>
        <time>2019-04-19T13:37:43Z</time>
      </trkpt>
      <trkpt lat="44.15888" lon="3.14511">
        <ele>822.4</ele>
        <time>2019-04-19T13:37:44Z</time>
      </trkpt>
      <trkpt lat="44.15885" lon="3.14509">
        <ele>822.6</ele>
        <time>2019-04-19T13:37:45Z</time>
      </trkpt>
      <trkpt lat="44.15881" lon="3.14509">
        <ele>822.8</ele>
        <time>2019-04-19T13:37:46Z</time>
      </trkpt>
      <trkpt lat="44.15877" lon="3.14508">
        <ele>823.1</ele>
        <time>2019-04-19T13:37:47Z</time>
      </trkpt>
      <trkpt lat="44.15871" lon="3.14509">
        <ele>823.4</ele>
        <time>2019-04-19T13:37:49Z</time>
      </trkpt>
      <trkpt lat="44.15868" lon="3.14508">
        <ele>823.6</ele>
        <time>2019-04-19T13:37:50Z</time>
      </trkpt>
      <trkpt lat="44.15865" lon="3.14508">
        <ele>823.8</ele>
        <time>2019-04-19T13:37:51Z</time>
      </trkpt>
      <trkpt lat="44.15861" lon="3.14508">
        <ele>824.1</ele>
        <time>2019-04-19T13:37:52Z</time>
      </trkpt>
      <trkpt lat="44.15858" lon="3.14507">
        <ele>824.4</ele>
        <time>2019-04-19T13:37:53Z</time>
      </trkpt>
      <trkpt lat="44.15854" lon="3.14508">
        <ele>824.7</ele>
        <time>2019-04-19T13:37:54Z</time>
      </trkpt>
      <trkpt lat="44.1585" lon="3.14508">
        <ele>824.9</ele>
        <time>2019-04-19T13:37:55Z</time>
      </trkpt>
      <trkpt lat="44.15846" lon="3.14508">
        <ele>825.1</ele>
        <time>2019-04-19T13:37:57Z</time>
      </trkpt>
      <trkpt lat="44.15844" lon="3.14508">
        <ele>825.2</ele>
        <time>2019-04-19T13:37:58Z</time>
      </trkpt>
      <trkpt lat="44.15841" lon="3.14509">
        <ele>825.3</ele>
        <time>2019-04-19T13:37:59Z</time>
      </trkpt>
      <trkpt lat="44.15836" lon="3.1451">
        <ele>825.4</ele>
        <time>2019-04-19T13:38:01Z</time>
      </trkpt>
      <trkpt lat="44.15833" lon="3.14511">
        <ele>825.5</ele>
        <time>2019-04-19T13:38:02Z</time>
      </trkpt>
      <trkpt lat="44.1583" lon="3.14512">
        <ele>825.6</ele>
        <time>2019-04-19T13:38:03Z</time>
      </trkpt>
      <trkpt lat="44.15827" lon="3.14514">
        <ele>825.6</ele>
        <time>2019-04-19T13:38:04Z</time>
      </trkpt>
      <trkpt lat="44.15823" lon="3.14517">
        <ele>825.7</ele>
        <time>2019-04-19T13:38:05Z</time>
      </trkpt>
      <trkpt lat="44.1582" lon="3.1452">
        <ele>825.8</ele>
        <time>2019-04-19T13:38:06Z</time>
      </trkpt>
      <trkpt lat="44.15817" lon="3.14522">
        <ele>825.8</ele>
        <time>2019-04-19T13:38:07Z</time>
      </trkpt>
      <trkpt lat="44.15814" lon="3.14523">
        <ele>825.9</ele>
        <time>2019-04-19T13:38:08Z</time>
      </trkpt>
      <trkpt lat="44.15811" lon="3.14525">
        <ele>826</ele>
        <time>2019-04-19T13:38:09Z</time>
      </trkpt>
      <trkpt lat="44.15807" lon="3.14526">
        <ele>826.1</ele>
        <time>2019-04-19T13:38:10Z</time>
      </trkpt>
      <trkpt lat="44.15802" lon="3.14527">
        <ele>826.2</ele>
        <time>2019-04-19T13:38:11Z</time>
      </trkpt>
      <trkpt lat="44.15798" lon="3.14528">
        <ele>826.3</ele>
        <time>2019-04-19T13:38:12Z</time>
      </trkpt>
      <trkpt lat="44.15794" lon="3.14529">
        <ele>826.4</ele>
        <time>2019-04-19T13:38:13Z</time>
      </trkpt>
      <trkpt lat="44.15789" lon="3.1453">
        <ele>826.5</ele>
        <time>2019-04-19T13:38:14Z</time>
      </trkpt>
      <trkpt lat="44.15786" lon="3.14531">
        <ele>826.6</ele>
        <time>2019-04-19T13:38:15Z</time>
      </trkpt>
      <trkpt lat="44.15782" lon="3.14534">
        <ele>826.7</ele>
        <time>2019-04-19T13:38:16Z</time>
      </trkpt>
      <trkpt lat="44.15779" lon="3.14536">
        <ele>826.8</ele>
        <time>2019-04-19T13:38:17Z</time>
      </trkpt>
      <trkpt lat="44.15776" lon="3.14539">
        <ele>826.9</ele>
        <time>2019-04-19T13:38:18Z</time>
      </trkpt>
      <trkpt lat="44.15774" lon="3.14543">
        <ele>827</ele>
        <time>2019-04-19T13:38:19Z</time>
      </trkpt>
      <trkpt lat="44.15772" lon="3.14547">
        <ele>827.1</ele>
        <time>2019-04-19T13:38:20Z</time>
      </trkpt>
      <trkpt lat="44.1577" lon="3.14551">
        <ele>827.2</ele>
        <time>2019-04-19T13:38:21Z</time>
      </trkpt>
      <trkpt lat="44.15768" lon="3.14554">
        <ele>827.3</ele>
        <time>2019-04-19T13:38:22Z</time>
      </trkpt>
      <trkpt lat="44.15765" lon="3.14558">
        <ele>827.5</ele>
        <time>2019-04-19T13:38:23Z</time>
      </trkpt>
      <trkpt lat="44.15762" lon="3.14561">
        <ele>827.7</ele>
        <time>2019-04-19T13:38:24Z</time>
      </trkpt>
      <trkpt lat="44.15759" lon="3.14564">
        <ele>827.9</ele>
        <time>2019-04-19T13:38:25Z</time>
      </trkpt>
      <trkpt lat="44.15756" lon="3.14567">
        <ele>828.2</ele>
        <time>2019-04-19T13:38:26Z</time>
      </trkpt>
      <trkpt lat="44.15753" lon="3.14571">
        <ele>828.4</ele>
        <time>2019-04-19T13:38:28Z</time>
      </trkpt>
      <trkpt lat="44.15751" lon="3.14574">
        <ele>828.6</ele>
        <time>2019-04-19T13:38:31Z</time>
      </trkpt>
      <trkpt lat="44.15748" lon="3.14576">
        <ele>828.8</ele>
        <time>2019-04-19T13:38:33Z</time>
      </trkpt>
      <trkpt lat="44.15745" lon="3.14577">
        <ele>828.9</ele>
        <time>2019-04-19T13:38:34Z</time>
      </trkpt>
      <trkpt lat="44.15741" lon="3.14578">
        <ele>829</ele>
        <time>2019-04-19T13:38:35Z</time>
      </trkpt>
      <trkpt lat="44.15739" lon="3.14578">
        <ele>829.1</ele>
        <time>2019-04-19T13:38:36Z</time>
      </trkpt>
      <trkpt lat="44.15735" lon="3.14581">
        <ele>829.3</ele>
        <time>2019-04-19T13:38:38Z</time>
      </trkpt>
      <trkpt lat="44.15731" lon="3.14585">
        <ele>829.5</ele>
        <time>2019-04-19T13:38:40Z</time>
      </trkpt>
      <trkpt lat="44.15729" lon="3.14587">
        <ele>829.5</ele>
        <time>2019-04-19T13:38:41Z</time>
      </trkpt>
      <trkpt lat="44.15726" lon="3.1459">
        <ele>829.6</ele>
        <time>2019-04-19T13:38:42Z</time>
      </trkpt>
      <trkpt lat="44.15723" lon="3.14593">
        <ele>829.7</ele>
        <time>2019-04-19T13:38:43Z</time>
      </trkpt>
      <trkpt lat="44.15719" lon="3.14597">
        <ele>829.8</ele>
        <time>2019-04-19T13:38:44Z</time>
      </trkpt>
      <trkpt lat="44.15716" lon="3.146">
        <ele>829.8</ele>
        <time>2019-04-19T13:38:45Z</time>
      </trkpt>
      <trkpt lat="44.15712" lon="3.14602">
        <ele>829.8</ele>
        <time>2019-04-19T13:38:46Z</time>
      </trkpt>
      <trkpt lat="44.15708" lon="3.14604">
        <ele>829.7</ele>
        <time>2019-04-19T13:38:47Z</time>
      </trkpt>
      <trkpt lat="44.15705" lon="3.14605">
        <ele>829.6</ele>
        <time>2019-04-19T13:38:48Z</time>
      </trkpt>
      <trkpt lat="44.15702" lon="3.14607">
        <ele>829.5</ele>
        <time>2019-04-19T13:38:49Z</time>
      </trkpt>
      <trkpt lat="44.15697" lon="3.1461">
        <ele>829.4</ele>
        <time>2019-04-19T13:38:51Z</time>
      </trkpt>
      <trkpt lat="44.15694" lon="3.14612">
        <ele>829.3</ele>
        <time>2019-04-19T13:38:53Z</time>
      </trkpt>
      <trkpt lat="44.15691" lon="3.14612">
        <ele>829.2</ele>
        <time>2019-04-19T13:38:54Z</time>
      </trkpt>
      <trkpt lat="44.15686" lon="3.14612">
        <ele>829.1</ele>
        <time>2019-04-19T13:38:55Z</time>
      </trkpt>
      <trkpt lat="44.15681" lon="3.14612">
        <ele>829</ele>
        <time>2019-04-19T13:38:56Z</time>
      </trkpt>
      <trkpt lat="44.15677" lon="3.14613">
        <ele>829</ele>
        <time>2019-04-19T13:38:57Z</time>
      </trkpt>
      <trkpt lat="44.15672" lon="3.14615">
        <ele>829</ele>
        <time>2019-04-19T13:38:58Z</time>
      </trkpt>
      <trkpt lat="44.15668" lon="3.14618">
        <ele>829</ele>
        <time>2019-04-19T13:38:59Z</time>
      </trkpt>
      <trkpt lat="44.15664" lon="3.14622">
        <ele>829</ele>
        <time>2019-04-19T13:39:00Z</time>
      </trkpt>
      <trkpt lat="44.1566" lon="3.14627">
        <ele>829.1</ele>
        <time>2019-04-19T13:39:01Z</time>
      </trkpt>
      <trkpt lat="44.15656" lon="3.14631">
        <ele>829.2</ele>
        <time>2019-04-19T13:39:02Z</time>
      </trkpt>
      <trkpt lat="44.15653" lon="3.14635">
        <ele>829.3</ele>
        <time>2019-04-19T13:39:03Z</time>
      </trkpt>
      <trkpt lat="44.1565" lon="3.14639">
        <ele>829.5</ele>
        <time>2019-04-19T13:39:04Z</time>
      </trkpt>
      <trkpt lat="44.15648" lon="3.14643">
        <ele>829.9</ele>
        <time>2019-04-19T13:39:05Z</time>
      </trkpt>
      <trkpt lat="44.15646" lon="3.14646">
        <ele>830.1</ele>
        <time>2019-04-19T13:39:06Z</time>
      </trkpt>
      <trkpt lat="44.15643" lon="3.14652">
        <ele>830.4</ele>
        <time>2019-04-19T13:39:08Z</time>
      </trkpt>
      <trkpt lat="44.1564" lon="3.14657">
        <ele>830.8</ele>
        <time>2019-04-19T13:39:10Z</time>
      </trkpt>
      <trkpt lat="44.15638" lon="3.14661">
        <ele>831</ele>
        <time>2019-04-19T13:39:11Z</time>
      </trkpt>
      <trkpt lat="44.15637" lon="3.14667">
        <ele>831.4</ele>
        <time>2019-04-19T13:39:13Z</time>
      </trkpt>
      <trkpt lat="44.15637" lon="3.14671">
        <ele>831.6</ele>
        <time>2019-04-19T13:39:14Z</time>
      </trkpt>
      <trkpt lat="44.15636" lon="3.14679">
        <ele>832.2</ele>
        <time>2019-04-19T13:39:16Z</time>
      </trkpt>
      <trkpt lat="44.15635" lon="3.14683">
        <ele>832.5</ele>
        <time>2019-04-19T13:39:17Z</time>
      </trkpt>
      <trkpt lat="44.15634" lon="3.14686">
        <ele>832.8</ele>
        <time>2019-04-19T13:39:18Z</time>
      </trkpt>
      <trkpt lat="44.15633" lon="3.14691">
        <ele>833.1</ele>
        <time>2019-04-19T13:39:19Z</time>
      </trkpt>
      <trkpt lat="44.15632" lon="3.14696">
        <ele>833.4</ele>
        <time>2019-04-19T13:39:20Z</time>
      </trkpt>
      <trkpt lat="44.15632" lon="3.14701">
        <ele>833.7</ele>
        <time>2019-04-19T13:39:21Z</time>
      </trkpt>
      <trkpt lat="44.15631" lon="3.14705">
        <ele>833.9</ele>
        <time>2019-04-19T13:39:22Z</time>
      </trkpt>
      <trkpt lat="44.15631" lon="3.1471">
        <ele>834.1</ele>
        <time>2019-04-19T13:39:23Z</time>
      </trkpt>
      <trkpt lat="44.15629" lon="3.14717">
        <ele>834.6</ele>
        <time>2019-04-19T13:39:25Z</time>
      </trkpt>
      <trkpt lat="44.15628" lon="3.1472">
        <ele>834.8</ele>
        <time>2019-04-19T13:39:26Z</time>
      </trkpt>
      <trkpt lat="44.15626" lon="3.14724">
        <ele>835.1</ele>
        <time>2019-04-19T13:39:27Z</time>
      </trkpt>
      <trkpt lat="44.15624" lon="3.14729">
        <ele>835.5</ele>
        <time>2019-04-19T13:39:29Z</time>
      </trkpt>
      <trkpt lat="44.15622" lon="3.14733">
        <ele>835.9</ele>
        <time>2019-04-19T13:39:31Z</time>
      </trkpt>
      <trkpt lat="44.1562" lon="3.1474">
        <ele>836.2</ele>
        <time>2019-04-19T13:39:33Z</time>
      </trkpt>
      <trkpt lat="44.15619" lon="3.14744">
        <ele>836.4</ele>
        <time>2019-04-19T13:39:34Z</time>
      </trkpt>
      <trkpt lat="44.15618" lon="3.14749">
        <ele>836.6</ele>
        <time>2019-04-19T13:39:35Z</time>
      </trkpt>
      <trkpt lat="44.15618" lon="3.14754">
        <ele>836.5</ele>
        <time>2019-04-19T13:39:36Z</time>
      </trkpt>
      <trkpt lat="44.15616" lon="3.14759">
        <ele>836.5</ele>
        <time>2019-04-19T13:39:37Z</time>
      </trkpt>
      <trkpt lat="44.15615" lon="3.14762">
        <ele>836.7</ele>
        <time>2019-04-19T13:39:38Z</time>
      </trkpt>
      <trkpt lat="44.15612" lon="3.14768">
        <ele>837</ele>
        <time>2019-04-19T13:39:40Z</time>
      </trkpt>
      <trkpt lat="44.15612" lon="3.14773">
        <ele>836.9</ele>
        <time>2019-04-19T13:39:42Z</time>
      </trkpt>
      <trkpt lat="44.15613" lon="3.14779">
        <ele>836.6</ele>
        <time>2019-04-19T13:39:44Z</time>
      </trkpt>
      <trkpt lat="44.15611" lon="3.14785">
        <ele>836.8</ele>
        <time>2019-04-19T13:39:46Z</time>
      </trkpt>
      <trkpt lat="44.15607" lon="3.14788">
        <ele>837.1</ele>
        <time>2019-04-19T13:39:48Z</time>
      </trkpt>
      <trkpt lat="44.15604" lon="3.14791">
        <ele>837.3</ele>
        <time>2019-04-19T13:39:50Z</time>
      </trkpt>
      <trkpt lat="44.15601" lon="3.14796">
        <ele>837.6</ele>
        <time>2019-04-19T13:39:52Z</time>
      </trkpt>
      <trkpt lat="44.15599" lon="3.14798">
        <ele>837.9</ele>
        <time>2019-04-19T13:39:53Z</time>
      </trkpt>
      <trkpt lat="44.15596" lon="3.14803">
        <ele>838.3</ele>
        <time>2019-04-19T13:39:55Z</time>
      </trkpt>
      <trkpt lat="44.15593" lon="3.14805">
        <ele>838.6</ele>
        <time>2019-04-19T13:39:57Z</time>
      </trkpt>
      <trkpt lat="44.1559" lon="3.14807">
        <ele>839.1</ele>
        <time>2019-04-19T13:39:59Z</time>
      </trkpt>
      <trkpt lat="44.15587" lon="3.14809">
        <ele>839.5</ele>
        <time>2019-04-19T13:40:00Z</time>
      </trkpt>
      <trkpt lat="44.15584" lon="3.14812">
        <ele>840</ele>
        <time>2019-04-19T13:40:01Z</time>
      </trkpt>
      <trkpt lat="44.15582" lon="3.14814">
        <ele>840.4</ele>
        <time>2019-04-19T13:40:02Z</time>
      </trkpt>
      <trkpt lat="44.15578" lon="3.14817">
        <ele>840.8</ele>
        <time>2019-04-19T13:40:04Z</time>
      </trkpt>
      <trkpt lat="44.15575" lon="3.14822">
        <ele>841.3</ele>
        <time>2019-04-19T13:40:06Z</time>
      </trkpt>
      <trkpt lat="44.15573" lon="3.14825">
        <ele>841.7</ele>
        <time>2019-04-19T13:40:10Z</time>
      </trkpt>
      <trkpt lat="44.1557" lon="3.1483">
        <ele>841.8</ele>
        <time>2019-04-19T13:40:14Z</time>
      </trkpt>
      <trkpt lat="44.15569" lon="3.14836">
        <ele>842.4</ele>
        <time>2019-04-19T13:40:16Z</time>
      </trkpt>
      <trkpt lat="44.15567" lon="3.14841">
        <ele>842.9</ele>
        <time>2019-04-19T13:40:18Z</time>
      </trkpt>
      <trkpt lat="44.15564" lon="3.14846">
        <ele>843</ele>
        <time>2019-04-19T13:40:20Z</time>
      </trkpt>
      <trkpt lat="44.15561" lon="3.14848">
        <ele>843.3</ele>
        <time>2019-04-19T13:40:22Z</time>
      </trkpt>
      <trkpt lat="44.15557" lon="3.1485">
        <ele>844</ele>
        <time>2019-04-19T13:40:24Z</time>
      </trkpt>
      <trkpt lat="44.15553" lon="3.14852">
        <ele>844.3</ele>
        <time>2019-04-19T13:40:26Z</time>
      </trkpt>
      <trkpt lat="44.15549" lon="3.14852">
        <ele>844.5</ele>
        <time>2019-04-19T13:40:28Z</time>
      </trkpt>
      <trkpt lat="44.15545" lon="3.14852">
        <ele>844.9</ele>
        <time>2019-04-19T13:40:30Z</time>
      </trkpt>
      <trkpt lat="44.1554" lon="3.14851">
        <ele>845</ele>
        <time>2019-04-19T13:40:32Z</time>
      </trkpt>
      <trkpt lat="44.15536" lon="3.14854">
        <ele>845.4</ele>
        <time>2019-04-19T13:40:34Z</time>
      </trkpt>
      <trkpt lat="44.15534" lon="3.14862">
        <ele>845.4</ele>
        <time>2019-04-19T13:40:36Z</time>
      </trkpt>
      <trkpt lat="44.15533" lon="3.14868">
        <ele>845.4</ele>
        <time>2019-04-19T13:40:37Z</time>
      </trkpt>
      <trkpt lat="44.15535" lon="3.14886">
        <ele>845</ele>
        <time>2019-04-19T13:40:38Z</time>
      </trkpt>
      <trkpt lat="44.15536" lon="3.14893">
        <ele>844.9</ele>
        <time>2019-04-19T13:40:39Z</time>
      </trkpt>
      <trkpt lat="44.15537" lon="3.14901">
        <ele>844.7</ele>
        <time>2019-04-19T13:40:40Z</time>
      </trkpt>
      <trkpt lat="44.15537" lon="3.14911">
        <ele>844.4</ele>
        <time>2019-04-19T13:40:41Z</time>
      </trkpt>
      <trkpt lat="44.15537" lon="3.14922">
        <ele>844.1</ele>
        <time>2019-04-19T13:40:42Z</time>
      </trkpt>
      <trkpt lat="44.15538" lon="3.14933">
        <ele>843.9</ele>
        <time>2019-04-19T13:40:43Z</time>
      </trkpt>
      <trkpt lat="44.15539" lon="3.14944">
        <ele>843.7</ele>
        <time>2019-04-19T13:40:44Z</time>
      </trkpt>
      <trkpt lat="44.15539" lon="3.14953">
        <ele>843.5</ele>
        <time>2019-04-19T13:40:45Z</time>
      </trkpt>
      <trkpt lat="44.15538" lon="3.14964">
        <ele>843.3</ele>
        <time>2019-04-19T13:40:46Z</time>
      </trkpt>
      <trkpt lat="44.15539" lon="3.14973">
        <ele>843.2</ele>
        <time>2019-04-19T13:40:47Z</time>
      </trkpt>
      <trkpt lat="44.15539" lon="3.14981">
        <ele>843.1</ele>
        <time>2019-04-19T13:40:48Z</time>
      </trkpt>
      <trkpt lat="44.15539" lon="3.14991">
        <ele>843</ele>
        <time>2019-04-19T13:40:49Z</time>
      </trkpt>
      <trkpt lat="44.1554" lon="3.14999">
        <ele>842.8</ele>
        <time>2019-04-19T13:40:50Z</time>
      </trkpt>
      <trkpt lat="44.1554" lon="3.15004">
        <ele>842.8</ele>
        <time>2019-04-19T13:40:51Z</time>
      </trkpt>
      <trkpt lat="44.1554" lon="3.15011">
        <ele>842.7</ele>
        <time>2019-04-19T13:40:52Z</time>
      </trkpt>
      <trkpt lat="44.1554" lon="3.15018">
        <ele>842.6</ele>
        <time>2019-04-19T13:40:53Z</time>
      </trkpt>
      <trkpt lat="44.15539" lon="3.15024">
        <ele>842.4</ele>
        <time>2019-04-19T13:40:54Z</time>
      </trkpt>
      <trkpt lat="44.1554" lon="3.1503">
        <ele>842.3</ele>
        <time>2019-04-19T13:40:55Z</time>
      </trkpt>
      <trkpt lat="44.15541" lon="3.15036">
        <ele>842.2</ele>
        <time>2019-04-19T13:40:56Z</time>
      </trkpt>
      <trkpt lat="44.15542" lon="3.15042">
        <ele>842.1</ele>
        <time>2019-04-19T13:40:57Z</time>
      </trkpt>
      <trkpt lat="44.15541" lon="3.15047">
        <ele>842</ele>
        <time>2019-04-19T13:40:58Z</time>
      </trkpt>
      <trkpt lat="44.15539" lon="3.15053">
        <ele>841.8</ele>
        <time>2019-04-19T13:40:59Z</time>
      </trkpt>
      <trkpt lat="44.15537" lon="3.15058">
        <ele>841.7</ele>
        <time>2019-04-19T13:41:00Z</time>
      </trkpt>
      <trkpt lat="44.15535" lon="3.15063">
        <ele>841.5</ele>
        <time>2019-04-19T13:41:01Z</time>
      </trkpt>
      <trkpt lat="44.15536" lon="3.15071">
        <ele>841.4</ele>
        <time>2019-04-19T13:41:02Z</time>
      </trkpt>
      <trkpt lat="44.15531" lon="3.15087">
        <ele>840.9</ele>
        <time>2019-04-19T13:41:04Z</time>
      </trkpt>
      <trkpt lat="44.1553" lon="3.15093">
        <ele>840.7</ele>
        <time>2019-04-19T13:41:05Z</time>
      </trkpt>
      <trkpt lat="44.15528" lon="3.15097">
        <ele>840.7</ele>
        <time>2019-04-19T13:41:06Z</time>
      </trkpt>
      <trkpt lat="44.15527" lon="3.15101">
        <ele>840.7</ele>
        <time>2019-04-19T13:41:07Z</time>
      </trkpt>
      <trkpt lat="44.15525" lon="3.15105">
        <ele>840.5</ele>
        <time>2019-04-19T13:41:08Z</time>
      </trkpt>
      <trkpt lat="44.15524" lon="3.15112">
        <ele>840.2</ele>
        <time>2019-04-19T13:41:09Z</time>
      </trkpt>
      <trkpt lat="44.15522" lon="3.15117">
        <ele>840.2</ele>
        <time>2019-04-19T13:41:10Z</time>
      </trkpt>
      <trkpt lat="44.15521" lon="3.15125">
        <ele>839.9</ele>
        <time>2019-04-19T13:41:11Z</time>
      </trkpt>
      <trkpt lat="44.15519" lon="3.15132">
        <ele>839.8</ele>
        <time>2019-04-19T13:41:12Z</time>
      </trkpt>
      <trkpt lat="44.15518" lon="3.15138">
        <ele>839.6</ele>
        <time>2019-04-19T13:41:13Z</time>
      </trkpt>
      <trkpt lat="44.15517" lon="3.15143">
        <ele>839.6</ele>
        <time>2019-04-19T13:41:15Z</time>
      </trkpt>
      <trkpt lat="44.15509" lon="3.15179">
        <ele>838.9</ele>
        <time>2019-04-19T13:41:17Z</time>
      </trkpt>
      <trkpt lat="44.15511" lon="3.15188">
        <ele>838.6</ele>
        <time>2019-04-19T13:41:18Z</time>
      </trkpt>
      <trkpt lat="44.15515" lon="3.15202">
        <ele>837.6</ele>
        <time>2019-04-19T13:41:19Z</time>
      </trkpt>
      <trkpt lat="44.15514" lon="3.15213">
        <ele>837.6</ele>
        <time>2019-04-19T13:41:20Z</time>
      </trkpt>
      <trkpt lat="44.15515" lon="3.15224">
        <ele>837</ele>
        <time>2019-04-19T13:41:21Z</time>
      </trkpt>
      <trkpt lat="44.15517" lon="3.15232">
        <ele>836.8</ele>
        <time>2019-04-19T13:41:22Z</time>
      </trkpt>
      <trkpt lat="44.15517" lon="3.15237">
        <ele>836.6</ele>
        <time>2019-04-19T13:41:24Z</time>
      </trkpt>
      <trkpt lat="44.15523" lon="3.15241">
        <ele>835.9</ele>
        <time>2019-04-19T13:41:27Z</time>
      </trkpt>
      <trkpt lat="44.15525" lon="3.15244">
        <ele>835.5</ele>
        <time>2019-04-19T13:41:28Z</time>
      </trkpt>
      <trkpt lat="44.15523" lon="3.15247">
        <ele>835.7</ele>
        <time>2019-04-19T13:41:29Z</time>
      </trkpt>
      <trkpt lat="44.15524" lon="3.15252">
        <ele>835.6</ele>
        <time>2019-04-19T13:41:31Z</time>
      </trkpt>
      <trkpt lat="44.15522" lon="3.15259">
        <ele>835.4</ele>
        <time>2019-04-19T13:41:33Z</time>
      </trkpt>
      <trkpt lat="44.15521" lon="3.15264">
        <ele>835.3</ele>
        <time>2019-04-19T13:41:35Z</time>
      </trkpt>
      <trkpt lat="44.15524" lon="3.15267">
        <ele>835.1</ele>
        <time>2019-04-19T13:41:37Z</time>
      </trkpt>
      <trkpt lat="44.15527" lon="3.15269">
        <ele>834.6</ele>
        <time>2019-04-19T13:41:39Z</time>
      </trkpt>
      <trkpt lat="44.15531" lon="3.15271">
        <ele>834.3</ele>
        <time>2019-04-19T13:41:41Z</time>
      </trkpt>
      <trkpt lat="44.15535" lon="3.15272">
        <ele>834</ele>
        <time>2019-04-19T13:41:43Z</time>
      </trkpt>
      <trkpt lat="44.15537" lon="3.15275">
        <ele>833.7</ele>
        <time>2019-04-19T13:41:45Z</time>
      </trkpt>
      <trkpt lat="44.1554" lon="3.15278">
        <ele>833.5</ele>
        <time>2019-04-19T13:41:46Z</time>
      </trkpt>
      <trkpt lat="44.15543" lon="3.15282">
        <ele>833.2</ele>
        <time>2019-04-19T13:41:47Z</time>
      </trkpt>
      <trkpt lat="44.15546" lon="3.15284">
        <ele>832.9</ele>
        <time>2019-04-19T13:41:48Z</time>
      </trkpt>
      <trkpt lat="44.15551" lon="3.15286">
        <ele>832.7</ele>
        <time>2019-04-19T13:41:49Z</time>
      </trkpt>
      <trkpt lat="44.15554" lon="3.15287">
        <ele>832.4</ele>
        <time>2019-04-19T13:41:50Z</time>
      </trkpt>
      <trkpt lat="44.15557" lon="3.15288">
        <ele>832.1</ele>
        <time>2019-04-19T13:41:51Z</time>
      </trkpt>
      <trkpt lat="44.15561" lon="3.15289">
        <ele>831.6</ele>
        <time>2019-04-19T13:41:52Z</time>
      </trkpt>
      <trkpt lat="44.15566" lon="3.15291">
        <ele>831.3</ele>
        <time>2019-04-19T13:41:53Z</time>
      </trkpt>
      <trkpt lat="44.15571" lon="3.15293">
        <ele>830.9</ele>
        <time>2019-04-19T13:41:54Z</time>
      </trkpt>
      <trkpt lat="44.15595" lon="3.15295">
        <ele>829.4</ele>
        <time>2019-04-19T13:41:56Z</time>
      </trkpt>
      <trkpt lat="44.15601" lon="3.15296">
        <ele>828.7</ele>
        <time>2019-04-19T13:41:57Z</time>
      </trkpt>
      <trkpt lat="44.15605" lon="3.15295">
        <ele>828.5</ele>
        <time>2019-04-19T13:41:58Z</time>
      </trkpt>
      <trkpt lat="44.15614" lon="3.15293">
        <ele>827.7</ele>
        <time>2019-04-19T13:41:59Z</time>
      </trkpt>
      <trkpt lat="44.15619" lon="3.15294">
        <ele>827.5</ele>
        <time>2019-04-19T13:42:00Z</time>
      </trkpt>
      <trkpt lat="44.15626" lon="3.15296">
        <ele>827.3</ele>
        <time>2019-04-19T13:42:01Z</time>
      </trkpt>
      <trkpt lat="44.15629" lon="3.15299">
        <ele>827.2</ele>
        <time>2019-04-19T13:42:03Z</time>
      </trkpt>
      <trkpt lat="44.15632" lon="3.153">
        <ele>827.1</ele>
        <time>2019-04-19T13:42:04Z</time>
      </trkpt>
      <trkpt lat="44.15637" lon="3.15303">
        <ele>827</ele>
        <time>2019-04-19T13:42:05Z</time>
      </trkpt>
      <trkpt lat="44.15643" lon="3.15304">
        <ele>826.9</ele>
        <time>2019-04-19T13:42:06Z</time>
      </trkpt>
      <trkpt lat="44.15648" lon="3.15305">
        <ele>826.8</ele>
        <time>2019-04-19T13:42:07Z</time>
      </trkpt>
      <trkpt lat="44.15652" lon="3.15306">
        <ele>826.7</ele>
        <time>2019-04-19T13:42:08Z</time>
      </trkpt>
      <trkpt lat="44.15656" lon="3.15306">
        <ele>826.7</ele>
        <time>2019-04-19T13:42:09Z</time>
      </trkpt>
      <trkpt lat="44.1566" lon="3.15305">
        <ele>826.7</ele>
        <time>2019-04-19T13:42:10Z</time>
      </trkpt>
      <trkpt lat="44.15664" lon="3.15302">
        <ele>826.5</ele>
        <time>2019-04-19T13:42:11Z</time>
      </trkpt>
      <trkpt lat="44.1567" lon="3.153">
        <ele>826.5</ele>
        <time>2019-04-19T13:42:12Z</time>
      </trkpt>
      <trkpt lat="44.15675" lon="3.15299">
        <ele>826.4</ele>
        <time>2019-04-19T13:42:13Z</time>
      </trkpt>
      <trkpt lat="44.15679" lon="3.15299">
        <ele>826.4</ele>
        <time>2019-04-19T13:42:14Z</time>
      </trkpt>
      <trkpt lat="44.15682" lon="3.15301">
        <ele>826.4</ele>
        <time>2019-04-19T13:42:15Z</time>
      </trkpt>
      <trkpt lat="44.15684" lon="3.15304">
        <ele>826.4</ele>
        <time>2019-04-19T13:42:16Z</time>
      </trkpt>
      <trkpt lat="44.15687" lon="3.15306">
        <ele>826.4</ele>
        <time>2019-04-19T13:42:17Z</time>
      </trkpt>
      <trkpt lat="44.1569" lon="3.15308">
        <ele>826.5</ele>
        <time>2019-04-19T13:42:18Z</time>
      </trkpt>
      <trkpt lat="44.15692" lon="3.15311">
        <ele>826.4</ele>
        <time>2019-04-19T13:42:19Z</time>
      </trkpt>
      <trkpt lat="44.15694" lon="3.15313">
        <ele>826.5</ele>
        <time>2019-04-19T13:42:20Z</time>
      </trkpt>
      <trkpt lat="44.15697" lon="3.15316">
        <ele>826.5</ele>
        <time>2019-04-19T13:42:21Z</time>
      </trkpt>
      <trkpt lat="44.157" lon="3.15319">
        <ele>826.5</ele>
        <time>2019-04-19T13:42:22Z</time>
      </trkpt>
      <trkpt lat="44.15704" lon="3.15321">
        <ele>826.6</ele>
        <time>2019-04-19T13:42:23Z</time>
      </trkpt>
      <trkpt lat="44.15707" lon="3.15324">
        <ele>826.6</ele>
        <time>2019-04-19T13:42:24Z</time>
      </trkpt>
      <trkpt lat="44.15709" lon="3.15326">
        <ele>826.6</ele>
        <time>2019-04-19T13:42:25Z</time>
      </trkpt>
      <trkpt lat="44.15712" lon="3.15329">
        <ele>826.7</ele>
        <time>2019-04-19T13:42:26Z</time>
      </trkpt>
      <trkpt lat="44.15715" lon="3.15332">
        <ele>826.7</ele>
        <time>2019-04-19T13:42:27Z</time>
      </trkpt>
      <trkpt lat="44.15718" lon="3.15335">
        <ele>826.8</ele>
        <time>2019-04-19T13:42:28Z</time>
      </trkpt>
      <trkpt lat="44.15721" lon="3.15339">
        <ele>826.9</ele>
        <time>2019-04-19T13:42:29Z</time>
      </trkpt>
      <trkpt lat="44.15723" lon="3.15342">
        <ele>827</ele>
        <time>2019-04-19T13:42:30Z</time>
      </trkpt>
      <trkpt lat="44.15725" lon="3.15346">
        <ele>827.1</ele>
        <time>2019-04-19T13:42:31Z</time>
      </trkpt>
      <trkpt lat="44.15727" lon="3.15349">
        <ele>827.2</ele>
        <time>2019-04-19T13:42:32Z</time>
      </trkpt>
      <trkpt lat="44.15728" lon="3.15353">
        <ele>827.3</ele>
        <time>2019-04-19T13:42:33Z</time>
      </trkpt>
      <trkpt lat="44.1573" lon="3.15357">
        <ele>827.4</ele>
        <time>2019-04-19T13:42:34Z</time>
      </trkpt>
      <trkpt lat="44.15732" lon="3.1536">
        <ele>827.5</ele>
        <time>2019-04-19T13:42:35Z</time>
      </trkpt>
      <trkpt lat="44.15735" lon="3.15363">
        <ele>827.6</ele>
        <time>2019-04-19T13:42:36Z</time>
      </trkpt>
      <trkpt lat="44.15738" lon="3.15367">
        <ele>827.8</ele>
        <time>2019-04-19T13:42:38Z</time>
      </trkpt>
      <trkpt lat="44.15742" lon="3.15373">
        <ele>828</ele>
        <time>2019-04-19T13:42:40Z</time>
      </trkpt>
      <trkpt lat="44.15744" lon="3.15377">
        <ele>828.2</ele>
        <time>2019-04-19T13:42:41Z</time>
      </trkpt>
      <trkpt lat="44.15746" lon="3.1538">
        <ele>828.3</ele>
        <time>2019-04-19T13:42:42Z</time>
      </trkpt>
      <trkpt lat="44.15749" lon="3.15382">
        <ele>828.5</ele>
        <time>2019-04-19T13:42:43Z</time>
      </trkpt>
      <trkpt lat="44.15752" lon="3.15386">
        <ele>828.7</ele>
        <time>2019-04-19T13:42:44Z</time>
      </trkpt>
      <trkpt lat="44.15755" lon="3.1539">
        <ele>828.9</ele>
        <time>2019-04-19T13:42:45Z</time>
      </trkpt>
      <trkpt lat="44.15756" lon="3.15393">
        <ele>829</ele>
        <time>2019-04-19T13:42:46Z</time>
      </trkpt>
      <trkpt lat="44.15759" lon="3.15397">
        <ele>829.2</ele>
        <time>2019-04-19T13:42:48Z</time>
      </trkpt>
      <trkpt lat="44.15763" lon="3.15399">
        <ele>829.6</ele>
        <time>2019-04-19T13:42:50Z</time>
      </trkpt>
      <trkpt lat="44.15767" lon="3.154">
        <ele>829.9</ele>
        <time>2019-04-19T13:42:52Z</time>
      </trkpt>
      <trkpt lat="44.15771" lon="3.15397">
        <ele>830.4</ele>
        <time>2019-04-19T13:42:54Z</time>
      </trkpt>
      <trkpt lat="44.15775" lon="3.15395">
        <ele>830.8</ele>
        <time>2019-04-19T13:42:56Z</time>
      </trkpt>
      <trkpt lat="44.1578" lon="3.15394">
        <ele>831.3</ele>
        <time>2019-04-19T13:42:58Z</time>
      </trkpt>
      <trkpt lat="44.15785" lon="3.15393">
        <ele>831.7</ele>
        <time>2019-04-19T13:43:00Z</time>
      </trkpt>
      <trkpt lat="44.15788" lon="3.15392">
        <ele>832</ele>
        <time>2019-04-19T13:43:02Z</time>
      </trkpt>
      <trkpt lat="44.15791" lon="3.15393">
        <ele>832.4</ele>
        <time>2019-04-19T13:43:06Z</time>
      </trkpt>
      <trkpt lat="44.15795" lon="3.15395">
        <ele>833</ele>
        <time>2019-04-19T13:43:08Z</time>
      </trkpt>
      <trkpt lat="44.15799" lon="3.15398">
        <ele>833.6</ele>
        <time>2019-04-19T13:43:10Z</time>
      </trkpt>
      <trkpt lat="44.15802" lon="3.15403">
        <ele>834.3</ele>
        <time>2019-04-19T13:43:12Z</time>
      </trkpt>
      <trkpt lat="44.15804" lon="3.15407">
        <ele>834.9</ele>
        <time>2019-04-19T13:43:14Z</time>
      </trkpt>
      <trkpt lat="44.15805" lon="3.15412">
        <ele>835.3</ele>
        <time>2019-04-19T13:43:16Z</time>
      </trkpt>
      <trkpt lat="44.15806" lon="3.15417">
        <ele>835.8</ele>
        <time>2019-04-19T13:43:18Z</time>
      </trkpt>
      <trkpt lat="44.15808" lon="3.15421">
        <ele>836.2</ele>
        <time>2019-04-19T13:43:21Z</time>
      </trkpt>
      <trkpt lat="44.15811" lon="3.15426">
        <ele>836.7</ele>
        <time>2019-04-19T13:43:23Z</time>
      </trkpt>
      <trkpt lat="44.15813" lon="3.15432">
        <ele>837.3</ele>
        <time>2019-04-19T13:43:25Z</time>
      </trkpt>
      <trkpt lat="44.15815" lon="3.15437">
        <ele>837.6</ele>
        <time>2019-04-19T13:43:27Z</time>
      </trkpt>
      <trkpt lat="44.15817" lon="3.15442">
        <ele>838.1</ele>
        <time>2019-04-19T13:43:29Z</time>
      </trkpt>
      <trkpt lat="44.15819" lon="3.15448">
        <ele>838.5</ele>
        <time>2019-04-19T13:43:31Z</time>
      </trkpt>
      <trkpt lat="44.15822" lon="3.15453">
        <ele>838.9</ele>
        <time>2019-04-19T13:43:33Z</time>
      </trkpt>
      <trkpt lat="44.15824" lon="3.15458">
        <ele>839.2</ele>
        <time>2019-04-19T13:43:35Z</time>
      </trkpt>
      <trkpt lat="44.15827" lon="3.15464">
        <ele>839.6</ele>
        <time>2019-04-19T13:43:37Z</time>
      </trkpt>
      <trkpt lat="44.15829" lon="3.15468">
        <ele>839.8</ele>
        <time>2019-04-19T13:43:39Z</time>
      </trkpt>
      <trkpt lat="44.15832" lon="3.15473">
        <ele>840.1</ele>
        <time>2019-04-19T13:43:41Z</time>
      </trkpt>
      <trkpt lat="44.15835" lon="3.15477">
        <ele>840.3</ele>
        <time>2019-04-19T13:43:43Z</time>
      </trkpt>
      <trkpt lat="44.15839" lon="3.15482">
        <ele>840.5</ele>
        <time>2019-04-19T13:43:45Z</time>
      </trkpt>
      <trkpt lat="44.15841" lon="3.15486">
        <ele>840.6</ele>
        <time>2019-04-19T13:43:46Z</time>
      </trkpt>
      <trkpt lat="44.15842" lon="3.1549">
        <ele>840.7</ele>
        <time>2019-04-19T13:43:47Z</time>
      </trkpt>
      <trkpt lat="44.15842" lon="3.15494">
        <ele>840.8</ele>
        <time>2019-04-19T13:43:48Z</time>
      </trkpt>
      <trkpt lat="44.15844" lon="3.15501">
        <ele>841.1</ele>
        <time>2019-04-19T13:43:50Z</time>
      </trkpt>
      <trkpt lat="44.15846" lon="3.15504">
        <ele>841.3</ele>
        <time>2019-04-19T13:43:51Z</time>
      </trkpt>
      <trkpt lat="44.15849" lon="3.15509">
        <ele>841.5</ele>
        <time>2019-04-19T13:43:53Z</time>
      </trkpt>
      <trkpt lat="44.15851" lon="3.15513">
        <ele>841.7</ele>
        <time>2019-04-19T13:43:55Z</time>
      </trkpt>
      <trkpt lat="44.15853" lon="3.15518">
        <ele>842</ele>
        <time>2019-04-19T13:43:57Z</time>
      </trkpt>
      <trkpt lat="44.15856" lon="3.15523">
        <ele>842.3</ele>
        <time>2019-04-19T13:43:59Z</time>
      </trkpt>
      <trkpt lat="44.15858" lon="3.15526">
        <ele>842.5</ele>
        <time>2019-04-19T13:44:00Z</time>
      </trkpt>
      <trkpt lat="44.15859" lon="3.1553">
        <ele>842.8</ele>
        <time>2019-04-19T13:44:01Z</time>
      </trkpt>
      <trkpt lat="44.1586" lon="3.15534">
        <ele>843.1</ele>
        <time>2019-04-19T13:44:02Z</time>
      </trkpt>
      <trkpt lat="44.15861" lon="3.1554">
        <ele>843.5</ele>
        <time>2019-04-19T13:44:04Z</time>
      </trkpt>
      <trkpt lat="44.15863" lon="3.15545">
        <ele>843.8</ele>
        <time>2019-04-19T13:44:06Z</time>
      </trkpt>
      <trkpt lat="44.15864" lon="3.1555">
        <ele>844.1</ele>
        <time>2019-04-19T13:44:08Z</time>
      </trkpt>
      <trkpt lat="44.15865" lon="3.15555">
        <ele>844.3</ele>
        <time>2019-04-19T13:44:10Z</time>
      </trkpt>
      <trkpt lat="44.15865" lon="3.15559">
        <ele>844.6</ele>
        <time>2019-04-19T13:44:12Z</time>
      </trkpt>
      <trkpt lat="44.15865" lon="3.15567">
        <ele>845</ele>
        <time>2019-04-19T13:44:14Z</time>
      </trkpt>
      <trkpt lat="44.15866" lon="3.15573">
        <ele>845.3</ele>
        <time>2019-04-19T13:44:16Z</time>
      </trkpt>
      <trkpt lat="44.15867" lon="3.15578">
        <ele>845.6</ele>
        <time>2019-04-19T13:44:18Z</time>
      </trkpt>
      <trkpt lat="44.15867" lon="3.15583">
        <ele>845.8</ele>
        <time>2019-04-19T13:44:20Z</time>
      </trkpt>
      <trkpt lat="44.15866" lon="3.15587">
        <ele>846</ele>
        <time>2019-04-19T13:44:25Z</time>
      </trkpt>
      <trkpt lat="44.1587" lon="3.15597">
        <ele>846.4</ele>
        <time>2019-04-19T13:44:57Z</time>
      </trkpt>
      <trkpt lat="44.15871" lon="3.15601">
        <ele>846.4</ele>
        <time>2019-04-19T13:45:04Z</time>
      </trkpt>
      <trkpt lat="44.15874" lon="3.15603">
        <ele>846.6</ele>
        <time>2019-04-19T13:45:07Z</time>
      </trkpt>
      <trkpt lat="44.15877" lon="3.15606">
        <ele>846.8</ele>
        <time>2019-04-19T13:45:09Z</time>
      </trkpt>
      <trkpt lat="44.1588" lon="3.1561">
        <ele>847</ele>
        <time>2019-04-19T13:45:11Z</time>
      </trkpt>
      <trkpt lat="44.15882" lon="3.15614">
        <ele>847.2</ele>
        <time>2019-04-19T13:45:13Z</time>
      </trkpt>
      <trkpt lat="44.15885" lon="3.15617">
        <ele>847.5</ele>
        <time>2019-04-19T13:45:15Z</time>
      </trkpt>
      <trkpt lat="44.15888" lon="3.15617">
        <ele>847.8</ele>
        <time>2019-04-19T13:45:28Z</time>
      </trkpt>
      <trkpt lat="44.15891" lon="3.15619">
        <ele>848.1</ele>
        <time>2019-04-19T13:45:33Z</time>
      </trkpt>
      <trkpt lat="44.15895" lon="3.15621">
        <ele>848.3</ele>
        <time>2019-04-19T13:45:35Z</time>
      </trkpt>
      <trkpt lat="44.15898" lon="3.15624">
        <ele>848.6</ele>
        <time>2019-04-19T13:45:37Z</time>
      </trkpt>
      <trkpt lat="44.15901" lon="3.1563">
        <ele>848.7</ele>
        <time>2019-04-19T13:45:39Z</time>
      </trkpt>
      <trkpt lat="44.15903" lon="3.15634">
        <ele>848.8</ele>
        <time>2019-04-19T13:45:41Z</time>
      </trkpt>
      <trkpt lat="44.15907" lon="3.15638">
        <ele>849.1</ele>
        <time>2019-04-19T13:45:43Z</time>
      </trkpt>
      <trkpt lat="44.1591" lon="3.1564">
        <ele>849.2</ele>
        <time>2019-04-19T13:45:45Z</time>
      </trkpt>
      <trkpt lat="44.15913" lon="3.15641">
        <ele>849.5</ele>
        <time>2019-04-19T13:45:49Z</time>
      </trkpt>
      <trkpt lat="44.15915" lon="3.15642">
        <ele>849.8</ele>
        <time>2019-04-19T13:45:52Z</time>
      </trkpt>
      <trkpt lat="44.15916" lon="3.15646">
        <ele>849.7</ele>
        <time>2019-04-19T13:46:01Z</time>
      </trkpt>
      <trkpt lat="44.1592" lon="3.15648">
        <ele>849.8</ele>
        <time>2019-04-19T13:46:04Z</time>
      </trkpt>
      <trkpt lat="44.15924" lon="3.15651">
        <ele>850.1</ele>
        <time>2019-04-19T13:46:06Z</time>
      </trkpt>
      <trkpt lat="44.15927" lon="3.15653">
        <ele>850.5</ele>
        <time>2019-04-19T13:46:08Z</time>
      </trkpt>
      <trkpt lat="44.15931" lon="3.15655">
        <ele>850.6</ele>
        <time>2019-04-19T13:46:10Z</time>
      </trkpt>
      <trkpt lat="44.15935" lon="3.15658">
        <ele>850.8</ele>
        <time>2019-04-19T13:46:12Z</time>
      </trkpt>
      <trkpt lat="44.15938" lon="3.1566">
        <ele>850.8</ele>
        <time>2019-04-19T13:46:14Z</time>
      </trkpt>
      <trkpt lat="44.15941" lon="3.15661">
        <ele>851</ele>
        <time>2019-04-19T13:46:16Z</time>
      </trkpt>
      <trkpt lat="44.15946" lon="3.15663">
        <ele>851.4</ele>
        <time>2019-04-19T13:46:18Z</time>
      </trkpt>
      <trkpt lat="44.15949" lon="3.15665">
        <ele>851.3</ele>
        <time>2019-04-19T13:46:19Z</time>
      </trkpt>
      <trkpt lat="44.15952" lon="3.15667">
        <ele>851.4</ele>
        <time>2019-04-19T13:46:20Z</time>
      </trkpt>
      <trkpt lat="44.15955" lon="3.15669">
        <ele>851.2</ele>
        <time>2019-04-19T13:46:21Z</time>
      </trkpt>
      <trkpt lat="44.15961" lon="3.15672">
        <ele>851.3</ele>
        <time>2019-04-19T13:46:23Z</time>
      </trkpt>
      <trkpt lat="44.15965" lon="3.15673">
        <ele>851.3</ele>
        <time>2019-04-19T13:46:24Z</time>
      </trkpt>
      <trkpt lat="44.15969" lon="3.15674">
        <ele>851.4</ele>
        <time>2019-04-19T13:46:25Z</time>
      </trkpt>
      <trkpt lat="44.15973" lon="3.15675">
        <ele>851.5</ele>
        <time>2019-04-19T13:46:26Z</time>
      </trkpt>
      <trkpt lat="44.15977" lon="3.15675">
        <ele>851.7</ele>
        <time>2019-04-19T13:46:27Z</time>
      </trkpt>
      <trkpt lat="44.1598" lon="3.15675">
        <ele>851.8</ele>
        <time>2019-04-19T13:46:28Z</time>
      </trkpt>
      <trkpt lat="44.15984" lon="3.15676">
        <ele>851.8</ele>
        <time>2019-04-19T13:46:29Z</time>
      </trkpt>
      <trkpt lat="44.15987" lon="3.15677">
        <ele>851.5</ele>
        <time>2019-04-19T13:46:30Z</time>
      </trkpt>
      <trkpt lat="44.15991" lon="3.15679">
        <ele>851.5</ele>
        <time>2019-04-19T13:46:31Z</time>
      </trkpt>
      <trkpt lat="44.15994" lon="3.15681">
        <ele>851.1</ele>
        <time>2019-04-19T13:46:32Z</time>
      </trkpt>
      <trkpt lat="44.15998" lon="3.15683">
        <ele>851.1</ele>
        <time>2019-04-19T13:46:33Z</time>
      </trkpt>
      <trkpt lat="44.16003" lon="3.15685">
        <ele>850.7</ele>
        <time>2019-04-19T13:46:34Z</time>
      </trkpt>
      <trkpt lat="44.16007" lon="3.15688">
        <ele>850.7</ele>
        <time>2019-04-19T13:46:35Z</time>
      </trkpt>
      <trkpt lat="44.16011" lon="3.15689">
        <ele>850.6</ele>
        <time>2019-04-19T13:46:36Z</time>
      </trkpt>
      <trkpt lat="44.16015" lon="3.15691">
        <ele>850.3</ele>
        <time>2019-04-19T13:46:37Z</time>
      </trkpt>
      <trkpt lat="44.1602" lon="3.15693">
        <ele>850.3</ele>
        <time>2019-04-19T13:46:38Z</time>
      </trkpt>
      <trkpt lat="44.16024" lon="3.15695">
        <ele>850</ele>
        <time>2019-04-19T13:46:39Z</time>
      </trkpt>
      <trkpt lat="44.16029" lon="3.15696">
        <ele>850.2</ele>
        <time>2019-04-19T13:46:40Z</time>
      </trkpt>
      <trkpt lat="44.16034" lon="3.15697">
        <ele>850.3</ele>
        <time>2019-04-19T13:46:41Z</time>
      </trkpt>
      <trkpt lat="44.16038" lon="3.15696">
        <ele>850.4</ele>
        <time>2019-04-19T13:46:42Z</time>
      </trkpt>
      <trkpt lat="44.16042" lon="3.15695">
        <ele>850.6</ele>
        <time>2019-04-19T13:46:43Z</time>
      </trkpt>
      <trkpt lat="44.16046" lon="3.15693">
        <ele>851.1</ele>
        <time>2019-04-19T13:46:44Z</time>
      </trkpt>
      <trkpt lat="44.1605" lon="3.15692">
        <ele>851.2</ele>
        <time>2019-04-19T13:46:45Z</time>
      </trkpt>
      <trkpt lat="44.16052" lon="3.15691">
        <ele>851.3</ele>
        <time>2019-04-19T13:46:46Z</time>
      </trkpt>
      <trkpt lat="44.16058" lon="3.15689">
        <ele>851.8</ele>
        <time>2019-04-19T13:46:48Z</time>
      </trkpt>
      <trkpt lat="44.16061" lon="3.15689">
        <ele>851.8</ele>
        <time>2019-04-19T13:46:49Z</time>
      </trkpt>
      <trkpt lat="44.16064" lon="3.1569">
        <ele>851.5</ele>
        <time>2019-04-19T13:46:50Z</time>
      </trkpt>
      <trkpt lat="44.16068" lon="3.1569">
        <ele>851.6</ele>
        <time>2019-04-19T13:46:51Z</time>
      </trkpt>
      <trkpt lat="44.16072" lon="3.1569">
        <ele>851.6</ele>
        <time>2019-04-19T13:46:52Z</time>
      </trkpt>
      <trkpt lat="44.16076" lon="3.15689">
        <ele>851.9</ele>
        <time>2019-04-19T13:46:53Z</time>
      </trkpt>
      <trkpt lat="44.1608" lon="3.15687">
        <ele>851.9</ele>
        <time>2019-04-19T13:46:54Z</time>
      </trkpt>
      <trkpt lat="44.16083" lon="3.15686">
        <ele>851.8</ele>
        <time>2019-04-19T13:46:55Z</time>
      </trkpt>
      <trkpt lat="44.16087" lon="3.15684">
        <ele>852.1</ele>
        <time>2019-04-19T13:46:56Z</time>
      </trkpt>
      <trkpt lat="44.1609" lon="3.15683">
        <ele>852.1</ele>
        <time>2019-04-19T13:46:57Z</time>
      </trkpt>
      <trkpt lat="44.16093" lon="3.15683">
        <ele>852.1</ele>
        <time>2019-04-19T13:46:58Z</time>
      </trkpt>
      <trkpt lat="44.16099" lon="3.15682">
        <ele>852</ele>
        <time>2019-04-19T13:47:00Z</time>
      </trkpt>
      <trkpt lat="44.16103" lon="3.15682">
        <ele>852</ele>
        <time>2019-04-19T13:47:01Z</time>
      </trkpt>
      <trkpt lat="44.16107" lon="3.15682">
        <ele>852</ele>
        <time>2019-04-19T13:47:02Z</time>
      </trkpt>
      <trkpt lat="44.16111" lon="3.15681">
        <ele>852</ele>
        <time>2019-04-19T13:47:03Z</time>
      </trkpt>
      <trkpt lat="44.16114" lon="3.15681">
        <ele>852</ele>
        <time>2019-04-19T13:47:04Z</time>
      </trkpt>
      <trkpt lat="44.16117" lon="3.15681">
        <ele>852.3</ele>
        <time>2019-04-19T13:47:05Z</time>
      </trkpt>
      <trkpt lat="44.16121" lon="3.1568">
        <ele>852.3</ele>
        <time>2019-04-19T13:47:06Z</time>
      </trkpt>
      <trkpt lat="44.16124" lon="3.15678">
        <ele>852.2</ele>
        <time>2019-04-19T13:47:07Z</time>
      </trkpt>
      <trkpt lat="44.16127" lon="3.15676">
        <ele>852.5</ele>
        <time>2019-04-19T13:47:08Z</time>
      </trkpt>
      <trkpt lat="44.1613" lon="3.15674">
        <ele>852.5</ele>
        <time>2019-04-19T13:47:09Z</time>
      </trkpt>
      <trkpt lat="44.16134" lon="3.15672">
        <ele>852.8</ele>
        <time>2019-04-19T13:47:10Z</time>
      </trkpt>
      <trkpt lat="44.16138" lon="3.15669">
        <ele>852.7</ele>
        <time>2019-04-19T13:47:11Z</time>
      </trkpt>
      <trkpt lat="44.16142" lon="3.15667">
        <ele>853</ele>
        <time>2019-04-19T13:47:12Z</time>
      </trkpt>
      <trkpt lat="44.16146" lon="3.15665">
        <ele>852.9</ele>
        <time>2019-04-19T13:47:13Z</time>
      </trkpt>
      <trkpt lat="44.16149" lon="3.15662">
        <ele>853</ele>
        <time>2019-04-19T13:47:14Z</time>
      </trkpt>
      <trkpt lat="44.16153" lon="3.15661">
        <ele>852.9</ele>
        <time>2019-04-19T13:47:15Z</time>
      </trkpt>
      <trkpt lat="44.16156" lon="3.1566">
        <ele>853.1</ele>
        <time>2019-04-19T13:47:16Z</time>
      </trkpt>
      <trkpt lat="44.1616" lon="3.15659">
        <ele>853</ele>
        <time>2019-04-19T13:47:17Z</time>
      </trkpt>
      <trkpt lat="44.16166" lon="3.15658">
        <ele>852.7</ele>
        <time>2019-04-19T13:47:18Z</time>
      </trkpt>
      <trkpt lat="44.16171" lon="3.15657">
        <ele>852.3</ele>
        <time>2019-04-19T13:47:19Z</time>
      </trkpt>
      <trkpt lat="44.16175" lon="3.15657">
        <ele>852.1</ele>
        <time>2019-04-19T13:47:20Z</time>
      </trkpt>
      <trkpt lat="44.1618" lon="3.15654">
        <ele>852.2</ele>
        <time>2019-04-19T13:47:22Z</time>
      </trkpt>
      <trkpt lat="44.16185" lon="3.15652">
        <ele>852</ele>
        <time>2019-04-19T13:47:24Z</time>
      </trkpt>
      <trkpt lat="44.16188" lon="3.15652">
        <ele>851.8</ele>
        <time>2019-04-19T13:47:25Z</time>
      </trkpt>
      <trkpt lat="44.16191" lon="3.15653">
        <ele>851.5</ele>
        <time>2019-04-19T13:47:26Z</time>
      </trkpt>
      <trkpt lat="44.16194" lon="3.15653">
        <ele>851.3</ele>
        <time>2019-04-19T13:47:27Z</time>
      </trkpt>
      <trkpt lat="44.16198" lon="3.15653">
        <ele>851.1</ele>
        <time>2019-04-19T13:47:28Z</time>
      </trkpt>
      <trkpt lat="44.16202" lon="3.15653">
        <ele>850.6</ele>
        <time>2019-04-19T13:47:29Z</time>
      </trkpt>
      <trkpt lat="44.16207" lon="3.15653">
        <ele>850.3</ele>
        <time>2019-04-19T13:47:30Z</time>
      </trkpt>
      <trkpt lat="44.16212" lon="3.15653">
        <ele>849.9</ele>
        <time>2019-04-19T13:47:31Z</time>
      </trkpt>
      <trkpt lat="44.16217" lon="3.15654">
        <ele>849.5</ele>
        <time>2019-04-19T13:47:32Z</time>
      </trkpt>
      <trkpt lat="44.16222" lon="3.15654">
        <ele>849.2</ele>
        <time>2019-04-19T13:47:33Z</time>
      </trkpt>
      <trkpt lat="44.16229" lon="3.15653">
        <ele>848.8</ele>
        <time>2019-04-19T13:47:34Z</time>
      </trkpt>
      <trkpt lat="44.16242" lon="3.15644">
        <ele>848.7</ele>
        <time>2019-04-19T13:47:35Z</time>
      </trkpt>
      <trkpt lat="44.16247" lon="3.15643">
        <ele>848.5</ele>
        <time>2019-04-19T13:47:36Z</time>
      </trkpt>
      <trkpt lat="44.16253" lon="3.15642">
        <ele>848</ele>
        <time>2019-04-19T13:47:37Z</time>
      </trkpt>
      <trkpt lat="44.16258" lon="3.15644">
        <ele>847.5</ele>
        <time>2019-04-19T13:47:38Z</time>
      </trkpt>
      <trkpt lat="44.16264" lon="3.15644">
        <ele>847.2</ele>
        <time>2019-04-19T13:47:39Z</time>
      </trkpt>
      <trkpt lat="44.1627" lon="3.15642">
        <ele>847.3</ele>
        <time>2019-04-19T13:47:40Z</time>
      </trkpt>
      <trkpt lat="44.16276" lon="3.15639">
        <ele>846.8</ele>
        <time>2019-04-19T13:47:41Z</time>
      </trkpt>
      <trkpt lat="44.16279" lon="3.15637">
        <ele>847.1</ele>
        <time>2019-04-19T13:47:42Z</time>
      </trkpt>
      <trkpt lat="44.16283" lon="3.15636">
        <ele>846.9</ele>
        <time>2019-04-19T13:47:43Z</time>
      </trkpt>
      <trkpt lat="44.16286" lon="3.15639">
        <ele>846.2</ele>
        <time>2019-04-19T13:47:44Z</time>
      </trkpt>
      <trkpt lat="44.16295" lon="3.15638">
        <ele>845.9</ele>
        <time>2019-04-19T13:47:45Z</time>
      </trkpt>
      <trkpt lat="44.163" lon="3.15637">
        <ele>845.4</ele>
        <time>2019-04-19T13:47:46Z</time>
      </trkpt>
      <trkpt lat="44.16307" lon="3.15633">
        <ele>845.2</ele>
        <time>2019-04-19T13:47:47Z</time>
      </trkpt>
      <trkpt lat="44.16311" lon="3.15636">
        <ele>844.4</ele>
        <time>2019-04-19T13:47:48Z</time>
      </trkpt>
      <trkpt lat="44.16314" lon="3.15635">
        <ele>844.1</ele>
        <time>2019-04-19T13:47:49Z</time>
      </trkpt>
      <trkpt lat="44.1632" lon="3.1563">
        <ele>843.9</ele>
        <time>2019-04-19T13:47:50Z</time>
      </trkpt>
      <trkpt lat="44.16323" lon="3.1563">
        <ele>843.6</ele>
        <time>2019-04-19T13:47:51Z</time>
      </trkpt>
      <trkpt lat="44.16321" lon="3.15627">
        <ele>844.3</ele>
        <time>2019-04-19T13:47:52Z</time>
      </trkpt>
      <trkpt lat="44.16326" lon="3.15628">
        <ele>843.7</ele>
        <time>2019-04-19T13:47:53Z</time>
      </trkpt>
      <trkpt lat="44.16332" lon="3.15627">
        <ele>843</ele>
        <time>2019-04-19T13:47:54Z</time>
      </trkpt>
      <trkpt lat="44.16337" lon="3.15625">
        <ele>842.7</ele>
        <time>2019-04-19T13:47:55Z</time>
      </trkpt>
      <trkpt lat="44.16343" lon="3.15621">
        <ele>842</ele>
        <time>2019-04-19T13:47:56Z</time>
      </trkpt>
      <trkpt lat="44.16349" lon="3.1562">
        <ele>841.9</ele>
        <time>2019-04-19T13:47:57Z</time>
      </trkpt>
      <trkpt lat="44.1636" lon="3.15617">
        <ele>840.7</ele>
        <time>2019-04-19T13:47:58Z</time>
      </trkpt>
      <trkpt lat="44.16367" lon="3.15616">
        <ele>840.2</ele>
        <time>2019-04-19T13:47:59Z</time>
      </trkpt>
      <trkpt lat="44.16374" lon="3.15611">
        <ele>839.4</ele>
        <time>2019-04-19T13:48:00Z</time>
      </trkpt>
      <trkpt lat="44.1638" lon="3.15612">
        <ele>839.1</ele>
        <time>2019-04-19T13:48:01Z</time>
      </trkpt>
      <trkpt lat="44.16384" lon="3.15611">
        <ele>838.6</ele>
        <time>2019-04-19T13:48:02Z</time>
      </trkpt>
      <trkpt lat="44.16388" lon="3.1561">
        <ele>838.3</ele>
        <time>2019-04-19T13:48:03Z</time>
      </trkpt>
      <trkpt lat="44.16393" lon="3.15609">
        <ele>837.8</ele>
        <time>2019-04-19T13:48:04Z</time>
      </trkpt>
      <trkpt lat="44.16401" lon="3.15606">
        <ele>837.2</ele>
        <time>2019-04-19T13:48:05Z</time>
      </trkpt>
      <trkpt lat="44.16406" lon="3.15605">
        <ele>836.8</ele>
        <time>2019-04-19T13:48:06Z</time>
      </trkpt>
      <trkpt lat="44.16412" lon="3.15604">
        <ele>836.4</ele>
        <time>2019-04-19T13:48:07Z</time>
      </trkpt>
      <trkpt lat="44.16417" lon="3.15603">
        <ele>835.9</ele>
        <time>2019-04-19T13:48:08Z</time>
      </trkpt>
      <trkpt lat="44.16424" lon="3.15597">
        <ele>834.9</ele>
        <time>2019-04-19T13:48:09Z</time>
      </trkpt>
      <trkpt lat="44.16429" lon="3.15594">
        <ele>834.1</ele>
        <time>2019-04-19T13:48:10Z</time>
      </trkpt>
      <trkpt lat="44.1644" lon="3.15592">
        <ele>833.7</ele>
        <time>2019-04-19T13:48:11Z</time>
      </trkpt>
      <trkpt lat="44.16447" lon="3.15592">
        <ele>833.5</ele>
        <time>2019-04-19T13:48:12Z</time>
      </trkpt>
      <trkpt lat="44.16451" lon="3.15592">
        <ele>833.3</ele>
        <time>2019-04-19T13:48:13Z</time>
      </trkpt>
      <trkpt lat="44.16456" lon="3.15593">
        <ele>833.2</ele>
        <time>2019-04-19T13:48:14Z</time>
      </trkpt>
      <trkpt lat="44.1646" lon="3.15595">
        <ele>833.1</ele>
        <time>2019-04-19T13:48:15Z</time>
      </trkpt>
      <trkpt lat="44.16464" lon="3.15597">
        <ele>833.6</ele>
        <time>2019-04-19T13:48:16Z</time>
      </trkpt>
      <trkpt lat="44.16467" lon="3.156">
        <ele>834</ele>
        <time>2019-04-19T13:48:17Z</time>
      </trkpt>
      <trkpt lat="44.16473" lon="3.15603">
        <ele>834</ele>
        <time>2019-04-19T13:48:18Z</time>
      </trkpt>
      <trkpt lat="44.16475" lon="3.15604">
        <ele>834.4</ele>
        <time>2019-04-19T13:48:19Z</time>
      </trkpt>
      <trkpt lat="44.16481" lon="3.15608">
        <ele>834.3</ele>
        <time>2019-04-19T13:48:21Z</time>
      </trkpt>
      <trkpt lat="44.16486" lon="3.15608">
        <ele>834.3</ele>
        <time>2019-04-19T13:48:22Z</time>
      </trkpt>
      <trkpt lat="44.1649" lon="3.1561">
        <ele>834.7</ele>
        <time>2019-04-19T13:48:23Z</time>
      </trkpt>
      <trkpt lat="44.16495" lon="3.15612">
        <ele>834.7</ele>
        <time>2019-04-19T13:48:25Z</time>
      </trkpt>
      <trkpt lat="44.16498" lon="3.15613">
        <ele>835.2</ele>
        <time>2019-04-19T13:48:26Z</time>
      </trkpt>
      <trkpt lat="44.165" lon="3.15615">
        <ele>835.2</ele>
        <time>2019-04-19T13:48:27Z</time>
      </trkpt>
      <trkpt lat="44.16507" lon="3.15615">
        <ele>835.5</ele>
        <time>2019-04-19T13:48:29Z</time>
      </trkpt>
      <trkpt lat="44.16511" lon="3.15614">
        <ele>835.7</ele>
        <time>2019-04-19T13:48:30Z</time>
      </trkpt>
      <trkpt lat="44.16515" lon="3.15612">
        <ele>835.4</ele>
        <time>2019-04-19T13:48:31Z</time>
      </trkpt>
      <trkpt lat="44.16519" lon="3.15611">
        <ele>836</ele>
        <time>2019-04-19T13:48:32Z</time>
      </trkpt>
      <trkpt lat="44.16523" lon="3.1561">
        <ele>836.3</ele>
        <time>2019-04-19T13:48:33Z</time>
      </trkpt>
      <trkpt lat="44.16526" lon="3.1561">
        <ele>836.7</ele>
        <time>2019-04-19T13:48:34Z</time>
      </trkpt>
      <trkpt lat="44.1653" lon="3.15609">
        <ele>837.1</ele>
        <time>2019-04-19T13:48:35Z</time>
      </trkpt>
      <trkpt lat="44.16533" lon="3.15609">
        <ele>837.6</ele>
        <time>2019-04-19T13:48:36Z</time>
      </trkpt>
      <trkpt lat="44.16537" lon="3.1561">
        <ele>838</ele>
        <time>2019-04-19T13:48:37Z</time>
      </trkpt>
      <trkpt lat="44.16541" lon="3.15611">
        <ele>839</ele>
        <time>2019-04-19T13:48:39Z</time>
      </trkpt>
      <trkpt lat="44.16546" lon="3.15611">
        <ele>840</ele>
        <time>2019-04-19T13:48:41Z</time>
      </trkpt>
      <trkpt lat="44.16549" lon="3.15609">
        <ele>840.5</ele>
        <time>2019-04-19T13:48:42Z</time>
      </trkpt>
      <trkpt lat="44.16552" lon="3.15608">
        <ele>841</ele>
        <time>2019-04-19T13:48:43Z</time>
      </trkpt>
      <trkpt lat="44.16555" lon="3.15607">
        <ele>840.7</ele>
        <time>2019-04-19T13:48:44Z</time>
      </trkpt>
      <trkpt lat="44.16558" lon="3.15606">
        <ele>841.2</ele>
        <time>2019-04-19T13:48:46Z</time>
      </trkpt>
      <trkpt lat="44.16561" lon="3.15601">
        <ele>841.4</ele>
        <time>2019-04-19T13:48:48Z</time>
      </trkpt>
      <trkpt lat="44.16564" lon="3.15599">
        <ele>841.6</ele>
        <time>2019-04-19T13:48:50Z</time>
      </trkpt>
      <trkpt lat="44.16567" lon="3.15599">
        <ele>842.1</ele>
        <time>2019-04-19T13:48:52Z</time>
      </trkpt>
      <trkpt lat="44.16571" lon="3.15599">
        <ele>843</ele>
        <time>2019-04-19T13:48:54Z</time>
      </trkpt>
      <trkpt lat="44.16574" lon="3.15599">
        <ele>843.4</ele>
        <time>2019-04-19T13:48:56Z</time>
      </trkpt>
      <trkpt lat="44.16577" lon="3.15599">
        <ele>843.9</ele>
        <time>2019-04-19T13:48:58Z</time>
      </trkpt>
      <trkpt lat="44.16581" lon="3.15597">
        <ele>844.4</ele>
        <time>2019-04-19T13:49:00Z</time>
      </trkpt>
      <trkpt lat="44.16584" lon="3.15593">
        <ele>844.6</ele>
        <time>2019-04-19T13:49:02Z</time>
      </trkpt>
      <trkpt lat="44.16588" lon="3.15587">
        <ele>844.8</ele>
        <time>2019-04-19T13:49:04Z</time>
      </trkpt>
      <trkpt lat="44.1659" lon="3.15585">
        <ele>845</ele>
        <time>2019-04-19T13:49:05Z</time>
      </trkpt>
      <trkpt lat="44.16593" lon="3.15579">
        <ele>845</ele>
        <time>2019-04-19T13:49:07Z</time>
      </trkpt>
      <trkpt lat="44.16595" lon="3.15573">
        <ele>844.3</ele>
        <time>2019-04-19T13:49:09Z</time>
      </trkpt>
      <trkpt lat="44.16597" lon="3.15569">
        <ele>844.3</ele>
        <time>2019-04-19T13:49:10Z</time>
      </trkpt>
      <trkpt lat="44.16598" lon="3.15565">
        <ele>844.6</ele>
        <time>2019-04-19T13:49:11Z</time>
      </trkpt>
      <trkpt lat="44.166" lon="3.15562">
        <ele>844.3</ele>
        <time>2019-04-19T13:49:12Z</time>
      </trkpt>
      <trkpt lat="44.16601" lon="3.15558">
        <ele>844</ele>
        <time>2019-04-19T13:49:13Z</time>
      </trkpt>
      <trkpt lat="44.16602" lon="3.15553">
        <ele>844</ele>
        <time>2019-04-19T13:49:15Z</time>
      </trkpt>
      <trkpt lat="44.16604" lon="3.15547">
        <ele>844.2</ele>
        <time>2019-04-19T13:49:17Z</time>
      </trkpt>
      <trkpt lat="44.16607" lon="3.15542">
        <ele>844.4</ele>
        <time>2019-04-19T13:49:19Z</time>
      </trkpt>
      <trkpt lat="44.16609" lon="3.15537">
        <ele>844.6</ele>
        <time>2019-04-19T13:49:21Z</time>
      </trkpt>
      <trkpt lat="44.16612" lon="3.15533">
        <ele>844.8</ele>
        <time>2019-04-19T13:49:23Z</time>
      </trkpt>
      <trkpt lat="44.16615" lon="3.15532">
        <ele>844.9</ele>
        <time>2019-04-19T13:49:24Z</time>
      </trkpt>
      <trkpt lat="44.16618" lon="3.15529">
        <ele>845.1</ele>
        <time>2019-04-19T13:49:25Z</time>
      </trkpt>
      <trkpt lat="44.16621" lon="3.15526">
        <ele>845.3</ele>
        <time>2019-04-19T13:49:26Z</time>
      </trkpt>
      <trkpt lat="44.16624" lon="3.15523">
        <ele>845.4</ele>
        <time>2019-04-19T13:49:27Z</time>
      </trkpt>
      <trkpt lat="44.16627" lon="3.15521">
        <ele>845.4</ele>
        <time>2019-04-19T13:49:28Z</time>
      </trkpt>
      <trkpt lat="44.1663" lon="3.15518">
        <ele>845.5</ele>
        <time>2019-04-19T13:49:30Z</time>
      </trkpt>
      <trkpt lat="44.16634" lon="3.15514">
        <ele>845.6</ele>
        <time>2019-04-19T13:49:32Z</time>
      </trkpt>
      <trkpt lat="44.16638" lon="3.15511">
        <ele>845.8</ele>
        <time>2019-04-19T13:49:34Z</time>
      </trkpt>
      <trkpt lat="44.1664" lon="3.15509">
        <ele>845.9</ele>
        <time>2019-04-19T13:49:35Z</time>
      </trkpt>
      <trkpt lat="44.16643" lon="3.15506">
        <ele>846</ele>
        <time>2019-04-19T13:49:36Z</time>
      </trkpt>
      <trkpt lat="44.16646" lon="3.15504">
        <ele>846.2</ele>
        <time>2019-04-19T13:49:37Z</time>
      </trkpt>
      <trkpt lat="44.1665" lon="3.155">
        <ele>846.3</ele>
        <time>2019-04-19T13:49:39Z</time>
      </trkpt>
      <trkpt lat="44.16652" lon="3.15498">
        <ele>846.4</ele>
        <time>2019-04-19T13:49:40Z</time>
      </trkpt>
      <trkpt lat="44.16655" lon="3.15495">
        <ele>846.4</ele>
        <time>2019-04-19T13:49:41Z</time>
      </trkpt>
      <trkpt lat="44.16658" lon="3.15492">
        <ele>846.4</ele>
        <time>2019-04-19T13:49:42Z</time>
      </trkpt>
      <trkpt lat="44.1666" lon="3.15491">
        <ele>846.4</ele>
        <time>2019-04-19T13:49:43Z</time>
      </trkpt>
      <trkpt lat="44.16664" lon="3.15487">
        <ele>846.4</ele>
        <time>2019-04-19T13:49:45Z</time>
      </trkpt>
      <trkpt lat="44.16668" lon="3.15483">
        <ele>846.5</ele>
        <time>2019-04-19T13:49:47Z</time>
      </trkpt>
      <trkpt lat="44.16671" lon="3.15481">
        <ele>846.6</ele>
        <time>2019-04-19T13:49:48Z</time>
      </trkpt>
      <trkpt lat="44.16674" lon="3.1548">
        <ele>846.6</ele>
        <time>2019-04-19T13:49:49Z</time>
      </trkpt>
      <trkpt lat="44.16677" lon="3.15478">
        <ele>846.6</ele>
        <time>2019-04-19T13:49:50Z</time>
      </trkpt>
      <trkpt lat="44.1668" lon="3.15477">
        <ele>846.6</ele>
        <time>2019-04-19T13:49:52Z</time>
      </trkpt>
      <trkpt lat="44.16683" lon="3.15476">
        <ele>846.7</ele>
        <time>2019-04-19T13:49:54Z</time>
      </trkpt>
      <trkpt lat="44.16687" lon="3.15477">
        <ele>846.7</ele>
        <time>2019-04-19T13:49:57Z</time>
      </trkpt>
      <trkpt lat="44.1669" lon="3.15475">
        <ele>846.9</ele>
        <time>2019-04-19T13:50:00Z</time>
      </trkpt>
      <trkpt lat="44.16693" lon="3.1547">
        <ele>847.2</ele>
        <time>2019-04-19T13:50:02Z</time>
      </trkpt>
      <trkpt lat="44.16694" lon="3.15466">
        <ele>847.4</ele>
        <time>2019-04-19T13:50:03Z</time>
      </trkpt>
      <trkpt lat="44.16696" lon="3.15459">
        <ele>847.7</ele>
        <time>2019-04-19T13:50:05Z</time>
      </trkpt>
      <trkpt lat="44.16697" lon="3.15452">
        <ele>847.2</ele>
        <time>2019-04-19T13:50:07Z</time>
      </trkpt>
      <trkpt lat="44.16698" lon="3.15448">
        <ele>847</ele>
        <time>2019-04-19T13:50:08Z</time>
      </trkpt>
      <trkpt lat="44.16699" lon="3.15444">
        <ele>846.9</ele>
        <time>2019-04-19T13:50:09Z</time>
      </trkpt>
      <trkpt lat="44.16699" lon="3.15439">
        <ele>846.8</ele>
        <time>2019-04-19T13:50:10Z</time>
      </trkpt>
      <trkpt lat="44.16699" lon="3.15434">
        <ele>846.7</ele>
        <time>2019-04-19T13:50:11Z</time>
      </trkpt>
      <trkpt lat="44.16698" lon="3.15429">
        <ele>846.4</ele>
        <time>2019-04-19T13:50:12Z</time>
      </trkpt>
      <trkpt lat="44.16698" lon="3.15425">
        <ele>846.2</ele>
        <time>2019-04-19T13:50:13Z</time>
      </trkpt>
      <trkpt lat="44.16696" lon="3.1542">
        <ele>845.8</ele>
        <time>2019-04-19T13:50:15Z</time>
      </trkpt>
      <trkpt lat="44.16696" lon="3.15414">
        <ele>845.6</ele>
        <time>2019-04-19T13:50:17Z</time>
      </trkpt>
      <trkpt lat="44.16698" lon="3.1541">
        <ele>845.4</ele>
        <time>2019-04-19T13:50:19Z</time>
      </trkpt>
      <trkpt lat="44.16702" lon="3.15408">
        <ele>845.3</ele>
        <time>2019-04-19T13:50:21Z</time>
      </trkpt>
      <trkpt lat="44.16707" lon="3.15406">
        <ele>845.2</ele>
        <time>2019-04-19T13:50:23Z</time>
      </trkpt>
      <trkpt lat="44.16709" lon="3.15403">
        <ele>845.2</ele>
        <time>2019-04-19T13:50:24Z</time>
      </trkpt>
      <trkpt lat="44.16713" lon="3.154">
        <ele>845.2</ele>
        <time>2019-04-19T13:50:25Z</time>
      </trkpt>
      <trkpt lat="44.16715" lon="3.15398">
        <ele>845.4</ele>
        <time>2019-04-19T13:50:26Z</time>
      </trkpt>
      <trkpt lat="44.16719" lon="3.15393">
        <ele>845.7</ele>
        <time>2019-04-19T13:50:28Z</time>
      </trkpt>
      <trkpt lat="44.16723" lon="3.15387">
        <ele>845.8</ele>
        <time>2019-04-19T13:50:30Z</time>
      </trkpt>
      <trkpt lat="44.16725" lon="3.15383">
        <ele>845.9</ele>
        <time>2019-04-19T13:50:31Z</time>
      </trkpt>
      <trkpt lat="44.16727" lon="3.15379">
        <ele>845.8</ele>
        <time>2019-04-19T13:50:32Z</time>
      </trkpt>
      <trkpt lat="44.16729" lon="3.15375">
        <ele>845.7</ele>
        <time>2019-04-19T13:50:33Z</time>
      </trkpt>
      <trkpt lat="44.1673" lon="3.15371">
        <ele>845.5</ele>
        <time>2019-04-19T13:50:34Z</time>
      </trkpt>
      <trkpt lat="44.16731" lon="3.15367">
        <ele>845.5</ele>
        <time>2019-04-19T13:50:35Z</time>
      </trkpt>
      <trkpt lat="44.16734" lon="3.15363">
        <ele>845.4</ele>
        <time>2019-04-19T13:50:37Z</time>
      </trkpt>
      <trkpt lat="44.16736" lon="3.1536">
        <ele>845.3</ele>
        <time>2019-04-19T13:50:42Z</time>
      </trkpt>
      <trkpt lat="44.16742" lon="3.1535">
        <ele>844.6</ele>
        <time>2019-04-19T13:50:57Z</time>
      </trkpt>
      <trkpt lat="44.16744" lon="3.15347">
        <ele>844.6</ele>
        <time>2019-04-19T13:51:05Z</time>
      </trkpt>
      <trkpt lat="44.16747" lon="3.1534">
        <ele>844.9</ele>
        <time>2019-04-19T13:51:07Z</time>
      </trkpt>
      <trkpt lat="44.16749" lon="3.15335">
        <ele>845.2</ele>
        <time>2019-04-19T13:51:08Z</time>
      </trkpt>
      <trkpt lat="44.16751" lon="3.1533">
        <ele>845.5</ele>
        <time>2019-04-19T13:51:09Z</time>
      </trkpt>
      <trkpt lat="44.16753" lon="3.15324">
        <ele>845.4</ele>
        <time>2019-04-19T13:51:10Z</time>
      </trkpt>
      <trkpt lat="44.16754" lon="3.15318">
        <ele>845.4</ele>
        <time>2019-04-19T13:51:11Z</time>
      </trkpt>
      <trkpt lat="44.16755" lon="3.15313">
        <ele>845.7</ele>
        <time>2019-04-19T13:51:12Z</time>
      </trkpt>
      <trkpt lat="44.16755" lon="3.15309">
        <ele>846</ele>
        <time>2019-04-19T13:51:13Z</time>
      </trkpt>
      <trkpt lat="44.16756" lon="3.15304">
        <ele>845.6</ele>
        <time>2019-04-19T13:51:14Z</time>
      </trkpt>
      <trkpt lat="44.16757" lon="3.15299">
        <ele>844.9</ele>
        <time>2019-04-19T13:51:15Z</time>
      </trkpt>
      <trkpt lat="44.16759" lon="3.15294">
        <ele>844.3</ele>
        <time>2019-04-19T13:51:16Z</time>
      </trkpt>
      <trkpt lat="44.16767" lon="3.15288">
        <ele>843.9</ele>
        <time>2019-04-19T13:51:17Z</time>
      </trkpt>
      <trkpt lat="44.16774" lon="3.15278">
        <ele>843.3</ele>
        <time>2019-04-19T13:51:18Z</time>
      </trkpt>
      <trkpt lat="44.16771" lon="3.15268">
        <ele>843</ele>
        <time>2019-04-19T13:51:19Z</time>
      </trkpt>
      <trkpt lat="44.16775" lon="3.15257">
        <ele>842.9</ele>
        <time>2019-04-19T13:51:20Z</time>
      </trkpt>
      <trkpt lat="44.16779" lon="3.15243">
        <ele>842.9</ele>
        <time>2019-04-19T13:51:21Z</time>
      </trkpt>
      <trkpt lat="44.16779" lon="3.15233">
        <ele>842.9</ele>
        <time>2019-04-19T13:51:22Z</time>
      </trkpt>
      <trkpt lat="44.16779" lon="3.15226">
        <ele>842.8</ele>
        <time>2019-04-19T13:51:23Z</time>
      </trkpt>
      <trkpt lat="44.16779" lon="3.15218">
        <ele>842.8</ele>
        <time>2019-04-19T13:51:24Z</time>
      </trkpt>
      <trkpt lat="44.16779" lon="3.15208">
        <ele>842.7</ele>
        <time>2019-04-19T13:51:25Z</time>
      </trkpt>
      <trkpt lat="44.16789" lon="3.152">
        <ele>842.2</ele>
        <time>2019-04-19T13:51:26Z</time>
      </trkpt>
      <trkpt lat="44.16793" lon="3.15195">
        <ele>842.2</ele>
        <time>2019-04-19T13:51:27Z</time>
      </trkpt>
      <trkpt lat="44.16797" lon="3.15191">
        <ele>842.1</ele>
        <time>2019-04-19T13:51:28Z</time>
      </trkpt>
      <trkpt lat="44.16796" lon="3.15182">
        <ele>842</ele>
        <time>2019-04-19T13:51:29Z</time>
      </trkpt>
      <trkpt lat="44.16797" lon="3.15173">
        <ele>841.8</ele>
        <time>2019-04-19T13:51:30Z</time>
      </trkpt>
      <trkpt lat="44.16798" lon="3.15164">
        <ele>841.7</ele>
        <time>2019-04-19T13:51:31Z</time>
      </trkpt>
      <trkpt lat="44.168" lon="3.15156">
        <ele>841.7</ele>
        <time>2019-04-19T13:51:32Z</time>
      </trkpt>
      <trkpt lat="44.16803" lon="3.15147">
        <ele>841.7</ele>
        <time>2019-04-19T13:51:33Z</time>
      </trkpt>
      <trkpt lat="44.16806" lon="3.15141">
        <ele>841.8</ele>
        <time>2019-04-19T13:51:34Z</time>
      </trkpt>
      <trkpt lat="44.16809" lon="3.15134">
        <ele>841.7</ele>
        <time>2019-04-19T13:51:35Z</time>
      </trkpt>
      <trkpt lat="44.16811" lon="3.15128">
        <ele>841.7</ele>
        <time>2019-04-19T13:51:36Z</time>
      </trkpt>
      <trkpt lat="44.16813" lon="3.15121">
        <ele>841.6</ele>
        <time>2019-04-19T13:51:37Z</time>
      </trkpt>
      <trkpt lat="44.16815" lon="3.15106">
        <ele>841.5</ele>
        <time>2019-04-19T13:51:38Z</time>
      </trkpt>
      <trkpt lat="44.16816" lon="3.151">
        <ele>841.5</ele>
        <time>2019-04-19T13:51:39Z</time>
      </trkpt>
      <trkpt lat="44.16818" lon="3.15095">
        <ele>841.5</ele>
        <time>2019-04-19T13:51:40Z</time>
      </trkpt>
      <trkpt lat="44.16818" lon="3.15089">
        <ele>841.5</ele>
        <time>2019-04-19T13:51:41Z</time>
      </trkpt>
      <trkpt lat="44.16817" lon="3.15084">
        <ele>841.3</ele>
        <time>2019-04-19T13:51:46Z</time>
      </trkpt>
      <trkpt lat="44.16817" lon="3.1508">
        <ele>841.2</ele>
        <time>2019-04-19T13:51:48Z</time>
      </trkpt>
      <trkpt lat="44.16814" lon="3.15076">
        <ele>841.1</ele>
        <time>2019-04-19T13:51:51Z</time>
      </trkpt>
      <trkpt lat="44.16813" lon="3.15072">
        <ele>840.9</ele>
        <time>2019-04-19T13:51:53Z</time>
      </trkpt>
      <trkpt lat="44.16812" lon="3.15068">
        <ele>840.8</ele>
        <time>2019-04-19T13:51:54Z</time>
      </trkpt>
      <trkpt lat="44.1681" lon="3.15065">
        <ele>840.6</ele>
        <time>2019-04-19T13:51:55Z</time>
      </trkpt>
      <trkpt lat="44.16808" lon="3.1506">
        <ele>840.5</ele>
        <time>2019-04-19T13:51:57Z</time>
      </trkpt>
      <trkpt lat="44.16806" lon="3.15056">
        <ele>840.2</ele>
        <time>2019-04-19T13:51:59Z</time>
      </trkpt>
      <trkpt lat="44.16806" lon="3.15052">
        <ele>840</ele>
        <time>2019-04-19T13:52:14Z</time>
      </trkpt>
      <trkpt lat="44.16803" lon="3.1505">
        <ele>839.8</ele>
        <time>2019-04-19T13:52:16Z</time>
      </trkpt>
      <trkpt lat="44.16801" lon="3.15045">
        <ele>839.3</ele>
        <time>2019-04-19T13:52:18Z</time>
      </trkpt>
      <trkpt lat="44.16801" lon="3.15041">
        <ele>839.1</ele>
        <time>2019-04-19T13:52:19Z</time>
      </trkpt>
      <trkpt lat="44.16802" lon="3.15036">
        <ele>839.1</ele>
        <time>2019-04-19T13:52:21Z</time>
      </trkpt>
      <trkpt lat="44.16805" lon="3.15033">
        <ele>839</ele>
        <time>2019-04-19T13:52:23Z</time>
      </trkpt>
      <trkpt lat="44.16807" lon="3.15028">
        <ele>838.8</ele>
        <time>2019-04-19T13:52:25Z</time>
      </trkpt>
      <trkpt lat="44.1681" lon="3.15023">
        <ele>838.8</ele>
        <time>2019-04-19T13:52:27Z</time>
      </trkpt>
      <trkpt lat="44.16812" lon="3.15017">
        <ele>838.7</ele>
        <time>2019-04-19T13:52:29Z</time>
      </trkpt>
      <trkpt lat="44.16813" lon="3.15011">
        <ele>838.1</ele>
        <time>2019-04-19T13:52:31Z</time>
      </trkpt>
      <trkpt lat="44.16813" lon="3.15005">
        <ele>837.8</ele>
        <time>2019-04-19T13:52:33Z</time>
      </trkpt>
      <trkpt lat="44.16814" lon="3.14999">
        <ele>837.6</ele>
        <time>2019-04-19T13:52:35Z</time>
      </trkpt>
      <trkpt lat="44.16815" lon="3.14995">
        <ele>837.2</ele>
        <time>2019-04-19T13:52:36Z</time>
      </trkpt>
      <trkpt lat="44.16816" lon="3.14991">
        <ele>836.8</ele>
        <time>2019-04-19T13:52:37Z</time>
      </trkpt>
      <trkpt lat="44.1682" lon="3.14985">
        <ele>836.1</ele>
        <time>2019-04-19T13:52:39Z</time>
      </trkpt>
      <trkpt lat="44.16822" lon="3.14982">
        <ele>836.3</ele>
        <time>2019-04-19T13:52:42Z</time>
      </trkpt>
      <trkpt lat="44.16825" lon="3.14982">
        <ele>836.5</ele>
        <time>2019-04-19T13:52:50Z</time>
      </trkpt>
      <trkpt lat="44.16828" lon="3.14982">
        <ele>836.7</ele>
        <time>2019-04-19T13:52:57Z</time>
      </trkpt>
      <trkpt lat="44.16831" lon="3.1498">
        <ele>836.5</ele>
        <time>2019-04-19T13:53:00Z</time>
      </trkpt>
      <trkpt lat="44.16834" lon="3.14978">
        <ele>836.7</ele>
        <time>2019-04-19T13:53:02Z</time>
      </trkpt>
      <trkpt lat="44.16836" lon="3.14976">
        <ele>836.6</ele>
        <time>2019-04-19T13:53:03Z</time>
      </trkpt>
      <trkpt lat="44.16839" lon="3.14971">
        <ele>836.4</ele>
        <time>2019-04-19T13:53:05Z</time>
      </trkpt>
      <trkpt lat="44.16841" lon="3.14967">
        <ele>836</ele>
        <time>2019-04-19T13:53:07Z</time>
      </trkpt>
      <trkpt lat="44.16846" lon="3.14966">
        <ele>836.6</ele>
        <time>2019-04-19T13:53:09Z</time>
      </trkpt>
      <trkpt lat="44.1685" lon="3.14965">
        <ele>836.9</ele>
        <time>2019-04-19T13:53:11Z</time>
      </trkpt>
      <trkpt lat="44.16854" lon="3.14963">
        <ele>837.1</ele>
        <time>2019-04-19T13:53:13Z</time>
      </trkpt>
      <trkpt lat="44.16857" lon="3.14962">
        <ele>837.4</ele>
        <time>2019-04-19T13:53:14Z</time>
      </trkpt>
      <trkpt lat="44.1686" lon="3.14961">
        <ele>837.4</ele>
        <time>2019-04-19T13:53:15Z</time>
      </trkpt>
      <trkpt lat="44.16862" lon="3.1496">
        <ele>837.2</ele>
        <time>2019-04-19T13:53:16Z</time>
      </trkpt>
      <trkpt lat="44.16865" lon="3.14958">
        <ele>837.6</ele>
        <time>2019-04-19T13:53:17Z</time>
      </trkpt>
      <trkpt lat="44.1687" lon="3.14955">
        <ele>837.5</ele>
        <time>2019-04-19T13:53:19Z</time>
      </trkpt>
      <trkpt lat="44.16872" lon="3.14953">
        <ele>837.5</ele>
        <time>2019-04-19T13:53:20Z</time>
      </trkpt>
      <trkpt lat="44.16874" lon="3.1495">
        <ele>837</ele>
        <time>2019-04-19T13:53:21Z</time>
      </trkpt>
      <trkpt lat="44.16876" lon="3.14946">
        <ele>836.4</ele>
        <time>2019-04-19T13:53:23Z</time>
      </trkpt>
      <trkpt lat="44.16879" lon="3.14942">
        <ele>835.8</ele>
        <time>2019-04-19T13:53:25Z</time>
      </trkpt>
      <trkpt lat="44.16883" lon="3.14939">
        <ele>835.9</ele>
        <time>2019-04-19T13:53:27Z</time>
      </trkpt>
      <trkpt lat="44.16886" lon="3.14938">
        <ele>835.2</ele>
        <time>2019-04-19T13:53:28Z</time>
      </trkpt>
      <trkpt lat="44.16888" lon="3.14937">
        <ele>835.3</ele>
        <time>2019-04-19T13:53:29Z</time>
      </trkpt>
      <trkpt lat="44.16892" lon="3.14935">
        <ele>835.5</ele>
        <time>2019-04-19T13:53:31Z</time>
      </trkpt>
      <trkpt lat="44.16897" lon="3.14929">
        <ele>834</ele>
        <time>2019-04-19T13:53:33Z</time>
      </trkpt>
      <trkpt lat="44.16915" lon="3.14905">
        <ele>828.6</ele>
        <time>2019-04-19T13:53:35Z</time>
      </trkpt>
      <trkpt lat="44.16923" lon="3.14901">
        <ele>827.5</ele>
        <time>2019-04-19T13:53:38Z</time>
      </trkpt>
      <trkpt lat="44.16925" lon="3.149">
        <ele>826.2</ele>
        <time>2019-04-19T13:53:39Z</time>
      </trkpt>
      <trkpt lat="44.16927" lon="3.14895">
        <ele>824.9</ele>
        <time>2019-04-19T13:53:41Z</time>
      </trkpt>
      <trkpt lat="44.1693" lon="3.1489">
        <ele>823.6</ele>
        <time>2019-04-19T13:53:43Z</time>
      </trkpt>
      <trkpt lat="44.16939" lon="3.14884">
        <ele>822.3</ele>
        <time>2019-04-19T13:53:45Z</time>
      </trkpt>
      <trkpt lat="44.16942" lon="3.14883">
        <ele>822.4</ele>
        <time>2019-04-19T13:53:46Z</time>
      </trkpt>
      <trkpt lat="44.16945" lon="3.14882">
        <ele>821</ele>
        <time>2019-04-19T13:53:47Z</time>
      </trkpt>
      <trkpt lat="44.16948" lon="3.1488">
        <ele>821.1</ele>
        <time>2019-04-19T13:53:48Z</time>
      </trkpt>
      <trkpt lat="44.16951" lon="3.14878">
        <ele>819.7</ele>
        <time>2019-04-19T13:53:49Z</time>
      </trkpt>
      <trkpt lat="44.16954" lon="3.14876">
        <ele>819.7</ele>
        <time>2019-04-19T13:53:50Z</time>
      </trkpt>
      <trkpt lat="44.16956" lon="3.14874">
        <ele>818.2</ele>
        <time>2019-04-19T13:53:51Z</time>
      </trkpt>
      <trkpt lat="44.16961" lon="3.14871">
        <ele>818.3</ele>
        <time>2019-04-19T13:53:53Z</time>
      </trkpt>
      <trkpt lat="44.16966" lon="3.14869">
        <ele>816.9</ele>
        <time>2019-04-19T13:53:55Z</time>
      </trkpt>
      <trkpt lat="44.16971" lon="3.14865">
        <ele>815.6</ele>
        <time>2019-04-19T13:55:44Z</time>
      </trkpt>
      <trkpt lat="44.16976" lon="3.14866">
        <ele>817.5</ele>
        <time>2019-04-19T13:55:46Z</time>
      </trkpt>
      <trkpt lat="44.16979" lon="3.14866">
        <ele>817.8</ele>
        <time>2019-04-19T13:55:47Z</time>
      </trkpt>
      <trkpt lat="44.16982" lon="3.14866">
        <ele>818.1</ele>
        <time>2019-04-19T13:55:48Z</time>
      </trkpt>
      <trkpt lat="44.16986" lon="3.14866">
        <ele>818.4</ele>
        <time>2019-04-19T13:55:49Z</time>
      </trkpt>
      <trkpt lat="44.16989" lon="3.14866">
        <ele>818.7</ele>
        <time>2019-04-19T13:55:50Z</time>
      </trkpt>
      <trkpt lat="44.16992" lon="3.14865">
        <ele>817.5</ele>
        <time>2019-04-19T13:55:51Z</time>
      </trkpt>
      <trkpt lat="44.16995" lon="3.14865">
        <ele>817.9</ele>
        <time>2019-04-19T13:55:52Z</time>
      </trkpt>
      <trkpt lat="44.16999" lon="3.14865">
        <ele>818.9</ele>
        <time>2019-04-19T13:55:53Z</time>
      </trkpt>
      <trkpt lat="44.17003" lon="3.14865">
        <ele>819.4</ele>
        <time>2019-04-19T13:55:54Z</time>
      </trkpt>
      <trkpt lat="44.17006" lon="3.14865">
        <ele>820</ele>
        <time>2019-04-19T13:55:55Z</time>
      </trkpt>
      <trkpt lat="44.17009" lon="3.14864">
        <ele>820.6</ele>
        <time>2019-04-19T13:55:56Z</time>
      </trkpt>
      <trkpt lat="44.17012" lon="3.14864">
        <ele>821.1</ele>
        <time>2019-04-19T13:55:57Z</time>
      </trkpt>
      <trkpt lat="44.17016" lon="3.14864">
        <ele>821.7</ele>
        <time>2019-04-19T13:55:58Z</time>
      </trkpt>
      <trkpt lat="44.17019" lon="3.14862">
        <ele>822.3</ele>
        <time>2019-04-19T13:55:59Z</time>
      </trkpt>
      <trkpt lat="44.17022" lon="3.1486">
        <ele>821.4</ele>
        <time>2019-04-19T13:56:00Z</time>
      </trkpt>
      <trkpt lat="44.17025" lon="3.14856">
        <ele>820.5</ele>
        <time>2019-04-19T13:56:01Z</time>
      </trkpt>
      <trkpt lat="44.17028" lon="3.14853">
        <ele>821.3</ele>
        <time>2019-04-19T13:56:02Z</time>
      </trkpt>
      <trkpt lat="44.17031" lon="3.14851">
        <ele>820.7</ele>
        <time>2019-04-19T13:56:03Z</time>
      </trkpt>
      <trkpt lat="44.17034" lon="3.14848">
        <ele>820</ele>
        <time>2019-04-19T13:56:04Z</time>
      </trkpt>
      <trkpt lat="44.17037" lon="3.14846">
        <ele>820.8</ele>
        <time>2019-04-19T13:56:05Z</time>
      </trkpt>
      <trkpt lat="44.1704" lon="3.14844">
        <ele>820.2</ele>
        <time>2019-04-19T13:56:06Z</time>
      </trkpt>
      <trkpt lat="44.17043" lon="3.14842">
        <ele>820.9</ele>
        <time>2019-04-19T13:56:07Z</time>
      </trkpt>
      <trkpt lat="44.17046" lon="3.14841">
        <ele>821.7</ele>
        <time>2019-04-19T13:56:08Z</time>
      </trkpt>
      <trkpt lat="44.1705" lon="3.1484">
        <ele>822.5</ele>
        <time>2019-04-19T13:56:09Z</time>
      </trkpt>
      <trkpt lat="44.17052" lon="3.1484">
        <ele>823.3</ele>
        <time>2019-04-19T13:56:10Z</time>
      </trkpt>
      <trkpt lat="44.17056" lon="3.1484">
        <ele>824</ele>
        <time>2019-04-19T13:56:11Z</time>
      </trkpt>
      <trkpt lat="44.17059" lon="3.14841">
        <ele>824.8</ele>
        <time>2019-04-19T13:56:12Z</time>
      </trkpt>
      <trkpt lat="44.17061" lon="3.14842">
        <ele>825.6</ele>
        <time>2019-04-19T13:56:13Z</time>
      </trkpt>
      <trkpt lat="44.17064" lon="3.14843">
        <ele>826.3</ele>
        <time>2019-04-19T13:56:14Z</time>
      </trkpt>
      <trkpt lat="44.17069" lon="3.14845">
        <ele>828.3</ele>
        <time>2019-04-19T13:56:16Z</time>
      </trkpt>
      <trkpt lat="44.17074" lon="3.14846">
        <ele>829.8</ele>
        <time>2019-04-19T13:56:18Z</time>
      </trkpt>
      <trkpt lat="44.17077" lon="3.14846">
        <ele>830.6</ele>
        <time>2019-04-19T13:56:19Z</time>
      </trkpt>
      <trkpt lat="44.1708" lon="3.14846">
        <ele>831.4</ele>
        <time>2019-04-19T13:56:20Z</time>
      </trkpt>
      <trkpt lat="44.17083" lon="3.14846">
        <ele>832.2</ele>
        <time>2019-04-19T13:56:21Z</time>
      </trkpt>
      <trkpt lat="44.17087" lon="3.14845">
        <ele>832.9</ele>
        <time>2019-04-19T13:56:23Z</time>
      </trkpt>
      <trkpt lat="44.17091" lon="3.14843">
        <ele>833.4</ele>
        <time>2019-04-19T13:56:25Z</time>
      </trkpt>
      <trkpt lat="44.17094" lon="3.14841">
        <ele>833.4</ele>
        <time>2019-04-19T13:56:26Z</time>
      </trkpt>
      <trkpt lat="44.17096" lon="3.14839">
        <ele>833</ele>
        <time>2019-04-19T13:56:27Z</time>
      </trkpt>
      <trkpt lat="44.17101" lon="3.14836">
        <ele>834.1</ele>
        <time>2019-04-19T13:56:29Z</time>
      </trkpt>
      <trkpt lat="44.17103" lon="3.14834">
        <ele>833.5</ele>
        <time>2019-04-19T13:56:30Z</time>
      </trkpt>
      <trkpt lat="44.17106" lon="3.14831">
        <ele>832.4</ele>
        <time>2019-04-19T13:56:31Z</time>
      </trkpt>
      <trkpt lat="44.17108" lon="3.14828">
        <ele>832.9</ele>
        <time>2019-04-19T13:56:32Z</time>
      </trkpt>
      <trkpt lat="44.17111" lon="3.14827">
        <ele>833.4</ele>
        <time>2019-04-19T13:56:33Z</time>
      </trkpt>
      <trkpt lat="44.17116" lon="3.14828">
        <ele>834.4</ele>
        <time>2019-04-19T13:56:35Z</time>
      </trkpt>
      <trkpt lat="44.17121" lon="3.14831">
        <ele>834.8</ele>
        <time>2019-04-19T13:56:37Z</time>
      </trkpt>
      <trkpt lat="44.17123" lon="3.14832">
        <ele>836.1</ele>
        <time>2019-04-19T13:56:38Z</time>
      </trkpt>
      <trkpt lat="44.17127" lon="3.14836">
        <ele>837.4</ele>
        <time>2019-04-19T13:56:40Z</time>
      </trkpt>
      <trkpt lat="44.17132" lon="3.1484">
        <ele>837.9</ele>
        <time>2019-04-19T13:56:42Z</time>
      </trkpt>
      <trkpt lat="44.17137" lon="3.14842">
        <ele>839.1</ele>
        <time>2019-04-19T13:56:44Z</time>
      </trkpt>
      <trkpt lat="44.17139" lon="3.14843">
        <ele>839.4</ele>
        <time>2019-04-19T13:56:45Z</time>
      </trkpt>
      <trkpt lat="44.17142" lon="3.14845">
        <ele>840.5</ele>
        <time>2019-04-19T13:56:46Z</time>
      </trkpt>
      <trkpt lat="44.17145" lon="3.14846">
        <ele>840.8</ele>
        <time>2019-04-19T13:56:47Z</time>
      </trkpt>
      <trkpt lat="44.17148" lon="3.14848">
        <ele>841</ele>
        <time>2019-04-19T13:56:48Z</time>
      </trkpt>
      <trkpt lat="44.17151" lon="3.14849">
        <ele>841.9</ele>
        <time>2019-04-19T13:56:49Z</time>
      </trkpt>
      <trkpt lat="44.17154" lon="3.14851">
        <ele>842.1</ele>
        <time>2019-04-19T13:56:50Z</time>
      </trkpt>
      <trkpt lat="44.17157" lon="3.14854">
        <ele>843</ele>
        <time>2019-04-19T13:56:51Z</time>
      </trkpt>
      <trkpt lat="44.1716" lon="3.14858">
        <ele>843.8</ele>
        <time>2019-04-19T13:56:52Z</time>
      </trkpt>
      <trkpt lat="44.17163" lon="3.14862">
        <ele>844.7</ele>
        <time>2019-04-19T13:56:53Z</time>
      </trkpt>
      <trkpt lat="44.17167" lon="3.14867">
        <ele>845.5</ele>
        <time>2019-04-19T13:56:54Z</time>
      </trkpt>
      <trkpt lat="44.1717" lon="3.1487">
        <ele>846.2</ele>
        <time>2019-04-19T13:56:55Z</time>
      </trkpt>
      <trkpt lat="44.17173" lon="3.14873">
        <ele>846.3</ele>
        <time>2019-04-19T13:56:56Z</time>
      </trkpt>
      <trkpt lat="44.17176" lon="3.14876">
        <ele>847</ele>
        <time>2019-04-19T13:56:57Z</time>
      </trkpt>
      <trkpt lat="44.17179" lon="3.14879">
        <ele>847.6</ele>
        <time>2019-04-19T13:56:58Z</time>
      </trkpt>
      <trkpt lat="44.17182" lon="3.14882">
        <ele>847.6</ele>
        <time>2019-04-19T13:56:59Z</time>
      </trkpt>
      <trkpt lat="44.17184" lon="3.14884">
        <ele>848.2</ele>
        <time>2019-04-19T13:57:00Z</time>
      </trkpt>
      <trkpt lat="44.17187" lon="3.14887">
        <ele>848.2</ele>
        <time>2019-04-19T13:57:01Z</time>
      </trkpt>
      <trkpt lat="44.17189" lon="3.14891">
        <ele>848.8</ele>
        <time>2019-04-19T13:57:02Z</time>
      </trkpt>
      <trkpt lat="44.17191" lon="3.14895">
        <ele>849.3</ele>
        <time>2019-04-19T13:57:03Z</time>
      </trkpt>
      <trkpt lat="44.17193" lon="3.14899">
        <ele>849.7</ele>
        <time>2019-04-19T13:57:04Z</time>
      </trkpt>
      <trkpt lat="44.17196" lon="3.14902">
        <ele>850.1</ele>
        <time>2019-04-19T13:57:05Z</time>
      </trkpt>
      <trkpt lat="44.17198" lon="3.14906">
        <ele>850.4</ele>
        <time>2019-04-19T13:57:06Z</time>
      </trkpt>
      <trkpt lat="44.17201" lon="3.14909">
        <ele>850.7</ele>
        <time>2019-04-19T13:57:07Z</time>
      </trkpt>
      <trkpt lat="44.17204" lon="3.14913">
        <ele>850.9</ele>
        <time>2019-04-19T13:57:08Z</time>
      </trkpt>
      <trkpt lat="44.17206" lon="3.14917">
        <ele>850.8</ele>
        <time>2019-04-19T13:57:09Z</time>
      </trkpt>
      <trkpt lat="44.17209" lon="3.1492">
        <ele>851</ele>
        <time>2019-04-19T13:57:10Z</time>
      </trkpt>
      <trkpt lat="44.17211" lon="3.14924">
        <ele>851.1</ele>
        <time>2019-04-19T13:57:11Z</time>
      </trkpt>
      <trkpt lat="44.17213" lon="3.14927">
        <ele>851.3</ele>
        <time>2019-04-19T13:57:12Z</time>
      </trkpt>
      <trkpt lat="44.17215" lon="3.14931">
        <ele>851.3</ele>
        <time>2019-04-19T13:57:13Z</time>
      </trkpt>
      <trkpt lat="44.17218" lon="3.14935">
        <ele>851.4</ele>
        <time>2019-04-19T13:57:14Z</time>
      </trkpt>
      <trkpt lat="44.1722" lon="3.14939">
        <ele>851.4</ele>
        <time>2019-04-19T13:57:15Z</time>
      </trkpt>
      <trkpt lat="44.17222" lon="3.14942">
        <ele>851.4</ele>
        <time>2019-04-19T13:57:16Z</time>
      </trkpt>
      <trkpt lat="44.17224" lon="3.14946">
        <ele>851.5</ele>
        <time>2019-04-19T13:57:17Z</time>
      </trkpt>
      <trkpt lat="44.17226" lon="3.14949">
        <ele>851.4</ele>
        <time>2019-04-19T13:57:18Z</time>
      </trkpt>
      <trkpt lat="44.17228" lon="3.14952">
        <ele>851.4</ele>
        <time>2019-04-19T13:57:19Z</time>
      </trkpt>
      <trkpt lat="44.1723" lon="3.14956">
        <ele>851.4</ele>
        <time>2019-04-19T13:57:20Z</time>
      </trkpt>
      <trkpt lat="44.17233" lon="3.1496">
        <ele>851.4</ele>
        <time>2019-04-19T13:57:21Z</time>
      </trkpt>
      <trkpt lat="44.17236" lon="3.14963">
        <ele>851.3</ele>
        <time>2019-04-19T13:57:22Z</time>
      </trkpt>
      <trkpt lat="44.17239" lon="3.14967">
        <ele>851.3</ele>
        <time>2019-04-19T13:57:23Z</time>
      </trkpt>
      <trkpt lat="44.17243" lon="3.1497">
        <ele>851.3</ele>
        <time>2019-04-19T13:57:24Z</time>
      </trkpt>
      <trkpt lat="44.17246" lon="3.14973">
        <ele>851.3</ele>
        <time>2019-04-19T13:57:25Z</time>
      </trkpt>
      <trkpt lat="44.17249" lon="3.14976">
        <ele>851.2</ele>
        <time>2019-04-19T13:57:26Z</time>
      </trkpt>
      <trkpt lat="44.17251" lon="3.14979">
        <ele>851.2</ele>
        <time>2019-04-19T13:57:27Z</time>
      </trkpt>
      <trkpt lat="44.17254" lon="3.14981">
        <ele>851.3</ele>
        <time>2019-04-19T13:57:28Z</time>
      </trkpt>
      <trkpt lat="44.17255" lon="3.14984">
        <ele>851.3</ele>
        <time>2019-04-19T13:57:29Z</time>
      </trkpt>
      <trkpt lat="44.17257" lon="3.14988">
        <ele>851.3</ele>
        <time>2019-04-19T13:57:30Z</time>
      </trkpt>
      <trkpt lat="44.17259" lon="3.1499">
        <ele>851.3</ele>
        <time>2019-04-19T13:57:31Z</time>
      </trkpt>
      <trkpt lat="44.17263" lon="3.14992">
        <ele>851.3</ele>
        <time>2019-04-19T13:57:33Z</time>
      </trkpt>
      <trkpt lat="44.17266" lon="3.14991">
        <ele>851.2</ele>
        <time>2019-04-19T13:57:34Z</time>
      </trkpt>
      <trkpt lat="44.17269" lon="3.14988">
        <ele>851.1</ele>
        <time>2019-04-19T13:57:35Z</time>
      </trkpt>
      <trkpt lat="44.17272" lon="3.14986">
        <ele>851.1</ele>
        <time>2019-04-19T13:57:36Z</time>
      </trkpt>
      <trkpt lat="44.17275" lon="3.14984">
        <ele>850.9</ele>
        <time>2019-04-19T13:57:37Z</time>
      </trkpt>
      <trkpt lat="44.17279" lon="3.14982">
        <ele>850.8</ele>
        <time>2019-04-19T13:57:38Z</time>
      </trkpt>
      <trkpt lat="44.17283" lon="3.1498">
        <ele>850.7</ele>
        <time>2019-04-19T13:57:39Z</time>
      </trkpt>
      <trkpt lat="44.17289" lon="3.1498">
        <ele>850.5</ele>
        <time>2019-04-19T13:57:40Z</time>
      </trkpt>
      <trkpt lat="44.17294" lon="3.14981">
        <ele>850.5</ele>
        <time>2019-04-19T13:57:41Z</time>
      </trkpt>
      <trkpt lat="44.17297" lon="3.14983">
        <ele>850.5</ele>
        <time>2019-04-19T13:57:42Z</time>
      </trkpt>
      <trkpt lat="44.17303" lon="3.14983">
        <ele>850.4</ele>
        <time>2019-04-19T13:57:43Z</time>
      </trkpt>
      <trkpt lat="44.17308" lon="3.14986">
        <ele>850.5</ele>
        <time>2019-04-19T13:57:44Z</time>
      </trkpt>
      <trkpt lat="44.17313" lon="3.14989">
        <ele>850.4</ele>
        <time>2019-04-19T13:57:45Z</time>
      </trkpt>
      <trkpt lat="44.17318" lon="3.14991">
        <ele>850.5</ele>
        <time>2019-04-19T13:57:46Z</time>
      </trkpt>
      <trkpt lat="44.17322" lon="3.14994">
        <ele>850.5</ele>
        <time>2019-04-19T13:57:47Z</time>
      </trkpt>
      <trkpt lat="44.17325" lon="3.14996">
        <ele>850.6</ele>
        <time>2019-04-19T13:57:48Z</time>
      </trkpt>
      <trkpt lat="44.1733" lon="3.14994">
        <ele>850.5</ele>
        <time>2019-04-19T13:57:49Z</time>
      </trkpt>
      <trkpt lat="44.17335" lon="3.14996">
        <ele>850.5</ele>
        <time>2019-04-19T13:57:50Z</time>
      </trkpt>
      <trkpt lat="44.17339" lon="3.14997">
        <ele>850.5</ele>
        <time>2019-04-19T13:57:51Z</time>
      </trkpt>
      <trkpt lat="44.17342" lon="3.14997">
        <ele>850.5</ele>
        <time>2019-04-19T13:57:52Z</time>
      </trkpt>
      <trkpt lat="44.17345" lon="3.14995">
        <ele>850.6</ele>
        <time>2019-04-19T13:57:53Z</time>
      </trkpt>
      <trkpt lat="44.17348" lon="3.14992">
        <ele>850.5</ele>
        <time>2019-04-19T13:57:54Z</time>
      </trkpt>
      <trkpt lat="44.1735" lon="3.14986">
        <ele>850.4</ele>
        <time>2019-04-19T13:57:56Z</time>
      </trkpt>
      <trkpt lat="44.17353" lon="3.14982">
        <ele>850.5</ele>
        <time>2019-04-19T13:57:57Z</time>
      </trkpt>
      <trkpt lat="44.17355" lon="3.14979">
        <ele>850.5</ele>
        <time>2019-04-19T13:57:58Z</time>
      </trkpt>
      <trkpt lat="44.1736" lon="3.14977">
        <ele>850.5</ele>
        <time>2019-04-19T13:58:00Z</time>
      </trkpt>
      <trkpt lat="44.17364" lon="3.14977">
        <ele>850.6</ele>
        <time>2019-04-19T13:58:01Z</time>
      </trkpt>
      <trkpt lat="44.17368" lon="3.14978">
        <ele>850.7</ele>
        <time>2019-04-19T13:58:02Z</time>
      </trkpt>
      <trkpt lat="44.17372" lon="3.14978">
        <ele>850.8</ele>
        <time>2019-04-19T13:58:03Z</time>
      </trkpt>
      <trkpt lat="44.17376" lon="3.14979">
        <ele>850.8</ele>
        <time>2019-04-19T13:58:04Z</time>
      </trkpt>
      <trkpt lat="44.1738" lon="3.14978">
        <ele>850.8</ele>
        <time>2019-04-19T13:58:05Z</time>
      </trkpt>
      <trkpt lat="44.17383" lon="3.14979">
        <ele>850.8</ele>
        <time>2019-04-19T13:58:06Z</time>
      </trkpt>
      <trkpt lat="44.17388" lon="3.14979">
        <ele>850.8</ele>
        <time>2019-04-19T13:58:08Z</time>
      </trkpt>
      <trkpt lat="44.17392" lon="3.14978">
        <ele>850.7</ele>
        <time>2019-04-19T13:58:09Z</time>
      </trkpt>
      <trkpt lat="44.17397" lon="3.14977">
        <ele>850.6</ele>
        <time>2019-04-19T13:58:10Z</time>
      </trkpt>
      <trkpt lat="44.17402" lon="3.14976">
        <ele>850.4</ele>
        <time>2019-04-19T13:58:11Z</time>
      </trkpt>
      <trkpt lat="44.17407" lon="3.14969">
        <ele>850.1</ele>
        <time>2019-04-19T13:58:12Z</time>
      </trkpt>
      <trkpt lat="44.17409" lon="3.14965">
        <ele>849.9</ele>
        <time>2019-04-19T13:58:13Z</time>
      </trkpt>
      <trkpt lat="44.17411" lon="3.14961">
        <ele>849.7</ele>
        <time>2019-04-19T13:58:14Z</time>
      </trkpt>
      <trkpt lat="44.17415" lon="3.14959">
        <ele>849.2</ele>
        <time>2019-04-19T13:58:15Z</time>
      </trkpt>
      <trkpt lat="44.17418" lon="3.14957">
        <ele>849.1</ele>
        <time>2019-04-19T13:58:16Z</time>
      </trkpt>
      <trkpt lat="44.17421" lon="3.14958">
        <ele>849</ele>
        <time>2019-04-19T13:58:17Z</time>
      </trkpt>
      <trkpt lat="44.17426" lon="3.14958">
        <ele>848.9</ele>
        <time>2019-04-19T13:58:18Z</time>
      </trkpt>
      <trkpt lat="44.17429" lon="3.14956">
        <ele>848.5</ele>
        <time>2019-04-19T13:58:19Z</time>
      </trkpt>
      <trkpt lat="44.17432" lon="3.14954">
        <ele>848.4</ele>
        <time>2019-04-19T13:58:20Z</time>
      </trkpt>
      <trkpt lat="44.17438" lon="3.14945">
        <ele>847.4</ele>
        <time>2019-04-19T13:58:22Z</time>
      </trkpt>
      <trkpt lat="44.17444" lon="3.14942">
        <ele>846.8</ele>
        <time>2019-04-19T13:58:23Z</time>
      </trkpt>
      <trkpt lat="44.17447" lon="3.14943">
        <ele>846.6</ele>
        <time>2019-04-19T13:58:24Z</time>
      </trkpt>
      <trkpt lat="44.17452" lon="3.14946">
        <ele>846.8</ele>
        <time>2019-04-19T13:58:26Z</time>
      </trkpt>
      <trkpt lat="44.17454" lon="3.14947">
        <ele>846.7</ele>
        <time>2019-04-19T13:58:27Z</time>
      </trkpt>
      <trkpt lat="44.17458" lon="3.14947">
        <ele>846.9</ele>
        <time>2019-04-19T13:58:28Z</time>
      </trkpt>
      <trkpt lat="44.17461" lon="3.14948">
        <ele>846.7</ele>
        <time>2019-04-19T13:58:29Z</time>
      </trkpt>
      <trkpt lat="44.17464" lon="3.14949">
        <ele>846.5</ele>
        <time>2019-04-19T13:58:30Z</time>
      </trkpt>
      <trkpt lat="44.17467" lon="3.14949">
        <ele>846.3</ele>
        <time>2019-04-19T13:58:31Z</time>
      </trkpt>
      <trkpt lat="44.17469" lon="3.1495">
        <ele>846.3</ele>
        <time>2019-04-19T13:58:32Z</time>
      </trkpt>
      <trkpt lat="44.17473" lon="3.14949">
        <ele>845.8</ele>
        <time>2019-04-19T13:58:33Z</time>
      </trkpt>
      <trkpt lat="44.17477" lon="3.14949">
        <ele>845.6</ele>
        <time>2019-04-19T13:58:34Z</time>
      </trkpt>
      <trkpt lat="44.17482" lon="3.14949">
        <ele>845.1</ele>
        <time>2019-04-19T13:58:35Z</time>
      </trkpt>
      <trkpt lat="44.17487" lon="3.14949">
        <ele>844.9</ele>
        <time>2019-04-19T13:58:36Z</time>
      </trkpt>
      <trkpt lat="44.17492" lon="3.14949">
        <ele>844.3</ele>
        <time>2019-04-19T13:58:37Z</time>
      </trkpt>
      <trkpt lat="44.17497" lon="3.14949">
        <ele>844.1</ele>
        <time>2019-04-19T13:58:38Z</time>
      </trkpt>
      <trkpt lat="44.17502" lon="3.14947">
        <ele>843.2</ele>
        <time>2019-04-19T13:58:39Z</time>
      </trkpt>
      <trkpt lat="44.17507" lon="3.14945">
        <ele>842.7</ele>
        <time>2019-04-19T13:58:40Z</time>
      </trkpt>
      <trkpt lat="44.17511" lon="3.14943">
        <ele>842.1</ele>
        <time>2019-04-19T13:58:41Z</time>
      </trkpt>
      <trkpt lat="44.17515" lon="3.14941">
        <ele>842</ele>
        <time>2019-04-19T13:58:42Z</time>
      </trkpt>
      <trkpt lat="44.17519" lon="3.14938">
        <ele>841.3</ele>
        <time>2019-04-19T13:58:43Z</time>
      </trkpt>
      <trkpt lat="44.17523" lon="3.14935">
        <ele>841.2</ele>
        <time>2019-04-19T13:58:44Z</time>
      </trkpt>
      <trkpt lat="44.17526" lon="3.14931">
        <ele>840.7</ele>
        <time>2019-04-19T13:58:45Z</time>
      </trkpt>
      <trkpt lat="44.17531" lon="3.14924">
        <ele>839.6</ele>
        <time>2019-04-19T13:58:46Z</time>
      </trkpt>
      <trkpt lat="44.17533" lon="3.14916">
        <ele>838.4</ele>
        <time>2019-04-19T13:58:47Z</time>
      </trkpt>
      <trkpt lat="44.17537" lon="3.14914">
        <ele>838.3</ele>
        <time>2019-04-19T13:58:48Z</time>
      </trkpt>
      <trkpt lat="44.1754" lon="3.14912">
        <ele>837.5</ele>
        <time>2019-04-19T13:58:49Z</time>
      </trkpt>
      <trkpt lat="44.17537" lon="3.14915">
        <ele>838.3</ele>
        <time>2019-04-19T13:58:50Z</time>
      </trkpt>
      <trkpt lat="44.1754" lon="3.14916">
        <ele>838.2</ele>
        <time>2019-04-19T13:58:55Z</time>
      </trkpt>
      <trkpt lat="44.17546" lon="3.14915">
        <ele>838</ele>
        <time>2019-04-19T13:59:01Z</time>
      </trkpt>
      <trkpt lat="44.17553" lon="3.14917">
        <ele>838.2</ele>
        <time>2019-04-19T13:59:03Z</time>
      </trkpt>
      <trkpt lat="44.17554" lon="3.14921">
        <ele>838.2</ele>
        <time>2019-04-19T13:59:04Z</time>
      </trkpt>
      <trkpt lat="44.17558" lon="3.14923">
        <ele>838.5</ele>
        <time>2019-04-19T13:59:05Z</time>
      </trkpt>
      <trkpt lat="44.17562" lon="3.14925">
        <ele>838.4</ele>
        <time>2019-04-19T13:59:07Z</time>
      </trkpt>
      <trkpt lat="44.17565" lon="3.14928">
        <ele>838.8</ele>
        <time>2019-04-19T13:59:08Z</time>
      </trkpt>
      <trkpt lat="44.17568" lon="3.1493">
        <ele>839.1</ele>
        <time>2019-04-19T13:59:09Z</time>
      </trkpt>
      <trkpt lat="44.17571" lon="3.14931">
        <ele>839.1</ele>
        <time>2019-04-19T13:59:10Z</time>
      </trkpt>
      <trkpt lat="44.17574" lon="3.1493">
        <ele>839.1</ele>
        <time>2019-04-19T13:59:11Z</time>
      </trkpt>
      <trkpt lat="44.17578" lon="3.14928">
        <ele>838.8</ele>
        <time>2019-04-19T13:59:12Z</time>
      </trkpt>
      <trkpt lat="44.17586" lon="3.14921">
        <ele>838</ele>
        <time>2019-04-19T13:59:13Z</time>
      </trkpt>
      <trkpt lat="44.17591" lon="3.14918">
        <ele>838.2</ele>
        <time>2019-04-19T13:59:14Z</time>
      </trkpt>
      <trkpt lat="44.17595" lon="3.14915">
        <ele>837.8</ele>
        <time>2019-04-19T13:59:15Z</time>
      </trkpt>
      <trkpt lat="44.17599" lon="3.14913">
        <ele>837.9</ele>
        <time>2019-04-19T13:59:16Z</time>
      </trkpt>
      <trkpt lat="44.17602" lon="3.14909">
        <ele>837.5</ele>
        <time>2019-04-19T13:59:17Z</time>
      </trkpt>
      <trkpt lat="44.17607" lon="3.1491">
        <ele>837.6</ele>
        <time>2019-04-19T13:59:18Z</time>
      </trkpt>
      <trkpt lat="44.17603" lon="3.14915">
        <ele>838</ele>
        <time>2019-04-19T13:59:19Z</time>
      </trkpt>
      <trkpt lat="44.17609" lon="3.14913">
        <ele>838.1</ele>
        <time>2019-04-19T13:59:24Z</time>
      </trkpt>
      <trkpt lat="44.17612" lon="3.14913">
        <ele>838</ele>
        <time>2019-04-19T13:59:25Z</time>
      </trkpt>
      <trkpt lat="44.17615" lon="3.14912">
        <ele>837.6</ele>
        <time>2019-04-19T13:59:26Z</time>
      </trkpt>
      <trkpt lat="44.17617" lon="3.14915">
        <ele>838</ele>
        <time>2019-04-19T13:59:27Z</time>
      </trkpt>
      <trkpt lat="44.17623" lon="3.14914">
        <ele>838</ele>
        <time>2019-04-19T13:59:28Z</time>
      </trkpt>
      <trkpt lat="44.17628" lon="3.14915">
        <ele>837.9</ele>
        <time>2019-04-19T13:59:29Z</time>
      </trkpt>
      <trkpt lat="44.17633" lon="3.14915">
        <ele>837.8</ele>
        <time>2019-04-19T13:59:30Z</time>
      </trkpt>
      <trkpt lat="44.17638" lon="3.14916">
        <ele>837.8</ele>
        <time>2019-04-19T13:59:31Z</time>
      </trkpt>
      <trkpt lat="44.17642" lon="3.14916">
        <ele>837.6</ele>
        <time>2019-04-19T13:59:32Z</time>
      </trkpt>
      <trkpt lat="44.17648" lon="3.14914">
        <ele>837.5</ele>
        <time>2019-04-19T13:59:33Z</time>
      </trkpt>
      <trkpt lat="44.17653" lon="3.14912">
        <ele>837.1</ele>
        <time>2019-04-19T13:59:34Z</time>
      </trkpt>
      <trkpt lat="44.17658" lon="3.1491">
        <ele>836.9</ele>
        <time>2019-04-19T13:59:35Z</time>
      </trkpt>
      <trkpt lat="44.17666" lon="3.14903">
        <ele>836.2</ele>
        <time>2019-04-19T13:59:36Z</time>
      </trkpt>
      <trkpt lat="44.17672" lon="3.14901">
        <ele>835.9</ele>
        <time>2019-04-19T13:59:37Z</time>
      </trkpt>
      <trkpt lat="44.17678" lon="3.14896">
        <ele>835.4</ele>
        <time>2019-04-19T13:59:38Z</time>
      </trkpt>
      <trkpt lat="44.17685" lon="3.14892">
        <ele>835</ele>
        <time>2019-04-19T13:59:39Z</time>
      </trkpt>
      <trkpt lat="44.1769" lon="3.14889">
        <ele>834.6</ele>
        <time>2019-04-19T13:59:40Z</time>
      </trkpt>
      <trkpt lat="44.17696" lon="3.14886">
        <ele>834.3</ele>
        <time>2019-04-19T13:59:41Z</time>
      </trkpt>
      <trkpt lat="44.17702" lon="3.1488">
        <ele>834.1</ele>
        <time>2019-04-19T13:59:42Z</time>
      </trkpt>
      <trkpt lat="44.1771" lon="3.14873">
        <ele>833.6</ele>
        <time>2019-04-19T13:59:43Z</time>
      </trkpt>
      <trkpt lat="44.17715" lon="3.14869">
        <ele>833.4</ele>
        <time>2019-04-19T13:59:44Z</time>
      </trkpt>
      <trkpt lat="44.17725" lon="3.1486">
        <ele>832.9</ele>
        <time>2019-04-19T13:59:45Z</time>
      </trkpt>
      <trkpt lat="44.17733" lon="3.14856">
        <ele>832.6</ele>
        <time>2019-04-19T13:59:46Z</time>
      </trkpt>
      <trkpt lat="44.17739" lon="3.14853">
        <ele>832.5</ele>
        <time>2019-04-19T13:59:47Z</time>
      </trkpt>
      <trkpt lat="44.17745" lon="3.14848">
        <ele>832.3</ele>
        <time>2019-04-19T13:59:48Z</time>
      </trkpt>
      <trkpt lat="44.1775" lon="3.14842">
        <ele>832.2</ele>
        <time>2019-04-19T13:59:49Z</time>
      </trkpt>
      <trkpt lat="44.17753" lon="3.14837">
        <ele>832.2</ele>
        <time>2019-04-19T13:59:50Z</time>
      </trkpt>
      <trkpt lat="44.17756" lon="3.14833">
        <ele>832</ele>
        <time>2019-04-19T13:59:51Z</time>
      </trkpt>
      <trkpt lat="44.17763" lon="3.14827">
        <ele>831.8</ele>
        <time>2019-04-19T13:59:52Z</time>
      </trkpt>
      <trkpt lat="44.17767" lon="3.14825">
        <ele>831.8</ele>
        <time>2019-04-19T13:59:53Z</time>
      </trkpt>
      <trkpt lat="44.17772" lon="3.14822">
        <ele>831.6</ele>
        <time>2019-04-19T13:59:54Z</time>
      </trkpt>
      <trkpt lat="44.17775" lon="3.14822">
        <ele>831.6</ele>
        <time>2019-04-19T13:59:55Z</time>
      </trkpt>
      <trkpt lat="44.1778" lon="3.14824">
        <ele>831.5</ele>
        <time>2019-04-19T13:59:56Z</time>
      </trkpt>
      <trkpt lat="44.17783" lon="3.14823">
        <ele>831.5</ele>
        <time>2019-04-19T13:59:57Z</time>
      </trkpt>
      <trkpt lat="44.17786" lon="3.14823">
        <ele>831.5</ele>
        <time>2019-04-19T13:59:58Z</time>
      </trkpt>
      <trkpt lat="44.1779" lon="3.14822">
        <ele>831.5</ele>
        <time>2019-04-19T13:59:59Z</time>
      </trkpt>
      <trkpt lat="44.17796" lon="3.14819">
        <ele>831.5</ele>
        <time>2019-04-19T14:00:00Z</time>
      </trkpt>
      <trkpt lat="44.17802" lon="3.14816">
        <ele>831.6</ele>
        <time>2019-04-19T14:00:01Z</time>
      </trkpt>
      <trkpt lat="44.17805" lon="3.14818">
        <ele>831.6</ele>
        <time>2019-04-19T14:00:02Z</time>
      </trkpt>
      <trkpt lat="44.17809" lon="3.14818">
        <ele>831.8</ele>
        <time>2019-04-19T14:00:03Z</time>
      </trkpt>
      <trkpt lat="44.17813" lon="3.14818">
        <ele>831.9</ele>
        <time>2019-04-19T14:00:04Z</time>
      </trkpt>
      <trkpt lat="44.17816" lon="3.14819">
        <ele>831.9</ele>
        <time>2019-04-19T14:00:05Z</time>
      </trkpt>
      <trkpt lat="44.17819" lon="3.14819">
        <ele>832</ele>
        <time>2019-04-19T14:00:06Z</time>
      </trkpt>
      <trkpt lat="44.17823" lon="3.14821">
        <ele>832</ele>
        <time>2019-04-19T14:00:08Z</time>
      </trkpt>
      <trkpt lat="44.17827" lon="3.14821">
        <ele>831.9</ele>
        <time>2019-04-19T14:00:10Z</time>
      </trkpt>
      <trkpt lat="44.17832" lon="3.14822">
        <ele>831.9</ele>
        <time>2019-04-19T14:00:12Z</time>
      </trkpt>
      <trkpt lat="44.17836" lon="3.14822">
        <ele>832</ele>
        <time>2019-04-19T14:00:13Z</time>
      </trkpt>
      <trkpt lat="44.1784" lon="3.14821">
        <ele>832.1</ele>
        <time>2019-04-19T14:00:14Z</time>
      </trkpt>
      <trkpt lat="44.17844" lon="3.1482">
        <ele>832.2</ele>
        <time>2019-04-19T14:00:16Z</time>
      </trkpt>
      <trkpt lat="44.17847" lon="3.14819">
        <ele>832.5</ele>
        <time>2019-04-19T14:00:17Z</time>
      </trkpt>
      <trkpt lat="44.1785" lon="3.14819">
        <ele>832.8</ele>
        <time>2019-04-19T14:00:18Z</time>
      </trkpt>
      <trkpt lat="44.17853" lon="3.14819">
        <ele>833.1</ele>
        <time>2019-04-19T14:00:19Z</time>
      </trkpt>
      <trkpt lat="44.17856" lon="3.1482">
        <ele>833.5</ele>
        <time>2019-04-19T14:00:20Z</time>
      </trkpt>
      <trkpt lat="44.17859" lon="3.14822">
        <ele>833.9</ele>
        <time>2019-04-19T14:00:21Z</time>
      </trkpt>
      <trkpt lat="44.17862" lon="3.14823">
        <ele>834.4</ele>
        <time>2019-04-19T14:00:22Z</time>
      </trkpt>
      <trkpt lat="44.17866" lon="3.14827">
        <ele>834.8</ele>
        <time>2019-04-19T14:00:24Z</time>
      </trkpt>
      <trkpt lat="44.17871" lon="3.14829">
        <ele>835.7</ele>
        <time>2019-04-19T14:00:26Z</time>
      </trkpt>
      <trkpt lat="44.17875" lon="3.14831">
        <ele>836.2</ele>
        <time>2019-04-19T14:00:28Z</time>
      </trkpt>
      <trkpt lat="44.17877" lon="3.14833">
        <ele>836.5</ele>
        <time>2019-04-19T14:00:30Z</time>
      </trkpt>
      <trkpt lat="44.17876" lon="3.14828">
        <ele>836.6</ele>
        <time>2019-04-19T14:00:35Z</time>
      </trkpt>
      <trkpt lat="44.17876" lon="3.14823">
        <ele>836.2</ele>
        <time>2019-04-19T14:00:37Z</time>
      </trkpt>
      <trkpt lat="44.17874" lon="3.1482">
        <ele>836.2</ele>
        <time>2019-04-19T14:00:39Z</time>
      </trkpt>
      <trkpt lat="44.17871" lon="3.14816">
        <ele>835.8</ele>
        <time>2019-04-19T14:00:41Z</time>
      </trkpt>
      <trkpt lat="44.17867" lon="3.14814">
        <ele>835.4</ele>
        <time>2019-04-19T14:00:43Z</time>
      </trkpt>
      <trkpt lat="44.17862" lon="3.14812">
        <ele>834.5</ele>
        <time>2019-04-19T14:00:45Z</time>
      </trkpt>
      <trkpt lat="44.17859" lon="3.1481">
        <ele>834</ele>
        <time>2019-04-19T14:00:46Z</time>
      </trkpt>
      <trkpt lat="44.17857" lon="3.14804">
        <ele>833.6</ele>
        <time>2019-04-19T14:00:48Z</time>
      </trkpt>
      <trkpt lat="44.17858" lon="3.148">
        <ele>833.9</ele>
        <time>2019-04-19T14:00:49Z</time>
      </trkpt>
      <trkpt lat="44.1786" lon="3.14795">
        <ele>833.8</ele>
        <time>2019-04-19T14:00:50Z</time>
      </trkpt>
      <trkpt lat="44.17862" lon="3.1479">
        <ele>834</ele>
        <time>2019-04-19T14:00:51Z</time>
      </trkpt>
      <trkpt lat="44.17863" lon="3.14785">
        <ele>833.8</ele>
        <time>2019-04-19T14:00:52Z</time>
      </trkpt>
      <trkpt lat="44.17865" lon="3.1478">
        <ele>833.4</ele>
        <time>2019-04-19T14:00:53Z</time>
      </trkpt>
      <trkpt lat="44.17866" lon="3.14776">
        <ele>833.4</ele>
        <time>2019-04-19T14:00:54Z</time>
      </trkpt>
      <trkpt lat="44.1787" lon="3.14771">
        <ele>832.7</ele>
        <time>2019-04-19T14:00:56Z</time>
      </trkpt>
      <trkpt lat="44.17873" lon="3.1477">
        <ele>832.7</ele>
        <time>2019-04-19T14:00:58Z</time>
      </trkpt>
      <trkpt lat="44.17877" lon="3.14771">
        <ele>832.7</ele>
        <time>2019-04-19T14:01:00Z</time>
      </trkpt>
      <trkpt lat="44.1788" lon="3.1477">
        <ele>832.6</ele>
        <time>2019-04-19T14:01:03Z</time>
      </trkpt>
      <trkpt lat="44.17883" lon="3.14768">
        <ele>832.5</ele>
        <time>2019-04-19T14:01:05Z</time>
      </trkpt>
      <trkpt lat="44.17887" lon="3.14767">
        <ele>832.2</ele>
        <time>2019-04-19T14:01:07Z</time>
      </trkpt>
      <trkpt lat="44.1789" lon="3.14766">
        <ele>831.2</ele>
        <time>2019-04-19T14:01:09Z</time>
      </trkpt>
      <trkpt lat="44.17893" lon="3.14764">
        <ele>830.8</ele>
        <time>2019-04-19T14:01:11Z</time>
      </trkpt>
      <trkpt lat="44.17898" lon="3.14763">
        <ele>830</ele>
        <time>2019-04-19T14:01:13Z</time>
      </trkpt>
      <trkpt lat="44.17902" lon="3.14761">
        <ele>828.7</ele>
        <time>2019-04-19T14:01:15Z</time>
      </trkpt>
      <trkpt lat="44.17906" lon="3.14759">
        <ele>828.1</ele>
        <time>2019-04-19T14:01:17Z</time>
      </trkpt>
      <trkpt lat="44.17909" lon="3.14759">
        <ele>827.4</ele>
        <time>2019-04-19T14:01:18Z</time>
      </trkpt>
      <trkpt lat="44.17912" lon="3.14758">
        <ele>825.6</ele>
        <time>2019-04-19T14:01:19Z</time>
      </trkpt>
      <trkpt lat="44.17915" lon="3.14755">
        <ele>824.6</ele>
        <time>2019-04-19T14:01:21Z</time>
      </trkpt>
      <trkpt lat="44.17919" lon="3.14753">
        <ele>822.4</ele>
        <time>2019-04-19T14:01:23Z</time>
      </trkpt>
      <trkpt lat="44.17922" lon="3.14751">
        <ele>821.3</ele>
        <time>2019-04-19T14:01:24Z</time>
      </trkpt>
      <trkpt lat="44.17926" lon="3.14747">
        <ele>817.6</ele>
        <time>2019-04-19T14:01:25Z</time>
      </trkpt>
      <trkpt lat="44.17929" lon="3.14744">
        <ele>815</ele>
        <time>2019-04-19T14:01:26Z</time>
      </trkpt>
      <trkpt lat="44.17931" lon="3.14742">
        <ele>813.5</ele>
        <time>2019-04-19T14:01:27Z</time>
      </trkpt>
      <trkpt lat="44.17935" lon="3.14738">
        <ele>810.6</ele>
        <time>2019-04-19T14:01:29Z</time>
      </trkpt>
      <trkpt lat="44.17938" lon="3.14734">
        <ele>807.5</ele>
        <time>2019-04-19T14:01:31Z</time>
      </trkpt>
      <trkpt lat="44.1794" lon="3.1473">
        <ele>806</ele>
        <time>2019-04-19T14:01:35Z</time>
      </trkpt>
      <trkpt lat="44.17942" lon="3.14727">
        <ele>802.5</ele>
        <time>2019-04-19T14:01:40Z</time>
      </trkpt>
      <trkpt lat="44.17942" lon="3.14735">
        <ele>805.7</ele>
        <time>2019-04-19T14:02:44Z</time>
      </trkpt>
      <trkpt lat="44.17943" lon="3.14739">
        <ele>807.2</ele>
        <time>2019-04-19T14:02:46Z</time>
      </trkpt>
      <trkpt lat="44.17943" lon="3.14744">
        <ele>808.7</ele>
        <time>2019-04-19T14:02:48Z</time>
      </trkpt>
      <trkpt lat="44.17942" lon="3.14749">
        <ele>810</ele>
        <time>2019-04-19T14:02:50Z</time>
      </trkpt>
      <trkpt lat="44.17945" lon="3.14751">
        <ele>809.6</ele>
        <time>2019-04-19T14:02:57Z</time>
      </trkpt>
      <trkpt lat="44.17946" lon="3.14754">
        <ele>809.6</ele>
        <time>2019-04-19T14:03:00Z</time>
      </trkpt>
      <trkpt lat="44.17948" lon="3.14758">
        <ele>809.1</ele>
        <time>2019-04-19T14:03:02Z</time>
      </trkpt>
      <trkpt lat="44.1795" lon="3.14762">
        <ele>808.5</ele>
        <time>2019-04-19T14:03:04Z</time>
      </trkpt>
      <trkpt lat="44.17951" lon="3.14766">
        <ele>809.9</ele>
        <time>2019-04-19T14:03:06Z</time>
      </trkpt>
      <trkpt lat="44.17951" lon="3.1477">
        <ele>811.3</ele>
        <time>2019-04-19T14:03:08Z</time>
      </trkpt>
      <trkpt lat="44.17948" lon="3.14774">
        <ele>814.5</ele>
        <time>2019-04-19T14:03:10Z</time>
      </trkpt>
      <trkpt lat="44.17944" lon="3.14779">
        <ele>817.5</ele>
        <time>2019-04-19T14:03:12Z</time>
      </trkpt>
      <trkpt lat="44.17943" lon="3.14784">
        <ele>821.3</ele>
        <time>2019-04-19T14:03:14Z</time>
      </trkpt>
      <trkpt lat="44.17942" lon="3.14788">
        <ele>821.3</ele>
        <time>2019-04-19T14:03:16Z</time>
      </trkpt>
      <trkpt lat="44.17941" lon="3.14793">
        <ele>823.1</ele>
        <time>2019-04-19T14:03:19Z</time>
      </trkpt>
      <trkpt lat="44.17941" lon="3.14797">
        <ele>823.1</ele>
        <time>2019-04-19T14:03:21Z</time>
      </trkpt>
      <trkpt lat="44.17943" lon="3.14803">
        <ele>824.8</ele>
        <time>2019-04-19T14:03:23Z</time>
      </trkpt>
      <trkpt lat="44.17945" lon="3.14807">
        <ele>824.2</ele>
        <time>2019-04-19T14:03:25Z</time>
      </trkpt>
      <trkpt lat="44.17948" lon="3.14811">
        <ele>823.5</ele>
        <time>2019-04-19T14:03:27Z</time>
      </trkpt>
      <trkpt lat="44.1795" lon="3.14814">
        <ele>822.7</ele>
        <time>2019-04-19T14:03:29Z</time>
      </trkpt>
      <trkpt lat="44.17953" lon="3.1482">
        <ele>821.9</ele>
        <time>2019-04-19T14:03:31Z</time>
      </trkpt>
      <trkpt lat="44.17954" lon="3.14826">
        <ele>822.6</ele>
        <time>2019-04-19T14:03:33Z</time>
      </trkpt>
      <trkpt lat="44.17953" lon="3.14832">
        <ele>823.7</ele>
        <time>2019-04-19T14:03:35Z</time>
      </trkpt>
      <trkpt lat="44.17952" lon="3.14836">
        <ele>825.7</ele>
        <time>2019-04-19T14:03:37Z</time>
      </trkpt>
      <trkpt lat="44.17949" lon="3.14839">
        <ele>827.1</ele>
        <time>2019-04-19T14:03:40Z</time>
      </trkpt>
      <trkpt lat="44.17945" lon="3.14842">
        <ele>828.9</ele>
        <time>2019-04-19T14:03:42Z</time>
      </trkpt>
      <trkpt lat="44.17944" lon="3.14846">
        <ele>829.2</ele>
        <time>2019-04-19T14:03:44Z</time>
      </trkpt>
      <trkpt lat="44.17944" lon="3.14851">
        <ele>829.5</ele>
        <time>2019-04-19T14:03:46Z</time>
      </trkpt>
      <trkpt lat="44.17945" lon="3.14858">
        <ele>829.9</ele>
        <time>2019-04-19T14:03:48Z</time>
      </trkpt>
      <trkpt lat="44.17946" lon="3.14863">
        <ele>830</ele>
        <time>2019-04-19T14:03:50Z</time>
      </trkpt>
      <trkpt lat="44.17948" lon="3.14866">
        <ele>828.9</ele>
        <time>2019-04-19T14:03:52Z</time>
      </trkpt>
      <trkpt lat="44.17952" lon="3.14867">
        <ele>827.6</ele>
        <time>2019-04-19T14:03:54Z</time>
      </trkpt>
      <trkpt lat="44.17955" lon="3.14871">
        <ele>826.5</ele>
        <time>2019-04-19T14:03:56Z</time>
      </trkpt>
      <trkpt lat="44.17958" lon="3.14878">
        <ele>825.3</ele>
        <time>2019-04-19T14:03:58Z</time>
      </trkpt>
      <trkpt lat="44.17959" lon="3.14882">
        <ele>825.3</ele>
        <time>2019-04-19T14:03:59Z</time>
      </trkpt>
      <trkpt lat="44.1796" lon="3.14886">
        <ele>824.2</ele>
        <time>2019-04-19T14:04:00Z</time>
      </trkpt>
      <trkpt lat="44.17961" lon="3.14891">
        <ele>824.1</ele>
        <time>2019-04-19T14:04:01Z</time>
      </trkpt>
      <trkpt lat="44.17963" lon="3.14894">
        <ele>822.9</ele>
        <time>2019-04-19T14:04:02Z</time>
      </trkpt>
      <trkpt lat="44.17963" lon="3.14899">
        <ele>822.8</ele>
        <time>2019-04-19T14:04:04Z</time>
      </trkpt>
      <trkpt lat="44.17964" lon="3.14903">
        <ele>822.7</ele>
        <time>2019-04-19T14:04:07Z</time>
      </trkpt>
      <trkpt lat="44.17967" lon="3.14905">
        <ele>821.3</ele>
        <time>2019-04-19T14:04:11Z</time>
      </trkpt>
      <trkpt lat="44.17968" lon="3.14909">
        <ele>821.3</ele>
        <time>2019-04-19T14:04:18Z</time>
      </trkpt>
      <trkpt lat="44.17969" lon="3.14905">
        <ele>819.8</ele>
        <time>2019-04-19T14:04:25Z</time>
      </trkpt>
      <trkpt lat="44.17973" lon="3.14907">
        <ele>818.2</ele>
        <time>2019-04-19T14:04:29Z</time>
      </trkpt>
      <trkpt lat="44.17975" lon="3.14909">
        <ele>816.4</ele>
        <time>2019-04-19T14:04:31Z</time>
      </trkpt>
      <trkpt lat="44.17978" lon="3.14911">
        <ele>814.7</ele>
        <time>2019-04-19T14:04:33Z</time>
      </trkpt>
      <trkpt lat="44.17983" lon="3.14916">
        <ele>813.1</ele>
        <time>2019-04-19T14:05:36Z</time>
      </trkpt>
      <trkpt lat="44.17988" lon="3.14915">
        <ele>810.2</ele>
        <time>2019-04-19T14:05:39Z</time>
      </trkpt>
      <trkpt lat="44.17992" lon="3.14914">
        <ele>808.6</ele>
        <time>2019-04-19T14:05:41Z</time>
      </trkpt>
      <trkpt lat="44.17996" lon="3.14916">
        <ele>806.9</ele>
        <time>2019-04-19T14:05:43Z</time>
      </trkpt>
      <trkpt lat="44.17995" lon="3.14921">
        <ele>807</ele>
        <time>2019-04-19T14:05:46Z</time>
      </trkpt>
      <trkpt lat="44.17993" lon="3.14928">
        <ele>807.1</ele>
        <time>2019-04-19T14:05:48Z</time>
      </trkpt>
      <trkpt lat="44.17992" lon="3.14934">
        <ele>808.7</ele>
        <time>2019-04-19T14:05:49Z</time>
      </trkpt>
      <trkpt lat="44.17991" lon="3.14937">
        <ele>808.6</ele>
        <time>2019-04-19T14:05:50Z</time>
      </trkpt>
      <trkpt lat="44.17988" lon="3.14943">
        <ele>809.7</ele>
        <time>2019-04-19T14:05:52Z</time>
      </trkpt>
      <trkpt lat="44.17986" lon="3.14948">
        <ele>810.8</ele>
        <time>2019-04-19T14:05:54Z</time>
      </trkpt>
      <trkpt lat="44.17985" lon="3.14955">
        <ele>810.6</ele>
        <time>2019-04-19T14:05:56Z</time>
      </trkpt>
      <trkpt lat="44.17983" lon="3.1496">
        <ele>811.6</ele>
        <time>2019-04-19T14:05:58Z</time>
      </trkpt>
      <trkpt lat="44.17981" lon="3.14963">
        <ele>811.3</ele>
        <time>2019-04-19T14:06:00Z</time>
      </trkpt>
      <trkpt lat="44.17979" lon="3.14966">
        <ele>812.3</ele>
        <time>2019-04-19T14:06:01Z</time>
      </trkpt>
      <trkpt lat="44.17976" lon="3.14971">
        <ele>813.4</ele>
        <time>2019-04-19T14:06:02Z</time>
      </trkpt>
      <trkpt lat="44.17974" lon="3.14976">
        <ele>814.5</ele>
        <time>2019-04-19T14:06:03Z</time>
      </trkpt>
      <trkpt lat="44.17971" lon="3.14982">
        <ele>815.3</ele>
        <time>2019-04-19T14:06:04Z</time>
      </trkpt>
      <trkpt lat="44.17969" lon="3.14988">
        <ele>815</ele>
        <time>2019-04-19T14:06:05Z</time>
      </trkpt>
      <trkpt lat="44.17968" lon="3.14995">
        <ele>815.7</ele>
        <time>2019-04-19T14:06:06Z</time>
      </trkpt>
      <trkpt lat="44.17968" lon="3.15002">
        <ele>815.4</ele>
        <time>2019-04-19T14:06:07Z</time>
      </trkpt>
      <trkpt lat="44.17969" lon="3.15009">
        <ele>813.6</ele>
        <time>2019-04-19T14:06:08Z</time>
      </trkpt>
      <trkpt lat="44.1797" lon="3.15016">
        <ele>813</ele>
        <time>2019-04-19T14:06:09Z</time>
      </trkpt>
      <trkpt lat="44.17971" lon="3.15024">
        <ele>812.6</ele>
        <time>2019-04-19T14:06:10Z</time>
      </trkpt>
      <trkpt lat="44.17971" lon="3.15029">
        <ele>810.5</ele>
        <time>2019-04-19T14:06:11Z</time>
      </trkpt>
      <trkpt lat="44.17972" lon="3.15035">
        <ele>810</ele>
        <time>2019-04-19T14:06:13Z</time>
      </trkpt>
      <trkpt lat="44.1797" lon="3.15038">
        <ele>811</ele>
        <time>2019-04-19T14:06:14Z</time>
      </trkpt>
      <trkpt lat="44.17967" lon="3.15041">
        <ele>812.2</ele>
        <time>2019-04-19T14:06:16Z</time>
      </trkpt>
      <trkpt lat="44.17962" lon="3.15047">
        <ele>812.6</ele>
        <time>2019-04-19T14:06:18Z</time>
      </trkpt>
      <trkpt lat="44.17958" lon="3.15052">
        <ele>814.3</ele>
        <time>2019-04-19T14:06:19Z</time>
      </trkpt>
      <trkpt lat="44.17954" lon="3.15058">
        <ele>815.1</ele>
        <time>2019-04-19T14:06:20Z</time>
      </trkpt>
      <trkpt lat="44.1795" lon="3.15064">
        <ele>815.8</ele>
        <time>2019-04-19T14:06:21Z</time>
      </trkpt>
      <trkpt lat="44.17947" lon="3.1507">
        <ele>816.7</ele>
        <time>2019-04-19T14:06:22Z</time>
      </trkpt>
      <trkpt lat="44.17944" lon="3.15076">
        <ele>817.6</ele>
        <time>2019-04-19T14:06:23Z</time>
      </trkpt>
      <trkpt lat="44.17941" lon="3.15083">
        <ele>818.3</ele>
        <time>2019-04-19T14:06:24Z</time>
      </trkpt>
      <trkpt lat="44.17941" lon="3.15116">
        <ele>817.4</ele>
        <time>2019-04-19T14:06:26Z</time>
      </trkpt>
      <trkpt lat="44.17945" lon="3.15124">
        <ele>816.3</ele>
        <time>2019-04-19T14:06:27Z</time>
      </trkpt>
      <trkpt lat="44.17948" lon="3.15128">
        <ele>815.3</ele>
        <time>2019-04-19T14:06:28Z</time>
      </trkpt>
      <trkpt lat="44.17956" lon="3.15134">
        <ele>813.2</ele>
        <time>2019-04-19T14:06:30Z</time>
      </trkpt>
      <trkpt lat="44.17958" lon="3.15137">
        <ele>812.1</ele>
        <time>2019-04-19T14:06:31Z</time>
      </trkpt>
      <trkpt lat="44.17962" lon="3.15143">
        <ele>810</ele>
        <time>2019-04-19T14:06:33Z</time>
      </trkpt>
      <trkpt lat="44.17959" lon="3.15145">
        <ele>810.9</ele>
        <time>2019-04-19T14:06:34Z</time>
      </trkpt>
      <trkpt lat="44.17959" lon="3.15153">
        <ele>810.9</ele>
        <time>2019-04-19T14:06:36Z</time>
      </trkpt>
      <trkpt lat="44.17959" lon="3.15158">
        <ele>810.7</ele>
        <time>2019-04-19T14:06:37Z</time>
      </trkpt>
      <trkpt lat="44.17961" lon="3.15163">
        <ele>810.7</ele>
        <time>2019-04-19T14:06:38Z</time>
      </trkpt>
      <trkpt lat="44.17963" lon="3.15169">
        <ele>809.6</ele>
        <time>2019-04-19T14:06:39Z</time>
      </trkpt>
      <trkpt lat="44.17965" lon="3.15174">
        <ele>809.6</ele>
        <time>2019-04-19T14:06:40Z</time>
      </trkpt>
      <trkpt lat="44.17966" lon="3.15179">
        <ele>808.6</ele>
        <time>2019-04-19T14:06:41Z</time>
      </trkpt>
      <trkpt lat="44.17966" lon="3.15184">
        <ele>808.7</ele>
        <time>2019-04-19T14:06:42Z</time>
      </trkpt>
      <trkpt lat="44.17966" lon="3.15191">
        <ele>808.7</ele>
        <time>2019-04-19T14:06:43Z</time>
      </trkpt>
      <trkpt lat="44.17966" lon="3.15197">
        <ele>808.8</ele>
        <time>2019-04-19T14:06:44Z</time>
      </trkpt>
      <trkpt lat="44.17966" lon="3.15202">
        <ele>808.8</ele>
        <time>2019-04-19T14:06:45Z</time>
      </trkpt>
      <trkpt lat="44.17967" lon="3.15209">
        <ele>808.9</ele>
        <time>2019-04-19T14:06:46Z</time>
      </trkpt>
      <trkpt lat="44.17967" lon="3.15214">
        <ele>808.9</ele>
        <time>2019-04-19T14:06:47Z</time>
      </trkpt>
      <trkpt lat="44.17968" lon="3.15219">
        <ele>807.9</ele>
        <time>2019-04-19T14:06:48Z</time>
      </trkpt>
      <trkpt lat="44.1797" lon="3.15224">
        <ele>807.9</ele>
        <time>2019-04-19T14:06:49Z</time>
      </trkpt>
      <trkpt lat="44.17972" lon="3.15229">
        <ele>806.9</ele>
        <time>2019-04-19T14:06:50Z</time>
      </trkpt>
      <trkpt lat="44.17973" lon="3.15234">
        <ele>806.9</ele>
        <time>2019-04-19T14:06:51Z</time>
      </trkpt>
      <trkpt lat="44.17974" lon="3.15239">
        <ele>806.9</ele>
        <time>2019-04-19T14:06:52Z</time>
      </trkpt>
      <trkpt lat="44.17975" lon="3.15243">
        <ele>805.8</ele>
        <time>2019-04-19T14:06:53Z</time>
      </trkpt>
      <trkpt lat="44.17978" lon="3.15249">
        <ele>804.8</ele>
        <time>2019-04-19T14:06:55Z</time>
      </trkpt>
      <trkpt lat="44.17979" lon="3.15252">
        <ele>804.8</ele>
        <time>2019-04-19T14:06:56Z</time>
      </trkpt>
      <trkpt lat="44.17981" lon="3.15258">
        <ele>804</ele>
        <time>2019-04-19T14:06:58Z</time>
      </trkpt>
      <trkpt lat="44.17983" lon="3.15262">
        <ele>804</ele>
        <time>2019-04-19T14:06:59Z</time>
      </trkpt>
      <trkpt lat="44.17984" lon="3.15266">
        <ele>803.4</ele>
        <time>2019-04-19T14:07:00Z</time>
      </trkpt>
      <trkpt lat="44.17986" lon="3.1527">
        <ele>802.7</ele>
        <time>2019-04-19T14:07:01Z</time>
      </trkpt>
      <trkpt lat="44.17988" lon="3.15273">
        <ele>802.1</ele>
        <time>2019-04-19T14:07:02Z</time>
      </trkpt>
      <trkpt lat="44.1799" lon="3.15276">
        <ele>801.6</ele>
        <time>2019-04-19T14:07:03Z</time>
      </trkpt>
      <trkpt lat="44.17992" lon="3.1528">
        <ele>801.1</ele>
        <time>2019-04-19T14:07:04Z</time>
      </trkpt>
      <trkpt lat="44.17995" lon="3.15284">
        <ele>800.5</ele>
        <time>2019-04-19T14:07:05Z</time>
      </trkpt>
      <trkpt lat="44.17998" lon="3.15289">
        <ele>799.9</ele>
        <time>2019-04-19T14:07:06Z</time>
      </trkpt>
      <trkpt lat="44.18001" lon="3.15294">
        <ele>799.3</ele>
        <time>2019-04-19T14:07:07Z</time>
      </trkpt>
      <trkpt lat="44.18004" lon="3.15299">
        <ele>798.7</ele>
        <time>2019-04-19T14:07:08Z</time>
      </trkpt>
      <trkpt lat="44.18007" lon="3.15303">
        <ele>798.1</ele>
        <time>2019-04-19T14:07:09Z</time>
      </trkpt>
      <trkpt lat="44.18011" lon="3.15306">
        <ele>797.6</ele>
        <time>2019-04-19T14:07:11Z</time>
      </trkpt>
      <trkpt lat="44.18014" lon="3.15307">
        <ele>797.3</ele>
        <time>2019-04-19T14:07:14Z</time>
      </trkpt>
      <trkpt lat="44.18011" lon="3.15309">
        <ele>797.1</ele>
        <time>2019-04-19T14:07:22Z</time>
      </trkpt>
      <trkpt lat="44.1801" lon="3.15313">
        <ele>796.8</ele>
        <time>2019-04-19T14:07:26Z</time>
      </trkpt>
      <trkpt lat="44.18011" lon="3.15316">
        <ele>796.6</ele>
        <time>2019-04-19T14:07:29Z</time>
      </trkpt>
      <trkpt lat="44.18015" lon="3.15322">
        <ele>796</ele>
        <time>2019-04-19T14:07:36Z</time>
      </trkpt>
      <trkpt lat="44.18018" lon="3.15326">
        <ele>795.6</ele>
        <time>2019-04-19T14:07:37Z</time>
      </trkpt>
      <trkpt lat="44.18022" lon="3.1533">
        <ele>795.1</ele>
        <time>2019-04-19T14:07:38Z</time>
      </trkpt>
      <trkpt lat="44.18028" lon="3.15341">
        <ele>794.7</ele>
        <time>2019-04-19T14:07:39Z</time>
      </trkpt>
      <trkpt lat="44.18033" lon="3.15347">
        <ele>795</ele>
        <time>2019-04-19T14:07:40Z</time>
      </trkpt>
      <trkpt lat="44.18038" lon="3.15354">
        <ele>795.5</ele>
        <time>2019-04-19T14:07:41Z</time>
      </trkpt>
      <trkpt lat="44.18042" lon="3.15358">
        <ele>796</ele>
        <time>2019-04-19T14:07:42Z</time>
      </trkpt>
      <trkpt lat="44.18044" lon="3.15356">
        <ele>794.9</ele>
        <time>2021-09-30T14:12:43Z</time>
      </trkpt>
      <trkpt lat="44.18049" lon="3.15363">
        <ele>793.8</ele>
        <time>2021-09-30T14:12:44Z</time>
      </trkpt>
      <trkpt lat="44.18055" lon="3.15379">
        <ele>792.3</ele>
        <time>2021-09-30T14:12:46Z</time>
      </trkpt>
      <trkpt lat="44.18057" lon="3.15388">
        <ele>791.9</ele>
        <time>2021-09-30T14:12:47Z</time>
      </trkpt>
      <trkpt lat="44.18062" lon="3.15396">
        <ele>791.6</ele>
        <time>2021-09-30T14:12:49Z</time>
      </trkpt>
      <trkpt lat="44.18066" lon="3.15394">
        <ele>791.5</ele>
        <time>2021-09-30T14:12:50Z</time>
      </trkpt>
      <trkpt lat="44.18075" lon="3.15388">
        <ele>791.5</ele>
        <time>2021-09-30T14:12:52Z</time>
      </trkpt>
      <trkpt lat="44.18078" lon="3.15381">
        <ele>791.6</ele>
        <time>2021-09-30T14:12:54Z</time>
      </trkpt>
      <trkpt lat="44.1808" lon="3.15378">
        <ele>791.7</ele>
        <time>2021-09-30T14:12:55Z</time>
      </trkpt>
      <trkpt lat="44.18083" lon="3.15375">
        <ele>791.7</ele>
        <time>2021-09-30T14:12:56Z</time>
      </trkpt>
      <trkpt lat="44.18088" lon="3.15368">
        <ele>791.8</ele>
        <time>2021-09-30T14:12:58Z</time>
      </trkpt>
      <trkpt lat="44.18092" lon="3.15365">
        <ele>791.7</ele>
        <time>2021-09-30T14:13:00Z</time>
      </trkpt>
      <trkpt lat="44.18094" lon="3.15364">
        <ele>791.7</ele>
        <time>2021-09-30T14:13:01Z</time>
      </trkpt>
      <trkpt lat="44.18095" lon="3.15365">
        <ele>792.1</ele>
        <time>2021-09-30T14:13:02Z</time>
      </trkpt>
      <trkpt lat="44.18096" lon="3.15372">
        <ele>792.5</ele>
        <time>2021-09-30T14:13:04Z</time>
      </trkpt>
      <trkpt lat="44.18095" lon="3.15375">
        <ele>792.9</ele>
        <time>2021-09-30T14:13:05Z</time>
      </trkpt>
      <trkpt lat="44.18093" lon="3.15382">
        <ele>793.1</ele>
        <time>2021-09-30T14:13:07Z</time>
      </trkpt>
      <trkpt lat="44.18093" lon="3.15386">
        <ele>793.4</ele>
        <time>2021-09-30T14:13:08Z</time>
      </trkpt>
      <trkpt lat="44.18093" lon="3.15387">
        <ele>793.4</ele>
        <time>2021-09-30T14:13:09Z</time>
      </trkpt>
      <trkpt lat="44.18091" lon="3.15393">
        <ele>793.8</ele>
        <time>2021-09-30T14:13:11Z</time>
      </trkpt>
      <trkpt lat="44.18091" lon="3.15395">
        <ele>793.6</ele>
        <time>2021-09-30T14:13:12Z</time>
      </trkpt>
      <trkpt lat="44.18088" lon="3.15401">
        <ele>793.9</ele>
        <time>2021-09-30T14:13:14Z</time>
      </trkpt>
      <trkpt lat="44.18087" lon="3.15404">
        <ele>793.8</ele>
        <time>2021-09-30T14:13:15Z</time>
      </trkpt>
      <trkpt lat="44.18085" lon="3.1541">
        <ele>793.6</ele>
        <time>2021-09-30T14:13:17Z</time>
      </trkpt>
      <trkpt lat="44.18083" lon="3.15413">
        <ele>793.9</ele>
        <time>2021-09-30T14:13:18Z</time>
      </trkpt>
      <trkpt lat="44.18081" lon="3.15419">
        <ele>793.7</ele>
        <time>2021-09-30T14:13:20Z</time>
      </trkpt>
      <trkpt lat="44.18079" lon="3.1542">
        <ele>794</ele>
        <time>2021-09-30T14:13:21Z</time>
      </trkpt>
      <trkpt lat="44.18076" lon="3.15426">
        <ele>793.6</ele>
        <time>2021-09-30T14:13:23Z</time>
      </trkpt>
      <trkpt lat="44.18072" lon="3.15431">
        <ele>793.7</ele>
        <time>2021-09-30T14:13:25Z</time>
      </trkpt>
      <trkpt lat="44.18069" lon="3.15434">
        <ele>793.8</ele>
        <time>2021-09-30T14:13:27Z</time>
      </trkpt>
      <trkpt lat="44.18066" lon="3.15436">
        <ele>793.6</ele>
        <time>2021-09-30T14:13:28Z</time>
      </trkpt>
      <trkpt lat="44.18063" lon="3.15439">
        <ele>793.9</ele>
        <time>2021-09-30T14:13:30Z</time>
      </trkpt>
      <trkpt lat="44.18061" lon="3.15443">
        <ele>794.3</ele>
        <time>2021-09-30T14:13:31Z</time>
      </trkpt>
      <trkpt lat="44.18061" lon="3.15445">
        <ele>794.3</ele>
        <time>2021-09-30T14:13:32Z</time>
      </trkpt>
      <trkpt lat="44.18064" lon="3.15448">
        <ele>794.8</ele>
        <time>2021-09-30T14:13:34Z</time>
      </trkpt>
      <trkpt lat="44.18067" lon="3.15448">
        <ele>795</ele>
        <time>2021-09-30T14:13:35Z</time>
      </trkpt>
      <trkpt lat="44.18072" lon="3.15446">
        <ele>795.3</ele>
        <time>2021-09-30T14:13:37Z</time>
      </trkpt>
      <trkpt lat="44.18074" lon="3.15444">
        <ele>795.1</ele>
        <time>2021-09-30T14:13:38Z</time>
      </trkpt>
      <trkpt lat="44.18078" lon="3.15442">
        <ele>795.4</ele>
        <time>2021-09-30T14:13:40Z</time>
      </trkpt>
      <trkpt lat="44.18082" lon="3.15439">
        <ele>795.4</ele>
        <time>2021-09-30T14:13:42Z</time>
      </trkpt>
      <trkpt lat="44.18085" lon="3.15438">
        <ele>796.2</ele>
        <time>2021-09-30T14:13:43Z</time>
      </trkpt>
      <trkpt lat="44.18088" lon="3.15439">
        <ele>796.6</ele>
        <time>2021-09-30T14:13:45Z</time>
      </trkpt>
      <trkpt lat="44.18092" lon="3.1544">
        <ele>797</ele>
        <time>2021-09-30T14:13:46Z</time>
      </trkpt>
      <trkpt lat="44.18094" lon="3.1544">
        <ele>797.1</ele>
        <time>2021-09-30T14:13:47Z</time>
      </trkpt>
      <trkpt lat="44.18095" lon="3.1544">
        <ele>797.5</ele>
        <time>2021-09-30T14:13:49Z</time>
      </trkpt>
      <trkpt lat="44.18099" lon="3.1544">
        <ele>797.9</ele>
        <time>2021-09-30T14:13:51Z</time>
      </trkpt>
      <trkpt lat="44.18101" lon="3.15441">
        <ele>798.6</ele>
        <time>2021-09-30T14:13:53Z</time>
      </trkpt>
      <trkpt lat="44.18102" lon="3.15441">
        <ele>798.6</ele>
        <time>2021-09-30T14:13:54Z</time>
      </trkpt>
      <trkpt lat="44.18103" lon="3.15442">
        <ele>798.7</ele>
        <time>2021-09-30T14:13:55Z</time>
      </trkpt>
      <trkpt lat="44.18106" lon="3.15444">
        <ele>799.1</ele>
        <time>2021-09-30T14:13:57Z</time>
      </trkpt>
      <trkpt lat="44.18107" lon="3.15444">
        <ele>799.6</ele>
        <time>2021-09-30T14:13:58Z</time>
      </trkpt>
      <trkpt lat="44.1811" lon="3.15445">
        <ele>799.6</ele>
        <time>2021-09-30T14:13:59Z</time>
      </trkpt>
      <trkpt lat="44.18113" lon="3.15445">
        <ele>800.5</ele>
        <time>2021-09-30T14:14:01Z</time>
      </trkpt>
      <trkpt lat="44.18117" lon="3.15444">
        <ele>801</ele>
        <time>2021-09-30T14:14:02Z</time>
      </trkpt>
      <trkpt lat="44.18118" lon="3.15443">
        <ele>801</ele>
        <time>2021-09-30T14:14:03Z</time>
      </trkpt>
      <trkpt lat="44.18122" lon="3.15442">
        <ele>801.5</ele>
        <time>2021-09-30T14:14:05Z</time>
      </trkpt>
      <trkpt lat="44.18125" lon="3.15441">
        <ele>801.9</ele>
        <time>2021-09-30T14:14:06Z</time>
      </trkpt>
      <trkpt lat="44.18127" lon="3.15439">
        <ele>802.4</ele>
        <time>2021-09-30T14:14:08Z</time>
      </trkpt>
      <trkpt lat="44.18128" lon="3.15438">
        <ele>802.4</ele>
        <time>2021-09-30T14:14:09Z</time>
      </trkpt>
      <trkpt lat="44.18129" lon="3.15437">
        <ele>802.9</ele>
        <time>2021-09-30T14:14:10Z</time>
      </trkpt>
      <trkpt lat="44.1813" lon="3.15436">
        <ele>802.8</ele>
        <time>2021-09-30T14:14:11Z</time>
      </trkpt>
      <trkpt lat="44.18134" lon="3.15434">
        <ele>803.2</ele>
        <time>2021-09-30T14:14:12Z</time>
      </trkpt>
      <trkpt lat="44.18135" lon="3.15433">
        <ele>803.6</ele>
        <time>2021-09-30T14:14:13Z</time>
      </trkpt>
      <trkpt lat="44.18141" lon="3.15429">
        <ele>804.2</ele>
        <time>2021-09-30T14:14:15Z</time>
      </trkpt>
      <trkpt lat="44.18145" lon="3.15426">
        <ele>804.3</ele>
        <time>2021-09-30T14:14:16Z</time>
      </trkpt>
      <trkpt lat="44.18149" lon="3.15423">
        <ele>804.4</ele>
        <time>2021-09-30T14:14:17Z</time>
      </trkpt>
      <trkpt lat="44.18153" lon="3.1542">
        <ele>804.8</ele>
        <time>2021-09-30T14:14:19Z</time>
      </trkpt>
      <trkpt lat="44.18156" lon="3.15417">
        <ele>804.7</ele>
        <time>2021-09-30T14:14:20Z</time>
      </trkpt>
      <trkpt lat="44.18161" lon="3.15416">
        <ele>804.8</ele>
        <time>2021-09-30T14:14:22Z</time>
      </trkpt>
      <trkpt lat="44.18167" lon="3.15414">
        <ele>804.6</ele>
        <time>2021-09-30T14:14:24Z</time>
      </trkpt>
      <trkpt lat="44.18174" lon="3.15413">
        <ele>804.5</ele>
        <time>2021-09-30T14:14:26Z</time>
      </trkpt>
      <trkpt lat="44.1818" lon="3.15414">
        <ele>804.2</ele>
        <time>2021-09-30T14:14:28Z</time>
      </trkpt>
      <trkpt lat="44.18183" lon="3.15412">
        <ele>804</ele>
        <time>2021-09-30T14:14:29Z</time>
      </trkpt>
      <trkpt lat="44.18188" lon="3.15409">
        <ele>803.2</ele>
        <time>2021-09-30T14:14:31Z</time>
      </trkpt>
      <trkpt lat="44.1819" lon="3.15406">
        <ele>802.4</ele>
        <time>2021-09-30T14:14:32Z</time>
      </trkpt>
      <trkpt lat="44.18193" lon="3.15402">
        <ele>801.8</ele>
        <time>2021-09-30T14:14:34Z</time>
      </trkpt>
      <trkpt lat="44.18196" lon="3.15402">
        <ele>801.4</ele>
        <time>2021-09-30T14:14:35Z</time>
      </trkpt>
      <trkpt lat="44.18199" lon="3.15405">
        <ele>801.1</ele>
        <time>2021-09-30T14:14:37Z</time>
      </trkpt>
      <trkpt lat="44.18201" lon="3.15407">
        <ele>800.7</ele>
        <time>2021-09-30T14:14:38Z</time>
      </trkpt>
      <trkpt lat="44.18201" lon="3.15406">
        <ele>800.4</ele>
        <time>2021-09-30T14:14:40Z</time>
      </trkpt>
      <trkpt lat="44.18202" lon="3.15407">
        <ele>800.8</ele>
        <time>2021-09-30T14:14:42Z</time>
      </trkpt>
      <trkpt lat="44.18203" lon="3.15407">
        <ele>800.1</ele>
        <time>2021-09-30T14:14:47Z</time>
      </trkpt>
      <trkpt lat="44.18207" lon="3.15409">
        <ele>799.3</ele>
        <time>2021-09-30T14:15:45Z</time>
      </trkpt>
      <trkpt lat="44.18209" lon="3.15415">
        <ele>798.9</ele>
        <time>2021-09-30T14:15:47Z</time>
      </trkpt>
      <trkpt lat="44.1821" lon="3.15419">
        <ele>799.3</ele>
        <time>2021-09-30T14:15:48Z</time>
      </trkpt>
      <trkpt lat="44.18211" lon="3.15427">
        <ele>799.9</ele>
        <time>2021-09-30T14:15:50Z</time>
      </trkpt>
      <trkpt lat="44.18212" lon="3.15429">
        <ele>799.3</ele>
        <time>2021-09-30T14:15:51Z</time>
      </trkpt>
      <trkpt lat="44.18214" lon="3.15432">
        <ele>799.6</ele>
        <time>2021-09-30T14:15:53Z</time>
      </trkpt>
      <trkpt lat="44.18215" lon="3.15438">
        <ele>798.9</ele>
        <time>2021-09-30T14:15:54Z</time>
      </trkpt>
      <trkpt lat="44.18216" lon="3.15443">
        <ele>799.2</ele>
        <time>2021-09-30T14:15:55Z</time>
      </trkpt>
      <trkpt lat="44.18217" lon="3.15448">
        <ele>799.5</ele>
        <time>2021-09-30T14:15:56Z</time>
      </trkpt>
      <trkpt lat="44.18218" lon="3.15456">
        <ele>798.9</ele>
        <time>2021-09-30T14:15:57Z</time>
      </trkpt>
      <trkpt lat="44.1822" lon="3.1546">
        <ele>799.1</ele>
        <time>2021-09-30T14:15:59Z</time>
      </trkpt>
      <trkpt lat="44.18222" lon="3.15465">
        <ele>797.4</ele>
        <time>2021-09-30T14:16:00Z</time>
      </trkpt>
      <trkpt lat="44.18226" lon="3.15468">
        <ele>796.3</ele>
        <time>2021-09-30T14:16:02Z</time>
      </trkpt>
      <trkpt lat="44.1823" lon="3.15471">
        <ele>794.1</ele>
        <time>2021-09-30T14:16:03Z</time>
      </trkpt>
      <trkpt lat="44.18232" lon="3.15474">
        <ele>794.2</ele>
        <time>2021-09-30T14:16:05Z</time>
      </trkpt>
      <trkpt lat="44.18238" lon="3.15478">
        <ele>791.8</ele>
        <time>2021-09-30T14:16:07Z</time>
      </trkpt>
      <trkpt lat="44.1824" lon="3.15482">
        <ele>790.5</ele>
        <time>2021-09-30T14:16:08Z</time>
      </trkpt>
      <trkpt lat="44.18241" lon="3.15486">
        <ele>790.7</ele>
        <time>2021-09-30T14:16:09Z</time>
      </trkpt>
      <trkpt lat="44.18241" lon="3.15487">
        <ele>790.7</ele>
        <time>2021-09-30T14:16:10Z</time>
      </trkpt>
      <trkpt lat="44.18241" lon="3.15494">
        <ele>791.1</ele>
        <time>2021-09-30T14:16:12Z</time>
      </trkpt>
      <trkpt lat="44.1824" lon="3.15498">
        <ele>791.3</ele>
        <time>2021-09-30T14:16:14Z</time>
      </trkpt>
      <trkpt lat="44.18238" lon="3.15502">
        <ele>792.9</ele>
        <time>2021-09-30T14:16:15Z</time>
      </trkpt>
      <trkpt lat="44.18238" lon="3.15504">
        <ele>793</ele>
        <time>2021-09-30T14:16:17Z</time>
      </trkpt>
      <trkpt lat="44.18238" lon="3.15505">
        <ele>793.1</ele>
        <time>2021-09-30T14:16:18Z</time>
      </trkpt>
      <trkpt lat="44.18238" lon="3.15507">
        <ele>793.1</ele>
        <time>2021-09-30T14:16:19Z</time>
      </trkpt>
      <trkpt lat="44.18238" lon="3.15508">
        <ele>793.1</ele>
        <time>2021-09-30T14:16:21Z</time>
      </trkpt>
      <trkpt lat="44.18239" lon="3.15509">
        <ele>793.2</ele>
        <time>2021-09-30T14:16:22Z</time>
      </trkpt>
      <trkpt lat="44.18239" lon="3.1551">
        <ele>791.9</ele>
        <time>2021-09-30T14:16:24Z</time>
      </trkpt>
      <trkpt lat="44.18239" lon="3.15512">
        <ele>791.9</ele>
        <time>2021-09-30T14:16:26Z</time>
      </trkpt>
      <trkpt lat="44.18239" lon="3.15513">
        <ele>791.9</ele>
        <time>2021-09-30T14:16:43Z</time>
      </trkpt>
      <trkpt lat="44.1824" lon="3.15514">
        <ele>792</ele>
        <time>2021-09-30T14:16:44Z</time>
      </trkpt>
      <trkpt lat="44.1824" lon="3.15515">
        <ele>792</ele>
        <time>2021-09-30T14:16:46Z</time>
      </trkpt>
      <trkpt lat="44.1824" lon="3.15517">
        <ele>792.1</ele>
        <time>2021-09-30T14:16:47Z</time>
      </trkpt>
      <trkpt lat="44.1824" lon="3.15518">
        <ele>792.1</ele>
        <time>2021-09-30T14:16:48Z</time>
      </trkpt>
      <trkpt lat="44.18242" lon="3.15521">
        <ele>790.7</ele>
        <time>2021-09-30T14:16:50Z</time>
      </trkpt>
      <trkpt lat="44.18244" lon="3.15525">
        <ele>790.8</ele>
        <time>2021-09-30T14:16:51Z</time>
      </trkpt>
      <trkpt lat="44.18247" lon="3.15532">
        <ele>789.5</ele>
        <time>2021-09-30T14:16:52Z</time>
      </trkpt>
      <trkpt lat="44.18252" lon="3.15541">
        <ele>786.6</ele>
        <time>2021-09-30T14:16:54Z</time>
      </trkpt>
      <trkpt lat="44.18256" lon="3.15548">
        <ele>785.2</ele>
        <time>2021-09-30T14:16:55Z</time>
      </trkpt>
      <trkpt lat="44.18258" lon="3.15554">
        <ele>784.2</ele>
        <time>2021-09-30T14:16:57Z</time>
      </trkpt>
      <trkpt lat="44.1826" lon="3.15565">
        <ele>784.8</ele>
        <time>2021-09-30T14:16:58Z</time>
      </trkpt>
      <trkpt lat="44.18262" lon="3.15574">
        <ele>784.5</ele>
        <time>2021-09-30T14:17:00Z</time>
      </trkpt>
      <trkpt lat="44.18262" lon="3.15584">
        <ele>785.4</ele>
        <time>2021-09-30T14:17:01Z</time>
      </trkpt>
      <trkpt lat="44.18264" lon="3.15593">
        <ele>784.9</ele>
        <time>2021-09-30T14:17:03Z</time>
      </trkpt>
      <trkpt lat="44.18266" lon="3.15599">
        <ele>785.4</ele>
        <time>2021-09-30T14:17:04Z</time>
      </trkpt>
      <trkpt lat="44.18268" lon="3.15604">
        <ele>785</ele>
        <time>2021-09-30T14:17:05Z</time>
      </trkpt>
      <trkpt lat="44.18278" lon="3.15615">
        <ele>781.5</ele>
        <time>2021-09-30T14:17:07Z</time>
      </trkpt>
      <trkpt lat="44.18281" lon="3.15618">
        <ele>780.5</ele>
        <time>2021-09-30T14:17:08Z</time>
      </trkpt>
      <trkpt lat="44.18288" lon="3.15626">
        <ele>778.7</ele>
        <time>2021-09-30T14:17:10Z</time>
      </trkpt>
      <trkpt lat="44.18294" lon="3.15644">
        <ele>779</ele>
        <time>2021-09-30T14:17:12Z</time>
      </trkpt>
      <trkpt lat="44.18294" lon="3.1565">
        <ele>778.5</ele>
        <time>2021-09-30T14:17:13Z</time>
      </trkpt>
      <trkpt lat="44.18297" lon="3.15665">
        <ele>781.3</ele>
        <time>2021-09-30T14:17:15Z</time>
      </trkpt>
      <trkpt lat="44.18303" lon="3.15685">
        <ele>781.3</ele>
        <time>2021-09-30T14:17:17Z</time>
      </trkpt>
      <trkpt lat="44.18305" lon="3.15694">
        <ele>781.4</ele>
        <time>2021-09-30T14:17:18Z</time>
      </trkpt>
      <trkpt lat="44.18302" lon="3.15702">
        <ele>783.2</ele>
        <time>2021-09-30T14:17:19Z</time>
      </trkpt>
      <trkpt lat="44.18299" lon="3.1571">
        <ele>785</ele>
        <time>2021-09-30T14:17:21Z</time>
      </trkpt>
      <trkpt lat="44.1829" lon="3.15716">
        <ele>787.6</ele>
        <time>2021-09-30T14:17:22Z</time>
      </trkpt>
      <trkpt lat="44.18285" lon="3.15722">
        <ele>788.4</ele>
        <time>2021-09-30T14:17:23Z</time>
      </trkpt>
      <trkpt lat="44.1828" lon="3.15728">
        <ele>789.8</ele>
        <time>2021-09-30T14:17:24Z</time>
      </trkpt>
      <trkpt lat="44.18274" lon="3.15734">
        <ele>791</ele>
        <time>2021-09-30T14:17:25Z</time>
      </trkpt>
      <trkpt lat="44.18261" lon="3.15745">
        <ele>792.9</ele>
        <time>2021-09-30T14:17:27Z</time>
      </trkpt>
      <trkpt lat="44.1825" lon="3.15755">
        <ele>794.2</ele>
        <time>2021-09-30T14:17:29Z</time>
      </trkpt>
      <trkpt lat="44.18236" lon="3.15763">
        <ele>796.2</ele>
        <time>2021-09-30T14:17:31Z</time>
      </trkpt>
      <trkpt lat="44.18229" lon="3.15773">
        <ele>796.3</ele>
        <time>2021-09-30T14:17:33Z</time>
      </trkpt>
      <trkpt lat="44.18225" lon="3.15779">
        <ele>796.5</ele>
        <time>2021-09-30T14:17:34Z</time>
      </trkpt>
      <trkpt lat="44.18223" lon="3.15785">
        <ele>796.4</ele>
        <time>2021-09-30T14:17:35Z</time>
      </trkpt>
      <trkpt lat="44.18222" lon="3.15798">
        <ele>795.2</ele>
        <time>2021-09-30T14:17:37Z</time>
      </trkpt>
      <trkpt lat="44.18229" lon="3.15805">
        <ele>793.4</ele>
        <time>2021-09-30T14:17:39Z</time>
      </trkpt>
      <trkpt lat="44.18237" lon="3.15808">
        <ele>791</ele>
        <time>2021-09-30T14:17:41Z</time>
      </trkpt>
      <trkpt lat="44.1824" lon="3.15813">
        <ele>789.9</ele>
        <time>2021-09-30T14:17:42Z</time>
      </trkpt>
      <trkpt lat="44.18241" lon="3.15819">
        <ele>788.9</ele>
        <time>2021-09-30T14:17:43Z</time>
      </trkpt>
      <trkpt lat="44.18242" lon="3.15824">
        <ele>787.7</ele>
        <time>2021-09-30T14:17:44Z</time>
      </trkpt>
      <trkpt lat="44.18245" lon="3.15829">
        <ele>786.6</ele>
        <time>2021-09-30T14:17:46Z</time>
      </trkpt>
      <trkpt lat="44.18248" lon="3.15833">
        <ele>786</ele>
        <time>2021-09-30T14:17:47Z</time>
      </trkpt>
      <trkpt lat="44.18248" lon="3.15835">
        <ele>785.4</ele>
        <time>2021-09-30T14:17:48Z</time>
      </trkpt>
      <trkpt lat="44.1825" lon="3.15839">
        <ele>784.8</ele>
        <time>2021-09-30T14:17:49Z</time>
      </trkpt>
      <trkpt lat="44.18251" lon="3.15842">
        <ele>784.1</ele>
        <time>2021-09-30T14:17:50Z</time>
      </trkpt>
      <trkpt lat="44.18252" lon="3.15846">
        <ele>782.8</ele>
        <time>2021-09-30T14:17:52Z</time>
      </trkpt>
      <trkpt lat="44.18253" lon="3.15848">
        <ele>782.9</ele>
        <time>2021-09-30T14:17:53Z</time>
      </trkpt>
      <trkpt lat="44.18253" lon="3.15852">
        <ele>782.2</ele>
        <time>2021-09-30T14:17:54Z</time>
      </trkpt>
      <trkpt lat="44.18254" lon="3.15853">
        <ele>781.5</ele>
        <time>2021-09-30T14:17:55Z</time>
      </trkpt>
      <trkpt lat="44.18254" lon="3.15856">
        <ele>781.6</ele>
        <time>2021-09-30T14:17:57Z</time>
      </trkpt>
      <trkpt lat="44.18255" lon="3.15859">
        <ele>780.2</ele>
        <time>2021-09-30T14:17:59Z</time>
      </trkpt>
      <trkpt lat="44.18256" lon="3.15861">
        <ele>780.3</ele>
        <time>2021-09-30T14:18:00Z</time>
      </trkpt>
      <trkpt lat="44.18257" lon="3.15863">
        <ele>779.6</ele>
        <time>2021-09-30T14:18:01Z</time>
      </trkpt>
      <trkpt lat="44.18257" lon="3.15865">
        <ele>779.6</ele>
        <time>2021-09-30T14:18:02Z</time>
      </trkpt>
      <trkpt lat="44.18256" lon="3.15866">
        <ele>779.7</ele>
        <time>2021-09-30T14:18:05Z</time>
      </trkpt>
      <trkpt lat="44.18256" lon="3.15872">
        <ele>778.5</ele>
        <time>2021-09-30T14:18:28Z</time>
      </trkpt>
      <trkpt lat="44.18257" lon="3.15874">
        <ele>777.9</ele>
        <time>2021-09-30T14:18:30Z</time>
      </trkpt>
      <trkpt lat="44.18257" lon="3.15875">
        <ele>778</ele>
        <time>2021-09-30T14:18:31Z</time>
      </trkpt>
      <trkpt lat="44.18257" lon="3.15876">
        <ele>778</ele>
        <time>2021-09-30T14:18:33Z</time>
      </trkpt>
      <trkpt lat="44.18257" lon="3.15877">
        <ele>778</ele>
        <time>2021-09-30T14:18:34Z</time>
      </trkpt>
      <trkpt lat="44.18258" lon="3.15878">
        <ele>777.3</ele>
        <time>2021-09-30T14:18:36Z</time>
      </trkpt>
      <trkpt lat="44.18259" lon="3.1588">
        <ele>776.8</ele>
        <time>2021-09-30T14:18:37Z</time>
      </trkpt>
      <trkpt lat="44.18261" lon="3.15885">
        <ele>775.5</ele>
        <time>2021-09-30T14:18:38Z</time>
      </trkpt>
      <trkpt lat="44.18262" lon="3.15891">
        <ele>774.2</ele>
        <time>2021-09-30T14:18:40Z</time>
      </trkpt>
      <trkpt lat="44.18262" lon="3.15898">
        <ele>773.5</ele>
        <time>2021-09-30T14:18:41Z</time>
      </trkpt>
      <trkpt lat="44.18261" lon="3.15903">
        <ele>772.8</ele>
        <time>2021-09-30T14:18:42Z</time>
      </trkpt>
      <trkpt lat="44.18259" lon="3.15908">
        <ele>772.9</ele>
        <time>2021-09-30T14:18:44Z</time>
      </trkpt>
      <trkpt lat="44.18257" lon="3.15912">
        <ele>773</ele>
        <time>2021-09-30T14:18:45Z</time>
      </trkpt>
      <trkpt lat="44.1825" lon="3.15922">
        <ele>772.9</ele>
        <time>2021-09-30T14:18:46Z</time>
      </trkpt>
      <trkpt lat="44.18248" lon="3.1593">
        <ele>773.3</ele>
        <time>2021-09-30T14:18:47Z</time>
      </trkpt>
      <trkpt lat="44.18242" lon="3.15944">
        <ele>773.3</ele>
        <time>2021-09-30T14:18:49Z</time>
      </trkpt>
      <trkpt lat="44.18238" lon="3.1595">
        <ele>773.9</ele>
        <time>2021-09-30T14:18:50Z</time>
      </trkpt>
      <trkpt lat="44.18234" lon="3.15956">
        <ele>774.1</ele>
        <time>2021-09-30T14:18:51Z</time>
      </trkpt>
      <trkpt lat="44.18229" lon="3.15969">
        <ele>775.2</ele>
        <time>2021-09-30T14:18:53Z</time>
      </trkpt>
      <trkpt lat="44.18224" lon="3.15983">
        <ele>775.3</ele>
        <time>2021-09-30T14:18:55Z</time>
      </trkpt>
      <trkpt lat="44.18223" lon="3.15991">
        <ele>775.8</ele>
        <time>2021-09-30T14:18:56Z</time>
      </trkpt>
      <trkpt lat="44.18222" lon="3.16">
        <ele>775.3</ele>
        <time>2021-09-30T14:18:57Z</time>
      </trkpt>
      <trkpt lat="44.18216" lon="3.1602">
        <ele>777.1</ele>
        <time>2021-09-30T14:18:59Z</time>
      </trkpt>
      <trkpt lat="44.18215" lon="3.16032">
        <ele>776.7</ele>
        <time>2021-09-30T14:19:00Z</time>
      </trkpt>
      <trkpt lat="44.18213" lon="3.16056">
        <ele>777.4</ele>
        <time>2021-09-30T14:19:02Z</time>
      </trkpt>
      <trkpt lat="44.18211" lon="3.1608">
        <ele>778.3</ele>
        <time>2021-09-30T14:19:04Z</time>
      </trkpt>
      <trkpt lat="44.18203" lon="3.16097">
        <ele>779.8</ele>
        <time>2021-09-30T14:19:06Z</time>
      </trkpt>
      <trkpt lat="44.18202" lon="3.16106">
        <ele>780.6</ele>
        <time>2021-09-30T14:19:07Z</time>
      </trkpt>
      <trkpt lat="44.18198" lon="3.16123">
        <ele>781.1</ele>
        <time>2021-09-30T14:19:09Z</time>
      </trkpt>
      <trkpt lat="44.18196" lon="3.16138">
        <ele>781.1</ele>
        <time>2021-09-30T14:19:11Z</time>
      </trkpt>
      <trkpt lat="44.18195" lon="3.16148">
        <ele>780.9</ele>
        <time>2021-09-30T14:19:13Z</time>
      </trkpt>
      <trkpt lat="44.18197" lon="3.16152">
        <ele>780.7</ele>
        <time>2021-09-30T14:19:15Z</time>
      </trkpt>
      <trkpt lat="44.18198" lon="3.16151">
        <ele>780.7</ele>
        <time>2021-09-30T14:19:17Z</time>
      </trkpt>
      <trkpt lat="44.182" lon="3.16156">
        <ele>780.5</ele>
        <time>2021-09-30T14:19:19Z</time>
      </trkpt>
      <trkpt lat="44.18201" lon="3.1616">
        <ele>780.4</ele>
        <time>2021-09-30T14:19:21Z</time>
      </trkpt>
      <trkpt lat="44.182" lon="3.16164">
        <ele>780.3</ele>
        <time>2021-09-30T14:19:23Z</time>
      </trkpt>
      <trkpt lat="44.182" lon="3.16168">
        <ele>780.2</ele>
        <time>2021-09-30T14:19:24Z</time>
      </trkpt>
      <trkpt lat="44.182" lon="3.16172">
        <ele>780.1</ele>
        <time>2021-09-30T14:19:25Z</time>
      </trkpt>
      <trkpt lat="44.18201" lon="3.16178">
        <ele>780</ele>
        <time>2021-09-30T14:19:27Z</time>
      </trkpt>
      <trkpt lat="44.18202" lon="3.16183">
        <ele>779.9</ele>
        <time>2021-09-30T14:19:28Z</time>
      </trkpt>
      <trkpt lat="44.18203" lon="3.16186">
        <ele>779.8</ele>
        <time>2021-09-30T14:19:29Z</time>
      </trkpt>
      <trkpt lat="44.18205" lon="3.16189">
        <ele>779.7</ele>
        <time>2021-09-30T14:19:30Z</time>
      </trkpt>
      <trkpt lat="44.18207" lon="3.16192">
        <ele>779.6</ele>
        <time>2021-09-30T14:19:31Z</time>
      </trkpt>
      <trkpt lat="44.18208" lon="3.16199">
        <ele>779.6</ele>
        <time>2021-09-30T14:19:33Z</time>
      </trkpt>
      <trkpt lat="44.18209" lon="3.16203">
        <ele>779.6</ele>
        <time>2021-09-30T14:19:34Z</time>
      </trkpt>
      <trkpt lat="44.18211" lon="3.16206">
        <ele>779.7</ele>
        <time>2021-09-30T14:19:36Z</time>
      </trkpt>
      <trkpt lat="44.18211" lon="3.16213">
        <ele>779.7</ele>
        <time>2021-09-30T14:19:38Z</time>
      </trkpt>
      <trkpt lat="44.1821" lon="3.16217">
        <ele>779.7</ele>
        <time>2021-09-30T14:19:39Z</time>
      </trkpt>
      <trkpt lat="44.18209" lon="3.16221">
        <ele>779.8</ele>
        <time>2021-09-30T14:19:40Z</time>
      </trkpt>
      <trkpt lat="44.18208" lon="3.16224">
        <ele>779.8</ele>
        <time>2021-09-30T14:19:41Z</time>
      </trkpt>
      <trkpt lat="44.18208" lon="3.16228">
        <ele>779.9</ele>
        <time>2021-09-30T14:19:43Z</time>
      </trkpt>
      <trkpt lat="44.18207" lon="3.16232">
        <ele>780</ele>
        <time>2021-09-30T14:19:44Z</time>
      </trkpt>
      <trkpt lat="44.18204" lon="3.16238">
        <ele>780.2</ele>
        <time>2021-09-30T14:19:45Z</time>
      </trkpt>
      <trkpt lat="44.18201" lon="3.16242">
        <ele>780.4</ele>
        <time>2021-09-30T14:19:47Z</time>
      </trkpt>
      <trkpt lat="44.18196" lon="3.16246">
        <ele>780.6</ele>
        <time>2021-09-30T14:19:49Z</time>
      </trkpt>
      <trkpt lat="44.18193" lon="3.16248">
        <ele>781.1</ele>
        <time>2021-09-30T14:19:50Z</time>
      </trkpt>
      <trkpt lat="44.18188" lon="3.16251">
        <ele>781.2</ele>
        <time>2021-09-30T14:19:51Z</time>
      </trkpt>
      <trkpt lat="44.18186" lon="3.16253">
        <ele>781.4</ele>
        <time>2021-09-30T14:19:53Z</time>
      </trkpt>
      <trkpt lat="44.18181" lon="3.16256">
        <ele>781.6</ele>
        <time>2021-09-30T14:19:54Z</time>
      </trkpt>
      <trkpt lat="44.18178" lon="3.16258">
        <ele>781.8</ele>
        <time>2021-09-30T14:19:56Z</time>
      </trkpt>
      <trkpt lat="44.18175" lon="3.16261">
        <ele>782.1</ele>
        <time>2021-09-30T14:19:57Z</time>
      </trkpt>
      <trkpt lat="44.18174" lon="3.16267">
        <ele>782.2</ele>
        <time>2021-09-30T14:19:58Z</time>
      </trkpt>
      <trkpt lat="44.18174" lon="3.16271">
        <ele>782.5</ele>
        <time>2021-09-30T14:19:59Z</time>
      </trkpt>
      <trkpt lat="44.18174" lon="3.16274">
        <ele>782.6</ele>
        <time>2021-09-30T14:20:01Z</time>
      </trkpt>
      <trkpt lat="44.18176" lon="3.16279">
        <ele>782.6</ele>
        <time>2021-09-30T14:20:03Z</time>
      </trkpt>
      <trkpt lat="44.18176" lon="3.16281">
        <ele>782.6</ele>
        <time>2021-09-30T14:20:04Z</time>
      </trkpt>
      <trkpt lat="44.18176" lon="3.16283">
        <ele>782.7</ele>
        <time>2021-09-30T14:20:05Z</time>
      </trkpt>
      <trkpt lat="44.18177" lon="3.16285">
        <ele>782.7</ele>
        <time>2021-09-30T14:20:06Z</time>
      </trkpt>
      <trkpt lat="44.18177" lon="3.16287">
        <ele>782.9</ele>
        <time>2021-09-30T14:20:08Z</time>
      </trkpt>
      <trkpt lat="44.18177" lon="3.16288">
        <ele>782.9</ele>
        <time>2021-09-30T14:20:09Z</time>
      </trkpt>
      <trkpt lat="44.18177" lon="3.1629">
        <ele>783</ele>
        <time>2021-09-30T14:20:10Z</time>
      </trkpt>
      <trkpt lat="44.18177" lon="3.16293">
        <ele>783</ele>
        <time>2021-09-30T14:20:12Z</time>
      </trkpt>
      <trkpt lat="44.18177" lon="3.16294">
        <ele>782.9</ele>
        <time>2021-09-30T14:20:13Z</time>
      </trkpt>
      <trkpt lat="44.18177" lon="3.16297">
        <ele>783.2</ele>
        <time>2021-09-30T14:20:14Z</time>
      </trkpt>
      <trkpt lat="44.18176" lon="3.163">
        <ele>783.3</ele>
        <time>2021-09-30T14:20:15Z</time>
      </trkpt>
      <trkpt lat="44.18176" lon="3.16302">
        <ele>783.3</ele>
        <time>2021-09-30T14:20:16Z</time>
      </trkpt>
      <trkpt lat="44.18176" lon="3.16308">
        <ele>783.5</ele>
        <time>2021-09-30T14:20:18Z</time>
      </trkpt>
      <trkpt lat="44.18176" lon="3.16311">
        <ele>783.5</ele>
        <time>2021-09-30T14:20:19Z</time>
      </trkpt>
      <trkpt lat="44.18175" lon="3.16314">
        <ele>783.6</ele>
        <time>2021-09-30T14:20:20Z</time>
      </trkpt>
      <trkpt lat="44.18175" lon="3.16318">
        <ele>783.6</ele>
        <time>2021-09-30T14:20:22Z</time>
      </trkpt>
      <trkpt lat="44.18174" lon="3.16323">
        <ele>783.7</ele>
        <time>2021-09-30T14:20:23Z</time>
      </trkpt>
      <trkpt lat="44.18174" lon="3.16325">
        <ele>783.9</ele>
        <time>2021-09-30T14:20:24Z</time>
      </trkpt>
      <trkpt lat="44.18172" lon="3.1633">
        <ele>783.9</ele>
        <time>2021-09-30T14:20:26Z</time>
      </trkpt>
      <trkpt lat="44.18171" lon="3.16334">
        <ele>784.2</ele>
        <time>2021-09-30T14:20:27Z</time>
      </trkpt>
      <trkpt lat="44.18169" lon="3.16338">
        <ele>784.2</ele>
        <time>2021-09-30T14:20:28Z</time>
      </trkpt>
      <trkpt lat="44.18168" lon="3.16341">
        <ele>784.2</ele>
        <time>2021-09-30T14:20:29Z</time>
      </trkpt>
      <trkpt lat="44.18167" lon="3.16344">
        <ele>784.4</ele>
        <time>2021-09-30T14:20:31Z</time>
      </trkpt>
      <trkpt lat="44.18165" lon="3.16349">
        <ele>784.4</ele>
        <time>2021-09-30T14:20:32Z</time>
      </trkpt>
      <trkpt lat="44.18163" lon="3.16352">
        <ele>784.6</ele>
        <time>2021-09-30T14:20:34Z</time>
      </trkpt>
      <trkpt lat="44.18162" lon="3.16353">
        <ele>784.8</ele>
        <time>2021-09-30T14:20:35Z</time>
      </trkpt>
      <trkpt lat="44.18159" lon="3.16356">
        <ele>784.8</ele>
        <time>2021-09-30T14:20:36Z</time>
      </trkpt>
      <trkpt lat="44.18159" lon="3.16359">
        <ele>785</ele>
        <time>2021-09-30T14:20:37Z</time>
      </trkpt>
      <trkpt lat="44.18158" lon="3.16363">
        <ele>784.9</ele>
        <time>2021-09-30T14:20:39Z</time>
      </trkpt>
      <trkpt lat="44.18157" lon="3.16367">
        <ele>784.9</ele>
        <time>2021-09-30T14:20:41Z</time>
      </trkpt>
      <trkpt lat="44.18157" lon="3.1637">
        <ele>785</ele>
        <time>2021-09-30T14:20:42Z</time>
      </trkpt>
      <trkpt lat="44.18157" lon="3.16372">
        <ele>785</ele>
        <time>2021-09-30T14:20:43Z</time>
      </trkpt>
      <trkpt lat="44.18158" lon="3.16376">
        <ele>785</ele>
        <time>2021-09-30T14:20:45Z</time>
      </trkpt>
      <trkpt lat="44.18158" lon="3.16377">
        <ele>785.1</ele>
        <time>2021-09-30T14:20:46Z</time>
      </trkpt>
      <trkpt lat="44.18159" lon="3.16379">
        <ele>784.9</ele>
        <time>2021-09-30T14:20:47Z</time>
      </trkpt>
      <trkpt lat="44.18159" lon="3.1638">
        <ele>784.9</ele>
        <time>2021-09-30T14:20:48Z</time>
      </trkpt>
      <trkpt lat="44.1816" lon="3.16384">
        <ele>785</ele>
        <time>2021-09-30T14:20:50Z</time>
      </trkpt>
      <trkpt lat="44.18161" lon="3.16385">
        <ele>785</ele>
        <time>2021-09-30T14:20:51Z</time>
      </trkpt>
      <trkpt lat="44.18162" lon="3.16387">
        <ele>785</ele>
        <time>2021-09-30T14:20:52Z</time>
      </trkpt>
      <trkpt lat="44.18163" lon="3.16389">
        <ele>784.8</ele>
        <time>2021-09-30T14:20:53Z</time>
      </trkpt>
      <trkpt lat="44.18165" lon="3.16392">
        <ele>784.8</ele>
        <time>2021-09-30T14:20:54Z</time>
      </trkpt>
      <trkpt lat="44.18168" lon="3.16394">
        <ele>784.5</ele>
        <time>2021-09-30T14:20:56Z</time>
      </trkpt>
      <trkpt lat="44.18171" lon="3.16395">
        <ele>784.5</ele>
        <time>2021-09-30T14:20:57Z</time>
      </trkpt>
      <trkpt lat="44.18173" lon="3.16395">
        <ele>784.4</ele>
        <time>2021-09-30T14:20:58Z</time>
      </trkpt>
      <trkpt lat="44.18177" lon="3.16395">
        <ele>784.3</ele>
        <time>2021-09-30T14:21:00Z</time>
      </trkpt>
      <trkpt lat="44.18181" lon="3.16395">
        <ele>784.1</ele>
        <time>2021-09-30T14:21:01Z</time>
      </trkpt>
      <trkpt lat="44.18183" lon="3.16395">
        <ele>784.1</ele>
        <time>2021-09-30T14:21:02Z</time>
      </trkpt>
      <trkpt lat="44.1819" lon="3.16396">
        <ele>783.8</ele>
        <time>2021-09-30T14:21:04Z</time>
      </trkpt>
      <trkpt lat="44.18194" lon="3.16396">
        <ele>783.6</ele>
        <time>2021-09-30T14:21:05Z</time>
      </trkpt>
      <trkpt lat="44.18201" lon="3.16394">
        <ele>783.4</ele>
        <time>2021-09-30T14:21:06Z</time>
      </trkpt>
      <trkpt lat="44.18208" lon="3.16393">
        <ele>783</ele>
        <time>2021-09-30T14:21:08Z</time>
      </trkpt>
      <trkpt lat="44.18215" lon="3.16393">
        <ele>782.8</ele>
        <time>2021-09-30T14:21:09Z</time>
      </trkpt>
      <trkpt lat="44.18221" lon="3.16392">
        <ele>782.4</ele>
        <time>2021-09-30T14:21:10Z</time>
      </trkpt>
      <trkpt lat="44.18229" lon="3.16393">
        <ele>782.1</ele>
        <time>2021-09-30T14:21:12Z</time>
      </trkpt>
      <trkpt lat="44.18234" lon="3.16393">
        <ele>782</ele>
        <time>2021-09-30T14:21:13Z</time>
      </trkpt>
      <trkpt lat="44.18239" lon="3.16394">
        <ele>781.7</ele>
        <time>2021-09-30T14:21:14Z</time>
      </trkpt>
      <trkpt lat="44.18243" lon="3.16394">
        <ele>781.6</ele>
        <time>2021-09-30T14:21:16Z</time>
      </trkpt>
      <trkpt lat="44.18249" lon="3.16394">
        <ele>781.3</ele>
        <time>2021-09-30T14:21:17Z</time>
      </trkpt>
      <trkpt lat="44.18256" lon="3.16397">
        <ele>781</ele>
        <time>2021-09-30T14:21:19Z</time>
      </trkpt>
      <trkpt lat="44.18263" lon="3.16401">
        <ele>780.8</ele>
        <time>2021-09-30T14:21:20Z</time>
      </trkpt>
      <trkpt lat="44.18269" lon="3.16405">
        <ele>780.6</ele>
        <time>2021-09-30T14:21:22Z</time>
      </trkpt>
      <trkpt lat="44.18276" lon="3.16405">
        <ele>780.3</ele>
        <time>2021-09-30T14:21:23Z</time>
      </trkpt>
      <trkpt lat="44.18284" lon="3.16402">
        <ele>779.6</ele>
        <time>2021-09-30T14:21:25Z</time>
      </trkpt>
      <trkpt lat="44.18291" lon="3.16395">
        <ele>778.8</ele>
        <time>2021-09-30T14:21:27Z</time>
      </trkpt>
      <trkpt lat="44.18295" lon="3.16392">
        <ele>778.4</ele>
        <time>2021-09-30T14:21:28Z</time>
      </trkpt>
      <trkpt lat="44.18299" lon="3.16386">
        <ele>777.9</ele>
        <time>2021-09-30T14:21:29Z</time>
      </trkpt>
      <trkpt lat="44.18305" lon="3.16383">
        <ele>777.2</ele>
        <time>2021-09-30T14:21:31Z</time>
      </trkpt>
      <trkpt lat="44.18308" lon="3.16382">
        <ele>777.1</ele>
        <time>2021-09-30T14:21:32Z</time>
      </trkpt>
      <trkpt lat="44.18312" lon="3.16386">
        <ele>777.1</ele>
        <time>2021-09-30T14:21:33Z</time>
      </trkpt>
      <trkpt lat="44.18315" lon="3.16391">
        <ele>777.2</ele>
        <time>2021-09-30T14:21:34Z</time>
      </trkpt>
      <trkpt lat="44.18317" lon="3.16396">
        <ele>777.3</ele>
        <time>2021-09-30T14:21:35Z</time>
      </trkpt>
      <trkpt lat="44.1832" lon="3.16404">
        <ele>777.5</ele>
        <time>2021-09-30T14:21:37Z</time>
      </trkpt>
      <trkpt lat="44.18327" lon="3.16416">
        <ele>777.5</ele>
        <time>2021-09-30T14:21:38Z</time>
      </trkpt>
      <trkpt lat="44.18336" lon="3.16423">
        <ele>776.8</ele>
        <time>2021-09-30T14:21:40Z</time>
      </trkpt>
      <trkpt lat="44.1834" lon="3.16426">
        <ele>776.5</ele>
        <time>2021-09-30T14:21:41Z</time>
      </trkpt>
      <trkpt lat="44.18346" lon="3.16427">
        <ele>776.1</ele>
        <time>2021-09-30T14:21:42Z</time>
      </trkpt>
      <trkpt lat="44.18349" lon="3.1643">
        <ele>775.8</ele>
        <time>2021-09-30T14:21:43Z</time>
      </trkpt>
      <trkpt lat="44.18351" lon="3.16435">
        <ele>775.4</ele>
        <time>2021-09-30T14:21:45Z</time>
      </trkpt>
      <trkpt lat="44.18352" lon="3.16437">
        <ele>775.2</ele>
        <time>2021-09-30T14:21:46Z</time>
      </trkpt>
      <trkpt lat="44.1836" lon="3.16443">
        <ele>774.2</ele>
        <time>2021-09-30T14:21:47Z</time>
      </trkpt>
      <trkpt lat="44.18366" lon="3.16445">
        <ele>773.5</ele>
        <time>2021-09-30T14:21:49Z</time>
      </trkpt>
      <trkpt lat="44.1837" lon="3.16441">
        <ele>773.5</ele>
        <time>2021-09-30T14:21:50Z</time>
      </trkpt>
      <trkpt lat="44.18375" lon="3.16438">
        <ele>773.1</ele>
        <time>2021-09-30T14:21:52Z</time>
      </trkpt>
      <trkpt lat="44.18379" lon="3.16439">
        <ele>772.9</ele>
        <time>2021-09-30T14:21:53Z</time>
      </trkpt>
      <trkpt lat="44.18385" lon="3.1644">
        <ele>772.4</ele>
        <time>2021-09-30T14:21:54Z</time>
      </trkpt>
      <trkpt lat="44.18388" lon="3.16438">
        <ele>772.2</ele>
        <time>2021-09-30T14:21:56Z</time>
      </trkpt>
      <trkpt lat="44.18391" lon="3.16436">
        <ele>772</ele>
        <time>2021-09-30T14:21:57Z</time>
      </trkpt>
      <trkpt lat="44.18395" lon="3.16433">
        <ele>771.7</ele>
        <time>2021-09-30T14:21:58Z</time>
      </trkpt>
      <trkpt lat="44.18399" lon="3.16429">
        <ele>771.4</ele>
        <time>2021-09-30T14:21:59Z</time>
      </trkpt>
      <trkpt lat="44.18402" lon="3.16424">
        <ele>770.8</ele>
        <time>2021-09-30T14:22:00Z</time>
      </trkpt>
      <trkpt lat="44.18408" lon="3.16418">
        <ele>770.3</ele>
        <time>2021-09-30T14:22:02Z</time>
      </trkpt>
      <trkpt lat="44.18412" lon="3.16414">
        <ele>769.6</ele>
        <time>2021-09-30T14:22:03Z</time>
      </trkpt>
      <trkpt lat="44.18421" lon="3.16407">
        <ele>768.8</ele>
        <time>2021-09-30T14:22:04Z</time>
      </trkpt>
      <trkpt lat="44.18427" lon="3.16403">
        <ele>768.2</ele>
        <time>2021-09-30T14:22:05Z</time>
      </trkpt>
      <trkpt lat="44.18435" lon="3.16398">
        <ele>767.6</ele>
        <time>2021-09-30T14:22:07Z</time>
      </trkpt>
      <trkpt lat="44.18439" lon="3.16397">
        <ele>766.9</ele>
        <time>2021-09-30T14:22:08Z</time>
      </trkpt>
      <trkpt lat="44.18445" lon="3.16402">
        <ele>766.9</ele>
        <time>2021-09-30T14:22:10Z</time>
      </trkpt>
      <trkpt lat="44.18448" lon="3.16403">
        <ele>766.9</ele>
        <time>2021-09-30T14:22:11Z</time>
      </trkpt>
      <trkpt lat="44.18451" lon="3.16402">
        <ele>766.4</ele>
        <time>2021-09-30T14:22:12Z</time>
      </trkpt>
      <trkpt lat="44.18454" lon="3.16401">
        <ele>766.2</ele>
        <time>2021-09-30T14:22:13Z</time>
      </trkpt>
      <trkpt lat="44.18458" lon="3.16401">
        <ele>765.7</ele>
        <time>2021-09-30T14:22:15Z</time>
      </trkpt>
      <trkpt lat="44.18462" lon="3.164">
        <ele>765.5</ele>
        <time>2021-09-30T14:22:16Z</time>
      </trkpt>
      <trkpt lat="44.18465" lon="3.164">
        <ele>765.3</ele>
        <time>2021-09-30T14:22:17Z</time>
      </trkpt>
      <trkpt lat="44.18471" lon="3.16401">
        <ele>764.8</ele>
        <time>2021-09-30T14:22:19Z</time>
      </trkpt>
      <trkpt lat="44.18474" lon="3.16402">
        <ele>764.9</ele>
        <time>2021-09-30T14:22:20Z</time>
      </trkpt>
      <trkpt lat="44.18478" lon="3.16404">
        <ele>764.7</ele>
        <time>2021-09-30T14:22:21Z</time>
      </trkpt>
      <trkpt lat="44.18481" lon="3.16405">
        <ele>764.6</ele>
        <time>2021-09-30T14:22:22Z</time>
      </trkpt>
      <trkpt lat="44.18486" lon="3.16404">
        <ele>764.3</ele>
        <time>2021-09-30T14:22:24Z</time>
      </trkpt>
      <trkpt lat="44.18488" lon="3.16403">
        <ele>764.2</ele>
        <time>2021-09-30T14:22:25Z</time>
      </trkpt>
      <trkpt lat="44.18492" lon="3.16396">
        <ele>763.4</ele>
        <time>2021-09-30T14:22:27Z</time>
      </trkpt>
      <trkpt lat="44.18492" lon="3.16389">
        <ele>763</ele>
        <time>2021-09-30T14:22:29Z</time>
      </trkpt>
      <trkpt lat="44.18494" lon="3.16386">
        <ele>762.6</ele>
        <time>2021-09-30T14:22:30Z</time>
      </trkpt>
      <trkpt lat="44.18496" lon="3.16382">
        <ele>762</ele>
        <time>2021-09-30T14:22:31Z</time>
      </trkpt>
      <trkpt lat="44.185" lon="3.16379">
        <ele>761.4</ele>
        <time>2021-09-30T14:22:32Z</time>
      </trkpt>
      <trkpt lat="44.18506" lon="3.16378">
        <ele>761.1</ele>
        <time>2021-09-30T14:22:34Z</time>
      </trkpt>
      <trkpt lat="44.18514" lon="3.16381">
        <ele>761.4</ele>
        <time>2021-09-30T14:22:35Z</time>
      </trkpt>
      <trkpt lat="44.18523" lon="3.1639">
        <ele>762.1</ele>
        <time>2021-09-30T14:22:37Z</time>
      </trkpt>
      <trkpt lat="44.18534" lon="3.16396">
        <ele>762.1</ele>
        <time>2021-09-30T14:22:39Z</time>
      </trkpt>
      <trkpt lat="44.18542" lon="3.16406">
        <ele>762.6</ele>
        <time>2021-09-30T14:22:41Z</time>
      </trkpt>
      <trkpt lat="44.18543" lon="3.16412">
        <ele>763.4</ele>
        <time>2021-09-30T14:22:42Z</time>
      </trkpt>
      <trkpt lat="44.18544" lon="3.16418">
        <ele>763.6</ele>
        <time>2021-09-30T14:22:43Z</time>
      </trkpt>
      <trkpt lat="44.18547" lon="3.16429">
        <ele>764.1</ele>
        <time>2021-09-30T14:22:45Z</time>
      </trkpt>
      <trkpt lat="44.18545" lon="3.16433">
        <ele>764.3</ele>
        <time>2021-09-30T14:22:46Z</time>
      </trkpt>
      <trkpt lat="44.18545" lon="3.16434">
        <ele>764.3</ele>
        <time>2021-09-30T14:22:47Z</time>
      </trkpt>
      <trkpt lat="44.18541" lon="3.16433">
        <ele>764.3</ele>
        <time>2021-09-30T14:22:48Z</time>
      </trkpt>
      <trkpt lat="44.18539" lon="3.16433">
        <ele>764.3</ele>
        <time>2021-09-30T14:22:49Z</time>
      </trkpt>
      <trkpt lat="44.18535" lon="3.16431">
        <ele>764.3</ele>
        <time>2021-09-30T14:22:51Z</time>
      </trkpt>
      <trkpt lat="44.18532" lon="3.1643">
        <ele>764.4</ele>
        <time>2021-09-30T14:22:52Z</time>
      </trkpt>
      <trkpt lat="44.1853" lon="3.1643">
        <ele>764.4</ele>
        <time>2021-09-30T14:22:53Z</time>
      </trkpt>
      <trkpt lat="44.18526" lon="3.1643">
        <ele>764.4</ele>
        <time>2021-09-30T14:22:54Z</time>
      </trkpt>
      <trkpt lat="44.18521" lon="3.16431">
        <ele>764.4</ele>
        <time>2021-09-30T14:22:56Z</time>
      </trkpt>
      <trkpt lat="44.18519" lon="3.16432">
        <ele>764.4</ele>
        <time>2021-09-30T14:22:57Z</time>
      </trkpt>
      <trkpt lat="44.18515" lon="3.16434">
        <ele>764.4</ele>
        <time>2021-09-30T14:22:58Z</time>
      </trkpt>
      <trkpt lat="44.18512" lon="3.16436">
        <ele>764.4</ele>
        <time>2021-09-30T14:22:59Z</time>
      </trkpt>
      <trkpt lat="44.18509" lon="3.16439">
        <ele>764.3</ele>
        <time>2021-09-30T14:23:00Z</time>
      </trkpt>
      <trkpt lat="44.18506" lon="3.16444">
        <ele>764.3</ele>
        <time>2021-09-30T14:23:02Z</time>
      </trkpt>
      <trkpt lat="44.18505" lon="3.16449">
        <ele>764.2</ele>
        <time>2021-09-30T14:23:03Z</time>
      </trkpt>
      <trkpt lat="44.18502" lon="3.1646">
        <ele>763.9</ele>
        <time>2021-09-30T14:23:05Z</time>
      </trkpt>
      <trkpt lat="44.18499" lon="3.16468">
        <ele>763.7</ele>
        <time>2021-09-30T14:23:06Z</time>
      </trkpt>
      <trkpt lat="44.18496" lon="3.16473">
        <ele>763.5</ele>
        <time>2021-09-30T14:23:07Z</time>
      </trkpt>
      <trkpt lat="44.18493" lon="3.16478">
        <ele>763.2</ele>
        <time>2021-09-30T14:23:08Z</time>
      </trkpt>
      <trkpt lat="44.18486" lon="3.16488">
        <ele>762.7</ele>
        <time>2021-09-30T14:23:10Z</time>
      </trkpt>
      <trkpt lat="44.18483" lon="3.16492">
        <ele>762.5</ele>
        <time>2021-09-30T14:23:11Z</time>
      </trkpt>
      <trkpt lat="44.18478" lon="3.165">
        <ele>762.2</ele>
        <time>2021-09-30T14:23:13Z</time>
      </trkpt>
      <trkpt lat="44.18474" lon="3.16509">
        <ele>761.9</ele>
        <time>2021-09-30T14:23:14Z</time>
      </trkpt>
      <trkpt lat="44.18465" lon="3.16524">
        <ele>761.3</ele>
        <time>2021-09-30T14:23:16Z</time>
      </trkpt>
      <trkpt lat="44.18455" lon="3.16536">
        <ele>760.8</ele>
        <time>2021-09-30T14:23:18Z</time>
      </trkpt>
      <trkpt lat="44.18445" lon="3.16541">
        <ele>760.5</ele>
        <time>2021-09-30T14:23:20Z</time>
      </trkpt>
      <trkpt lat="44.1844" lon="3.16543">
        <ele>760.3</ele>
        <time>2021-09-30T14:23:21Z</time>
      </trkpt>
      <trkpt lat="44.18432" lon="3.16548">
        <ele>760.2</ele>
        <time>2021-09-30T14:23:23Z</time>
      </trkpt>
      <trkpt lat="44.18433" lon="3.1655">
        <ele>760.2</ele>
        <time>2021-09-30T14:23:24Z</time>
      </trkpt>
      <trkpt lat="44.18434" lon="3.16559">
        <ele>760.2</ele>
        <time>2021-09-30T14:23:26Z</time>
      </trkpt>
      <trkpt lat="44.1844" lon="3.16568">
        <ele>760.3</ele>
        <time>2021-09-30T14:23:27Z</time>
      </trkpt>
      <trkpt lat="44.18446" lon="3.1657">
        <ele>760.4</ele>
        <time>2021-09-30T14:23:29Z</time>
      </trkpt>
      <trkpt lat="44.18449" lon="3.1657">
        <ele>760.4</ele>
        <time>2021-09-30T14:23:30Z</time>
      </trkpt>
      <trkpt lat="44.18459" lon="3.16567">
        <ele>760.5</ele>
        <time>2021-09-30T14:23:32Z</time>
      </trkpt>
      <trkpt lat="44.18464" lon="3.16567">
        <ele>760.5</ele>
        <time>2021-09-30T14:23:33Z</time>
      </trkpt>
      <trkpt lat="44.18473" lon="3.16566">
        <ele>760.6</ele>
        <time>2021-09-30T14:23:35Z</time>
      </trkpt>
      <trkpt lat="44.18482" lon="3.16566">
        <ele>760.6</ele>
        <time>2021-09-30T14:23:37Z</time>
      </trkpt>
      <trkpt lat="44.18492" lon="3.1657">
        <ele>760.8</ele>
        <time>2021-09-30T14:23:39Z</time>
      </trkpt>
      <trkpt lat="44.185" lon="3.16574">
        <ele>760.9</ele>
        <time>2021-09-30T14:23:41Z</time>
      </trkpt>
      <trkpt lat="44.18504" lon="3.16577">
        <ele>761</ele>
        <time>2021-09-30T14:23:42Z</time>
      </trkpt>
      <trkpt lat="44.18508" lon="3.16581">
        <ele>761.1</ele>
        <time>2021-09-30T14:23:43Z</time>
      </trkpt>
      <trkpt lat="44.18516" lon="3.1659">
        <ele>761.2</ele>
        <time>2021-09-30T14:23:45Z</time>
      </trkpt>
      <trkpt lat="44.18521" lon="3.16595">
        <ele>761.3</ele>
        <time>2021-09-30T14:23:46Z</time>
      </trkpt>
      <trkpt lat="44.18529" lon="3.16597">
        <ele>761.4</ele>
        <time>2021-09-30T14:23:48Z</time>
      </trkpt>
      <trkpt lat="44.18533" lon="3.16593">
        <ele>761.4</ele>
        <time>2021-09-30T14:23:49Z</time>
      </trkpt>
      <trkpt lat="44.18537" lon="3.16593">
        <ele>761.4</ele>
        <time>2021-09-30T14:23:50Z</time>
      </trkpt>
      <trkpt lat="44.18544" lon="3.16591">
        <ele>761.5</ele>
        <time>2021-09-30T14:23:51Z</time>
      </trkpt>
      <trkpt lat="44.18548" lon="3.16591">
        <ele>761.5</ele>
        <time>2021-09-30T14:23:53Z</time>
      </trkpt>
      <trkpt lat="44.18552" lon="3.16592">
        <ele>761.6</ele>
        <time>2021-09-30T14:23:54Z</time>
      </trkpt>
      <trkpt lat="44.18558" lon="3.16596">
        <ele>761.7</ele>
        <time>2021-09-30T14:23:55Z</time>
      </trkpt>
      <trkpt lat="44.18564" lon="3.16598">
        <ele>761.8</ele>
        <time>2021-09-30T14:23:56Z</time>
      </trkpt>
      <trkpt lat="44.18572" lon="3.16604">
        <ele>761.9</ele>
        <time>2021-09-30T14:23:58Z</time>
      </trkpt>
      <trkpt lat="44.18576" lon="3.16607">
        <ele>762</ele>
        <time>2021-09-30T14:23:59Z</time>
      </trkpt>
      <trkpt lat="44.18581" lon="3.16611">
        <ele>762.1</ele>
        <time>2021-09-30T14:24:00Z</time>
      </trkpt>
      <trkpt lat="44.18591" lon="3.16618">
        <ele>762.2</ele>
        <time>2021-09-30T14:24:02Z</time>
      </trkpt>
      <trkpt lat="44.18595" lon="3.16621">
        <ele>762.3</ele>
        <time>2021-09-30T14:24:03Z</time>
      </trkpt>
      <trkpt lat="44.18602" lon="3.16627">
        <ele>762.4</ele>
        <time>2021-09-30T14:24:05Z</time>
      </trkpt>
      <trkpt lat="44.18606" lon="3.16633">
        <ele>762.4</ele>
        <time>2021-09-30T14:24:06Z</time>
      </trkpt>
      <trkpt lat="44.18609" lon="3.16638">
        <ele>762.4</ele>
        <time>2021-09-30T14:24:07Z</time>
      </trkpt>
      <trkpt lat="44.18616" lon="3.16648">
        <ele>762.4</ele>
        <time>2021-09-30T14:24:09Z</time>
      </trkpt>
      <trkpt lat="44.18618" lon="3.1665">
        <ele>762.4</ele>
        <time>2021-09-30T14:24:10Z</time>
      </trkpt>
      <trkpt lat="44.1862" lon="3.16665">
        <ele>762.4</ele>
        <time>2021-09-30T14:24:12Z</time>
      </trkpt>
      <trkpt lat="44.1862" lon="3.16675">
        <ele>762.3</ele>
        <time>2021-09-30T14:24:13Z</time>
      </trkpt>
      <trkpt lat="44.18623" lon="3.1669">
        <ele>762.3</ele>
        <time>2021-09-30T14:24:15Z</time>
      </trkpt>
      <trkpt lat="44.18624" lon="3.16695">
        <ele>762.3</ele>
        <time>2021-09-30T14:24:16Z</time>
      </trkpt>
      <trkpt lat="44.18627" lon="3.16702">
        <ele>762.4</ele>
        <time>2021-09-30T14:24:17Z</time>
      </trkpt>
      <trkpt lat="44.18629" lon="3.1671">
        <ele>762.5</ele>
        <time>2021-09-30T14:24:18Z</time>
      </trkpt>
      <trkpt lat="44.18634" lon="3.16725">
        <ele>763</ele>
        <time>2021-09-30T14:24:20Z</time>
      </trkpt>
      <trkpt lat="44.18639" lon="3.16734">
        <ele>763.5</ele>
        <time>2021-09-30T14:24:22Z</time>
      </trkpt>
      <trkpt lat="44.18642" lon="3.16737">
        <ele>763.8</ele>
        <time>2021-09-30T14:24:23Z</time>
      </trkpt>
      <trkpt lat="44.18643" lon="3.16742">
        <ele>764.2</ele>
        <time>2021-09-30T14:24:24Z</time>
      </trkpt>
      <trkpt lat="44.18645" lon="3.16747">
        <ele>764.6</ele>
        <time>2021-09-30T14:24:26Z</time>
      </trkpt>
      <trkpt lat="44.18645" lon="3.16748">
        <ele>764.7</ele>
        <time>2021-09-30T14:24:27Z</time>
      </trkpt>
      <trkpt lat="44.18646" lon="3.16753">
        <ele>765.1</ele>
        <time>2021-09-30T14:24:29Z</time>
      </trkpt>
      <trkpt lat="44.18647" lon="3.16758">
        <ele>765.5</ele>
        <time>2021-09-30T14:24:30Z</time>
      </trkpt>
      <trkpt lat="44.18648" lon="3.16759">
        <ele>765.6</ele>
        <time>2021-09-30T14:24:31Z</time>
      </trkpt>
      <trkpt lat="44.18649" lon="3.16762">
        <ele>765.9</ele>
        <time>2021-09-30T14:24:32Z</time>
      </trkpt>
      <trkpt lat="44.1865" lon="3.16766">
        <ele>766.2</ele>
        <time>2021-09-30T14:24:34Z</time>
      </trkpt>
      <trkpt lat="44.18651" lon="3.1677">
        <ele>766.5</ele>
        <time>2021-09-30T14:24:35Z</time>
      </trkpt>
      <trkpt lat="44.18652" lon="3.16772">
        <ele>766.7</ele>
        <time>2021-09-30T14:24:36Z</time>
      </trkpt>
      <trkpt lat="44.18653" lon="3.16775">
        <ele>767</ele>
        <time>2021-09-30T14:24:38Z</time>
      </trkpt>
      <trkpt lat="44.18654" lon="3.16776">
        <ele>767.1</ele>
        <time>2021-09-30T14:24:39Z</time>
      </trkpt>
      <trkpt lat="44.18656" lon="3.1678">
        <ele>767.6</ele>
        <time>2021-09-30T14:24:41Z</time>
      </trkpt>
      <trkpt lat="44.18658" lon="3.16784">
        <ele>767.9</ele>
        <time>2021-09-30T14:24:42Z</time>
      </trkpt>
      <trkpt lat="44.18659" lon="3.16786">
        <ele>768.2</ele>
        <time>2021-09-30T14:24:43Z</time>
      </trkpt>
      <trkpt lat="44.18661" lon="3.16789">
        <ele>768.5</ele>
        <time>2021-09-30T14:24:45Z</time>
      </trkpt>
      <trkpt lat="44.18663" lon="3.16794">
        <ele>769</ele>
        <time>2021-09-30T14:24:46Z</time>
      </trkpt>
      <trkpt lat="44.18665" lon="3.16797">
        <ele>769.3</ele>
        <time>2021-09-30T14:24:48Z</time>
      </trkpt>
      <trkpt lat="44.18666" lon="3.16801">
        <ele>769.7</ele>
        <time>2021-09-30T14:24:49Z</time>
      </trkpt>
      <trkpt lat="44.18666" lon="3.16808">
        <ele>770.2</ele>
        <time>2021-09-30T14:24:51Z</time>
      </trkpt>
      <trkpt lat="44.18666" lon="3.16813">
        <ele>770.5</ele>
        <time>2021-09-30T14:24:52Z</time>
      </trkpt>
      <trkpt lat="44.18667" lon="3.16818">
        <ele>770.8</ele>
        <time>2021-09-30T14:24:54Z</time>
      </trkpt>
      <trkpt lat="44.18667" lon="3.16822">
        <ele>771</ele>
        <time>2021-09-30T14:24:55Z</time>
      </trkpt>
      <trkpt lat="44.18666" lon="3.16827">
        <ele>771.2</ele>
        <time>2021-09-30T14:24:56Z</time>
      </trkpt>
      <trkpt lat="44.18666" lon="3.16828">
        <ele>771.3</ele>
        <time>2021-09-30T14:24:57Z</time>
      </trkpt>
      <trkpt lat="44.18666" lon="3.1683">
        <ele>771.4</ele>
        <time>2021-09-30T14:24:59Z</time>
      </trkpt>
      <trkpt lat="44.18665" lon="3.16831">
        <ele>771.4</ele>
        <time>2021-09-30T14:25:02Z</time>
      </trkpt>
      <trkpt lat="44.18665" lon="3.1683">
        <ele>771.5</ele>
        <time>2021-09-30T14:25:03Z</time>
      </trkpt>
      <trkpt lat="44.18665" lon="3.16829">
        <ele>771.5</ele>
        <time>2021-09-30T14:25:05Z</time>
      </trkpt>
      <trkpt lat="44.18665" lon="3.16828">
        <ele>771.5</ele>
        <time>2021-09-30T14:25:06Z</time>
      </trkpt>
      <trkpt lat="44.18665" lon="3.16827">
        <ele>771.6</ele>
        <time>2021-09-30T14:25:08Z</time>
      </trkpt>
      <trkpt lat="44.18668" lon="3.16831">
        <ele>771.9</ele>
        <time>2021-09-30T14:25:39Z</time>
      </trkpt>
      <trkpt lat="44.18668" lon="3.16833">
        <ele>771.9</ele>
        <time>2021-09-30T14:25:40Z</time>
      </trkpt>
      <trkpt lat="44.18669" lon="3.16834">
        <ele>772</ele>
        <time>2021-09-30T14:25:41Z</time>
      </trkpt>
      <trkpt lat="44.1867" lon="3.16836">
        <ele>772.2</ele>
        <time>2021-09-30T14:25:43Z</time>
      </trkpt>
      <trkpt lat="44.18673" lon="3.16839">
        <ele>772.4</ele>
        <time>2021-09-30T14:25:44Z</time>
      </trkpt>
      <trkpt lat="44.18676" lon="3.16843">
        <ele>772.7</ele>
        <time>2021-09-30T14:25:46Z</time>
      </trkpt>
      <trkpt lat="44.18679" lon="3.16849">
        <ele>773</ele>
        <time>2021-09-30T14:25:47Z</time>
      </trkpt>
      <trkpt lat="44.1868" lon="3.16854">
        <ele>773.3</ele>
        <time>2021-09-30T14:25:48Z</time>
      </trkpt>
      <trkpt lat="44.18681" lon="3.16859">
        <ele>773.5</ele>
        <time>2021-09-30T14:25:49Z</time>
      </trkpt>
      <trkpt lat="44.18682" lon="3.16864">
        <ele>773.7</ele>
        <time>2021-09-30T14:25:51Z</time>
      </trkpt>
      <trkpt lat="44.18683" lon="3.16868">
        <ele>773.9</ele>
        <time>2021-09-30T14:25:52Z</time>
      </trkpt>
      <trkpt lat="44.18683" lon="3.16877">
        <ele>774.3</ele>
        <time>2021-09-30T14:25:54Z</time>
      </trkpt>
      <trkpt lat="44.18683" lon="3.16882">
        <ele>774.5</ele>
        <time>2021-09-30T14:25:55Z</time>
      </trkpt>
      <trkpt lat="44.18683" lon="3.16888">
        <ele>774.3</ele>
        <time>2021-09-30T14:25:57Z</time>
      </trkpt>
      <trkpt lat="44.18683" lon="3.16892">
        <ele>774.2</ele>
        <time>2021-09-30T14:25:58Z</time>
      </trkpt>
      <trkpt lat="44.18682" lon="3.16893">
        <ele>774.1</ele>
        <time>2021-09-30T14:25:59Z</time>
      </trkpt>
      <trkpt lat="44.18682" lon="3.16897">
        <ele>773.9</ele>
        <time>2021-09-30T14:26:00Z</time>
      </trkpt>
      <trkpt lat="44.18682" lon="3.16898">
        <ele>773.8</ele>
        <time>2021-09-30T14:26:02Z</time>
      </trkpt>
      <trkpt lat="44.18683" lon="3.16899">
        <ele>773.8</ele>
        <time>2021-09-30T14:26:04Z</time>
      </trkpt>
      <trkpt lat="44.18683" lon="3.169">
        <ele>773.7</ele>
        <time>2021-09-30T14:26:07Z</time>
      </trkpt>
      <trkpt lat="44.18682" lon="3.169">
        <ele>773.6</ele>
        <time>2021-09-30T14:26:12Z</time>
      </trkpt>
      <trkpt lat="44.18685" lon="3.16904">
        <ele>773.2</ele>
        <time>2021-09-30T14:26:56Z</time>
      </trkpt>
      <trkpt lat="44.18692" lon="3.16902">
        <ele>772.4</ele>
        <time>2021-09-30T14:26:58Z</time>
      </trkpt>
      <trkpt lat="44.18709" lon="3.16896">
        <ele>769.4</ele>
        <time>2021-09-30T14:27:00Z</time>
      </trkpt>
      <trkpt lat="44.18716" lon="3.16896">
        <ele>768.2</ele>
        <time>2021-09-30T14:27:01Z</time>
      </trkpt>
      <trkpt lat="44.18729" lon="3.16895">
        <ele>765.9</ele>
        <time>2021-09-30T14:27:03Z</time>
      </trkpt>
      <trkpt lat="44.18736" lon="3.16884">
        <ele>764.4</ele>
        <time>2021-09-30T14:27:05Z</time>
      </trkpt>
      <trkpt lat="44.18743" lon="3.16878">
        <ele>763.5</ele>
        <time>2021-09-30T14:27:06Z</time>
      </trkpt>
      <trkpt lat="44.1875" lon="3.16873">
        <ele>762.5</ele>
        <time>2021-09-30T14:27:07Z</time>
      </trkpt>
      <trkpt lat="44.18767" lon="3.16865">
        <ele>760.7</ele>
        <time>2021-09-30T14:27:09Z</time>
      </trkpt>
      <trkpt lat="44.18774" lon="3.16864">
        <ele>760.4</ele>
        <time>2021-09-30T14:27:10Z</time>
      </trkpt>
      <trkpt lat="44.18782" lon="3.16865">
        <ele>760.3</ele>
        <time>2021-09-30T14:27:11Z</time>
      </trkpt>
      <trkpt lat="44.1879" lon="3.16868">
        <ele>760.4</ele>
        <time>2021-09-30T14:27:13Z</time>
      </trkpt>
      <trkpt lat="44.18792" lon="3.16871">
        <ele>760.5</ele>
        <time>2021-09-30T14:27:14Z</time>
      </trkpt>
      <trkpt lat="44.18793" lon="3.16873">
        <ele>760.5</ele>
        <time>2021-09-30T14:27:15Z</time>
      </trkpt>
      <trkpt lat="44.18798" lon="3.16877">
        <ele>760.7</ele>
        <time>2021-09-30T14:27:17Z</time>
      </trkpt>
      <trkpt lat="44.18801" lon="3.16879">
        <ele>760.8</ele>
        <time>2021-09-30T14:27:18Z</time>
      </trkpt>
      <trkpt lat="44.18806" lon="3.16881">
        <ele>761</ele>
        <time>2021-09-30T14:27:19Z</time>
      </trkpt>
      <trkpt lat="44.1881" lon="3.16883">
        <ele>761.2</ele>
        <time>2021-09-30T14:27:20Z</time>
      </trkpt>
      <trkpt lat="44.18815" lon="3.16885">
        <ele>761.5</ele>
        <time>2021-09-30T14:27:22Z</time>
      </trkpt>
      <trkpt lat="44.18819" lon="3.16887">
        <ele>761.7</ele>
        <time>2021-09-30T14:27:23Z</time>
      </trkpt>
      <trkpt lat="44.18822" lon="3.1689">
        <ele>762</ele>
        <time>2021-09-30T14:27:24Z</time>
      </trkpt>
      <trkpt lat="44.18827" lon="3.16895">
        <ele>762.5</ele>
        <time>2021-09-30T14:27:25Z</time>
      </trkpt>
      <trkpt lat="44.18829" lon="3.16898">
        <ele>762.8</ele>
        <time>2021-09-30T14:27:26Z</time>
      </trkpt>
      <trkpt lat="44.18832" lon="3.16903">
        <ele>763.2</ele>
        <time>2021-09-30T14:27:28Z</time>
      </trkpt>
      <trkpt lat="44.18834" lon="3.16906">
        <ele>763.5</ele>
        <time>2021-09-30T14:27:29Z</time>
      </trkpt>
      <trkpt lat="44.18837" lon="3.16911">
        <ele>763.8</ele>
        <time>2021-09-30T14:27:30Z</time>
      </trkpt>
      <trkpt lat="44.1884" lon="3.16914">
        <ele>764.2</ele>
        <time>2021-09-30T14:27:31Z</time>
      </trkpt>
      <trkpt lat="44.18842" lon="3.16918">
        <ele>764.5</ele>
        <time>2021-09-30T14:27:32Z</time>
      </trkpt>
      <trkpt lat="44.18844" lon="3.16921">
        <ele>764.8</ele>
        <time>2021-09-30T14:27:34Z</time>
      </trkpt>
      <trkpt lat="44.18845" lon="3.16924">
        <ele>765</ele>
        <time>2021-09-30T14:27:35Z</time>
      </trkpt>
      <trkpt lat="44.18848" lon="3.1693">
        <ele>765.4</ele>
        <time>2021-09-30T14:27:37Z</time>
      </trkpt>
      <trkpt lat="44.18849" lon="3.16936">
        <ele>765.6</ele>
        <time>2021-09-30T14:27:38Z</time>
      </trkpt>
      <trkpt lat="44.1885" lon="3.16941">
        <ele>765.8</ele>
        <time>2021-09-30T14:27:39Z</time>
      </trkpt>
      <trkpt lat="44.18851" lon="3.16945">
        <ele>765.9</ele>
        <time>2021-09-30T14:27:40Z</time>
      </trkpt>
      <trkpt lat="44.18852" lon="3.16949">
        <ele>765.9</ele>
        <time>2021-09-30T14:27:42Z</time>
      </trkpt>
      <trkpt lat="44.18853" lon="3.16953">
        <ele>765.9</ele>
        <time>2021-09-30T14:27:43Z</time>
      </trkpt>
      <trkpt lat="44.18855" lon="3.16956">
        <ele>765.8</ele>
        <time>2021-09-30T14:27:44Z</time>
      </trkpt>
      <trkpt lat="44.18859" lon="3.16959">
        <ele>765.6</ele>
        <time>2021-09-30T14:27:46Z</time>
      </trkpt>
      <trkpt lat="44.18863" lon="3.1696">
        <ele>765.4</ele>
        <time>2021-09-30T14:27:47Z</time>
      </trkpt>
      <trkpt lat="44.18867" lon="3.16963">
        <ele>765.1</ele>
        <time>2021-09-30T14:27:49Z</time>
      </trkpt>
      <trkpt lat="44.1887" lon="3.16967">
        <ele>764.8</ele>
        <time>2021-09-30T14:27:51Z</time>
      </trkpt>
      <trkpt lat="44.18871" lon="3.1697">
        <ele>764.6</ele>
        <time>2021-09-30T14:27:52Z</time>
      </trkpt>
      <trkpt lat="44.18871" lon="3.16975">
        <ele>764.3</ele>
        <time>2021-09-30T14:27:54Z</time>
      </trkpt>
      <trkpt lat="44.18873" lon="3.1698">
        <ele>763.9</ele>
        <time>2021-09-30T14:27:55Z</time>
      </trkpt>
      <trkpt lat="44.1888" lon="3.16987">
        <ele>763</ele>
        <time>2021-09-30T14:27:56Z</time>
      </trkpt>
      <trkpt lat="44.18886" lon="3.16991">
        <ele>762.5</ele>
        <time>2021-09-30T14:27:57Z</time>
      </trkpt>
      <trkpt lat="44.18892" lon="3.16996">
        <ele>762.3</ele>
        <time>2021-09-30T14:27:58Z</time>
      </trkpt>
      <trkpt lat="44.189" lon="3.17004">
        <ele>762.4</ele>
        <time>2021-09-30T14:28:00Z</time>
      </trkpt>
      <trkpt lat="44.18902" lon="3.17008">
        <ele>762.4</ele>
        <time>2021-09-30T14:28:01Z</time>
      </trkpt>
      <trkpt lat="44.18905" lon="3.1701">
        <ele>762.4</ele>
        <time>2021-09-30T14:28:02Z</time>
      </trkpt>
      <trkpt lat="44.18909" lon="3.17012">
        <ele>762.3</ele>
        <time>2021-09-30T14:28:03Z</time>
      </trkpt>
      <trkpt lat="44.18914" lon="3.17014">
        <ele>762</ele>
        <time>2021-09-30T14:28:05Z</time>
      </trkpt>
      <trkpt lat="44.18918" lon="3.17017">
        <ele>761.6</ele>
        <time>2021-09-30T14:28:06Z</time>
      </trkpt>
      <trkpt lat="44.18922" lon="3.17017">
        <ele>761.1</ele>
        <time>2021-09-30T14:28:08Z</time>
      </trkpt>
      <trkpt lat="44.18927" lon="3.17019">
        <ele>760.6</ele>
        <time>2021-09-30T14:28:09Z</time>
      </trkpt>
      <trkpt lat="44.1893" lon="3.17022">
        <ele>760.3</ele>
        <time>2021-09-30T14:28:11Z</time>
      </trkpt>
      <trkpt lat="44.18932" lon="3.17025">
        <ele>760.1</ele>
        <time>2021-09-30T14:28:12Z</time>
      </trkpt>
      <trkpt lat="44.18934" lon="3.17026">
        <ele>760.1</ele>
        <time>2021-09-30T14:28:13Z</time>
      </trkpt>
      <trkpt lat="44.18938" lon="3.17029">
        <ele>760.1</ele>
        <time>2021-09-30T14:28:15Z</time>
      </trkpt>
      <trkpt lat="44.18941" lon="3.17031">
        <ele>760.2</ele>
        <time>2021-09-30T14:28:16Z</time>
      </trkpt>
      <trkpt lat="44.18943" lon="3.17032">
        <ele>760.3</ele>
        <time>2021-09-30T14:28:17Z</time>
      </trkpt>
      <trkpt lat="44.18945" lon="3.17036">
        <ele>760.5</ele>
        <time>2021-09-30T14:28:18Z</time>
      </trkpt>
      <trkpt lat="44.18945" lon="3.17038">
        <ele>760.6</ele>
        <time>2021-09-30T14:28:19Z</time>
      </trkpt>
      <trkpt lat="44.18947" lon="3.17041">
        <ele>760.8</ele>
        <time>2021-09-30T14:28:21Z</time>
      </trkpt>
      <trkpt lat="44.18948" lon="3.17041">
        <ele>760.9</ele>
        <time>2021-09-30T14:28:22Z</time>
      </trkpt>
      <trkpt lat="44.18949" lon="3.17042">
        <ele>761</ele>
        <time>2021-09-30T14:28:23Z</time>
      </trkpt>
      <trkpt lat="44.1895" lon="3.17043">
        <ele>761.1</ele>
        <time>2021-09-30T14:28:24Z</time>
      </trkpt>
      <trkpt lat="44.18953" lon="3.17044">
        <ele>761.3</ele>
        <time>2021-09-30T14:28:25Z</time>
      </trkpt>
      <trkpt lat="44.18954" lon="3.17044">
        <ele>761.4</ele>
        <time>2021-09-30T14:28:26Z</time>
      </trkpt>
      <trkpt lat="44.18957" lon="3.17047">
        <ele>761.7</ele>
        <time>2021-09-30T14:28:28Z</time>
      </trkpt>
      <trkpt lat="44.1896" lon="3.1705">
        <ele>761.9</ele>
        <time>2021-09-30T14:28:29Z</time>
      </trkpt>
      <trkpt lat="44.1896" lon="3.17052">
        <ele>762</ele>
        <time>2021-09-30T14:28:31Z</time>
      </trkpt>
      <trkpt lat="44.18962" lon="3.17054">
        <ele>762.1</ele>
        <time>2021-09-30T14:28:32Z</time>
      </trkpt>
      <trkpt lat="44.18965" lon="3.17058">
        <ele>762.3</ele>
        <time>2021-09-30T14:28:34Z</time>
      </trkpt>
      <trkpt lat="44.18967" lon="3.17061">
        <ele>762.4</ele>
        <time>2021-09-30T14:28:35Z</time>
      </trkpt>
      <trkpt lat="44.18969" lon="3.17065">
        <ele>762.5</ele>
        <time>2021-09-30T14:28:36Z</time>
      </trkpt>
      <trkpt lat="44.1897" lon="3.1707">
        <ele>762.7</ele>
        <time>2021-09-30T14:28:38Z</time>
      </trkpt>
      <trkpt lat="44.18971" lon="3.17073">
        <ele>762.8</ele>
        <time>2021-09-30T14:28:39Z</time>
      </trkpt>
      <trkpt lat="44.18972" lon="3.17079">
        <ele>763</ele>
        <time>2021-09-30T14:28:41Z</time>
      </trkpt>
      <trkpt lat="44.18971" lon="3.17081">
        <ele>763.1</ele>
        <time>2021-09-30T14:28:42Z</time>
      </trkpt>
      <trkpt lat="44.18971" lon="3.17082">
        <ele>763.1</ele>
        <time>2021-09-30T14:28:43Z</time>
      </trkpt>
      <trkpt lat="44.18972" lon="3.17086">
        <ele>763.3</ele>
        <time>2021-09-30T14:28:44Z</time>
      </trkpt>
      <trkpt lat="44.18973" lon="3.17091">
        <ele>763.4</ele>
        <time>2021-09-30T14:28:46Z</time>
      </trkpt>
      <trkpt lat="44.18973" lon="3.17093">
        <ele>763.5</ele>
        <time>2021-09-30T14:28:47Z</time>
      </trkpt>
      <trkpt lat="44.18974" lon="3.17098">
        <ele>763.5</ele>
        <time>2021-09-30T14:28:48Z</time>
      </trkpt>
      <trkpt lat="44.18974" lon="3.17104">
        <ele>763.5</ele>
        <time>2021-09-30T14:28:50Z</time>
      </trkpt>
      <trkpt lat="44.18974" lon="3.1711">
        <ele>763.4</ele>
        <time>2021-09-30T14:28:51Z</time>
      </trkpt>
      <trkpt lat="44.18975" lon="3.1712">
        <ele>762</ele>
        <time>2021-09-30T14:28:53Z</time>
      </trkpt>
      <trkpt lat="44.18976" lon="3.1714">
        <ele>760.9</ele>
        <time>2021-09-30T14:28:54Z</time>
      </trkpt>
      <trkpt lat="44.18973" lon="3.17148">
        <ele>760.5</ele>
        <time>2021-09-30T14:28:55Z</time>
      </trkpt>
      <trkpt lat="44.1897" lon="3.17158">
        <ele>760.1</ele>
        <time>2021-09-30T14:28:57Z</time>
      </trkpt>
      <trkpt lat="44.18974" lon="3.17165">
        <ele>759.8</ele>
        <time>2021-09-30T14:28:58Z</time>
      </trkpt>
      <trkpt lat="44.18974" lon="3.1717">
        <ele>759.5</ele>
        <time>2021-09-30T14:28:59Z</time>
      </trkpt>
      <trkpt lat="44.18979" lon="3.17186">
        <ele>758.1</ele>
        <time>2021-09-30T14:29:01Z</time>
      </trkpt>
      <trkpt lat="44.18979" lon="3.17194">
        <ele>757.4</ele>
        <time>2021-09-30T14:29:02Z</time>
      </trkpt>
      <trkpt lat="44.18981" lon="3.17206">
        <ele>756.2</ele>
        <time>2021-09-30T14:29:04Z</time>
      </trkpt>
      <trkpt lat="44.18984" lon="3.1721">
        <ele>755.5</ele>
        <time>2021-09-30T14:29:05Z</time>
      </trkpt>
      <trkpt lat="44.18984" lon="3.17218">
        <ele>754.7</ele>
        <time>2021-09-30T14:29:06Z</time>
      </trkpt>
      <trkpt lat="44.18984" lon="3.17223">
        <ele>754.1</ele>
        <time>2021-09-30T14:29:08Z</time>
      </trkpt>
      <trkpt lat="44.18984" lon="3.1724">
        <ele>752.8</ele>
        <time>2021-09-30T14:29:10Z</time>
      </trkpt>
      <trkpt lat="44.18983" lon="3.1725">
        <ele>752.5</ele>
        <time>2021-09-30T14:29:11Z</time>
      </trkpt>
      <trkpt lat="44.18981" lon="3.17255">
        <ele>752.4</ele>
        <time>2021-09-30T14:29:13Z</time>
      </trkpt>
      <trkpt lat="44.18981" lon="3.17262">
        <ele>752.4</ele>
        <time>2021-09-30T14:29:14Z</time>
      </trkpt>
      <trkpt lat="44.18981" lon="3.17267">
        <ele>752.4</ele>
        <time>2021-09-30T14:29:16Z</time>
      </trkpt>
      <trkpt lat="44.18977" lon="3.17271">
        <ele>752.5</ele>
        <time>2021-09-30T14:29:17Z</time>
      </trkpt>
      <trkpt lat="44.18973" lon="3.17271">
        <ele>752.6</ele>
        <time>2021-09-30T14:29:19Z</time>
      </trkpt>
      <trkpt lat="44.1897" lon="3.17272">
        <ele>752.7</ele>
        <time>2021-09-30T14:29:20Z</time>
      </trkpt>
      <trkpt lat="44.18965" lon="3.17275">
        <ele>752.8</ele>
        <time>2021-09-30T14:29:21Z</time>
      </trkpt>
      <trkpt lat="44.18961" lon="3.17281">
        <ele>752.8</ele>
        <time>2021-09-30T14:29:23Z</time>
      </trkpt>
      <trkpt lat="44.18958" lon="3.17289">
        <ele>752.8</ele>
        <time>2021-09-30T14:29:24Z</time>
      </trkpt>
      <trkpt lat="44.18959" lon="3.17304">
        <ele>752.4</ele>
        <time>2021-09-30T14:29:26Z</time>
      </trkpt>
      <trkpt lat="44.18959" lon="3.17311">
        <ele>752.2</ele>
        <time>2021-09-30T14:29:27Z</time>
      </trkpt>
      <trkpt lat="44.1896" lon="3.17315">
        <ele>752</ele>
        <time>2021-09-30T14:29:28Z</time>
      </trkpt>
      <trkpt lat="44.18971" lon="3.17328">
        <ele>750.7</ele>
        <time>2021-09-30T14:29:30Z</time>
      </trkpt>
      <trkpt lat="44.18974" lon="3.17333">
        <ele>750.3</ele>
        <time>2021-09-30T14:29:31Z</time>
      </trkpt>
      <trkpt lat="44.18974" lon="3.17338">
        <ele>750</ele>
        <time>2021-09-30T14:29:32Z</time>
      </trkpt>
      <trkpt lat="44.18975" lon="3.17345">
        <ele>749.7</ele>
        <time>2021-09-30T14:29:34Z</time>
      </trkpt>
      <trkpt lat="44.18977" lon="3.1735">
        <ele>749.7</ele>
        <time>2021-09-30T14:29:35Z</time>
      </trkpt>
      <trkpt lat="44.18979" lon="3.17355">
        <ele>749.7</ele>
        <time>2021-09-30T14:29:36Z</time>
      </trkpt>
      <trkpt lat="44.1898" lon="3.17357">
        <ele>749.8</ele>
        <time>2021-09-30T14:29:37Z</time>
      </trkpt>
      <trkpt lat="44.1898" lon="3.17361">
        <ele>749.9</ele>
        <time>2021-09-30T14:29:39Z</time>
      </trkpt>
      <trkpt lat="44.18982" lon="3.17365">
        <ele>750.1</ele>
        <time>2021-09-30T14:29:40Z</time>
      </trkpt>
      <trkpt lat="44.18984" lon="3.17369">
        <ele>750.2</ele>
        <time>2021-09-30T14:29:41Z</time>
      </trkpt>
      <trkpt lat="44.18987" lon="3.17372">
        <ele>750.3</ele>
        <time>2021-09-30T14:29:43Z</time>
      </trkpt>
      <trkpt lat="44.18991" lon="3.17374">
        <ele>750.4</ele>
        <time>2021-09-30T14:29:44Z</time>
      </trkpt>
      <trkpt lat="44.18995" lon="3.17375">
        <ele>750.4</ele>
        <time>2021-09-30T14:29:46Z</time>
      </trkpt>
      <trkpt lat="44.18999" lon="3.17374">
        <ele>750.2</ele>
        <time>2021-09-30T14:29:48Z</time>
      </trkpt>
      <trkpt lat="44.19004" lon="3.17373">
        <ele>750</ele>
        <time>2021-09-30T14:29:49Z</time>
      </trkpt>
      <trkpt lat="44.19007" lon="3.17369">
        <ele>749.6</ele>
        <time>2021-09-30T14:29:50Z</time>
      </trkpt>
      <trkpt lat="44.19014" lon="3.17358">
        <ele>748.2</ele>
        <time>2021-09-30T14:29:52Z</time>
      </trkpt>
      <trkpt lat="44.19023" lon="3.17348">
        <ele>746</ele>
        <time>2021-09-30T14:29:54Z</time>
      </trkpt>
      <trkpt lat="44.1903" lon="3.17344">
        <ele>744.7</ele>
        <time>2021-09-30T14:29:55Z</time>
      </trkpt>
      <trkpt lat="44.19041" lon="3.17342">
        <ele>743.6</ele>
        <time>2021-09-30T14:29:57Z</time>
      </trkpt>
      <trkpt lat="44.19047" lon="3.1734">
        <ele>743.5</ele>
        <time>2021-09-30T14:29:58Z</time>
      </trkpt>
      <trkpt lat="44.19051" lon="3.17341">
        <ele>743.7</ele>
        <time>2021-09-30T14:29:59Z</time>
      </trkpt>
      <trkpt lat="44.19054" lon="3.17344">
        <ele>744</ele>
        <time>2021-09-30T14:30:01Z</time>
      </trkpt>
      <trkpt lat="44.19056" lon="3.17347">
        <ele>744.3</ele>
        <time>2021-09-30T14:30:03Z</time>
      </trkpt>
      <trkpt lat="44.19059" lon="3.1735">
        <ele>744.7</ele>
        <time>2021-09-30T14:30:04Z</time>
      </trkpt>
      <trkpt lat="44.19061" lon="3.17354">
        <ele>745.2</ele>
        <time>2021-09-30T14:30:06Z</time>
      </trkpt>
      <trkpt lat="44.19062" lon="3.17355">
        <ele>745.3</ele>
        <time>2021-09-30T14:30:07Z</time>
      </trkpt>
      <trkpt lat="44.19065" lon="3.17357">
        <ele>745.8</ele>
        <time>2021-09-30T14:30:09Z</time>
      </trkpt>
      <trkpt lat="44.19066" lon="3.17358">
        <ele>745.9</ele>
        <time>2021-09-30T14:30:10Z</time>
      </trkpt>
      <trkpt lat="44.19068" lon="3.17359">
        <ele>746.2</ele>
        <time>2021-09-30T14:30:11Z</time>
      </trkpt>
      <trkpt lat="44.19069" lon="3.1736">
        <ele>746.4</ele>
        <time>2021-09-30T14:30:12Z</time>
      </trkpt>
      <trkpt lat="44.19071" lon="3.17361">
        <ele>746.7</ele>
        <time>2021-09-30T14:30:13Z</time>
      </trkpt>
      <trkpt lat="44.19074" lon="3.17363">
        <ele>747.2</ele>
        <time>2021-09-30T14:30:15Z</time>
      </trkpt>
      <trkpt lat="44.19077" lon="3.17364">
        <ele>747.6</ele>
        <time>2021-09-30T14:30:16Z</time>
      </trkpt>
      <trkpt lat="44.19078" lon="3.17364">
        <ele>747.7</ele>
        <time>2021-09-30T14:30:17Z</time>
      </trkpt>
      <trkpt lat="44.19081" lon="3.17365">
        <ele>748.1</ele>
        <time>2021-09-30T14:30:19Z</time>
      </trkpt>
      <trkpt lat="44.19082" lon="3.17365">
        <ele>748.3</ele>
        <time>2021-09-30T14:30:20Z</time>
      </trkpt>
      <trkpt lat="44.19084" lon="3.17365">
        <ele>748.5</ele>
        <time>2021-09-30T14:30:21Z</time>
      </trkpt>
      <trkpt lat="44.19087" lon="3.17365">
        <ele>748.9</ele>
        <time>2021-09-30T14:30:23Z</time>
      </trkpt>
      <trkpt lat="44.1909" lon="3.17365">
        <ele>749.3</ele>
        <time>2021-09-30T14:30:24Z</time>
      </trkpt>
      <trkpt lat="44.1909" lon="3.17366">
        <ele>749.4</ele>
        <time>2021-09-30T14:30:25Z</time>
      </trkpt>
      <trkpt lat="44.19092" lon="3.17367">
        <ele>749.6</ele>
        <time>2021-09-30T14:30:26Z</time>
      </trkpt>
      <trkpt lat="44.19093" lon="3.17368">
        <ele>749.8</ele>
        <time>2021-09-30T14:30:27Z</time>
      </trkpt>
      <trkpt lat="44.19094" lon="3.1737">
        <ele>750.1</ele>
        <time>2021-09-30T14:30:28Z</time>
      </trkpt>
      <trkpt lat="44.19095" lon="3.17372">
        <ele>750.3</ele>
        <time>2021-09-30T14:30:29Z</time>
      </trkpt>
      <trkpt lat="44.19097" lon="3.17374">
        <ele>750.6</ele>
        <time>2021-09-30T14:30:30Z</time>
      </trkpt>
      <trkpt lat="44.19099" lon="3.17377">
        <ele>750.9</ele>
        <time>2021-09-30T14:30:32Z</time>
      </trkpt>
      <trkpt lat="44.19102" lon="3.1738">
        <ele>751.4</ele>
        <time>2021-09-30T14:30:33Z</time>
      </trkpt>
      <trkpt lat="44.19105" lon="3.17384">
        <ele>751.9</ele>
        <time>2021-09-30T14:30:35Z</time>
      </trkpt>
      <trkpt lat="44.19106" lon="3.17386">
        <ele>752.1</ele>
        <time>2021-09-30T14:30:36Z</time>
      </trkpt>
      <trkpt lat="44.19107" lon="3.1739">
        <ele>752.5</ele>
        <time>2021-09-30T14:30:38Z</time>
      </trkpt>
      <trkpt lat="44.19108" lon="3.17391">
        <ele>752.6</ele>
        <time>2021-09-30T14:30:39Z</time>
      </trkpt>
      <trkpt lat="44.19109" lon="3.17394">
        <ele>752.9</ele>
        <time>2021-09-30T14:30:40Z</time>
      </trkpt>
      <trkpt lat="44.1911" lon="3.17396">
        <ele>753.2</ele>
        <time>2021-09-30T14:30:42Z</time>
      </trkpt>
      <trkpt lat="44.19112" lon="3.17399">
        <ele>753.5</ele>
        <time>2021-09-30T14:30:44Z</time>
      </trkpt>
      <trkpt lat="44.19114" lon="3.17402">
        <ele>753.9</ele>
        <time>2021-09-30T14:30:45Z</time>
      </trkpt>
      <trkpt lat="44.19116" lon="3.17404">
        <ele>754.1</ele>
        <time>2021-09-30T14:30:47Z</time>
      </trkpt>
      <trkpt lat="44.19116" lon="3.17406">
        <ele>754.2</ele>
        <time>2021-09-30T14:30:48Z</time>
      </trkpt>
      <trkpt lat="44.19116" lon="3.17408">
        <ele>754.4</ele>
        <time>2021-09-30T14:30:50Z</time>
      </trkpt>
      <trkpt lat="44.19116" lon="3.17411">
        <ele>754.6</ele>
        <time>2021-09-30T14:30:51Z</time>
      </trkpt>
      <trkpt lat="44.19115" lon="3.17414">
        <ele>754.8</ele>
        <time>2021-09-30T14:30:52Z</time>
      </trkpt>
      <trkpt lat="44.19115" lon="3.17417">
        <ele>755.1</ele>
        <time>2021-09-30T14:30:54Z</time>
      </trkpt>
      <trkpt lat="44.19115" lon="3.1742">
        <ele>755.3</ele>
        <time>2021-09-30T14:30:55Z</time>
      </trkpt>
      <trkpt lat="44.19115" lon="3.17425">
        <ele>755.6</ele>
        <time>2021-09-30T14:30:57Z</time>
      </trkpt>
      <trkpt lat="44.19115" lon="3.17428">
        <ele>755.9</ele>
        <time>2021-09-30T14:30:58Z</time>
      </trkpt>
      <trkpt lat="44.19115" lon="3.17431">
        <ele>756.1</ele>
        <time>2021-09-30T14:31:00Z</time>
      </trkpt>
      <trkpt lat="44.19116" lon="3.17436">
        <ele>756.4</ele>
        <time>2021-09-30T14:31:01Z</time>
      </trkpt>
      <trkpt lat="44.19116" lon="3.17437">
        <ele>756.5</ele>
        <time>2021-09-30T14:31:02Z</time>
      </trkpt>
      <trkpt lat="44.19119" lon="3.17441">
        <ele>756.8</ele>
        <time>2021-09-30T14:31:04Z</time>
      </trkpt>
      <trkpt lat="44.19121" lon="3.17445">
        <ele>757.1</ele>
        <time>2021-09-30T14:31:05Z</time>
      </trkpt>
      <trkpt lat="44.19123" lon="3.17448">
        <ele>757.3</ele>
        <time>2021-09-30T14:31:06Z</time>
      </trkpt>
      <trkpt lat="44.19125" lon="3.17451">
        <ele>757.5</ele>
        <time>2021-09-30T14:31:08Z</time>
      </trkpt>
      <trkpt lat="44.19129" lon="3.17455">
        <ele>757.8</ele>
        <time>2021-09-30T14:31:10Z</time>
      </trkpt>
      <trkpt lat="44.19131" lon="3.17458">
        <ele>758</ele>
        <time>2021-09-30T14:31:11Z</time>
      </trkpt>
      <trkpt lat="44.19132" lon="3.17459">
        <ele>758.1</ele>
        <time>2021-09-30T14:31:12Z</time>
      </trkpt>
      <trkpt lat="44.19134" lon="3.17463">
        <ele>758.3</ele>
        <time>2021-09-30T14:31:13Z</time>
      </trkpt>
      <trkpt lat="44.19135" lon="3.17465">
        <ele>758.4</ele>
        <time>2021-09-30T14:31:14Z</time>
      </trkpt>
      <trkpt lat="44.19135" lon="3.17468">
        <ele>758.6</ele>
        <time>2021-09-30T14:31:16Z</time>
      </trkpt>
      <trkpt lat="44.19136" lon="3.1747">
        <ele>758.7</ele>
        <time>2021-09-30T14:31:17Z</time>
      </trkpt>
      <trkpt lat="44.19138" lon="3.17476">
        <ele>759</ele>
        <time>2021-09-30T14:31:19Z</time>
      </trkpt>
      <trkpt lat="44.19138" lon="3.17483">
        <ele>759.3</ele>
        <time>2021-09-30T14:31:21Z</time>
      </trkpt>
      <trkpt lat="44.19138" lon="3.17488">
        <ele>759.5</ele>
        <time>2021-09-30T14:31:22Z</time>
      </trkpt>
      <trkpt lat="44.19137" lon="3.17492">
        <ele>759.7</ele>
        <time>2021-09-30T14:31:24Z</time>
      </trkpt>
      <trkpt lat="44.19137" lon="3.17496">
        <ele>759.9</ele>
        <time>2021-09-30T14:31:25Z</time>
      </trkpt>
      <trkpt lat="44.19136" lon="3.17502">
        <ele>760.1</ele>
        <time>2021-09-30T14:31:27Z</time>
      </trkpt>
      <trkpt lat="44.19135" lon="3.17504">
        <ele>760.2</ele>
        <time>2021-09-30T14:31:28Z</time>
      </trkpt>
      <trkpt lat="44.19134" lon="3.17507">
        <ele>760.4</ele>
        <time>2021-09-30T14:31:29Z</time>
      </trkpt>
      <trkpt lat="44.19132" lon="3.17512">
        <ele>760.5</ele>
        <time>2021-09-30T14:31:31Z</time>
      </trkpt>
      <trkpt lat="44.19132" lon="3.17516">
        <ele>760.7</ele>
        <time>2021-09-30T14:31:32Z</time>
      </trkpt>
      <trkpt lat="44.19131" lon="3.17521">
        <ele>760.8</ele>
        <time>2021-09-30T14:31:33Z</time>
      </trkpt>
      <trkpt lat="44.19131" lon="3.17524">
        <ele>760.9</ele>
        <time>2021-09-30T14:31:34Z</time>
      </trkpt>
      <trkpt lat="44.19131" lon="3.17527">
        <ele>760.9</ele>
        <time>2021-09-30T14:31:36Z</time>
      </trkpt>
      <trkpt lat="44.19131" lon="3.17532">
        <ele>761</ele>
        <time>2021-09-30T14:31:37Z</time>
      </trkpt>
      <trkpt lat="44.19129" lon="3.17537">
        <ele>761.1</ele>
        <time>2021-09-30T14:31:38Z</time>
      </trkpt>
      <trkpt lat="44.19126" lon="3.17542">
        <ele>761.2</ele>
        <time>2021-09-30T14:31:40Z</time>
      </trkpt>
      <trkpt lat="44.19122" lon="3.17548">
        <ele>761.2</ele>
        <time>2021-09-30T14:31:41Z</time>
      </trkpt>
      <trkpt lat="44.1912" lon="3.17553">
        <ele>761.2</ele>
        <time>2021-09-30T14:31:42Z</time>
      </trkpt>
      <trkpt lat="44.1912" lon="3.1756">
        <ele>761.1</ele>
        <time>2021-09-30T14:31:44Z</time>
      </trkpt>
      <trkpt lat="44.19119" lon="3.17566">
        <ele>761.1</ele>
        <time>2021-09-30T14:31:45Z</time>
      </trkpt>
      <trkpt lat="44.19117" lon="3.17571">
        <ele>760.9</ele>
        <time>2021-09-30T14:31:46Z</time>
      </trkpt>
      <trkpt lat="44.19115" lon="3.17579">
        <ele>760.7</ele>
        <time>2021-09-30T14:31:47Z</time>
      </trkpt>
      <trkpt lat="44.1911" lon="3.1759">
        <ele>760.2</ele>
        <time>2021-09-30T14:31:49Z</time>
      </trkpt>
      <trkpt lat="44.19107" lon="3.17597">
        <ele>759.9</ele>
        <time>2021-09-30T14:31:50Z</time>
      </trkpt>
      <trkpt lat="44.191" lon="3.17608">
        <ele>759.3</ele>
        <time>2021-09-30T14:31:52Z</time>
      </trkpt>
      <trkpt lat="44.19095" lon="3.1762">
        <ele>758.8</ele>
        <time>2021-09-30T14:31:54Z</time>
      </trkpt>
      <trkpt lat="44.19092" lon="3.17626">
        <ele>758.5</ele>
        <time>2021-09-30T14:31:55Z</time>
      </trkpt>
      <trkpt lat="44.1909" lon="3.17633">
        <ele>758.2</ele>
        <time>2021-09-30T14:31:56Z</time>
      </trkpt>
      <trkpt lat="44.19083" lon="3.17649">
        <ele>757.2</ele>
        <time>2021-09-30T14:31:58Z</time>
      </trkpt>
      <trkpt lat="44.19079" lon="3.17664">
        <ele>756.1</ele>
        <time>2021-09-30T14:32:00Z</time>
      </trkpt>
      <trkpt lat="44.19077" lon="3.17672">
        <ele>755.5</ele>
        <time>2021-09-30T14:32:01Z</time>
      </trkpt>
      <trkpt lat="44.19073" lon="3.17691">
        <ele>754.2</ele>
        <time>2021-09-30T14:32:03Z</time>
      </trkpt>
      <trkpt lat="44.1907" lon="3.177">
        <ele>753.6</ele>
        <time>2021-09-30T14:32:04Z</time>
      </trkpt>
      <trkpt lat="44.19065" lon="3.17708">
        <ele>752.9</ele>
        <time>2021-09-30T14:32:05Z</time>
      </trkpt>
      <trkpt lat="44.19057" lon="3.17729">
        <ele>751.3</ele>
        <time>2021-09-30T14:32:07Z</time>
      </trkpt>
      <trkpt lat="44.19048" lon="3.17749">
        <ele>749.3</ele>
        <time>2021-09-30T14:32:09Z</time>
      </trkpt>
      <trkpt lat="44.19043" lon="3.1777">
        <ele>746.6</ele>
        <time>2021-09-30T14:32:11Z</time>
      </trkpt>
      <trkpt lat="44.19042" lon="3.17776">
        <ele>745.8</ele>
        <time>2021-09-30T14:32:13Z</time>
      </trkpt>
      <trkpt lat="44.19045" lon="3.17781">
        <ele>744.8</ele>
        <time>2021-09-30T14:32:14Z</time>
      </trkpt>
      <trkpt lat="44.19046" lon="3.17783">
        <ele>744.4</ele>
        <time>2021-09-30T14:32:15Z</time>
      </trkpt>
      <trkpt lat="44.19046" lon="3.17789">
        <ele>743.4</ele>
        <time>2021-09-30T14:32:16Z</time>
      </trkpt>
      <trkpt lat="44.19044" lon="3.17794">
        <ele>742.3</ele>
        <time>2021-09-30T14:32:17Z</time>
      </trkpt>
      <trkpt lat="44.19041" lon="3.17803">
        <ele>740.8</ele>
        <time>2021-09-30T14:32:19Z</time>
      </trkpt>
      <trkpt lat="44.1904" lon="3.17808">
        <ele>740.1</ele>
        <time>2021-09-30T14:32:20Z</time>
      </trkpt>
      <trkpt lat="44.19045" lon="3.17815">
        <ele>739.2</ele>
        <time>2021-09-30T14:32:22Z</time>
      </trkpt>
      <trkpt lat="44.19048" lon="3.17814">
        <ele>739</ele>
        <time>2021-09-30T14:32:23Z</time>
      </trkpt>
      <trkpt lat="44.19052" lon="3.17813">
        <ele>738.7</ele>
        <time>2021-09-30T14:32:24Z</time>
      </trkpt>
      <trkpt lat="44.19055" lon="3.17813">
        <ele>738.6</ele>
        <time>2021-09-30T14:32:25Z</time>
      </trkpt>
      <trkpt lat="44.19058" lon="3.17812">
        <ele>738.4</ele>
        <time>2021-09-30T14:32:27Z</time>
      </trkpt>
      <trkpt lat="44.19062" lon="3.17811">
        <ele>738.3</ele>
        <time>2021-09-30T14:32:28Z</time>
      </trkpt>
      <trkpt lat="44.19066" lon="3.1781">
        <ele>738.3</ele>
        <time>2021-09-30T14:32:29Z</time>
      </trkpt>
      <trkpt lat="44.1907" lon="3.1781">
        <ele>738.2</ele>
        <time>2021-09-30T14:32:30Z</time>
      </trkpt>
      <trkpt lat="44.19074" lon="3.1781">
        <ele>738.2</ele>
        <time>2021-09-30T14:32:31Z</time>
      </trkpt>
      <trkpt lat="44.19078" lon="3.1781">
        <ele>738.2</ele>
        <time>2021-09-30T14:32:32Z</time>
      </trkpt>
      <trkpt lat="44.19082" lon="3.17811">
        <ele>738.1</ele>
        <time>2021-09-30T14:32:34Z</time>
      </trkpt>
      <trkpt lat="44.19088" lon="3.17814">
        <ele>737.7</ele>
        <time>2021-09-30T14:32:36Z</time>
      </trkpt>
      <trkpt lat="44.19094" lon="3.17816">
        <ele>737</ele>
        <time>2021-09-30T14:32:38Z</time>
      </trkpt>
      <trkpt lat="44.19097" lon="3.17817">
        <ele>736.4</ele>
        <time>2021-09-30T14:32:39Z</time>
      </trkpt>
      <trkpt lat="44.19099" lon="3.17816">
        <ele>735.8</ele>
        <time>2021-09-30T14:32:40Z</time>
      </trkpt>
      <trkpt lat="44.19103" lon="3.17815">
        <ele>734.7</ele>
        <time>2021-09-30T14:32:41Z</time>
      </trkpt>
      <trkpt lat="44.19106" lon="3.17813">
        <ele>733.6</ele>
        <time>2021-09-30T14:32:43Z</time>
      </trkpt>
      <trkpt lat="44.19111" lon="3.1781">
        <ele>732</ele>
        <time>2021-09-30T14:32:44Z</time>
      </trkpt>
      <trkpt lat="44.19116" lon="3.17808">
        <ele>730.4</ele>
        <time>2021-09-30T14:32:46Z</time>
      </trkpt>
      <trkpt lat="44.19117" lon="3.17807">
        <ele>729.8</ele>
        <time>2021-09-30T14:32:47Z</time>
      </trkpt>
      <trkpt lat="44.19119" lon="3.17806">
        <ele>729.3</ele>
        <time>2021-09-30T14:32:48Z</time>
      </trkpt>
      <trkpt lat="44.19121" lon="3.17803">
        <ele>728.4</ele>
        <time>2021-09-30T14:32:49Z</time>
      </trkpt>
      <trkpt lat="44.19125" lon="3.178">
        <ele>726.8</ele>
        <time>2021-09-30T14:32:51Z</time>
      </trkpt>
      <trkpt lat="44.19129" lon="3.17798">
        <ele>725.5</ele>
        <time>2021-09-30T14:32:52Z</time>
      </trkpt>
      <trkpt lat="44.19134" lon="3.17795">
        <ele>723.9</ele>
        <time>2021-09-30T14:32:54Z</time>
      </trkpt>
      <trkpt lat="44.19137" lon="3.17793">
        <ele>722.8</ele>
        <time>2021-09-30T14:32:55Z</time>
      </trkpt>
      <trkpt lat="44.19142" lon="3.17791">
        <ele>721.6</ele>
        <time>2021-09-30T14:32:56Z</time>
      </trkpt>
      <trkpt lat="44.19146" lon="3.17791">
        <ele>720.7</ele>
        <time>2021-09-30T14:32:58Z</time>
      </trkpt>
      <trkpt lat="44.19149" lon="3.17793">
        <ele>720</ele>
        <time>2021-09-30T14:32:59Z</time>
      </trkpt>
      <trkpt lat="44.19152" lon="3.17795">
        <ele>719.6</ele>
        <time>2021-09-30T14:33:01Z</time>
      </trkpt>
      <trkpt lat="44.19155" lon="3.17796">
        <ele>719.3</ele>
        <time>2021-09-30T14:33:02Z</time>
      </trkpt>
      <trkpt lat="44.1916" lon="3.17798">
        <ele>719.2</ele>
        <time>2021-09-30T14:33:03Z</time>
      </trkpt>
      <trkpt lat="44.19161" lon="3.17799">
        <ele>719.2</ele>
        <time>2021-09-30T14:33:04Z</time>
      </trkpt>
      <trkpt lat="44.19165" lon="3.17801">
        <ele>719.3</ele>
        <time>2021-09-30T14:33:06Z</time>
      </trkpt>
      <trkpt lat="44.19166" lon="3.17801">
        <ele>719.4</ele>
        <time>2021-09-30T14:33:07Z</time>
      </trkpt>
      <trkpt lat="44.19168" lon="3.17803">
        <ele>719.6</ele>
        <time>2021-09-30T14:33:09Z</time>
      </trkpt>
      <trkpt lat="44.19172" lon="3.17805">
        <ele>719.9</ele>
        <time>2021-09-30T14:33:10Z</time>
      </trkpt>
      <trkpt lat="44.19174" lon="3.17809">
        <ele>720.3</ele>
        <time>2021-09-30T14:33:12Z</time>
      </trkpt>
      <trkpt lat="44.19175" lon="3.1781">
        <ele>720.4</ele>
        <time>2021-09-30T14:33:13Z</time>
      </trkpt>
      <trkpt lat="44.19177" lon="3.17813">
        <ele>720.9</ele>
        <time>2021-09-30T14:33:14Z</time>
      </trkpt>
      <trkpt lat="44.19178" lon="3.17814">
        <ele>721</ele>
        <time>2021-09-30T14:33:15Z</time>
      </trkpt>
      <trkpt lat="44.1918" lon="3.17816">
        <ele>721.4</ele>
        <time>2021-09-30T14:33:16Z</time>
      </trkpt>
      <trkpt lat="44.19182" lon="3.17818">
        <ele>721.9</ele>
        <time>2021-09-30T14:33:18Z</time>
      </trkpt>
      <trkpt lat="44.19184" lon="3.17819">
        <ele>722.1</ele>
        <time>2021-09-30T14:33:19Z</time>
      </trkpt>
      <trkpt lat="44.19187" lon="3.1782">
        <ele>722.6</ele>
        <time>2021-09-30T14:33:21Z</time>
      </trkpt>
      <trkpt lat="44.19188" lon="3.17821">
        <ele>722.8</ele>
        <time>2021-09-30T14:33:22Z</time>
      </trkpt>
      <trkpt lat="44.1919" lon="3.17822">
        <ele>723.2</ele>
        <time>2021-09-30T14:33:23Z</time>
      </trkpt>
      <trkpt lat="44.19192" lon="3.17826">
        <ele>723.8</ele>
        <time>2021-09-30T14:33:24Z</time>
      </trkpt>
      <trkpt lat="44.19193" lon="3.17828">
        <ele>724.1</ele>
        <time>2021-09-30T14:33:25Z</time>
      </trkpt>
      <trkpt lat="44.19194" lon="3.17832">
        <ele>724.7</ele>
        <time>2021-09-30T14:33:27Z</time>
      </trkpt>
      <trkpt lat="44.19195" lon="3.17833">
        <ele>724.8</ele>
        <time>2021-09-30T14:33:28Z</time>
      </trkpt>
      <trkpt lat="44.19195" lon="3.17835">
        <ele>725.1</ele>
        <time>2021-09-30T14:33:29Z</time>
      </trkpt>
      <trkpt lat="44.19196" lon="3.17836">
        <ele>725.3</ele>
        <time>2021-09-30T14:33:30Z</time>
      </trkpt>
      <trkpt lat="44.19198" lon="3.17837">
        <ele>725.7</ele>
        <time>2021-09-30T14:33:32Z</time>
      </trkpt>
      <trkpt lat="44.19201" lon="3.1784">
        <ele>726.3</ele>
        <time>2021-09-30T14:33:33Z</time>
      </trkpt>
      <trkpt lat="44.19204" lon="3.17845">
        <ele>727.1</ele>
        <time>2021-09-30T14:33:35Z</time>
      </trkpt>
      <trkpt lat="44.19205" lon="3.17846">
        <ele>727.4</ele>
        <time>2021-09-30T14:33:36Z</time>
      </trkpt>
      <trkpt lat="44.19206" lon="3.17848">
        <ele>727.6</ele>
        <time>2021-09-30T14:33:37Z</time>
      </trkpt>
      <trkpt lat="44.19208" lon="3.17851">
        <ele>728.1</ele>
        <time>2021-09-30T14:33:39Z</time>
      </trkpt>
      <trkpt lat="44.1921" lon="3.17855">
        <ele>728.6</ele>
        <time>2021-09-30T14:33:40Z</time>
      </trkpt>
      <trkpt lat="44.19211" lon="3.17857">
        <ele>728.8</ele>
        <time>2021-09-30T14:33:41Z</time>
      </trkpt>
      <trkpt lat="44.19212" lon="3.17859">
        <ele>729.2</ele>
        <time>2021-09-30T14:33:43Z</time>
      </trkpt>
      <trkpt lat="44.19214" lon="3.17862">
        <ele>729.6</ele>
        <time>2021-09-30T14:33:45Z</time>
      </trkpt>
      <trkpt lat="44.19216" lon="3.17864">
        <ele>730</ele>
        <time>2021-09-30T14:33:47Z</time>
      </trkpt>
      <trkpt lat="44.19218" lon="3.17867">
        <ele>730.3</ele>
        <time>2021-09-30T14:33:48Z</time>
      </trkpt>
      <trkpt lat="44.19219" lon="3.17868">
        <ele>730.4</ele>
        <time>2021-09-30T14:33:49Z</time>
      </trkpt>
      <trkpt lat="44.1922" lon="3.17869">
        <ele>730.7</ele>
        <time>2021-09-30T14:33:50Z</time>
      </trkpt>
      <trkpt lat="44.19222" lon="3.17872">
        <ele>731</ele>
        <time>2021-09-30T14:33:52Z</time>
      </trkpt>
      <trkpt lat="44.19223" lon="3.17875">
        <ele>731.3</ele>
        <time>2021-09-30T14:33:53Z</time>
      </trkpt>
      <trkpt lat="44.19225" lon="3.17877">
        <ele>731.5</ele>
        <time>2021-09-30T14:33:55Z</time>
      </trkpt>
      <trkpt lat="44.19227" lon="3.1788">
        <ele>731.9</ele>
        <time>2021-09-30T14:33:56Z</time>
      </trkpt>
      <trkpt lat="44.19227" lon="3.17881">
        <ele>732</ele>
        <time>2021-09-30T14:33:57Z</time>
      </trkpt>
      <trkpt lat="44.19229" lon="3.17886">
        <ele>732.4</ele>
        <time>2021-09-30T14:34:00Z</time>
      </trkpt>
      <trkpt lat="44.1923" lon="3.17887">
        <ele>732.5</ele>
        <time>2021-09-30T14:34:01Z</time>
      </trkpt>
      <trkpt lat="44.1923" lon="3.17888">
        <ele>732.6</ele>
        <time>2021-09-30T14:34:02Z</time>
      </trkpt>
      <trkpt lat="44.19231" lon="3.17889">
        <ele>732.8</ele>
        <time>2021-09-30T14:34:03Z</time>
      </trkpt>
      <trkpt lat="44.19231" lon="3.17892">
        <ele>733</ele>
        <time>2021-09-30T14:34:05Z</time>
      </trkpt>
      <trkpt lat="44.19231" lon="3.17894">
        <ele>733.1</ele>
        <time>2021-09-30T14:34:07Z</time>
      </trkpt>
      <trkpt lat="44.19231" lon="3.17895">
        <ele>733.3</ele>
        <time>2021-09-30T14:34:08Z</time>
      </trkpt>
      <trkpt lat="44.19231" lon="3.17897">
        <ele>733.3</ele>
        <time>2021-09-30T14:34:10Z</time>
      </trkpt>
      <trkpt lat="44.19231" lon="3.17898">
        <ele>733.2</ele>
        <time>2021-09-30T14:34:12Z</time>
      </trkpt>
      <trkpt lat="44.19231" lon="3.179">
        <ele>733.2</ele>
        <time>2021-09-30T14:34:13Z</time>
      </trkpt>
      <trkpt lat="44.19231" lon="3.17902">
        <ele>733.1</ele>
        <time>2021-09-30T14:34:15Z</time>
      </trkpt>
      <trkpt lat="44.19231" lon="3.17903">
        <ele>733.1</ele>
        <time>2021-09-30T14:34:17Z</time>
      </trkpt>
      <trkpt lat="44.19231" lon="3.17905">
        <ele>733</ele>
        <time>2021-09-30T14:34:48Z</time>
      </trkpt>
      <trkpt lat="44.19232" lon="3.17907">
        <ele>732.9</ele>
        <time>2021-09-30T14:34:49Z</time>
      </trkpt>
      <trkpt lat="44.19231" lon="3.17912">
        <ele>732.7</ele>
        <time>2021-09-30T14:34:51Z</time>
      </trkpt>
      <trkpt lat="44.19232" lon="3.17917">
        <ele>732.4</ele>
        <time>2021-09-30T14:34:52Z</time>
      </trkpt>
      <trkpt lat="44.19232" lon="3.17924">
        <ele>731.9</ele>
        <time>2021-09-30T14:34:54Z</time>
      </trkpt>
      <trkpt lat="44.19234" lon="3.17931">
        <ele>731.4</ele>
        <time>2021-09-30T14:34:55Z</time>
      </trkpt>
      <trkpt lat="44.19234" lon="3.17935">
        <ele>731.1</ele>
        <time>2021-09-30T14:34:56Z</time>
      </trkpt>
      <trkpt lat="44.19232" lon="3.17943">
        <ele>730.4</ele>
        <time>2021-09-30T14:34:58Z</time>
      </trkpt>
      <trkpt lat="44.19228" lon="3.17956">
        <ele>729.4</ele>
        <time>2021-09-30T14:35:00Z</time>
      </trkpt>
      <trkpt lat="44.19226" lon="3.17962">
        <ele>728.9</ele>
        <time>2021-09-30T14:35:01Z</time>
      </trkpt>
      <trkpt lat="44.19224" lon="3.17973">
        <ele>727.6</ele>
        <time>2021-09-30T14:35:03Z</time>
      </trkpt>
      <trkpt lat="44.19222" lon="3.17978">
        <ele>726.9</ele>
        <time>2021-09-30T14:35:04Z</time>
      </trkpt>
      <trkpt lat="44.19221" lon="3.17983">
        <ele>726</ele>
        <time>2021-09-30T14:35:06Z</time>
      </trkpt>
      <trkpt lat="44.19221" lon="3.17988">
        <ele>725.3</ele>
        <time>2021-09-30T14:35:07Z</time>
      </trkpt>
      <trkpt lat="44.19219" lon="3.17993">
        <ele>724.1</ele>
        <time>2021-09-30T14:35:08Z</time>
      </trkpt>
      <trkpt lat="44.19217" lon="3.17997">
        <ele>723.2</ele>
        <time>2021-09-30T14:35:10Z</time>
      </trkpt>
      <trkpt lat="44.19213" lon="3.18002">
        <ele>721.5</ele>
        <time>2021-09-30T14:35:12Z</time>
      </trkpt>
      <trkpt lat="44.19209" lon="3.18006">
        <ele>719.8</ele>
        <time>2021-09-30T14:35:13Z</time>
      </trkpt>
      <trkpt lat="44.19205" lon="3.18011">
        <ele>718.3</ele>
        <time>2021-09-30T14:35:15Z</time>
      </trkpt>
      <trkpt lat="44.19203" lon="3.18015">
        <ele>717</ele>
        <time>2021-09-30T14:35:16Z</time>
      </trkpt>
      <trkpt lat="44.19199" lon="3.18023">
        <ele>714.8</ele>
        <time>2021-09-30T14:35:17Z</time>
      </trkpt>
      <trkpt lat="44.19195" lon="3.18029">
        <ele>713.3</ele>
        <time>2021-09-30T14:35:19Z</time>
      </trkpt>
      <trkpt lat="44.19192" lon="3.18036">
        <ele>712.1</ele>
        <time>2021-09-30T14:35:20Z</time>
      </trkpt>
      <trkpt lat="44.1919" lon="3.18039">
        <ele>711.4</ele>
        <time>2021-09-30T14:35:21Z</time>
      </trkpt>
      <trkpt lat="44.19188" lon="3.18041">
        <ele>711.1</ele>
        <time>2021-09-30T14:35:22Z</time>
      </trkpt>
      <trkpt lat="44.19186" lon="3.18044">
        <ele>710.9</ele>
        <time>2021-09-30T14:35:24Z</time>
      </trkpt>
      <trkpt lat="44.19183" lon="3.18047">
        <ele>710.6</ele>
        <time>2021-09-30T14:35:25Z</time>
      </trkpt>
      <trkpt lat="44.19182" lon="3.18049">
        <ele>710.5</ele>
        <time>2021-09-30T14:35:26Z</time>
      </trkpt>
      <trkpt lat="44.19177" lon="3.18064">
        <ele>710.2</ele>
        <time>2021-09-30T14:35:28Z</time>
      </trkpt>
      <trkpt lat="44.19173" lon="3.1807">
        <ele>709.9</ele>
        <time>2021-09-30T14:35:29Z</time>
      </trkpt>
      <trkpt lat="44.19172" lon="3.18078">
        <ele>709.5</ele>
        <time>2021-09-30T14:35:31Z</time>
      </trkpt>
      <trkpt lat="44.19172" lon="3.18084">
        <ele>709.2</ele>
        <time>2021-09-30T14:35:32Z</time>
      </trkpt>
      <trkpt lat="44.19172" lon="3.18093">
        <ele>708.8</ele>
        <time>2021-09-30T14:35:33Z</time>
      </trkpt>
      <trkpt lat="44.19173" lon="3.181">
        <ele>708.6</ele>
        <time>2021-09-30T14:35:35Z</time>
      </trkpt>
      <trkpt lat="44.19175" lon="3.18108">
        <ele>708.6</ele>
        <time>2021-09-30T14:35:37Z</time>
      </trkpt>
      <trkpt lat="44.19177" lon="3.18112">
        <ele>708.6</ele>
        <time>2021-09-30T14:35:38Z</time>
      </trkpt>
      <trkpt lat="44.1918" lon="3.18119">
        <ele>708.8</ele>
        <time>2021-09-30T14:35:40Z</time>
      </trkpt>
      <trkpt lat="44.19182" lon="3.18127">
        <ele>709</ele>
        <time>2021-09-30T14:35:42Z</time>
      </trkpt>
      <trkpt lat="44.19182" lon="3.18131">
        <ele>709.1</ele>
        <time>2021-09-30T14:35:43Z</time>
      </trkpt>
      <trkpt lat="44.19182" lon="3.18138">
        <ele>709.3</ele>
        <time>2021-09-30T14:35:45Z</time>
      </trkpt>
      <trkpt lat="44.19181" lon="3.18142">
        <ele>709.3</ele>
        <time>2021-09-30T14:35:46Z</time>
      </trkpt>
      <trkpt lat="44.19179" lon="3.18148">
        <ele>709.4</ele>
        <time>2021-09-30T14:35:47Z</time>
      </trkpt>
      <trkpt lat="44.19179" lon="3.18155">
        <ele>709.3</ele>
        <time>2021-09-30T14:35:49Z</time>
      </trkpt>
      <trkpt lat="44.19178" lon="3.18162">
        <ele>709.2</ele>
        <time>2021-09-30T14:35:50Z</time>
      </trkpt>
      <trkpt lat="44.19178" lon="3.18168">
        <ele>709</ele>
        <time>2021-09-30T14:35:51Z</time>
      </trkpt>
      <trkpt lat="44.19175" lon="3.18182">
        <ele>708.4</ele>
        <time>2021-09-30T14:35:53Z</time>
      </trkpt>
      <trkpt lat="44.19173" lon="3.1819">
        <ele>707.9</ele>
        <time>2021-09-30T14:35:54Z</time>
      </trkpt>
      <trkpt lat="44.19172" lon="3.18201">
        <ele>707.3</ele>
        <time>2021-09-30T14:35:56Z</time>
      </trkpt>
      <trkpt lat="44.1917" lon="3.18202">
        <ele>707.2</ele>
        <time>2021-09-30T14:35:58Z</time>
      </trkpt>
      <trkpt lat="44.19169" lon="3.18212">
        <ele>706.9</ele>
        <time>2021-09-30T14:36:00Z</time>
      </trkpt>
      <trkpt lat="44.19165" lon="3.18217">
        <ele>706.6</ele>
        <time>2021-09-30T14:36:01Z</time>
      </trkpt>
      <trkpt lat="44.19162" lon="3.1822">
        <ele>706.4</ele>
        <time>2021-09-30T14:36:02Z</time>
      </trkpt>
      <trkpt lat="44.19159" lon="3.18221">
        <ele>706.3</ele>
        <time>2021-09-30T14:36:03Z</time>
      </trkpt>
      <trkpt lat="44.19158" lon="3.18222">
        <ele>706.3</ele>
        <time>2021-09-30T14:36:04Z</time>
      </trkpt>
      <trkpt lat="44.19157" lon="3.18221">
        <ele>706.2</ele>
        <time>2021-09-30T14:36:06Z</time>
      </trkpt>
      <trkpt lat="44.19155" lon="3.18221">
        <ele>706.2</ele>
        <time>2021-09-30T14:36:07Z</time>
      </trkpt>
      <trkpt lat="44.19154" lon="3.18221">
        <ele>706.1</ele>
        <time>2021-09-30T14:36:08Z</time>
      </trkpt>
      <trkpt lat="44.19149" lon="3.18226">
        <ele>705.7</ele>
        <time>2021-09-30T14:36:09Z</time>
      </trkpt>
      <trkpt lat="44.19144" lon="3.1823">
        <ele>705.1</ele>
        <time>2021-09-30T14:36:11Z</time>
      </trkpt>
      <trkpt lat="44.19137" lon="3.18239">
        <ele>703.6</ele>
        <time>2021-09-30T14:36:12Z</time>
      </trkpt>
      <trkpt lat="44.19128" lon="3.1825">
        <ele>701</ele>
        <time>2021-09-30T14:36:14Z</time>
      </trkpt>
      <trkpt lat="44.19124" lon="3.18256">
        <ele>699.9</ele>
        <time>2021-09-30T14:36:15Z</time>
      </trkpt>
      <trkpt lat="44.1912" lon="3.1826">
        <ele>699</ele>
        <time>2021-09-30T14:36:16Z</time>
      </trkpt>
      <trkpt lat="44.19115" lon="3.18264">
        <ele>698.3</ele>
        <time>2021-09-30T14:36:18Z</time>
      </trkpt>
      <trkpt lat="44.19109" lon="3.18269">
        <ele>697.7</ele>
        <time>2021-09-30T14:36:19Z</time>
      </trkpt>
      <trkpt lat="44.19105" lon="3.1827">
        <ele>697.4</ele>
        <time>2021-09-30T14:36:21Z</time>
      </trkpt>
      <trkpt lat="44.19102" lon="3.18271">
        <ele>697.2</ele>
        <time>2021-09-30T14:36:22Z</time>
      </trkpt>
      <trkpt lat="44.19099" lon="3.18275">
        <ele>697</ele>
        <time>2021-09-30T14:36:24Z</time>
      </trkpt>
      <trkpt lat="44.19098" lon="3.18279">
        <ele>696.8</ele>
        <time>2021-09-30T14:36:25Z</time>
      </trkpt>
      <trkpt lat="44.19096" lon="3.18284">
        <ele>696.6</ele>
        <time>2021-09-30T14:36:26Z</time>
      </trkpt>
      <trkpt lat="44.19094" lon="3.18295">
        <ele>695.8</ele>
        <time>2021-09-30T14:36:27Z</time>
      </trkpt>
      <trkpt lat="44.19091" lon="3.18303">
        <ele>694.8</ele>
        <time>2021-09-30T14:36:29Z</time>
      </trkpt>
      <trkpt lat="44.19089" lon="3.18307">
        <ele>694.1</ele>
        <time>2021-09-30T14:36:30Z</time>
      </trkpt>
      <trkpt lat="44.19089" lon="3.18309">
        <ele>693.9</ele>
        <time>2021-09-30T14:36:31Z</time>
      </trkpt>
      <trkpt lat="44.1909" lon="3.1831">
        <ele>693.6</ele>
        <time>2021-09-30T14:36:33Z</time>
      </trkpt>
      <trkpt lat="44.19091" lon="3.18311">
        <ele>693.5</ele>
        <time>2021-09-30T14:36:34Z</time>
      </trkpt>
      <trkpt lat="44.19091" lon="3.1831">
        <ele>693.2</ele>
        <time>2021-09-30T14:36:41Z</time>
      </trkpt>
      <trkpt lat="44.19092" lon="3.1831">
        <ele>693.2</ele>
        <time>2021-09-30T14:36:43Z</time>
      </trkpt>
      <trkpt lat="44.19092" lon="3.18314">
        <ele>692.5</ele>
        <time>2021-09-30T14:37:14Z</time>
      </trkpt>
      <trkpt lat="44.19094" lon="3.18322">
        <ele>691.4</ele>
        <time>2021-09-30T14:37:16Z</time>
      </trkpt>
      <trkpt lat="44.19097" lon="3.18328">
        <ele>690.5</ele>
        <time>2021-09-30T14:37:18Z</time>
      </trkpt>
      <trkpt lat="44.19101" lon="3.18331">
        <ele>690</ele>
        <time>2021-09-30T14:37:19Z</time>
      </trkpt>
      <trkpt lat="44.19104" lon="3.18334">
        <ele>689.7</ele>
        <time>2021-09-30T14:37:20Z</time>
      </trkpt>
      <trkpt lat="44.19108" lon="3.18337">
        <ele>689.5</ele>
        <time>2021-09-30T14:37:22Z</time>
      </trkpt>
      <trkpt lat="44.1911" lon="3.18339">
        <ele>689.5</ele>
        <time>2021-09-30T14:37:23Z</time>
      </trkpt>
      <trkpt lat="44.1911" lon="3.1834">
        <ele>689.5</ele>
        <time>2021-09-30T14:37:25Z</time>
      </trkpt>
      <trkpt lat="44.19111" lon="3.18341">
        <ele>689.5</ele>
        <time>2021-09-30T14:37:26Z</time>
      </trkpt>
      <trkpt lat="44.19113" lon="3.18343">
        <ele>689.6</ele>
        <time>2021-09-30T14:37:28Z</time>
      </trkpt>
      <trkpt lat="44.19114" lon="3.18344">
        <ele>689.6</ele>
        <time>2021-09-30T14:37:29Z</time>
      </trkpt>
      <trkpt lat="44.19116" lon="3.18345">
        <ele>689.8</ele>
        <time>2021-09-30T14:37:30Z</time>
      </trkpt>
      <trkpt lat="44.19118" lon="3.18346">
        <ele>689.8</ele>
        <time>2021-09-30T14:37:31Z</time>
      </trkpt>
      <trkpt lat="44.19121" lon="3.18349">
        <ele>690.1</ele>
        <time>2021-09-30T14:37:32Z</time>
      </trkpt>
      <trkpt lat="44.19123" lon="3.1835">
        <ele>690.3</ele>
        <time>2021-09-30T14:37:33Z</time>
      </trkpt>
      <trkpt lat="44.19125" lon="3.18353">
        <ele>690.6</ele>
        <time>2021-09-30T14:37:35Z</time>
      </trkpt>
      <trkpt lat="44.19129" lon="3.18355">
        <ele>690.9</ele>
        <time>2021-09-30T14:37:37Z</time>
      </trkpt>
      <trkpt lat="44.1913" lon="3.18356">
        <ele>691</ele>
        <time>2021-09-30T14:37:38Z</time>
      </trkpt>
      <trkpt lat="44.19132" lon="3.1836">
        <ele>691.3</ele>
        <time>2021-09-30T14:37:40Z</time>
      </trkpt>
      <trkpt lat="44.19133" lon="3.18361">
        <ele>691.4</ele>
        <time>2021-09-30T14:37:41Z</time>
      </trkpt>
      <trkpt lat="44.19133" lon="3.18366">
        <ele>691.8</ele>
        <time>2021-09-30T14:37:43Z</time>
      </trkpt>
      <trkpt lat="44.19133" lon="3.18371">
        <ele>692.2</ele>
        <time>2021-09-30T14:37:44Z</time>
      </trkpt>
      <trkpt lat="44.19133" lon="3.18372">
        <ele>692.3</ele>
        <time>2021-09-30T14:37:45Z</time>
      </trkpt>
      <trkpt lat="44.19133" lon="3.1838">
        <ele>692.8</ele>
        <time>2021-09-30T14:37:47Z</time>
      </trkpt>
      <trkpt lat="44.19133" lon="3.18386">
        <ele>693.2</ele>
        <time>2021-09-30T14:37:48Z</time>
      </trkpt>
      <trkpt lat="44.19133" lon="3.18388">
        <ele>693.3</ele>
        <time>2021-09-30T14:37:49Z</time>
      </trkpt>
      <trkpt lat="44.19134" lon="3.18391">
        <ele>693.5</ele>
        <time>2021-09-30T14:37:50Z</time>
      </trkpt>
      <trkpt lat="44.19137" lon="3.18395">
        <ele>693.8</ele>
        <time>2021-09-30T14:37:52Z</time>
      </trkpt>
      <trkpt lat="44.19137" lon="3.18399">
        <ele>693.9</ele>
        <time>2021-09-30T14:37:53Z</time>
      </trkpt>
      <trkpt lat="44.19135" lon="3.18402">
        <ele>694</ele>
        <time>2021-09-30T14:37:54Z</time>
      </trkpt>
      <trkpt lat="44.19132" lon="3.18407">
        <ele>694.1</ele>
        <time>2021-09-30T14:37:56Z</time>
      </trkpt>
      <trkpt lat="44.19129" lon="3.18409">
        <ele>694.1</ele>
        <time>2021-09-30T14:37:57Z</time>
      </trkpt>
      <trkpt lat="44.19126" lon="3.18413">
        <ele>694.1</ele>
        <time>2021-09-30T14:37:59Z</time>
      </trkpt>
      <trkpt lat="44.19126" lon="3.18418">
        <ele>693.9</ele>
        <time>2021-09-30T14:38:00Z</time>
      </trkpt>
      <trkpt lat="44.19126" lon="3.1842">
        <ele>693.9</ele>
        <time>2021-09-30T14:38:01Z</time>
      </trkpt>
      <trkpt lat="44.19122" lon="3.18423">
        <ele>693.7</ele>
        <time>2021-09-30T14:38:03Z</time>
      </trkpt>
      <trkpt lat="44.1912" lon="3.18425">
        <ele>693.5</ele>
        <time>2021-09-30T14:38:04Z</time>
      </trkpt>
      <trkpt lat="44.19115" lon="3.18431">
        <ele>693.1</ele>
        <time>2021-09-30T14:38:05Z</time>
      </trkpt>
      <trkpt lat="44.19112" lon="3.18437">
        <ele>692.8</ele>
        <time>2021-09-30T14:38:07Z</time>
      </trkpt>
      <trkpt lat="44.19109" lon="3.1844">
        <ele>692.6</ele>
        <time>2021-09-30T14:38:08Z</time>
      </trkpt>
      <trkpt lat="44.19108" lon="3.18444">
        <ele>692.5</ele>
        <time>2021-09-30T14:38:09Z</time>
      </trkpt>
      <trkpt lat="44.1911" lon="3.1845">
        <ele>692.4</ele>
        <time>2021-09-30T14:38:11Z</time>
      </trkpt>
      <trkpt lat="44.19111" lon="3.18456">
        <ele>692.3</ele>
        <time>2021-09-30T14:38:12Z</time>
      </trkpt>
      <trkpt lat="44.19112" lon="3.18459">
        <ele>692.3</ele>
        <time>2021-09-30T14:38:14Z</time>
      </trkpt>
      <trkpt lat="44.19113" lon="3.18464">
        <ele>692.3</ele>
        <time>2021-09-30T14:38:16Z</time>
      </trkpt>
      <trkpt lat="44.19114" lon="3.18468">
        <ele>692.3</ele>
        <time>2021-09-30T14:38:17Z</time>
      </trkpt>
      <trkpt lat="44.19116" lon="3.18471">
        <ele>692.3</ele>
        <time>2021-09-30T14:38:19Z</time>
      </trkpt>
      <trkpt lat="44.19118" lon="3.18475">
        <ele>692.2</ele>
        <time>2021-09-30T14:38:20Z</time>
      </trkpt>
      <trkpt lat="44.1912" lon="3.18479">
        <ele>692.2</ele>
        <time>2021-09-30T14:38:22Z</time>
      </trkpt>
      <trkpt lat="44.19122" lon="3.18487">
        <ele>692</ele>
        <time>2021-09-30T14:38:24Z</time>
      </trkpt>
      <trkpt lat="44.19123" lon="3.18494">
        <ele>691.7</ele>
        <time>2021-09-30T14:38:25Z</time>
      </trkpt>
      <trkpt lat="44.19123" lon="3.18506">
        <ele>691.1</ele>
        <time>2021-09-30T14:38:27Z</time>
      </trkpt>
      <trkpt lat="44.19123" lon="3.18517">
        <ele>690.4</ele>
        <time>2021-09-30T14:38:29Z</time>
      </trkpt>
      <trkpt lat="44.19122" lon="3.18523">
        <ele>689.9</ele>
        <time>2021-09-30T14:38:30Z</time>
      </trkpt>
      <trkpt lat="44.19122" lon="3.18531">
        <ele>689.3</ele>
        <time>2021-09-30T14:38:32Z</time>
      </trkpt>
      <trkpt lat="44.19122" lon="3.18535">
        <ele>688.9</ele>
        <time>2021-09-30T14:38:33Z</time>
      </trkpt>
      <trkpt lat="44.19122" lon="3.1854">
        <ele>688.5</ele>
        <time>2021-09-30T14:38:34Z</time>
      </trkpt>
      <trkpt lat="44.19117" lon="3.18543">
        <ele>687.6</ele>
        <time>2021-09-30T14:38:36Z</time>
      </trkpt>
      <trkpt lat="44.19111" lon="3.18543">
        <ele>686.6</ele>
        <time>2021-09-30T14:38:38Z</time>
      </trkpt>
      <trkpt lat="44.19104" lon="3.18544">
        <ele>685.5</ele>
        <time>2021-09-30T14:38:40Z</time>
      </trkpt>
      <trkpt lat="44.19101" lon="3.18549">
        <ele>684.8</ele>
        <time>2021-09-30T14:38:41Z</time>
      </trkpt>
      <trkpt lat="44.19099" lon="3.18555">
        <ele>684.2</ele>
        <time>2021-09-30T14:38:43Z</time>
      </trkpt>
      <trkpt lat="44.19098" lon="3.18562">
        <ele>683.5</ele>
        <time>2021-09-30T14:38:44Z</time>
      </trkpt>
      <trkpt lat="44.19097" lon="3.18565">
        <ele>683.3</ele>
        <time>2021-09-30T14:38:45Z</time>
      </trkpt>
      <trkpt lat="44.19095" lon="3.1857">
        <ele>682.8</ele>
        <time>2021-09-30T14:38:46Z</time>
      </trkpt>
      <trkpt lat="44.19094" lon="3.18574">
        <ele>682.6</ele>
        <time>2021-09-30T14:38:48Z</time>
      </trkpt>
      <trkpt lat="44.19093" lon="3.18577">
        <ele>682.5</ele>
        <time>2021-09-30T14:38:49Z</time>
      </trkpt>
      <trkpt lat="44.19093" lon="3.1858">
        <ele>682.4</ele>
        <time>2021-09-30T14:38:51Z</time>
      </trkpt>
      <trkpt lat="44.19093" lon="3.18584">
        <ele>682.3</ele>
        <time>2021-09-30T14:38:52Z</time>
      </trkpt>
      <trkpt lat="44.19093" lon="3.18588">
        <ele>682.3</ele>
        <time>2021-09-30T14:38:53Z</time>
      </trkpt>
      <trkpt lat="44.19092" lon="3.18596">
        <ele>682.3</ele>
        <time>2021-09-30T14:38:54Z</time>
      </trkpt>
      <trkpt lat="44.19091" lon="3.18602">
        <ele>682.4</ele>
        <time>2021-09-30T14:38:56Z</time>
      </trkpt>
      <trkpt lat="44.19092" lon="3.18608">
        <ele>682.5</ele>
        <time>2021-09-30T14:38:57Z</time>
      </trkpt>
      <trkpt lat="44.19095" lon="3.18613">
        <ele>682.6</ele>
        <time>2021-09-30T14:38:59Z</time>
      </trkpt>
      <trkpt lat="44.19098" lon="3.18617">
        <ele>682.5</ele>
        <time>2021-09-30T14:39:00Z</time>
      </trkpt>
      <trkpt lat="44.19101" lon="3.18619">
        <ele>682.5</ele>
        <time>2021-09-30T14:39:01Z</time>
      </trkpt>
      <trkpt lat="44.19105" lon="3.1862">
        <ele>682.4</ele>
        <time>2021-09-30T14:39:02Z</time>
      </trkpt>
      <trkpt lat="44.19108" lon="3.18621">
        <ele>682.2</ele>
        <time>2021-09-30T14:39:03Z</time>
      </trkpt>
      <trkpt lat="44.19111" lon="3.18623">
        <ele>682.1</ele>
        <time>2021-09-30T14:39:04Z</time>
      </trkpt>
      <trkpt lat="44.19113" lon="3.18624">
        <ele>682</ele>
        <time>2021-09-30T14:39:05Z</time>
      </trkpt>
      <trkpt lat="44.19115" lon="3.18627">
        <ele>681.9</ele>
        <time>2021-09-30T14:39:07Z</time>
      </trkpt>
      <trkpt lat="44.19118" lon="3.18634">
        <ele>681.6</ele>
        <time>2021-09-30T14:39:09Z</time>
      </trkpt>
      <trkpt lat="44.19119" lon="3.18639">
        <ele>681.5</ele>
        <time>2021-09-30T14:39:10Z</time>
      </trkpt>
      <trkpt lat="44.1912" lon="3.18643">
        <ele>681.4</ele>
        <time>2021-09-30T14:39:11Z</time>
      </trkpt>
      <trkpt lat="44.19121" lon="3.18648">
        <ele>681.4</ele>
        <time>2021-09-30T14:39:13Z</time>
      </trkpt>
      <trkpt lat="44.19121" lon="3.18652">
        <ele>681.4</ele>
        <time>2021-09-30T14:39:14Z</time>
      </trkpt>
      <trkpt lat="44.19118" lon="3.18655">
        <ele>681.3</ele>
        <time>2021-09-30T14:39:15Z</time>
      </trkpt>
      <trkpt lat="44.19115" lon="3.1866">
        <ele>681.3</ele>
        <time>2021-09-30T14:39:17Z</time>
      </trkpt>
      <trkpt lat="44.19112" lon="3.18663">
        <ele>681.3</ele>
        <time>2021-09-30T14:39:18Z</time>
      </trkpt>
      <trkpt lat="44.19108" lon="3.18666">
        <ele>681.2</ele>
        <time>2021-09-30T14:39:19Z</time>
      </trkpt>
      <trkpt lat="44.19105" lon="3.1867">
        <ele>681.1</ele>
        <time>2021-09-30T14:39:20Z</time>
      </trkpt>
      <trkpt lat="44.19101" lon="3.18673">
        <ele>680.9</ele>
        <time>2021-09-30T14:39:22Z</time>
      </trkpt>
      <trkpt lat="44.19098" lon="3.18675">
        <ele>680.8</ele>
        <time>2021-09-30T14:39:23Z</time>
      </trkpt>
      <trkpt lat="44.19096" lon="3.18677">
        <ele>680.8</ele>
        <time>2021-09-30T14:39:24Z</time>
      </trkpt>
      <trkpt lat="44.19093" lon="3.18683">
        <ele>680.7</ele>
        <time>2021-09-30T14:39:26Z</time>
      </trkpt>
      <trkpt lat="44.19091" lon="3.1869">
        <ele>680.6</ele>
        <time>2021-09-30T14:39:27Z</time>
      </trkpt>
      <trkpt lat="44.19095" lon="3.18695">
        <ele>680.6</ele>
        <time>2021-09-30T14:39:29Z</time>
      </trkpt>
      <trkpt lat="44.19098" lon="3.187">
        <ele>680.6</ele>
        <time>2021-09-30T14:39:30Z</time>
      </trkpt>
      <trkpt lat="44.19102" lon="3.18703">
        <ele>680.7</ele>
        <time>2021-09-30T14:39:31Z</time>
      </trkpt>
      <trkpt lat="44.19105" lon="3.18707">
        <ele>680.8</ele>
        <time>2021-09-30T14:39:32Z</time>
      </trkpt>
      <trkpt lat="44.19107" lon="3.1871">
        <ele>680.9</ele>
        <time>2021-09-30T14:39:33Z</time>
      </trkpt>
      <trkpt lat="44.19109" lon="3.18712">
        <ele>681.1</ele>
        <time>2021-09-30T14:39:34Z</time>
      </trkpt>
      <trkpt lat="44.19111" lon="3.18714">
        <ele>681.2</ele>
        <time>2021-09-30T14:39:36Z</time>
      </trkpt>
      <trkpt lat="44.19112" lon="3.18715">
        <ele>681.3</ele>
        <time>2021-09-30T14:39:37Z</time>
      </trkpt>
      <trkpt lat="44.19115" lon="3.18718">
        <ele>681.6</ele>
        <time>2021-09-30T14:39:39Z</time>
      </trkpt>
      <trkpt lat="44.19117" lon="3.1872">
        <ele>681.8</ele>
        <time>2021-09-30T14:39:40Z</time>
      </trkpt>
      <trkpt lat="44.1912" lon="3.18724">
        <ele>682.3</ele>
        <time>2021-09-30T14:39:42Z</time>
      </trkpt>
      <trkpt lat="44.19123" lon="3.18727">
        <ele>682.6</ele>
        <time>2021-09-30T14:39:43Z</time>
      </trkpt>
      <trkpt lat="44.19124" lon="3.18728">
        <ele>682.7</ele>
        <time>2021-09-30T14:39:44Z</time>
      </trkpt>
      <trkpt lat="44.19126" lon="3.18732">
        <ele>683.1</ele>
        <time>2021-09-30T14:39:46Z</time>
      </trkpt>
      <trkpt lat="44.19129" lon="3.18736">
        <ele>683.4</ele>
        <time>2021-09-30T14:39:47Z</time>
      </trkpt>
      <trkpt lat="44.19131" lon="3.18738">
        <ele>683.6</ele>
        <time>2021-09-30T14:39:49Z</time>
      </trkpt>
      <trkpt lat="44.19134" lon="3.18741">
        <ele>683.8</ele>
        <time>2021-09-30T14:39:50Z</time>
      </trkpt>
      <trkpt lat="44.19136" lon="3.18747">
        <ele>683.9</ele>
        <time>2021-09-30T14:39:52Z</time>
      </trkpt>
      <trkpt lat="44.19134" lon="3.18753">
        <ele>684</ele>
        <time>2021-09-30T14:39:53Z</time>
      </trkpt>
      <trkpt lat="44.19134" lon="3.18755">
        <ele>684</ele>
        <time>2021-09-30T14:39:54Z</time>
      </trkpt>
      <trkpt lat="44.19131" lon="3.1876">
        <ele>683.8</ele>
        <time>2021-09-30T14:39:56Z</time>
      </trkpt>
      <trkpt lat="44.19127" lon="3.18764">
        <ele>683.6</ele>
        <time>2021-09-30T14:39:57Z</time>
      </trkpt>
      <trkpt lat="44.19123" lon="3.1877">
        <ele>683.2</ele>
        <time>2021-09-30T14:39:58Z</time>
      </trkpt>
      <trkpt lat="44.19118" lon="3.18775">
        <ele>682.8</ele>
        <time>2021-09-30T14:40:00Z</time>
      </trkpt>
      <trkpt lat="44.19116" lon="3.18778">
        <ele>682.6</ele>
        <time>2021-09-30T14:40:01Z</time>
      </trkpt>
      <trkpt lat="44.19114" lon="3.18782">
        <ele>682.4</ele>
        <time>2021-09-30T14:40:02Z</time>
      </trkpt>
      <trkpt lat="44.19111" lon="3.18786">
        <ele>682.1</ele>
        <time>2021-09-30T14:40:04Z</time>
      </trkpt>
      <trkpt lat="44.19109" lon="3.1879">
        <ele>681.9</ele>
        <time>2021-09-30T14:40:05Z</time>
      </trkpt>
      <trkpt lat="44.19108" lon="3.18793">
        <ele>681.8</ele>
        <time>2021-09-30T14:40:06Z</time>
      </trkpt>
      <trkpt lat="44.19105" lon="3.18797">
        <ele>681.5</ele>
        <time>2021-09-30T14:40:07Z</time>
      </trkpt>
      <trkpt lat="44.19101" lon="3.18803">
        <ele>681.3</ele>
        <time>2021-09-30T14:40:09Z</time>
      </trkpt>
      <trkpt lat="44.19099" lon="3.18806">
        <ele>681.1</ele>
        <time>2021-09-30T14:40:10Z</time>
      </trkpt>
      <trkpt lat="44.19097" lon="3.18811">
        <ele>681</ele>
        <time>2021-09-30T14:40:11Z</time>
      </trkpt>
      <trkpt lat="44.19097" lon="3.1882">
        <ele>680.7</ele>
        <time>2021-09-30T14:40:13Z</time>
      </trkpt>
      <trkpt lat="44.19097" lon="3.18827">
        <ele>680.5</ele>
        <time>2021-09-30T14:40:15Z</time>
      </trkpt>
      <trkpt lat="44.19099" lon="3.18831">
        <ele>680.3</ele>
        <time>2021-09-30T14:40:16Z</time>
      </trkpt>
      <trkpt lat="44.191" lon="3.18833">
        <ele>680.3</ele>
        <time>2021-09-30T14:40:17Z</time>
      </trkpt>
      <trkpt lat="44.19103" lon="3.18836">
        <ele>680.1</ele>
        <time>2021-09-30T14:40:18Z</time>
      </trkpt>
      <trkpt lat="44.19105" lon="3.18839">
        <ele>679.9</ele>
        <time>2021-09-30T14:40:19Z</time>
      </trkpt>
      <trkpt lat="44.19109" lon="3.18844">
        <ele>679.7</ele>
        <time>2021-09-30T14:40:21Z</time>
      </trkpt>
      <trkpt lat="44.19113" lon="3.18847">
        <ele>679.5</ele>
        <time>2021-09-30T14:40:22Z</time>
      </trkpt>
      <trkpt lat="44.19117" lon="3.18849">
        <ele>679.4</ele>
        <time>2021-09-30T14:40:23Z</time>
      </trkpt>
      <trkpt lat="44.19119" lon="3.18853">
        <ele>679.3</ele>
        <time>2021-09-30T14:40:25Z</time>
      </trkpt>
      <trkpt lat="44.19121" lon="3.18856">
        <ele>679.3</ele>
        <time>2021-09-30T14:40:26Z</time>
      </trkpt>
      <trkpt lat="44.19124" lon="3.18858">
        <ele>679.3</ele>
        <time>2021-09-30T14:40:27Z</time>
      </trkpt>
      <trkpt lat="44.19126" lon="3.18862">
        <ele>679.3</ele>
        <time>2021-09-30T14:40:29Z</time>
      </trkpt>
      <trkpt lat="44.19126" lon="3.18864">
        <ele>679.3</ele>
        <time>2021-09-30T14:40:30Z</time>
      </trkpt>
      <trkpt lat="44.19126" lon="3.18869">
        <ele>679.4</ele>
        <time>2021-09-30T14:40:31Z</time>
      </trkpt>
      <trkpt lat="44.19125" lon="3.18871">
        <ele>679.4</ele>
        <time>2021-09-30T14:40:32Z</time>
      </trkpt>
      <trkpt lat="44.19124" lon="3.18877">
        <ele>679.5</ele>
        <time>2021-09-30T14:40:34Z</time>
      </trkpt>
      <trkpt lat="44.19123" lon="3.18882">
        <ele>679.4</ele>
        <time>2021-09-30T14:40:35Z</time>
      </trkpt>
      <trkpt lat="44.19122" lon="3.18886">
        <ele>679.3</ele>
        <time>2021-09-30T14:40:36Z</time>
      </trkpt>
      <trkpt lat="44.19118" lon="3.1889">
        <ele>679</ele>
        <time>2021-09-30T14:40:37Z</time>
      </trkpt>
      <trkpt lat="44.1911" lon="3.18896">
        <ele>678</ele>
        <time>2021-09-30T14:40:39Z</time>
      </trkpt>
      <trkpt lat="44.19106" lon="3.18902">
        <ele>677.2</ele>
        <time>2021-09-30T14:40:40Z</time>
      </trkpt>
      <trkpt lat="44.19102" lon="3.18907">
        <ele>676.5</ele>
        <time>2021-09-30T14:40:41Z</time>
      </trkpt>
      <trkpt lat="44.19102" lon="3.18912">
        <ele>676.1</ele>
        <time>2021-09-30T14:40:43Z</time>
      </trkpt>
      <trkpt lat="44.19097" lon="3.18914">
        <ele>675.6</ele>
        <time>2021-09-30T14:40:44Z</time>
      </trkpt>
      <trkpt lat="44.1909" lon="3.18914">
        <ele>674.8</ele>
        <time>2021-09-30T14:40:46Z</time>
      </trkpt>
      <trkpt lat="44.19085" lon="3.18916">
        <ele>674.3</ele>
        <time>2021-09-30T14:40:47Z</time>
      </trkpt>
      <trkpt lat="44.19074" lon="3.18927">
        <ele>673.1</ele>
        <time>2021-09-30T14:40:49Z</time>
      </trkpt>
      <trkpt lat="44.1907" lon="3.18931">
        <ele>673</ele>
        <time>2021-09-30T14:40:51Z</time>
      </trkpt>
      <trkpt lat="44.19068" lon="3.18936">
        <ele>672.8</ele>
        <time>2021-09-30T14:40:52Z</time>
      </trkpt>
      <trkpt lat="44.19068" lon="3.18941">
        <ele>672.6</ele>
        <time>2021-09-30T14:40:53Z</time>
      </trkpt>
      <trkpt lat="44.19068" lon="3.18949">
        <ele>672.2</ele>
        <time>2021-09-30T14:40:54Z</time>
      </trkpt>
      <trkpt lat="44.19068" lon="3.18955">
        <ele>671.7</ele>
        <time>2021-09-30T14:40:56Z</time>
      </trkpt>
      <trkpt lat="44.19069" lon="3.18961">
        <ele>671.3</ele>
        <time>2021-09-30T14:40:57Z</time>
      </trkpt>
      <trkpt lat="44.1907" lon="3.18965">
        <ele>670.9</ele>
        <time>2021-09-30T14:40:58Z</time>
      </trkpt>
      <trkpt lat="44.19074" lon="3.18973">
        <ele>670.1</ele>
        <time>2021-09-30T14:41:00Z</time>
      </trkpt>
      <trkpt lat="44.19077" lon="3.18977">
        <ele>669.5</ele>
        <time>2021-09-30T14:41:01Z</time>
      </trkpt>
      <trkpt lat="44.19081" lon="3.18983">
        <ele>668.9</ele>
        <time>2021-09-30T14:41:02Z</time>
      </trkpt>
      <trkpt lat="44.19084" lon="3.18988">
        <ele>668.4</ele>
        <time>2021-09-30T14:41:03Z</time>
      </trkpt>
      <trkpt lat="44.19088" lon="3.18993">
        <ele>667.7</ele>
        <time>2021-09-30T14:41:04Z</time>
      </trkpt>
      <trkpt lat="44.19091" lon="3.19">
        <ele>667.1</ele>
        <time>2021-09-30T14:41:05Z</time>
      </trkpt>
      <trkpt lat="44.19092" lon="3.19007">
        <ele>666.5</ele>
        <time>2021-09-30T14:41:06Z</time>
      </trkpt>
      <trkpt lat="44.1909" lon="3.19012">
        <ele>665.9</ele>
        <time>2021-09-30T14:41:08Z</time>
      </trkpt>
      <trkpt lat="44.19088" lon="3.19017">
        <ele>665.2</ele>
        <time>2021-09-30T14:41:09Z</time>
      </trkpt>
      <trkpt lat="44.19076" lon="3.19025">
        <ele>662.8</ele>
        <time>2021-09-30T14:41:10Z</time>
      </trkpt>
      <trkpt lat="44.19073" lon="3.19032">
        <ele>661.8</ele>
        <time>2021-09-30T14:41:11Z</time>
      </trkpt>
      <trkpt lat="44.19071" lon="3.19047">
        <ele>660</ele>
        <time>2021-09-30T14:41:13Z</time>
      </trkpt>
      <trkpt lat="44.19068" lon="3.19053">
        <ele>659.2</ele>
        <time>2021-09-30T14:41:14Z</time>
      </trkpt>
      <trkpt lat="44.19063" lon="3.19063">
        <ele>657.8</ele>
        <time>2021-09-30T14:41:16Z</time>
      </trkpt>
      <trkpt lat="44.19052" lon="3.1907">
        <ele>656.1</ele>
        <time>2021-09-30T14:41:18Z</time>
      </trkpt>
      <trkpt lat="44.19043" lon="3.19081">
        <ele>654.4</ele>
        <time>2021-09-30T14:41:20Z</time>
      </trkpt>
      <trkpt lat="44.19039" lon="3.19086">
        <ele>653.8</ele>
        <time>2021-09-30T14:41:21Z</time>
      </trkpt>
      <trkpt lat="44.19032" lon="3.19096">
        <ele>652.6</ele>
        <time>2021-09-30T14:41:23Z</time>
      </trkpt>
      <trkpt lat="44.19028" lon="3.19109">
        <ele>651.4</ele>
        <time>2021-09-30T14:41:25Z</time>
      </trkpt>
      <trkpt lat="44.19026" lon="3.19115">
        <ele>650.7</ele>
        <time>2021-09-30T14:41:26Z</time>
      </trkpt>
      <trkpt lat="44.19023" lon="3.19119">
        <ele>650.2</ele>
        <time>2021-09-30T14:41:27Z</time>
      </trkpt>
      <trkpt lat="44.1902" lon="3.19129">
        <ele>649.2</ele>
        <time>2021-09-30T14:41:29Z</time>
      </trkpt>
      <trkpt lat="44.19018" lon="3.19137">
        <ele>648.5</ele>
        <time>2021-09-30T14:41:30Z</time>
      </trkpt>
      <trkpt lat="44.19017" lon="3.19152">
        <ele>647.8</ele>
        <time>2021-09-30T14:41:32Z</time>
      </trkpt>
      <trkpt lat="44.19014" lon="3.1916">
        <ele>647.6</ele>
        <time>2021-09-30T14:41:34Z</time>
      </trkpt>
      <trkpt lat="44.19012" lon="3.19163">
        <ele>647.5</ele>
        <time>2021-09-30T14:41:35Z</time>
      </trkpt>
      <trkpt lat="44.19012" lon="3.1917">
        <ele>647.3</ele>
        <time>2021-09-30T14:41:37Z</time>
      </trkpt>
      <trkpt lat="44.19012" lon="3.19173">
        <ele>647.1</ele>
        <time>2021-09-30T14:41:38Z</time>
      </trkpt>
      <trkpt lat="44.19014" lon="3.1918">
        <ele>646.8</ele>
        <time>2021-09-30T14:41:40Z</time>
      </trkpt>
      <trkpt lat="44.19015" lon="3.19184">
        <ele>646.7</ele>
        <time>2021-09-30T14:41:41Z</time>
      </trkpt>
      <trkpt lat="44.19018" lon="3.19187">
        <ele>646.4</ele>
        <time>2021-09-30T14:41:42Z</time>
      </trkpt>
      <trkpt lat="44.19029" lon="3.192">
        <ele>645.7</ele>
        <time>2021-09-30T14:41:44Z</time>
      </trkpt>
      <trkpt lat="44.19036" lon="3.19211">
        <ele>645.3</ele>
        <time>2021-09-30T14:41:46Z</time>
      </trkpt>
      <trkpt lat="44.19037" lon="3.19214">
        <ele>645.1</ele>
        <time>2021-09-30T14:41:47Z</time>
      </trkpt>
      <trkpt lat="44.19038" lon="3.19222">
        <ele>644.8</ele>
        <time>2021-09-30T14:41:49Z</time>
      </trkpt>
      <trkpt lat="44.19037" lon="3.19229">
        <ele>644.4</ele>
        <time>2021-09-30T14:41:50Z</time>
      </trkpt>
      <trkpt lat="44.19035" lon="3.19236">
        <ele>643.8</ele>
        <time>2021-09-30T14:41:51Z</time>
      </trkpt>
      <trkpt lat="44.19026" lon="3.19247">
        <ele>642.2</ele>
        <time>2021-09-30T14:41:53Z</time>
      </trkpt>
      <trkpt lat="44.19023" lon="3.19251">
        <ele>641.6</ele>
        <time>2021-09-30T14:41:54Z</time>
      </trkpt>
      <trkpt lat="44.19015" lon="3.19258">
        <ele>640.5</ele>
        <time>2021-09-30T14:41:56Z</time>
      </trkpt>
      <trkpt lat="44.19008" lon="3.19268">
        <ele>639</ele>
        <time>2021-09-30T14:41:58Z</time>
      </trkpt>
      <trkpt lat="44.19004" lon="3.19274">
        <ele>638.2</ele>
        <time>2021-09-30T14:41:59Z</time>
      </trkpt>
      <trkpt lat="44.19003" lon="3.19277">
        <ele>637.8</ele>
        <time>2021-09-30T14:42:00Z</time>
      </trkpt>
      <trkpt lat="44.19001" lon="3.19279">
        <ele>637.5</ele>
        <time>2021-09-30T14:42:01Z</time>
      </trkpt>
      <trkpt lat="44.18999" lon="3.19282">
        <ele>637</ele>
        <time>2021-09-30T14:42:02Z</time>
      </trkpt>
      <trkpt lat="44.1899" lon="3.19294">
        <ele>635.3</ele>
        <time>2021-09-30T14:42:04Z</time>
      </trkpt>
      <trkpt lat="44.1898" lon="3.19306">
        <ele>633.4</ele>
        <time>2021-09-30T14:42:06Z</time>
      </trkpt>
      <trkpt lat="44.18977" lon="3.19313">
        <ele>632.4</ele>
        <time>2021-09-30T14:42:07Z</time>
      </trkpt>
      <trkpt lat="44.18975" lon="3.1932">
        <ele>631.2</ele>
        <time>2021-09-30T14:42:08Z</time>
      </trkpt>
      <trkpt lat="44.18968" lon="3.19336">
        <ele>628</ele>
        <time>2021-09-30T14:42:10Z</time>
      </trkpt>
      <trkpt lat="44.18966" lon="3.19345">
        <ele>626.3</ele>
        <time>2021-09-30T14:42:11Z</time>
      </trkpt>
      <trkpt lat="44.18964" lon="3.19355">
        <ele>624.5</ele>
        <time>2021-09-30T14:42:13Z</time>
      </trkpt>
      <trkpt lat="44.18964" lon="3.19359">
        <ele>623.8</ele>
        <time>2021-09-30T14:42:15Z</time>
      </trkpt>
      <trkpt lat="44.18963" lon="3.19365">
        <ele>623</ele>
        <time>2021-09-30T14:42:16Z</time>
      </trkpt>
      <trkpt lat="44.18961" lon="3.1937">
        <ele>622.2</ele>
        <time>2021-09-30T14:42:18Z</time>
      </trkpt>
      <trkpt lat="44.18959" lon="3.19374">
        <ele>621.8</ele>
        <time>2021-09-30T14:42:19Z</time>
      </trkpt>
      <trkpt lat="44.18956" lon="3.19381">
        <ele>620.9</ele>
        <time>2021-09-30T14:42:20Z</time>
      </trkpt>
      <trkpt lat="44.18955" lon="3.19386">
        <ele>620.2</ele>
        <time>2021-09-30T14:42:21Z</time>
      </trkpt>
      <trkpt lat="44.18957" lon="3.19393">
        <ele>619.2</ele>
        <time>2021-09-30T14:42:23Z</time>
      </trkpt>
      <trkpt lat="44.18961" lon="3.19401">
        <ele>617.6</ele>
        <time>2021-09-30T14:42:25Z</time>
      </trkpt>
      <trkpt lat="44.18963" lon="3.19406">
        <ele>616.7</ele>
        <time>2021-09-30T14:42:26Z</time>
      </trkpt>
      <trkpt lat="44.18964" lon="3.19411">
        <ele>615.7</ele>
        <time>2021-09-30T14:42:27Z</time>
      </trkpt>
      <trkpt lat="44.18966" lon="3.19419">
        <ele>614.4</ele>
        <time>2021-09-30T14:42:28Z</time>
      </trkpt>
      <trkpt lat="44.18964" lon="3.19425">
        <ele>613.3</ele>
        <time>2021-09-30T14:42:29Z</time>
      </trkpt>
      <trkpt lat="44.18961" lon="3.19432">
        <ele>611.9</ele>
        <time>2021-09-30T14:42:31Z</time>
      </trkpt>
      <trkpt lat="44.18959" lon="3.19442">
        <ele>610.4</ele>
        <time>2021-09-30T14:42:32Z</time>
      </trkpt>
      <trkpt lat="44.18959" lon="3.19463">
        <ele>607.4</ele>
        <time>2021-09-30T14:42:34Z</time>
      </trkpt>
      <trkpt lat="44.18959" lon="3.19482">
        <ele>605</ele>
        <time>2021-09-30T14:42:36Z</time>
      </trkpt>
      <trkpt lat="44.18959" lon="3.19491">
        <ele>604.1</ele>
        <time>2021-09-30T14:42:37Z</time>
      </trkpt>
      <trkpt lat="44.18959" lon="3.19508">
        <ele>602.3</ele>
        <time>2021-09-30T14:42:39Z</time>
      </trkpt>
      <trkpt lat="44.18959" lon="3.19517">
        <ele>601.5</ele>
        <time>2021-09-30T14:42:40Z</time>
      </trkpt>
      <trkpt lat="44.1896" lon="3.19533">
        <ele>599.9</ele>
        <time>2021-09-30T14:42:42Z</time>
      </trkpt>
      <trkpt lat="44.1896" lon="3.19542">
        <ele>599.1</ele>
        <time>2021-09-30T14:42:43Z</time>
      </trkpt>
      <trkpt lat="44.18962" lon="3.19558">
        <ele>597.4</ele>
        <time>2021-09-30T14:42:45Z</time>
      </trkpt>
      <trkpt lat="44.18963" lon="3.19566">
        <ele>596.5</ele>
        <time>2021-09-30T14:42:46Z</time>
      </trkpt>
      <trkpt lat="44.18966" lon="3.1958">
        <ele>594.7</ele>
        <time>2021-09-30T14:42:48Z</time>
      </trkpt>
      <trkpt lat="44.18967" lon="3.19588">
        <ele>593.7</ele>
        <time>2021-09-30T14:42:49Z</time>
      </trkpt>
      <trkpt lat="44.18966" lon="3.19597">
        <ele>592.7</ele>
        <time>2021-09-30T14:42:51Z</time>
      </trkpt>
      <trkpt lat="44.18967" lon="3.1961">
        <ele>591.3</ele>
        <time>2021-09-30T14:42:53Z</time>
      </trkpt>
      <trkpt lat="44.18969" lon="3.19625">
        <ele>589.9</ele>
        <time>2021-09-30T14:42:55Z</time>
      </trkpt>
      <trkpt lat="44.18971" lon="3.19641">
        <ele>588.7</ele>
        <time>2021-09-30T14:42:57Z</time>
      </trkpt>
      <trkpt lat="44.18973" lon="3.19653">
        <ele>587.9</ele>
        <time>2021-09-30T14:42:59Z</time>
      </trkpt>
      <trkpt lat="44.18971" lon="3.19657">
        <ele>587.5</ele>
        <time>2021-09-30T14:43:00Z</time>
      </trkpt>
      <trkpt lat="44.18971" lon="3.1966">
        <ele>587.4</ele>
        <time>2021-09-30T14:43:01Z</time>
      </trkpt>
      <trkpt lat="44.18973" lon="3.19671">
        <ele>586.7</ele>
        <time>2021-09-30T14:43:03Z</time>
      </trkpt>
      <trkpt lat="44.18971" lon="3.19677">
        <ele>586.4</ele>
        <time>2021-09-30T14:43:04Z</time>
      </trkpt>
      <trkpt lat="44.18971" lon="3.19683">
        <ele>586.2</ele>
        <time>2021-09-30T14:43:05Z</time>
      </trkpt>
      <trkpt lat="44.18971" lon="3.19686">
        <ele>586.2</ele>
        <time>2021-09-30T14:43:06Z</time>
      </trkpt>
      <trkpt lat="44.18971" lon="3.19692">
        <ele>586.1</ele>
        <time>2021-09-30T14:43:08Z</time>
      </trkpt>
      <trkpt lat="44.1897" lon="3.19698">
        <ele>586</ele>
        <time>2021-09-30T14:43:09Z</time>
      </trkpt>
      <trkpt lat="44.1897" lon="3.197">
        <ele>586</ele>
        <time>2021-09-30T14:43:10Z</time>
      </trkpt>
      <trkpt lat="44.18969" lon="3.19704">
        <ele>585.9</ele>
        <time>2021-09-30T14:43:11Z</time>
      </trkpt>
      <trkpt lat="44.18968" lon="3.19709">
        <ele>585.8</ele>
        <time>2021-09-30T14:43:13Z</time>
      </trkpt>
      <trkpt lat="44.18965" lon="3.19714">
        <ele>585.5</ele>
        <time>2021-09-30T14:43:15Z</time>
      </trkpt>
      <trkpt lat="44.18964" lon="3.19719">
        <ele>585.3</ele>
        <time>2021-09-30T14:43:16Z</time>
      </trkpt>
      <trkpt lat="44.18961" lon="3.19732">
        <ele>584.1</ele>
        <time>2021-09-30T14:43:18Z</time>
      </trkpt>
      <trkpt lat="44.1896" lon="3.19739">
        <ele>583.4</ele>
        <time>2021-09-30T14:43:19Z</time>
      </trkpt>
      <trkpt lat="44.18959" lon="3.19747">
        <ele>582.5</ele>
        <time>2021-09-30T14:43:20Z</time>
      </trkpt>
      <trkpt lat="44.18955" lon="3.19758">
        <ele>581.2</ele>
        <time>2021-09-30T14:43:22Z</time>
      </trkpt>
      <trkpt lat="44.18954" lon="3.19765">
        <ele>580.5</ele>
        <time>2021-09-30T14:43:23Z</time>
      </trkpt>
      <trkpt lat="44.18952" lon="3.19779">
        <ele>579.2</ele>
        <time>2021-09-30T14:43:25Z</time>
      </trkpt>
      <trkpt lat="44.18952" lon="3.19784">
        <ele>578.7</ele>
        <time>2021-09-30T14:43:26Z</time>
      </trkpt>
      <trkpt lat="44.18952" lon="3.19786">
        <ele>578.5</ele>
        <time>2021-09-30T14:43:27Z</time>
      </trkpt>
      <trkpt lat="44.18954" lon="3.19792">
        <ele>577.9</ele>
        <time>2021-09-30T14:43:29Z</time>
      </trkpt>
      <trkpt lat="44.18957" lon="3.198">
        <ele>577.2</ele>
        <time>2021-09-30T14:43:30Z</time>
      </trkpt>
      <trkpt lat="44.18959" lon="3.19805">
        <ele>576.8</ele>
        <time>2021-09-30T14:43:32Z</time>
      </trkpt>
      <trkpt lat="44.18961" lon="3.19811">
        <ele>576.4</ele>
        <time>2021-09-30T14:43:33Z</time>
      </trkpt>
      <trkpt lat="44.18964" lon="3.19817">
        <ele>576.1</ele>
        <time>2021-09-30T14:43:35Z</time>
      </trkpt>
      <trkpt lat="44.18966" lon="3.19822">
        <ele>575.9</ele>
        <time>2021-09-30T14:43:36Z</time>
      </trkpt>
      <trkpt lat="44.18967" lon="3.19826">
        <ele>575.8</ele>
        <time>2021-09-30T14:43:37Z</time>
      </trkpt>
      <trkpt lat="44.18968" lon="3.19831">
        <ele>575.7</ele>
        <time>2021-09-30T14:43:38Z</time>
      </trkpt>
      <trkpt lat="44.18969" lon="3.19837">
        <ele>575.6</ele>
        <time>2021-09-30T14:43:39Z</time>
      </trkpt>
      <trkpt lat="44.18971" lon="3.19846">
        <ele>575.4</ele>
        <time>2021-09-30T14:43:41Z</time>
      </trkpt>
      <trkpt lat="44.18972" lon="3.19855">
        <ele>575.2</ele>
        <time>2021-09-30T14:43:42Z</time>
      </trkpt>
      <trkpt lat="44.18972" lon="3.19863">
        <ele>575.1</ele>
        <time>2021-09-30T14:43:43Z</time>
      </trkpt>
      <trkpt lat="44.18972" lon="3.1987">
        <ele>575</ele>
        <time>2021-09-30T14:43:45Z</time>
      </trkpt>
      <trkpt lat="44.18973" lon="3.19879">
        <ele>575</ele>
        <time>2021-09-30T14:43:46Z</time>
      </trkpt>
      <trkpt lat="44.18973" lon="3.19887">
        <ele>575</ele>
        <time>2021-09-30T14:43:48Z</time>
      </trkpt>
      <trkpt lat="44.18975" lon="3.19894">
        <ele>575.1</ele>
        <time>2021-09-30T14:43:49Z</time>
      </trkpt>
      <trkpt lat="44.18975" lon="3.19902">
        <ele>575.1</ele>
        <time>2021-09-30T14:43:50Z</time>
      </trkpt>
      <trkpt lat="44.18976" lon="3.19916">
        <ele>575</ele>
        <time>2021-09-30T14:43:52Z</time>
      </trkpt>
      <trkpt lat="44.18977" lon="3.19932">
        <ele>574.5</ele>
        <time>2021-09-30T14:43:53Z</time>
      </trkpt>
      <trkpt lat="44.18979" lon="3.19939">
        <ele>574.3</ele>
        <time>2021-09-30T14:43:54Z</time>
      </trkpt>
      <trkpt lat="44.1898" lon="3.19957">
        <ele>573.5</ele>
        <time>2021-09-30T14:43:56Z</time>
      </trkpt>
      <trkpt lat="44.18978" lon="3.19962">
        <ele>573.2</ele>
        <time>2021-09-30T14:43:57Z</time>
      </trkpt>
      <trkpt lat="44.18977" lon="3.19975">
        <ele>572.2</ele>
        <time>2021-09-30T14:43:59Z</time>
      </trkpt>
      <trkpt lat="44.18978" lon="3.19981">
        <ele>571.7</ele>
        <time>2021-09-30T14:44:00Z</time>
      </trkpt>
      <trkpt lat="44.18971" lon="3.19995">
        <ele>569.6</ele>
        <time>2021-09-30T14:44:02Z</time>
      </trkpt>
      <trkpt lat="44.18957" lon="3.20005">
        <ele>566.6</ele>
        <time>2021-09-30T14:44:04Z</time>
      </trkpt>
      <trkpt lat="44.18946" lon="3.20013">
        <ele>564.2</ele>
        <time>2021-09-30T14:44:06Z</time>
      </trkpt>
      <trkpt lat="44.18943" lon="3.2002">
        <ele>563</ele>
        <time>2021-09-30T14:44:07Z</time>
      </trkpt>
      <trkpt lat="44.18942" lon="3.20037">
        <ele>560.5</ele>
        <time>2021-09-30T14:44:09Z</time>
      </trkpt>
      <trkpt lat="44.18939" lon="3.20044">
        <ele>559.3</ele>
        <time>2021-09-30T14:44:11Z</time>
      </trkpt>
      <trkpt lat="44.1894" lon="3.2005">
        <ele>558.4</ele>
        <time>2021-09-30T14:44:12Z</time>
      </trkpt>
      <trkpt lat="44.18941" lon="3.20059">
        <ele>556.9</ele>
        <time>2021-09-30T14:44:14Z</time>
      </trkpt>
      <trkpt lat="44.1894" lon="3.20066">
        <ele>555.7</ele>
        <time>2021-09-30T14:44:15Z</time>
      </trkpt>
      <trkpt lat="44.1894" lon="3.20074">
        <ele>552.4</ele>
        <time>2021-09-30T14:44:16Z</time>
      </trkpt>
      <trkpt lat="44.18942" lon="3.20077">
        <ele>551</ele>
        <time>2021-09-30T14:44:18Z</time>
      </trkpt>
      <trkpt lat="44.18945" lon="3.20078">
        <ele>549.7</ele>
        <time>2021-09-30T14:44:19Z</time>
      </trkpt>
      <trkpt lat="44.18951" lon="3.20077">
        <ele>547.4</ele>
        <time>2021-09-30T14:44:20Z</time>
      </trkpt>
      <trkpt lat="44.18954" lon="3.20076">
        <ele>545.9</ele>
        <time>2021-09-30T14:44:22Z</time>
      </trkpt>
      <trkpt lat="44.18958" lon="3.20077">
        <ele>544.5</ele>
        <time>2021-09-30T14:44:24Z</time>
      </trkpt>
      <trkpt lat="44.18959" lon="3.20079">
        <ele>543.8</ele>
        <time>2021-09-30T14:44:25Z</time>
      </trkpt>
      <trkpt lat="44.18959" lon="3.20082">
        <ele>543.1</ele>
        <time>2021-09-30T14:44:26Z</time>
      </trkpt>
      <trkpt lat="44.18957" lon="3.20085">
        <ele>542.1</ele>
        <time>2021-09-30T14:44:28Z</time>
      </trkpt>
      <trkpt lat="44.18952" lon="3.20092">
        <ele>540</ele>
        <time>2021-09-30T14:44:30Z</time>
      </trkpt>
      <trkpt lat="44.18948" lon="3.20096">
        <ele>538.3</ele>
        <time>2021-09-30T14:44:31Z</time>
      </trkpt>
      <trkpt lat="44.18944" lon="3.20103">
        <ele>536.4</ele>
        <time>2021-09-30T14:44:32Z</time>
      </trkpt>
      <trkpt lat="44.18941" lon="3.20108">
        <ele>534.9</ele>
        <time>2021-09-30T14:44:33Z</time>
      </trkpt>
      <trkpt lat="44.18934" lon="3.20116">
        <ele>532.4</ele>
        <time>2021-09-30T14:44:35Z</time>
      </trkpt>
      <trkpt lat="44.18929" lon="3.20121">
        <ele>530.8</ele>
        <time>2021-09-30T14:44:37Z</time>
      </trkpt>
      <trkpt lat="44.18926" lon="3.20127">
        <ele>529.2</ele>
        <time>2021-09-30T14:44:38Z</time>
      </trkpt>
      <trkpt lat="44.18924" lon="3.20137">
        <ele>527.2</ele>
        <time>2021-09-30T14:44:40Z</time>
      </trkpt>
      <trkpt lat="44.18923" lon="3.20145">
        <ele>525.6</ele>
        <time>2021-09-30T14:44:41Z</time>
      </trkpt>
      <trkpt lat="44.18919" lon="3.20163">
        <ele>522</ele>
        <time>2021-09-30T14:44:43Z</time>
      </trkpt>
      <trkpt lat="44.18918" lon="3.20172">
        <ele>520.3</ele>
        <time>2021-09-30T14:44:44Z</time>
      </trkpt>
      <trkpt lat="44.18918" lon="3.20179">
        <ele>519</ele>
        <time>2021-09-30T14:44:45Z</time>
      </trkpt>
      <trkpt lat="44.18912" lon="3.20188">
        <ele>516.4</ele>
        <time>2021-09-30T14:44:47Z</time>
      </trkpt>
      <trkpt lat="44.18907" lon="3.20205">
        <ele>512.5</ele>
        <time>2021-09-30T14:44:49Z</time>
      </trkpt>
      <trkpt lat="44.18904" lon="3.20221">
        <ele>508.8</ele>
        <time>2021-09-30T14:44:51Z</time>
      </trkpt>
      <trkpt lat="44.18904" lon="3.2023">
        <ele>506.8</ele>
        <time>2021-09-30T14:44:52Z</time>
      </trkpt>
      <trkpt lat="44.18903" lon="3.20243">
        <ele>504.3</ele>
        <time>2021-09-30T14:44:54Z</time>
      </trkpt>
      <trkpt lat="44.189" lon="3.20247">
        <ele>503.4</ele>
        <time>2021-09-30T14:44:55Z</time>
      </trkpt>
      <trkpt lat="44.18898" lon="3.20251">
        <ele>502.4</ele>
        <time>2021-09-30T14:44:56Z</time>
      </trkpt>
      <trkpt lat="44.18895" lon="3.20256">
        <ele>501.5</ele>
        <time>2021-09-30T14:44:57Z</time>
      </trkpt>
      <trkpt lat="44.18892" lon="3.20261">
        <ele>500.3</ele>
        <time>2021-09-30T14:44:58Z</time>
      </trkpt>
      <trkpt lat="44.18887" lon="3.20267">
        <ele>498.9</ele>
        <time>2021-09-30T14:45:00Z</time>
      </trkpt>
      <trkpt lat="44.18884" lon="3.20273">
        <ele>497.7</ele>
        <time>2021-09-30T14:45:01Z</time>
      </trkpt>
      <trkpt lat="44.18881" lon="3.20279">
        <ele>496.6</ele>
        <time>2021-09-30T14:45:02Z</time>
      </trkpt>
      <trkpt lat="44.18878" lon="3.20284">
        <ele>495.7</ele>
        <time>2021-09-30T14:45:04Z</time>
      </trkpt>
      <trkpt lat="44.18876" lon="3.20289">
        <ele>494.8</ele>
        <time>2021-09-30T14:45:05Z</time>
      </trkpt>
      <trkpt lat="44.18876" lon="3.20301">
        <ele>493.1</ele>
        <time>2021-09-30T14:45:06Z</time>
      </trkpt>
      <trkpt lat="44.18879" lon="3.20318">
        <ele>490.5</ele>
        <time>2021-09-30T14:45:08Z</time>
      </trkpt>
      <trkpt lat="44.18879" lon="3.20331">
        <ele>488.5</ele>
        <time>2021-09-30T14:45:10Z</time>
      </trkpt>
      <trkpt lat="44.18878" lon="3.20335">
        <ele>488</ele>
        <time>2021-09-30T14:45:11Z</time>
      </trkpt>
      <trkpt lat="44.18876" lon="3.20342">
        <ele>487.2</ele>
        <time>2021-09-30T14:45:12Z</time>
      </trkpt>
      <trkpt lat="44.18875" lon="3.20358">
        <ele>485.1</ele>
        <time>2021-09-30T14:45:14Z</time>
      </trkpt>
      <trkpt lat="44.18875" lon="3.20365">
        <ele>484.3</ele>
        <time>2021-09-30T14:45:15Z</time>
      </trkpt>
      <trkpt lat="44.18875" lon="3.20369">
        <ele>483.7</ele>
        <time>2021-09-30T14:45:16Z</time>
      </trkpt>
      <trkpt lat="44.18875" lon="3.20372">
        <ele>483.5</ele>
        <time>2021-09-30T14:45:17Z</time>
      </trkpt>
      <trkpt lat="44.18876" lon="3.20382">
        <ele>482.2</ele>
        <time>2021-09-30T14:45:18Z</time>
      </trkpt>
      <trkpt lat="44.18881" lon="3.20401">
        <ele>480.3</ele>
        <time>2021-09-30T14:45:20Z</time>
      </trkpt>
      <trkpt lat="44.18883" lon="3.20413">
        <ele>479.2</ele>
        <time>2021-09-30T14:45:22Z</time>
      </trkpt>
      <trkpt lat="44.18885" lon="3.20418">
        <ele>478.7</ele>
        <time>2021-09-30T14:45:23Z</time>
      </trkpt>
      <trkpt lat="44.18886" lon="3.20424">
        <ele>478</ele>
        <time>2021-09-30T14:45:24Z</time>
      </trkpt>
      <trkpt lat="44.18887" lon="3.2043">
        <ele>477.1</ele>
        <time>2021-09-30T14:45:26Z</time>
      </trkpt>
      <trkpt lat="44.18888" lon="3.20436">
        <ele>476.2</ele>
        <time>2021-09-30T14:45:27Z</time>
      </trkpt>
      <trkpt lat="44.1889" lon="3.20449">
        <ele>474.2</ele>
        <time>2021-09-30T14:45:29Z</time>
      </trkpt>
      <trkpt lat="44.18891" lon="3.20459">
        <ele>472.5</ele>
        <time>2021-09-30T14:45:31Z</time>
      </trkpt>
      <trkpt lat="44.1889" lon="3.20465">
        <ele>471.4</ele>
        <time>2021-09-30T14:45:32Z</time>
      </trkpt>
      <trkpt lat="44.18889" lon="3.2047">
        <ele>470.4</ele>
        <time>2021-09-30T14:45:33Z</time>
      </trkpt>
      <trkpt lat="44.18889" lon="3.20476">
        <ele>469.3</ele>
        <time>2021-09-30T14:45:34Z</time>
      </trkpt>
      <trkpt lat="44.18889" lon="3.20481">
        <ele>468.4</ele>
        <time>2021-09-30T14:45:35Z</time>
      </trkpt>
      <trkpt lat="44.18889" lon="3.20486">
        <ele>467.3</ele>
        <time>2021-09-30T14:45:36Z</time>
      </trkpt>
      <trkpt lat="44.18891" lon="3.20493">
        <ele>465.8</ele>
        <time>2021-09-30T14:45:38Z</time>
      </trkpt>
      <trkpt lat="44.18892" lon="3.20499">
        <ele>464.7</ele>
        <time>2021-09-30T14:45:40Z</time>
      </trkpt>
      <trkpt lat="44.18892" lon="3.20503">
        <ele>463.9</ele>
        <time>2021-09-30T14:45:41Z</time>
      </trkpt>
      <trkpt lat="44.18891" lon="3.20508">
        <ele>463</ele>
        <time>2021-09-30T14:45:42Z</time>
      </trkpt>
      <trkpt lat="44.18892" lon="3.20514">
        <ele>461.9</ele>
        <time>2021-09-30T14:45:44Z</time>
      </trkpt>
      <trkpt lat="44.18894" lon="3.2052">
        <ele>460.9</ele>
        <time>2021-09-30T14:45:45Z</time>
      </trkpt>
      <trkpt lat="44.18893" lon="3.20522">
        <ele>460.4</ele>
        <time>2021-09-30T14:45:46Z</time>
      </trkpt>
      <trkpt lat="44.18893" lon="3.20527">
        <ele>459.4</ele>
        <time>2021-09-30T14:45:47Z</time>
      </trkpt>
      <trkpt lat="44.18893" lon="3.20533">
        <ele>458.3</ele>
        <time>2021-09-30T14:45:49Z</time>
      </trkpt>
      <trkpt lat="44.18894" lon="3.20537">
        <ele>457.5</ele>
        <time>2021-09-30T14:45:51Z</time>
      </trkpt>
      <trkpt lat="44.18897" lon="3.20537">
        <ele>456.7</ele>
        <time>2021-09-30T14:45:52Z</time>
      </trkpt>
      <trkpt lat="44.18899" lon="3.2054">
        <ele>455.8</ele>
        <time>2021-09-30T14:45:53Z</time>
      </trkpt>
      <trkpt lat="44.18902" lon="3.20544">
        <ele>454.6</ele>
        <time>2021-09-30T14:45:54Z</time>
      </trkpt>
      <trkpt lat="44.18904" lon="3.20549">
        <ele>453.5</ele>
        <time>2021-09-30T14:45:56Z</time>
      </trkpt>
      <trkpt lat="44.18906" lon="3.20556">
        <ele>451.9</ele>
        <time>2021-09-30T14:45:57Z</time>
      </trkpt>
      <trkpt lat="44.18908" lon="3.2056">
        <ele>450.7</ele>
        <time>2021-09-30T14:45:58Z</time>
      </trkpt>
      <trkpt lat="44.1891" lon="3.20563">
        <ele>449.9</ele>
        <time>2021-09-30T14:45:59Z</time>
      </trkpt>
      <trkpt lat="44.18912" lon="3.20568">
        <ele>448.8</ele>
        <time>2021-09-30T14:46:01Z</time>
      </trkpt>
      <trkpt lat="44.18913" lon="3.20574">
        <ele>447.8</ele>
        <time>2021-09-30T14:46:02Z</time>
      </trkpt>
      <trkpt lat="44.18914" lon="3.20584">
        <ele>446.3</ele>
        <time>2021-09-30T14:46:03Z</time>
      </trkpt>
      <trkpt lat="44.18913" lon="3.20593">
        <ele>445.2</ele>
        <time>2021-09-30T14:46:04Z</time>
      </trkpt>
      <trkpt lat="44.18913" lon="3.20604">
        <ele>444.1</ele>
        <time>2021-09-30T14:46:05Z</time>
      </trkpt>
      <trkpt lat="44.18912" lon="3.20622">
        <ele>441.7</ele>
        <time>2021-09-30T14:46:07Z</time>
      </trkpt>
      <trkpt lat="44.18912" lon="3.2063">
        <ele>440.5</ele>
        <time>2021-09-30T14:46:08Z</time>
      </trkpt>
      <trkpt lat="44.18912" lon="3.20638">
        <ele>439.2</ele>
        <time>2021-09-30T14:46:10Z</time>
      </trkpt>
      <trkpt lat="44.18913" lon="3.20642">
        <ele>438.2</ele>
        <time>2021-09-30T14:46:11Z</time>
      </trkpt>
      <trkpt lat="44.18913" lon="3.20647">
        <ele>437.2</ele>
        <time>2021-09-30T14:46:12Z</time>
      </trkpt>
      <trkpt lat="44.18914" lon="3.20653">
        <ele>436</ele>
        <time>2021-09-30T14:46:14Z</time>
      </trkpt>
      <trkpt lat="44.18914" lon="3.20655">
        <ele>435.6</ele>
        <time>2021-09-30T14:46:15Z</time>
      </trkpt>
      <trkpt lat="44.18915" lon="3.20657">
        <ele>435.1</ele>
        <time>2021-09-30T14:46:16Z</time>
      </trkpt>
      <trkpt lat="44.18918" lon="3.20659">
        <ele>426</ele>
        <time>2021-09-30T14:46:17Z</time>
      </trkpt>
      <trkpt lat="44.18921" lon="3.20658">
        <ele>424.7</ele>
        <time>2021-09-30T14:46:18Z</time>
      </trkpt>
      <trkpt lat="44.18924" lon="3.20657">
        <ele>423.8</ele>
        <time>2021-09-30T14:46:20Z</time>
      </trkpt>
      <trkpt lat="44.18926" lon="3.20656">
        <ele>423</ele>
        <time>2021-09-30T14:46:21Z</time>
      </trkpt>
      <trkpt lat="44.18928" lon="3.20655">
        <ele>422.1</ele>
        <time>2021-09-30T14:46:23Z</time>
      </trkpt>
      <trkpt lat="44.18927" lon="3.20658">
        <ele>421.1</ele>
        <time>2021-09-30T14:46:24Z</time>
      </trkpt>
      <trkpt lat="44.18926" lon="3.20661">
        <ele>420.5</ele>
        <time>2021-09-30T14:46:25Z</time>
      </trkpt>
      <trkpt lat="44.18926" lon="3.20663">
        <ele>419.9</ele>
        <time>2021-09-30T14:46:26Z</time>
      </trkpt>
      <trkpt lat="44.18926" lon="3.20666">
        <ele>419.3</ele>
        <time>2021-09-30T14:46:28Z</time>
      </trkpt>
      <trkpt lat="44.18926" lon="3.20668">
        <ele>418.7</ele>
        <time>2021-09-30T14:46:29Z</time>
      </trkpt>
      <trkpt lat="44.18926" lon="3.20671">
        <ele>418.2</ele>
        <time>2021-09-30T14:46:31Z</time>
      </trkpt>
      <trkpt lat="44.18926" lon="3.20673">
        <ele>417.6</ele>
        <time>2021-09-30T14:46:33Z</time>
      </trkpt>
      <trkpt lat="44.18926" lon="3.20676">
        <ele>417</ele>
        <time>2021-09-30T14:48:23Z</time>
      </trkpt>
      <trkpt lat="44.18926" lon="3.20678">
        <ele>416.5</ele>
        <time>2021-09-30T14:48:24Z</time>
      </trkpt>
      <trkpt lat="44.18924" lon="3.20683">
        <ele>415.3</ele>
        <time>2021-09-30T14:48:26Z</time>
      </trkpt>
      <trkpt lat="44.18923" lon="3.20686">
        <ele>414.4</ele>
        <time>2021-09-30T14:48:27Z</time>
      </trkpt>
      <trkpt lat="44.1892" lon="3.2069">
        <ele>414.7</ele>
        <time>2021-09-30T14:48:29Z</time>
      </trkpt>
      <trkpt lat="44.18919" lon="3.20692">
        <ele>414.8</ele>
        <time>2021-09-30T14:48:30Z</time>
      </trkpt>
      <trkpt lat="44.18916" lon="3.20697">
        <ele>415.1</ele>
        <time>2021-09-30T14:48:32Z</time>
      </trkpt>
      <trkpt lat="44.18914" lon="3.20702">
        <ele>415.2</ele>
        <time>2021-09-30T14:48:33Z</time>
      </trkpt>
      <trkpt lat="44.18912" lon="3.20708">
        <ele>415.3</ele>
        <time>2021-09-30T14:48:35Z</time>
      </trkpt>
      <trkpt lat="44.18912" lon="3.20715">
        <ele>415.5</ele>
        <time>2021-09-30T14:48:37Z</time>
      </trkpt>
      <trkpt lat="44.18911" lon="3.20721">
        <ele>415.8</ele>
        <time>2021-09-30T14:48:38Z</time>
      </trkpt>
      <trkpt lat="44.1891" lon="3.20727">
        <ele>416.2</ele>
        <time>2021-09-30T14:48:39Z</time>
      </trkpt>
      <trkpt lat="44.18909" lon="3.2073">
        <ele>416.5</ele>
        <time>2021-09-30T14:48:40Z</time>
      </trkpt>
      <trkpt lat="44.18907" lon="3.20733">
        <ele>417</ele>
        <time>2021-09-30T14:48:42Z</time>
      </trkpt>
      <trkpt lat="44.18905" lon="3.20737">
        <ele>417.5</ele>
        <time>2021-09-30T14:48:43Z</time>
      </trkpt>
      <trkpt lat="44.18904" lon="3.2074">
        <ele>417.8</ele>
        <time>2021-09-30T14:48:45Z</time>
      </trkpt>
      <trkpt lat="44.18901" lon="3.20745">
        <ele>417.8</ele>
        <time>2021-09-30T14:48:47Z</time>
      </trkpt>
      <trkpt lat="44.189" lon="3.20749">
        <ele>417.8</ele>
        <time>2021-09-30T14:48:48Z</time>
      </trkpt>
      <trkpt lat="44.18897" lon="3.20754">
        <ele>417.6</ele>
        <time>2021-09-30T14:48:50Z</time>
      </trkpt>
      <trkpt lat="44.18896" lon="3.20757">
        <ele>417.6</ele>
        <time>2021-09-30T14:48:51Z</time>
      </trkpt>
      <trkpt lat="44.18893" lon="3.20762">
        <ele>417.5</ele>
        <time>2021-09-30T14:48:53Z</time>
      </trkpt>
      <trkpt lat="44.18892" lon="3.20766">
        <ele>417.4</ele>
        <time>2021-09-30T14:48:54Z</time>
      </trkpt>
      <trkpt lat="44.18891" lon="3.20768">
        <ele>417.4</ele>
        <time>2021-09-30T14:48:55Z</time>
      </trkpt>
      <trkpt lat="44.18891" lon="3.2077">
        <ele>417.3</ele>
        <time>2021-09-30T14:48:56Z</time>
      </trkpt>
      <trkpt lat="44.18891" lon="3.20776">
        <ele>417.9</ele>
        <time>2021-09-30T14:48:58Z</time>
      </trkpt>
      <trkpt lat="44.1889" lon="3.20779">
        <ele>418.2</ele>
        <time>2021-09-30T14:48:59Z</time>
      </trkpt>
      <trkpt lat="44.1889" lon="3.20781">
        <ele>418.5</ele>
        <time>2021-09-30T14:49:00Z</time>
      </trkpt>
      <trkpt lat="44.1889" lon="3.20785">
        <ele>418.8</ele>
        <time>2021-09-30T14:49:02Z</time>
      </trkpt>
      <trkpt lat="44.18891" lon="3.20784">
        <ele>418.9</ele>
        <time>2021-09-30T14:49:04Z</time>
      </trkpt>
      <trkpt lat="44.18891" lon="3.20783">
        <ele>419.1</ele>
        <time>2021-09-30T14:49:06Z</time>
      </trkpt>
      <trkpt lat="44.18892" lon="3.20783">
        <ele>419.2</ele>
        <time>2021-09-30T14:49:07Z</time>
      </trkpt>
      <trkpt lat="44.1889" lon="3.20789">
        <ele>420</ele>
        <time>2021-09-30T14:49:09Z</time>
      </trkpt>
      <trkpt lat="44.18885" lon="3.20795">
        <ele>420.9</ele>
        <time>2021-09-30T14:49:11Z</time>
      </trkpt>
      <trkpt lat="44.18883" lon="3.20798">
        <ele>421.4</ele>
        <time>2021-09-30T14:49:12Z</time>
      </trkpt>
      <trkpt lat="44.18881" lon="3.20802">
        <ele>421.9</ele>
        <time>2021-09-30T14:49:13Z</time>
      </trkpt>
      <trkpt lat="44.18877" lon="3.20807">
        <ele>422.7</ele>
        <time>2021-09-30T14:49:15Z</time>
      </trkpt>
      <trkpt lat="44.18875" lon="3.20811">
        <ele>423.3</ele>
        <time>2021-09-30T14:49:16Z</time>
      </trkpt>
      <trkpt lat="44.18872" lon="3.20818">
        <ele>424.3</ele>
        <time>2021-09-30T14:49:18Z</time>
      </trkpt>
      <trkpt lat="44.18871" lon="3.20824">
        <ele>425</ele>
        <time>2021-09-30T14:49:19Z</time>
      </trkpt>
      <trkpt lat="44.18871" lon="3.20831">
        <ele>425.8</ele>
        <time>2021-09-30T14:49:20Z</time>
      </trkpt>
      <trkpt lat="44.18872" lon="3.2084">
        <ele>427</ele>
        <time>2021-09-30T14:49:21Z</time>
      </trkpt>
      <trkpt lat="44.18877" lon="3.20849">
        <ele>428.4</ele>
        <time>2021-09-30T14:49:23Z</time>
      </trkpt>
      <trkpt lat="44.1888" lon="3.20855">
        <ele>430.4</ele>
        <time>2021-09-30T14:49:24Z</time>
      </trkpt>
      <trkpt lat="44.18885" lon="3.20865">
        <ele>430.6</ele>
        <time>2021-09-30T14:49:26Z</time>
      </trkpt>
      <trkpt lat="44.18889" lon="3.20872">
        <ele>430.8</ele>
        <time>2021-09-30T14:49:28Z</time>
      </trkpt>
      <trkpt lat="44.18891" lon="3.20876">
        <ele>430.9</ele>
        <time>2021-09-30T14:49:29Z</time>
      </trkpt>
      <trkpt lat="44.18892" lon="3.2088">
        <ele>431</ele>
        <time>2021-09-30T14:49:30Z</time>
      </trkpt>
      <trkpt lat="44.18893" lon="3.20884">
        <ele>431.1</ele>
        <time>2021-09-30T14:49:31Z</time>
      </trkpt>
      <trkpt lat="44.18895" lon="3.20889">
        <ele>431.2</ele>
        <time>2021-09-30T14:49:32Z</time>
      </trkpt>
      <trkpt lat="44.18896" lon="3.20898">
        <ele>431.3</ele>
        <time>2021-09-30T14:49:34Z</time>
      </trkpt>
      <trkpt lat="44.18896" lon="3.20903">
        <ele>431.3</ele>
        <time>2021-09-30T14:49:35Z</time>
      </trkpt>
      <trkpt lat="44.18895" lon="3.20908">
        <ele>431.2</ele>
        <time>2021-09-30T14:49:36Z</time>
      </trkpt>
      <trkpt lat="44.18893" lon="3.20917">
        <ele>431.1</ele>
        <time>2021-09-30T14:49:38Z</time>
      </trkpt>
      <trkpt lat="44.1889" lon="3.20922">
        <ele>431.3</ele>
        <time>2021-09-30T14:49:39Z</time>
      </trkpt>
      <trkpt lat="44.18887" lon="3.20927">
        <ele>431.5</ele>
        <time>2021-09-30T14:49:40Z</time>
      </trkpt>
      <trkpt lat="44.18884" lon="3.2093">
        <ele>431.6</ele>
        <time>2021-09-30T14:49:41Z</time>
      </trkpt>
      <trkpt lat="44.18881" lon="3.20932">
        <ele>431.7</ele>
        <time>2021-09-30T14:49:43Z</time>
      </trkpt>
      <trkpt lat="44.18876" lon="3.20931">
        <ele>431.9</ele>
        <time>2021-09-30T14:49:44Z</time>
      </trkpt>
      <trkpt lat="44.18872" lon="3.20928">
        <ele>432.1</ele>
        <time>2021-09-30T14:49:45Z</time>
      </trkpt>
      <trkpt lat="44.18868" lon="3.20925">
        <ele>432.3</ele>
        <time>2021-09-30T14:49:46Z</time>
      </trkpt>
      <trkpt lat="44.18861" lon="3.20915">
        <ele>432.8</ele>
        <time>2021-09-30T14:49:48Z</time>
      </trkpt>
      <trkpt lat="44.18856" lon="3.20906">
        <ele>433.3</ele>
        <time>2021-09-30T14:49:50Z</time>
      </trkpt>
      <trkpt lat="44.18853" lon="3.20901">
        <ele>433.6</ele>
        <time>2021-09-30T14:49:51Z</time>
      </trkpt>
      <trkpt lat="44.18851" lon="3.20896">
        <ele>433.9</ele>
        <time>2021-09-30T14:49:52Z</time>
      </trkpt>
      <trkpt lat="44.18849" lon="3.2089">
        <ele>434.2</ele>
        <time>2021-09-30T14:49:53Z</time>
      </trkpt>
      <trkpt lat="44.18847" lon="3.20884">
        <ele>434.3</ele>
        <time>2021-09-30T14:49:54Z</time>
      </trkpt>
      <trkpt lat="44.18846" lon="3.20875">
        <ele>434.3</ele>
        <time>2021-09-30T14:49:55Z</time>
      </trkpt>
      <trkpt lat="44.18845" lon="3.20869">
        <ele>434.3</ele>
        <time>2021-09-30T14:49:56Z</time>
      </trkpt>
      <trkpt lat="44.18843" lon="3.20861">
        <ele>434.3</ele>
        <time>2021-09-30T14:49:58Z</time>
      </trkpt>
      <trkpt lat="44.18842" lon="3.20851">
        <ele>434.4</ele>
        <time>2021-09-30T14:50:00Z</time>
      </trkpt>
      <trkpt lat="44.18842" lon="3.20845">
        <ele>434.4</ele>
        <time>2021-09-30T14:50:01Z</time>
      </trkpt>
      <trkpt lat="44.18841" lon="3.20839">
        <ele>434.5</ele>
        <time>2021-09-30T14:50:02Z</time>
      </trkpt>
      <trkpt lat="44.18841" lon="3.20831">
        <ele>434.7</ele>
        <time>2021-09-30T14:50:03Z</time>
      </trkpt>
      <trkpt lat="44.18841" lon="3.20824">
        <ele>434.8</ele>
        <time>2021-09-30T14:50:05Z</time>
      </trkpt>
      <trkpt lat="44.18841" lon="3.20815">
        <ele>435.1</ele>
        <time>2021-09-30T14:50:07Z</time>
      </trkpt>
      <trkpt lat="44.18842" lon="3.20811">
        <ele>435.2</ele>
        <time>2021-09-30T14:50:08Z</time>
      </trkpt>
      <trkpt lat="44.18843" lon="3.20806">
        <ele>434.6</ele>
        <time>2021-09-30T14:50:10Z</time>
      </trkpt>
      <trkpt lat="44.18843" lon="3.20805">
        <ele>434.1</ele>
        <time>2021-09-30T14:50:11Z</time>
      </trkpt>
      <trkpt lat="44.18844" lon="3.20801">
        <ele>432.8</ele>
        <time>2021-09-30T14:50:12Z</time>
      </trkpt>
      <trkpt lat="44.18844" lon="3.20796">
        <ele>431.4</ele>
        <time>2021-09-30T14:50:13Z</time>
      </trkpt>
      <trkpt lat="44.18845" lon="3.20791">
        <ele>429.6</ele>
        <time>2021-09-30T14:50:15Z</time>
      </trkpt>
      <trkpt lat="44.18846" lon="3.20785">
        <ele>427.7</ele>
        <time>2021-09-30T14:50:17Z</time>
      </trkpt>
      <trkpt lat="44.18848" lon="3.2078">
        <ele>428.2</ele>
        <time>2021-09-30T14:50:18Z</time>
      </trkpt>
      <trkpt lat="44.18848" lon="3.20779">
        <ele>428.6</ele>
        <time>2021-09-30T14:50:19Z</time>
      </trkpt>
      <trkpt lat="44.1885" lon="3.20775">
        <ele>429.5</ele>
        <time>2021-09-30T14:50:20Z</time>
      </trkpt>
      <trkpt lat="44.18854" lon="3.2077">
        <ele>431.1</ele>
        <time>2021-09-30T14:50:21Z</time>
      </trkpt>
      <trkpt lat="44.18857" lon="3.20765">
        <ele>432.7</ele>
        <time>2021-09-30T14:50:23Z</time>
      </trkpt>
      <trkpt lat="44.1886" lon="3.20762">
        <ele>433.8</ele>
        <time>2021-09-30T14:50:24Z</time>
      </trkpt>
      <trkpt lat="44.18863" lon="3.20759">
        <ele>435.1</ele>
        <time>2021-09-30T14:50:25Z</time>
      </trkpt>
      <trkpt lat="44.18869" lon="3.20751">
        <ele>437.7</ele>
        <time>2021-09-30T14:50:28Z</time>
      </trkpt>
      <trkpt lat="44.18872" lon="3.20747">
        <ele>438.1</ele>
        <time>2021-09-30T14:50:29Z</time>
      </trkpt>
      <trkpt lat="44.18875" lon="3.20743">
        <ele>438.2</ele>
        <time>2021-09-30T14:50:31Z</time>
      </trkpt>
      <trkpt lat="44.18876" lon="3.20741">
        <ele>438.2</ele>
        <time>2021-09-30T14:50:32Z</time>
      </trkpt>
      <trkpt lat="44.18879" lon="3.20736">
        <ele>438.6</ele>
        <time>2021-09-30T14:50:34Z</time>
      </trkpt>
      <trkpt lat="44.18881" lon="3.20733">
        <ele>439.4</ele>
        <time>2021-09-30T14:50:35Z</time>
      </trkpt>
      <trkpt lat="44.18884" lon="3.2073">
        <ele>439.2</ele>
        <time>2021-09-30T14:50:36Z</time>
      </trkpt>
      <trkpt lat="44.18886" lon="3.20724">
        <ele>436.4</ele>
        <time>2021-09-30T14:50:37Z</time>
      </trkpt>
      <trkpt lat="44.18886" lon="3.20722">
        <ele>435.2</ele>
        <time>2021-09-30T14:50:38Z</time>
      </trkpt>
      <trkpt lat="44.18888" lon="3.20716">
        <ele>432.5</ele>
        <time>2021-09-30T14:50:40Z</time>
      </trkpt>
      <trkpt lat="44.18889" lon="3.20712">
        <ele>430.6</ele>
        <time>2021-09-30T14:50:41Z</time>
      </trkpt>
      <trkpt lat="44.18889" lon="3.20711">
        <ele>430</ele>
        <time>2021-09-30T14:50:42Z</time>
      </trkpt>
      <trkpt lat="44.18888" lon="3.20708">
        <ele>428.4</ele>
        <time>2021-09-30T14:50:43Z</time>
      </trkpt>
      <trkpt lat="44.18888" lon="3.20702">
        <ele>425.7</ele>
        <time>2021-09-30T14:50:45Z</time>
      </trkpt>
      <trkpt lat="44.18889" lon="3.20695">
        <ele>422.5</ele>
        <time>2021-09-30T14:50:47Z</time>
      </trkpt>
      <trkpt lat="44.18889" lon="3.2069">
        <ele>425.6</ele>
        <time>2021-09-30T14:50:48Z</time>
      </trkpt>
      <trkpt lat="44.18889" lon="3.20686">
        <ele>427.9</ele>
        <time>2021-09-30T14:50:49Z</time>
      </trkpt>
      <trkpt lat="44.18889" lon="3.20677">
        <ele>432.4</ele>
        <time>2021-09-30T14:50:51Z</time>
      </trkpt>
      <trkpt lat="44.18888" lon="3.20673">
        <ele>435</ele>
        <time>2021-09-30T14:50:52Z</time>
      </trkpt>
      <trkpt lat="44.18887" lon="3.20668">
        <ele>437.5</ele>
        <time>2021-09-30T14:50:53Z</time>
      </trkpt>
      <trkpt lat="44.18886" lon="3.20659">
        <ele>442.4</ele>
        <time>2021-09-30T14:50:55Z</time>
      </trkpt>
      <trkpt lat="44.18884" lon="3.20654">
        <ele>444.2</ele>
        <time>2021-09-30T14:50:56Z</time>
      </trkpt>
      <trkpt lat="44.1888" lon="3.20646">
        <ele>443.6</ele>
        <time>2021-09-30T14:50:57Z</time>
      </trkpt>
      <trkpt lat="44.18878" lon="3.20643">
        <ele>443.4</ele>
        <time>2021-09-30T14:50:58Z</time>
      </trkpt>
      <trkpt lat="44.18875" lon="3.2064">
        <ele>443</ele>
        <time>2021-09-30T14:51:00Z</time>
      </trkpt>
      <trkpt lat="44.18874" lon="3.20641">
        <ele>443</ele>
        <time>2021-09-30T14:51:01Z</time>
      </trkpt>
      <trkpt lat="44.18874" lon="3.2064">
        <ele>442.9</ele>
        <time>2021-09-30T14:51:04Z</time>
      </trkpt>
      <trkpt lat="44.18873" lon="3.2064">
        <ele>442.8</ele>
        <time>2021-09-30T14:51:05Z</time>
      </trkpt>
      <trkpt lat="44.18874" lon="3.2064">
        <ele>442.7</ele>
        <time>2021-09-30T14:51:10Z</time>
      </trkpt>
      <trkpt lat="44.18872" lon="3.20637">
        <ele>442.4</ele>
        <time>2021-09-30T14:51:15Z</time>
      </trkpt>
      <trkpt lat="44.18871" lon="3.20632">
        <ele>442.1</ele>
        <time>2021-09-30T14:51:16Z</time>
      </trkpt>
      <trkpt lat="44.18861" lon="3.20619">
        <ele>440.7</ele>
        <time>2021-09-30T14:51:18Z</time>
      </trkpt>
      <trkpt lat="44.1885" lon="3.20608">
        <ele>439.5</ele>
        <time>2021-09-30T14:51:20Z</time>
      </trkpt>
      <trkpt lat="44.1884" lon="3.20597">
        <ele>438.6</ele>
        <time>2021-09-30T14:51:22Z</time>
      </trkpt>
      <trkpt lat="44.18828" lon="3.20586">
        <ele>437.9</ele>
        <time>2021-09-30T14:51:24Z</time>
      </trkpt>
      <trkpt lat="44.18818" lon="3.20577">
        <ele>438.6</ele>
        <time>2021-09-30T14:51:26Z</time>
      </trkpt>
      <trkpt lat="44.18814" lon="3.20573">
        <ele>438.9</ele>
        <time>2021-09-30T14:51:27Z</time>
      </trkpt>
      <trkpt lat="44.18813" lon="3.20569">
        <ele>439.2</ele>
        <time>2021-09-30T14:51:28Z</time>
      </trkpt>
      <trkpt lat="44.18811" lon="3.20565">
        <ele>439.4</ele>
        <time>2021-09-30T14:51:30Z</time>
      </trkpt>
      <trkpt lat="44.18808" lon="3.20562">
        <ele>439.7</ele>
        <time>2021-09-30T14:51:31Z</time>
      </trkpt>
      <trkpt lat="44.18804" lon="3.20555">
        <ele>440.3</ele>
        <time>2021-09-30T14:51:33Z</time>
      </trkpt>
      <trkpt lat="44.18799" lon="3.20551">
        <ele>440.7</ele>
        <time>2021-09-30T14:51:35Z</time>
      </trkpt>
      <trkpt lat="44.18797" lon="3.20548">
        <ele>440.9</ele>
        <time>2021-09-30T14:51:36Z</time>
      </trkpt>
      <trkpt lat="44.18793" lon="3.20544">
        <ele>441.4</ele>
        <time>2021-09-30T14:51:38Z</time>
      </trkpt>
      <trkpt lat="44.1879" lon="3.20542">
        <ele>441.6</ele>
        <time>2021-09-30T14:51:39Z</time>
      </trkpt>
      <trkpt lat="44.18788" lon="3.2054">
        <ele>441.8</ele>
        <time>2021-09-30T14:51:40Z</time>
      </trkpt>
      <trkpt lat="44.18785" lon="3.20537">
        <ele>442.1</ele>
        <time>2021-09-30T14:51:41Z</time>
      </trkpt>
      <trkpt lat="44.18781" lon="3.20534">
        <ele>442.5</ele>
        <time>2021-09-30T14:51:43Z</time>
      </trkpt>
      <trkpt lat="44.18776" lon="3.20531">
        <ele>442.9</ele>
        <time>2021-09-30T14:51:45Z</time>
      </trkpt>
      <trkpt lat="44.18771" lon="3.20528">
        <ele>443.3</ele>
        <time>2021-09-30T14:51:47Z</time>
      </trkpt>
      <trkpt lat="44.18765" lon="3.20526">
        <ele>443.7</ele>
        <time>2021-09-30T14:51:49Z</time>
      </trkpt>
      <trkpt lat="44.18763" lon="3.20525">
        <ele>443.9</ele>
        <time>2021-09-30T14:51:50Z</time>
      </trkpt>
      <trkpt lat="44.18757" lon="3.20522">
        <ele>444.3</ele>
        <time>2021-09-30T14:51:52Z</time>
      </trkpt>
      <trkpt lat="44.18752" lon="3.20521">
        <ele>444.7</ele>
        <time>2021-09-30T14:51:54Z</time>
      </trkpt>
      <trkpt lat="44.18748" lon="3.2052">
        <ele>444.9</ele>
        <time>2021-09-30T14:51:55Z</time>
      </trkpt>
      <trkpt lat="44.18747" lon="3.2052">
        <ele>445</ele>
        <time>2021-09-30T14:51:56Z</time>
      </trkpt>
      <trkpt lat="44.18742" lon="3.20518">
        <ele>445.3</ele>
        <time>2021-09-30T14:51:58Z</time>
      </trkpt>
      <trkpt lat="44.18737" lon="3.20517">
        <ele>445.7</ele>
        <time>2021-09-30T14:52:00Z</time>
      </trkpt>
      <trkpt lat="44.18731" lon="3.20516">
        <ele>446.1</ele>
        <time>2021-09-30T14:52:02Z</time>
      </trkpt>
      <trkpt lat="44.18727" lon="3.20515">
        <ele>446.4</ele>
        <time>2021-09-30T14:52:04Z</time>
      </trkpt>
      <trkpt lat="44.18724" lon="3.20514">
        <ele>446.7</ele>
        <time>2021-09-30T14:52:05Z</time>
      </trkpt>
      <trkpt lat="44.18719" lon="3.20512">
        <ele>447</ele>
        <time>2021-09-30T14:52:07Z</time>
      </trkpt>
      <trkpt lat="44.18716" lon="3.20511">
        <ele>447.3</ele>
        <time>2021-09-30T14:52:08Z</time>
      </trkpt>
      <trkpt lat="44.18712" lon="3.20509">
        <ele>447.6</ele>
        <time>2021-09-30T14:52:10Z</time>
      </trkpt>
      <trkpt lat="44.18707" lon="3.20507">
        <ele>448</ele>
        <time>2021-09-30T14:52:12Z</time>
      </trkpt>
      <trkpt lat="44.18702" lon="3.20504">
        <ele>448.5</ele>
        <time>2021-09-30T14:52:14Z</time>
      </trkpt>
      <trkpt lat="44.18698" lon="3.20501">
        <ele>448.9</ele>
        <time>2021-09-30T14:52:16Z</time>
      </trkpt>
      <trkpt lat="44.18694" lon="3.20499">
        <ele>449.1</ele>
        <time>2021-09-30T14:52:17Z</time>
      </trkpt>
      <trkpt lat="44.18693" lon="3.20498">
        <ele>449.2</ele>
        <time>2021-09-30T14:52:18Z</time>
      </trkpt>
      <trkpt lat="44.1869" lon="3.20495">
        <ele>449.6</ele>
        <time>2021-09-30T14:52:19Z</time>
      </trkpt>
      <trkpt lat="44.18688" lon="3.20494">
        <ele>449.7</ele>
        <time>2021-09-30T14:52:20Z</time>
      </trkpt>
      <trkpt lat="44.18684" lon="3.20492">
        <ele>450</ele>
        <time>2021-09-30T14:52:22Z</time>
      </trkpt>
      <trkpt lat="44.18681" lon="3.2049">
        <ele>450.2</ele>
        <time>2021-09-30T14:52:23Z</time>
      </trkpt>
      <trkpt lat="44.18678" lon="3.20487">
        <ele>450.5</ele>
        <time>2021-09-30T14:52:25Z</time>
      </trkpt>
      <trkpt lat="44.18674" lon="3.20484">
        <ele>450.8</ele>
        <time>2021-09-30T14:52:26Z</time>
      </trkpt>
      <trkpt lat="44.18672" lon="3.20482">
        <ele>451</ele>
        <time>2021-09-30T14:52:27Z</time>
      </trkpt>
      <trkpt lat="44.18668" lon="3.2048">
        <ele>451.3</ele>
        <time>2021-09-30T14:52:29Z</time>
      </trkpt>
      <trkpt lat="44.18666" lon="3.20476">
        <ele>451.5</ele>
        <time>2021-09-30T14:52:30Z</time>
      </trkpt>
      <trkpt lat="44.18663" lon="3.20473">
        <ele>451.8</ele>
        <time>2021-09-30T14:52:31Z</time>
      </trkpt>
      <trkpt lat="44.1866" lon="3.2047">
        <ele>452.1</ele>
        <time>2021-09-30T14:52:33Z</time>
      </trkpt>
      <trkpt lat="44.18657" lon="3.20466">
        <ele>452.4</ele>
        <time>2021-09-30T14:52:34Z</time>
      </trkpt>
      <trkpt lat="44.18654" lon="3.20461">
        <ele>452.7</ele>
        <time>2021-09-30T14:52:36Z</time>
      </trkpt>
      <trkpt lat="44.18652" lon="3.20458">
        <ele>453</ele>
        <time>2021-09-30T14:52:37Z</time>
      </trkpt>
      <trkpt lat="44.1865" lon="3.20454">
        <ele>453.2</ele>
        <time>2021-09-30T14:52:38Z</time>
      </trkpt>
      <trkpt lat="44.18647" lon="3.2045">
        <ele>453.6</ele>
        <time>2021-09-30T14:52:40Z</time>
      </trkpt>
      <trkpt lat="44.18645" lon="3.20447">
        <ele>453.8</ele>
        <time>2021-09-30T14:52:41Z</time>
      </trkpt>
      <trkpt lat="44.18644" lon="3.20443">
        <ele>454.1</ele>
        <time>2021-09-30T14:52:42Z</time>
      </trkpt>
      <trkpt lat="44.18641" lon="3.20437">
        <ele>454.5</ele>
        <time>2021-09-30T14:52:44Z</time>
      </trkpt>
      <trkpt lat="44.18639" lon="3.20432">
        <ele>454.9</ele>
        <time>2021-09-30T14:52:45Z</time>
      </trkpt>
      <trkpt lat="44.18639" lon="3.2043">
        <ele>455</ele>
        <time>2021-09-30T14:52:46Z</time>
      </trkpt>
      <trkpt lat="44.18636" lon="3.20425">
        <ele>455.4</ele>
        <time>2021-09-30T14:52:48Z</time>
      </trkpt>
      <trkpt lat="44.18635" lon="3.20423">
        <ele>455.6</ele>
        <time>2021-09-30T14:52:49Z</time>
      </trkpt>
      <trkpt lat="44.18633" lon="3.20418">
        <ele>455.9</ele>
        <time>2021-09-30T14:52:51Z</time>
      </trkpt>
      <trkpt lat="44.1863" lon="3.20415">
        <ele>456.2</ele>
        <time>2021-09-30T14:52:52Z</time>
      </trkpt>
      <trkpt lat="44.18629" lon="3.20414">
        <ele>456.3</ele>
        <time>2021-09-30T14:52:53Z</time>
      </trkpt>
      <trkpt lat="44.18627" lon="3.20412">
        <ele>456.5</ele>
        <time>2021-09-30T14:52:55Z</time>
      </trkpt>
      <trkpt lat="44.18624" lon="3.20408">
        <ele>456.9</ele>
        <time>2021-09-30T14:52:57Z</time>
      </trkpt>
      <trkpt lat="44.18621" lon="3.20405">
        <ele>457.2</ele>
        <time>2021-09-30T14:52:58Z</time>
      </trkpt>
      <trkpt lat="44.18619" lon="3.20402">
        <ele>457.4</ele>
        <time>2021-09-30T14:53:00Z</time>
      </trkpt>
      <trkpt lat="44.18617" lon="3.20399">
        <ele>457.6</ele>
        <time>2021-09-30T14:53:01Z</time>
      </trkpt>
      <trkpt lat="44.18614" lon="3.20395">
        <ele>458</ele>
        <time>2021-09-30T14:53:03Z</time>
      </trkpt>
      <trkpt lat="44.1861" lon="3.20392">
        <ele>458.4</ele>
        <time>2021-09-30T14:53:05Z</time>
      </trkpt>
      <trkpt lat="44.18607" lon="3.20388">
        <ele>458.7</ele>
        <time>2021-09-30T14:53:07Z</time>
      </trkpt>
      <trkpt lat="44.18604" lon="3.20384">
        <ele>459.1</ele>
        <time>2021-09-30T14:53:09Z</time>
      </trkpt>
      <trkpt lat="44.18601" lon="3.2038">
        <ele>459.4</ele>
        <time>2021-09-30T14:53:11Z</time>
      </trkpt>
      <trkpt lat="44.18599" lon="3.20377">
        <ele>459.7</ele>
        <time>2021-09-30T14:53:12Z</time>
      </trkpt>
      <trkpt lat="44.18598" lon="3.20375">
        <ele>459.8</ele>
        <time>2021-09-30T14:53:13Z</time>
      </trkpt>
      <trkpt lat="44.18595" lon="3.20371">
        <ele>460.1</ele>
        <time>2021-09-30T14:53:15Z</time>
      </trkpt>
      <trkpt lat="44.18592" lon="3.20368">
        <ele>460.5</ele>
        <time>2021-09-30T14:53:17Z</time>
      </trkpt>
      <trkpt lat="44.18588" lon="3.20364">
        <ele>460.9</ele>
        <time>2021-09-30T14:53:19Z</time>
      </trkpt>
      <trkpt lat="44.18586" lon="3.20363">
        <ele>461.1</ele>
        <time>2021-09-30T14:53:20Z</time>
      </trkpt>
      <trkpt lat="44.18585" lon="3.20361">
        <ele>461.2</ele>
        <time>2021-09-30T14:53:21Z</time>
      </trkpt>
      <trkpt lat="44.18582" lon="3.20359">
        <ele>461.5</ele>
        <time>2021-09-30T14:53:23Z</time>
      </trkpt>
      <trkpt lat="44.18579" lon="3.20356">
        <ele>461.8</ele>
        <time>2021-09-30T14:53:25Z</time>
      </trkpt>
      <trkpt lat="44.18576" lon="3.20354">
        <ele>462.1</ele>
        <time>2021-09-30T14:53:26Z</time>
      </trkpt>
      <trkpt lat="44.18575" lon="3.20354">
        <ele>462.4</ele>
        <time>2021-09-30T14:53:27Z</time>
      </trkpt>
      <trkpt lat="44.18573" lon="3.20353">
        <ele>462.5</ele>
        <time>2021-09-30T14:53:28Z</time>
      </trkpt>
      <trkpt lat="44.18569" lon="3.20353">
        <ele>462.7</ele>
        <time>2021-09-30T14:53:30Z</time>
      </trkpt>
      <trkpt lat="44.18568" lon="3.20354">
        <ele>462.9</ele>
        <time>2021-09-30T14:53:31Z</time>
      </trkpt>
      <trkpt lat="44.18565" lon="3.20358">
        <ele>463.1</ele>
        <time>2021-09-30T14:53:33Z</time>
      </trkpt>
      <trkpt lat="44.18563" lon="3.20362">
        <ele>463.4</ele>
        <time>2021-09-30T14:53:35Z</time>
      </trkpt>
      <trkpt lat="44.18562" lon="3.20368">
        <ele>463.6</ele>
        <time>2021-09-30T14:53:37Z</time>
      </trkpt>
      <trkpt lat="44.18562" lon="3.2037">
        <ele>463.7</ele>
        <time>2021-09-30T14:53:38Z</time>
      </trkpt>
      <trkpt lat="44.18562" lon="3.20371">
        <ele>463.8</ele>
        <time>2021-09-30T14:53:39Z</time>
      </trkpt>
      <trkpt lat="44.18562" lon="3.20374">
        <ele>463.9</ele>
        <time>2021-09-30T14:53:40Z</time>
      </trkpt>
      <trkpt lat="44.18568" lon="3.2038">
        <ele>464.3</ele>
        <time>2021-09-30T14:53:42Z</time>
      </trkpt>
      <trkpt lat="44.18569" lon="3.20382">
        <ele>464.4</ele>
        <time>2021-09-30T14:53:43Z</time>
      </trkpt>
      <trkpt lat="44.18573" lon="3.20387">
        <ele>464.7</ele>
        <time>2021-09-30T14:53:45Z</time>
      </trkpt>
      <trkpt lat="44.18575" lon="3.2039">
        <ele>464.9</ele>
        <time>2021-09-30T14:53:46Z</time>
      </trkpt>
      <trkpt lat="44.18578" lon="3.20394">
        <ele>465.1</ele>
        <time>2021-09-30T14:53:48Z</time>
      </trkpt>
      <trkpt lat="44.18581" lon="3.20398">
        <ele>465.4</ele>
        <time>2021-09-30T14:53:49Z</time>
      </trkpt>
      <trkpt lat="44.18582" lon="3.204">
        <ele>465.4</ele>
        <time>2021-09-30T14:53:50Z</time>
      </trkpt>
      <trkpt lat="44.18583" lon="3.20404">
        <ele>465.6</ele>
        <time>2021-09-30T14:53:52Z</time>
      </trkpt>
      <trkpt lat="44.18586" lon="3.2041">
        <ele>465.9</ele>
        <time>2021-09-30T14:53:54Z</time>
      </trkpt>
      <trkpt lat="44.18586" lon="3.20412">
        <ele>466</ele>
        <time>2021-09-30T14:53:55Z</time>
      </trkpt>
      <trkpt lat="44.18588" lon="3.20418">
        <ele>466.2</ele>
        <time>2021-09-30T14:53:57Z</time>
      </trkpt>
      <trkpt lat="44.18589" lon="3.20424">
        <ele>466.5</ele>
        <time>2021-09-30T14:53:59Z</time>
      </trkpt>
      <trkpt lat="44.18589" lon="3.20429">
        <ele>466.7</ele>
        <time>2021-09-30T14:54:01Z</time>
      </trkpt>
      <trkpt lat="44.18589" lon="3.20432">
        <ele>466.8</ele>
        <time>2021-09-30T14:54:02Z</time>
      </trkpt>
      <trkpt lat="44.18589" lon="3.20436">
        <ele>467</ele>
        <time>2021-09-30T14:54:04Z</time>
      </trkpt>
      <trkpt lat="44.18589" lon="3.2044">
        <ele>467.2</ele>
        <time>2021-09-30T14:54:05Z</time>
      </trkpt>
      <trkpt lat="44.1859" lon="3.20445">
        <ele>467.4</ele>
        <time>2021-09-30T14:54:07Z</time>
      </trkpt>
      <trkpt lat="44.18591" lon="3.20451">
        <ele>467.7</ele>
        <time>2021-09-30T14:54:09Z</time>
      </trkpt>
      <trkpt lat="44.18592" lon="3.20454">
        <ele>467.8</ele>
        <time>2021-09-30T14:54:10Z</time>
      </trkpt>
      <trkpt lat="44.18594" lon="3.20459">
        <ele>468.2</ele>
        <time>2021-09-30T14:54:12Z</time>
      </trkpt>
      <trkpt lat="44.18596" lon="3.20463">
        <ele>468.4</ele>
        <time>2021-09-30T14:54:13Z</time>
      </trkpt>
      <trkpt lat="44.18596" lon="3.20465">
        <ele>468.5</ele>
        <time>2021-09-30T14:54:14Z</time>
      </trkpt>
      <trkpt lat="44.18598" lon="3.2047">
        <ele>468.8</ele>
        <time>2021-09-30T14:54:16Z</time>
      </trkpt>
      <trkpt lat="44.186" lon="3.20475">
        <ele>469.1</ele>
        <time>2021-09-30T14:54:18Z</time>
      </trkpt>
      <trkpt lat="44.18601" lon="3.20479">
        <ele>469.3</ele>
        <time>2021-09-30T14:54:20Z</time>
      </trkpt>
      <trkpt lat="44.18602" lon="3.20481">
        <ele>469.4</ele>
        <time>2021-09-30T14:54:21Z</time>
      </trkpt>
      <trkpt lat="44.18604" lon="3.20486">
        <ele>469.7</ele>
        <time>2021-09-30T14:54:23Z</time>
      </trkpt>
      <trkpt lat="44.18605" lon="3.2049">
        <ele>470</ele>
        <time>2021-09-30T14:54:24Z</time>
      </trkpt>
      <trkpt lat="44.18606" lon="3.20492">
        <ele>470.1</ele>
        <time>2021-09-30T14:54:25Z</time>
      </trkpt>
      <trkpt lat="44.18607" lon="3.20494">
        <ele>470.3</ele>
        <time>2021-09-30T14:54:26Z</time>
      </trkpt>
      <trkpt lat="44.18609" lon="3.20499">
        <ele>470.6</ele>
        <time>2021-09-30T14:54:28Z</time>
      </trkpt>
      <trkpt lat="44.1861" lon="3.20504">
        <ele>470.8</ele>
        <time>2021-09-30T14:54:30Z</time>
      </trkpt>
      <trkpt lat="44.18611" lon="3.20507">
        <ele>471.1</ele>
        <time>2021-09-30T14:54:31Z</time>
      </trkpt>
      <trkpt lat="44.18612" lon="3.20508">
        <ele>471.1</ele>
        <time>2021-09-30T14:54:32Z</time>
      </trkpt>
      <trkpt lat="44.18614" lon="3.20512">
        <ele>471.4</ele>
        <time>2021-09-30T14:54:34Z</time>
      </trkpt>
      <trkpt lat="44.18616" lon="3.20516">
        <ele>471.7</ele>
        <time>2021-09-30T14:54:35Z</time>
      </trkpt>
      <trkpt lat="44.18616" lon="3.20517">
        <ele>471.8</ele>
        <time>2021-09-30T14:54:36Z</time>
      </trkpt>
      <trkpt lat="44.18618" lon="3.2052">
        <ele>472</ele>
        <time>2021-09-30T14:54:37Z</time>
      </trkpt>
      <trkpt lat="44.1862" lon="3.20523">
        <ele>472.2</ele>
        <time>2021-09-30T14:54:39Z</time>
      </trkpt>
      <trkpt lat="44.18621" lon="3.20525">
        <ele>472.3</ele>
        <time>2021-09-30T14:54:40Z</time>
      </trkpt>
      <trkpt lat="44.18625" lon="3.20529">
        <ele>472.7</ele>
        <time>2021-09-30T14:54:42Z</time>
      </trkpt>
      <trkpt lat="44.18626" lon="3.20531">
        <ele>472.8</ele>
        <time>2021-09-30T14:54:43Z</time>
      </trkpt>
      <trkpt lat="44.18628" lon="3.20532">
        <ele>472.9</ele>
        <time>2021-09-30T14:54:44Z</time>
      </trkpt>
      <trkpt lat="44.18631" lon="3.20535">
        <ele>473.2</ele>
        <time>2021-09-30T14:54:46Z</time>
      </trkpt>
      <trkpt lat="44.18633" lon="3.20537">
        <ele>473.3</ele>
        <time>2021-09-30T14:54:47Z</time>
      </trkpt>
      <trkpt lat="44.18637" lon="3.20541">
        <ele>473.7</ele>
        <time>2021-09-30T14:54:49Z</time>
      </trkpt>
      <trkpt lat="44.18639" lon="3.20542">
        <ele>473.8</ele>
        <time>2021-09-30T14:54:50Z</time>
      </trkpt>
      <trkpt lat="44.18642" lon="3.20545">
        <ele>474.1</ele>
        <time>2021-09-30T14:54:52Z</time>
      </trkpt>
      <trkpt lat="44.18646" lon="3.2055">
        <ele>474.5</ele>
        <time>2021-09-30T14:54:54Z</time>
      </trkpt>
      <trkpt lat="44.18647" lon="3.20551">
        <ele>474.5</ele>
        <time>2021-09-30T14:54:55Z</time>
      </trkpt>
      <trkpt lat="44.18649" lon="3.20553">
        <ele>474.7</ele>
        <time>2021-09-30T14:54:56Z</time>
      </trkpt>
      <trkpt lat="44.18652" lon="3.20556">
        <ele>475</ele>
        <time>2021-09-30T14:54:58Z</time>
      </trkpt>
      <trkpt lat="44.18655" lon="3.20559">
        <ele>475.2</ele>
        <time>2021-09-30T14:54:59Z</time>
      </trkpt>
      <trkpt lat="44.18659" lon="3.20563">
        <ele>475.6</ele>
        <time>2021-09-30T14:55:01Z</time>
      </trkpt>
      <trkpt lat="44.18664" lon="3.20567">
        <ele>475.9</ele>
        <time>2021-09-30T14:55:03Z</time>
      </trkpt>
      <trkpt lat="44.18667" lon="3.20571">
        <ele>476.3</ele>
        <time>2021-09-30T14:55:05Z</time>
      </trkpt>
      <trkpt lat="44.18671" lon="3.20576">
        <ele>476.7</ele>
        <time>2021-09-30T14:55:07Z</time>
      </trkpt>
      <trkpt lat="44.18674" lon="3.20579">
        <ele>476.9</ele>
        <time>2021-09-30T14:55:08Z</time>
      </trkpt>
      <trkpt lat="44.18677" lon="3.20584">
        <ele>477.2</ele>
        <time>2021-09-30T14:55:10Z</time>
      </trkpt>
      <trkpt lat="44.18679" lon="3.20587">
        <ele>477.4</ele>
        <time>2021-09-30T14:55:11Z</time>
      </trkpt>
      <trkpt lat="44.18681" lon="3.20592">
        <ele>477.8</ele>
        <time>2021-09-30T14:55:13Z</time>
      </trkpt>
      <trkpt lat="44.18684" lon="3.20598">
        <ele>478.2</ele>
        <time>2021-09-30T14:55:15Z</time>
      </trkpt>
      <trkpt lat="44.18685" lon="3.20603">
        <ele>478.5</ele>
        <time>2021-09-30T14:55:16Z</time>
      </trkpt>
      <trkpt lat="44.18686" lon="3.20607">
        <ele>478.8</ele>
        <time>2021-09-30T14:55:18Z</time>
      </trkpt>
      <trkpt lat="44.18687" lon="3.20613">
        <ele>479.1</ele>
        <time>2021-09-30T14:55:20Z</time>
      </trkpt>
      <trkpt lat="44.18688" lon="3.20619">
        <ele>479.5</ele>
        <time>2021-09-30T14:55:22Z</time>
      </trkpt>
      <trkpt lat="44.18688" lon="3.20622">
        <ele>479.7</ele>
        <time>2021-09-30T14:55:23Z</time>
      </trkpt>
      <trkpt lat="44.18687" lon="3.20627">
        <ele>480</ele>
        <time>2021-09-30T14:55:25Z</time>
      </trkpt>
      <trkpt lat="44.18686" lon="3.20632">
        <ele>480.3</ele>
        <time>2021-09-30T14:55:26Z</time>
      </trkpt>
      <trkpt lat="44.18685" lon="3.20634">
        <ele>480.4</ele>
        <time>2021-09-30T14:55:27Z</time>
      </trkpt>
      <trkpt lat="44.18684" lon="3.20638">
        <ele>480.6</ele>
        <time>2021-09-30T14:55:29Z</time>
      </trkpt>
      <trkpt lat="44.18683" lon="3.2064">
        <ele>480.7</ele>
        <time>2021-09-30T14:55:30Z</time>
      </trkpt>
      <trkpt lat="44.18681" lon="3.20644">
        <ele>481</ele>
        <time>2021-09-30T14:55:31Z</time>
      </trkpt>
      <trkpt lat="44.1868" lon="3.20648">
        <ele>481.2</ele>
        <time>2021-09-30T14:55:33Z</time>
      </trkpt>
      <trkpt lat="44.18679" lon="3.20649">
        <ele>481.2</ele>
        <time>2021-09-30T14:55:34Z</time>
      </trkpt>
      <trkpt lat="44.18678" lon="3.20651">
        <ele>481.4</ele>
        <time>2021-09-30T14:55:35Z</time>
      </trkpt>
      <trkpt lat="44.18677" lon="3.20655">
        <ele>481.6</ele>
        <time>2021-09-30T14:55:37Z</time>
      </trkpt>
      <trkpt lat="44.18676" lon="3.20658">
        <ele>481.7</ele>
        <time>2021-09-30T14:55:38Z</time>
      </trkpt>
      <trkpt lat="44.18675" lon="3.2066">
        <ele>481.8</ele>
        <time>2021-09-30T14:55:39Z</time>
      </trkpt>
      <trkpt lat="44.18674" lon="3.20664">
        <ele>482</ele>
        <time>2021-09-30T14:55:41Z</time>
      </trkpt>
      <trkpt lat="44.18671" lon="3.20668">
        <ele>482.2</ele>
        <time>2021-09-30T14:55:43Z</time>
      </trkpt>
      <trkpt lat="44.1867" lon="3.20673">
        <ele>482.4</ele>
        <time>2021-09-30T14:55:45Z</time>
      </trkpt>
      <trkpt lat="44.18668" lon="3.20676">
        <ele>482.6</ele>
        <time>2021-09-30T14:55:46Z</time>
      </trkpt>
      <trkpt lat="44.18668" lon="3.20677">
        <ele>482.6</ele>
        <time>2021-09-30T14:55:47Z</time>
      </trkpt>
      <trkpt lat="44.18666" lon="3.2068">
        <ele>482.8</ele>
        <time>2021-09-30T14:55:48Z</time>
      </trkpt>
      <trkpt lat="44.18664" lon="3.20684">
        <ele>483</ele>
        <time>2021-09-30T14:55:50Z</time>
      </trkpt>
      <trkpt lat="44.18663" lon="3.20689">
        <ele>483.3</ele>
        <time>2021-09-30T14:55:52Z</time>
      </trkpt>
      <trkpt lat="44.18661" lon="3.20695">
        <ele>483.6</ele>
        <time>2021-09-30T14:55:54Z</time>
      </trkpt>
      <trkpt lat="44.1866" lon="3.20698">
        <ele>483.8</ele>
        <time>2021-09-30T14:55:55Z</time>
      </trkpt>
      <trkpt lat="44.18659" lon="3.207">
        <ele>483.9</ele>
        <time>2021-09-30T14:55:56Z</time>
      </trkpt>
      <trkpt lat="44.18658" lon="3.20704">
        <ele>484.2</ele>
        <time>2021-09-30T14:55:58Z</time>
      </trkpt>
      <trkpt lat="44.18656" lon="3.20708">
        <ele>484.4</ele>
        <time>2021-09-30T14:55:59Z</time>
      </trkpt>
      <trkpt lat="44.18655" lon="3.20711">
        <ele>484.6</ele>
        <time>2021-09-30T14:56:01Z</time>
      </trkpt>
      <trkpt lat="44.18653" lon="3.20715">
        <ele>484.9</ele>
        <time>2021-09-30T14:56:03Z</time>
      </trkpt>
      <trkpt lat="44.18651" lon="3.2072">
        <ele>485.1</ele>
        <time>2021-09-30T14:56:04Z</time>
      </trkpt>
      <trkpt lat="44.18651" lon="3.20721">
        <ele>485.2</ele>
        <time>2021-09-30T14:56:05Z</time>
      </trkpt>
      <trkpt lat="44.18649" lon="3.20725">
        <ele>485.5</ele>
        <time>2021-09-30T14:56:07Z</time>
      </trkpt>
      <trkpt lat="44.18649" lon="3.2073">
        <ele>485.7</ele>
        <time>2021-09-30T14:56:08Z</time>
      </trkpt>
      <trkpt lat="44.18649" lon="3.20734">
        <ele>486</ele>
        <time>2021-09-30T14:56:10Z</time>
      </trkpt>
      <trkpt lat="44.18649" lon="3.20739">
        <ele>486.3</ele>
        <time>2021-09-30T14:56:12Z</time>
      </trkpt>
      <trkpt lat="44.18648" lon="3.20744">
        <ele>486.5</ele>
        <time>2021-09-30T14:56:13Z</time>
      </trkpt>
      <trkpt lat="44.18648" lon="3.20746">
        <ele>486.6</ele>
        <time>2021-09-30T14:56:14Z</time>
      </trkpt>
      <trkpt lat="44.18647" lon="3.2075">
        <ele>486.9</ele>
        <time>2021-09-30T14:56:16Z</time>
      </trkpt>
      <trkpt lat="44.18647" lon="3.20752">
        <ele>487</ele>
        <time>2021-09-30T14:56:17Z</time>
      </trkpt>
      <trkpt lat="44.18647" lon="3.20757">
        <ele>487.3</ele>
        <time>2021-09-30T14:56:19Z</time>
      </trkpt>
      <trkpt lat="44.18646" lon="3.2076">
        <ele>487.4</ele>
        <time>2021-09-30T14:56:20Z</time>
      </trkpt>
      <trkpt lat="44.18646" lon="3.20766">
        <ele>487.8</ele>
        <time>2021-09-30T14:56:22Z</time>
      </trkpt>
      <trkpt lat="44.18645" lon="3.20771">
        <ele>488.1</ele>
        <time>2021-09-30T14:56:24Z</time>
      </trkpt>
      <trkpt lat="44.18643" lon="3.20776">
        <ele>488.4</ele>
        <time>2021-09-30T14:56:26Z</time>
      </trkpt>
      <trkpt lat="44.18642" lon="3.2078">
        <ele>488.6</ele>
        <time>2021-09-30T14:56:27Z</time>
      </trkpt>
      <trkpt lat="44.18641" lon="3.20781">
        <ele>488.7</ele>
        <time>2021-09-30T14:56:28Z</time>
      </trkpt>
      <trkpt lat="44.1864" lon="3.20786">
        <ele>488.9</ele>
        <time>2021-09-30T14:56:30Z</time>
      </trkpt>
      <trkpt lat="44.1864" lon="3.20788">
        <ele>489.1</ele>
        <time>2021-09-30T14:56:31Z</time>
      </trkpt>
      <trkpt lat="44.1864" lon="3.20791">
        <ele>489.2</ele>
        <time>2021-09-30T14:56:32Z</time>
      </trkpt>
      <trkpt lat="44.1864" lon="3.20793">
        <ele>489.3</ele>
        <time>2021-09-30T14:56:33Z</time>
      </trkpt>
      <trkpt lat="44.1864" lon="3.20798">
        <ele>489.6</ele>
        <time>2021-09-30T14:56:35Z</time>
      </trkpt>
      <trkpt lat="44.18639" lon="3.20801">
        <ele>489.8</ele>
        <time>2021-09-30T14:56:36Z</time>
      </trkpt>
      <trkpt lat="44.18639" lon="3.20802">
        <ele>489.9</ele>
        <time>2021-09-30T14:56:37Z</time>
      </trkpt>
      <trkpt lat="44.18638" lon="3.20807">
        <ele>490.1</ele>
        <time>2021-09-30T14:56:39Z</time>
      </trkpt>
      <trkpt lat="44.18638" lon="3.20811">
        <ele>490.4</ele>
        <time>2021-09-30T14:56:41Z</time>
      </trkpt>
      <trkpt lat="44.18637" lon="3.20815">
        <ele>490.6</ele>
        <time>2021-09-30T14:56:42Z</time>
      </trkpt>
      <trkpt lat="44.18636" lon="3.2082">
        <ele>490.9</ele>
        <time>2021-09-30T14:56:43Z</time>
      </trkpt>
      <trkpt lat="44.18635" lon="3.20821">
        <ele>491</ele>
        <time>2021-09-30T14:56:44Z</time>
      </trkpt>
      <trkpt lat="44.18634" lon="3.20827">
        <ele>491.3</ele>
        <time>2021-09-30T14:56:46Z</time>
      </trkpt>
      <trkpt lat="44.18633" lon="3.2083">
        <ele>491.5</ele>
        <time>2021-09-30T14:56:47Z</time>
      </trkpt>
      <trkpt lat="44.18631" lon="3.20835">
        <ele>491.9</ele>
        <time>2021-09-30T14:56:49Z</time>
      </trkpt>
      <trkpt lat="44.18629" lon="3.20838">
        <ele>492.1</ele>
        <time>2021-09-30T14:56:50Z</time>
      </trkpt>
      <trkpt lat="44.18627" lon="3.20841">
        <ele>492.3</ele>
        <time>2021-09-30T14:56:51Z</time>
      </trkpt>
      <trkpt lat="44.18624" lon="3.20847">
        <ele>492.7</ele>
        <time>2021-09-30T14:56:53Z</time>
      </trkpt>
      <trkpt lat="44.18622" lon="3.20848">
        <ele>492.9</ele>
        <time>2021-09-30T14:56:54Z</time>
      </trkpt>
      <trkpt lat="44.18621" lon="3.2085">
        <ele>493</ele>
        <time>2021-09-30T14:56:55Z</time>
      </trkpt>
      <trkpt lat="44.1862" lon="3.20853">
        <ele>493.2</ele>
        <time>2021-09-30T14:56:57Z</time>
      </trkpt>
      <trkpt lat="44.18618" lon="3.20856">
        <ele>493.4</ele>
        <time>2021-09-30T14:56:58Z</time>
      </trkpt>
      <trkpt lat="44.18615" lon="3.2086">
        <ele>493.8</ele>
        <time>2021-09-30T14:57:00Z</time>
      </trkpt>
      <trkpt lat="44.18613" lon="3.20864">
        <ele>494.1</ele>
        <time>2021-09-30T14:57:02Z</time>
      </trkpt>
      <trkpt lat="44.1861" lon="3.20869">
        <ele>494.5</ele>
        <time>2021-09-30T14:57:04Z</time>
      </trkpt>
      <trkpt lat="44.18608" lon="3.20873">
        <ele>494.8</ele>
        <time>2021-09-30T14:57:05Z</time>
      </trkpt>
      <trkpt lat="44.18607" lon="3.20874">
        <ele>494.8</ele>
        <time>2021-09-30T14:57:06Z</time>
      </trkpt>
      <trkpt lat="44.18605" lon="3.20878">
        <ele>495.1</ele>
        <time>2021-09-30T14:57:07Z</time>
      </trkpt>
      <trkpt lat="44.18603" lon="3.20882">
        <ele>495.4</ele>
        <time>2021-09-30T14:57:09Z</time>
      </trkpt>
      <trkpt lat="44.18603" lon="3.20883">
        <ele>495.5</ele>
        <time>2021-09-30T14:57:10Z</time>
      </trkpt>
      <trkpt lat="44.18602" lon="3.20885">
        <ele>495.6</ele>
        <time>2021-09-30T14:57:11Z</time>
      </trkpt>
      <trkpt lat="44.186" lon="3.20889">
        <ele>495.9</ele>
        <time>2021-09-30T14:57:13Z</time>
      </trkpt>
      <trkpt lat="44.18599" lon="3.20894">
        <ele>496.2</ele>
        <time>2021-09-30T14:57:15Z</time>
      </trkpt>
      <trkpt lat="44.18598" lon="3.20899">
        <ele>496.5</ele>
        <time>2021-09-30T14:57:16Z</time>
      </trkpt>
      <trkpt lat="44.18598" lon="3.20901">
        <ele>496.5</ele>
        <time>2021-09-30T14:57:17Z</time>
      </trkpt>
      <trkpt lat="44.18597" lon="3.20906">
        <ele>496.9</ele>
        <time>2021-09-30T14:57:18Z</time>
      </trkpt>
      <trkpt lat="44.18596" lon="3.20908">
        <ele>497</ele>
        <time>2021-09-30T14:57:19Z</time>
      </trkpt>
      <trkpt lat="44.18596" lon="3.20911">
        <ele>497.2</ele>
        <time>2021-09-30T14:57:20Z</time>
      </trkpt>
      <trkpt lat="44.18594" lon="3.20916">
        <ele>497.5</ele>
        <time>2021-09-30T14:57:22Z</time>
      </trkpt>
      <trkpt lat="44.18593" lon="3.20921">
        <ele>497.8</ele>
        <time>2021-09-30T14:57:24Z</time>
      </trkpt>
      <trkpt lat="44.18593" lon="3.20925">
        <ele>498</ele>
        <time>2021-09-30T14:57:25Z</time>
      </trkpt>
      <trkpt lat="44.18592" lon="3.2093">
        <ele>498.4</ele>
        <time>2021-09-30T14:57:27Z</time>
      </trkpt>
      <trkpt lat="44.18592" lon="3.20934">
        <ele>498.6</ele>
        <time>2021-09-30T14:57:28Z</time>
      </trkpt>
      <trkpt lat="44.18591" lon="3.20939">
        <ele>498.9</ele>
        <time>2021-09-30T14:57:29Z</time>
      </trkpt>
      <trkpt lat="44.18591" lon="3.2094">
        <ele>499</ele>
        <time>2021-09-30T14:57:30Z</time>
      </trkpt>
      <trkpt lat="44.18591" lon="3.20945">
        <ele>499.3</ele>
        <time>2021-09-30T14:57:32Z</time>
      </trkpt>
      <trkpt lat="44.18591" lon="3.20946">
        <ele>499.3</ele>
        <time>2021-09-30T14:57:33Z</time>
      </trkpt>
      <trkpt lat="44.18591" lon="3.20951">
        <ele>499.7</ele>
        <time>2021-09-30T14:57:34Z</time>
      </trkpt>
      <trkpt lat="44.18591" lon="3.20953">
        <ele>499.8</ele>
        <time>2021-09-30T14:57:35Z</time>
      </trkpt>
      <trkpt lat="44.18589" lon="3.20959">
        <ele>500.1</ele>
        <time>2021-09-30T14:57:37Z</time>
      </trkpt>
      <trkpt lat="44.18588" lon="3.2096">
        <ele>500.3</ele>
        <time>2021-09-30T14:57:38Z</time>
      </trkpt>
      <trkpt lat="44.18587" lon="3.20962">
        <ele>500.4</ele>
        <time>2021-09-30T14:57:39Z</time>
      </trkpt>
      <trkpt lat="44.18585" lon="3.20966">
        <ele>500.7</ele>
        <time>2021-09-30T14:57:40Z</time>
      </trkpt>
      <trkpt lat="44.18584" lon="3.20968">
        <ele>500.9</ele>
        <time>2021-09-30T14:57:41Z</time>
      </trkpt>
      <trkpt lat="44.18582" lon="3.20973">
        <ele>501.2</ele>
        <time>2021-09-30T14:57:43Z</time>
      </trkpt>
      <trkpt lat="44.18581" lon="3.20974">
        <ele>501.3</ele>
        <time>2021-09-30T14:57:44Z</time>
      </trkpt>
      <trkpt lat="44.18579" lon="3.20977">
        <ele>501.5</ele>
        <time>2021-09-30T14:57:45Z</time>
      </trkpt>
      <trkpt lat="44.18577" lon="3.20982">
        <ele>501.9</ele>
        <time>2021-09-30T14:57:47Z</time>
      </trkpt>
      <trkpt lat="44.18575" lon="3.20984">
        <ele>502</ele>
        <time>2021-09-30T14:57:48Z</time>
      </trkpt>
      <trkpt lat="44.18572" lon="3.20988">
        <ele>502.4</ele>
        <time>2021-09-30T14:57:50Z</time>
      </trkpt>
      <trkpt lat="44.1857" lon="3.20993">
        <ele>502.7</ele>
        <time>2021-09-30T14:57:51Z</time>
      </trkpt>
      <trkpt lat="44.18569" lon="3.20994">
        <ele>502.8</ele>
        <time>2021-09-30T14:57:52Z</time>
      </trkpt>
      <trkpt lat="44.18566" lon="3.20999">
        <ele>503.1</ele>
        <time>2021-09-30T14:57:54Z</time>
      </trkpt>
      <trkpt lat="44.18563" lon="3.21004">
        <ele>503.4</ele>
        <time>2021-09-30T14:57:56Z</time>
      </trkpt>
      <trkpt lat="44.18561" lon="3.21007">
        <ele>503.6</ele>
        <time>2021-09-30T14:57:57Z</time>
      </trkpt>
      <trkpt lat="44.18558" lon="3.21012">
        <ele>503.9</ele>
        <time>2021-09-30T14:57:58Z</time>
      </trkpt>
      <trkpt lat="44.18556" lon="3.21015">
        <ele>504.2</ele>
        <time>2021-09-30T14:58:00Z</time>
      </trkpt>
      <trkpt lat="44.18553" lon="3.21017">
        <ele>504.4</ele>
        <time>2021-09-30T14:58:01Z</time>
      </trkpt>
      <trkpt lat="44.18551" lon="3.2102">
        <ele>504.6</ele>
        <time>2021-09-30T14:58:02Z</time>
      </trkpt>
      <trkpt lat="44.1855" lon="3.21021">
        <ele>504.7</ele>
        <time>2021-09-30T14:58:03Z</time>
      </trkpt>
      <trkpt lat="44.18548" lon="3.21024">
        <ele>504.9</ele>
        <time>2021-09-30T14:58:05Z</time>
      </trkpt>
      <trkpt lat="44.18544" lon="3.21027">
        <ele>505.2</ele>
        <time>2021-09-30T14:58:07Z</time>
      </trkpt>
      <trkpt lat="44.18541" lon="3.2103">
        <ele>505.5</ele>
        <time>2021-09-30T14:58:08Z</time>
      </trkpt>
      <trkpt lat="44.1854" lon="3.21031">
        <ele>505.6</ele>
        <time>2021-09-30T14:58:09Z</time>
      </trkpt>
      <trkpt lat="44.18537" lon="3.21035">
        <ele>505.9</ele>
        <time>2021-09-30T14:58:11Z</time>
      </trkpt>
      <trkpt lat="44.18536" lon="3.21036">
        <ele>506</ele>
        <time>2021-09-30T14:58:12Z</time>
      </trkpt>
      <trkpt lat="44.18535" lon="3.21038">
        <ele>506.1</ele>
        <time>2021-09-30T14:58:13Z</time>
      </trkpt>
      <trkpt lat="44.18532" lon="3.21041">
        <ele>506.4</ele>
        <time>2021-09-30T14:58:15Z</time>
      </trkpt>
      <trkpt lat="44.18531" lon="3.21042">
        <ele>506.5</ele>
        <time>2021-09-30T14:58:16Z</time>
      </trkpt>
      <trkpt lat="44.18529" lon="3.21045">
        <ele>506.7</ele>
        <time>2021-09-30T14:58:17Z</time>
      </trkpt>
      <trkpt lat="44.18528" lon="3.21047">
        <ele>506.8</ele>
        <time>2021-09-30T14:58:18Z</time>
      </trkpt>
      <trkpt lat="44.18525" lon="3.2105">
        <ele>507.1</ele>
        <time>2021-09-30T14:58:20Z</time>
      </trkpt>
      <trkpt lat="44.18522" lon="3.21053">
        <ele>507.4</ele>
        <time>2021-09-30T14:58:21Z</time>
      </trkpt>
      <trkpt lat="44.1852" lon="3.21055">
        <ele>507.5</ele>
        <time>2021-09-30T14:58:22Z</time>
      </trkpt>
      <trkpt lat="44.18518" lon="3.21057">
        <ele>507.8</ele>
        <time>2021-09-30T14:58:24Z</time>
      </trkpt>
      <trkpt lat="44.18515" lon="3.2106">
        <ele>508.1</ele>
        <time>2021-09-30T14:58:26Z</time>
      </trkpt>
      <trkpt lat="44.18511" lon="3.21063">
        <ele>508.4</ele>
        <time>2021-09-30T14:58:28Z</time>
      </trkpt>
      <trkpt lat="44.18507" lon="3.21066">
        <ele>508.7</ele>
        <time>2021-09-30T14:58:30Z</time>
      </trkpt>
      <trkpt lat="44.18505" lon="3.21066">
        <ele>508.8</ele>
        <time>2021-09-30T14:58:31Z</time>
      </trkpt>
      <trkpt lat="44.18503" lon="3.21067">
        <ele>508.9</ele>
        <time>2021-09-30T14:58:33Z</time>
      </trkpt>
      <trkpt lat="44.185" lon="3.21068">
        <ele>509.2</ele>
        <time>2021-09-30T14:58:34Z</time>
      </trkpt>
      <trkpt lat="44.18497" lon="3.21069">
        <ele>509.4</ele>
        <time>2021-09-30T14:58:36Z</time>
      </trkpt>
      <trkpt lat="44.18492" lon="3.21071">
        <ele>509.8</ele>
        <time>2021-09-30T14:58:38Z</time>
      </trkpt>
      <trkpt lat="44.18488" lon="3.21072">
        <ele>510.1</ele>
        <time>2021-09-30T14:58:40Z</time>
      </trkpt>
      <trkpt lat="44.18487" lon="3.21073">
        <ele>510.2</ele>
        <time>2021-09-30T14:58:41Z</time>
      </trkpt>
      <trkpt lat="44.18485" lon="3.21074">
        <ele>510.3</ele>
        <time>2021-09-30T14:58:42Z</time>
      </trkpt>
      <trkpt lat="44.18482" lon="3.21074">
        <ele>510.6</ele>
        <time>2021-09-30T14:58:44Z</time>
      </trkpt>
      <trkpt lat="44.18478" lon="3.21073">
        <ele>510.9</ele>
        <time>2021-09-30T14:58:46Z</time>
      </trkpt>
      <trkpt lat="44.18476" lon="3.21073">
        <ele>511</ele>
        <time>2021-09-30T14:58:47Z</time>
      </trkpt>
      <trkpt lat="44.18471" lon="3.21073">
        <ele>511.3</ele>
        <time>2021-09-30T14:58:49Z</time>
      </trkpt>
      <trkpt lat="44.18469" lon="3.21073">
        <ele>511.5</ele>
        <time>2021-09-30T14:58:50Z</time>
      </trkpt>
      <trkpt lat="44.18464" lon="3.21074">
        <ele>511.8</ele>
        <time>2021-09-30T14:58:52Z</time>
      </trkpt>
      <trkpt lat="44.18459" lon="3.21074">
        <ele>512.2</ele>
        <time>2021-09-30T14:58:54Z</time>
      </trkpt>
      <trkpt lat="44.18455" lon="3.21074">
        <ele>512.4</ele>
        <time>2021-09-30T14:58:55Z</time>
      </trkpt>
      <trkpt lat="44.18453" lon="3.21074">
        <ele>512.6</ele>
        <time>2021-09-30T14:58:56Z</time>
      </trkpt>
      <trkpt lat="44.18449" lon="3.21074">
        <ele>512.8</ele>
        <time>2021-09-30T14:58:58Z</time>
      </trkpt>
      <trkpt lat="44.18445" lon="3.21074">
        <ele>513.1</ele>
        <time>2021-09-30T14:59:00Z</time>
      </trkpt>
      <trkpt lat="44.1844" lon="3.21075">
        <ele>513.4</ele>
        <time>2021-09-30T14:59:01Z</time>
      </trkpt>
      <trkpt lat="44.18439" lon="3.21076">
        <ele>513.5</ele>
        <time>2021-09-30T14:59:02Z</time>
      </trkpt>
      <trkpt lat="44.18437" lon="3.21076">
        <ele>513.7</ele>
        <time>2021-09-30T14:59:03Z</time>
      </trkpt>
      <trkpt lat="44.18433" lon="3.21077">
        <ele>513.9</ele>
        <time>2021-09-30T14:59:05Z</time>
      </trkpt>
      <trkpt lat="44.18431" lon="3.21078">
        <ele>514.1</ele>
        <time>2021-09-30T14:59:06Z</time>
      </trkpt>
      <trkpt lat="44.18426" lon="3.21079">
        <ele>514.4</ele>
        <time>2021-09-30T14:59:08Z</time>
      </trkpt>
      <trkpt lat="44.18422" lon="3.21078">
        <ele>514.7</ele>
        <time>2021-09-30T14:59:10Z</time>
      </trkpt>
      <trkpt lat="44.1842" lon="3.21078">
        <ele>514.9</ele>
        <time>2021-09-30T14:59:11Z</time>
      </trkpt>
      <trkpt lat="44.18416" lon="3.21079">
        <ele>515.1</ele>
        <time>2021-09-30T14:59:13Z</time>
      </trkpt>
      <trkpt lat="44.18413" lon="3.21081">
        <ele>515.3</ele>
        <time>2021-09-30T14:59:14Z</time>
      </trkpt>
      <trkpt lat="44.1841" lon="3.21082">
        <ele>515.6</ele>
        <time>2021-09-30T14:59:16Z</time>
      </trkpt>
      <trkpt lat="44.18406" lon="3.21084">
        <ele>515.8</ele>
        <time>2021-09-30T14:59:17Z</time>
      </trkpt>
      <trkpt lat="44.18405" lon="3.21085">
        <ele>515.9</ele>
        <time>2021-09-30T14:59:18Z</time>
      </trkpt>
      <trkpt lat="44.184" lon="3.21085">
        <ele>516.2</ele>
        <time>2021-09-30T14:59:20Z</time>
      </trkpt>
      <trkpt lat="44.18398" lon="3.21086">
        <ele>516.3</ele>
        <time>2021-09-30T14:59:21Z</time>
      </trkpt>
      <trkpt lat="44.18397" lon="3.21086">
        <ele>516.5</ele>
        <time>2021-09-30T14:59:22Z</time>
      </trkpt>
      <trkpt lat="44.18393" lon="3.21087">
        <ele>516.7</ele>
        <time>2021-09-30T14:59:23Z</time>
      </trkpt>
      <trkpt lat="44.18389" lon="3.21088">
        <ele>517</ele>
        <time>2021-09-30T14:59:25Z</time>
      </trkpt>
      <trkpt lat="44.18385" lon="3.2109">
        <ele>517.2</ele>
        <time>2021-09-30T14:59:26Z</time>
      </trkpt>
      <trkpt lat="44.18381" lon="3.21094">
        <ele>517.5</ele>
        <time>2021-09-30T14:59:28Z</time>
      </trkpt>
      <trkpt lat="44.1838" lon="3.21095">
        <ele>517.6</ele>
        <time>2021-09-30T14:59:29Z</time>
      </trkpt>
      <trkpt lat="44.18379" lon="3.21097">
        <ele>517.7</ele>
        <time>2021-09-30T14:59:30Z</time>
      </trkpt>
      <trkpt lat="44.18376" lon="3.211">
        <ele>517.9</ele>
        <time>2021-09-30T14:59:32Z</time>
      </trkpt>
      <trkpt lat="44.18375" lon="3.21102">
        <ele>518.1</ele>
        <time>2021-09-30T14:59:33Z</time>
      </trkpt>
      <trkpt lat="44.18372" lon="3.21106">
        <ele>518.3</ele>
        <time>2021-09-30T14:59:35Z</time>
      </trkpt>
      <trkpt lat="44.1837" lon="3.2111">
        <ele>518.5</ele>
        <time>2021-09-30T14:59:37Z</time>
      </trkpt>
      <trkpt lat="44.18369" lon="3.21112">
        <ele>518.6</ele>
        <time>2021-09-30T14:59:38Z</time>
      </trkpt>
      <trkpt lat="44.18367" lon="3.21117">
        <ele>518.9</ele>
        <time>2021-09-30T14:59:40Z</time>
      </trkpt>
      <trkpt lat="44.18365" lon="3.21122">
        <ele>519.1</ele>
        <time>2021-09-30T14:59:42Z</time>
      </trkpt>
      <trkpt lat="44.18363" lon="3.21127">
        <ele>519.3</ele>
        <time>2021-09-30T14:59:44Z</time>
      </trkpt>
      <trkpt lat="44.18363" lon="3.21129">
        <ele>519.4</ele>
        <time>2021-09-30T14:59:45Z</time>
      </trkpt>
      <trkpt lat="44.1836" lon="3.21134">
        <ele>519.7</ele>
        <time>2021-09-30T14:59:47Z</time>
      </trkpt>
      <trkpt lat="44.18359" lon="3.21137">
        <ele>519.8</ele>
        <time>2021-09-30T14:59:48Z</time>
      </trkpt>
      <trkpt lat="44.18357" lon="3.21142">
        <ele>520.1</ele>
        <time>2021-09-30T14:59:50Z</time>
      </trkpt>
      <trkpt lat="44.18355" lon="3.21145">
        <ele>520.3</ele>
        <time>2021-09-30T14:59:52Z</time>
      </trkpt>
      <trkpt lat="44.18353" lon="3.21146">
        <ele>520.4</ele>
        <time>2021-09-30T14:59:53Z</time>
      </trkpt>
      <trkpt lat="44.18349" lon="3.21147">
        <ele>520.7</ele>
        <time>2021-09-30T14:59:55Z</time>
      </trkpt>
      <trkpt lat="44.18342" lon="3.21143">
        <ele>518.3</ele>
      </trkpt>
      <trkpt lat="44.18342" lon="3.21137">
        <ele>521.1</ele>
      </trkpt>
      <trkpt lat="44.18349" lon="3.21128">
        <ele>521.9</ele>
      </trkpt>
      <trkpt lat="44.18373" lon="3.21097">
        <ele>523.6</ele>
      </trkpt>
      <trkpt lat="44.18386" lon="3.21085">
        <ele>520.4</ele>
      </trkpt>
      <trkpt lat="44.18418" lon="3.21073">
        <ele>522.4</ele>
      </trkpt>
      <trkpt lat="44.18453" lon="3.21057">
        <ele>525.4</ele>
      </trkpt>
      <trkpt lat="44.18474" lon="3.2104">
        <ele>529</ele>
      </trkpt>
      <trkpt lat="44.18493" lon="3.21011">
        <ele>530.4</ele>
      </trkpt>
      <trkpt lat="44.18519" lon="3.20959">
        <ele>531.1</ele>
      </trkpt>
      <trkpt lat="44.18549" lon="3.20826">
        <ele>538.8</ele>
      </trkpt>
      <trkpt lat="44.18551" lon="3.20791">
        <ele>541.9</ele>
      </trkpt>
      <trkpt lat="44.18545" lon="3.2072">
        <ele>547</ele>
      </trkpt>
      <trkpt lat="44.18547" lon="3.20681">
        <ele>550.1</ele>
      </trkpt>
      <trkpt lat="44.18542" lon="3.20656">
        <ele>550.3</ele>
      </trkpt>
      <trkpt lat="44.18523" lon="3.20642">
        <ele>554.2</ele>
      </trkpt>
      <trkpt lat="44.18502" lon="3.20629">
        <ele>556.5</ele>
      </trkpt>
      <trkpt lat="44.18487" lon="3.20615">
        <ele>558.5</ele>
      </trkpt>
      <trkpt lat="44.18445" lon="3.20545">
        <ele>560.9</ele>
      </trkpt>
      <trkpt lat="44.18417" lon="3.20512">
        <ele>565.3</ele>
      </trkpt>
      <trkpt lat="44.18395" lon="3.20492">
        <ele>565.8</ele>
      </trkpt>
      <trkpt lat="44.18368" lon="3.20478">
        <ele>567.1</ele>
      </trkpt>
      <trkpt lat="44.18332" lon="3.20471">
        <ele>568.7</ele>
      </trkpt>
      <trkpt lat="44.18295" lon="3.20467">
        <ele>573.2</ele>
      </trkpt>
      <trkpt lat="44.18267" lon="3.20458">
        <ele>574.9</ele>
      </trkpt>
      <trkpt lat="44.18243" lon="3.20454">
        <ele>576.8</ele>
      </trkpt>
      <trkpt lat="44.18213" lon="3.20461">
        <ele>581.1</ele>
      </trkpt>
      <trkpt lat="44.18177" lon="3.20459">
        <ele>586.4</ele>
      </trkpt>
      <trkpt lat="44.18144" lon="3.20445">
        <ele>588.5</ele>
      </trkpt>
      <trkpt lat="44.18123" lon="3.20414">
        <ele>587.6</ele>
      </trkpt>
      <trkpt lat="44.18103" lon="3.20375">
        <ele>586.9</ele>
      </trkpt>
      <trkpt lat="44.1809" lon="3.2036">
        <ele>587.8</ele>
      </trkpt>
      <trkpt lat="44.18081" lon="3.20364">
        <ele>593.4</ele>
      </trkpt>
      <trkpt lat="44.18083" lon="3.20379">
        <ele>599.6</ele>
      </trkpt>
      <trkpt lat="44.18096" lon="3.20387">
        <ele>595.3</ele>
      </trkpt>
      <trkpt lat="44.18109" lon="3.20406">
        <ele>593.8</ele>
      </trkpt>
      <trkpt lat="44.18126" lon="3.20447">
        <ele>597</ele>
      </trkpt>
      <trkpt lat="44.18148" lon="3.20476">
        <ele>602.4</ele>
      </trkpt>
      <trkpt lat="44.1819" lon="3.20498">
        <ele>602.7</ele>
      </trkpt>
      <trkpt lat="44.18233" lon="3.20508">
        <ele>606.4</ele>
      </trkpt>
      <trkpt lat="44.18328" lon="3.20554">
        <ele>615.1</ele>
      </trkpt>
      <trkpt lat="44.18348" lon="3.2057">
        <ele>616.9</ele>
      </trkpt>
      <trkpt lat="44.18368" lon="3.20596">
        <ele>619.8</ele>
      </trkpt>
      <trkpt lat="44.18422" lon="3.20685">
        <ele>625.7</ele>
      </trkpt>
      <trkpt lat="44.18433" lon="3.20698">
        <ele>624.9</ele>
      </trkpt>
      <trkpt lat="44.18449" lon="3.20738">
        <ele>625.9</ele>
      </trkpt>
      <trkpt lat="44.1845" lon="3.20759">
        <ele>626.6</ele>
      </trkpt>
      <trkpt lat="44.18442" lon="3.2079">
        <ele>630</ele>
      </trkpt>
      <trkpt lat="44.18432" lon="3.20806">
        <ele>632.5</ele>
      </trkpt>
      <trkpt lat="44.18427" lon="3.20804">
        <ele>635.6</ele>
      </trkpt>
      <trkpt lat="44.18427" lon="3.20793">
        <ele>638.2</ele>
      </trkpt>
      <trkpt lat="44.18436" lon="3.20764">
        <ele>636.4</ele>
      </trkpt>
      <trkpt lat="44.18436" lon="3.20746">
        <ele>636.3</ele>
      </trkpt>
      <trkpt lat="44.18395" lon="3.20694">
        <ele>642.8</ele>
      </trkpt>
      <trkpt lat="44.18332" lon="3.2063">
        <ele>649.8</ele>
      </trkpt>
      <trkpt lat="44.18302" lon="3.20611">
        <ele>649.4</ele>
      </trkpt>
      <trkpt lat="44.18223" lon="3.20603">
        <ele>659.4</ele>
      </trkpt>
      <trkpt lat="44.18196" lon="3.20599">
        <ele>659.9</ele>
      </trkpt>
      <trkpt lat="44.18168" lon="3.20588">
        <ele>663.7</ele>
      </trkpt>
      <trkpt lat="44.18141" lon="3.20573">
        <ele>664.7</ele>
      </trkpt>
      <trkpt lat="44.18107" lon="3.20566">
        <ele>672.6</ele>
      </trkpt>
      <trkpt lat="44.18065" lon="3.2054">
        <ele>676</ele>
      </trkpt>
      <trkpt lat="44.18034" lon="3.20518">
        <ele>678</ele>
      </trkpt>
      <trkpt lat="44.18018" lon="3.20484">
        <ele>673.1</ele>
      </trkpt>
      <trkpt lat="44.18011" lon="3.20485">
        <ele>674.3</ele>
      </trkpt>
      <trkpt lat="44.18003" lon="3.20496">
        <ele>677.7</ele>
      </trkpt>
      <trkpt lat="44.17988" lon="3.20515">
        <ele>682</ele>
      </trkpt>
      <trkpt lat="44.17963" lon="3.20529">
        <ele>682.6</ele>
      </trkpt>
      <trkpt lat="44.17937" lon="3.20547">
        <ele>683.7</ele>
      </trkpt>
      <trkpt lat="44.17891" lon="3.20598">
        <ele>688.3</ele>
      </trkpt>
      <trkpt lat="44.17858" lon="3.20647">
        <ele>692.2</ele>
      </trkpt>
      <trkpt lat="44.17845" lon="3.20666">
        <ele>690</ele>
      </trkpt>
      <trkpt lat="44.17843" lon="3.20686">
        <ele>691.9</ele>
      </trkpt>
      <trkpt lat="44.17851" lon="3.20714">
        <ele>694.7</ele>
      </trkpt>
      <trkpt lat="44.17858" lon="3.20731">
        <ele>696.9</ele>
      </trkpt>
      <trkpt lat="44.17852" lon="3.20749">
        <ele>698.2</ele>
      </trkpt>
      <trkpt lat="44.17834" lon="3.20762">
        <ele>699.7</ele>
      </trkpt>
      <trkpt lat="44.17811" lon="3.20774">
        <ele>701.1</ele>
      </trkpt>
      <trkpt lat="44.17787" lon="3.20802">
        <ele>701.3</ele>
      </trkpt>
      <trkpt lat="44.17762" lon="3.20841">
        <ele>705.6</ele>
      </trkpt>
      <trkpt lat="44.17699" lon="3.20896">
        <ele>709.5</ele>
      </trkpt>
      <trkpt lat="44.17674" lon="3.20923">
        <ele>712.9</ele>
      </trkpt>
      <trkpt lat="44.17657" lon="3.20916">
        <ele>712.3</ele>
      </trkpt>
      <trkpt lat="44.17604" lon="3.20867">
        <ele>717.1</ele>
      </trkpt>
      <trkpt lat="44.17568" lon="3.20861">
        <ele>719</ele>
      </trkpt>
      <trkpt lat="44.17534" lon="3.20844">
        <ele>721.5</ele>
      </trkpt>
      <trkpt lat="44.17508" lon="3.2083">
        <ele>721.8</ele>
      </trkpt>
      <trkpt lat="44.17475" lon="3.20817">
        <ele>723.2</ele>
      </trkpt>
      <trkpt lat="44.1743" lon="3.20813">
        <ele>725.2</ele>
      </trkpt>
      <trkpt lat="44.17391" lon="3.2081">
        <ele>727.1</ele>
      </trkpt>
      <trkpt lat="44.17367" lon="3.20807">
        <ele>728.7</ele>
      </trkpt>
      <trkpt lat="44.17343" lon="3.20785">
        <ele>728.8</ele>
      </trkpt>
      <trkpt lat="44.1733" lon="3.2078">
        <ele>729.2</ele>
      </trkpt>
      <trkpt lat="44.17319" lon="3.20707">
        <ele>724.7</ele>
      </trkpt>
      <trkpt lat="44.17321" lon="3.20643">
        <ele>725.3</ele>
      </trkpt>
      <trkpt lat="44.17333" lon="3.20578">
        <ele>728.4</ele>
      </trkpt>
      <trkpt lat="44.17348" lon="3.20487">
        <ele>736.2</ele>
      </trkpt>
      <trkpt lat="44.1735" lon="3.20454">
        <ele>737.3</ele>
      </trkpt>
      <trkpt lat="44.17347" lon="3.2042">
        <ele>737.9</ele>
      </trkpt>
      <trkpt lat="44.1734" lon="3.20377">
        <ele>738</ele>
      </trkpt>
      <trkpt lat="44.17331" lon="3.20342">
        <ele>738</ele>
      </trkpt>
      <trkpt lat="44.17321" lon="3.20316">
        <ele>737.2</ele>
      </trkpt>
      <trkpt lat="44.17302" lon="3.2029">
        <ele>737.1</ele>
      </trkpt>
      <trkpt lat="44.17283" lon="3.20287">
        <ele>737.8</ele>
      </trkpt>
      <trkpt lat="44.17267" lon="3.20295">
        <ele>738.5</ele>
      </trkpt>
      <trkpt lat="44.17257" lon="3.20302">
        <ele>738.8</ele>
      </trkpt>
      <trkpt lat="44.1724" lon="3.20301">
        <ele>739.5</ele>
      </trkpt>
      <trkpt lat="44.17231" lon="3.20293">
        <ele>740.2</ele>
      </trkpt>
      <trkpt lat="44.17223" lon="3.20278">
        <ele>741</ele>
      </trkpt>
      <trkpt lat="44.17225" lon="3.20218">
        <ele>743</ele>
      </trkpt>
      <trkpt lat="44.17212" lon="3.20228">
        <ele>743.9</ele>
      </trkpt>
      <trkpt lat="44.17182" lon="3.20226">
        <ele>747.2</ele>
      </trkpt>
      <trkpt lat="44.17158" lon="3.20231">
        <ele>750</ele>
      </trkpt>
      <trkpt lat="44.17144" lon="3.20225">
        <ele>751.5</ele>
      </trkpt>
      <trkpt lat="44.17139" lon="3.20213">
        <ele>751.7</ele>
      </trkpt>
      <trkpt lat="44.17121" lon="3.20197">
        <ele>752.3</ele>
      </trkpt>
      <trkpt lat="44.17105" lon="3.20195">
        <ele>753.3</ele>
      </trkpt>
      <trkpt lat="44.17092" lon="3.20201">
        <ele>753.9</ele>
      </trkpt>
      <trkpt lat="44.17048" lon="3.202">
        <ele>755.2</ele>
      </trkpt>
      <trkpt lat="44.17027" lon="3.20209">
        <ele>755.5</ele>
      </trkpt>
      <trkpt lat="44.16966" lon="3.20255">
        <ele>753.7</ele>
      </trkpt>
      <trkpt lat="44.16947" lon="3.20264">
        <ele>753.8</ele>
      </trkpt>
      <trkpt lat="44.16896" lon="3.20312">
        <ele>753.7</ele>
      </trkpt>
      <trkpt lat="44.16881" lon="3.2033">
        <ele>754.1</ele>
      </trkpt>
      <trkpt lat="44.1687" lon="3.20366">
        <ele>753.4</ele>
      </trkpt>
      <trkpt lat="44.16856" lon="3.20377">
        <ele>754.4</ele>
      </trkpt>
      <trkpt lat="44.16847" lon="3.20387">
        <ele>754.6</ele>
      </trkpt>
      <trkpt lat="44.16812" lon="3.20425">
        <ele>756.7</ele>
      </trkpt>
      <trkpt lat="44.16787" lon="3.20441">
        <ele>758.2</ele>
      </trkpt>
      <trkpt lat="44.16771" lon="3.20449">
        <ele>759.5</ele>
      </trkpt>
      <trkpt lat="44.16756" lon="3.20444">
        <ele>761.4</ele>
      </trkpt>
      <trkpt lat="44.16739" lon="3.20438">
        <ele>762.2</ele>
      </trkpt>
      <trkpt lat="44.16724" lon="3.20414">
        <ele>763</ele>
      </trkpt>
      <trkpt lat="44.16723" lon="3.20397">
        <ele>763</ele>
      </trkpt>
      <trkpt lat="44.16724" lon="3.20375">
        <ele>762.6</ele>
      </trkpt>
      <trkpt lat="44.16728" lon="3.20356">
        <ele>762.6</ele>
      </trkpt>
      <trkpt lat="44.16723" lon="3.20335">
        <ele>763</ele>
      </trkpt>
      <trkpt lat="44.16715" lon="3.20313">
        <ele>763.1</ele>
      </trkpt>
      <trkpt lat="44.16705" lon="3.20289">
        <ele>762</ele>
      </trkpt>
      <trkpt lat="44.16691" lon="3.20285">
        <ele>761.4</ele>
      </trkpt>
      <trkpt lat="44.16678" lon="3.20283">
        <ele>760.9</ele>
      </trkpt>
      <trkpt lat="44.16664" lon="3.20292">
        <ele>761.5</ele>
      </trkpt>
      <trkpt lat="44.16645" lon="3.20304">
        <ele>762.1</ele>
      </trkpt>
      <trkpt lat="44.16625" lon="3.20313">
        <ele>761.9</ele>
      </trkpt>
      <trkpt lat="44.16594" lon="3.20312">
        <ele>761.4</ele>
      </trkpt>
      <trkpt lat="44.16591" lon="3.20303">
        <ele>761</ele>
      </trkpt>
      <trkpt lat="44.16583" lon="3.20292">
        <ele>761</ele>
      </trkpt>
      <trkpt lat="44.16558" lon="3.20306">
        <ele>761</ele>
      </trkpt>
      <trkpt lat="44.16524" lon="3.20322">
        <ele>759.7</ele>
      </trkpt>
      <trkpt lat="44.16512" lon="3.20323">
        <ele>758.7</ele>
      </trkpt>
      <trkpt lat="44.16494" lon="3.20329">
        <ele>757.4</ele>
      </trkpt>
      <trkpt lat="44.16486" lon="3.2032">
        <ele>756.5</ele>
      </trkpt>
      <trkpt lat="44.16475" lon="3.20312">
        <ele>755.4</ele>
      </trkpt>
      <trkpt lat="44.16453" lon="3.20314">
        <ele>753.9</ele>
      </trkpt>
      <trkpt lat="44.16438" lon="3.20319">
        <ele>753.2</ele>
      </trkpt>
      <trkpt lat="44.1642" lon="3.20321">
        <ele>752.2</ele>
      </trkpt>
      <trkpt lat="44.16407" lon="3.20309">
        <ele>751.4</ele>
      </trkpt>
      <trkpt lat="44.16395" lon="3.20305">
        <ele>750.5</ele>
      </trkpt>
      <trkpt lat="44.16383" lon="3.20303">
        <ele>750</ele>
      </trkpt>
      <trkpt lat="44.1636" lon="3.20322">
        <ele>749.4</ele>
      </trkpt>
      <trkpt lat="44.16326" lon="3.2035">
        <ele>749.1</ele>
      </trkpt>
      <trkpt lat="44.16316" lon="3.20361">
        <ele>749</ele>
      </trkpt>
      <trkpt lat="44.16303" lon="3.20388">
        <ele>749</ele>
      </trkpt>
      <trkpt lat="44.16293" lon="3.20396">
        <ele>748.9</ele>
      </trkpt>
      <trkpt lat="44.16245" lon="3.20433">
        <ele>747.7</ele>
      </trkpt>
      <trkpt lat="44.16225" lon="3.20438">
        <ele>748.4</ele>
      </trkpt>
      <trkpt lat="44.16202" lon="3.20458">
        <ele>749.1</ele>
      </trkpt>
      <trkpt lat="44.16186" lon="3.20464">
        <ele>749.4</ele>
      </trkpt>
      <trkpt lat="44.1617" lon="3.20458">
        <ele>750</ele>
      </trkpt>
      <trkpt lat="44.16152" lon="3.20446">
        <ele>751.4</ele>
      </trkpt>
      <trkpt lat="44.16126" lon="3.2042">
        <ele>755.2</ele>
      </trkpt>
      <trkpt lat="44.16091" lon="3.20399">
        <ele>757.1</ele>
      </trkpt>
      <trkpt lat="44.16086" lon="3.20386">
        <ele>757.2</ele>
      </trkpt>
      <trkpt lat="44.16086" lon="3.20344">
        <ele>757.5</ele>
      </trkpt>
      <trkpt lat="44.16097" lon="3.20278">
        <ele>757.4</ele>
      </trkpt>
      <trkpt lat="44.16102" lon="3.20218">
        <ele>755.3</ele>
      </trkpt>
      <trkpt lat="44.16109" lon="3.2015">
        <ele>755</ele>
      </trkpt>
      <trkpt lat="44.16114" lon="3.20122">
        <ele>755.2</ele>
      </trkpt>
      <trkpt lat="44.16127" lon="3.20107">
        <ele>756.1</ele>
      </trkpt>
      <trkpt lat="44.16152" lon="3.201">
        <ele>760.4</ele>
        <time>2022-02-10T10:23:11Z</time>
        <extensions>
          <gpxtpx:TrackPointExtension xmlns:gpxtpx="http://www.garmin.com/xmlschemas/TrackPointExtension/v1">
            <gpxtpx:hr>153</gpxtpx:hr>
          </gpxtpx:TrackPointExtension>
        </extensions>
      </trkpt>
      <trkpt lat="44.16157" lon="3.20099">
        <ele>760.8</ele>
        <time>2022-02-10T10:23:13Z</time>
        <extensions>
          <gpxtpx:TrackPointExtension xmlns:gpxtpx="http://www.garmin.com/xmlschemas/TrackPointExtension/v1">
            <gpxtpx:hr>153</gpxtpx:hr>
          </gpxtpx:TrackPointExtension>
        </extensions>
      </trkpt>
      <trkpt lat="44.16161" lon="3.20097">
        <ele>761</ele>
        <time>2022-02-10T10:23:15Z</time>
        <extensions>
          <gpxtpx:TrackPointExtension xmlns:gpxtpx="http://www.garmin.com/xmlschemas/TrackPointExtension/v1">
            <gpxtpx:hr>154</gpxtpx:hr>
          </gpxtpx:TrackPointExtension>
        </extensions>
      </trkpt>
      <trkpt lat="44.16165" lon="3.20093">
        <ele>761.2</ele>
        <time>2022-02-10T10:23:17Z</time>
        <extensions>
          <gpxtpx:TrackPointExtension xmlns:gpxtpx="http://www.garmin.com/xmlschemas/TrackPointExtension/v1">
            <gpxtpx:hr>156</gpxtpx:hr>
          </gpxtpx:TrackPointExtension>
        </extensions>
      </trkpt>
      <trkpt lat="44.16169" lon="3.20089">
        <ele>761.6</ele>
        <time>2022-02-10T10:23:19Z</time>
        <extensions>
          <gpxtpx:TrackPointExtension xmlns:gpxtpx="http://www.garmin.com/xmlschemas/TrackPointExtension/v1">
            <gpxtpx:hr>155</gpxtpx:hr>
          </gpxtpx:TrackPointExtension>
        </extensions>
      </trkpt>
      <trkpt lat="44.16171" lon="3.20085">
        <ele>761.6</ele>
        <time>2022-02-10T10:23:21Z</time>
        <extensions>
          <gpxtpx:TrackPointExtension xmlns:gpxtpx="http://www.garmin.com/xmlschemas/TrackPointExtension/v1">
            <gpxtpx:hr>156</gpxtpx:hr>
          </gpxtpx:TrackPointExtension>
        </extensions>
      </trkpt>
      <trkpt lat="44.16173" lon="3.20083">
        <ele>761.8</ele>
        <time>2022-02-10T10:23:22Z</time>
        <extensions>
          <gpxtpx:TrackPointExtension xmlns:gpxtpx="http://www.garmin.com/xmlschemas/TrackPointExtension/v1">
            <gpxtpx:hr>155</gpxtpx:hr>
          </gpxtpx:TrackPointExtension>
        </extensions>
      </trkpt>
      <trkpt lat="44.16174" lon="3.20078">
        <ele>761.8</ele>
        <time>2022-02-10T10:23:24Z</time>
        <extensions>
          <gpxtpx:TrackPointExtension xmlns:gpxtpx="http://www.garmin.com/xmlschemas/TrackPointExtension/v1">
            <gpxtpx:hr>156</gpxtpx:hr>
          </gpxtpx:TrackPointExtension>
        </extensions>
      </trkpt>
      <trkpt lat="44.16175" lon="3.20075">
        <ele>761.8</ele>
        <time>2022-02-10T10:23:25Z</time>
        <extensions>
          <gpxtpx:TrackPointExtension xmlns:gpxtpx="http://www.garmin.com/xmlschemas/TrackPointExtension/v1">
            <gpxtpx:hr>156</gpxtpx:hr>
          </gpxtpx:TrackPointExtension>
        </extensions>
      </trkpt>
      <trkpt lat="44.16176" lon="3.20069">
        <ele>762</ele>
        <time>2022-02-10T10:23:27Z</time>
        <extensions>
          <gpxtpx:TrackPointExtension xmlns:gpxtpx="http://www.garmin.com/xmlschemas/TrackPointExtension/v1">
            <gpxtpx:hr>155</gpxtpx:hr>
          </gpxtpx:TrackPointExtension>
        </extensions>
      </trkpt>
      <trkpt lat="44.16177" lon="3.20066">
        <ele>762</ele>
        <time>2022-02-10T10:23:28Z</time>
        <extensions>
          <gpxtpx:TrackPointExtension xmlns:gpxtpx="http://www.garmin.com/xmlschemas/TrackPointExtension/v1">
            <gpxtpx:hr>156</gpxtpx:hr>
          </gpxtpx:TrackPointExtension>
        </extensions>
      </trkpt>
      <trkpt lat="44.16178" lon="3.20063">
        <ele>762.2</ele>
        <time>2022-02-10T10:23:29Z</time>
        <extensions>
          <gpxtpx:TrackPointExtension xmlns:gpxtpx="http://www.garmin.com/xmlschemas/TrackPointExtension/v1">
            <gpxtpx:hr>156</gpxtpx:hr>
          </gpxtpx:TrackPointExtension>
        </extensions>
      </trkpt>
      <trkpt lat="44.1618" lon="3.20056">
        <ele>762.2</ele>
        <time>2022-02-10T10:23:31Z</time>
        <extensions>
          <gpxtpx:TrackPointExtension xmlns:gpxtpx="http://www.garmin.com/xmlschemas/TrackPointExtension/v1">
            <gpxtpx:hr>158</gpxtpx:hr>
          </gpxtpx:TrackPointExtension>
        </extensions>
      </trkpt>
      <trkpt lat="44.16181" lon="3.20053">
        <ele>762.4</ele>
        <time>2022-02-10T10:23:32Z</time>
        <extensions>
          <gpxtpx:TrackPointExtension xmlns:gpxtpx="http://www.garmin.com/xmlschemas/TrackPointExtension/v1">
            <gpxtpx:hr>159</gpxtpx:hr>
          </gpxtpx:TrackPointExtension>
        </extensions>
      </trkpt>
      <trkpt lat="44.16182" lon="3.20047">
        <ele>762.4</ele>
        <time>2022-02-10T10:23:34Z</time>
        <extensions>
          <gpxtpx:TrackPointExtension xmlns:gpxtpx="http://www.garmin.com/xmlschemas/TrackPointExtension/v1">
            <gpxtpx:hr>162</gpxtpx:hr>
          </gpxtpx:TrackPointExtension>
        </extensions>
      </trkpt>
      <trkpt lat="44.16183" lon="3.20045">
        <ele>762.8</ele>
        <time>2022-02-10T10:23:35Z</time>
        <extensions>
          <gpxtpx:TrackPointExtension xmlns:gpxtpx="http://www.garmin.com/xmlschemas/TrackPointExtension/v1">
            <gpxtpx:hr>161</gpxtpx:hr>
          </gpxtpx:TrackPointExtension>
        </extensions>
      </trkpt>
      <trkpt lat="44.16183" lon="3.20042">
        <ele>762.8</ele>
        <time>2022-02-10T10:23:36Z</time>
        <extensions>
          <gpxtpx:TrackPointExtension xmlns:gpxtpx="http://www.garmin.com/xmlschemas/TrackPointExtension/v1">
            <gpxtpx:hr>159</gpxtpx:hr>
          </gpxtpx:TrackPointExtension>
        </extensions>
      </trkpt>
      <trkpt lat="44.16184" lon="3.20039">
        <ele>762.8</ele>
        <time>2022-02-10T10:23:37Z</time>
        <extensions>
          <gpxtpx:TrackPointExtension xmlns:gpxtpx="http://www.garmin.com/xmlschemas/TrackPointExtension/v1">
            <gpxtpx:hr>159</gpxtpx:hr>
          </gpxtpx:TrackPointExtension>
        </extensions>
      </trkpt>
      <trkpt lat="44.16185" lon="3.20036">
        <ele>763</ele>
        <time>2022-02-10T10:23:38Z</time>
        <extensions>
          <gpxtpx:TrackPointExtension xmlns:gpxtpx="http://www.garmin.com/xmlschemas/TrackPointExtension/v1">
            <gpxtpx:hr>161</gpxtpx:hr>
          </gpxtpx:TrackPointExtension>
        </extensions>
      </trkpt>
      <trkpt lat="44.16185" lon="3.2003">
        <ele>763</ele>
        <time>2022-02-10T10:23:40Z</time>
        <extensions>
          <gpxtpx:TrackPointExtension xmlns:gpxtpx="http://www.garmin.com/xmlschemas/TrackPointExtension/v1">
            <gpxtpx:hr>161</gpxtpx:hr>
          </gpxtpx:TrackPointExtension>
        </extensions>
      </trkpt>
      <trkpt lat="44.16186" lon="3.20027">
        <ele>763</ele>
        <time>2022-02-10T10:23:41Z</time>
        <extensions>
          <gpxtpx:TrackPointExtension xmlns:gpxtpx="http://www.garmin.com/xmlschemas/TrackPointExtension/v1">
            <gpxtpx:hr>161</gpxtpx:hr>
          </gpxtpx:TrackPointExtension>
        </extensions>
      </trkpt>
      <trkpt lat="44.16187" lon="3.20025">
        <ele>763</ele>
        <time>2022-02-10T10:23:42Z</time>
        <extensions>
          <gpxtpx:TrackPointExtension xmlns:gpxtpx="http://www.garmin.com/xmlschemas/TrackPointExtension/v1">
            <gpxtpx:hr>162</gpxtpx:hr>
          </gpxtpx:TrackPointExtension>
        </extensions>
      </trkpt>
      <trkpt lat="44.16187" lon="3.20022">
        <ele>763</ele>
        <time>2022-02-10T10:23:43Z</time>
        <extensions>
          <gpxtpx:TrackPointExtension xmlns:gpxtpx="http://www.garmin.com/xmlschemas/TrackPointExtension/v1">
            <gpxtpx:hr>161</gpxtpx:hr>
          </gpxtpx:TrackPointExtension>
        </extensions>
      </trkpt>
      <trkpt lat="44.16187" lon="3.20019">
        <ele>763</ele>
        <time>2022-02-10T10:23:44Z</time>
        <extensions>
          <gpxtpx:TrackPointExtension xmlns:gpxtpx="http://www.garmin.com/xmlschemas/TrackPointExtension/v1">
            <gpxtpx:hr>161</gpxtpx:hr>
          </gpxtpx:TrackPointExtension>
        </extensions>
      </trkpt>
      <trkpt lat="44.16188" lon="3.20016">
        <ele>763</ele>
        <time>2022-02-10T10:23:45Z</time>
        <extensions>
          <gpxtpx:TrackPointExtension xmlns:gpxtpx="http://www.garmin.com/xmlschemas/TrackPointExtension/v1">
            <gpxtpx:hr>161</gpxtpx:hr>
          </gpxtpx:TrackPointExtension>
        </extensions>
      </trkpt>
      <trkpt lat="44.16188" lon="3.20013">
        <ele>763</ele>
        <time>2022-02-10T10:23:46Z</time>
        <extensions>
          <gpxtpx:TrackPointExtension xmlns:gpxtpx="http://www.garmin.com/xmlschemas/TrackPointExtension/v1">
            <gpxtpx:hr>160</gpxtpx:hr>
          </gpxtpx:TrackPointExtension>
        </extensions>
      </trkpt>
      <trkpt lat="44.16188" lon="3.2001">
        <ele>763</ele>
        <time>2022-02-10T10:23:47Z</time>
        <extensions>
          <gpxtpx:TrackPointExtension xmlns:gpxtpx="http://www.garmin.com/xmlschemas/TrackPointExtension/v1">
            <gpxtpx:hr>161</gpxtpx:hr>
          </gpxtpx:TrackPointExtension>
        </extensions>
      </trkpt>
      <trkpt lat="44.16188" lon="3.20005">
        <ele>763.2</ele>
        <time>2022-02-10T10:23:49Z</time>
        <extensions>
          <gpxtpx:TrackPointExtension xmlns:gpxtpx="http://www.garmin.com/xmlschemas/TrackPointExtension/v1">
            <gpxtpx:hr>159</gpxtpx:hr>
          </gpxtpx:TrackPointExtension>
        </extensions>
      </trkpt>
      <trkpt lat="44.16187" lon="3.20002">
        <ele>763.2</ele>
        <time>2022-02-10T10:23:50Z</time>
        <extensions>
          <gpxtpx:TrackPointExtension xmlns:gpxtpx="http://www.garmin.com/xmlschemas/TrackPointExtension/v1">
            <gpxtpx:hr>159</gpxtpx:hr>
          </gpxtpx:TrackPointExtension>
        </extensions>
      </trkpt>
      <trkpt lat="44.16187" lon="3.19999">
        <ele>763.4</ele>
        <time>2022-02-10T10:23:51Z</time>
        <extensions>
          <gpxtpx:TrackPointExtension xmlns:gpxtpx="http://www.garmin.com/xmlschemas/TrackPointExtension/v1">
            <gpxtpx:hr>160</gpxtpx:hr>
          </gpxtpx:TrackPointExtension>
        </extensions>
      </trkpt>
      <trkpt lat="44.16187" lon="3.19997">
        <ele>763.4</ele>
        <time>2022-02-10T10:23:52Z</time>
        <extensions>
          <gpxtpx:TrackPointExtension xmlns:gpxtpx="http://www.garmin.com/xmlschemas/TrackPointExtension/v1">
            <gpxtpx:hr>159</gpxtpx:hr>
          </gpxtpx:TrackPointExtension>
        </extensions>
      </trkpt>
      <trkpt lat="44.16187" lon="3.19994">
        <ele>763.4</ele>
        <time>2022-02-10T10:23:53Z</time>
        <extensions>
          <gpxtpx:TrackPointExtension xmlns:gpxtpx="http://www.garmin.com/xmlschemas/TrackPointExtension/v1">
            <gpxtpx:hr>160</gpxtpx:hr>
          </gpxtpx:TrackPointExtension>
        </extensions>
      </trkpt>
      <trkpt lat="44.16187" lon="3.19991">
        <ele>763.4</ele>
        <time>2022-02-10T10:23:54Z</time>
        <extensions>
          <gpxtpx:TrackPointExtension xmlns:gpxtpx="http://www.garmin.com/xmlschemas/TrackPointExtension/v1">
            <gpxtpx:hr>162</gpxtpx:hr>
          </gpxtpx:TrackPointExtension>
        </extensions>
      </trkpt>
      <trkpt lat="44.16188" lon="3.19985">
        <ele>763.6</ele>
        <time>2022-02-10T10:23:56Z</time>
        <extensions>
          <gpxtpx:TrackPointExtension xmlns:gpxtpx="http://www.garmin.com/xmlschemas/TrackPointExtension/v1">
            <gpxtpx:hr>161</gpxtpx:hr>
          </gpxtpx:TrackPointExtension>
        </extensions>
      </trkpt>
      <trkpt lat="44.16189" lon="3.19982">
        <ele>763.6</ele>
        <time>2022-02-10T10:23:57Z</time>
        <extensions>
          <gpxtpx:TrackPointExtension xmlns:gpxtpx="http://www.garmin.com/xmlschemas/TrackPointExtension/v1">
            <gpxtpx:hr>162</gpxtpx:hr>
          </gpxtpx:TrackPointExtension>
        </extensions>
      </trkpt>
      <trkpt lat="44.1619" lon="3.19979">
        <ele>763.6</ele>
        <time>2022-02-10T10:23:58Z</time>
        <extensions>
          <gpxtpx:TrackPointExtension xmlns:gpxtpx="http://www.garmin.com/xmlschemas/TrackPointExtension/v1">
            <gpxtpx:hr>162</gpxtpx:hr>
          </gpxtpx:TrackPointExtension>
        </extensions>
      </trkpt>
      <trkpt lat="44.16193" lon="3.19973">
        <ele>764</ele>
        <time>2022-02-10T10:24:00Z</time>
        <extensions>
          <gpxtpx:TrackPointExtension xmlns:gpxtpx="http://www.garmin.com/xmlschemas/TrackPointExtension/v1">
            <gpxtpx:hr>161</gpxtpx:hr>
          </gpxtpx:TrackPointExtension>
        </extensions>
      </trkpt>
      <trkpt lat="44.16194" lon="3.19971">
        <ele>764</ele>
        <time>2022-02-10T10:24:01Z</time>
        <extensions>
          <gpxtpx:TrackPointExtension xmlns:gpxtpx="http://www.garmin.com/xmlschemas/TrackPointExtension/v1">
            <gpxtpx:hr>161</gpxtpx:hr>
          </gpxtpx:TrackPointExtension>
        </extensions>
      </trkpt>
      <trkpt lat="44.16196" lon="3.19969">
        <ele>764</ele>
        <time>2022-02-10T10:24:02Z</time>
        <extensions>
          <gpxtpx:TrackPointExtension xmlns:gpxtpx="http://www.garmin.com/xmlschemas/TrackPointExtension/v1">
            <gpxtpx:hr>162</gpxtpx:hr>
          </gpxtpx:TrackPointExtension>
        </extensions>
      </trkpt>
      <trkpt lat="44.16197" lon="3.19967">
        <ele>764</ele>
        <time>2022-02-10T10:24:03Z</time>
        <extensions>
          <gpxtpx:TrackPointExtension xmlns:gpxtpx="http://www.garmin.com/xmlschemas/TrackPointExtension/v1">
            <gpxtpx:hr>162</gpxtpx:hr>
          </gpxtpx:TrackPointExtension>
        </extensions>
      </trkpt>
      <trkpt lat="44.16201" lon="3.19963">
        <ele>764.2</ele>
        <time>2022-02-10T10:24:05Z</time>
        <extensions>
          <gpxtpx:TrackPointExtension xmlns:gpxtpx="http://www.garmin.com/xmlschemas/TrackPointExtension/v1">
            <gpxtpx:hr>161</gpxtpx:hr>
          </gpxtpx:TrackPointExtension>
        </extensions>
      </trkpt>
      <trkpt lat="44.16203" lon="3.19961">
        <ele>764.4</ele>
        <time>2022-02-10T10:24:06Z</time>
        <extensions>
          <gpxtpx:TrackPointExtension xmlns:gpxtpx="http://www.garmin.com/xmlschemas/TrackPointExtension/v1">
            <gpxtpx:hr>161</gpxtpx:hr>
          </gpxtpx:TrackPointExtension>
        </extensions>
      </trkpt>
      <trkpt lat="44.16205" lon="3.19958">
        <ele>764.4</ele>
        <time>2022-02-10T10:24:07Z</time>
        <extensions>
          <gpxtpx:TrackPointExtension xmlns:gpxtpx="http://www.garmin.com/xmlschemas/TrackPointExtension/v1">
            <gpxtpx:hr>160</gpxtpx:hr>
          </gpxtpx:TrackPointExtension>
        </extensions>
      </trkpt>
      <trkpt lat="44.16206" lon="3.19956">
        <ele>764.6</ele>
        <time>2022-02-10T10:24:08Z</time>
        <extensions>
          <gpxtpx:TrackPointExtension xmlns:gpxtpx="http://www.garmin.com/xmlschemas/TrackPointExtension/v1">
            <gpxtpx:hr>160</gpxtpx:hr>
          </gpxtpx:TrackPointExtension>
        </extensions>
      </trkpt>
      <trkpt lat="44.16207" lon="3.19953">
        <ele>764.6</ele>
        <time>2022-02-10T10:24:09Z</time>
        <extensions>
          <gpxtpx:TrackPointExtension xmlns:gpxtpx="http://www.garmin.com/xmlschemas/TrackPointExtension/v1">
            <gpxtpx:hr>160</gpxtpx:hr>
          </gpxtpx:TrackPointExtension>
        </extensions>
      </trkpt>
      <trkpt lat="44.16208" lon="3.1995">
        <ele>764.8</ele>
        <time>2022-02-10T10:24:10Z</time>
        <extensions>
          <gpxtpx:TrackPointExtension xmlns:gpxtpx="http://www.garmin.com/xmlschemas/TrackPointExtension/v1">
            <gpxtpx:hr>161</gpxtpx:hr>
          </gpxtpx:TrackPointExtension>
        </extensions>
      </trkpt>
      <trkpt lat="44.16209" lon="3.19947">
        <ele>764.8</ele>
        <time>2022-02-10T10:24:11Z</time>
        <extensions>
          <gpxtpx:TrackPointExtension xmlns:gpxtpx="http://www.garmin.com/xmlschemas/TrackPointExtension/v1">
            <gpxtpx:hr>161</gpxtpx:hr>
          </gpxtpx:TrackPointExtension>
        </extensions>
      </trkpt>
      <trkpt lat="44.1621" lon="3.19944">
        <ele>764.8</ele>
        <time>2022-02-10T10:24:12Z</time>
        <extensions>
          <gpxtpx:TrackPointExtension xmlns:gpxtpx="http://www.garmin.com/xmlschemas/TrackPointExtension/v1">
            <gpxtpx:hr>162</gpxtpx:hr>
          </gpxtpx:TrackPointExtension>
        </extensions>
      </trkpt>
      <trkpt lat="44.1621" lon="3.19941">
        <ele>765</ele>
        <time>2022-02-10T10:24:13Z</time>
        <extensions>
          <gpxtpx:TrackPointExtension xmlns:gpxtpx="http://www.garmin.com/xmlschemas/TrackPointExtension/v1">
            <gpxtpx:hr>161</gpxtpx:hr>
          </gpxtpx:TrackPointExtension>
        </extensions>
      </trkpt>
      <trkpt lat="44.16212" lon="3.19935">
        <ele>765</ele>
        <time>2022-02-10T10:24:15Z</time>
        <extensions>
          <gpxtpx:TrackPointExtension xmlns:gpxtpx="http://www.garmin.com/xmlschemas/TrackPointExtension/v1">
            <gpxtpx:hr>162</gpxtpx:hr>
          </gpxtpx:TrackPointExtension>
        </extensions>
      </trkpt>
      <trkpt lat="44.16213" lon="3.19929">
        <ele>765</ele>
        <time>2022-02-10T10:24:17Z</time>
        <extensions>
          <gpxtpx:TrackPointExtension xmlns:gpxtpx="http://www.garmin.com/xmlschemas/TrackPointExtension/v1">
            <gpxtpx:hr>162</gpxtpx:hr>
          </gpxtpx:TrackPointExtension>
        </extensions>
      </trkpt>
      <trkpt lat="44.16214" lon="3.19927">
        <ele>765.2</ele>
        <time>2022-02-10T10:24:18Z</time>
        <extensions>
          <gpxtpx:TrackPointExtension xmlns:gpxtpx="http://www.garmin.com/xmlschemas/TrackPointExtension/v1">
            <gpxtpx:hr>161</gpxtpx:hr>
          </gpxtpx:TrackPointExtension>
        </extensions>
      </trkpt>
      <trkpt lat="44.16215" lon="3.19924">
        <ele>765.2</ele>
        <time>2022-02-10T10:24:19Z</time>
        <extensions>
          <gpxtpx:TrackPointExtension xmlns:gpxtpx="http://www.garmin.com/xmlschemas/TrackPointExtension/v1">
            <gpxtpx:hr>161</gpxtpx:hr>
          </gpxtpx:TrackPointExtension>
        </extensions>
      </trkpt>
      <trkpt lat="44.16217" lon="3.19921">
        <ele>765.2</ele>
        <time>2022-02-10T10:24:20Z</time>
        <extensions>
          <gpxtpx:TrackPointExtension xmlns:gpxtpx="http://www.garmin.com/xmlschemas/TrackPointExtension/v1">
            <gpxtpx:hr>161</gpxtpx:hr>
          </gpxtpx:TrackPointExtension>
        </extensions>
      </trkpt>
      <trkpt lat="44.16218" lon="3.19919">
        <ele>765.2</ele>
        <time>2022-02-10T10:24:21Z</time>
        <extensions>
          <gpxtpx:TrackPointExtension xmlns:gpxtpx="http://www.garmin.com/xmlschemas/TrackPointExtension/v1">
            <gpxtpx:hr>161</gpxtpx:hr>
          </gpxtpx:TrackPointExtension>
        </extensions>
      </trkpt>
      <trkpt lat="44.16221" lon="3.19914">
        <ele>765.2</ele>
        <time>2022-02-10T10:24:23Z</time>
        <extensions>
          <gpxtpx:TrackPointExtension xmlns:gpxtpx="http://www.garmin.com/xmlschemas/TrackPointExtension/v1">
            <gpxtpx:hr>161</gpxtpx:hr>
          </gpxtpx:TrackPointExtension>
        </extensions>
      </trkpt>
      <trkpt lat="44.16223" lon="3.19909">
        <ele>765.4</ele>
        <time>2022-02-10T10:24:25Z</time>
        <extensions>
          <gpxtpx:TrackPointExtension xmlns:gpxtpx="http://www.garmin.com/xmlschemas/TrackPointExtension/v1">
            <gpxtpx:hr>161</gpxtpx:hr>
          </gpxtpx:TrackPointExtension>
        </extensions>
      </trkpt>
      <trkpt lat="44.16225" lon="3.19907">
        <ele>765.4</ele>
        <time>2022-02-10T10:24:26Z</time>
        <extensions>
          <gpxtpx:TrackPointExtension xmlns:gpxtpx="http://www.garmin.com/xmlschemas/TrackPointExtension/v1">
            <gpxtpx:hr>162</gpxtpx:hr>
          </gpxtpx:TrackPointExtension>
        </extensions>
      </trkpt>
      <trkpt lat="44.16226" lon="3.19904">
        <ele>765.4</ele>
        <time>2022-02-10T10:24:27Z</time>
        <extensions>
          <gpxtpx:TrackPointExtension xmlns:gpxtpx="http://www.garmin.com/xmlschemas/TrackPointExtension/v1">
            <gpxtpx:hr>162</gpxtpx:hr>
          </gpxtpx:TrackPointExtension>
        </extensions>
      </trkpt>
      <trkpt lat="44.16228" lon="3.199">
        <ele>765.6</ele>
        <time>2022-02-10T10:24:29Z</time>
        <extensions>
          <gpxtpx:TrackPointExtension xmlns:gpxtpx="http://www.garmin.com/xmlschemas/TrackPointExtension/v1">
            <gpxtpx:hr>161</gpxtpx:hr>
          </gpxtpx:TrackPointExtension>
        </extensions>
      </trkpt>
      <trkpt lat="44.16229" lon="3.19898">
        <ele>765.6</ele>
        <time>2022-02-10T10:24:30Z</time>
        <extensions>
          <gpxtpx:TrackPointExtension xmlns:gpxtpx="http://www.garmin.com/xmlschemas/TrackPointExtension/v1">
            <gpxtpx:hr>161</gpxtpx:hr>
          </gpxtpx:TrackPointExtension>
        </extensions>
      </trkpt>
      <trkpt lat="44.1623" lon="3.19895">
        <ele>765.6</ele>
        <time>2022-02-10T10:24:31Z</time>
        <extensions>
          <gpxtpx:TrackPointExtension xmlns:gpxtpx="http://www.garmin.com/xmlschemas/TrackPointExtension/v1">
            <gpxtpx:hr>161</gpxtpx:hr>
          </gpxtpx:TrackPointExtension>
        </extensions>
      </trkpt>
      <trkpt lat="44.16234" lon="3.1989">
        <ele>765.6</ele>
        <time>2022-02-10T10:24:34Z</time>
        <extensions>
          <gpxtpx:TrackPointExtension xmlns:gpxtpx="http://www.garmin.com/xmlschemas/TrackPointExtension/v1">
            <gpxtpx:hr>161</gpxtpx:hr>
          </gpxtpx:TrackPointExtension>
        </extensions>
      </trkpt>
      <trkpt lat="44.16235" lon="3.19887">
        <ele>766</ele>
        <time>2022-02-10T10:24:35Z</time>
        <extensions>
          <gpxtpx:TrackPointExtension xmlns:gpxtpx="http://www.garmin.com/xmlschemas/TrackPointExtension/v1">
            <gpxtpx:hr>160</gpxtpx:hr>
          </gpxtpx:TrackPointExtension>
        </extensions>
      </trkpt>
      <trkpt lat="44.16239" lon="3.1988">
        <ele>766</ele>
        <time>2022-02-10T10:24:38Z</time>
        <extensions>
          <gpxtpx:TrackPointExtension xmlns:gpxtpx="http://www.garmin.com/xmlschemas/TrackPointExtension/v1">
            <gpxtpx:hr>161</gpxtpx:hr>
          </gpxtpx:TrackPointExtension>
        </extensions>
      </trkpt>
      <trkpt lat="44.16239" lon="3.19878">
        <ele>766.2</ele>
        <time>2022-02-10T10:24:39Z</time>
        <extensions>
          <gpxtpx:TrackPointExtension xmlns:gpxtpx="http://www.garmin.com/xmlschemas/TrackPointExtension/v1">
            <gpxtpx:hr>161</gpxtpx:hr>
          </gpxtpx:TrackPointExtension>
        </extensions>
      </trkpt>
      <trkpt lat="44.16241" lon="3.19873">
        <ele>766.4</ele>
        <time>2022-02-10T10:24:41Z</time>
        <extensions>
          <gpxtpx:TrackPointExtension xmlns:gpxtpx="http://www.garmin.com/xmlschemas/TrackPointExtension/v1">
            <gpxtpx:hr>161</gpxtpx:hr>
          </gpxtpx:TrackPointExtension>
        </extensions>
      </trkpt>
      <trkpt lat="44.16241" lon="3.1987">
        <ele>766.4</ele>
        <time>2022-02-10T10:24:42Z</time>
        <extensions>
          <gpxtpx:TrackPointExtension xmlns:gpxtpx="http://www.garmin.com/xmlschemas/TrackPointExtension/v1">
            <gpxtpx:hr>160</gpxtpx:hr>
          </gpxtpx:TrackPointExtension>
        </extensions>
      </trkpt>
      <trkpt lat="44.16242" lon="3.19868">
        <ele>766.4</ele>
        <time>2022-02-10T10:24:43Z</time>
        <extensions>
          <gpxtpx:TrackPointExtension xmlns:gpxtpx="http://www.garmin.com/xmlschemas/TrackPointExtension/v1">
            <gpxtpx:hr>160</gpxtpx:hr>
          </gpxtpx:TrackPointExtension>
        </extensions>
      </trkpt>
      <trkpt lat="44.16244" lon="3.19863">
        <ele>766.6</ele>
        <time>2022-02-10T10:24:45Z</time>
        <extensions>
          <gpxtpx:TrackPointExtension xmlns:gpxtpx="http://www.garmin.com/xmlschemas/TrackPointExtension/v1">
            <gpxtpx:hr>161</gpxtpx:hr>
          </gpxtpx:TrackPointExtension>
        </extensions>
      </trkpt>
      <trkpt lat="44.16246" lon="3.19857">
        <ele>766.6</ele>
        <time>2022-02-10T10:24:47Z</time>
        <extensions>
          <gpxtpx:TrackPointExtension xmlns:gpxtpx="http://www.garmin.com/xmlschemas/TrackPointExtension/v1">
            <gpxtpx:hr>161</gpxtpx:hr>
          </gpxtpx:TrackPointExtension>
        </extensions>
      </trkpt>
      <trkpt lat="44.16248" lon="3.19852">
        <ele>766.8</ele>
        <time>2022-02-10T10:24:49Z</time>
        <extensions>
          <gpxtpx:TrackPointExtension xmlns:gpxtpx="http://www.garmin.com/xmlschemas/TrackPointExtension/v1">
            <gpxtpx:hr>162</gpxtpx:hr>
          </gpxtpx:TrackPointExtension>
        </extensions>
      </trkpt>
      <trkpt lat="44.16249" lon="3.1985">
        <ele>766.8</ele>
        <time>2022-02-10T10:24:50Z</time>
        <extensions>
          <gpxtpx:TrackPointExtension xmlns:gpxtpx="http://www.garmin.com/xmlschemas/TrackPointExtension/v1">
            <gpxtpx:hr>162</gpxtpx:hr>
          </gpxtpx:TrackPointExtension>
        </extensions>
      </trkpt>
      <trkpt lat="44.1625" lon="3.19847">
        <ele>766.8</ele>
        <time>2022-02-10T10:24:51Z</time>
        <extensions>
          <gpxtpx:TrackPointExtension xmlns:gpxtpx="http://www.garmin.com/xmlschemas/TrackPointExtension/v1">
            <gpxtpx:hr>162</gpxtpx:hr>
          </gpxtpx:TrackPointExtension>
        </extensions>
      </trkpt>
      <trkpt lat="44.16251" lon="3.19842">
        <ele>767</ele>
        <time>2022-02-10T10:24:53Z</time>
        <extensions>
          <gpxtpx:TrackPointExtension xmlns:gpxtpx="http://www.garmin.com/xmlschemas/TrackPointExtension/v1">
            <gpxtpx:hr>161</gpxtpx:hr>
          </gpxtpx:TrackPointExtension>
        </extensions>
      </trkpt>
      <trkpt lat="44.16252" lon="3.19839">
        <ele>767.2</ele>
        <time>2022-02-10T10:24:54Z</time>
        <extensions>
          <gpxtpx:TrackPointExtension xmlns:gpxtpx="http://www.garmin.com/xmlschemas/TrackPointExtension/v1">
            <gpxtpx:hr>161</gpxtpx:hr>
          </gpxtpx:TrackPointExtension>
        </extensions>
      </trkpt>
      <trkpt lat="44.16252" lon="3.19836">
        <ele>767.2</ele>
        <time>2022-02-10T10:24:55Z</time>
        <extensions>
          <gpxtpx:TrackPointExtension xmlns:gpxtpx="http://www.garmin.com/xmlschemas/TrackPointExtension/v1">
            <gpxtpx:hr>161</gpxtpx:hr>
          </gpxtpx:TrackPointExtension>
        </extensions>
      </trkpt>
      <trkpt lat="44.16252" lon="3.19833">
        <ele>767.6</ele>
        <time>2022-02-10T10:24:56Z</time>
        <extensions>
          <gpxtpx:TrackPointExtension xmlns:gpxtpx="http://www.garmin.com/xmlschemas/TrackPointExtension/v1">
            <gpxtpx:hr>163</gpxtpx:hr>
          </gpxtpx:TrackPointExtension>
        </extensions>
      </trkpt>
      <trkpt lat="44.16252" lon="3.19828">
        <ele>767.6</ele>
        <time>2022-02-10T10:24:58Z</time>
        <extensions>
          <gpxtpx:TrackPointExtension xmlns:gpxtpx="http://www.garmin.com/xmlschemas/TrackPointExtension/v1">
            <gpxtpx:hr>163</gpxtpx:hr>
          </gpxtpx:TrackPointExtension>
        </extensions>
      </trkpt>
      <trkpt lat="44.16252" lon="3.19822">
        <ele>767.8</ele>
        <time>2022-02-10T10:25:00Z</time>
        <extensions>
          <gpxtpx:TrackPointExtension xmlns:gpxtpx="http://www.garmin.com/xmlschemas/TrackPointExtension/v1">
            <gpxtpx:hr>160</gpxtpx:hr>
          </gpxtpx:TrackPointExtension>
        </extensions>
      </trkpt>
      <trkpt lat="44.16253" lon="3.19817">
        <ele>767.8</ele>
        <time>2022-02-10T10:25:02Z</time>
        <extensions>
          <gpxtpx:TrackPointExtension xmlns:gpxtpx="http://www.garmin.com/xmlschemas/TrackPointExtension/v1">
            <gpxtpx:hr>161</gpxtpx:hr>
          </gpxtpx:TrackPointExtension>
        </extensions>
      </trkpt>
      <trkpt lat="44.16254" lon="3.19811">
        <ele>768</ele>
        <time>2022-02-10T10:25:04Z</time>
        <extensions>
          <gpxtpx:TrackPointExtension xmlns:gpxtpx="http://www.garmin.com/xmlschemas/TrackPointExtension/v1">
            <gpxtpx:hr>161</gpxtpx:hr>
          </gpxtpx:TrackPointExtension>
        </extensions>
      </trkpt>
      <trkpt lat="44.16255" lon="3.19808">
        <ele>768</ele>
        <time>2022-02-10T10:25:05Z</time>
        <extensions>
          <gpxtpx:TrackPointExtension xmlns:gpxtpx="http://www.garmin.com/xmlschemas/TrackPointExtension/v1">
            <gpxtpx:hr>161</gpxtpx:hr>
          </gpxtpx:TrackPointExtension>
        </extensions>
      </trkpt>
      <trkpt lat="44.16256" lon="3.19805">
        <ele>768.4</ele>
        <time>2022-02-10T10:25:06Z</time>
        <extensions>
          <gpxtpx:TrackPointExtension xmlns:gpxtpx="http://www.garmin.com/xmlschemas/TrackPointExtension/v1">
            <gpxtpx:hr>161</gpxtpx:hr>
          </gpxtpx:TrackPointExtension>
        </extensions>
      </trkpt>
      <trkpt lat="44.16258" lon="3.19799">
        <ele>768.4</ele>
        <time>2022-02-10T10:25:08Z</time>
        <extensions>
          <gpxtpx:TrackPointExtension xmlns:gpxtpx="http://www.garmin.com/xmlschemas/TrackPointExtension/v1">
            <gpxtpx:hr>161</gpxtpx:hr>
          </gpxtpx:TrackPointExtension>
        </extensions>
      </trkpt>
      <trkpt lat="44.16259" lon="3.19797">
        <ele>768.6</ele>
        <time>2022-02-10T10:25:09Z</time>
        <extensions>
          <gpxtpx:TrackPointExtension xmlns:gpxtpx="http://www.garmin.com/xmlschemas/TrackPointExtension/v1">
            <gpxtpx:hr>160</gpxtpx:hr>
          </gpxtpx:TrackPointExtension>
        </extensions>
      </trkpt>
      <trkpt lat="44.1626" lon="3.19794">
        <ele>768.6</ele>
        <time>2022-02-10T10:25:10Z</time>
        <extensions>
          <gpxtpx:TrackPointExtension xmlns:gpxtpx="http://www.garmin.com/xmlschemas/TrackPointExtension/v1">
            <gpxtpx:hr>160</gpxtpx:hr>
          </gpxtpx:TrackPointExtension>
        </extensions>
      </trkpt>
      <trkpt lat="44.16261" lon="3.19789">
        <ele>768.6</ele>
        <time>2022-02-10T10:25:12Z</time>
        <extensions>
          <gpxtpx:TrackPointExtension xmlns:gpxtpx="http://www.garmin.com/xmlschemas/TrackPointExtension/v1">
            <gpxtpx:hr>160</gpxtpx:hr>
          </gpxtpx:TrackPointExtension>
        </extensions>
      </trkpt>
      <trkpt lat="44.16263" lon="3.19784">
        <ele>768.8</ele>
        <time>2022-02-10T10:25:14Z</time>
        <extensions>
          <gpxtpx:TrackPointExtension xmlns:gpxtpx="http://www.garmin.com/xmlschemas/TrackPointExtension/v1">
            <gpxtpx:hr>160</gpxtpx:hr>
          </gpxtpx:TrackPointExtension>
        </extensions>
      </trkpt>
      <trkpt lat="44.16264" lon="3.19779">
        <ele>768.8</ele>
        <time>2022-02-10T10:25:16Z</time>
        <extensions>
          <gpxtpx:TrackPointExtension xmlns:gpxtpx="http://www.garmin.com/xmlschemas/TrackPointExtension/v1">
            <gpxtpx:hr>160</gpxtpx:hr>
          </gpxtpx:TrackPointExtension>
        </extensions>
      </trkpt>
      <trkpt lat="44.16265" lon="3.19773">
        <ele>768.8</ele>
        <time>2022-02-10T10:25:18Z</time>
        <extensions>
          <gpxtpx:TrackPointExtension xmlns:gpxtpx="http://www.garmin.com/xmlschemas/TrackPointExtension/v1">
            <gpxtpx:hr>160</gpxtpx:hr>
          </gpxtpx:TrackPointExtension>
        </extensions>
      </trkpt>
      <trkpt lat="44.16266" lon="3.19768">
        <ele>768.8</ele>
        <time>2022-02-10T10:25:20Z</time>
        <extensions>
          <gpxtpx:TrackPointExtension xmlns:gpxtpx="http://www.garmin.com/xmlschemas/TrackPointExtension/v1">
            <gpxtpx:hr>159</gpxtpx:hr>
          </gpxtpx:TrackPointExtension>
        </extensions>
      </trkpt>
      <trkpt lat="44.16267" lon="3.19766">
        <ele>769</ele>
        <time>2022-02-10T10:25:21Z</time>
        <extensions>
          <gpxtpx:TrackPointExtension xmlns:gpxtpx="http://www.garmin.com/xmlschemas/TrackPointExtension/v1">
            <gpxtpx:hr>158</gpxtpx:hr>
          </gpxtpx:TrackPointExtension>
        </extensions>
      </trkpt>
      <trkpt lat="44.16268" lon="3.19763">
        <ele>769</ele>
        <time>2022-02-10T10:25:22Z</time>
        <extensions>
          <gpxtpx:TrackPointExtension xmlns:gpxtpx="http://www.garmin.com/xmlschemas/TrackPointExtension/v1">
            <gpxtpx:hr>158</gpxtpx:hr>
          </gpxtpx:TrackPointExtension>
        </extensions>
      </trkpt>
      <trkpt lat="44.1627" lon="3.19759">
        <ele>769</ele>
        <time>2022-02-10T10:25:24Z</time>
        <extensions>
          <gpxtpx:TrackPointExtension xmlns:gpxtpx="http://www.garmin.com/xmlschemas/TrackPointExtension/v1">
            <gpxtpx:hr>157</gpxtpx:hr>
          </gpxtpx:TrackPointExtension>
        </extensions>
      </trkpt>
      <trkpt lat="44.16272" lon="3.19754">
        <ele>769.2</ele>
        <time>2022-02-10T10:25:26Z</time>
        <extensions>
          <gpxtpx:TrackPointExtension xmlns:gpxtpx="http://www.garmin.com/xmlschemas/TrackPointExtension/v1">
            <gpxtpx:hr>157</gpxtpx:hr>
          </gpxtpx:TrackPointExtension>
        </extensions>
      </trkpt>
      <trkpt lat="44.16277" lon="3.19749">
        <ele>769.2</ele>
        <time>2022-02-10T10:25:29Z</time>
        <extensions>
          <gpxtpx:TrackPointExtension xmlns:gpxtpx="http://www.garmin.com/xmlschemas/TrackPointExtension/v1">
            <gpxtpx:hr>159</gpxtpx:hr>
          </gpxtpx:TrackPointExtension>
        </extensions>
      </trkpt>
      <trkpt lat="44.16281" lon="3.19744">
        <ele>769.2</ele>
        <time>2022-02-10T10:25:31Z</time>
        <extensions>
          <gpxtpx:TrackPointExtension xmlns:gpxtpx="http://www.garmin.com/xmlschemas/TrackPointExtension/v1">
            <gpxtpx:hr>158</gpxtpx:hr>
          </gpxtpx:TrackPointExtension>
        </extensions>
      </trkpt>
      <trkpt lat="44.16282" lon="3.19743">
        <ele>769</ele>
        <time>2022-02-10T10:25:32Z</time>
        <extensions>
          <gpxtpx:TrackPointExtension xmlns:gpxtpx="http://www.garmin.com/xmlschemas/TrackPointExtension/v1">
            <gpxtpx:hr>158</gpxtpx:hr>
          </gpxtpx:TrackPointExtension>
        </extensions>
      </trkpt>
      <trkpt lat="44.16286" lon="3.19737">
        <ele>769</ele>
        <time>2022-02-10T10:25:35Z</time>
        <extensions>
          <gpxtpx:TrackPointExtension xmlns:gpxtpx="http://www.garmin.com/xmlschemas/TrackPointExtension/v1">
            <gpxtpx:hr>159</gpxtpx:hr>
          </gpxtpx:TrackPointExtension>
        </extensions>
      </trkpt>
      <trkpt lat="44.16288" lon="3.19732">
        <ele>769</ele>
        <time>2022-02-10T10:25:37Z</time>
        <extensions>
          <gpxtpx:TrackPointExtension xmlns:gpxtpx="http://www.garmin.com/xmlschemas/TrackPointExtension/v1">
            <gpxtpx:hr>158</gpxtpx:hr>
          </gpxtpx:TrackPointExtension>
        </extensions>
      </trkpt>
      <trkpt lat="44.16291" lon="3.19728">
        <ele>769</ele>
        <time>2022-02-10T10:25:39Z</time>
        <extensions>
          <gpxtpx:TrackPointExtension xmlns:gpxtpx="http://www.garmin.com/xmlschemas/TrackPointExtension/v1">
            <gpxtpx:hr>158</gpxtpx:hr>
          </gpxtpx:TrackPointExtension>
        </extensions>
      </trkpt>
      <trkpt lat="44.16292" lon="3.19725">
        <ele>769</ele>
        <time>2022-02-10T10:25:40Z</time>
        <extensions>
          <gpxtpx:TrackPointExtension xmlns:gpxtpx="http://www.garmin.com/xmlschemas/TrackPointExtension/v1">
            <gpxtpx:hr>159</gpxtpx:hr>
          </gpxtpx:TrackPointExtension>
        </extensions>
      </trkpt>
      <trkpt lat="44.16293" lon="3.19723">
        <ele>769</ele>
        <time>2022-02-10T10:25:41Z</time>
        <extensions>
          <gpxtpx:TrackPointExtension xmlns:gpxtpx="http://www.garmin.com/xmlschemas/TrackPointExtension/v1">
            <gpxtpx:hr>159</gpxtpx:hr>
          </gpxtpx:TrackPointExtension>
        </extensions>
      </trkpt>
      <trkpt lat="44.16295" lon="3.19721">
        <ele>769</ele>
        <time>2022-02-10T10:25:42Z</time>
        <extensions>
          <gpxtpx:TrackPointExtension xmlns:gpxtpx="http://www.garmin.com/xmlschemas/TrackPointExtension/v1">
            <gpxtpx:hr>159</gpxtpx:hr>
          </gpxtpx:TrackPointExtension>
        </extensions>
      </trkpt>
      <trkpt lat="44.16298" lon="3.19716">
        <ele>769</ele>
        <time>2022-02-10T10:25:44Z</time>
        <extensions>
          <gpxtpx:TrackPointExtension xmlns:gpxtpx="http://www.garmin.com/xmlschemas/TrackPointExtension/v1">
            <gpxtpx:hr>158</gpxtpx:hr>
          </gpxtpx:TrackPointExtension>
        </extensions>
      </trkpt>
      <trkpt lat="44.16301" lon="3.19712">
        <ele>769</ele>
        <time>2022-02-10T10:25:46Z</time>
        <extensions>
          <gpxtpx:TrackPointExtension xmlns:gpxtpx="http://www.garmin.com/xmlschemas/TrackPointExtension/v1">
            <gpxtpx:hr>159</gpxtpx:hr>
          </gpxtpx:TrackPointExtension>
        </extensions>
      </trkpt>
      <trkpt lat="44.16305" lon="3.19709">
        <ele>769</ele>
        <time>2022-02-10T10:25:48Z</time>
        <extensions>
          <gpxtpx:TrackPointExtension xmlns:gpxtpx="http://www.garmin.com/xmlschemas/TrackPointExtension/v1">
            <gpxtpx:hr>159</gpxtpx:hr>
          </gpxtpx:TrackPointExtension>
        </extensions>
      </trkpt>
      <trkpt lat="44.16309" lon="3.19705">
        <ele>769</ele>
        <time>2022-02-10T10:25:50Z</time>
        <extensions>
          <gpxtpx:TrackPointExtension xmlns:gpxtpx="http://www.garmin.com/xmlschemas/TrackPointExtension/v1">
            <gpxtpx:hr>158</gpxtpx:hr>
          </gpxtpx:TrackPointExtension>
        </extensions>
      </trkpt>
      <trkpt lat="44.16312" lon="3.19701">
        <ele>769</ele>
        <time>2022-02-10T10:25:52Z</time>
        <extensions>
          <gpxtpx:TrackPointExtension xmlns:gpxtpx="http://www.garmin.com/xmlschemas/TrackPointExtension/v1">
            <gpxtpx:hr>157</gpxtpx:hr>
          </gpxtpx:TrackPointExtension>
        </extensions>
      </trkpt>
      <trkpt lat="44.16315" lon="3.19696">
        <ele>769</ele>
        <time>2022-02-10T10:25:54Z</time>
        <extensions>
          <gpxtpx:TrackPointExtension xmlns:gpxtpx="http://www.garmin.com/xmlschemas/TrackPointExtension/v1">
            <gpxtpx:hr>158</gpxtpx:hr>
          </gpxtpx:TrackPointExtension>
        </extensions>
      </trkpt>
      <trkpt lat="44.16317" lon="3.19691">
        <ele>769.2</ele>
        <time>2022-02-10T10:25:56Z</time>
        <extensions>
          <gpxtpx:TrackPointExtension xmlns:gpxtpx="http://www.garmin.com/xmlschemas/TrackPointExtension/v1">
            <gpxtpx:hr>158</gpxtpx:hr>
          </gpxtpx:TrackPointExtension>
        </extensions>
      </trkpt>
      <trkpt lat="44.16319" lon="3.19689">
        <ele>769.2</ele>
        <time>2022-02-10T10:25:57Z</time>
        <extensions>
          <gpxtpx:TrackPointExtension xmlns:gpxtpx="http://www.garmin.com/xmlschemas/TrackPointExtension/v1">
            <gpxtpx:hr>158</gpxtpx:hr>
          </gpxtpx:TrackPointExtension>
        </extensions>
      </trkpt>
      <trkpt lat="44.16322" lon="3.19685">
        <ele>769.2</ele>
        <time>2022-02-10T10:25:59Z</time>
        <extensions>
          <gpxtpx:TrackPointExtension xmlns:gpxtpx="http://www.garmin.com/xmlschemas/TrackPointExtension/v1">
            <gpxtpx:hr>159</gpxtpx:hr>
          </gpxtpx:TrackPointExtension>
        </extensions>
      </trkpt>
      <trkpt lat="44.16325" lon="3.19681">
        <ele>769.2</ele>
        <time>2022-02-10T10:26:01Z</time>
        <extensions>
          <gpxtpx:TrackPointExtension xmlns:gpxtpx="http://www.garmin.com/xmlschemas/TrackPointExtension/v1">
            <gpxtpx:hr>161</gpxtpx:hr>
          </gpxtpx:TrackPointExtension>
        </extensions>
      </trkpt>
      <trkpt lat="44.16328" lon="3.19677">
        <ele>769.2</ele>
        <time>2022-02-10T10:26:03Z</time>
        <extensions>
          <gpxtpx:TrackPointExtension xmlns:gpxtpx="http://www.garmin.com/xmlschemas/TrackPointExtension/v1">
            <gpxtpx:hr>160</gpxtpx:hr>
          </gpxtpx:TrackPointExtension>
        </extensions>
      </trkpt>
      <trkpt lat="44.16331" lon="3.19673">
        <ele>769.2</ele>
        <time>2022-02-10T10:26:05Z</time>
        <extensions>
          <gpxtpx:TrackPointExtension xmlns:gpxtpx="http://www.garmin.com/xmlschemas/TrackPointExtension/v1">
            <gpxtpx:hr>161</gpxtpx:hr>
          </gpxtpx:TrackPointExtension>
        </extensions>
      </trkpt>
      <trkpt lat="44.16333" lon="3.19668">
        <ele>769.2</ele>
        <time>2022-02-10T10:26:07Z</time>
        <extensions>
          <gpxtpx:TrackPointExtension xmlns:gpxtpx="http://www.garmin.com/xmlschemas/TrackPointExtension/v1">
            <gpxtpx:hr>160</gpxtpx:hr>
          </gpxtpx:TrackPointExtension>
        </extensions>
      </trkpt>
      <trkpt lat="44.16335" lon="3.19664">
        <ele>769.6</ele>
        <time>2022-02-10T10:26:09Z</time>
        <extensions>
          <gpxtpx:TrackPointExtension xmlns:gpxtpx="http://www.garmin.com/xmlschemas/TrackPointExtension/v1">
            <gpxtpx:hr>158</gpxtpx:hr>
          </gpxtpx:TrackPointExtension>
        </extensions>
      </trkpt>
      <trkpt lat="44.16338" lon="3.1966">
        <ele>769.8</ele>
        <time>2022-02-10T10:26:11Z</time>
        <extensions>
          <gpxtpx:TrackPointExtension xmlns:gpxtpx="http://www.garmin.com/xmlschemas/TrackPointExtension/v1">
            <gpxtpx:hr>158</gpxtpx:hr>
          </gpxtpx:TrackPointExtension>
        </extensions>
      </trkpt>
      <trkpt lat="44.1634" lon="3.19657">
        <ele>769.8</ele>
        <time>2022-02-10T10:26:13Z</time>
        <extensions>
          <gpxtpx:TrackPointExtension xmlns:gpxtpx="http://www.garmin.com/xmlschemas/TrackPointExtension/v1">
            <gpxtpx:hr>161</gpxtpx:hr>
          </gpxtpx:TrackPointExtension>
        </extensions>
      </trkpt>
      <trkpt lat="44.16343" lon="3.19654">
        <ele>770</ele>
        <time>2022-02-10T10:26:15Z</time>
        <extensions>
          <gpxtpx:TrackPointExtension xmlns:gpxtpx="http://www.garmin.com/xmlschemas/TrackPointExtension/v1">
            <gpxtpx:hr>161</gpxtpx:hr>
          </gpxtpx:TrackPointExtension>
        </extensions>
      </trkpt>
      <trkpt lat="44.16345" lon="3.19651">
        <ele>770</ele>
        <time>2022-02-10T10:26:17Z</time>
        <extensions>
          <gpxtpx:TrackPointExtension xmlns:gpxtpx="http://www.garmin.com/xmlschemas/TrackPointExtension/v1">
            <gpxtpx:hr>162</gpxtpx:hr>
          </gpxtpx:TrackPointExtension>
        </extensions>
      </trkpt>
      <trkpt lat="44.16347" lon="3.19647">
        <ele>770.4</ele>
        <time>2022-02-10T10:26:19Z</time>
        <extensions>
          <gpxtpx:TrackPointExtension xmlns:gpxtpx="http://www.garmin.com/xmlschemas/TrackPointExtension/v1">
            <gpxtpx:hr>163</gpxtpx:hr>
          </gpxtpx:TrackPointExtension>
        </extensions>
      </trkpt>
      <trkpt lat="44.16349" lon="3.19642">
        <ele>770.6</ele>
        <time>2022-02-10T10:26:21Z</time>
        <extensions>
          <gpxtpx:TrackPointExtension xmlns:gpxtpx="http://www.garmin.com/xmlschemas/TrackPointExtension/v1">
            <gpxtpx:hr>165</gpxtpx:hr>
          </gpxtpx:TrackPointExtension>
        </extensions>
      </trkpt>
      <trkpt lat="44.1635" lon="3.1964">
        <ele>770.6</ele>
        <time>2022-02-10T10:26:22Z</time>
        <extensions>
          <gpxtpx:TrackPointExtension xmlns:gpxtpx="http://www.garmin.com/xmlschemas/TrackPointExtension/v1">
            <gpxtpx:hr>163</gpxtpx:hr>
          </gpxtpx:TrackPointExtension>
        </extensions>
      </trkpt>
      <trkpt lat="44.16351" lon="3.19637">
        <ele>770.6</ele>
        <time>2022-02-10T10:26:23Z</time>
        <extensions>
          <gpxtpx:TrackPointExtension xmlns:gpxtpx="http://www.garmin.com/xmlschemas/TrackPointExtension/v1">
            <gpxtpx:hr>163</gpxtpx:hr>
          </gpxtpx:TrackPointExtension>
        </extensions>
      </trkpt>
      <trkpt lat="44.16353" lon="3.19632">
        <ele>770.8</ele>
        <time>2022-02-10T10:26:25Z</time>
        <extensions>
          <gpxtpx:TrackPointExtension xmlns:gpxtpx="http://www.garmin.com/xmlschemas/TrackPointExtension/v1">
            <gpxtpx:hr>164</gpxtpx:hr>
          </gpxtpx:TrackPointExtension>
        </extensions>
      </trkpt>
      <trkpt lat="44.16355" lon="3.19627">
        <ele>771</ele>
        <time>2022-02-10T10:26:27Z</time>
        <extensions>
          <gpxtpx:TrackPointExtension xmlns:gpxtpx="http://www.garmin.com/xmlschemas/TrackPointExtension/v1">
            <gpxtpx:hr>164</gpxtpx:hr>
          </gpxtpx:TrackPointExtension>
        </extensions>
      </trkpt>
      <trkpt lat="44.16357" lon="3.19622">
        <ele>771.4</ele>
        <time>2022-02-10T10:26:29Z</time>
        <extensions>
          <gpxtpx:TrackPointExtension xmlns:gpxtpx="http://www.garmin.com/xmlschemas/TrackPointExtension/v1">
            <gpxtpx:hr>165</gpxtpx:hr>
          </gpxtpx:TrackPointExtension>
        </extensions>
      </trkpt>
      <trkpt lat="44.16357" lon="3.1962">
        <ele>771.4</ele>
        <time>2022-02-10T10:26:30Z</time>
        <extensions>
          <gpxtpx:TrackPointExtension xmlns:gpxtpx="http://www.garmin.com/xmlschemas/TrackPointExtension/v1">
            <gpxtpx:hr>165</gpxtpx:hr>
          </gpxtpx:TrackPointExtension>
        </extensions>
      </trkpt>
      <trkpt lat="44.16359" lon="3.19615">
        <ele>771.6</ele>
        <time>2022-02-10T10:26:32Z</time>
        <extensions>
          <gpxtpx:TrackPointExtension xmlns:gpxtpx="http://www.garmin.com/xmlschemas/TrackPointExtension/v1">
            <gpxtpx:hr>165</gpxtpx:hr>
          </gpxtpx:TrackPointExtension>
        </extensions>
      </trkpt>
      <trkpt lat="44.1636" lon="3.19609">
        <ele>771.8</ele>
        <time>2022-02-10T10:26:34Z</time>
        <extensions>
          <gpxtpx:TrackPointExtension xmlns:gpxtpx="http://www.garmin.com/xmlschemas/TrackPointExtension/v1">
            <gpxtpx:hr>165</gpxtpx:hr>
          </gpxtpx:TrackPointExtension>
        </extensions>
      </trkpt>
      <trkpt lat="44.16361" lon="3.19604">
        <ele>772</ele>
        <time>2022-02-10T10:26:36Z</time>
        <extensions>
          <gpxtpx:TrackPointExtension xmlns:gpxtpx="http://www.garmin.com/xmlschemas/TrackPointExtension/v1">
            <gpxtpx:hr>166</gpxtpx:hr>
          </gpxtpx:TrackPointExtension>
        </extensions>
      </trkpt>
      <trkpt lat="44.16362" lon="3.19599">
        <ele>772.2</ele>
        <time>2022-02-10T10:26:38Z</time>
        <extensions>
          <gpxtpx:TrackPointExtension xmlns:gpxtpx="http://www.garmin.com/xmlschemas/TrackPointExtension/v1">
            <gpxtpx:hr>166</gpxtpx:hr>
          </gpxtpx:TrackPointExtension>
        </extensions>
      </trkpt>
      <trkpt lat="44.16365" lon="3.19594">
        <ele>772.6</ele>
        <time>2022-02-10T10:26:40Z</time>
        <extensions>
          <gpxtpx:TrackPointExtension xmlns:gpxtpx="http://www.garmin.com/xmlschemas/TrackPointExtension/v1">
            <gpxtpx:hr>167</gpxtpx:hr>
          </gpxtpx:TrackPointExtension>
        </extensions>
      </trkpt>
      <trkpt lat="44.16366" lon="3.19592">
        <ele>772.6</ele>
        <time>2022-02-10T10:26:41Z</time>
        <extensions>
          <gpxtpx:TrackPointExtension xmlns:gpxtpx="http://www.garmin.com/xmlschemas/TrackPointExtension/v1">
            <gpxtpx:hr>167</gpxtpx:hr>
          </gpxtpx:TrackPointExtension>
        </extensions>
      </trkpt>
      <trkpt lat="44.16367" lon="3.1959">
        <ele>772.8</ele>
        <time>2022-02-10T10:26:42Z</time>
        <extensions>
          <gpxtpx:TrackPointExtension xmlns:gpxtpx="http://www.garmin.com/xmlschemas/TrackPointExtension/v1">
            <gpxtpx:hr>166</gpxtpx:hr>
          </gpxtpx:TrackPointExtension>
        </extensions>
      </trkpt>
      <trkpt lat="44.16371" lon="3.19586">
        <ele>773</ele>
        <time>2022-02-10T10:26:44Z</time>
        <extensions>
          <gpxtpx:TrackPointExtension xmlns:gpxtpx="http://www.garmin.com/xmlschemas/TrackPointExtension/v1">
            <gpxtpx:hr>166</gpxtpx:hr>
          </gpxtpx:TrackPointExtension>
        </extensions>
      </trkpt>
      <trkpt lat="44.16372" lon="3.19584">
        <ele>773</ele>
        <time>2022-02-10T10:26:45Z</time>
        <extensions>
          <gpxtpx:TrackPointExtension xmlns:gpxtpx="http://www.garmin.com/xmlschemas/TrackPointExtension/v1">
            <gpxtpx:hr>166</gpxtpx:hr>
          </gpxtpx:TrackPointExtension>
        </extensions>
      </trkpt>
      <trkpt lat="44.16374" lon="3.19582">
        <ele>773</ele>
        <time>2022-02-10T10:26:46Z</time>
        <extensions>
          <gpxtpx:TrackPointExtension xmlns:gpxtpx="http://www.garmin.com/xmlschemas/TrackPointExtension/v1">
            <gpxtpx:hr>166</gpxtpx:hr>
          </gpxtpx:TrackPointExtension>
        </extensions>
      </trkpt>
      <trkpt lat="44.16377" lon="3.19578">
        <ele>773.2</ele>
        <time>2022-02-10T10:26:48Z</time>
        <extensions>
          <gpxtpx:TrackPointExtension xmlns:gpxtpx="http://www.garmin.com/xmlschemas/TrackPointExtension/v1">
            <gpxtpx:hr>165</gpxtpx:hr>
          </gpxtpx:TrackPointExtension>
        </extensions>
      </trkpt>
      <trkpt lat="44.16379" lon="3.19574">
        <ele>773.6</ele>
        <time>2022-02-10T10:26:50Z</time>
        <extensions>
          <gpxtpx:TrackPointExtension xmlns:gpxtpx="http://www.garmin.com/xmlschemas/TrackPointExtension/v1">
            <gpxtpx:hr>165</gpxtpx:hr>
          </gpxtpx:TrackPointExtension>
        </extensions>
      </trkpt>
      <trkpt lat="44.16381" lon="3.1957">
        <ele>773.8</ele>
        <time>2022-02-10T10:26:52Z</time>
        <extensions>
          <gpxtpx:TrackPointExtension xmlns:gpxtpx="http://www.garmin.com/xmlschemas/TrackPointExtension/v1">
            <gpxtpx:hr>166</gpxtpx:hr>
          </gpxtpx:TrackPointExtension>
        </extensions>
      </trkpt>
      <trkpt lat="44.16383" lon="3.19565">
        <ele>774</ele>
        <time>2022-02-10T10:26:54Z</time>
        <extensions>
          <gpxtpx:TrackPointExtension xmlns:gpxtpx="http://www.garmin.com/xmlschemas/TrackPointExtension/v1">
            <gpxtpx:hr>166</gpxtpx:hr>
          </gpxtpx:TrackPointExtension>
        </extensions>
      </trkpt>
      <trkpt lat="44.16387" lon="3.19558">
        <ele>774</ele>
        <time>2022-02-10T10:26:57Z</time>
        <extensions>
          <gpxtpx:TrackPointExtension xmlns:gpxtpx="http://www.garmin.com/xmlschemas/TrackPointExtension/v1">
            <gpxtpx:hr>165</gpxtpx:hr>
          </gpxtpx:TrackPointExtension>
        </extensions>
      </trkpt>
      <trkpt lat="44.16389" lon="3.19554">
        <ele>774</ele>
        <time>2022-02-10T10:26:59Z</time>
        <extensions>
          <gpxtpx:TrackPointExtension xmlns:gpxtpx="http://www.garmin.com/xmlschemas/TrackPointExtension/v1">
            <gpxtpx:hr>166</gpxtpx:hr>
          </gpxtpx:TrackPointExtension>
        </extensions>
      </trkpt>
      <trkpt lat="44.16389" lon="3.19551">
        <ele>774.2</ele>
        <time>2022-02-10T10:27:00Z</time>
        <extensions>
          <gpxtpx:TrackPointExtension xmlns:gpxtpx="http://www.garmin.com/xmlschemas/TrackPointExtension/v1">
            <gpxtpx:hr>166</gpxtpx:hr>
          </gpxtpx:TrackPointExtension>
        </extensions>
      </trkpt>
      <trkpt lat="44.1639" lon="3.19546">
        <ele>774.6</ele>
        <time>2022-02-10T10:27:02Z</time>
        <extensions>
          <gpxtpx:TrackPointExtension xmlns:gpxtpx="http://www.garmin.com/xmlschemas/TrackPointExtension/v1">
            <gpxtpx:hr>165</gpxtpx:hr>
          </gpxtpx:TrackPointExtension>
        </extensions>
      </trkpt>
      <trkpt lat="44.16391" lon="3.19541">
        <ele>774.6</ele>
        <time>2022-02-10T10:27:04Z</time>
        <extensions>
          <gpxtpx:TrackPointExtension xmlns:gpxtpx="http://www.garmin.com/xmlschemas/TrackPointExtension/v1">
            <gpxtpx:hr>164</gpxtpx:hr>
          </gpxtpx:TrackPointExtension>
        </extensions>
      </trkpt>
      <trkpt lat="44.16391" lon="3.19536">
        <ele>774.8</ele>
        <time>2022-02-10T10:27:06Z</time>
        <extensions>
          <gpxtpx:TrackPointExtension xmlns:gpxtpx="http://www.garmin.com/xmlschemas/TrackPointExtension/v1">
            <gpxtpx:hr>165</gpxtpx:hr>
          </gpxtpx:TrackPointExtension>
        </extensions>
      </trkpt>
      <trkpt lat="44.16392" lon="3.1953">
        <ele>774.8</ele>
        <time>2022-02-10T10:27:08Z</time>
        <extensions>
          <gpxtpx:TrackPointExtension xmlns:gpxtpx="http://www.garmin.com/xmlschemas/TrackPointExtension/v1">
            <gpxtpx:hr>167</gpxtpx:hr>
          </gpxtpx:TrackPointExtension>
        </extensions>
      </trkpt>
      <trkpt lat="44.16393" lon="3.19525">
        <ele>774.8</ele>
        <time>2022-02-10T10:27:10Z</time>
        <extensions>
          <gpxtpx:TrackPointExtension xmlns:gpxtpx="http://www.garmin.com/xmlschemas/TrackPointExtension/v1">
            <gpxtpx:hr>165</gpxtpx:hr>
          </gpxtpx:TrackPointExtension>
        </extensions>
      </trkpt>
      <trkpt lat="44.16393" lon="3.19523">
        <ele>774.8</ele>
        <time>2022-02-10T10:27:11Z</time>
        <extensions>
          <gpxtpx:TrackPointExtension xmlns:gpxtpx="http://www.garmin.com/xmlschemas/TrackPointExtension/v1">
            <gpxtpx:hr>166</gpxtpx:hr>
          </gpxtpx:TrackPointExtension>
        </extensions>
      </trkpt>
      <trkpt lat="44.16394" lon="3.1952">
        <ele>774.8</ele>
        <time>2022-02-10T10:27:12Z</time>
        <extensions>
          <gpxtpx:TrackPointExtension xmlns:gpxtpx="http://www.garmin.com/xmlschemas/TrackPointExtension/v1">
            <gpxtpx:hr>166</gpxtpx:hr>
          </gpxtpx:TrackPointExtension>
        </extensions>
      </trkpt>
      <trkpt lat="44.16396" lon="3.19515">
        <ele>774.6</ele>
        <time>2022-02-10T10:27:14Z</time>
        <extensions>
          <gpxtpx:TrackPointExtension xmlns:gpxtpx="http://www.garmin.com/xmlschemas/TrackPointExtension/v1">
            <gpxtpx:hr>166</gpxtpx:hr>
          </gpxtpx:TrackPointExtension>
        </extensions>
      </trkpt>
      <trkpt lat="44.16397" lon="3.19512">
        <ele>774.6</ele>
        <time>2022-02-10T10:27:15Z</time>
        <extensions>
          <gpxtpx:TrackPointExtension xmlns:gpxtpx="http://www.garmin.com/xmlschemas/TrackPointExtension/v1">
            <gpxtpx:hr>166</gpxtpx:hr>
          </gpxtpx:TrackPointExtension>
        </extensions>
      </trkpt>
      <trkpt lat="44.16397" lon="3.1951">
        <ele>774.2</ele>
        <time>2022-02-10T10:27:16Z</time>
        <extensions>
          <gpxtpx:TrackPointExtension xmlns:gpxtpx="http://www.garmin.com/xmlschemas/TrackPointExtension/v1">
            <gpxtpx:hr>165</gpxtpx:hr>
          </gpxtpx:TrackPointExtension>
        </extensions>
      </trkpt>
      <trkpt lat="44.16398" lon="3.19507">
        <ele>774.2</ele>
        <time>2022-02-10T10:27:17Z</time>
        <extensions>
          <gpxtpx:TrackPointExtension xmlns:gpxtpx="http://www.garmin.com/xmlschemas/TrackPointExtension/v1">
            <gpxtpx:hr>165</gpxtpx:hr>
          </gpxtpx:TrackPointExtension>
        </extensions>
      </trkpt>
      <trkpt lat="44.16399" lon="3.19504">
        <ele>774</ele>
        <time>2022-02-10T10:27:18Z</time>
        <extensions>
          <gpxtpx:TrackPointExtension xmlns:gpxtpx="http://www.garmin.com/xmlschemas/TrackPointExtension/v1">
            <gpxtpx:hr>164</gpxtpx:hr>
          </gpxtpx:TrackPointExtension>
        </extensions>
      </trkpt>
      <trkpt lat="44.164" lon="3.19501">
        <ele>774</ele>
        <time>2022-02-10T10:27:19Z</time>
        <extensions>
          <gpxtpx:TrackPointExtension xmlns:gpxtpx="http://www.garmin.com/xmlschemas/TrackPointExtension/v1">
            <gpxtpx:hr>163</gpxtpx:hr>
          </gpxtpx:TrackPointExtension>
        </extensions>
      </trkpt>
      <trkpt lat="44.16401" lon="3.19497">
        <ele>773.6</ele>
        <time>2022-02-10T10:27:20Z</time>
        <extensions>
          <gpxtpx:TrackPointExtension xmlns:gpxtpx="http://www.garmin.com/xmlschemas/TrackPointExtension/v1">
            <gpxtpx:hr>163</gpxtpx:hr>
          </gpxtpx:TrackPointExtension>
        </extensions>
      </trkpt>
      <trkpt lat="44.16403" lon="3.19491">
        <ele>773.4</ele>
        <time>2022-02-10T10:27:22Z</time>
        <extensions>
          <gpxtpx:TrackPointExtension xmlns:gpxtpx="http://www.garmin.com/xmlschemas/TrackPointExtension/v1">
            <gpxtpx:hr>163</gpxtpx:hr>
          </gpxtpx:TrackPointExtension>
        </extensions>
      </trkpt>
      <trkpt lat="44.16404" lon="3.19487">
        <ele>773</ele>
        <time>2022-02-10T10:27:23Z</time>
        <extensions>
          <gpxtpx:TrackPointExtension xmlns:gpxtpx="http://www.garmin.com/xmlschemas/TrackPointExtension/v1">
            <gpxtpx:hr>163</gpxtpx:hr>
          </gpxtpx:TrackPointExtension>
        </extensions>
      </trkpt>
      <trkpt lat="44.16405" lon="3.19485">
        <ele>772.8</ele>
        <time>2022-02-10T10:27:24Z</time>
        <extensions>
          <gpxtpx:TrackPointExtension xmlns:gpxtpx="http://www.garmin.com/xmlschemas/TrackPointExtension/v1">
            <gpxtpx:hr>162</gpxtpx:hr>
          </gpxtpx:TrackPointExtension>
        </extensions>
      </trkpt>
      <trkpt lat="44.16407" lon="3.19482">
        <ele>772.4</ele>
        <time>2022-02-10T10:27:25Z</time>
        <extensions>
          <gpxtpx:TrackPointExtension xmlns:gpxtpx="http://www.garmin.com/xmlschemas/TrackPointExtension/v1">
            <gpxtpx:hr>161</gpxtpx:hr>
          </gpxtpx:TrackPointExtension>
        </extensions>
      </trkpt>
      <trkpt lat="44.16408" lon="3.1948">
        <ele>772.2</ele>
        <time>2022-02-10T10:27:26Z</time>
        <extensions>
          <gpxtpx:TrackPointExtension xmlns:gpxtpx="http://www.garmin.com/xmlschemas/TrackPointExtension/v1">
            <gpxtpx:hr>161</gpxtpx:hr>
          </gpxtpx:TrackPointExtension>
        </extensions>
      </trkpt>
      <trkpt lat="44.16412" lon="3.19477">
        <ele>772</ele>
        <time>2022-02-10T10:27:28Z</time>
        <extensions>
          <gpxtpx:TrackPointExtension xmlns:gpxtpx="http://www.garmin.com/xmlschemas/TrackPointExtension/v1">
            <gpxtpx:hr>162</gpxtpx:hr>
          </gpxtpx:TrackPointExtension>
        </extensions>
      </trkpt>
      <trkpt lat="44.16414" lon="3.19475">
        <ele>771.4</ele>
        <time>2022-02-10T10:27:30Z</time>
        <extensions>
          <gpxtpx:TrackPointExtension xmlns:gpxtpx="http://www.garmin.com/xmlschemas/TrackPointExtension/v1">
            <gpxtpx:hr>162</gpxtpx:hr>
          </gpxtpx:TrackPointExtension>
        </extensions>
      </trkpt>
      <trkpt lat="44.16416" lon="3.19474">
        <ele>771.2</ele>
        <time>2022-02-10T10:27:31Z</time>
        <extensions>
          <gpxtpx:TrackPointExtension xmlns:gpxtpx="http://www.garmin.com/xmlschemas/TrackPointExtension/v1">
            <gpxtpx:hr>162</gpxtpx:hr>
          </gpxtpx:TrackPointExtension>
        </extensions>
      </trkpt>
      <trkpt lat="44.16419" lon="3.19472">
        <ele>770.8</ele>
        <time>2022-02-10T10:27:32Z</time>
        <extensions>
          <gpxtpx:TrackPointExtension xmlns:gpxtpx="http://www.garmin.com/xmlschemas/TrackPointExtension/v1">
            <gpxtpx:hr>162</gpxtpx:hr>
          </gpxtpx:TrackPointExtension>
        </extensions>
      </trkpt>
      <trkpt lat="44.16421" lon="3.19471">
        <ele>770.6</ele>
        <time>2022-02-10T10:27:33Z</time>
        <extensions>
          <gpxtpx:TrackPointExtension xmlns:gpxtpx="http://www.garmin.com/xmlschemas/TrackPointExtension/v1">
            <gpxtpx:hr>162</gpxtpx:hr>
          </gpxtpx:TrackPointExtension>
        </extensions>
      </trkpt>
      <trkpt lat="44.16423" lon="3.1947">
        <ele>770.6</ele>
        <time>2022-02-10T10:27:34Z</time>
        <extensions>
          <gpxtpx:TrackPointExtension xmlns:gpxtpx="http://www.garmin.com/xmlschemas/TrackPointExtension/v1">
            <gpxtpx:hr>161</gpxtpx:hr>
          </gpxtpx:TrackPointExtension>
        </extensions>
      </trkpt>
      <trkpt lat="44.16425" lon="3.19468">
        <ele>770.2</ele>
        <time>2022-02-10T10:27:35Z</time>
        <extensions>
          <gpxtpx:TrackPointExtension xmlns:gpxtpx="http://www.garmin.com/xmlschemas/TrackPointExtension/v1">
            <gpxtpx:hr>161</gpxtpx:hr>
          </gpxtpx:TrackPointExtension>
        </extensions>
      </trkpt>
      <trkpt lat="44.16427" lon="3.19467">
        <ele>770</ele>
        <time>2022-02-10T10:27:36Z</time>
        <extensions>
          <gpxtpx:TrackPointExtension xmlns:gpxtpx="http://www.garmin.com/xmlschemas/TrackPointExtension/v1">
            <gpxtpx:hr>161</gpxtpx:hr>
          </gpxtpx:TrackPointExtension>
        </extensions>
      </trkpt>
      <trkpt lat="44.16428" lon="3.19465">
        <ele>769.8</ele>
        <time>2022-02-10T10:27:37Z</time>
        <extensions>
          <gpxtpx:TrackPointExtension xmlns:gpxtpx="http://www.garmin.com/xmlschemas/TrackPointExtension/v1">
            <gpxtpx:hr>161</gpxtpx:hr>
          </gpxtpx:TrackPointExtension>
        </extensions>
      </trkpt>
      <trkpt lat="44.16431" lon="3.1946">
        <ele>769.4</ele>
        <time>2022-02-10T10:27:39Z</time>
        <extensions>
          <gpxtpx:TrackPointExtension xmlns:gpxtpx="http://www.garmin.com/xmlschemas/TrackPointExtension/v1">
            <gpxtpx:hr>159</gpxtpx:hr>
          </gpxtpx:TrackPointExtension>
        </extensions>
      </trkpt>
      <trkpt lat="44.16435" lon="3.19456">
        <ele>769</ele>
        <time>2022-02-10T10:27:41Z</time>
        <extensions>
          <gpxtpx:TrackPointExtension xmlns:gpxtpx="http://www.garmin.com/xmlschemas/TrackPointExtension/v1">
            <gpxtpx:hr>158</gpxtpx:hr>
          </gpxtpx:TrackPointExtension>
        </extensions>
      </trkpt>
      <trkpt lat="44.16438" lon="3.19451">
        <ele>768.8</ele>
        <time>2022-02-10T10:27:43Z</time>
        <extensions>
          <gpxtpx:TrackPointExtension xmlns:gpxtpx="http://www.garmin.com/xmlschemas/TrackPointExtension/v1">
            <gpxtpx:hr>158</gpxtpx:hr>
          </gpxtpx:TrackPointExtension>
        </extensions>
      </trkpt>
      <trkpt lat="44.16442" lon="3.19447">
        <ele>768.8</ele>
        <time>2022-02-10T10:27:45Z</time>
        <extensions>
          <gpxtpx:TrackPointExtension xmlns:gpxtpx="http://www.garmin.com/xmlschemas/TrackPointExtension/v1">
            <gpxtpx:hr>157</gpxtpx:hr>
          </gpxtpx:TrackPointExtension>
        </extensions>
      </trkpt>
      <trkpt lat="44.16445" lon="3.19442">
        <ele>768.6</ele>
        <time>2022-02-10T10:27:47Z</time>
        <extensions>
          <gpxtpx:TrackPointExtension xmlns:gpxtpx="http://www.garmin.com/xmlschemas/TrackPointExtension/v1">
            <gpxtpx:hr>155</gpxtpx:hr>
          </gpxtpx:TrackPointExtension>
        </extensions>
      </trkpt>
      <trkpt lat="44.16446" lon="3.1944">
        <ele>768.6</ele>
        <time>2022-02-10T10:27:48Z</time>
        <extensions>
          <gpxtpx:TrackPointExtension xmlns:gpxtpx="http://www.garmin.com/xmlschemas/TrackPointExtension/v1">
            <gpxtpx:hr>154</gpxtpx:hr>
          </gpxtpx:TrackPointExtension>
        </extensions>
      </trkpt>
      <trkpt lat="44.16447" lon="3.19438">
        <ele>768.4</ele>
        <time>2022-02-10T10:27:49Z</time>
        <extensions>
          <gpxtpx:TrackPointExtension xmlns:gpxtpx="http://www.garmin.com/xmlschemas/TrackPointExtension/v1">
            <gpxtpx:hr>153</gpxtpx:hr>
          </gpxtpx:TrackPointExtension>
        </extensions>
      </trkpt>
      <trkpt lat="44.16451" lon="3.19433">
        <ele>768.2</ele>
        <time>2022-02-10T10:27:51Z</time>
        <extensions>
          <gpxtpx:TrackPointExtension xmlns:gpxtpx="http://www.garmin.com/xmlschemas/TrackPointExtension/v1">
            <gpxtpx:hr>151</gpxtpx:hr>
          </gpxtpx:TrackPointExtension>
        </extensions>
      </trkpt>
      <trkpt lat="44.16452" lon="3.1943">
        <ele>768.2</ele>
        <time>2022-02-10T10:27:52Z</time>
        <extensions>
          <gpxtpx:TrackPointExtension xmlns:gpxtpx="http://www.garmin.com/xmlschemas/TrackPointExtension/v1">
            <gpxtpx:hr>150</gpxtpx:hr>
          </gpxtpx:TrackPointExtension>
        </extensions>
      </trkpt>
      <trkpt lat="44.16453" lon="3.19428">
        <ele>768.2</ele>
        <time>2022-02-10T10:27:53Z</time>
        <extensions>
          <gpxtpx:TrackPointExtension xmlns:gpxtpx="http://www.garmin.com/xmlschemas/TrackPointExtension/v1">
            <gpxtpx:hr>151</gpxtpx:hr>
          </gpxtpx:TrackPointExtension>
        </extensions>
      </trkpt>
      <trkpt lat="44.16456" lon="3.19421">
        <ele>767.6</ele>
        <time>2022-02-10T10:27:55Z</time>
        <extensions>
          <gpxtpx:TrackPointExtension xmlns:gpxtpx="http://www.garmin.com/xmlschemas/TrackPointExtension/v1">
            <gpxtpx:hr>154</gpxtpx:hr>
          </gpxtpx:TrackPointExtension>
        </extensions>
      </trkpt>
      <trkpt lat="44.16458" lon="3.19419">
        <ele>767.6</ele>
        <time>2022-02-10T10:27:56Z</time>
        <extensions>
          <gpxtpx:TrackPointExtension xmlns:gpxtpx="http://www.garmin.com/xmlschemas/TrackPointExtension/v1">
            <gpxtpx:hr>155</gpxtpx:hr>
          </gpxtpx:TrackPointExtension>
        </extensions>
      </trkpt>
      <trkpt lat="44.16459" lon="3.19416">
        <ele>767.4</ele>
        <time>2022-02-10T10:27:57Z</time>
        <extensions>
          <gpxtpx:TrackPointExtension xmlns:gpxtpx="http://www.garmin.com/xmlschemas/TrackPointExtension/v1">
            <gpxtpx:hr>156</gpxtpx:hr>
          </gpxtpx:TrackPointExtension>
        </extensions>
      </trkpt>
      <trkpt lat="44.16463" lon="3.19411">
        <ele>767</ele>
        <time>2022-02-10T10:27:59Z</time>
        <extensions>
          <gpxtpx:TrackPointExtension xmlns:gpxtpx="http://www.garmin.com/xmlschemas/TrackPointExtension/v1">
            <gpxtpx:hr>156</gpxtpx:hr>
          </gpxtpx:TrackPointExtension>
        </extensions>
      </trkpt>
      <trkpt lat="44.16465" lon="3.19409">
        <ele>767</ele>
        <time>2022-02-10T10:28:00Z</time>
        <extensions>
          <gpxtpx:TrackPointExtension xmlns:gpxtpx="http://www.garmin.com/xmlschemas/TrackPointExtension/v1">
            <gpxtpx:hr>155</gpxtpx:hr>
          </gpxtpx:TrackPointExtension>
        </extensions>
      </trkpt>
      <trkpt lat="44.16467" lon="3.19407">
        <ele>767</ele>
        <time>2022-02-10T10:28:01Z</time>
        <extensions>
          <gpxtpx:TrackPointExtension xmlns:gpxtpx="http://www.garmin.com/xmlschemas/TrackPointExtension/v1">
            <gpxtpx:hr>155</gpxtpx:hr>
          </gpxtpx:TrackPointExtension>
        </extensions>
      </trkpt>
      <trkpt lat="44.1647" lon="3.19403">
        <ele>766.6</ele>
        <time>2022-02-10T10:28:03Z</time>
        <extensions>
          <gpxtpx:TrackPointExtension xmlns:gpxtpx="http://www.garmin.com/xmlschemas/TrackPointExtension/v1">
            <gpxtpx:hr>157</gpxtpx:hr>
          </gpxtpx:TrackPointExtension>
        </extensions>
      </trkpt>
      <trkpt lat="44.16473" lon="3.19399">
        <ele>766.6</ele>
        <time>2022-02-10T10:28:05Z</time>
        <extensions>
          <gpxtpx:TrackPointExtension xmlns:gpxtpx="http://www.garmin.com/xmlschemas/TrackPointExtension/v1">
            <gpxtpx:hr>157</gpxtpx:hr>
          </gpxtpx:TrackPointExtension>
        </extensions>
      </trkpt>
      <trkpt lat="44.16477" lon="3.19396">
        <ele>766.2</ele>
        <time>2022-02-10T10:28:07Z</time>
        <extensions>
          <gpxtpx:TrackPointExtension xmlns:gpxtpx="http://www.garmin.com/xmlschemas/TrackPointExtension/v1">
            <gpxtpx:hr>157</gpxtpx:hr>
          </gpxtpx:TrackPointExtension>
        </extensions>
      </trkpt>
      <trkpt lat="44.16478" lon="3.19394">
        <ele>766.2</ele>
        <time>2022-02-10T10:28:08Z</time>
        <extensions>
          <gpxtpx:TrackPointExtension xmlns:gpxtpx="http://www.garmin.com/xmlschemas/TrackPointExtension/v1">
            <gpxtpx:hr>156</gpxtpx:hr>
          </gpxtpx:TrackPointExtension>
        </extensions>
      </trkpt>
      <trkpt lat="44.1648" lon="3.19392">
        <ele>766.2</ele>
        <time>2022-02-10T10:28:09Z</time>
        <extensions>
          <gpxtpx:TrackPointExtension xmlns:gpxtpx="http://www.garmin.com/xmlschemas/TrackPointExtension/v1">
            <gpxtpx:hr>156</gpxtpx:hr>
          </gpxtpx:TrackPointExtension>
        </extensions>
      </trkpt>
      <trkpt lat="44.16486" lon="3.19386">
        <ele>766</ele>
        <time>2022-02-10T10:28:12Z</time>
        <extensions>
          <gpxtpx:TrackPointExtension xmlns:gpxtpx="http://www.garmin.com/xmlschemas/TrackPointExtension/v1">
            <gpxtpx:hr>156</gpxtpx:hr>
          </gpxtpx:TrackPointExtension>
        </extensions>
      </trkpt>
      <trkpt lat="44.16487" lon="3.19385">
        <ele>766</ele>
        <time>2022-02-10T10:28:13Z</time>
        <extensions>
          <gpxtpx:TrackPointExtension xmlns:gpxtpx="http://www.garmin.com/xmlschemas/TrackPointExtension/v1">
            <gpxtpx:hr>157</gpxtpx:hr>
          </gpxtpx:TrackPointExtension>
        </extensions>
      </trkpt>
      <trkpt lat="44.16489" lon="3.19384">
        <ele>766</ele>
        <time>2022-02-10T10:28:14Z</time>
        <extensions>
          <gpxtpx:TrackPointExtension xmlns:gpxtpx="http://www.garmin.com/xmlschemas/TrackPointExtension/v1">
            <gpxtpx:hr>157</gpxtpx:hr>
          </gpxtpx:TrackPointExtension>
        </extensions>
      </trkpt>
      <trkpt lat="44.16491" lon="3.19383">
        <ele>765.8</ele>
        <time>2022-02-10T10:28:15Z</time>
        <extensions>
          <gpxtpx:TrackPointExtension xmlns:gpxtpx="http://www.garmin.com/xmlschemas/TrackPointExtension/v1">
            <gpxtpx:hr>158</gpxtpx:hr>
          </gpxtpx:TrackPointExtension>
        </extensions>
      </trkpt>
      <trkpt lat="44.16493" lon="3.19382">
        <ele>765.8</ele>
        <time>2022-02-10T10:28:16Z</time>
        <extensions>
          <gpxtpx:TrackPointExtension xmlns:gpxtpx="http://www.garmin.com/xmlschemas/TrackPointExtension/v1">
            <gpxtpx:hr>158</gpxtpx:hr>
          </gpxtpx:TrackPointExtension>
        </extensions>
      </trkpt>
      <trkpt lat="44.16495" lon="3.1938">
        <ele>765.8</ele>
        <time>2022-02-10T10:28:17Z</time>
        <extensions>
          <gpxtpx:TrackPointExtension xmlns:gpxtpx="http://www.garmin.com/xmlschemas/TrackPointExtension/v1">
            <gpxtpx:hr>158</gpxtpx:hr>
          </gpxtpx:TrackPointExtension>
        </extensions>
      </trkpt>
      <trkpt lat="44.16497" lon="3.19379">
        <ele>765.6</ele>
        <time>2022-02-10T10:28:18Z</time>
        <extensions>
          <gpxtpx:TrackPointExtension xmlns:gpxtpx="http://www.garmin.com/xmlschemas/TrackPointExtension/v1">
            <gpxtpx:hr>158</gpxtpx:hr>
          </gpxtpx:TrackPointExtension>
        </extensions>
      </trkpt>
      <trkpt lat="44.16499" lon="3.19378">
        <ele>765.6</ele>
        <time>2022-02-10T10:28:19Z</time>
        <extensions>
          <gpxtpx:TrackPointExtension xmlns:gpxtpx="http://www.garmin.com/xmlschemas/TrackPointExtension/v1">
            <gpxtpx:hr>158</gpxtpx:hr>
          </gpxtpx:TrackPointExtension>
        </extensions>
      </trkpt>
      <trkpt lat="44.16501" lon="3.19377">
        <ele>765.6</ele>
        <time>2022-02-10T10:28:20Z</time>
        <extensions>
          <gpxtpx:TrackPointExtension xmlns:gpxtpx="http://www.garmin.com/xmlschemas/TrackPointExtension/v1">
            <gpxtpx:hr>156</gpxtpx:hr>
          </gpxtpx:TrackPointExtension>
        </extensions>
      </trkpt>
      <trkpt lat="44.16503" lon="3.19375">
        <ele>765.4</ele>
        <time>2022-02-10T10:28:21Z</time>
        <extensions>
          <gpxtpx:TrackPointExtension xmlns:gpxtpx="http://www.garmin.com/xmlschemas/TrackPointExtension/v1">
            <gpxtpx:hr>155</gpxtpx:hr>
          </gpxtpx:TrackPointExtension>
        </extensions>
      </trkpt>
      <trkpt lat="44.16505" lon="3.19374">
        <ele>765.4</ele>
        <time>2022-02-10T10:28:22Z</time>
        <extensions>
          <gpxtpx:TrackPointExtension xmlns:gpxtpx="http://www.garmin.com/xmlschemas/TrackPointExtension/v1">
            <gpxtpx:hr>156</gpxtpx:hr>
          </gpxtpx:TrackPointExtension>
        </extensions>
      </trkpt>
      <trkpt lat="44.16507" lon="3.19373">
        <ele>765.4</ele>
        <time>2022-02-10T10:28:23Z</time>
        <extensions>
          <gpxtpx:TrackPointExtension xmlns:gpxtpx="http://www.garmin.com/xmlschemas/TrackPointExtension/v1">
            <gpxtpx:hr>154</gpxtpx:hr>
          </gpxtpx:TrackPointExtension>
        </extensions>
      </trkpt>
      <trkpt lat="44.16509" lon="3.19372">
        <ele>765.4</ele>
        <time>2022-02-10T10:28:24Z</time>
        <extensions>
          <gpxtpx:TrackPointExtension xmlns:gpxtpx="http://www.garmin.com/xmlschemas/TrackPointExtension/v1">
            <gpxtpx:hr>154</gpxtpx:hr>
          </gpxtpx:TrackPointExtension>
        </extensions>
      </trkpt>
      <trkpt lat="44.16512" lon="3.19372">
        <ele>765.4</ele>
        <time>2022-02-10T10:28:25Z</time>
        <extensions>
          <gpxtpx:TrackPointExtension xmlns:gpxtpx="http://www.garmin.com/xmlschemas/TrackPointExtension/v1">
            <gpxtpx:hr>154</gpxtpx:hr>
          </gpxtpx:TrackPointExtension>
        </extensions>
      </trkpt>
      <trkpt lat="44.16514" lon="3.19371">
        <ele>765.2</ele>
        <time>2022-02-10T10:28:26Z</time>
        <extensions>
          <gpxtpx:TrackPointExtension xmlns:gpxtpx="http://www.garmin.com/xmlschemas/TrackPointExtension/v1">
            <gpxtpx:hr>153</gpxtpx:hr>
          </gpxtpx:TrackPointExtension>
        </extensions>
      </trkpt>
      <trkpt lat="44.16516" lon="3.19371">
        <ele>765.2</ele>
        <time>2022-02-10T10:28:27Z</time>
        <extensions>
          <gpxtpx:TrackPointExtension xmlns:gpxtpx="http://www.garmin.com/xmlschemas/TrackPointExtension/v1">
            <gpxtpx:hr>152</gpxtpx:hr>
          </gpxtpx:TrackPointExtension>
        </extensions>
      </trkpt>
      <trkpt lat="44.16518" lon="3.19372">
        <ele>765.2</ele>
        <time>2022-02-10T10:28:28Z</time>
        <extensions>
          <gpxtpx:TrackPointExtension xmlns:gpxtpx="http://www.garmin.com/xmlschemas/TrackPointExtension/v1">
            <gpxtpx:hr>152</gpxtpx:hr>
          </gpxtpx:TrackPointExtension>
        </extensions>
      </trkpt>
      <trkpt lat="44.1652" lon="3.19372">
        <ele>765.2</ele>
        <time>2022-02-10T10:28:29Z</time>
        <extensions>
          <gpxtpx:TrackPointExtension xmlns:gpxtpx="http://www.garmin.com/xmlschemas/TrackPointExtension/v1">
            <gpxtpx:hr>150</gpxtpx:hr>
          </gpxtpx:TrackPointExtension>
        </extensions>
      </trkpt>
      <trkpt lat="44.16522" lon="3.19372">
        <ele>765.2</ele>
        <time>2022-02-10T10:28:30Z</time>
        <extensions>
          <gpxtpx:TrackPointExtension xmlns:gpxtpx="http://www.garmin.com/xmlschemas/TrackPointExtension/v1">
            <gpxtpx:hr>150</gpxtpx:hr>
          </gpxtpx:TrackPointExtension>
        </extensions>
      </trkpt>
      <trkpt lat="44.16524" lon="3.19372">
        <ele>765.2</ele>
        <time>2022-02-10T10:28:31Z</time>
        <extensions>
          <gpxtpx:TrackPointExtension xmlns:gpxtpx="http://www.garmin.com/xmlschemas/TrackPointExtension/v1">
            <gpxtpx:hr>152</gpxtpx:hr>
          </gpxtpx:TrackPointExtension>
        </extensions>
      </trkpt>
      <trkpt lat="44.16526" lon="3.19372">
        <ele>765.2</ele>
        <time>2022-02-10T10:28:32Z</time>
        <extensions>
          <gpxtpx:TrackPointExtension xmlns:gpxtpx="http://www.garmin.com/xmlschemas/TrackPointExtension/v1">
            <gpxtpx:hr>152</gpxtpx:hr>
          </gpxtpx:TrackPointExtension>
        </extensions>
      </trkpt>
      <trkpt lat="44.16529" lon="3.1937">
        <ele>765.2</ele>
        <time>2022-02-10T10:28:34Z</time>
        <extensions>
          <gpxtpx:TrackPointExtension xmlns:gpxtpx="http://www.garmin.com/xmlschemas/TrackPointExtension/v1">
            <gpxtpx:hr>151</gpxtpx:hr>
          </gpxtpx:TrackPointExtension>
        </extensions>
      </trkpt>
      <trkpt lat="44.16532" lon="3.19368">
        <ele>765.4</ele>
        <time>2022-02-10T10:28:36Z</time>
        <extensions>
          <gpxtpx:TrackPointExtension xmlns:gpxtpx="http://www.garmin.com/xmlschemas/TrackPointExtension/v1">
            <gpxtpx:hr>151</gpxtpx:hr>
          </gpxtpx:TrackPointExtension>
        </extensions>
      </trkpt>
      <trkpt lat="44.16535" lon="3.19366">
        <ele>765.4</ele>
        <time>2022-02-10T10:28:38Z</time>
        <extensions>
          <gpxtpx:TrackPointExtension xmlns:gpxtpx="http://www.garmin.com/xmlschemas/TrackPointExtension/v1">
            <gpxtpx:hr>151</gpxtpx:hr>
          </gpxtpx:TrackPointExtension>
        </extensions>
      </trkpt>
      <trkpt lat="44.16537" lon="3.19364">
        <ele>765.6</ele>
        <time>2022-02-10T10:28:40Z</time>
        <extensions>
          <gpxtpx:TrackPointExtension xmlns:gpxtpx="http://www.garmin.com/xmlschemas/TrackPointExtension/v1">
            <gpxtpx:hr>152</gpxtpx:hr>
          </gpxtpx:TrackPointExtension>
        </extensions>
      </trkpt>
      <trkpt lat="44.16539" lon="3.19363">
        <ele>765.6</ele>
        <time>2022-02-10T10:28:41Z</time>
        <extensions>
          <gpxtpx:TrackPointExtension xmlns:gpxtpx="http://www.garmin.com/xmlschemas/TrackPointExtension/v1">
            <gpxtpx:hr>152</gpxtpx:hr>
          </gpxtpx:TrackPointExtension>
        </extensions>
      </trkpt>
      <trkpt lat="44.16541" lon="3.1936">
        <ele>765.6</ele>
        <time>2022-02-10T10:28:43Z</time>
        <extensions>
          <gpxtpx:TrackPointExtension xmlns:gpxtpx="http://www.garmin.com/xmlschemas/TrackPointExtension/v1">
            <gpxtpx:hr>153</gpxtpx:hr>
          </gpxtpx:TrackPointExtension>
        </extensions>
      </trkpt>
      <trkpt lat="44.16542" lon="3.19356">
        <ele>766.2</ele>
        <time>2022-02-10T10:28:45Z</time>
        <extensions>
          <gpxtpx:TrackPointExtension xmlns:gpxtpx="http://www.garmin.com/xmlschemas/TrackPointExtension/v1">
            <gpxtpx:hr>154</gpxtpx:hr>
          </gpxtpx:TrackPointExtension>
        </extensions>
      </trkpt>
      <trkpt lat="44.16541" lon="3.19352">
        <ele>766.2</ele>
        <time>2022-02-10T10:28:47Z</time>
        <extensions>
          <gpxtpx:TrackPointExtension xmlns:gpxtpx="http://www.garmin.com/xmlschemas/TrackPointExtension/v1">
            <gpxtpx:hr>156</gpxtpx:hr>
          </gpxtpx:TrackPointExtension>
        </extensions>
      </trkpt>
      <trkpt lat="44.1654" lon="3.19348">
        <ele>766.4</ele>
        <time>2022-02-10T10:28:49Z</time>
        <extensions>
          <gpxtpx:TrackPointExtension xmlns:gpxtpx="http://www.garmin.com/xmlschemas/TrackPointExtension/v1">
            <gpxtpx:hr>158</gpxtpx:hr>
          </gpxtpx:TrackPointExtension>
        </extensions>
      </trkpt>
      <trkpt lat="44.16538" lon="3.19346">
        <ele>766.6</ele>
        <time>2022-02-10T10:28:51Z</time>
        <extensions>
          <gpxtpx:TrackPointExtension xmlns:gpxtpx="http://www.garmin.com/xmlschemas/TrackPointExtension/v1">
            <gpxtpx:hr>159</gpxtpx:hr>
          </gpxtpx:TrackPointExtension>
        </extensions>
      </trkpt>
      <trkpt lat="44.16536" lon="3.19344">
        <ele>767.4</ele>
        <time>2022-02-10T10:28:53Z</time>
        <extensions>
          <gpxtpx:TrackPointExtension xmlns:gpxtpx="http://www.garmin.com/xmlschemas/TrackPointExtension/v1">
            <gpxtpx:hr>162</gpxtpx:hr>
          </gpxtpx:TrackPointExtension>
        </extensions>
      </trkpt>
      <trkpt lat="44.16534" lon="3.19343">
        <ele>767.8</ele>
        <time>2022-02-10T10:28:55Z</time>
        <extensions>
          <gpxtpx:TrackPointExtension xmlns:gpxtpx="http://www.garmin.com/xmlschemas/TrackPointExtension/v1">
            <gpxtpx:hr>163</gpxtpx:hr>
          </gpxtpx:TrackPointExtension>
        </extensions>
      </trkpt>
      <trkpt lat="44.16532" lon="3.19342">
        <ele>768</ele>
        <time>2022-02-10T10:28:57Z</time>
        <extensions>
          <gpxtpx:TrackPointExtension xmlns:gpxtpx="http://www.garmin.com/xmlschemas/TrackPointExtension/v1">
            <gpxtpx:hr>163</gpxtpx:hr>
          </gpxtpx:TrackPointExtension>
        </extensions>
      </trkpt>
      <trkpt lat="44.1653" lon="3.1934">
        <ele>768.4</ele>
        <time>2022-02-10T10:28:59Z</time>
        <extensions>
          <gpxtpx:TrackPointExtension xmlns:gpxtpx="http://www.garmin.com/xmlschemas/TrackPointExtension/v1">
            <gpxtpx:hr>162</gpxtpx:hr>
          </gpxtpx:TrackPointExtension>
        </extensions>
      </trkpt>
      <trkpt lat="44.16527" lon="3.19336">
        <ele>768.6</ele>
        <time>2022-02-10T10:29:01Z</time>
        <extensions>
          <gpxtpx:TrackPointExtension xmlns:gpxtpx="http://www.garmin.com/xmlschemas/TrackPointExtension/v1">
            <gpxtpx:hr>162</gpxtpx:hr>
          </gpxtpx:TrackPointExtension>
        </extensions>
      </trkpt>
      <trkpt lat="44.16525" lon="3.1933">
        <ele>768.8</ele>
        <time>2022-02-10T10:29:03Z</time>
        <extensions>
          <gpxtpx:TrackPointExtension xmlns:gpxtpx="http://www.garmin.com/xmlschemas/TrackPointExtension/v1">
            <gpxtpx:hr>162</gpxtpx:hr>
          </gpxtpx:TrackPointExtension>
        </extensions>
      </trkpt>
      <trkpt lat="44.16525" lon="3.19328">
        <ele>769</ele>
        <time>2022-02-10T10:29:04Z</time>
        <extensions>
          <gpxtpx:TrackPointExtension xmlns:gpxtpx="http://www.garmin.com/xmlschemas/TrackPointExtension/v1">
            <gpxtpx:hr>162</gpxtpx:hr>
          </gpxtpx:TrackPointExtension>
        </extensions>
      </trkpt>
      <trkpt lat="44.16526" lon="3.19322">
        <ele>769</ele>
        <time>2022-02-10T10:29:06Z</time>
        <extensions>
          <gpxtpx:TrackPointExtension xmlns:gpxtpx="http://www.garmin.com/xmlschemas/TrackPointExtension/v1">
            <gpxtpx:hr>163</gpxtpx:hr>
          </gpxtpx:TrackPointExtension>
        </extensions>
      </trkpt>
      <trkpt lat="44.16528" lon="3.19316">
        <ele>769.4</ele>
        <time>2022-02-10T10:29:08Z</time>
        <extensions>
          <gpxtpx:TrackPointExtension xmlns:gpxtpx="http://www.garmin.com/xmlschemas/TrackPointExtension/v1">
            <gpxtpx:hr>164</gpxtpx:hr>
          </gpxtpx:TrackPointExtension>
        </extensions>
      </trkpt>
      <trkpt lat="44.16529" lon="3.19314">
        <ele>769.4</ele>
        <time>2022-02-10T10:29:09Z</time>
        <extensions>
          <gpxtpx:TrackPointExtension xmlns:gpxtpx="http://www.garmin.com/xmlschemas/TrackPointExtension/v1">
            <gpxtpx:hr>165</gpxtpx:hr>
          </gpxtpx:TrackPointExtension>
        </extensions>
      </trkpt>
      <trkpt lat="44.1653" lon="3.19311">
        <ele>769.4</ele>
        <time>2022-02-10T10:29:10Z</time>
        <extensions>
          <gpxtpx:TrackPointExtension xmlns:gpxtpx="http://www.garmin.com/xmlschemas/TrackPointExtension/v1">
            <gpxtpx:hr>166</gpxtpx:hr>
          </gpxtpx:TrackPointExtension>
        </extensions>
      </trkpt>
      <trkpt lat="44.16533" lon="3.19307">
        <ele>769</ele>
        <time>2022-02-10T10:29:12Z</time>
        <extensions>
          <gpxtpx:TrackPointExtension xmlns:gpxtpx="http://www.garmin.com/xmlschemas/TrackPointExtension/v1">
            <gpxtpx:hr>164</gpxtpx:hr>
          </gpxtpx:TrackPointExtension>
        </extensions>
      </trkpt>
      <trkpt lat="44.16536" lon="3.19303">
        <ele>768.8</ele>
        <time>2022-02-10T10:29:14Z</time>
        <extensions>
          <gpxtpx:TrackPointExtension xmlns:gpxtpx="http://www.garmin.com/xmlschemas/TrackPointExtension/v1">
            <gpxtpx:hr>165</gpxtpx:hr>
          </gpxtpx:TrackPointExtension>
        </extensions>
      </trkpt>
      <trkpt lat="44.16538" lon="3.19301">
        <ele>768.8</ele>
        <time>2022-02-10T10:29:15Z</time>
        <extensions>
          <gpxtpx:TrackPointExtension xmlns:gpxtpx="http://www.garmin.com/xmlschemas/TrackPointExtension/v1">
            <gpxtpx:hr>164</gpxtpx:hr>
          </gpxtpx:TrackPointExtension>
        </extensions>
      </trkpt>
      <trkpt lat="44.1654" lon="3.193">
        <ele>768.8</ele>
        <time>2022-02-10T10:29:16Z</time>
        <extensions>
          <gpxtpx:TrackPointExtension xmlns:gpxtpx="http://www.garmin.com/xmlschemas/TrackPointExtension/v1">
            <gpxtpx:hr>163</gpxtpx:hr>
          </gpxtpx:TrackPointExtension>
        </extensions>
      </trkpt>
      <trkpt lat="44.16542" lon="3.19298">
        <ele>768.8</ele>
        <time>2022-02-10T10:29:17Z</time>
        <extensions>
          <gpxtpx:TrackPointExtension xmlns:gpxtpx="http://www.garmin.com/xmlschemas/TrackPointExtension/v1">
            <gpxtpx:hr>163</gpxtpx:hr>
          </gpxtpx:TrackPointExtension>
        </extensions>
      </trkpt>
      <trkpt lat="44.16544" lon="3.19297">
        <ele>768.8</ele>
        <time>2022-02-10T10:29:18Z</time>
        <extensions>
          <gpxtpx:TrackPointExtension xmlns:gpxtpx="http://www.garmin.com/xmlschemas/TrackPointExtension/v1">
            <gpxtpx:hr>163</gpxtpx:hr>
          </gpxtpx:TrackPointExtension>
        </extensions>
      </trkpt>
      <trkpt lat="44.16549" lon="3.19295">
        <ele>768.8</ele>
        <time>2022-02-10T10:29:20Z</time>
        <extensions>
          <gpxtpx:TrackPointExtension xmlns:gpxtpx="http://www.garmin.com/xmlschemas/TrackPointExtension/v1">
            <gpxtpx:hr>163</gpxtpx:hr>
          </gpxtpx:TrackPointExtension>
        </extensions>
      </trkpt>
      <trkpt lat="44.1655" lon="3.19293">
        <ele>768.8</ele>
        <time>2022-02-10T10:29:21Z</time>
        <extensions>
          <gpxtpx:TrackPointExtension xmlns:gpxtpx="http://www.garmin.com/xmlschemas/TrackPointExtension/v1">
            <gpxtpx:hr>164</gpxtpx:hr>
          </gpxtpx:TrackPointExtension>
        </extensions>
      </trkpt>
      <trkpt lat="44.16554" lon="3.1929">
        <ele>768.8</ele>
        <time>2022-02-10T10:29:23Z</time>
        <extensions>
          <gpxtpx:TrackPointExtension xmlns:gpxtpx="http://www.garmin.com/xmlschemas/TrackPointExtension/v1">
            <gpxtpx:hr>163</gpxtpx:hr>
          </gpxtpx:TrackPointExtension>
        </extensions>
      </trkpt>
      <trkpt lat="44.16556" lon="3.19287">
        <ele>768.8</ele>
        <time>2022-02-10T10:29:24Z</time>
        <extensions>
          <gpxtpx:TrackPointExtension xmlns:gpxtpx="http://www.garmin.com/xmlschemas/TrackPointExtension/v1">
            <gpxtpx:hr>163</gpxtpx:hr>
          </gpxtpx:TrackPointExtension>
        </extensions>
      </trkpt>
      <trkpt lat="44.16557" lon="3.19285">
        <ele>768.8</ele>
        <time>2022-02-10T10:29:25Z</time>
        <extensions>
          <gpxtpx:TrackPointExtension xmlns:gpxtpx="http://www.garmin.com/xmlschemas/TrackPointExtension/v1">
            <gpxtpx:hr>163</gpxtpx:hr>
          </gpxtpx:TrackPointExtension>
        </extensions>
      </trkpt>
      <trkpt lat="44.1656" lon="3.1928">
        <ele>768.8</ele>
        <time>2022-02-10T10:29:27Z</time>
        <extensions>
          <gpxtpx:TrackPointExtension xmlns:gpxtpx="http://www.garmin.com/xmlschemas/TrackPointExtension/v1">
            <gpxtpx:hr>164</gpxtpx:hr>
          </gpxtpx:TrackPointExtension>
        </extensions>
      </trkpt>
      <trkpt lat="44.16561" lon="3.19276">
        <ele>768.8</ele>
        <time>2022-02-10T10:29:28Z</time>
        <extensions>
          <gpxtpx:TrackPointExtension xmlns:gpxtpx="http://www.garmin.com/xmlschemas/TrackPointExtension/v1">
            <gpxtpx:hr>164</gpxtpx:hr>
          </gpxtpx:TrackPointExtension>
        </extensions>
      </trkpt>
      <trkpt lat="44.16562" lon="3.19273">
        <ele>768.8</ele>
        <time>2022-02-10T10:29:29Z</time>
        <extensions>
          <gpxtpx:TrackPointExtension xmlns:gpxtpx="http://www.garmin.com/xmlschemas/TrackPointExtension/v1">
            <gpxtpx:hr>163</gpxtpx:hr>
          </gpxtpx:TrackPointExtension>
        </extensions>
      </trkpt>
      <trkpt lat="44.16564" lon="3.19267">
        <ele>768.8</ele>
        <time>2022-02-10T10:29:31Z</time>
        <extensions>
          <gpxtpx:TrackPointExtension xmlns:gpxtpx="http://www.garmin.com/xmlschemas/TrackPointExtension/v1">
            <gpxtpx:hr>164</gpxtpx:hr>
          </gpxtpx:TrackPointExtension>
        </extensions>
      </trkpt>
      <trkpt lat="44.16565" lon="3.19264">
        <ele>768.8</ele>
        <time>2022-02-10T10:29:32Z</time>
        <extensions>
          <gpxtpx:TrackPointExtension xmlns:gpxtpx="http://www.garmin.com/xmlschemas/TrackPointExtension/v1">
            <gpxtpx:hr>163</gpxtpx:hr>
          </gpxtpx:TrackPointExtension>
        </extensions>
      </trkpt>
      <trkpt lat="44.16566" lon="3.19261">
        <ele>769</ele>
        <time>2022-02-10T10:29:33Z</time>
        <extensions>
          <gpxtpx:TrackPointExtension xmlns:gpxtpx="http://www.garmin.com/xmlschemas/TrackPointExtension/v1">
            <gpxtpx:hr>162</gpxtpx:hr>
          </gpxtpx:TrackPointExtension>
        </extensions>
      </trkpt>
      <trkpt lat="44.16568" lon="3.19256">
        <ele>769</ele>
        <time>2022-02-10T10:29:35Z</time>
        <extensions>
          <gpxtpx:TrackPointExtension xmlns:gpxtpx="http://www.garmin.com/xmlschemas/TrackPointExtension/v1">
            <gpxtpx:hr>162</gpxtpx:hr>
          </gpxtpx:TrackPointExtension>
        </extensions>
      </trkpt>
      <trkpt lat="44.16569" lon="3.19253">
        <ele>769</ele>
        <time>2022-02-10T10:29:36Z</time>
        <extensions>
          <gpxtpx:TrackPointExtension xmlns:gpxtpx="http://www.garmin.com/xmlschemas/TrackPointExtension/v1">
            <gpxtpx:hr>163</gpxtpx:hr>
          </gpxtpx:TrackPointExtension>
        </extensions>
      </trkpt>
      <trkpt lat="44.16571" lon="3.19251">
        <ele>769.2</ele>
        <time>2022-02-10T10:29:37Z</time>
        <extensions>
          <gpxtpx:TrackPointExtension xmlns:gpxtpx="http://www.garmin.com/xmlschemas/TrackPointExtension/v1">
            <gpxtpx:hr>164</gpxtpx:hr>
          </gpxtpx:TrackPointExtension>
        </extensions>
      </trkpt>
      <trkpt lat="44.16573" lon="3.19246">
        <ele>769.4</ele>
        <time>2022-02-10T10:29:39Z</time>
        <extensions>
          <gpxtpx:TrackPointExtension xmlns:gpxtpx="http://www.garmin.com/xmlschemas/TrackPointExtension/v1">
            <gpxtpx:hr>164</gpxtpx:hr>
          </gpxtpx:TrackPointExtension>
        </extensions>
      </trkpt>
      <trkpt lat="44.16576" lon="3.19242">
        <ele>769.8</ele>
        <time>2022-02-10T10:29:41Z</time>
        <extensions>
          <gpxtpx:TrackPointExtension xmlns:gpxtpx="http://www.garmin.com/xmlschemas/TrackPointExtension/v1">
            <gpxtpx:hr>164</gpxtpx:hr>
          </gpxtpx:TrackPointExtension>
        </extensions>
      </trkpt>
      <trkpt lat="44.1658" lon="3.19238">
        <ele>770</ele>
        <time>2022-02-10T10:29:43Z</time>
        <extensions>
          <gpxtpx:TrackPointExtension xmlns:gpxtpx="http://www.garmin.com/xmlschemas/TrackPointExtension/v1">
            <gpxtpx:hr>164</gpxtpx:hr>
          </gpxtpx:TrackPointExtension>
        </extensions>
      </trkpt>
      <trkpt lat="44.16584" lon="3.19232">
        <ele>770.4</ele>
        <time>2022-02-10T10:29:46Z</time>
        <extensions>
          <gpxtpx:TrackPointExtension xmlns:gpxtpx="http://www.garmin.com/xmlschemas/TrackPointExtension/v1">
            <gpxtpx:hr>164</gpxtpx:hr>
          </gpxtpx:TrackPointExtension>
        </extensions>
      </trkpt>
      <trkpt lat="44.16587" lon="3.19226">
        <ele>770.4</ele>
        <time>2022-02-10T10:29:48Z</time>
        <extensions>
          <gpxtpx:TrackPointExtension xmlns:gpxtpx="http://www.garmin.com/xmlschemas/TrackPointExtension/v1">
            <gpxtpx:hr>164</gpxtpx:hr>
          </gpxtpx:TrackPointExtension>
        </extensions>
      </trkpt>
      <trkpt lat="44.16587" lon="3.19225">
        <ele>770.6</ele>
        <time>2022-02-10T10:29:49Z</time>
        <extensions>
          <gpxtpx:TrackPointExtension xmlns:gpxtpx="http://www.garmin.com/xmlschemas/TrackPointExtension/v1">
            <gpxtpx:hr>165</gpxtpx:hr>
          </gpxtpx:TrackPointExtension>
        </extensions>
      </trkpt>
      <trkpt lat="44.16589" lon="3.1922">
        <ele>770.8</ele>
        <time>2022-02-10T10:29:51Z</time>
        <extensions>
          <gpxtpx:TrackPointExtension xmlns:gpxtpx="http://www.garmin.com/xmlschemas/TrackPointExtension/v1">
            <gpxtpx:hr>165</gpxtpx:hr>
          </gpxtpx:TrackPointExtension>
        </extensions>
      </trkpt>
      <trkpt lat="44.1659" lon="3.19218">
        <ele>770.8</ele>
        <time>2022-02-10T10:29:52Z</time>
        <extensions>
          <gpxtpx:TrackPointExtension xmlns:gpxtpx="http://www.garmin.com/xmlschemas/TrackPointExtension/v1">
            <gpxtpx:hr>165</gpxtpx:hr>
          </gpxtpx:TrackPointExtension>
        </extensions>
      </trkpt>
      <trkpt lat="44.16591" lon="3.19215">
        <ele>770.8</ele>
        <time>2022-02-10T10:29:53Z</time>
        <extensions>
          <gpxtpx:TrackPointExtension xmlns:gpxtpx="http://www.garmin.com/xmlschemas/TrackPointExtension/v1">
            <gpxtpx:hr>165</gpxtpx:hr>
          </gpxtpx:TrackPointExtension>
        </extensions>
      </trkpt>
      <trkpt lat="44.16592" lon="3.1921">
        <ele>771</ele>
        <time>2022-02-10T10:29:55Z</time>
        <extensions>
          <gpxtpx:TrackPointExtension xmlns:gpxtpx="http://www.garmin.com/xmlschemas/TrackPointExtension/v1">
            <gpxtpx:hr>165</gpxtpx:hr>
          </gpxtpx:TrackPointExtension>
        </extensions>
      </trkpt>
      <trkpt lat="44.16593" lon="3.19208">
        <ele>771</ele>
        <time>2022-02-10T10:29:56Z</time>
        <extensions>
          <gpxtpx:TrackPointExtension xmlns:gpxtpx="http://www.garmin.com/xmlschemas/TrackPointExtension/v1">
            <gpxtpx:hr>165</gpxtpx:hr>
          </gpxtpx:TrackPointExtension>
        </extensions>
      </trkpt>
      <trkpt lat="44.16594" lon="3.19205">
        <ele>771.4</ele>
        <time>2022-02-10T10:29:57Z</time>
        <extensions>
          <gpxtpx:TrackPointExtension xmlns:gpxtpx="http://www.garmin.com/xmlschemas/TrackPointExtension/v1">
            <gpxtpx:hr>165</gpxtpx:hr>
          </gpxtpx:TrackPointExtension>
        </extensions>
      </trkpt>
      <trkpt lat="44.16594" lon="3.19198">
        <ele>771.4</ele>
        <time>2022-02-10T10:30:00Z</time>
        <extensions>
          <gpxtpx:TrackPointExtension xmlns:gpxtpx="http://www.garmin.com/xmlschemas/TrackPointExtension/v1">
            <gpxtpx:hr>165</gpxtpx:hr>
          </gpxtpx:TrackPointExtension>
        </extensions>
      </trkpt>
      <trkpt lat="44.16593" lon="3.19195">
        <ele>771.6</ele>
        <time>2022-02-10T10:30:02Z</time>
        <extensions>
          <gpxtpx:TrackPointExtension xmlns:gpxtpx="http://www.garmin.com/xmlschemas/TrackPointExtension/v1">
            <gpxtpx:hr>166</gpxtpx:hr>
          </gpxtpx:TrackPointExtension>
        </extensions>
      </trkpt>
      <trkpt lat="44.16593" lon="3.19193">
        <ele>771.6</ele>
        <time>2022-02-10T10:30:03Z</time>
        <extensions>
          <gpxtpx:TrackPointExtension xmlns:gpxtpx="http://www.garmin.com/xmlschemas/TrackPointExtension/v1">
            <gpxtpx:hr>167</gpxtpx:hr>
          </gpxtpx:TrackPointExtension>
        </extensions>
      </trkpt>
      <trkpt lat="44.16592" lon="3.19191">
        <ele>771.8</ele>
        <time>2022-02-10T10:30:04Z</time>
        <extensions>
          <gpxtpx:TrackPointExtension xmlns:gpxtpx="http://www.garmin.com/xmlschemas/TrackPointExtension/v1">
            <gpxtpx:hr>167</gpxtpx:hr>
          </gpxtpx:TrackPointExtension>
        </extensions>
      </trkpt>
      <trkpt lat="44.16591" lon="3.19189">
        <ele>772.2</ele>
        <time>2022-02-10T10:30:05Z</time>
        <extensions>
          <gpxtpx:TrackPointExtension xmlns:gpxtpx="http://www.garmin.com/xmlschemas/TrackPointExtension/v1">
            <gpxtpx:hr>167</gpxtpx:hr>
          </gpxtpx:TrackPointExtension>
        </extensions>
      </trkpt>
      <trkpt lat="44.16591" lon="3.19187">
        <ele>772.2</ele>
        <time>2022-02-10T10:30:06Z</time>
        <extensions>
          <gpxtpx:TrackPointExtension xmlns:gpxtpx="http://www.garmin.com/xmlschemas/TrackPointExtension/v1">
            <gpxtpx:hr>166</gpxtpx:hr>
          </gpxtpx:TrackPointExtension>
        </extensions>
      </trkpt>
      <trkpt lat="44.1659" lon="3.19184">
        <ele>772.2</ele>
        <time>2022-02-10T10:30:07Z</time>
        <extensions>
          <gpxtpx:TrackPointExtension xmlns:gpxtpx="http://www.garmin.com/xmlschemas/TrackPointExtension/v1">
            <gpxtpx:hr>166</gpxtpx:hr>
          </gpxtpx:TrackPointExtension>
        </extensions>
      </trkpt>
      <trkpt lat="44.1659" lon="3.19182">
        <ele>772.6</ele>
        <time>2022-02-10T10:30:08Z</time>
        <extensions>
          <gpxtpx:TrackPointExtension xmlns:gpxtpx="http://www.garmin.com/xmlschemas/TrackPointExtension/v1">
            <gpxtpx:hr>166</gpxtpx:hr>
          </gpxtpx:TrackPointExtension>
        </extensions>
      </trkpt>
      <trkpt lat="44.16589" lon="3.1918">
        <ele>773</ele>
        <time>2022-02-10T10:30:09Z</time>
        <extensions>
          <gpxtpx:TrackPointExtension xmlns:gpxtpx="http://www.garmin.com/xmlschemas/TrackPointExtension/v1">
            <gpxtpx:hr>166</gpxtpx:hr>
          </gpxtpx:TrackPointExtension>
        </extensions>
      </trkpt>
      <trkpt lat="44.16588" lon="3.19179">
        <ele>773</ele>
        <time>2022-02-10T10:30:10Z</time>
        <extensions>
          <gpxtpx:TrackPointExtension xmlns:gpxtpx="http://www.garmin.com/xmlschemas/TrackPointExtension/v1">
            <gpxtpx:hr>166</gpxtpx:hr>
          </gpxtpx:TrackPointExtension>
        </extensions>
      </trkpt>
      <trkpt lat="44.16588" lon="3.19177">
        <ele>773</ele>
        <time>2022-02-10T10:30:11Z</time>
        <extensions>
          <gpxtpx:TrackPointExtension xmlns:gpxtpx="http://www.garmin.com/xmlschemas/TrackPointExtension/v1">
            <gpxtpx:hr>166</gpxtpx:hr>
          </gpxtpx:TrackPointExtension>
        </extensions>
      </trkpt>
      <trkpt lat="44.16587" lon="3.19175">
        <ele>773.2</ele>
        <time>2022-02-10T10:30:12Z</time>
        <extensions>
          <gpxtpx:TrackPointExtension xmlns:gpxtpx="http://www.garmin.com/xmlschemas/TrackPointExtension/v1">
            <gpxtpx:hr>167</gpxtpx:hr>
          </gpxtpx:TrackPointExtension>
        </extensions>
      </trkpt>
      <trkpt lat="44.16587" lon="3.19173">
        <ele>773.6</ele>
        <time>2022-02-10T10:30:13Z</time>
        <extensions>
          <gpxtpx:TrackPointExtension xmlns:gpxtpx="http://www.garmin.com/xmlschemas/TrackPointExtension/v1">
            <gpxtpx:hr>168</gpxtpx:hr>
          </gpxtpx:TrackPointExtension>
        </extensions>
      </trkpt>
      <trkpt lat="44.16586" lon="3.19171">
        <ele>773.8</ele>
        <time>2022-02-10T10:30:14Z</time>
        <extensions>
          <gpxtpx:TrackPointExtension xmlns:gpxtpx="http://www.garmin.com/xmlschemas/TrackPointExtension/v1">
            <gpxtpx:hr>167</gpxtpx:hr>
          </gpxtpx:TrackPointExtension>
        </extensions>
      </trkpt>
      <trkpt lat="44.16586" lon="3.19169">
        <ele>773.8</ele>
        <time>2022-02-10T10:30:15Z</time>
        <extensions>
          <gpxtpx:TrackPointExtension xmlns:gpxtpx="http://www.garmin.com/xmlschemas/TrackPointExtension/v1">
            <gpxtpx:hr>167</gpxtpx:hr>
          </gpxtpx:TrackPointExtension>
        </extensions>
      </trkpt>
      <trkpt lat="44.16585" lon="3.19167">
        <ele>774.2</ele>
        <time>2022-02-10T10:30:16Z</time>
        <extensions>
          <gpxtpx:TrackPointExtension xmlns:gpxtpx="http://www.garmin.com/xmlschemas/TrackPointExtension/v1">
            <gpxtpx:hr>167</gpxtpx:hr>
          </gpxtpx:TrackPointExtension>
        </extensions>
      </trkpt>
      <trkpt lat="44.16584" lon="3.19165">
        <ele>774.2</ele>
        <time>2022-02-10T10:30:17Z</time>
        <extensions>
          <gpxtpx:TrackPointExtension xmlns:gpxtpx="http://www.garmin.com/xmlschemas/TrackPointExtension/v1">
            <gpxtpx:hr>167</gpxtpx:hr>
          </gpxtpx:TrackPointExtension>
        </extensions>
      </trkpt>
      <trkpt lat="44.16584" lon="3.19162">
        <ele>774.2</ele>
        <time>2022-02-10T10:30:18Z</time>
        <extensions>
          <gpxtpx:TrackPointExtension xmlns:gpxtpx="http://www.garmin.com/xmlschemas/TrackPointExtension/v1">
            <gpxtpx:hr>167</gpxtpx:hr>
          </gpxtpx:TrackPointExtension>
        </extensions>
      </trkpt>
      <trkpt lat="44.16583" lon="3.1916">
        <ele>774.2</ele>
        <time>2022-02-10T10:30:19Z</time>
        <extensions>
          <gpxtpx:TrackPointExtension xmlns:gpxtpx="http://www.garmin.com/xmlschemas/TrackPointExtension/v1">
            <gpxtpx:hr>167</gpxtpx:hr>
          </gpxtpx:TrackPointExtension>
        </extensions>
      </trkpt>
      <trkpt lat="44.16583" lon="3.19158">
        <ele>774.4</ele>
        <time>2022-02-10T10:30:20Z</time>
        <extensions>
          <gpxtpx:TrackPointExtension xmlns:gpxtpx="http://www.garmin.com/xmlschemas/TrackPointExtension/v1">
            <gpxtpx:hr>167</gpxtpx:hr>
          </gpxtpx:TrackPointExtension>
        </extensions>
      </trkpt>
      <trkpt lat="44.16583" lon="3.19156">
        <ele>774.6</ele>
        <time>2022-02-10T10:30:21Z</time>
        <extensions>
          <gpxtpx:TrackPointExtension xmlns:gpxtpx="http://www.garmin.com/xmlschemas/TrackPointExtension/v1">
            <gpxtpx:hr>167</gpxtpx:hr>
          </gpxtpx:TrackPointExtension>
        </extensions>
      </trkpt>
      <trkpt lat="44.16582" lon="3.19154">
        <ele>774.6</ele>
        <time>2022-02-10T10:30:22Z</time>
        <extensions>
          <gpxtpx:TrackPointExtension xmlns:gpxtpx="http://www.garmin.com/xmlschemas/TrackPointExtension/v1">
            <gpxtpx:hr>167</gpxtpx:hr>
          </gpxtpx:TrackPointExtension>
        </extensions>
      </trkpt>
      <trkpt lat="44.16582" lon="3.19152">
        <ele>774.8</ele>
        <time>2022-02-10T10:30:23Z</time>
        <extensions>
          <gpxtpx:TrackPointExtension xmlns:gpxtpx="http://www.garmin.com/xmlschemas/TrackPointExtension/v1">
            <gpxtpx:hr>167</gpxtpx:hr>
          </gpxtpx:TrackPointExtension>
        </extensions>
      </trkpt>
      <trkpt lat="44.16582" lon="3.1915">
        <ele>774.8</ele>
        <time>2022-02-10T10:30:24Z</time>
        <extensions>
          <gpxtpx:TrackPointExtension xmlns:gpxtpx="http://www.garmin.com/xmlschemas/TrackPointExtension/v1">
            <gpxtpx:hr>167</gpxtpx:hr>
          </gpxtpx:TrackPointExtension>
        </extensions>
      </trkpt>
      <trkpt lat="44.16581" lon="3.19147">
        <ele>775.2</ele>
        <time>2022-02-10T10:30:25Z</time>
        <extensions>
          <gpxtpx:TrackPointExtension xmlns:gpxtpx="http://www.garmin.com/xmlschemas/TrackPointExtension/v1">
            <gpxtpx:hr>167</gpxtpx:hr>
          </gpxtpx:TrackPointExtension>
        </extensions>
      </trkpt>
      <trkpt lat="44.16582" lon="3.19145">
        <ele>775.2</ele>
        <time>2022-02-10T10:30:26Z</time>
        <extensions>
          <gpxtpx:TrackPointExtension xmlns:gpxtpx="http://www.garmin.com/xmlschemas/TrackPointExtension/v1">
            <gpxtpx:hr>167</gpxtpx:hr>
          </gpxtpx:TrackPointExtension>
        </extensions>
      </trkpt>
      <trkpt lat="44.16582" lon="3.19143">
        <ele>775.6</ele>
        <time>2022-02-10T10:30:27Z</time>
        <extensions>
          <gpxtpx:TrackPointExtension xmlns:gpxtpx="http://www.garmin.com/xmlschemas/TrackPointExtension/v1">
            <gpxtpx:hr>168</gpxtpx:hr>
          </gpxtpx:TrackPointExtension>
        </extensions>
      </trkpt>
      <trkpt lat="44.16582" lon="3.19141">
        <ele>775.6</ele>
        <time>2022-02-10T10:30:28Z</time>
        <extensions>
          <gpxtpx:TrackPointExtension xmlns:gpxtpx="http://www.garmin.com/xmlschemas/TrackPointExtension/v1">
            <gpxtpx:hr>168</gpxtpx:hr>
          </gpxtpx:TrackPointExtension>
        </extensions>
      </trkpt>
      <trkpt lat="44.16583" lon="3.19138">
        <ele>775.8</ele>
        <time>2022-02-10T10:30:29Z</time>
        <extensions>
          <gpxtpx:TrackPointExtension xmlns:gpxtpx="http://www.garmin.com/xmlschemas/TrackPointExtension/v1">
            <gpxtpx:hr>169</gpxtpx:hr>
          </gpxtpx:TrackPointExtension>
        </extensions>
      </trkpt>
      <trkpt lat="44.16583" lon="3.19136">
        <ele>776.2</ele>
        <time>2022-02-10T10:30:30Z</time>
        <extensions>
          <gpxtpx:TrackPointExtension xmlns:gpxtpx="http://www.garmin.com/xmlschemas/TrackPointExtension/v1">
            <gpxtpx:hr>169</gpxtpx:hr>
          </gpxtpx:TrackPointExtension>
        </extensions>
      </trkpt>
      <trkpt lat="44.16583" lon="3.19134">
        <ele>776.4</ele>
        <time>2022-02-10T10:30:31Z</time>
        <extensions>
          <gpxtpx:TrackPointExtension xmlns:gpxtpx="http://www.garmin.com/xmlschemas/TrackPointExtension/v1">
            <gpxtpx:hr>169</gpxtpx:hr>
          </gpxtpx:TrackPointExtension>
        </extensions>
      </trkpt>
      <trkpt lat="44.16584" lon="3.19131">
        <ele>776.4</ele>
        <time>2022-02-10T10:30:32Z</time>
        <extensions>
          <gpxtpx:TrackPointExtension xmlns:gpxtpx="http://www.garmin.com/xmlschemas/TrackPointExtension/v1">
            <gpxtpx:hr>169</gpxtpx:hr>
          </gpxtpx:TrackPointExtension>
        </extensions>
      </trkpt>
      <trkpt lat="44.16585" lon="3.19129">
        <ele>776.6</ele>
        <time>2022-02-10T10:30:33Z</time>
        <extensions>
          <gpxtpx:TrackPointExtension xmlns:gpxtpx="http://www.garmin.com/xmlschemas/TrackPointExtension/v1">
            <gpxtpx:hr>169</gpxtpx:hr>
          </gpxtpx:TrackPointExtension>
        </extensions>
      </trkpt>
      <trkpt lat="44.16585" lon="3.19126">
        <ele>776.6</ele>
        <time>2022-02-10T10:30:34Z</time>
        <extensions>
          <gpxtpx:TrackPointExtension xmlns:gpxtpx="http://www.garmin.com/xmlschemas/TrackPointExtension/v1">
            <gpxtpx:hr>169</gpxtpx:hr>
          </gpxtpx:TrackPointExtension>
        </extensions>
      </trkpt>
      <trkpt lat="44.16586" lon="3.19123">
        <ele>776.6</ele>
        <time>2022-02-10T10:30:35Z</time>
        <extensions>
          <gpxtpx:TrackPointExtension xmlns:gpxtpx="http://www.garmin.com/xmlschemas/TrackPointExtension/v1">
            <gpxtpx:hr>170</gpxtpx:hr>
          </gpxtpx:TrackPointExtension>
        </extensions>
      </trkpt>
      <trkpt lat="44.16586" lon="3.19121">
        <ele>777</ele>
        <time>2022-02-10T10:30:36Z</time>
        <extensions>
          <gpxtpx:TrackPointExtension xmlns:gpxtpx="http://www.garmin.com/xmlschemas/TrackPointExtension/v1">
            <gpxtpx:hr>171</gpxtpx:hr>
          </gpxtpx:TrackPointExtension>
        </extensions>
      </trkpt>
      <trkpt lat="44.16587" lon="3.19118">
        <ele>777.4</ele>
        <time>2022-02-10T10:30:37Z</time>
        <extensions>
          <gpxtpx:TrackPointExtension xmlns:gpxtpx="http://www.garmin.com/xmlschemas/TrackPointExtension/v1">
            <gpxtpx:hr>172</gpxtpx:hr>
          </gpxtpx:TrackPointExtension>
        </extensions>
      </trkpt>
      <trkpt lat="44.16587" lon="3.19116">
        <ele>777.4</ele>
        <time>2022-02-10T10:30:38Z</time>
        <extensions>
          <gpxtpx:TrackPointExtension xmlns:gpxtpx="http://www.garmin.com/xmlschemas/TrackPointExtension/v1">
            <gpxtpx:hr>172</gpxtpx:hr>
          </gpxtpx:TrackPointExtension>
        </extensions>
      </trkpt>
      <trkpt lat="44.16587" lon="3.19113">
        <ele>777.4</ele>
        <time>2022-02-10T10:30:39Z</time>
        <extensions>
          <gpxtpx:TrackPointExtension xmlns:gpxtpx="http://www.garmin.com/xmlschemas/TrackPointExtension/v1">
            <gpxtpx:hr>172</gpxtpx:hr>
          </gpxtpx:TrackPointExtension>
        </extensions>
      </trkpt>
      <trkpt lat="44.16588" lon="3.19111">
        <ele>777.8</ele>
        <time>2022-02-10T10:30:40Z</time>
        <extensions>
          <gpxtpx:TrackPointExtension xmlns:gpxtpx="http://www.garmin.com/xmlschemas/TrackPointExtension/v1">
            <gpxtpx:hr>172</gpxtpx:hr>
          </gpxtpx:TrackPointExtension>
        </extensions>
      </trkpt>
      <trkpt lat="44.16588" lon="3.19108">
        <ele>778</ele>
        <time>2022-02-10T10:30:41Z</time>
        <extensions>
          <gpxtpx:TrackPointExtension xmlns:gpxtpx="http://www.garmin.com/xmlschemas/TrackPointExtension/v1">
            <gpxtpx:hr>171</gpxtpx:hr>
          </gpxtpx:TrackPointExtension>
        </extensions>
      </trkpt>
      <trkpt lat="44.16588" lon="3.19106">
        <ele>778</ele>
        <time>2022-02-10T10:30:42Z</time>
        <extensions>
          <gpxtpx:TrackPointExtension xmlns:gpxtpx="http://www.garmin.com/xmlschemas/TrackPointExtension/v1">
            <gpxtpx:hr>170</gpxtpx:hr>
          </gpxtpx:TrackPointExtension>
        </extensions>
      </trkpt>
      <trkpt lat="44.16588" lon="3.19103">
        <ele>778</ele>
        <time>2022-02-10T10:30:43Z</time>
        <extensions>
          <gpxtpx:TrackPointExtension xmlns:gpxtpx="http://www.garmin.com/xmlschemas/TrackPointExtension/v1">
            <gpxtpx:hr>171</gpxtpx:hr>
          </gpxtpx:TrackPointExtension>
        </extensions>
      </trkpt>
      <trkpt lat="44.16588" lon="3.19101">
        <ele>778.6</ele>
        <time>2022-02-10T10:30:44Z</time>
        <extensions>
          <gpxtpx:TrackPointExtension xmlns:gpxtpx="http://www.garmin.com/xmlschemas/TrackPointExtension/v1">
            <gpxtpx:hr>172</gpxtpx:hr>
          </gpxtpx:TrackPointExtension>
        </extensions>
      </trkpt>
      <trkpt lat="44.16588" lon="3.19099">
        <ele>778.8</ele>
        <time>2022-02-10T10:30:45Z</time>
        <extensions>
          <gpxtpx:TrackPointExtension xmlns:gpxtpx="http://www.garmin.com/xmlschemas/TrackPointExtension/v1">
            <gpxtpx:hr>172</gpxtpx:hr>
          </gpxtpx:TrackPointExtension>
        </extensions>
      </trkpt>
      <trkpt lat="44.16588" lon="3.19096">
        <ele>779</ele>
        <time>2022-02-10T10:30:46Z</time>
        <extensions>
          <gpxtpx:TrackPointExtension xmlns:gpxtpx="http://www.garmin.com/xmlschemas/TrackPointExtension/v1">
            <gpxtpx:hr>171</gpxtpx:hr>
          </gpxtpx:TrackPointExtension>
        </extensions>
      </trkpt>
      <trkpt lat="44.16588" lon="3.19094">
        <ele>779.4</ele>
        <time>2022-02-10T10:30:47Z</time>
        <extensions>
          <gpxtpx:TrackPointExtension xmlns:gpxtpx="http://www.garmin.com/xmlschemas/TrackPointExtension/v1">
            <gpxtpx:hr>171</gpxtpx:hr>
          </gpxtpx:TrackPointExtension>
        </extensions>
      </trkpt>
      <trkpt lat="44.16588" lon="3.19092">
        <ele>779.6</ele>
        <time>2022-02-10T10:30:48Z</time>
        <extensions>
          <gpxtpx:TrackPointExtension xmlns:gpxtpx="http://www.garmin.com/xmlschemas/TrackPointExtension/v1">
            <gpxtpx:hr>171</gpxtpx:hr>
          </gpxtpx:TrackPointExtension>
        </extensions>
      </trkpt>
      <trkpt lat="44.16588" lon="3.1909">
        <ele>779.6</ele>
        <time>2022-02-10T10:30:49Z</time>
        <extensions>
          <gpxtpx:TrackPointExtension xmlns:gpxtpx="http://www.garmin.com/xmlschemas/TrackPointExtension/v1">
            <gpxtpx:hr>172</gpxtpx:hr>
          </gpxtpx:TrackPointExtension>
        </extensions>
      </trkpt>
      <trkpt lat="44.16588" lon="3.19087">
        <ele>780</ele>
        <time>2022-02-10T10:30:50Z</time>
        <extensions>
          <gpxtpx:TrackPointExtension xmlns:gpxtpx="http://www.garmin.com/xmlschemas/TrackPointExtension/v1">
            <gpxtpx:hr>173</gpxtpx:hr>
          </gpxtpx:TrackPointExtension>
        </extensions>
      </trkpt>
      <trkpt lat="44.16588" lon="3.19085">
        <ele>780.2</ele>
        <time>2022-02-10T10:30:51Z</time>
        <extensions>
          <gpxtpx:TrackPointExtension xmlns:gpxtpx="http://www.garmin.com/xmlschemas/TrackPointExtension/v1">
            <gpxtpx:hr>174</gpxtpx:hr>
          </gpxtpx:TrackPointExtension>
        </extensions>
      </trkpt>
      <trkpt lat="44.16588" lon="3.19083">
        <ele>780.6</ele>
        <time>2022-02-10T10:30:52Z</time>
        <extensions>
          <gpxtpx:TrackPointExtension xmlns:gpxtpx="http://www.garmin.com/xmlschemas/TrackPointExtension/v1">
            <gpxtpx:hr>174</gpxtpx:hr>
          </gpxtpx:TrackPointExtension>
        </extensions>
      </trkpt>
      <trkpt lat="44.16588" lon="3.19081">
        <ele>780.6</ele>
        <time>2022-02-10T10:30:53Z</time>
        <extensions>
          <gpxtpx:TrackPointExtension xmlns:gpxtpx="http://www.garmin.com/xmlschemas/TrackPointExtension/v1">
            <gpxtpx:hr>175</gpxtpx:hr>
          </gpxtpx:TrackPointExtension>
        </extensions>
      </trkpt>
      <trkpt lat="44.16589" lon="3.19079">
        <ele>780.8</ele>
        <time>2022-02-10T10:30:54Z</time>
        <extensions>
          <gpxtpx:TrackPointExtension xmlns:gpxtpx="http://www.garmin.com/xmlschemas/TrackPointExtension/v1">
            <gpxtpx:hr>174</gpxtpx:hr>
          </gpxtpx:TrackPointExtension>
        </extensions>
      </trkpt>
      <trkpt lat="44.16589" lon="3.19076">
        <ele>781.2</ele>
        <time>2022-02-10T10:30:55Z</time>
        <extensions>
          <gpxtpx:TrackPointExtension xmlns:gpxtpx="http://www.garmin.com/xmlschemas/TrackPointExtension/v1">
            <gpxtpx:hr>174</gpxtpx:hr>
          </gpxtpx:TrackPointExtension>
        </extensions>
      </trkpt>
      <trkpt lat="44.1659" lon="3.19073">
        <ele>781.6</ele>
        <time>2022-02-10T10:30:56Z</time>
        <extensions>
          <gpxtpx:TrackPointExtension xmlns:gpxtpx="http://www.garmin.com/xmlschemas/TrackPointExtension/v1">
            <gpxtpx:hr>174</gpxtpx:hr>
          </gpxtpx:TrackPointExtension>
        </extensions>
      </trkpt>
      <trkpt lat="44.1659" lon="3.19071">
        <ele>781.8</ele>
        <time>2022-02-10T10:30:57Z</time>
        <extensions>
          <gpxtpx:TrackPointExtension xmlns:gpxtpx="http://www.garmin.com/xmlschemas/TrackPointExtension/v1">
            <gpxtpx:hr>174</gpxtpx:hr>
          </gpxtpx:TrackPointExtension>
        </extensions>
      </trkpt>
      <trkpt lat="44.16591" lon="3.19068">
        <ele>782</ele>
        <time>2022-02-10T10:30:58Z</time>
        <extensions>
          <gpxtpx:TrackPointExtension xmlns:gpxtpx="http://www.garmin.com/xmlschemas/TrackPointExtension/v1">
            <gpxtpx:hr>174</gpxtpx:hr>
          </gpxtpx:TrackPointExtension>
        </extensions>
      </trkpt>
      <trkpt lat="44.16591" lon="3.19065">
        <ele>782.2</ele>
        <time>2022-02-10T10:30:59Z</time>
        <extensions>
          <gpxtpx:TrackPointExtension xmlns:gpxtpx="http://www.garmin.com/xmlschemas/TrackPointExtension/v1">
            <gpxtpx:hr>174</gpxtpx:hr>
          </gpxtpx:TrackPointExtension>
        </extensions>
      </trkpt>
      <trkpt lat="44.16593" lon="3.19064">
        <ele>782.6</ele>
        <time>2022-02-10T10:31:00Z</time>
        <extensions>
          <gpxtpx:TrackPointExtension xmlns:gpxtpx="http://www.garmin.com/xmlschemas/TrackPointExtension/v1">
            <gpxtpx:hr>175</gpxtpx:hr>
          </gpxtpx:TrackPointExtension>
        </extensions>
      </trkpt>
      <trkpt lat="44.16594" lon="3.19062">
        <ele>782.8</ele>
        <time>2022-02-10T10:31:01Z</time>
        <extensions>
          <gpxtpx:TrackPointExtension xmlns:gpxtpx="http://www.garmin.com/xmlschemas/TrackPointExtension/v1">
            <gpxtpx:hr>174</gpxtpx:hr>
          </gpxtpx:TrackPointExtension>
        </extensions>
      </trkpt>
      <trkpt lat="44.16595" lon="3.19061">
        <ele>782.8</ele>
        <time>2022-02-10T10:31:02Z</time>
        <extensions>
          <gpxtpx:TrackPointExtension xmlns:gpxtpx="http://www.garmin.com/xmlschemas/TrackPointExtension/v1">
            <gpxtpx:hr>174</gpxtpx:hr>
          </gpxtpx:TrackPointExtension>
        </extensions>
      </trkpt>
      <trkpt lat="44.16596" lon="3.1906">
        <ele>783.2</ele>
        <time>2022-02-10T10:31:03Z</time>
        <extensions>
          <gpxtpx:TrackPointExtension xmlns:gpxtpx="http://www.garmin.com/xmlschemas/TrackPointExtension/v1">
            <gpxtpx:hr>175</gpxtpx:hr>
          </gpxtpx:TrackPointExtension>
        </extensions>
      </trkpt>
      <trkpt lat="44.16598" lon="3.19059">
        <ele>783.2</ele>
        <time>2022-02-10T10:31:04Z</time>
        <extensions>
          <gpxtpx:TrackPointExtension xmlns:gpxtpx="http://www.garmin.com/xmlschemas/TrackPointExtension/v1">
            <gpxtpx:hr>175</gpxtpx:hr>
          </gpxtpx:TrackPointExtension>
        </extensions>
      </trkpt>
      <trkpt lat="44.16599" lon="3.19057">
        <ele>783.6</ele>
        <time>2022-02-10T10:31:05Z</time>
        <extensions>
          <gpxtpx:TrackPointExtension xmlns:gpxtpx="http://www.garmin.com/xmlschemas/TrackPointExtension/v1">
            <gpxtpx:hr>175</gpxtpx:hr>
          </gpxtpx:TrackPointExtension>
        </extensions>
      </trkpt>
      <trkpt lat="44.166" lon="3.19056">
        <ele>783.6</ele>
        <time>2022-02-10T10:31:06Z</time>
        <extensions>
          <gpxtpx:TrackPointExtension xmlns:gpxtpx="http://www.garmin.com/xmlschemas/TrackPointExtension/v1">
            <gpxtpx:hr>176</gpxtpx:hr>
          </gpxtpx:TrackPointExtension>
        </extensions>
      </trkpt>
      <trkpt lat="44.16602" lon="3.19055">
        <ele>783.6</ele>
        <time>2022-02-10T10:31:07Z</time>
        <extensions>
          <gpxtpx:TrackPointExtension xmlns:gpxtpx="http://www.garmin.com/xmlschemas/TrackPointExtension/v1">
            <gpxtpx:hr>176</gpxtpx:hr>
          </gpxtpx:TrackPointExtension>
        </extensions>
      </trkpt>
      <trkpt lat="44.16603" lon="3.19053">
        <ele>783.6</ele>
        <time>2022-02-10T10:31:08Z</time>
        <extensions>
          <gpxtpx:TrackPointExtension xmlns:gpxtpx="http://www.garmin.com/xmlschemas/TrackPointExtension/v1">
            <gpxtpx:hr>176</gpxtpx:hr>
          </gpxtpx:TrackPointExtension>
        </extensions>
      </trkpt>
      <trkpt lat="44.16605" lon="3.19052">
        <ele>783.8</ele>
        <time>2022-02-10T10:31:09Z</time>
        <extensions>
          <gpxtpx:TrackPointExtension xmlns:gpxtpx="http://www.garmin.com/xmlschemas/TrackPointExtension/v1">
            <gpxtpx:hr>176</gpxtpx:hr>
          </gpxtpx:TrackPointExtension>
        </extensions>
      </trkpt>
      <trkpt lat="44.16607" lon="3.19051">
        <ele>783.8</ele>
        <time>2022-02-10T10:31:10Z</time>
        <extensions>
          <gpxtpx:TrackPointExtension xmlns:gpxtpx="http://www.garmin.com/xmlschemas/TrackPointExtension/v1">
            <gpxtpx:hr>176</gpxtpx:hr>
          </gpxtpx:TrackPointExtension>
        </extensions>
      </trkpt>
      <trkpt lat="44.16608" lon="3.19049">
        <ele>783.8</ele>
        <time>2022-02-10T10:31:11Z</time>
        <extensions>
          <gpxtpx:TrackPointExtension xmlns:gpxtpx="http://www.garmin.com/xmlschemas/TrackPointExtension/v1">
            <gpxtpx:hr>175</gpxtpx:hr>
          </gpxtpx:TrackPointExtension>
        </extensions>
      </trkpt>
      <trkpt lat="44.1661" lon="3.19048">
        <ele>783.8</ele>
        <time>2022-02-10T10:31:12Z</time>
        <extensions>
          <gpxtpx:TrackPointExtension xmlns:gpxtpx="http://www.garmin.com/xmlschemas/TrackPointExtension/v1">
            <gpxtpx:hr>175</gpxtpx:hr>
          </gpxtpx:TrackPointExtension>
        </extensions>
      </trkpt>
      <trkpt lat="44.16611" lon="3.19046">
        <ele>783.8</ele>
        <time>2022-02-10T10:31:13Z</time>
        <extensions>
          <gpxtpx:TrackPointExtension xmlns:gpxtpx="http://www.garmin.com/xmlschemas/TrackPointExtension/v1">
            <gpxtpx:hr>175</gpxtpx:hr>
          </gpxtpx:TrackPointExtension>
        </extensions>
      </trkpt>
      <trkpt lat="44.16612" lon="3.19044">
        <ele>783.8</ele>
        <time>2022-02-10T10:31:14Z</time>
        <extensions>
          <gpxtpx:TrackPointExtension xmlns:gpxtpx="http://www.garmin.com/xmlschemas/TrackPointExtension/v1">
            <gpxtpx:hr>174</gpxtpx:hr>
          </gpxtpx:TrackPointExtension>
        </extensions>
      </trkpt>
      <trkpt lat="44.16614" lon="3.19041">
        <ele>783.8</ele>
        <time>2022-02-10T10:31:15Z</time>
        <extensions>
          <gpxtpx:TrackPointExtension xmlns:gpxtpx="http://www.garmin.com/xmlschemas/TrackPointExtension/v1">
            <gpxtpx:hr>174</gpxtpx:hr>
          </gpxtpx:TrackPointExtension>
        </extensions>
      </trkpt>
      <trkpt lat="44.16616" lon="3.19037">
        <ele>783.8</ele>
        <time>2022-02-10T10:31:17Z</time>
        <extensions>
          <gpxtpx:TrackPointExtension xmlns:gpxtpx="http://www.garmin.com/xmlschemas/TrackPointExtension/v1">
            <gpxtpx:hr>173</gpxtpx:hr>
          </gpxtpx:TrackPointExtension>
        </extensions>
      </trkpt>
      <trkpt lat="44.16617" lon="3.19035">
        <ele>784</ele>
        <time>2022-02-10T10:31:19Z</time>
        <extensions>
          <gpxtpx:TrackPointExtension xmlns:gpxtpx="http://www.garmin.com/xmlschemas/TrackPointExtension/v1">
            <gpxtpx:hr>173</gpxtpx:hr>
          </gpxtpx:TrackPointExtension>
        </extensions>
      </trkpt>
      <trkpt lat="44.16618" lon="3.19033">
        <ele>784</ele>
        <time>2022-02-10T10:31:20Z</time>
        <extensions>
          <gpxtpx:TrackPointExtension xmlns:gpxtpx="http://www.garmin.com/xmlschemas/TrackPointExtension/v1">
            <gpxtpx:hr>173</gpxtpx:hr>
          </gpxtpx:TrackPointExtension>
        </extensions>
      </trkpt>
      <trkpt lat="44.16619" lon="3.19031">
        <ele>784</ele>
        <time>2022-02-10T10:31:21Z</time>
        <extensions>
          <gpxtpx:TrackPointExtension xmlns:gpxtpx="http://www.garmin.com/xmlschemas/TrackPointExtension/v1">
            <gpxtpx:hr>173</gpxtpx:hr>
          </gpxtpx:TrackPointExtension>
        </extensions>
      </trkpt>
      <trkpt lat="44.1662" lon="3.19029">
        <ele>784</ele>
        <time>2022-02-10T10:31:22Z</time>
        <extensions>
          <gpxtpx:TrackPointExtension xmlns:gpxtpx="http://www.garmin.com/xmlschemas/TrackPointExtension/v1">
            <gpxtpx:hr>172</gpxtpx:hr>
          </gpxtpx:TrackPointExtension>
        </extensions>
      </trkpt>
      <trkpt lat="44.16621" lon="3.19027">
        <ele>784.2</ele>
        <time>2022-02-10T10:31:23Z</time>
        <extensions>
          <gpxtpx:TrackPointExtension xmlns:gpxtpx="http://www.garmin.com/xmlschemas/TrackPointExtension/v1">
            <gpxtpx:hr>172</gpxtpx:hr>
          </gpxtpx:TrackPointExtension>
        </extensions>
      </trkpt>
      <trkpt lat="44.16622" lon="3.19026">
        <ele>784.2</ele>
        <time>2022-02-10T10:31:24Z</time>
        <extensions>
          <gpxtpx:TrackPointExtension xmlns:gpxtpx="http://www.garmin.com/xmlschemas/TrackPointExtension/v1">
            <gpxtpx:hr>173</gpxtpx:hr>
          </gpxtpx:TrackPointExtension>
        </extensions>
      </trkpt>
      <trkpt lat="44.16624" lon="3.19025">
        <ele>784.4</ele>
        <time>2022-02-10T10:31:25Z</time>
        <extensions>
          <gpxtpx:TrackPointExtension xmlns:gpxtpx="http://www.garmin.com/xmlschemas/TrackPointExtension/v1">
            <gpxtpx:hr>172</gpxtpx:hr>
          </gpxtpx:TrackPointExtension>
        </extensions>
      </trkpt>
      <trkpt lat="44.16626" lon="3.19023">
        <ele>784.4</ele>
        <time>2022-02-10T10:31:26Z</time>
        <extensions>
          <gpxtpx:TrackPointExtension xmlns:gpxtpx="http://www.garmin.com/xmlschemas/TrackPointExtension/v1">
            <gpxtpx:hr>171</gpxtpx:hr>
          </gpxtpx:TrackPointExtension>
        </extensions>
      </trkpt>
      <trkpt lat="44.16628" lon="3.19022">
        <ele>784.4</ele>
        <time>2022-02-10T10:31:27Z</time>
        <extensions>
          <gpxtpx:TrackPointExtension xmlns:gpxtpx="http://www.garmin.com/xmlschemas/TrackPointExtension/v1">
            <gpxtpx:hr>170</gpxtpx:hr>
          </gpxtpx:TrackPointExtension>
        </extensions>
      </trkpt>
      <trkpt lat="44.16629" lon="3.19021">
        <ele>784.8</ele>
        <time>2022-02-10T10:31:28Z</time>
        <extensions>
          <gpxtpx:TrackPointExtension xmlns:gpxtpx="http://www.garmin.com/xmlschemas/TrackPointExtension/v1">
            <gpxtpx:hr>170</gpxtpx:hr>
          </gpxtpx:TrackPointExtension>
        </extensions>
      </trkpt>
      <trkpt lat="44.16631" lon="3.1902">
        <ele>785</ele>
        <time>2022-02-10T10:31:29Z</time>
        <extensions>
          <gpxtpx:TrackPointExtension xmlns:gpxtpx="http://www.garmin.com/xmlschemas/TrackPointExtension/v1">
            <gpxtpx:hr>171</gpxtpx:hr>
          </gpxtpx:TrackPointExtension>
        </extensions>
      </trkpt>
      <trkpt lat="44.16633" lon="3.1902">
        <ele>785.2</ele>
        <time>2022-02-10T10:31:30Z</time>
        <extensions>
          <gpxtpx:TrackPointExtension xmlns:gpxtpx="http://www.garmin.com/xmlschemas/TrackPointExtension/v1">
            <gpxtpx:hr>171</gpxtpx:hr>
          </gpxtpx:TrackPointExtension>
        </extensions>
      </trkpt>
      <trkpt lat="44.16635" lon="3.1902">
        <ele>785.2</ele>
        <time>2022-02-10T10:31:31Z</time>
        <extensions>
          <gpxtpx:TrackPointExtension xmlns:gpxtpx="http://www.garmin.com/xmlschemas/TrackPointExtension/v1">
            <gpxtpx:hr>171</gpxtpx:hr>
          </gpxtpx:TrackPointExtension>
        </extensions>
      </trkpt>
      <trkpt lat="44.16636" lon="3.19019">
        <ele>785.2</ele>
        <time>2022-02-10T10:31:32Z</time>
        <extensions>
          <gpxtpx:TrackPointExtension xmlns:gpxtpx="http://www.garmin.com/xmlschemas/TrackPointExtension/v1">
            <gpxtpx:hr>171</gpxtpx:hr>
          </gpxtpx:TrackPointExtension>
        </extensions>
      </trkpt>
      <trkpt lat="44.16638" lon="3.19019">
        <ele>785.6</ele>
        <time>2022-02-10T10:31:33Z</time>
        <extensions>
          <gpxtpx:TrackPointExtension xmlns:gpxtpx="http://www.garmin.com/xmlschemas/TrackPointExtension/v1">
            <gpxtpx:hr>171</gpxtpx:hr>
          </gpxtpx:TrackPointExtension>
        </extensions>
      </trkpt>
      <trkpt lat="44.1664" lon="3.19018">
        <ele>785.6</ele>
        <time>2022-02-10T10:31:34Z</time>
        <extensions>
          <gpxtpx:TrackPointExtension xmlns:gpxtpx="http://www.garmin.com/xmlschemas/TrackPointExtension/v1">
            <gpxtpx:hr>171</gpxtpx:hr>
          </gpxtpx:TrackPointExtension>
        </extensions>
      </trkpt>
      <trkpt lat="44.16642" lon="3.19018">
        <ele>786</ele>
        <time>2022-02-10T10:31:35Z</time>
        <extensions>
          <gpxtpx:TrackPointExtension xmlns:gpxtpx="http://www.garmin.com/xmlschemas/TrackPointExtension/v1">
            <gpxtpx:hr>171</gpxtpx:hr>
          </gpxtpx:TrackPointExtension>
        </extensions>
      </trkpt>
      <trkpt lat="44.16644" lon="3.19018">
        <ele>786.4</ele>
        <time>2022-02-10T10:31:36Z</time>
        <extensions>
          <gpxtpx:TrackPointExtension xmlns:gpxtpx="http://www.garmin.com/xmlschemas/TrackPointExtension/v1">
            <gpxtpx:hr>172</gpxtpx:hr>
          </gpxtpx:TrackPointExtension>
        </extensions>
      </trkpt>
      <trkpt lat="44.16647" lon="3.19017">
        <ele>786.4</ele>
        <time>2022-02-10T10:31:37Z</time>
        <extensions>
          <gpxtpx:TrackPointExtension xmlns:gpxtpx="http://www.garmin.com/xmlschemas/TrackPointExtension/v1">
            <gpxtpx:hr>172</gpxtpx:hr>
          </gpxtpx:TrackPointExtension>
        </extensions>
      </trkpt>
      <trkpt lat="44.16649" lon="3.19017">
        <ele>786.6</ele>
        <time>2022-02-10T10:31:38Z</time>
        <extensions>
          <gpxtpx:TrackPointExtension xmlns:gpxtpx="http://www.garmin.com/xmlschemas/TrackPointExtension/v1">
            <gpxtpx:hr>172</gpxtpx:hr>
          </gpxtpx:TrackPointExtension>
        </extensions>
      </trkpt>
      <trkpt lat="44.16651" lon="3.19017">
        <ele>786.6</ele>
        <time>2022-02-10T10:31:39Z</time>
        <extensions>
          <gpxtpx:TrackPointExtension xmlns:gpxtpx="http://www.garmin.com/xmlschemas/TrackPointExtension/v1">
            <gpxtpx:hr>172</gpxtpx:hr>
          </gpxtpx:TrackPointExtension>
        </extensions>
      </trkpt>
      <trkpt lat="44.16653" lon="3.19016">
        <ele>786.6</ele>
        <time>2022-02-10T10:31:40Z</time>
        <extensions>
          <gpxtpx:TrackPointExtension xmlns:gpxtpx="http://www.garmin.com/xmlschemas/TrackPointExtension/v1">
            <gpxtpx:hr>172</gpxtpx:hr>
          </gpxtpx:TrackPointExtension>
        </extensions>
      </trkpt>
      <trkpt lat="44.16655" lon="3.19016">
        <ele>786.8</ele>
        <time>2022-02-10T10:31:41Z</time>
        <extensions>
          <gpxtpx:TrackPointExtension xmlns:gpxtpx="http://www.garmin.com/xmlschemas/TrackPointExtension/v1">
            <gpxtpx:hr>173</gpxtpx:hr>
          </gpxtpx:TrackPointExtension>
        </extensions>
      </trkpt>
      <trkpt lat="44.16658" lon="3.19016">
        <ele>787.2</ele>
        <time>2022-02-10T10:31:42Z</time>
        <extensions>
          <gpxtpx:TrackPointExtension xmlns:gpxtpx="http://www.garmin.com/xmlschemas/TrackPointExtension/v1">
            <gpxtpx:hr>173</gpxtpx:hr>
          </gpxtpx:TrackPointExtension>
        </extensions>
      </trkpt>
      <trkpt lat="44.1666" lon="3.19015">
        <ele>787.2</ele>
        <time>2022-02-10T10:31:43Z</time>
        <extensions>
          <gpxtpx:TrackPointExtension xmlns:gpxtpx="http://www.garmin.com/xmlschemas/TrackPointExtension/v1">
            <gpxtpx:hr>173</gpxtpx:hr>
          </gpxtpx:TrackPointExtension>
        </extensions>
      </trkpt>
      <trkpt lat="44.16662" lon="3.19015">
        <ele>787.6</ele>
        <time>2022-02-10T10:31:44Z</time>
        <extensions>
          <gpxtpx:TrackPointExtension xmlns:gpxtpx="http://www.garmin.com/xmlschemas/TrackPointExtension/v1">
            <gpxtpx:hr>172</gpxtpx:hr>
          </gpxtpx:TrackPointExtension>
        </extensions>
      </trkpt>
      <trkpt lat="44.16663" lon="3.19015">
        <ele>788</ele>
        <time>2022-02-10T10:31:45Z</time>
        <extensions>
          <gpxtpx:TrackPointExtension xmlns:gpxtpx="http://www.garmin.com/xmlschemas/TrackPointExtension/v1">
            <gpxtpx:hr>173</gpxtpx:hr>
          </gpxtpx:TrackPointExtension>
        </extensions>
      </trkpt>
      <trkpt lat="44.16665" lon="3.19015">
        <ele>788.2</ele>
        <time>2022-02-10T10:31:46Z</time>
        <extensions>
          <gpxtpx:TrackPointExtension xmlns:gpxtpx="http://www.garmin.com/xmlschemas/TrackPointExtension/v1">
            <gpxtpx:hr>173</gpxtpx:hr>
          </gpxtpx:TrackPointExtension>
        </extensions>
      </trkpt>
      <trkpt lat="44.16668" lon="3.19014">
        <ele>788.4</ele>
        <time>2022-02-10T10:31:47Z</time>
        <extensions>
          <gpxtpx:TrackPointExtension xmlns:gpxtpx="http://www.garmin.com/xmlschemas/TrackPointExtension/v1">
            <gpxtpx:hr>172</gpxtpx:hr>
          </gpxtpx:TrackPointExtension>
        </extensions>
      </trkpt>
      <trkpt lat="44.1667" lon="3.19013">
        <ele>789</ele>
        <time>2022-02-10T10:31:49Z</time>
        <extensions>
          <gpxtpx:TrackPointExtension xmlns:gpxtpx="http://www.garmin.com/xmlschemas/TrackPointExtension/v1">
            <gpxtpx:hr>172</gpxtpx:hr>
          </gpxtpx:TrackPointExtension>
        </extensions>
      </trkpt>
      <trkpt lat="44.16672" lon="3.19012">
        <ele>789.6</ele>
        <time>2022-02-10T10:31:51Z</time>
        <extensions>
          <gpxtpx:TrackPointExtension xmlns:gpxtpx="http://www.garmin.com/xmlschemas/TrackPointExtension/v1">
            <gpxtpx:hr>173</gpxtpx:hr>
          </gpxtpx:TrackPointExtension>
        </extensions>
      </trkpt>
      <trkpt lat="44.16675" lon="3.19012">
        <ele>789.8</ele>
        <time>2022-02-10T10:31:53Z</time>
        <extensions>
          <gpxtpx:TrackPointExtension xmlns:gpxtpx="http://www.garmin.com/xmlschemas/TrackPointExtension/v1">
            <gpxtpx:hr>173</gpxtpx:hr>
          </gpxtpx:TrackPointExtension>
        </extensions>
      </trkpt>
      <trkpt lat="44.16677" lon="3.19013">
        <ele>790</ele>
        <time>2022-02-10T10:31:55Z</time>
        <extensions>
          <gpxtpx:TrackPointExtension xmlns:gpxtpx="http://www.garmin.com/xmlschemas/TrackPointExtension/v1">
            <gpxtpx:hr>173</gpxtpx:hr>
          </gpxtpx:TrackPointExtension>
        </extensions>
      </trkpt>
      <trkpt lat="44.16681" lon="3.19015">
        <ele>790.4</ele>
        <time>2022-02-10T10:31:57Z</time>
        <extensions>
          <gpxtpx:TrackPointExtension xmlns:gpxtpx="http://www.garmin.com/xmlschemas/TrackPointExtension/v1">
            <gpxtpx:hr>173</gpxtpx:hr>
          </gpxtpx:TrackPointExtension>
        </extensions>
      </trkpt>
      <trkpt lat="44.16684" lon="3.19016">
        <ele>790.4</ele>
        <time>2022-02-10T10:31:59Z</time>
        <extensions>
          <gpxtpx:TrackPointExtension xmlns:gpxtpx="http://www.garmin.com/xmlschemas/TrackPointExtension/v1">
            <gpxtpx:hr>174</gpxtpx:hr>
          </gpxtpx:TrackPointExtension>
        </extensions>
      </trkpt>
      <trkpt lat="44.16687" lon="3.19016">
        <ele>790.6</ele>
        <time>2022-02-10T10:32:01Z</time>
        <extensions>
          <gpxtpx:TrackPointExtension xmlns:gpxtpx="http://www.garmin.com/xmlschemas/TrackPointExtension/v1">
            <gpxtpx:hr>174</gpxtpx:hr>
          </gpxtpx:TrackPointExtension>
        </extensions>
      </trkpt>
      <trkpt lat="44.16691" lon="3.19016">
        <ele>791.2</ele>
        <time>2022-02-10T10:32:03Z</time>
        <extensions>
          <gpxtpx:TrackPointExtension xmlns:gpxtpx="http://www.garmin.com/xmlschemas/TrackPointExtension/v1">
            <gpxtpx:hr>174</gpxtpx:hr>
          </gpxtpx:TrackPointExtension>
        </extensions>
      </trkpt>
      <trkpt lat="44.16695" lon="3.19013">
        <ele>791.6</ele>
        <time>2022-02-10T10:32:06Z</time>
        <extensions>
          <gpxtpx:TrackPointExtension xmlns:gpxtpx="http://www.garmin.com/xmlschemas/TrackPointExtension/v1">
            <gpxtpx:hr>174</gpxtpx:hr>
          </gpxtpx:TrackPointExtension>
        </extensions>
      </trkpt>
      <trkpt lat="44.16697" lon="3.19011">
        <ele>791.8</ele>
        <time>2022-02-10T10:32:07Z</time>
        <extensions>
          <gpxtpx:TrackPointExtension xmlns:gpxtpx="http://www.garmin.com/xmlschemas/TrackPointExtension/v1">
            <gpxtpx:hr>174</gpxtpx:hr>
          </gpxtpx:TrackPointExtension>
        </extensions>
      </trkpt>
      <trkpt lat="44.167" lon="3.19008">
        <ele>791.8</ele>
        <time>2022-02-10T10:32:09Z</time>
        <extensions>
          <gpxtpx:TrackPointExtension xmlns:gpxtpx="http://www.garmin.com/xmlschemas/TrackPointExtension/v1">
            <gpxtpx:hr>174</gpxtpx:hr>
          </gpxtpx:TrackPointExtension>
        </extensions>
      </trkpt>
      <trkpt lat="44.16703" lon="3.19005">
        <ele>792</ele>
        <time>2022-02-10T10:32:11Z</time>
        <extensions>
          <gpxtpx:TrackPointExtension xmlns:gpxtpx="http://www.garmin.com/xmlschemas/TrackPointExtension/v1">
            <gpxtpx:hr>175</gpxtpx:hr>
          </gpxtpx:TrackPointExtension>
        </extensions>
      </trkpt>
      <trkpt lat="44.16705" lon="3.19002">
        <ele>792.4</ele>
        <time>2022-02-10T10:32:13Z</time>
        <extensions>
          <gpxtpx:TrackPointExtension xmlns:gpxtpx="http://www.garmin.com/xmlschemas/TrackPointExtension/v1">
            <gpxtpx:hr>175</gpxtpx:hr>
          </gpxtpx:TrackPointExtension>
        </extensions>
      </trkpt>
      <trkpt lat="44.16707" lon="3.18999">
        <ele>792.8</ele>
        <time>2022-02-10T10:32:15Z</time>
        <extensions>
          <gpxtpx:TrackPointExtension xmlns:gpxtpx="http://www.garmin.com/xmlschemas/TrackPointExtension/v1">
            <gpxtpx:hr>174</gpxtpx:hr>
          </gpxtpx:TrackPointExtension>
        </extensions>
      </trkpt>
      <trkpt lat="44.16709" lon="3.18996">
        <ele>792.8</ele>
        <time>2022-02-10T10:32:17Z</time>
        <extensions>
          <gpxtpx:TrackPointExtension xmlns:gpxtpx="http://www.garmin.com/xmlschemas/TrackPointExtension/v1">
            <gpxtpx:hr>176</gpxtpx:hr>
          </gpxtpx:TrackPointExtension>
        </extensions>
      </trkpt>
      <trkpt lat="44.16713" lon="3.18993">
        <ele>793.2</ele>
        <time>2022-02-10T10:32:19Z</time>
        <extensions>
          <gpxtpx:TrackPointExtension xmlns:gpxtpx="http://www.garmin.com/xmlschemas/TrackPointExtension/v1">
            <gpxtpx:hr>175</gpxtpx:hr>
          </gpxtpx:TrackPointExtension>
        </extensions>
      </trkpt>
      <trkpt lat="44.16714" lon="3.18991">
        <ele>793.2</ele>
        <time>2022-02-10T10:32:20Z</time>
        <extensions>
          <gpxtpx:TrackPointExtension xmlns:gpxtpx="http://www.garmin.com/xmlschemas/TrackPointExtension/v1">
            <gpxtpx:hr>174</gpxtpx:hr>
          </gpxtpx:TrackPointExtension>
        </extensions>
      </trkpt>
      <trkpt lat="44.16716" lon="3.18989">
        <ele>793.4</ele>
        <time>2022-02-10T10:32:21Z</time>
        <extensions>
          <gpxtpx:TrackPointExtension xmlns:gpxtpx="http://www.garmin.com/xmlschemas/TrackPointExtension/v1">
            <gpxtpx:hr>174</gpxtpx:hr>
          </gpxtpx:TrackPointExtension>
        </extensions>
      </trkpt>
      <trkpt lat="44.16718" lon="3.18988">
        <ele>793.4</ele>
        <time>2022-02-10T10:32:22Z</time>
        <extensions>
          <gpxtpx:TrackPointExtension xmlns:gpxtpx="http://www.garmin.com/xmlschemas/TrackPointExtension/v1">
            <gpxtpx:hr>174</gpxtpx:hr>
          </gpxtpx:TrackPointExtension>
        </extensions>
      </trkpt>
      <trkpt lat="44.16719" lon="3.18986">
        <ele>793.4</ele>
        <time>2022-02-10T10:32:23Z</time>
        <extensions>
          <gpxtpx:TrackPointExtension xmlns:gpxtpx="http://www.garmin.com/xmlschemas/TrackPointExtension/v1">
            <gpxtpx:hr>175</gpxtpx:hr>
          </gpxtpx:TrackPointExtension>
        </extensions>
      </trkpt>
      <trkpt lat="44.16721" lon="3.18984">
        <ele>793.6</ele>
        <time>2022-02-10T10:32:24Z</time>
        <extensions>
          <gpxtpx:TrackPointExtension xmlns:gpxtpx="http://www.garmin.com/xmlschemas/TrackPointExtension/v1">
            <gpxtpx:hr>174</gpxtpx:hr>
          </gpxtpx:TrackPointExtension>
        </extensions>
      </trkpt>
      <trkpt lat="44.16723" lon="3.18983">
        <ele>793.6</ele>
        <time>2022-02-10T10:32:25Z</time>
        <extensions>
          <gpxtpx:TrackPointExtension xmlns:gpxtpx="http://www.garmin.com/xmlschemas/TrackPointExtension/v1">
            <gpxtpx:hr>174</gpxtpx:hr>
          </gpxtpx:TrackPointExtension>
        </extensions>
      </trkpt>
      <trkpt lat="44.16725" lon="3.18981">
        <ele>793.8</ele>
        <time>2022-02-10T10:32:26Z</time>
        <extensions>
          <gpxtpx:TrackPointExtension xmlns:gpxtpx="http://www.garmin.com/xmlschemas/TrackPointExtension/v1">
            <gpxtpx:hr>174</gpxtpx:hr>
          </gpxtpx:TrackPointExtension>
        </extensions>
      </trkpt>
      <trkpt lat="44.16726" lon="3.18979">
        <ele>793.8</ele>
        <time>2022-02-10T10:32:27Z</time>
        <extensions>
          <gpxtpx:TrackPointExtension xmlns:gpxtpx="http://www.garmin.com/xmlschemas/TrackPointExtension/v1">
            <gpxtpx:hr>174</gpxtpx:hr>
          </gpxtpx:TrackPointExtension>
        </extensions>
      </trkpt>
      <trkpt lat="44.16728" lon="3.18977">
        <ele>794</ele>
        <time>2022-02-10T10:32:28Z</time>
        <extensions>
          <gpxtpx:TrackPointExtension xmlns:gpxtpx="http://www.garmin.com/xmlschemas/TrackPointExtension/v1">
            <gpxtpx:hr>174</gpxtpx:hr>
          </gpxtpx:TrackPointExtension>
        </extensions>
      </trkpt>
      <trkpt lat="44.16729" lon="3.18975">
        <ele>794</ele>
        <time>2022-02-10T10:32:29Z</time>
        <extensions>
          <gpxtpx:TrackPointExtension xmlns:gpxtpx="http://www.garmin.com/xmlschemas/TrackPointExtension/v1">
            <gpxtpx:hr>174</gpxtpx:hr>
          </gpxtpx:TrackPointExtension>
        </extensions>
      </trkpt>
      <trkpt lat="44.16731" lon="3.18973">
        <ele>794</ele>
        <time>2022-02-10T10:32:30Z</time>
        <extensions>
          <gpxtpx:TrackPointExtension xmlns:gpxtpx="http://www.garmin.com/xmlschemas/TrackPointExtension/v1">
            <gpxtpx:hr>174</gpxtpx:hr>
          </gpxtpx:TrackPointExtension>
        </extensions>
      </trkpt>
      <trkpt lat="44.16732" lon="3.18971">
        <ele>794</ele>
        <time>2022-02-10T10:32:31Z</time>
        <extensions>
          <gpxtpx:TrackPointExtension xmlns:gpxtpx="http://www.garmin.com/xmlschemas/TrackPointExtension/v1">
            <gpxtpx:hr>174</gpxtpx:hr>
          </gpxtpx:TrackPointExtension>
        </extensions>
      </trkpt>
      <trkpt lat="44.16733" lon="3.18969">
        <ele>794.2</ele>
        <time>2022-02-10T10:32:32Z</time>
        <extensions>
          <gpxtpx:TrackPointExtension xmlns:gpxtpx="http://www.garmin.com/xmlschemas/TrackPointExtension/v1">
            <gpxtpx:hr>175</gpxtpx:hr>
          </gpxtpx:TrackPointExtension>
        </extensions>
      </trkpt>
      <trkpt lat="44.16735" lon="3.18966">
        <ele>794.2</ele>
        <time>2022-02-10T10:32:33Z</time>
        <extensions>
          <gpxtpx:TrackPointExtension xmlns:gpxtpx="http://www.garmin.com/xmlschemas/TrackPointExtension/v1">
            <gpxtpx:hr>174</gpxtpx:hr>
          </gpxtpx:TrackPointExtension>
        </extensions>
      </trkpt>
      <trkpt lat="44.16736" lon="3.18964">
        <ele>794.2</ele>
        <time>2022-02-10T10:32:34Z</time>
        <extensions>
          <gpxtpx:TrackPointExtension xmlns:gpxtpx="http://www.garmin.com/xmlschemas/TrackPointExtension/v1">
            <gpxtpx:hr>174</gpxtpx:hr>
          </gpxtpx:TrackPointExtension>
        </extensions>
      </trkpt>
      <trkpt lat="44.16739" lon="3.1896">
        <ele>794.2</ele>
        <time>2022-02-10T10:32:36Z</time>
        <extensions>
          <gpxtpx:TrackPointExtension xmlns:gpxtpx="http://www.garmin.com/xmlschemas/TrackPointExtension/v1">
            <gpxtpx:hr>173</gpxtpx:hr>
          </gpxtpx:TrackPointExtension>
        </extensions>
      </trkpt>
      <trkpt lat="44.16741" lon="3.18957">
        <ele>794.2</ele>
        <time>2022-02-10T10:32:38Z</time>
        <extensions>
          <gpxtpx:TrackPointExtension xmlns:gpxtpx="http://www.garmin.com/xmlschemas/TrackPointExtension/v1">
            <gpxtpx:hr>172</gpxtpx:hr>
          </gpxtpx:TrackPointExtension>
        </extensions>
      </trkpt>
      <trkpt lat="44.16742" lon="3.18955">
        <ele>794.2</ele>
        <time>2022-02-10T10:32:40Z</time>
        <extensions>
          <gpxtpx:TrackPointExtension xmlns:gpxtpx="http://www.garmin.com/xmlschemas/TrackPointExtension/v1">
            <gpxtpx:hr>171</gpxtpx:hr>
          </gpxtpx:TrackPointExtension>
        </extensions>
      </trkpt>
      <trkpt lat="44.16743" lon="3.18952">
        <ele>794.2</ele>
        <time>2022-02-10T10:32:43Z</time>
        <extensions>
          <gpxtpx:TrackPointExtension xmlns:gpxtpx="http://www.garmin.com/xmlschemas/TrackPointExtension/v1">
            <gpxtpx:hr>170</gpxtpx:hr>
          </gpxtpx:TrackPointExtension>
        </extensions>
      </trkpt>
      <trkpt lat="44.16745" lon="3.18949">
        <ele>794.2</ele>
        <time>2022-02-10T10:32:45Z</time>
        <extensions>
          <gpxtpx:TrackPointExtension xmlns:gpxtpx="http://www.garmin.com/xmlschemas/TrackPointExtension/v1">
            <gpxtpx:hr>169</gpxtpx:hr>
          </gpxtpx:TrackPointExtension>
        </extensions>
      </trkpt>
      <trkpt lat="44.16746" lon="3.18946">
        <ele>794</ele>
        <time>2022-02-10T10:32:47Z</time>
        <extensions>
          <gpxtpx:TrackPointExtension xmlns:gpxtpx="http://www.garmin.com/xmlschemas/TrackPointExtension/v1">
            <gpxtpx:hr>168</gpxtpx:hr>
          </gpxtpx:TrackPointExtension>
        </extensions>
      </trkpt>
      <trkpt lat="44.16748" lon="3.18942">
        <ele>794</ele>
        <time>2022-02-10T10:32:49Z</time>
        <extensions>
          <gpxtpx:TrackPointExtension xmlns:gpxtpx="http://www.garmin.com/xmlschemas/TrackPointExtension/v1">
            <gpxtpx:hr>168</gpxtpx:hr>
          </gpxtpx:TrackPointExtension>
        </extensions>
      </trkpt>
      <trkpt lat="44.1675" lon="3.18938">
        <ele>793.6</ele>
        <time>2022-02-10T10:32:51Z</time>
        <extensions>
          <gpxtpx:TrackPointExtension xmlns:gpxtpx="http://www.garmin.com/xmlschemas/TrackPointExtension/v1">
            <gpxtpx:hr>167</gpxtpx:hr>
          </gpxtpx:TrackPointExtension>
        </extensions>
      </trkpt>
      <trkpt lat="44.16752" lon="3.18933">
        <ele>793</ele>
        <time>2022-02-10T10:32:53Z</time>
        <extensions>
          <gpxtpx:TrackPointExtension xmlns:gpxtpx="http://www.garmin.com/xmlschemas/TrackPointExtension/v1">
            <gpxtpx:hr>166</gpxtpx:hr>
          </gpxtpx:TrackPointExtension>
        </extensions>
      </trkpt>
      <trkpt lat="44.16756" lon="3.18928">
        <ele>792.8</ele>
        <time>2022-02-10T10:32:55Z</time>
        <extensions>
          <gpxtpx:TrackPointExtension xmlns:gpxtpx="http://www.garmin.com/xmlschemas/TrackPointExtension/v1">
            <gpxtpx:hr>166</gpxtpx:hr>
          </gpxtpx:TrackPointExtension>
        </extensions>
      </trkpt>
      <trkpt lat="44.16759" lon="3.18923">
        <ele>792.4</ele>
        <time>2022-02-10T10:32:57Z</time>
        <extensions>
          <gpxtpx:TrackPointExtension xmlns:gpxtpx="http://www.garmin.com/xmlschemas/TrackPointExtension/v1">
            <gpxtpx:hr>165</gpxtpx:hr>
          </gpxtpx:TrackPointExtension>
        </extensions>
      </trkpt>
      <trkpt lat="44.16764" lon="3.18919">
        <ele>792</ele>
        <time>2022-02-10T10:32:59Z</time>
        <extensions>
          <gpxtpx:TrackPointExtension xmlns:gpxtpx="http://www.garmin.com/xmlschemas/TrackPointExtension/v1">
            <gpxtpx:hr>164</gpxtpx:hr>
          </gpxtpx:TrackPointExtension>
        </extensions>
      </trkpt>
      <trkpt lat="44.16768" lon="3.18915">
        <ele>791.8</ele>
        <time>2022-02-10T10:33:01Z</time>
        <extensions>
          <gpxtpx:TrackPointExtension xmlns:gpxtpx="http://www.garmin.com/xmlschemas/TrackPointExtension/v1">
            <gpxtpx:hr>163</gpxtpx:hr>
          </gpxtpx:TrackPointExtension>
        </extensions>
      </trkpt>
      <trkpt lat="44.16773" lon="3.18911">
        <ele>791.6</ele>
        <time>2022-02-10T10:33:03Z</time>
        <extensions>
          <gpxtpx:TrackPointExtension xmlns:gpxtpx="http://www.garmin.com/xmlschemas/TrackPointExtension/v1">
            <gpxtpx:hr>162</gpxtpx:hr>
          </gpxtpx:TrackPointExtension>
        </extensions>
      </trkpt>
      <trkpt lat="44.16777" lon="3.18908">
        <ele>791.2</ele>
        <time>2022-02-10T10:33:05Z</time>
        <extensions>
          <gpxtpx:TrackPointExtension xmlns:gpxtpx="http://www.garmin.com/xmlschemas/TrackPointExtension/v1">
            <gpxtpx:hr>160</gpxtpx:hr>
          </gpxtpx:TrackPointExtension>
        </extensions>
      </trkpt>
      <trkpt lat="44.1678" lon="3.18904">
        <ele>791.2</ele>
        <time>2022-02-10T10:33:07Z</time>
        <extensions>
          <gpxtpx:TrackPointExtension xmlns:gpxtpx="http://www.garmin.com/xmlschemas/TrackPointExtension/v1">
            <gpxtpx:hr>159</gpxtpx:hr>
          </gpxtpx:TrackPointExtension>
        </extensions>
      </trkpt>
      <trkpt lat="44.16782" lon="3.18903">
        <ele>791.2</ele>
        <time>2022-02-10T10:33:08Z</time>
        <extensions>
          <gpxtpx:TrackPointExtension xmlns:gpxtpx="http://www.garmin.com/xmlschemas/TrackPointExtension/v1">
            <gpxtpx:hr>159</gpxtpx:hr>
          </gpxtpx:TrackPointExtension>
        </extensions>
      </trkpt>
      <trkpt lat="44.16785" lon="3.18901">
        <ele>791.2</ele>
        <time>2022-02-10T10:33:10Z</time>
        <extensions>
          <gpxtpx:TrackPointExtension xmlns:gpxtpx="http://www.garmin.com/xmlschemas/TrackPointExtension/v1">
            <gpxtpx:hr>158</gpxtpx:hr>
          </gpxtpx:TrackPointExtension>
        </extensions>
      </trkpt>
      <trkpt lat="44.16787" lon="3.189">
        <ele>791.2</ele>
        <time>2022-02-10T10:33:12Z</time>
        <extensions>
          <gpxtpx:TrackPointExtension xmlns:gpxtpx="http://www.garmin.com/xmlschemas/TrackPointExtension/v1">
            <gpxtpx:hr>158</gpxtpx:hr>
          </gpxtpx:TrackPointExtension>
        </extensions>
      </trkpt>
      <trkpt lat="44.1679" lon="3.18898">
        <ele>791</ele>
        <time>2022-02-10T10:33:14Z</time>
        <extensions>
          <gpxtpx:TrackPointExtension xmlns:gpxtpx="http://www.garmin.com/xmlschemas/TrackPointExtension/v1">
            <gpxtpx:hr>157</gpxtpx:hr>
          </gpxtpx:TrackPointExtension>
        </extensions>
      </trkpt>
      <trkpt lat="44.16792" lon="3.18896">
        <ele>791</ele>
        <time>2022-02-10T10:33:16Z</time>
        <extensions>
          <gpxtpx:TrackPointExtension xmlns:gpxtpx="http://www.garmin.com/xmlschemas/TrackPointExtension/v1">
            <gpxtpx:hr>159</gpxtpx:hr>
          </gpxtpx:TrackPointExtension>
        </extensions>
      </trkpt>
      <trkpt lat="44.16794" lon="3.18894">
        <ele>790.8</ele>
        <time>2022-02-10T10:33:18Z</time>
        <extensions>
          <gpxtpx:TrackPointExtension xmlns:gpxtpx="http://www.garmin.com/xmlschemas/TrackPointExtension/v1">
            <gpxtpx:hr>158</gpxtpx:hr>
          </gpxtpx:TrackPointExtension>
        </extensions>
      </trkpt>
      <trkpt lat="44.16797" lon="3.18893">
        <ele>790.8</ele>
        <time>2022-02-10T10:33:20Z</time>
        <extensions>
          <gpxtpx:TrackPointExtension xmlns:gpxtpx="http://www.garmin.com/xmlschemas/TrackPointExtension/v1">
            <gpxtpx:hr>157</gpxtpx:hr>
          </gpxtpx:TrackPointExtension>
        </extensions>
      </trkpt>
      <trkpt lat="44.16799" lon="3.18894">
        <ele>790.8</ele>
        <time>2022-02-10T10:33:22Z</time>
        <extensions>
          <gpxtpx:TrackPointExtension xmlns:gpxtpx="http://www.garmin.com/xmlschemas/TrackPointExtension/v1">
            <gpxtpx:hr>156</gpxtpx:hr>
          </gpxtpx:TrackPointExtension>
        </extensions>
      </trkpt>
      <trkpt lat="44.16801" lon="3.18894">
        <ele>790.6</ele>
        <time>2022-02-10T10:33:24Z</time>
        <extensions>
          <gpxtpx:TrackPointExtension xmlns:gpxtpx="http://www.garmin.com/xmlschemas/TrackPointExtension/v1">
            <gpxtpx:hr>158</gpxtpx:hr>
          </gpxtpx:TrackPointExtension>
        </extensions>
      </trkpt>
      <trkpt lat="44.16802" lon="3.18895">
        <ele>790.6</ele>
        <time>2022-02-10T10:33:25Z</time>
        <extensions>
          <gpxtpx:TrackPointExtension xmlns:gpxtpx="http://www.garmin.com/xmlschemas/TrackPointExtension/v1">
            <gpxtpx:hr>159</gpxtpx:hr>
          </gpxtpx:TrackPointExtension>
        </extensions>
      </trkpt>
      <trkpt lat="44.16804" lon="3.18895">
        <ele>790.6</ele>
        <time>2022-02-10T10:33:26Z</time>
        <extensions>
          <gpxtpx:TrackPointExtension xmlns:gpxtpx="http://www.garmin.com/xmlschemas/TrackPointExtension/v1">
            <gpxtpx:hr>157</gpxtpx:hr>
          </gpxtpx:TrackPointExtension>
        </extensions>
      </trkpt>
      <trkpt lat="44.16805" lon="3.18895">
        <ele>790.6</ele>
        <time>2022-02-10T10:33:27Z</time>
        <extensions>
          <gpxtpx:TrackPointExtension xmlns:gpxtpx="http://www.garmin.com/xmlschemas/TrackPointExtension/v1">
            <gpxtpx:hr>156</gpxtpx:hr>
          </gpxtpx:TrackPointExtension>
        </extensions>
      </trkpt>
      <trkpt lat="44.16807" lon="3.18896">
        <ele>790.6</ele>
        <time>2022-02-10T10:33:28Z</time>
        <extensions>
          <gpxtpx:TrackPointExtension xmlns:gpxtpx="http://www.garmin.com/xmlschemas/TrackPointExtension/v1">
            <gpxtpx:hr>154</gpxtpx:hr>
          </gpxtpx:TrackPointExtension>
        </extensions>
      </trkpt>
      <trkpt lat="44.16808" lon="3.18896">
        <ele>790.6</ele>
        <time>2022-02-10T10:33:29Z</time>
        <extensions>
          <gpxtpx:TrackPointExtension xmlns:gpxtpx="http://www.garmin.com/xmlschemas/TrackPointExtension/v1">
            <gpxtpx:hr>154</gpxtpx:hr>
          </gpxtpx:TrackPointExtension>
        </extensions>
      </trkpt>
      <trkpt lat="44.16809" lon="3.18896">
        <ele>790.6</ele>
        <time>2022-02-10T10:33:30Z</time>
        <extensions>
          <gpxtpx:TrackPointExtension xmlns:gpxtpx="http://www.garmin.com/xmlschemas/TrackPointExtension/v1">
            <gpxtpx:hr>154</gpxtpx:hr>
          </gpxtpx:TrackPointExtension>
        </extensions>
      </trkpt>
      <trkpt lat="44.16809" lon="3.18897">
        <ele>790.6</ele>
        <time>2022-02-10T10:33:31Z</time>
        <extensions>
          <gpxtpx:TrackPointExtension xmlns:gpxtpx="http://www.garmin.com/xmlschemas/TrackPointExtension/v1">
            <gpxtpx:hr>154</gpxtpx:hr>
          </gpxtpx:TrackPointExtension>
        </extensions>
      </trkpt>
      <trkpt lat="44.1681" lon="3.18897">
        <ele>790.6</ele>
        <time>2022-02-10T10:33:32Z</time>
        <extensions>
          <gpxtpx:TrackPointExtension xmlns:gpxtpx="http://www.garmin.com/xmlschemas/TrackPointExtension/v1">
            <gpxtpx:hr>155</gpxtpx:hr>
          </gpxtpx:TrackPointExtension>
        </extensions>
      </trkpt>
      <trkpt lat="44.16811" lon="3.18898">
        <ele>790.6</ele>
        <time>2022-02-10T10:33:34Z</time>
        <extensions>
          <gpxtpx:TrackPointExtension xmlns:gpxtpx="http://www.garmin.com/xmlschemas/TrackPointExtension/v1">
            <gpxtpx:hr>156</gpxtpx:hr>
          </gpxtpx:TrackPointExtension>
        </extensions>
      </trkpt>
      <trkpt lat="44.16812" lon="3.18898">
        <ele>790.6</ele>
        <time>2022-02-10T10:33:36Z</time>
        <extensions>
          <gpxtpx:TrackPointExtension xmlns:gpxtpx="http://www.garmin.com/xmlschemas/TrackPointExtension/v1">
            <gpxtpx:hr>155</gpxtpx:hr>
          </gpxtpx:TrackPointExtension>
        </extensions>
      </trkpt>
      <trkpt lat="44.16813" lon="3.18899">
        <ele>790.6</ele>
        <time>2022-02-10T10:33:38Z</time>
        <extensions>
          <gpxtpx:TrackPointExtension xmlns:gpxtpx="http://www.garmin.com/xmlschemas/TrackPointExtension/v1">
            <gpxtpx:hr>157</gpxtpx:hr>
          </gpxtpx:TrackPointExtension>
        </extensions>
      </trkpt>
      <trkpt lat="44.1681" lon="3.18899">
        <ele>790</ele>
        <time>2022-02-10T10:33:41Z</time>
        <extensions>
          <gpxtpx:TrackPointExtension xmlns:gpxtpx="http://www.garmin.com/xmlschemas/TrackPointExtension/v1">
            <gpxtpx:hr>157</gpxtpx:hr>
          </gpxtpx:TrackPointExtension>
        </extensions>
      </trkpt>
      <trkpt lat="44.16807" lon="3.18898">
        <ele>790</ele>
        <time>2022-02-10T10:33:44Z</time>
        <extensions>
          <gpxtpx:TrackPointExtension xmlns:gpxtpx="http://www.garmin.com/xmlschemas/TrackPointExtension/v1">
            <gpxtpx:hr>156</gpxtpx:hr>
          </gpxtpx:TrackPointExtension>
        </extensions>
      </trkpt>
      <trkpt lat="44.16805" lon="3.18898">
        <ele>789.8</ele>
        <time>2022-02-10T10:33:46Z</time>
        <extensions>
          <gpxtpx:TrackPointExtension xmlns:gpxtpx="http://www.garmin.com/xmlschemas/TrackPointExtension/v1">
            <gpxtpx:hr>154</gpxtpx:hr>
          </gpxtpx:TrackPointExtension>
        </extensions>
      </trkpt>
      <trkpt lat="44.16803" lon="3.18896">
        <ele>789.6</ele>
        <time>2022-02-10T10:33:49Z</time>
        <extensions>
          <gpxtpx:TrackPointExtension xmlns:gpxtpx="http://www.garmin.com/xmlschemas/TrackPointExtension/v1">
            <gpxtpx:hr>152</gpxtpx:hr>
          </gpxtpx:TrackPointExtension>
        </extensions>
      </trkpt>
      <trkpt lat="44.16805" lon="3.18895">
        <ele>789.2</ele>
        <time>2022-02-10T10:33:51Z</time>
        <extensions>
          <gpxtpx:TrackPointExtension xmlns:gpxtpx="http://www.garmin.com/xmlschemas/TrackPointExtension/v1">
            <gpxtpx:hr>151</gpxtpx:hr>
          </gpxtpx:TrackPointExtension>
        </extensions>
      </trkpt>
      <trkpt lat="44.16807" lon="3.18894">
        <ele>789.2</ele>
        <time>2022-02-10T10:33:52Z</time>
        <extensions>
          <gpxtpx:TrackPointExtension xmlns:gpxtpx="http://www.garmin.com/xmlschemas/TrackPointExtension/v1">
            <gpxtpx:hr>150</gpxtpx:hr>
          </gpxtpx:TrackPointExtension>
        </extensions>
      </trkpt>
      <trkpt lat="44.16812" lon="3.18892">
        <ele>789</ele>
        <time>2022-02-10T10:33:54Z</time>
        <extensions>
          <gpxtpx:TrackPointExtension xmlns:gpxtpx="http://www.garmin.com/xmlschemas/TrackPointExtension/v1">
            <gpxtpx:hr>150</gpxtpx:hr>
          </gpxtpx:TrackPointExtension>
        </extensions>
      </trkpt>
      <trkpt lat="44.16815" lon="3.18892">
        <ele>789</ele>
        <time>2022-02-10T10:33:55Z</time>
        <extensions>
          <gpxtpx:TrackPointExtension xmlns:gpxtpx="http://www.garmin.com/xmlschemas/TrackPointExtension/v1">
            <gpxtpx:hr>150</gpxtpx:hr>
          </gpxtpx:TrackPointExtension>
        </extensions>
      </trkpt>
      <trkpt lat="44.16821" lon="3.18893">
        <ele>788.8</ele>
        <time>2022-02-10T10:33:57Z</time>
        <extensions>
          <gpxtpx:TrackPointExtension xmlns:gpxtpx="http://www.garmin.com/xmlschemas/TrackPointExtension/v1">
            <gpxtpx:hr>146</gpxtpx:hr>
          </gpxtpx:TrackPointExtension>
        </extensions>
      </trkpt>
      <trkpt lat="44.16827" lon="3.18894">
        <ele>788.8</ele>
        <time>2022-02-10T10:33:59Z</time>
        <extensions>
          <gpxtpx:TrackPointExtension xmlns:gpxtpx="http://www.garmin.com/xmlschemas/TrackPointExtension/v1">
            <gpxtpx:hr>145</gpxtpx:hr>
          </gpxtpx:TrackPointExtension>
        </extensions>
      </trkpt>
      <trkpt lat="44.16832" lon="3.18895">
        <ele>788.8</ele>
        <time>2022-02-10T10:34:01Z</time>
        <extensions>
          <gpxtpx:TrackPointExtension xmlns:gpxtpx="http://www.garmin.com/xmlschemas/TrackPointExtension/v1">
            <gpxtpx:hr>145</gpxtpx:hr>
          </gpxtpx:TrackPointExtension>
        </extensions>
      </trkpt>
      <trkpt lat="44.16837" lon="3.18895">
        <ele>789</ele>
        <time>2022-02-10T10:34:03Z</time>
        <extensions>
          <gpxtpx:TrackPointExtension xmlns:gpxtpx="http://www.garmin.com/xmlschemas/TrackPointExtension/v1">
            <gpxtpx:hr>144</gpxtpx:hr>
          </gpxtpx:TrackPointExtension>
        </extensions>
      </trkpt>
      <trkpt lat="44.16838" lon="3.18895">
        <ele>789</ele>
        <time>2022-02-10T10:34:04Z</time>
        <extensions>
          <gpxtpx:TrackPointExtension xmlns:gpxtpx="http://www.garmin.com/xmlschemas/TrackPointExtension/v1">
            <gpxtpx:hr>144</gpxtpx:hr>
          </gpxtpx:TrackPointExtension>
        </extensions>
      </trkpt>
      <trkpt lat="44.16841" lon="3.18894">
        <ele>789</ele>
        <time>2022-02-10T10:34:05Z</time>
        <extensions>
          <gpxtpx:TrackPointExtension xmlns:gpxtpx="http://www.garmin.com/xmlschemas/TrackPointExtension/v1">
            <gpxtpx:hr>144</gpxtpx:hr>
          </gpxtpx:TrackPointExtension>
        </extensions>
      </trkpt>
      <trkpt lat="44.16843" lon="3.18893">
        <ele>789</ele>
        <time>2022-02-10T10:34:06Z</time>
        <extensions>
          <gpxtpx:TrackPointExtension xmlns:gpxtpx="http://www.garmin.com/xmlschemas/TrackPointExtension/v1">
            <gpxtpx:hr>144</gpxtpx:hr>
          </gpxtpx:TrackPointExtension>
        </extensions>
      </trkpt>
      <trkpt lat="44.16845" lon="3.18892">
        <ele>789</ele>
        <time>2022-02-10T10:34:07Z</time>
        <extensions>
          <gpxtpx:TrackPointExtension xmlns:gpxtpx="http://www.garmin.com/xmlschemas/TrackPointExtension/v1">
            <gpxtpx:hr>143</gpxtpx:hr>
          </gpxtpx:TrackPointExtension>
        </extensions>
      </trkpt>
      <trkpt lat="44.16846" lon="3.18891">
        <ele>788.8</ele>
        <time>2022-02-10T10:34:08Z</time>
        <extensions>
          <gpxtpx:TrackPointExtension xmlns:gpxtpx="http://www.garmin.com/xmlschemas/TrackPointExtension/v1">
            <gpxtpx:hr>142</gpxtpx:hr>
          </gpxtpx:TrackPointExtension>
        </extensions>
      </trkpt>
      <trkpt lat="44.16848" lon="3.18889">
        <ele>788.6</ele>
        <time>2022-02-10T10:34:10Z</time>
        <extensions>
          <gpxtpx:TrackPointExtension xmlns:gpxtpx="http://www.garmin.com/xmlschemas/TrackPointExtension/v1">
            <gpxtpx:hr>144</gpxtpx:hr>
          </gpxtpx:TrackPointExtension>
        </extensions>
      </trkpt>
      <trkpt lat="44.1685" lon="3.18887">
        <ele>788.6</ele>
        <time>2022-02-10T10:34:11Z</time>
        <extensions>
          <gpxtpx:TrackPointExtension xmlns:gpxtpx="http://www.garmin.com/xmlschemas/TrackPointExtension/v1">
            <gpxtpx:hr>144</gpxtpx:hr>
          </gpxtpx:TrackPointExtension>
        </extensions>
      </trkpt>
      <trkpt lat="44.16852" lon="3.18886">
        <ele>788.6</ele>
        <time>2022-02-10T10:34:12Z</time>
        <extensions>
          <gpxtpx:TrackPointExtension xmlns:gpxtpx="http://www.garmin.com/xmlschemas/TrackPointExtension/v1">
            <gpxtpx:hr>145</gpxtpx:hr>
          </gpxtpx:TrackPointExtension>
        </extensions>
      </trkpt>
      <trkpt lat="44.16855" lon="3.18883">
        <ele>788.2</ele>
        <time>2022-02-10T10:34:13Z</time>
        <extensions>
          <gpxtpx:TrackPointExtension xmlns:gpxtpx="http://www.garmin.com/xmlschemas/TrackPointExtension/v1">
            <gpxtpx:hr>145</gpxtpx:hr>
          </gpxtpx:TrackPointExtension>
        </extensions>
      </trkpt>
      <trkpt lat="44.16859" lon="3.18882">
        <ele>788.2</ele>
        <time>2022-02-10T10:34:15Z</time>
        <extensions>
          <gpxtpx:TrackPointExtension xmlns:gpxtpx="http://www.garmin.com/xmlschemas/TrackPointExtension/v1">
            <gpxtpx:hr>144</gpxtpx:hr>
          </gpxtpx:TrackPointExtension>
        </extensions>
      </trkpt>
      <trkpt lat="44.16872" lon="3.18865">
        <ele>784.1</ele>
      </trkpt>
      <trkpt lat="44.16876" lon="3.18854">
        <ele>783.9</ele>
      </trkpt>
      <trkpt lat="44.16871" lon="3.18834">
        <ele>783.6</ele>
      </trkpt>
      <trkpt lat="44.16867" lon="3.18824">
        <ele>783.8</ele>
      </trkpt>
      <trkpt lat="44.16865" lon="3.18808">
        <ele>783.9</ele>
      </trkpt>
      <trkpt lat="44.16874" lon="3.18794">
        <ele>783.5</ele>
      </trkpt>
      <trkpt lat="44.16891" lon="3.18791">
        <ele>782.9</ele>
      </trkpt>
      <trkpt lat="44.16903" lon="3.18782">
        <ele>782</ele>
      </trkpt>
      <trkpt lat="44.16911" lon="3.1877">
        <ele>781.4</ele>
      </trkpt>
      <trkpt lat="44.16933" lon="3.18768">
        <ele>780.2</ele>
      </trkpt>
      <trkpt lat="44.16979" lon="3.18768">
        <ele>780.3</ele>
      </trkpt>
      <trkpt lat="44.16985" lon="3.18761">
        <ele>780.3</ele>
      </trkpt>
      <trkpt lat="44.16989" lon="3.1874">
        <ele>779.4</ele>
      </trkpt>
      <trkpt lat="44.16994" lon="3.18704">
        <ele>777.6</ele>
      </trkpt>
      <trkpt lat="44.16995" lon="3.18658">
        <ele>776.4</ele>
      </trkpt>
      <trkpt lat="44.16995" lon="3.18646">
        <ele>777.8</ele>
        <time>2022-02-10T10:49:11Z</time>
        <extensions>
          <gpxtpx:TrackPointExtension xmlns:gpxtpx="http://www.garmin.com/xmlschemas/TrackPointExtension/v1">
            <gpxtpx:hr>131</gpxtpx:hr>
          </gpxtpx:TrackPointExtension>
        </extensions>
      </trkpt>
      <trkpt lat="44.16998" lon="3.18642">
        <ele>777.6</ele>
        <time>2022-02-10T10:49:13Z</time>
        <extensions>
          <gpxtpx:TrackPointExtension xmlns:gpxtpx="http://www.garmin.com/xmlschemas/TrackPointExtension/v1">
            <gpxtpx:hr>132</gpxtpx:hr>
          </gpxtpx:TrackPointExtension>
        </extensions>
      </trkpt>
      <trkpt lat="44.17002" lon="3.18639">
        <ele>777.6</ele>
        <time>2022-02-10T10:49:15Z</time>
        <extensions>
          <gpxtpx:TrackPointExtension xmlns:gpxtpx="http://www.garmin.com/xmlschemas/TrackPointExtension/v1">
            <gpxtpx:hr>135</gpxtpx:hr>
          </gpxtpx:TrackPointExtension>
        </extensions>
      </trkpt>
      <trkpt lat="44.17005" lon="3.18637">
        <ele>777.2</ele>
        <time>2022-02-10T10:49:16Z</time>
        <extensions>
          <gpxtpx:TrackPointExtension xmlns:gpxtpx="http://www.garmin.com/xmlschemas/TrackPointExtension/v1">
            <gpxtpx:hr>136</gpxtpx:hr>
          </gpxtpx:TrackPointExtension>
        </extensions>
      </trkpt>
      <trkpt lat="44.17007" lon="3.18636">
        <ele>777.2</ele>
        <time>2022-02-10T10:49:17Z</time>
        <extensions>
          <gpxtpx:TrackPointExtension xmlns:gpxtpx="http://www.garmin.com/xmlschemas/TrackPointExtension/v1">
            <gpxtpx:hr>136</gpxtpx:hr>
          </gpxtpx:TrackPointExtension>
        </extensions>
      </trkpt>
      <trkpt lat="44.17011" lon="3.18635">
        <ele>777.2</ele>
        <time>2022-02-10T10:49:18Z</time>
        <extensions>
          <gpxtpx:TrackPointExtension xmlns:gpxtpx="http://www.garmin.com/xmlschemas/TrackPointExtension/v1">
            <gpxtpx:hr>136</gpxtpx:hr>
          </gpxtpx:TrackPointExtension>
        </extensions>
      </trkpt>
      <trkpt lat="44.17012" lon="3.18634">
        <ele>777.2</ele>
        <time>2022-02-10T10:49:19Z</time>
        <extensions>
          <gpxtpx:TrackPointExtension xmlns:gpxtpx="http://www.garmin.com/xmlschemas/TrackPointExtension/v1">
            <gpxtpx:hr>138</gpxtpx:hr>
          </gpxtpx:TrackPointExtension>
        </extensions>
      </trkpt>
      <trkpt lat="44.17014" lon="3.18633">
        <ele>777</ele>
        <time>2022-02-10T10:49:20Z</time>
        <extensions>
          <gpxtpx:TrackPointExtension xmlns:gpxtpx="http://www.garmin.com/xmlschemas/TrackPointExtension/v1">
            <gpxtpx:hr>138</gpxtpx:hr>
          </gpxtpx:TrackPointExtension>
        </extensions>
      </trkpt>
      <trkpt lat="44.17019" lon="3.1863">
        <ele>777</ele>
        <time>2022-02-10T10:49:22Z</time>
        <extensions>
          <gpxtpx:TrackPointExtension xmlns:gpxtpx="http://www.garmin.com/xmlschemas/TrackPointExtension/v1">
            <gpxtpx:hr>138</gpxtpx:hr>
          </gpxtpx:TrackPointExtension>
        </extensions>
      </trkpt>
      <trkpt lat="44.17021" lon="3.18629">
        <ele>776.8</ele>
        <time>2022-02-10T10:49:23Z</time>
        <extensions>
          <gpxtpx:TrackPointExtension xmlns:gpxtpx="http://www.garmin.com/xmlschemas/TrackPointExtension/v1">
            <gpxtpx:hr>139</gpxtpx:hr>
          </gpxtpx:TrackPointExtension>
        </extensions>
      </trkpt>
      <trkpt lat="44.17024" lon="3.18628">
        <ele>776.8</ele>
        <time>2022-02-10T10:49:24Z</time>
        <extensions>
          <gpxtpx:TrackPointExtension xmlns:gpxtpx="http://www.garmin.com/xmlschemas/TrackPointExtension/v1">
            <gpxtpx:hr>138</gpxtpx:hr>
          </gpxtpx:TrackPointExtension>
        </extensions>
      </trkpt>
      <trkpt lat="44.17027" lon="3.18627">
        <ele>776.6</ele>
        <time>2022-02-10T10:49:25Z</time>
        <extensions>
          <gpxtpx:TrackPointExtension xmlns:gpxtpx="http://www.garmin.com/xmlschemas/TrackPointExtension/v1">
            <gpxtpx:hr>140</gpxtpx:hr>
          </gpxtpx:TrackPointExtension>
        </extensions>
      </trkpt>
      <trkpt lat="44.17031" lon="3.18627">
        <ele>776.6</ele>
        <time>2022-02-10T10:49:27Z</time>
        <extensions>
          <gpxtpx:TrackPointExtension xmlns:gpxtpx="http://www.garmin.com/xmlschemas/TrackPointExtension/v1">
            <gpxtpx:hr>139</gpxtpx:hr>
          </gpxtpx:TrackPointExtension>
        </extensions>
      </trkpt>
      <trkpt lat="44.17034" lon="3.18628">
        <ele>776.6</ele>
        <time>2022-02-10T10:49:28Z</time>
        <extensions>
          <gpxtpx:TrackPointExtension xmlns:gpxtpx="http://www.garmin.com/xmlschemas/TrackPointExtension/v1">
            <gpxtpx:hr>139</gpxtpx:hr>
          </gpxtpx:TrackPointExtension>
        </extensions>
      </trkpt>
      <trkpt lat="44.17037" lon="3.18628">
        <ele>776.6</ele>
        <time>2022-02-10T10:49:29Z</time>
        <extensions>
          <gpxtpx:TrackPointExtension xmlns:gpxtpx="http://www.garmin.com/xmlschemas/TrackPointExtension/v1">
            <gpxtpx:hr>141</gpxtpx:hr>
          </gpxtpx:TrackPointExtension>
        </extensions>
      </trkpt>
      <trkpt lat="44.17042" lon="3.1863">
        <ele>776.6</ele>
        <time>2022-02-10T10:49:31Z</time>
        <extensions>
          <gpxtpx:TrackPointExtension xmlns:gpxtpx="http://www.garmin.com/xmlschemas/TrackPointExtension/v1">
            <gpxtpx:hr>142</gpxtpx:hr>
          </gpxtpx:TrackPointExtension>
        </extensions>
      </trkpt>
      <trkpt lat="44.17045" lon="3.1863">
        <ele>776.6</ele>
        <time>2022-02-10T10:49:32Z</time>
        <extensions>
          <gpxtpx:TrackPointExtension xmlns:gpxtpx="http://www.garmin.com/xmlschemas/TrackPointExtension/v1">
            <gpxtpx:hr>143</gpxtpx:hr>
          </gpxtpx:TrackPointExtension>
        </extensions>
      </trkpt>
      <trkpt lat="44.17047" lon="3.1863">
        <ele>776.6</ele>
        <time>2022-02-10T10:49:33Z</time>
        <extensions>
          <gpxtpx:TrackPointExtension xmlns:gpxtpx="http://www.garmin.com/xmlschemas/TrackPointExtension/v1">
            <gpxtpx:hr>142</gpxtpx:hr>
          </gpxtpx:TrackPointExtension>
        </extensions>
      </trkpt>
      <trkpt lat="44.1705" lon="3.1863">
        <ele>776.6</ele>
        <time>2022-02-10T10:49:34Z</time>
        <extensions>
          <gpxtpx:TrackPointExtension xmlns:gpxtpx="http://www.garmin.com/xmlschemas/TrackPointExtension/v1">
            <gpxtpx:hr>142</gpxtpx:hr>
          </gpxtpx:TrackPointExtension>
        </extensions>
      </trkpt>
      <trkpt lat="44.17052" lon="3.1863">
        <ele>776.6</ele>
        <time>2022-02-10T10:49:35Z</time>
        <extensions>
          <gpxtpx:TrackPointExtension xmlns:gpxtpx="http://www.garmin.com/xmlschemas/TrackPointExtension/v1">
            <gpxtpx:hr>142</gpxtpx:hr>
          </gpxtpx:TrackPointExtension>
        </extensions>
      </trkpt>
      <trkpt lat="44.17057" lon="3.18629">
        <ele>776.6</ele>
        <time>2022-02-10T10:49:37Z</time>
        <extensions>
          <gpxtpx:TrackPointExtension xmlns:gpxtpx="http://www.garmin.com/xmlschemas/TrackPointExtension/v1">
            <gpxtpx:hr>143</gpxtpx:hr>
          </gpxtpx:TrackPointExtension>
        </extensions>
      </trkpt>
      <trkpt lat="44.1706" lon="3.18628">
        <ele>776.6</ele>
        <time>2022-02-10T10:49:38Z</time>
        <extensions>
          <gpxtpx:TrackPointExtension xmlns:gpxtpx="http://www.garmin.com/xmlschemas/TrackPointExtension/v1">
            <gpxtpx:hr>144</gpxtpx:hr>
          </gpxtpx:TrackPointExtension>
        </extensions>
      </trkpt>
      <trkpt lat="44.17062" lon="3.18627">
        <ele>776.6</ele>
        <time>2022-02-10T10:49:39Z</time>
        <extensions>
          <gpxtpx:TrackPointExtension xmlns:gpxtpx="http://www.garmin.com/xmlschemas/TrackPointExtension/v1">
            <gpxtpx:hr>142</gpxtpx:hr>
          </gpxtpx:TrackPointExtension>
        </extensions>
      </trkpt>
      <trkpt lat="44.17064" lon="3.18626">
        <ele>776.6</ele>
        <time>2022-02-10T10:49:40Z</time>
        <extensions>
          <gpxtpx:TrackPointExtension xmlns:gpxtpx="http://www.garmin.com/xmlschemas/TrackPointExtension/v1">
            <gpxtpx:hr>143</gpxtpx:hr>
          </gpxtpx:TrackPointExtension>
        </extensions>
      </trkpt>
      <trkpt lat="44.17067" lon="3.18624">
        <ele>776.6</ele>
        <time>2022-02-10T10:49:41Z</time>
        <extensions>
          <gpxtpx:TrackPointExtension xmlns:gpxtpx="http://www.garmin.com/xmlschemas/TrackPointExtension/v1">
            <gpxtpx:hr>144</gpxtpx:hr>
          </gpxtpx:TrackPointExtension>
        </extensions>
      </trkpt>
      <trkpt lat="44.17068" lon="3.18622">
        <ele>776.6</ele>
        <time>2022-02-10T10:49:42Z</time>
        <extensions>
          <gpxtpx:TrackPointExtension xmlns:gpxtpx="http://www.garmin.com/xmlschemas/TrackPointExtension/v1">
            <gpxtpx:hr>144</gpxtpx:hr>
          </gpxtpx:TrackPointExtension>
        </extensions>
      </trkpt>
      <trkpt lat="44.1707" lon="3.18619">
        <ele>776.6</ele>
        <time>2022-02-10T10:49:43Z</time>
        <extensions>
          <gpxtpx:TrackPointExtension xmlns:gpxtpx="http://www.garmin.com/xmlschemas/TrackPointExtension/v1">
            <gpxtpx:hr>145</gpxtpx:hr>
          </gpxtpx:TrackPointExtension>
        </extensions>
      </trkpt>
      <trkpt lat="44.1707" lon="3.18616">
        <ele>776.6</ele>
        <time>2022-02-10T10:49:44Z</time>
        <extensions>
          <gpxtpx:TrackPointExtension xmlns:gpxtpx="http://www.garmin.com/xmlschemas/TrackPointExtension/v1">
            <gpxtpx:hr>143</gpxtpx:hr>
          </gpxtpx:TrackPointExtension>
        </extensions>
      </trkpt>
      <trkpt lat="44.17071" lon="3.18613">
        <ele>776.6</ele>
        <time>2022-02-10T10:49:45Z</time>
        <extensions>
          <gpxtpx:TrackPointExtension xmlns:gpxtpx="http://www.garmin.com/xmlschemas/TrackPointExtension/v1">
            <gpxtpx:hr>143</gpxtpx:hr>
          </gpxtpx:TrackPointExtension>
        </extensions>
      </trkpt>
      <trkpt lat="44.1707" lon="3.18609">
        <ele>776.6</ele>
        <time>2022-02-10T10:49:46Z</time>
        <extensions>
          <gpxtpx:TrackPointExtension xmlns:gpxtpx="http://www.garmin.com/xmlschemas/TrackPointExtension/v1">
            <gpxtpx:hr>143</gpxtpx:hr>
          </gpxtpx:TrackPointExtension>
        </extensions>
      </trkpt>
      <trkpt lat="44.17069" lon="3.18606">
        <ele>776.6</ele>
        <time>2022-02-10T10:49:47Z</time>
        <extensions>
          <gpxtpx:TrackPointExtension xmlns:gpxtpx="http://www.garmin.com/xmlschemas/TrackPointExtension/v1">
            <gpxtpx:hr>145</gpxtpx:hr>
          </gpxtpx:TrackPointExtension>
        </extensions>
      </trkpt>
      <trkpt lat="44.17067" lon="3.186">
        <ele>776.8</ele>
        <time>2022-02-10T10:49:49Z</time>
        <extensions>
          <gpxtpx:TrackPointExtension xmlns:gpxtpx="http://www.garmin.com/xmlschemas/TrackPointExtension/v1">
            <gpxtpx:hr>145</gpxtpx:hr>
          </gpxtpx:TrackPointExtension>
        </extensions>
      </trkpt>
      <trkpt lat="44.17063" lon="3.18594">
        <ele>777.6</ele>
        <time>2022-02-10T10:49:51Z</time>
        <extensions>
          <gpxtpx:TrackPointExtension xmlns:gpxtpx="http://www.garmin.com/xmlschemas/TrackPointExtension/v1">
            <gpxtpx:hr>147</gpxtpx:hr>
          </gpxtpx:TrackPointExtension>
        </extensions>
      </trkpt>
      <trkpt lat="44.17062" lon="3.18592">
        <ele>777.8</ele>
        <time>2022-02-10T10:49:52Z</time>
        <extensions>
          <gpxtpx:TrackPointExtension xmlns:gpxtpx="http://www.garmin.com/xmlschemas/TrackPointExtension/v1">
            <gpxtpx:hr>148</gpxtpx:hr>
          </gpxtpx:TrackPointExtension>
        </extensions>
      </trkpt>
      <trkpt lat="44.17058" lon="3.18587">
        <ele>778.2</ele>
        <time>2022-02-10T10:49:54Z</time>
        <extensions>
          <gpxtpx:TrackPointExtension xmlns:gpxtpx="http://www.garmin.com/xmlschemas/TrackPointExtension/v1">
            <gpxtpx:hr>146</gpxtpx:hr>
          </gpxtpx:TrackPointExtension>
        </extensions>
      </trkpt>
      <trkpt lat="44.17057" lon="3.18585">
        <ele>778.2</ele>
        <time>2022-02-10T10:49:55Z</time>
        <extensions>
          <gpxtpx:TrackPointExtension xmlns:gpxtpx="http://www.garmin.com/xmlschemas/TrackPointExtension/v1">
            <gpxtpx:hr>146</gpxtpx:hr>
          </gpxtpx:TrackPointExtension>
        </extensions>
      </trkpt>
      <trkpt lat="44.17055" lon="3.18583">
        <ele>778.6</ele>
        <time>2022-02-10T10:49:56Z</time>
        <extensions>
          <gpxtpx:TrackPointExtension xmlns:gpxtpx="http://www.garmin.com/xmlschemas/TrackPointExtension/v1">
            <gpxtpx:hr>146</gpxtpx:hr>
          </gpxtpx:TrackPointExtension>
        </extensions>
      </trkpt>
      <trkpt lat="44.17052" lon="3.18577">
        <ele>778.6</ele>
        <time>2022-02-10T10:49:58Z</time>
        <extensions>
          <gpxtpx:TrackPointExtension xmlns:gpxtpx="http://www.garmin.com/xmlschemas/TrackPointExtension/v1">
            <gpxtpx:hr>148</gpxtpx:hr>
          </gpxtpx:TrackPointExtension>
        </extensions>
      </trkpt>
      <trkpt lat="44.17051" lon="3.18576">
        <ele>778.6</ele>
        <time>2022-02-10T10:49:59Z</time>
        <extensions>
          <gpxtpx:TrackPointExtension xmlns:gpxtpx="http://www.garmin.com/xmlschemas/TrackPointExtension/v1">
            <gpxtpx:hr>148</gpxtpx:hr>
          </gpxtpx:TrackPointExtension>
        </extensions>
      </trkpt>
      <trkpt lat="44.1705" lon="3.18574">
        <ele>778.6</ele>
        <time>2022-02-10T10:50:00Z</time>
        <extensions>
          <gpxtpx:TrackPointExtension xmlns:gpxtpx="http://www.garmin.com/xmlschemas/TrackPointExtension/v1">
            <gpxtpx:hr>149</gpxtpx:hr>
          </gpxtpx:TrackPointExtension>
        </extensions>
      </trkpt>
      <trkpt lat="44.17047" lon="3.18567">
        <ele>778.2</ele>
        <time>2022-02-10T10:50:03Z</time>
        <extensions>
          <gpxtpx:TrackPointExtension xmlns:gpxtpx="http://www.garmin.com/xmlschemas/TrackPointExtension/v1">
            <gpxtpx:hr>150</gpxtpx:hr>
          </gpxtpx:TrackPointExtension>
        </extensions>
      </trkpt>
      <trkpt lat="44.17046" lon="3.18563">
        <ele>777.8</ele>
        <time>2022-02-10T10:50:05Z</time>
        <extensions>
          <gpxtpx:TrackPointExtension xmlns:gpxtpx="http://www.garmin.com/xmlschemas/TrackPointExtension/v1">
            <gpxtpx:hr>150</gpxtpx:hr>
          </gpxtpx:TrackPointExtension>
        </extensions>
      </trkpt>
      <trkpt lat="44.17045" lon="3.18559">
        <ele>777.6</ele>
        <time>2022-02-10T10:50:06Z</time>
        <extensions>
          <gpxtpx:TrackPointExtension xmlns:gpxtpx="http://www.garmin.com/xmlschemas/TrackPointExtension/v1">
            <gpxtpx:hr>151</gpxtpx:hr>
          </gpxtpx:TrackPointExtension>
        </extensions>
      </trkpt>
      <trkpt lat="44.17043" lon="3.18556">
        <ele>777.2</ele>
        <time>2022-02-10T10:50:07Z</time>
        <extensions>
          <gpxtpx:TrackPointExtension xmlns:gpxtpx="http://www.garmin.com/xmlschemas/TrackPointExtension/v1">
            <gpxtpx:hr>152</gpxtpx:hr>
          </gpxtpx:TrackPointExtension>
        </extensions>
      </trkpt>
      <trkpt lat="44.17042" lon="3.18552">
        <ele>777</ele>
        <time>2022-02-10T10:50:08Z</time>
        <extensions>
          <gpxtpx:TrackPointExtension xmlns:gpxtpx="http://www.garmin.com/xmlschemas/TrackPointExtension/v1">
            <gpxtpx:hr>152</gpxtpx:hr>
          </gpxtpx:TrackPointExtension>
        </extensions>
      </trkpt>
      <trkpt lat="44.17041" lon="3.18548">
        <ele>776.6</ele>
        <time>2022-02-10T10:50:09Z</time>
        <extensions>
          <gpxtpx:TrackPointExtension xmlns:gpxtpx="http://www.garmin.com/xmlschemas/TrackPointExtension/v1">
            <gpxtpx:hr>153</gpxtpx:hr>
          </gpxtpx:TrackPointExtension>
        </extensions>
      </trkpt>
      <trkpt lat="44.17039" lon="3.18545">
        <ele>776.2</ele>
        <time>2022-02-10T10:50:10Z</time>
        <extensions>
          <gpxtpx:TrackPointExtension xmlns:gpxtpx="http://www.garmin.com/xmlschemas/TrackPointExtension/v1">
            <gpxtpx:hr>153</gpxtpx:hr>
          </gpxtpx:TrackPointExtension>
        </extensions>
      </trkpt>
      <trkpt lat="44.17037" lon="3.18541">
        <ele>775.8</ele>
        <time>2022-02-10T10:50:11Z</time>
        <extensions>
          <gpxtpx:TrackPointExtension xmlns:gpxtpx="http://www.garmin.com/xmlschemas/TrackPointExtension/v1">
            <gpxtpx:hr>154</gpxtpx:hr>
          </gpxtpx:TrackPointExtension>
        </extensions>
      </trkpt>
      <trkpt lat="44.17036" lon="3.18538">
        <ele>775.4</ele>
        <time>2022-02-10T10:50:12Z</time>
        <extensions>
          <gpxtpx:TrackPointExtension xmlns:gpxtpx="http://www.garmin.com/xmlschemas/TrackPointExtension/v1">
            <gpxtpx:hr>154</gpxtpx:hr>
          </gpxtpx:TrackPointExtension>
        </extensions>
      </trkpt>
      <trkpt lat="44.17034" lon="3.18535">
        <ele>774.6</ele>
        <time>2022-02-10T10:50:14Z</time>
        <extensions>
          <gpxtpx:TrackPointExtension xmlns:gpxtpx="http://www.garmin.com/xmlschemas/TrackPointExtension/v1">
            <gpxtpx:hr>154</gpxtpx:hr>
          </gpxtpx:TrackPointExtension>
        </extensions>
      </trkpt>
      <trkpt lat="44.17032" lon="3.18532">
        <ele>774.4</ele>
        <time>2022-02-10T10:50:15Z</time>
        <extensions>
          <gpxtpx:TrackPointExtension xmlns:gpxtpx="http://www.garmin.com/xmlschemas/TrackPointExtension/v1">
            <gpxtpx:hr>155</gpxtpx:hr>
          </gpxtpx:TrackPointExtension>
        </extensions>
      </trkpt>
      <trkpt lat="44.17031" lon="3.18529">
        <ele>774</ele>
        <time>2022-02-10T10:50:16Z</time>
        <extensions>
          <gpxtpx:TrackPointExtension xmlns:gpxtpx="http://www.garmin.com/xmlschemas/TrackPointExtension/v1">
            <gpxtpx:hr>154</gpxtpx:hr>
          </gpxtpx:TrackPointExtension>
        </extensions>
      </trkpt>
      <trkpt lat="44.17029" lon="3.18525">
        <ele>773.8</ele>
        <time>2022-02-10T10:50:17Z</time>
        <extensions>
          <gpxtpx:TrackPointExtension xmlns:gpxtpx="http://www.garmin.com/xmlschemas/TrackPointExtension/v1">
            <gpxtpx:hr>154</gpxtpx:hr>
          </gpxtpx:TrackPointExtension>
        </extensions>
      </trkpt>
      <trkpt lat="44.17028" lon="3.18523">
        <ele>773.4</ele>
        <time>2022-02-10T10:50:18Z</time>
        <extensions>
          <gpxtpx:TrackPointExtension xmlns:gpxtpx="http://www.garmin.com/xmlschemas/TrackPointExtension/v1">
            <gpxtpx:hr>154</gpxtpx:hr>
          </gpxtpx:TrackPointExtension>
        </extensions>
      </trkpt>
      <trkpt lat="44.17028" lon="3.1852">
        <ele>773</ele>
        <time>2022-02-10T10:50:19Z</time>
        <extensions>
          <gpxtpx:TrackPointExtension xmlns:gpxtpx="http://www.garmin.com/xmlschemas/TrackPointExtension/v1">
            <gpxtpx:hr>154</gpxtpx:hr>
          </gpxtpx:TrackPointExtension>
        </extensions>
      </trkpt>
      <trkpt lat="44.17027" lon="3.18517">
        <ele>772.8</ele>
        <time>2022-02-10T10:50:20Z</time>
        <extensions>
          <gpxtpx:TrackPointExtension xmlns:gpxtpx="http://www.garmin.com/xmlschemas/TrackPointExtension/v1">
            <gpxtpx:hr>153</gpxtpx:hr>
          </gpxtpx:TrackPointExtension>
        </extensions>
      </trkpt>
      <trkpt lat="44.17026" lon="3.18515">
        <ele>772.4</ele>
        <time>2022-02-10T10:50:21Z</time>
        <extensions>
          <gpxtpx:TrackPointExtension xmlns:gpxtpx="http://www.garmin.com/xmlschemas/TrackPointExtension/v1">
            <gpxtpx:hr>153</gpxtpx:hr>
          </gpxtpx:TrackPointExtension>
        </extensions>
      </trkpt>
      <trkpt lat="44.17025" lon="3.18512">
        <ele>772</ele>
        <time>2022-02-10T10:50:22Z</time>
        <extensions>
          <gpxtpx:TrackPointExtension xmlns:gpxtpx="http://www.garmin.com/xmlschemas/TrackPointExtension/v1">
            <gpxtpx:hr>153</gpxtpx:hr>
          </gpxtpx:TrackPointExtension>
        </extensions>
      </trkpt>
      <trkpt lat="44.17025" lon="3.18509">
        <ele>771.8</ele>
        <time>2022-02-10T10:50:23Z</time>
        <extensions>
          <gpxtpx:TrackPointExtension xmlns:gpxtpx="http://www.garmin.com/xmlschemas/TrackPointExtension/v1">
            <gpxtpx:hr>152</gpxtpx:hr>
          </gpxtpx:TrackPointExtension>
        </extensions>
      </trkpt>
      <trkpt lat="44.17026" lon="3.18506">
        <ele>771.4</ele>
        <time>2022-02-10T10:50:24Z</time>
        <extensions>
          <gpxtpx:TrackPointExtension xmlns:gpxtpx="http://www.garmin.com/xmlschemas/TrackPointExtension/v1">
            <gpxtpx:hr>149</gpxtpx:hr>
          </gpxtpx:TrackPointExtension>
        </extensions>
      </trkpt>
      <trkpt lat="44.17026" lon="3.18502">
        <ele>771.2</ele>
        <time>2022-02-10T10:50:25Z</time>
        <extensions>
          <gpxtpx:TrackPointExtension xmlns:gpxtpx="http://www.garmin.com/xmlschemas/TrackPointExtension/v1">
            <gpxtpx:hr>151</gpxtpx:hr>
          </gpxtpx:TrackPointExtension>
        </extensions>
      </trkpt>
      <trkpt lat="44.17026" lon="3.18499">
        <ele>771</ele>
        <time>2022-02-10T10:50:26Z</time>
        <extensions>
          <gpxtpx:TrackPointExtension xmlns:gpxtpx="http://www.garmin.com/xmlschemas/TrackPointExtension/v1">
            <gpxtpx:hr>151</gpxtpx:hr>
          </gpxtpx:TrackPointExtension>
        </extensions>
      </trkpt>
      <trkpt lat="44.17026" lon="3.18496">
        <ele>771</ele>
        <time>2022-02-10T10:50:27Z</time>
        <extensions>
          <gpxtpx:TrackPointExtension xmlns:gpxtpx="http://www.garmin.com/xmlschemas/TrackPointExtension/v1">
            <gpxtpx:hr>151</gpxtpx:hr>
          </gpxtpx:TrackPointExtension>
        </extensions>
      </trkpt>
      <trkpt lat="44.17029" lon="3.18493">
        <ele>770.6</ele>
        <time>2022-02-10T10:50:28Z</time>
        <extensions>
          <gpxtpx:TrackPointExtension xmlns:gpxtpx="http://www.garmin.com/xmlschemas/TrackPointExtension/v1">
            <gpxtpx:hr>151</gpxtpx:hr>
          </gpxtpx:TrackPointExtension>
        </extensions>
      </trkpt>
      <trkpt lat="44.17031" lon="3.1849">
        <ele>770.6</ele>
        <time>2022-02-10T10:50:29Z</time>
        <extensions>
          <gpxtpx:TrackPointExtension xmlns:gpxtpx="http://www.garmin.com/xmlschemas/TrackPointExtension/v1">
            <gpxtpx:hr>152</gpxtpx:hr>
          </gpxtpx:TrackPointExtension>
        </extensions>
      </trkpt>
      <trkpt lat="44.17034" lon="3.18487">
        <ele>770.4</ele>
        <time>2022-02-10T10:50:30Z</time>
        <extensions>
          <gpxtpx:TrackPointExtension xmlns:gpxtpx="http://www.garmin.com/xmlschemas/TrackPointExtension/v1">
            <gpxtpx:hr>152</gpxtpx:hr>
          </gpxtpx:TrackPointExtension>
        </extensions>
      </trkpt>
      <trkpt lat="44.17036" lon="3.18484">
        <ele>770.4</ele>
        <time>2022-02-10T10:50:31Z</time>
        <extensions>
          <gpxtpx:TrackPointExtension xmlns:gpxtpx="http://www.garmin.com/xmlschemas/TrackPointExtension/v1">
            <gpxtpx:hr>152</gpxtpx:hr>
          </gpxtpx:TrackPointExtension>
        </extensions>
      </trkpt>
      <trkpt lat="44.17039" lon="3.18483">
        <ele>770</ele>
        <time>2022-02-10T10:50:32Z</time>
        <extensions>
          <gpxtpx:TrackPointExtension xmlns:gpxtpx="http://www.garmin.com/xmlschemas/TrackPointExtension/v1">
            <gpxtpx:hr>151</gpxtpx:hr>
          </gpxtpx:TrackPointExtension>
        </extensions>
      </trkpt>
      <trkpt lat="44.17042" lon="3.18482">
        <ele>769.8</ele>
        <time>2022-02-10T10:50:34Z</time>
        <extensions>
          <gpxtpx:TrackPointExtension xmlns:gpxtpx="http://www.garmin.com/xmlschemas/TrackPointExtension/v1">
            <gpxtpx:hr>152</gpxtpx:hr>
          </gpxtpx:TrackPointExtension>
        </extensions>
      </trkpt>
      <trkpt lat="44.17044" lon="3.18482">
        <ele>769.8</ele>
        <time>2022-02-10T10:50:35Z</time>
        <extensions>
          <gpxtpx:TrackPointExtension xmlns:gpxtpx="http://www.garmin.com/xmlschemas/TrackPointExtension/v1">
            <gpxtpx:hr>153</gpxtpx:hr>
          </gpxtpx:TrackPointExtension>
        </extensions>
      </trkpt>
      <trkpt lat="44.17047" lon="3.18481">
        <ele>769.6</ele>
        <time>2022-02-10T10:50:36Z</time>
        <extensions>
          <gpxtpx:TrackPointExtension xmlns:gpxtpx="http://www.garmin.com/xmlschemas/TrackPointExtension/v1">
            <gpxtpx:hr>152</gpxtpx:hr>
          </gpxtpx:TrackPointExtension>
        </extensions>
      </trkpt>
      <trkpt lat="44.1705" lon="3.18481">
        <ele>769.6</ele>
        <time>2022-02-10T10:50:37Z</time>
        <extensions>
          <gpxtpx:TrackPointExtension xmlns:gpxtpx="http://www.garmin.com/xmlschemas/TrackPointExtension/v1">
            <gpxtpx:hr>151</gpxtpx:hr>
          </gpxtpx:TrackPointExtension>
        </extensions>
      </trkpt>
      <trkpt lat="44.17053" lon="3.1848">
        <ele>769.6</ele>
        <time>2022-02-10T10:50:38Z</time>
        <extensions>
          <gpxtpx:TrackPointExtension xmlns:gpxtpx="http://www.garmin.com/xmlschemas/TrackPointExtension/v1">
            <gpxtpx:hr>150</gpxtpx:hr>
          </gpxtpx:TrackPointExtension>
        </extensions>
      </trkpt>
      <trkpt lat="44.17056" lon="3.18479">
        <ele>769.2</ele>
        <time>2022-02-10T10:50:39Z</time>
        <extensions>
          <gpxtpx:TrackPointExtension xmlns:gpxtpx="http://www.garmin.com/xmlschemas/TrackPointExtension/v1">
            <gpxtpx:hr>149</gpxtpx:hr>
          </gpxtpx:TrackPointExtension>
        </extensions>
      </trkpt>
      <trkpt lat="44.17059" lon="3.18478">
        <ele>769.2</ele>
        <time>2022-02-10T10:50:40Z</time>
        <extensions>
          <gpxtpx:TrackPointExtension xmlns:gpxtpx="http://www.garmin.com/xmlschemas/TrackPointExtension/v1">
            <gpxtpx:hr>149</gpxtpx:hr>
          </gpxtpx:TrackPointExtension>
        </extensions>
      </trkpt>
      <trkpt lat="44.17062" lon="3.18477">
        <ele>769</ele>
        <time>2022-02-10T10:50:41Z</time>
        <extensions>
          <gpxtpx:TrackPointExtension xmlns:gpxtpx="http://www.garmin.com/xmlschemas/TrackPointExtension/v1">
            <gpxtpx:hr>149</gpxtpx:hr>
          </gpxtpx:TrackPointExtension>
        </extensions>
      </trkpt>
      <trkpt lat="44.17063" lon="3.18476">
        <ele>769</ele>
        <time>2022-02-10T10:50:42Z</time>
        <extensions>
          <gpxtpx:TrackPointExtension xmlns:gpxtpx="http://www.garmin.com/xmlschemas/TrackPointExtension/v1">
            <gpxtpx:hr>150</gpxtpx:hr>
          </gpxtpx:TrackPointExtension>
        </extensions>
      </trkpt>
      <trkpt lat="44.17069" lon="3.18474">
        <ele>769</ele>
        <time>2022-02-10T10:50:43Z</time>
        <extensions>
          <gpxtpx:TrackPointExtension xmlns:gpxtpx="http://www.garmin.com/xmlschemas/TrackPointExtension/v1">
            <gpxtpx:hr>149</gpxtpx:hr>
          </gpxtpx:TrackPointExtension>
        </extensions>
      </trkpt>
      <trkpt lat="44.17071" lon="3.18472">
        <ele>768.8</ele>
        <time>2022-02-10T10:50:44Z</time>
        <extensions>
          <gpxtpx:TrackPointExtension xmlns:gpxtpx="http://www.garmin.com/xmlschemas/TrackPointExtension/v1">
            <gpxtpx:hr>149</gpxtpx:hr>
          </gpxtpx:TrackPointExtension>
        </extensions>
      </trkpt>
      <trkpt lat="44.17074" lon="3.18471">
        <ele>768.8</ele>
        <time>2022-02-10T10:50:45Z</time>
        <extensions>
          <gpxtpx:TrackPointExtension xmlns:gpxtpx="http://www.garmin.com/xmlschemas/TrackPointExtension/v1">
            <gpxtpx:hr>146</gpxtpx:hr>
          </gpxtpx:TrackPointExtension>
        </extensions>
      </trkpt>
      <trkpt lat="44.17079" lon="3.18468">
        <ele>768.8</ele>
        <time>2022-02-10T10:50:47Z</time>
        <extensions>
          <gpxtpx:TrackPointExtension xmlns:gpxtpx="http://www.garmin.com/xmlschemas/TrackPointExtension/v1">
            <gpxtpx:hr>144</gpxtpx:hr>
          </gpxtpx:TrackPointExtension>
        </extensions>
      </trkpt>
      <trkpt lat="44.17081" lon="3.18467">
        <ele>768.4</ele>
        <time>2022-02-10T10:50:48Z</time>
        <extensions>
          <gpxtpx:TrackPointExtension xmlns:gpxtpx="http://www.garmin.com/xmlschemas/TrackPointExtension/v1">
            <gpxtpx:hr>146</gpxtpx:hr>
          </gpxtpx:TrackPointExtension>
        </extensions>
      </trkpt>
      <trkpt lat="44.17083" lon="3.18466">
        <ele>768.4</ele>
        <time>2022-02-10T10:50:49Z</time>
        <extensions>
          <gpxtpx:TrackPointExtension xmlns:gpxtpx="http://www.garmin.com/xmlschemas/TrackPointExtension/v1">
            <gpxtpx:hr>145</gpxtpx:hr>
          </gpxtpx:TrackPointExtension>
        </extensions>
      </trkpt>
      <trkpt lat="44.17086" lon="3.18465">
        <ele>768.4</ele>
        <time>2022-02-10T10:50:50Z</time>
        <extensions>
          <gpxtpx:TrackPointExtension xmlns:gpxtpx="http://www.garmin.com/xmlschemas/TrackPointExtension/v1">
            <gpxtpx:hr>147</gpxtpx:hr>
          </gpxtpx:TrackPointExtension>
        </extensions>
      </trkpt>
      <trkpt lat="44.17088" lon="3.18465">
        <ele>768.2</ele>
        <time>2022-02-10T10:50:51Z</time>
        <extensions>
          <gpxtpx:TrackPointExtension xmlns:gpxtpx="http://www.garmin.com/xmlschemas/TrackPointExtension/v1">
            <gpxtpx:hr>145</gpxtpx:hr>
          </gpxtpx:TrackPointExtension>
        </extensions>
      </trkpt>
      <trkpt lat="44.17091" lon="3.18465">
        <ele>768</ele>
        <time>2022-02-10T10:50:54Z</time>
        <extensions>
          <gpxtpx:TrackPointExtension xmlns:gpxtpx="http://www.garmin.com/xmlschemas/TrackPointExtension/v1">
            <gpxtpx:hr>144</gpxtpx:hr>
          </gpxtpx:TrackPointExtension>
        </extensions>
      </trkpt>
      <trkpt lat="44.17094" lon="3.18465">
        <ele>768</ele>
        <time>2022-02-10T10:50:55Z</time>
        <extensions>
          <gpxtpx:TrackPointExtension xmlns:gpxtpx="http://www.garmin.com/xmlschemas/TrackPointExtension/v1">
            <gpxtpx:hr>143</gpxtpx:hr>
          </gpxtpx:TrackPointExtension>
        </extensions>
      </trkpt>
      <trkpt lat="44.17097" lon="3.18465">
        <ele>768</ele>
        <time>2022-02-10T10:50:56Z</time>
        <extensions>
          <gpxtpx:TrackPointExtension xmlns:gpxtpx="http://www.garmin.com/xmlschemas/TrackPointExtension/v1">
            <gpxtpx:hr>143</gpxtpx:hr>
          </gpxtpx:TrackPointExtension>
        </extensions>
      </trkpt>
      <trkpt lat="44.171" lon="3.18465">
        <ele>767.6</ele>
        <time>2022-02-10T10:50:57Z</time>
        <extensions>
          <gpxtpx:TrackPointExtension xmlns:gpxtpx="http://www.garmin.com/xmlschemas/TrackPointExtension/v1">
            <gpxtpx:hr>143</gpxtpx:hr>
          </gpxtpx:TrackPointExtension>
        </extensions>
      </trkpt>
      <trkpt lat="44.17103" lon="3.18467">
        <ele>767.6</ele>
        <time>2022-02-10T10:50:58Z</time>
        <extensions>
          <gpxtpx:TrackPointExtension xmlns:gpxtpx="http://www.garmin.com/xmlschemas/TrackPointExtension/v1">
            <gpxtpx:hr>142</gpxtpx:hr>
          </gpxtpx:TrackPointExtension>
        </extensions>
      </trkpt>
      <trkpt lat="44.17106" lon="3.18468">
        <ele>767.6</ele>
        <time>2022-02-10T10:50:59Z</time>
        <extensions>
          <gpxtpx:TrackPointExtension xmlns:gpxtpx="http://www.garmin.com/xmlschemas/TrackPointExtension/v1">
            <gpxtpx:hr>144</gpxtpx:hr>
          </gpxtpx:TrackPointExtension>
        </extensions>
      </trkpt>
      <trkpt lat="44.17109" lon="3.18469">
        <ele>767.6</ele>
        <time>2022-02-10T10:51:00Z</time>
        <extensions>
          <gpxtpx:TrackPointExtension xmlns:gpxtpx="http://www.garmin.com/xmlschemas/TrackPointExtension/v1">
            <gpxtpx:hr>145</gpxtpx:hr>
          </gpxtpx:TrackPointExtension>
        </extensions>
      </trkpt>
      <trkpt lat="44.17113" lon="3.1847">
        <ele>767.6</ele>
        <time>2022-02-10T10:51:01Z</time>
        <extensions>
          <gpxtpx:TrackPointExtension xmlns:gpxtpx="http://www.garmin.com/xmlschemas/TrackPointExtension/v1">
            <gpxtpx:hr>144</gpxtpx:hr>
          </gpxtpx:TrackPointExtension>
        </extensions>
      </trkpt>
      <trkpt lat="44.17115" lon="3.18471">
        <ele>767.6</ele>
        <time>2022-02-10T10:51:02Z</time>
        <extensions>
          <gpxtpx:TrackPointExtension xmlns:gpxtpx="http://www.garmin.com/xmlschemas/TrackPointExtension/v1">
            <gpxtpx:hr>144</gpxtpx:hr>
          </gpxtpx:TrackPointExtension>
        </extensions>
      </trkpt>
      <trkpt lat="44.17117" lon="3.18472">
        <ele>767.6</ele>
        <time>2022-02-10T10:51:03Z</time>
        <extensions>
          <gpxtpx:TrackPointExtension xmlns:gpxtpx="http://www.garmin.com/xmlschemas/TrackPointExtension/v1">
            <gpxtpx:hr>143</gpxtpx:hr>
          </gpxtpx:TrackPointExtension>
        </extensions>
      </trkpt>
      <trkpt lat="44.17122" lon="3.18473">
        <ele>767.4</ele>
        <time>2022-02-10T10:51:05Z</time>
        <extensions>
          <gpxtpx:TrackPointExtension xmlns:gpxtpx="http://www.garmin.com/xmlschemas/TrackPointExtension/v1">
            <gpxtpx:hr>142</gpxtpx:hr>
          </gpxtpx:TrackPointExtension>
        </extensions>
      </trkpt>
      <trkpt lat="44.17124" lon="3.18472">
        <ele>767.2</ele>
        <time>2022-02-10T10:51:06Z</time>
        <extensions>
          <gpxtpx:TrackPointExtension xmlns:gpxtpx="http://www.garmin.com/xmlschemas/TrackPointExtension/v1">
            <gpxtpx:hr>141</gpxtpx:hr>
          </gpxtpx:TrackPointExtension>
        </extensions>
      </trkpt>
      <trkpt lat="44.17127" lon="3.18471">
        <ele>766.8</ele>
        <time>2022-02-10T10:51:08Z</time>
        <extensions>
          <gpxtpx:TrackPointExtension xmlns:gpxtpx="http://www.garmin.com/xmlschemas/TrackPointExtension/v1">
            <gpxtpx:hr>141</gpxtpx:hr>
          </gpxtpx:TrackPointExtension>
        </extensions>
      </trkpt>
      <trkpt lat="44.17128" lon="3.1847">
        <ele>766.8</ele>
        <time>2022-02-10T10:51:09Z</time>
        <extensions>
          <gpxtpx:TrackPointExtension xmlns:gpxtpx="http://www.garmin.com/xmlschemas/TrackPointExtension/v1">
            <gpxtpx:hr>143</gpxtpx:hr>
          </gpxtpx:TrackPointExtension>
        </extensions>
      </trkpt>
      <trkpt lat="44.17131" lon="3.18466">
        <ele>766.4</ele>
        <time>2022-02-10T10:51:11Z</time>
        <extensions>
          <gpxtpx:TrackPointExtension xmlns:gpxtpx="http://www.garmin.com/xmlschemas/TrackPointExtension/v1">
            <gpxtpx:hr>144</gpxtpx:hr>
          </gpxtpx:TrackPointExtension>
        </extensions>
      </trkpt>
      <trkpt lat="44.17134" lon="3.18463">
        <ele>766.2</ele>
        <time>2022-02-10T10:51:13Z</time>
        <extensions>
          <gpxtpx:TrackPointExtension xmlns:gpxtpx="http://www.garmin.com/xmlschemas/TrackPointExtension/v1">
            <gpxtpx:hr>145</gpxtpx:hr>
          </gpxtpx:TrackPointExtension>
        </extensions>
      </trkpt>
      <trkpt lat="44.17135" lon="3.18461">
        <ele>765.8</ele>
        <time>2022-02-10T10:51:14Z</time>
        <extensions>
          <gpxtpx:TrackPointExtension xmlns:gpxtpx="http://www.garmin.com/xmlschemas/TrackPointExtension/v1">
            <gpxtpx:hr>147</gpxtpx:hr>
          </gpxtpx:TrackPointExtension>
        </extensions>
      </trkpt>
      <trkpt lat="44.17137" lon="3.18459">
        <ele>765.8</ele>
        <time>2022-02-10T10:51:15Z</time>
        <extensions>
          <gpxtpx:TrackPointExtension xmlns:gpxtpx="http://www.garmin.com/xmlschemas/TrackPointExtension/v1">
            <gpxtpx:hr>146</gpxtpx:hr>
          </gpxtpx:TrackPointExtension>
        </extensions>
      </trkpt>
      <trkpt lat="44.17139" lon="3.18458">
        <ele>765.8</ele>
        <time>2022-02-10T10:51:16Z</time>
        <extensions>
          <gpxtpx:TrackPointExtension xmlns:gpxtpx="http://www.garmin.com/xmlschemas/TrackPointExtension/v1">
            <gpxtpx:hr>146</gpxtpx:hr>
          </gpxtpx:TrackPointExtension>
        </extensions>
      </trkpt>
      <trkpt lat="44.17141" lon="3.18456">
        <ele>765.6</ele>
        <time>2022-02-10T10:51:17Z</time>
        <extensions>
          <gpxtpx:TrackPointExtension xmlns:gpxtpx="http://www.garmin.com/xmlschemas/TrackPointExtension/v1">
            <gpxtpx:hr>147</gpxtpx:hr>
          </gpxtpx:TrackPointExtension>
        </extensions>
      </trkpt>
      <trkpt lat="44.17143" lon="3.18455">
        <ele>765.6</ele>
        <time>2022-02-10T10:51:18Z</time>
        <extensions>
          <gpxtpx:TrackPointExtension xmlns:gpxtpx="http://www.garmin.com/xmlschemas/TrackPointExtension/v1">
            <gpxtpx:hr>147</gpxtpx:hr>
          </gpxtpx:TrackPointExtension>
        </extensions>
      </trkpt>
      <trkpt lat="44.17145" lon="3.18453">
        <ele>765.6</ele>
        <time>2022-02-10T10:51:19Z</time>
        <extensions>
          <gpxtpx:TrackPointExtension xmlns:gpxtpx="http://www.garmin.com/xmlschemas/TrackPointExtension/v1">
            <gpxtpx:hr>145</gpxtpx:hr>
          </gpxtpx:TrackPointExtension>
        </extensions>
      </trkpt>
      <trkpt lat="44.17147" lon="3.18452">
        <ele>765.4</ele>
        <time>2022-02-10T10:51:20Z</time>
        <extensions>
          <gpxtpx:TrackPointExtension xmlns:gpxtpx="http://www.garmin.com/xmlschemas/TrackPointExtension/v1">
            <gpxtpx:hr>146</gpxtpx:hr>
          </gpxtpx:TrackPointExtension>
        </extensions>
      </trkpt>
      <trkpt lat="44.17149" lon="3.18451">
        <ele>765.4</ele>
        <time>2022-02-10T10:51:21Z</time>
        <extensions>
          <gpxtpx:TrackPointExtension xmlns:gpxtpx="http://www.garmin.com/xmlschemas/TrackPointExtension/v1">
            <gpxtpx:hr>145</gpxtpx:hr>
          </gpxtpx:TrackPointExtension>
        </extensions>
      </trkpt>
      <trkpt lat="44.17151" lon="3.1845">
        <ele>765.4</ele>
        <time>2022-02-10T10:51:22Z</time>
        <extensions>
          <gpxtpx:TrackPointExtension xmlns:gpxtpx="http://www.garmin.com/xmlschemas/TrackPointExtension/v1">
            <gpxtpx:hr>145</gpxtpx:hr>
          </gpxtpx:TrackPointExtension>
        </extensions>
      </trkpt>
      <trkpt lat="44.17154" lon="3.1845">
        <ele>765.2</ele>
        <time>2022-02-10T10:51:23Z</time>
        <extensions>
          <gpxtpx:TrackPointExtension xmlns:gpxtpx="http://www.garmin.com/xmlschemas/TrackPointExtension/v1">
            <gpxtpx:hr>145</gpxtpx:hr>
          </gpxtpx:TrackPointExtension>
        </extensions>
      </trkpt>
      <trkpt lat="44.17156" lon="3.18449">
        <ele>765.2</ele>
        <time>2022-02-10T10:51:24Z</time>
        <extensions>
          <gpxtpx:TrackPointExtension xmlns:gpxtpx="http://www.garmin.com/xmlschemas/TrackPointExtension/v1">
            <gpxtpx:hr>144</gpxtpx:hr>
          </gpxtpx:TrackPointExtension>
        </extensions>
      </trkpt>
      <trkpt lat="44.17158" lon="3.1845">
        <ele>765.2</ele>
        <time>2022-02-10T10:51:25Z</time>
        <extensions>
          <gpxtpx:TrackPointExtension xmlns:gpxtpx="http://www.garmin.com/xmlschemas/TrackPointExtension/v1">
            <gpxtpx:hr>143</gpxtpx:hr>
          </gpxtpx:TrackPointExtension>
        </extensions>
      </trkpt>
      <trkpt lat="44.17161" lon="3.1845">
        <ele>765.2</ele>
        <time>2022-02-10T10:51:26Z</time>
        <extensions>
          <gpxtpx:TrackPointExtension xmlns:gpxtpx="http://www.garmin.com/xmlschemas/TrackPointExtension/v1">
            <gpxtpx:hr>142</gpxtpx:hr>
          </gpxtpx:TrackPointExtension>
        </extensions>
      </trkpt>
      <trkpt lat="44.17163" lon="3.18451">
        <ele>764.8</ele>
        <time>2022-02-10T10:51:27Z</time>
        <extensions>
          <gpxtpx:TrackPointExtension xmlns:gpxtpx="http://www.garmin.com/xmlschemas/TrackPointExtension/v1">
            <gpxtpx:hr>141</gpxtpx:hr>
          </gpxtpx:TrackPointExtension>
        </extensions>
      </trkpt>
      <trkpt lat="44.17165" lon="3.18451">
        <ele>764.8</ele>
        <time>2022-02-10T10:51:28Z</time>
        <extensions>
          <gpxtpx:TrackPointExtension xmlns:gpxtpx="http://www.garmin.com/xmlschemas/TrackPointExtension/v1">
            <gpxtpx:hr>141</gpxtpx:hr>
          </gpxtpx:TrackPointExtension>
        </extensions>
      </trkpt>
      <trkpt lat="44.17168" lon="3.18452">
        <ele>764.6</ele>
        <time>2022-02-10T10:51:29Z</time>
        <extensions>
          <gpxtpx:TrackPointExtension xmlns:gpxtpx="http://www.garmin.com/xmlschemas/TrackPointExtension/v1">
            <gpxtpx:hr>139</gpxtpx:hr>
          </gpxtpx:TrackPointExtension>
        </extensions>
      </trkpt>
      <trkpt lat="44.17173" lon="3.18453">
        <ele>764.6</ele>
        <time>2022-02-10T10:51:31Z</time>
        <extensions>
          <gpxtpx:TrackPointExtension xmlns:gpxtpx="http://www.garmin.com/xmlschemas/TrackPointExtension/v1">
            <gpxtpx:hr>141</gpxtpx:hr>
          </gpxtpx:TrackPointExtension>
        </extensions>
      </trkpt>
      <trkpt lat="44.17175" lon="3.18454">
        <ele>764.2</ele>
        <time>2022-02-10T10:51:32Z</time>
        <extensions>
          <gpxtpx:TrackPointExtension xmlns:gpxtpx="http://www.garmin.com/xmlschemas/TrackPointExtension/v1">
            <gpxtpx:hr>142</gpxtpx:hr>
          </gpxtpx:TrackPointExtension>
        </extensions>
      </trkpt>
      <trkpt lat="44.17178" lon="3.18454">
        <ele>764.2</ele>
        <time>2022-02-10T10:51:33Z</time>
        <extensions>
          <gpxtpx:TrackPointExtension xmlns:gpxtpx="http://www.garmin.com/xmlschemas/TrackPointExtension/v1">
            <gpxtpx:hr>143</gpxtpx:hr>
          </gpxtpx:TrackPointExtension>
        </extensions>
      </trkpt>
      <trkpt lat="44.1718" lon="3.18455">
        <ele>764.2</ele>
        <time>2022-02-10T10:51:34Z</time>
        <extensions>
          <gpxtpx:TrackPointExtension xmlns:gpxtpx="http://www.garmin.com/xmlschemas/TrackPointExtension/v1">
            <gpxtpx:hr>143</gpxtpx:hr>
          </gpxtpx:TrackPointExtension>
        </extensions>
      </trkpt>
      <trkpt lat="44.17182" lon="3.18455">
        <ele>764</ele>
        <time>2022-02-10T10:51:35Z</time>
        <extensions>
          <gpxtpx:TrackPointExtension xmlns:gpxtpx="http://www.garmin.com/xmlschemas/TrackPointExtension/v1">
            <gpxtpx:hr>143</gpxtpx:hr>
          </gpxtpx:TrackPointExtension>
        </extensions>
      </trkpt>
      <trkpt lat="44.17184" lon="3.18456">
        <ele>764</ele>
        <time>2022-02-10T10:51:36Z</time>
        <extensions>
          <gpxtpx:TrackPointExtension xmlns:gpxtpx="http://www.garmin.com/xmlschemas/TrackPointExtension/v1">
            <gpxtpx:hr>142</gpxtpx:hr>
          </gpxtpx:TrackPointExtension>
        </extensions>
      </trkpt>
      <trkpt lat="44.17186" lon="3.18456">
        <ele>764</ele>
        <time>2022-02-10T10:51:37Z</time>
        <extensions>
          <gpxtpx:TrackPointExtension xmlns:gpxtpx="http://www.garmin.com/xmlschemas/TrackPointExtension/v1">
            <gpxtpx:hr>142</gpxtpx:hr>
          </gpxtpx:TrackPointExtension>
        </extensions>
      </trkpt>
      <trkpt lat="44.17188" lon="3.18456">
        <ele>764</ele>
        <time>2022-02-10T10:51:38Z</time>
        <extensions>
          <gpxtpx:TrackPointExtension xmlns:gpxtpx="http://www.garmin.com/xmlschemas/TrackPointExtension/v1">
            <gpxtpx:hr>142</gpxtpx:hr>
          </gpxtpx:TrackPointExtension>
        </extensions>
      </trkpt>
      <trkpt lat="44.1719" lon="3.18456">
        <ele>764</ele>
        <time>2022-02-10T10:51:39Z</time>
        <extensions>
          <gpxtpx:TrackPointExtension xmlns:gpxtpx="http://www.garmin.com/xmlschemas/TrackPointExtension/v1">
            <gpxtpx:hr>141</gpxtpx:hr>
          </gpxtpx:TrackPointExtension>
        </extensions>
      </trkpt>
      <trkpt lat="44.17195" lon="3.18456">
        <ele>763.8</ele>
        <time>2022-02-10T10:51:41Z</time>
        <extensions>
          <gpxtpx:TrackPointExtension xmlns:gpxtpx="http://www.garmin.com/xmlschemas/TrackPointExtension/v1">
            <gpxtpx:hr>139</gpxtpx:hr>
          </gpxtpx:TrackPointExtension>
        </extensions>
      </trkpt>
      <trkpt lat="44.17197" lon="3.18456">
        <ele>763.8</ele>
        <time>2022-02-10T10:51:42Z</time>
        <extensions>
          <gpxtpx:TrackPointExtension xmlns:gpxtpx="http://www.garmin.com/xmlschemas/TrackPointExtension/v1">
            <gpxtpx:hr>138</gpxtpx:hr>
          </gpxtpx:TrackPointExtension>
        </extensions>
      </trkpt>
      <trkpt lat="44.172" lon="3.18455">
        <ele>763.8</ele>
        <time>2022-02-10T10:51:43Z</time>
        <extensions>
          <gpxtpx:TrackPointExtension xmlns:gpxtpx="http://www.garmin.com/xmlschemas/TrackPointExtension/v1">
            <gpxtpx:hr>138</gpxtpx:hr>
          </gpxtpx:TrackPointExtension>
        </extensions>
      </trkpt>
      <trkpt lat="44.17204" lon="3.18454">
        <ele>763.6</ele>
        <time>2022-02-10T10:51:45Z</time>
        <extensions>
          <gpxtpx:TrackPointExtension xmlns:gpxtpx="http://www.garmin.com/xmlschemas/TrackPointExtension/v1">
            <gpxtpx:hr>138</gpxtpx:hr>
          </gpxtpx:TrackPointExtension>
        </extensions>
      </trkpt>
      <trkpt lat="44.17211" lon="3.18453">
        <ele>763.6</ele>
        <time>2022-02-10T10:51:48Z</time>
        <extensions>
          <gpxtpx:TrackPointExtension xmlns:gpxtpx="http://www.garmin.com/xmlschemas/TrackPointExtension/v1">
            <gpxtpx:hr>139</gpxtpx:hr>
          </gpxtpx:TrackPointExtension>
        </extensions>
      </trkpt>
      <trkpt lat="44.17213" lon="3.18453">
        <ele>763.4</ele>
        <time>2022-02-10T10:51:49Z</time>
        <extensions>
          <gpxtpx:TrackPointExtension xmlns:gpxtpx="http://www.garmin.com/xmlschemas/TrackPointExtension/v1">
            <gpxtpx:hr>141</gpxtpx:hr>
          </gpxtpx:TrackPointExtension>
        </extensions>
      </trkpt>
      <trkpt lat="44.17215" lon="3.18453">
        <ele>763.4</ele>
        <time>2022-02-10T10:51:50Z</time>
        <extensions>
          <gpxtpx:TrackPointExtension xmlns:gpxtpx="http://www.garmin.com/xmlschemas/TrackPointExtension/v1">
            <gpxtpx:hr>141</gpxtpx:hr>
          </gpxtpx:TrackPointExtension>
        </extensions>
      </trkpt>
      <trkpt lat="44.17217" lon="3.18453">
        <ele>763.4</ele>
        <time>2022-02-10T10:51:51Z</time>
        <extensions>
          <gpxtpx:TrackPointExtension xmlns:gpxtpx="http://www.garmin.com/xmlschemas/TrackPointExtension/v1">
            <gpxtpx:hr>140</gpxtpx:hr>
          </gpxtpx:TrackPointExtension>
        </extensions>
      </trkpt>
      <trkpt lat="44.17219" lon="3.18453">
        <ele>763.2</ele>
        <time>2022-02-10T10:51:53Z</time>
        <extensions>
          <gpxtpx:TrackPointExtension xmlns:gpxtpx="http://www.garmin.com/xmlschemas/TrackPointExtension/v1">
            <gpxtpx:hr>140</gpxtpx:hr>
          </gpxtpx:TrackPointExtension>
        </extensions>
      </trkpt>
      <trkpt lat="44.17221" lon="3.18453">
        <ele>763.2</ele>
        <time>2022-02-10T10:51:54Z</time>
        <extensions>
          <gpxtpx:TrackPointExtension xmlns:gpxtpx="http://www.garmin.com/xmlschemas/TrackPointExtension/v1">
            <gpxtpx:hr>141</gpxtpx:hr>
          </gpxtpx:TrackPointExtension>
        </extensions>
      </trkpt>
      <trkpt lat="44.17223" lon="3.18453">
        <ele>763</ele>
        <time>2022-02-10T10:51:55Z</time>
        <extensions>
          <gpxtpx:TrackPointExtension xmlns:gpxtpx="http://www.garmin.com/xmlschemas/TrackPointExtension/v1">
            <gpxtpx:hr>143</gpxtpx:hr>
          </gpxtpx:TrackPointExtension>
        </extensions>
      </trkpt>
      <trkpt lat="44.17226" lon="3.18453">
        <ele>763</ele>
        <time>2022-02-10T10:51:56Z</time>
        <extensions>
          <gpxtpx:TrackPointExtension xmlns:gpxtpx="http://www.garmin.com/xmlschemas/TrackPointExtension/v1">
            <gpxtpx:hr>143</gpxtpx:hr>
          </gpxtpx:TrackPointExtension>
        </extensions>
      </trkpt>
      <trkpt lat="44.17228" lon="3.18453">
        <ele>763</ele>
        <time>2022-02-10T10:51:57Z</time>
        <extensions>
          <gpxtpx:TrackPointExtension xmlns:gpxtpx="http://www.garmin.com/xmlschemas/TrackPointExtension/v1">
            <gpxtpx:hr>142</gpxtpx:hr>
          </gpxtpx:TrackPointExtension>
        </extensions>
      </trkpt>
      <trkpt lat="44.1723" lon="3.18453">
        <ele>763</ele>
        <time>2022-02-10T10:51:58Z</time>
        <extensions>
          <gpxtpx:TrackPointExtension xmlns:gpxtpx="http://www.garmin.com/xmlschemas/TrackPointExtension/v1">
            <gpxtpx:hr>141</gpxtpx:hr>
          </gpxtpx:TrackPointExtension>
        </extensions>
      </trkpt>
      <trkpt lat="44.17232" lon="3.18454">
        <ele>762.6</ele>
        <time>2022-02-10T10:51:59Z</time>
        <extensions>
          <gpxtpx:TrackPointExtension xmlns:gpxtpx="http://www.garmin.com/xmlschemas/TrackPointExtension/v1">
            <gpxtpx:hr>141</gpxtpx:hr>
          </gpxtpx:TrackPointExtension>
        </extensions>
      </trkpt>
      <trkpt lat="44.17234" lon="3.18454">
        <ele>762.6</ele>
        <time>2022-02-10T10:52:00Z</time>
        <extensions>
          <gpxtpx:TrackPointExtension xmlns:gpxtpx="http://www.garmin.com/xmlschemas/TrackPointExtension/v1">
            <gpxtpx:hr>140</gpxtpx:hr>
          </gpxtpx:TrackPointExtension>
        </extensions>
      </trkpt>
      <trkpt lat="44.17237" lon="3.18455">
        <ele>762.4</ele>
        <time>2022-02-10T10:52:01Z</time>
        <extensions>
          <gpxtpx:TrackPointExtension xmlns:gpxtpx="http://www.garmin.com/xmlschemas/TrackPointExtension/v1">
            <gpxtpx:hr>137</gpxtpx:hr>
          </gpxtpx:TrackPointExtension>
        </extensions>
      </trkpt>
      <trkpt lat="44.17239" lon="3.18456">
        <ele>762.4</ele>
        <time>2022-02-10T10:52:02Z</time>
        <extensions>
          <gpxtpx:TrackPointExtension xmlns:gpxtpx="http://www.garmin.com/xmlschemas/TrackPointExtension/v1">
            <gpxtpx:hr>137</gpxtpx:hr>
          </gpxtpx:TrackPointExtension>
        </extensions>
      </trkpt>
      <trkpt lat="44.17241" lon="3.18457">
        <ele>762</ele>
        <time>2022-02-10T10:52:03Z</time>
        <extensions>
          <gpxtpx:TrackPointExtension xmlns:gpxtpx="http://www.garmin.com/xmlschemas/TrackPointExtension/v1">
            <gpxtpx:hr>138</gpxtpx:hr>
          </gpxtpx:TrackPointExtension>
        </extensions>
      </trkpt>
      <trkpt lat="44.17243" lon="3.18458">
        <ele>762</ele>
        <time>2022-02-10T10:52:04Z</time>
        <extensions>
          <gpxtpx:TrackPointExtension xmlns:gpxtpx="http://www.garmin.com/xmlschemas/TrackPointExtension/v1">
            <gpxtpx:hr>136</gpxtpx:hr>
          </gpxtpx:TrackPointExtension>
        </extensions>
      </trkpt>
      <trkpt lat="44.17246" lon="3.18459">
        <ele>761.8</ele>
        <time>2022-02-10T10:52:05Z</time>
        <extensions>
          <gpxtpx:TrackPointExtension xmlns:gpxtpx="http://www.garmin.com/xmlschemas/TrackPointExtension/v1">
            <gpxtpx:hr>135</gpxtpx:hr>
          </gpxtpx:TrackPointExtension>
        </extensions>
      </trkpt>
      <trkpt lat="44.17249" lon="3.18461">
        <ele>761.8</ele>
        <time>2022-02-10T10:52:06Z</time>
        <extensions>
          <gpxtpx:TrackPointExtension xmlns:gpxtpx="http://www.garmin.com/xmlschemas/TrackPointExtension/v1">
            <gpxtpx:hr>136</gpxtpx:hr>
          </gpxtpx:TrackPointExtension>
        </extensions>
      </trkpt>
      <trkpt lat="44.17252" lon="3.18464">
        <ele>761.4</ele>
        <time>2022-02-10T10:52:07Z</time>
        <extensions>
          <gpxtpx:TrackPointExtension xmlns:gpxtpx="http://www.garmin.com/xmlschemas/TrackPointExtension/v1">
            <gpxtpx:hr>136</gpxtpx:hr>
          </gpxtpx:TrackPointExtension>
        </extensions>
      </trkpt>
      <trkpt lat="44.17254" lon="3.18466">
        <ele>761</ele>
        <time>2022-02-10T10:52:08Z</time>
        <extensions>
          <gpxtpx:TrackPointExtension xmlns:gpxtpx="http://www.garmin.com/xmlschemas/TrackPointExtension/v1">
            <gpxtpx:hr>138</gpxtpx:hr>
          </gpxtpx:TrackPointExtension>
        </extensions>
      </trkpt>
      <trkpt lat="44.17257" lon="3.18467">
        <ele>761</ele>
        <time>2022-02-10T10:52:09Z</time>
        <extensions>
          <gpxtpx:TrackPointExtension xmlns:gpxtpx="http://www.garmin.com/xmlschemas/TrackPointExtension/v1">
            <gpxtpx:hr>138</gpxtpx:hr>
          </gpxtpx:TrackPointExtension>
        </extensions>
      </trkpt>
      <trkpt lat="44.17259" lon="3.18469">
        <ele>760.8</ele>
        <time>2022-02-10T10:52:10Z</time>
        <extensions>
          <gpxtpx:TrackPointExtension xmlns:gpxtpx="http://www.garmin.com/xmlschemas/TrackPointExtension/v1">
            <gpxtpx:hr>139</gpxtpx:hr>
          </gpxtpx:TrackPointExtension>
        </extensions>
      </trkpt>
      <trkpt lat="44.17261" lon="3.1847">
        <ele>760.6</ele>
        <time>2022-02-10T10:52:11Z</time>
        <extensions>
          <gpxtpx:TrackPointExtension xmlns:gpxtpx="http://www.garmin.com/xmlschemas/TrackPointExtension/v1">
            <gpxtpx:hr>139</gpxtpx:hr>
          </gpxtpx:TrackPointExtension>
        </extensions>
      </trkpt>
      <trkpt lat="44.17263" lon="3.18471">
        <ele>760.6</ele>
        <time>2022-02-10T10:52:12Z</time>
        <extensions>
          <gpxtpx:TrackPointExtension xmlns:gpxtpx="http://www.garmin.com/xmlschemas/TrackPointExtension/v1">
            <gpxtpx:hr>140</gpxtpx:hr>
          </gpxtpx:TrackPointExtension>
        </extensions>
      </trkpt>
      <trkpt lat="44.17265" lon="3.18472">
        <ele>760.4</ele>
        <time>2022-02-10T10:52:13Z</time>
        <extensions>
          <gpxtpx:TrackPointExtension xmlns:gpxtpx="http://www.garmin.com/xmlschemas/TrackPointExtension/v1">
            <gpxtpx:hr>140</gpxtpx:hr>
          </gpxtpx:TrackPointExtension>
        </extensions>
      </trkpt>
      <trkpt lat="44.17268" lon="3.18472">
        <ele>760</ele>
        <time>2022-02-10T10:52:14Z</time>
        <extensions>
          <gpxtpx:TrackPointExtension xmlns:gpxtpx="http://www.garmin.com/xmlschemas/TrackPointExtension/v1">
            <gpxtpx:hr>140</gpxtpx:hr>
          </gpxtpx:TrackPointExtension>
        </extensions>
      </trkpt>
      <trkpt lat="44.17271" lon="3.18473">
        <ele>759.6</ele>
        <time>2022-02-10T10:52:15Z</time>
        <extensions>
          <gpxtpx:TrackPointExtension xmlns:gpxtpx="http://www.garmin.com/xmlschemas/TrackPointExtension/v1">
            <gpxtpx:hr>141</gpxtpx:hr>
          </gpxtpx:TrackPointExtension>
        </extensions>
      </trkpt>
      <trkpt lat="44.17274" lon="3.18473">
        <ele>759.2</ele>
        <time>2022-02-10T10:52:16Z</time>
        <extensions>
          <gpxtpx:TrackPointExtension xmlns:gpxtpx="http://www.garmin.com/xmlschemas/TrackPointExtension/v1">
            <gpxtpx:hr>141</gpxtpx:hr>
          </gpxtpx:TrackPointExtension>
        </extensions>
      </trkpt>
      <trkpt lat="44.17276" lon="3.18473">
        <ele>759</ele>
        <time>2022-02-10T10:52:17Z</time>
        <extensions>
          <gpxtpx:TrackPointExtension xmlns:gpxtpx="http://www.garmin.com/xmlschemas/TrackPointExtension/v1">
            <gpxtpx:hr>141</gpxtpx:hr>
          </gpxtpx:TrackPointExtension>
        </extensions>
      </trkpt>
      <trkpt lat="44.17278" lon="3.18474">
        <ele>758.6</ele>
        <time>2022-02-10T10:52:18Z</time>
        <extensions>
          <gpxtpx:TrackPointExtension xmlns:gpxtpx="http://www.garmin.com/xmlschemas/TrackPointExtension/v1">
            <gpxtpx:hr>142</gpxtpx:hr>
          </gpxtpx:TrackPointExtension>
        </extensions>
      </trkpt>
      <trkpt lat="44.1728" lon="3.18474">
        <ele>758.4</ele>
        <time>2022-02-10T10:52:19Z</time>
        <extensions>
          <gpxtpx:TrackPointExtension xmlns:gpxtpx="http://www.garmin.com/xmlschemas/TrackPointExtension/v1">
            <gpxtpx:hr>143</gpxtpx:hr>
          </gpxtpx:TrackPointExtension>
        </extensions>
      </trkpt>
      <trkpt lat="44.17282" lon="3.18475">
        <ele>758</ele>
        <time>2022-02-10T10:52:20Z</time>
        <extensions>
          <gpxtpx:TrackPointExtension xmlns:gpxtpx="http://www.garmin.com/xmlschemas/TrackPointExtension/v1">
            <gpxtpx:hr>144</gpxtpx:hr>
          </gpxtpx:TrackPointExtension>
        </extensions>
      </trkpt>
      <trkpt lat="44.17285" lon="3.18475">
        <ele>757.6</ele>
        <time>2022-02-10T10:52:21Z</time>
        <extensions>
          <gpxtpx:TrackPointExtension xmlns:gpxtpx="http://www.garmin.com/xmlschemas/TrackPointExtension/v1">
            <gpxtpx:hr>143</gpxtpx:hr>
          </gpxtpx:TrackPointExtension>
        </extensions>
      </trkpt>
      <trkpt lat="44.17286" lon="3.18478">
        <ele>757.2</ele>
        <time>2022-02-10T10:52:22Z</time>
        <extensions>
          <gpxtpx:TrackPointExtension xmlns:gpxtpx="http://www.garmin.com/xmlschemas/TrackPointExtension/v1">
            <gpxtpx:hr>143</gpxtpx:hr>
          </gpxtpx:TrackPointExtension>
        </extensions>
      </trkpt>
      <trkpt lat="44.17288" lon="3.1848">
        <ele>756.6</ele>
        <time>2022-02-10T10:52:23Z</time>
        <extensions>
          <gpxtpx:TrackPointExtension xmlns:gpxtpx="http://www.garmin.com/xmlschemas/TrackPointExtension/v1">
            <gpxtpx:hr>143</gpxtpx:hr>
          </gpxtpx:TrackPointExtension>
        </extensions>
      </trkpt>
      <trkpt lat="44.1729" lon="3.18483">
        <ele>756.2</ele>
        <time>2022-02-10T10:52:24Z</time>
        <extensions>
          <gpxtpx:TrackPointExtension xmlns:gpxtpx="http://www.garmin.com/xmlschemas/TrackPointExtension/v1">
            <gpxtpx:hr>143</gpxtpx:hr>
          </gpxtpx:TrackPointExtension>
        </extensions>
      </trkpt>
      <trkpt lat="44.17291" lon="3.18485">
        <ele>755.8</ele>
        <time>2022-02-10T10:52:25Z</time>
        <extensions>
          <gpxtpx:TrackPointExtension xmlns:gpxtpx="http://www.garmin.com/xmlschemas/TrackPointExtension/v1">
            <gpxtpx:hr>144</gpxtpx:hr>
          </gpxtpx:TrackPointExtension>
        </extensions>
      </trkpt>
      <trkpt lat="44.17292" lon="3.18488">
        <ele>755.2</ele>
        <time>2022-02-10T10:52:26Z</time>
        <extensions>
          <gpxtpx:TrackPointExtension xmlns:gpxtpx="http://www.garmin.com/xmlschemas/TrackPointExtension/v1">
            <gpxtpx:hr>144</gpxtpx:hr>
          </gpxtpx:TrackPointExtension>
        </extensions>
      </trkpt>
      <trkpt lat="44.17293" lon="3.18491">
        <ele>755.2</ele>
        <time>2022-02-10T10:52:27Z</time>
        <extensions>
          <gpxtpx:TrackPointExtension xmlns:gpxtpx="http://www.garmin.com/xmlschemas/TrackPointExtension/v1">
            <gpxtpx:hr>144</gpxtpx:hr>
          </gpxtpx:TrackPointExtension>
        </extensions>
      </trkpt>
      <trkpt lat="44.17294" lon="3.18493">
        <ele>754.6</ele>
        <time>2022-02-10T10:52:28Z</time>
        <extensions>
          <gpxtpx:TrackPointExtension xmlns:gpxtpx="http://www.garmin.com/xmlschemas/TrackPointExtension/v1">
            <gpxtpx:hr>145</gpxtpx:hr>
          </gpxtpx:TrackPointExtension>
        </extensions>
      </trkpt>
      <trkpt lat="44.17295" lon="3.18496">
        <ele>754</ele>
        <time>2022-02-10T10:52:29Z</time>
        <extensions>
          <gpxtpx:TrackPointExtension xmlns:gpxtpx="http://www.garmin.com/xmlschemas/TrackPointExtension/v1">
            <gpxtpx:hr>144</gpxtpx:hr>
          </gpxtpx:TrackPointExtension>
        </extensions>
      </trkpt>
      <trkpt lat="44.17296" lon="3.18498">
        <ele>753.4</ele>
        <time>2022-02-10T10:52:30Z</time>
        <extensions>
          <gpxtpx:TrackPointExtension xmlns:gpxtpx="http://www.garmin.com/xmlschemas/TrackPointExtension/v1">
            <gpxtpx:hr>145</gpxtpx:hr>
          </gpxtpx:TrackPointExtension>
        </extensions>
      </trkpt>
      <trkpt lat="44.17297" lon="3.18503">
        <ele>752.8</ele>
        <time>2022-02-10T10:52:31Z</time>
        <extensions>
          <gpxtpx:TrackPointExtension xmlns:gpxtpx="http://www.garmin.com/xmlschemas/TrackPointExtension/v1">
            <gpxtpx:hr>146</gpxtpx:hr>
          </gpxtpx:TrackPointExtension>
        </extensions>
      </trkpt>
      <trkpt lat="44.17299" lon="3.18508">
        <ele>752.2</ele>
        <time>2022-02-10T10:52:32Z</time>
        <extensions>
          <gpxtpx:TrackPointExtension xmlns:gpxtpx="http://www.garmin.com/xmlschemas/TrackPointExtension/v1">
            <gpxtpx:hr>146</gpxtpx:hr>
          </gpxtpx:TrackPointExtension>
        </extensions>
      </trkpt>
      <trkpt lat="44.173" lon="3.18513">
        <ele>751.6</ele>
        <time>2022-02-10T10:52:33Z</time>
        <extensions>
          <gpxtpx:TrackPointExtension xmlns:gpxtpx="http://www.garmin.com/xmlschemas/TrackPointExtension/v1">
            <gpxtpx:hr>148</gpxtpx:hr>
          </gpxtpx:TrackPointExtension>
        </extensions>
      </trkpt>
      <trkpt lat="44.17302" lon="3.18516">
        <ele>751.2</ele>
        <time>2022-02-10T10:52:34Z</time>
        <extensions>
          <gpxtpx:TrackPointExtension xmlns:gpxtpx="http://www.garmin.com/xmlschemas/TrackPointExtension/v1">
            <gpxtpx:hr>147</gpxtpx:hr>
          </gpxtpx:TrackPointExtension>
        </extensions>
      </trkpt>
      <trkpt lat="44.17303" lon="3.18519">
        <ele>750.6</ele>
        <time>2022-02-10T10:52:35Z</time>
        <extensions>
          <gpxtpx:TrackPointExtension xmlns:gpxtpx="http://www.garmin.com/xmlschemas/TrackPointExtension/v1">
            <gpxtpx:hr>147</gpxtpx:hr>
          </gpxtpx:TrackPointExtension>
        </extensions>
      </trkpt>
      <trkpt lat="44.17304" lon="3.18522">
        <ele>750.2</ele>
        <time>2022-02-10T10:52:36Z</time>
        <extensions>
          <gpxtpx:TrackPointExtension xmlns:gpxtpx="http://www.garmin.com/xmlschemas/TrackPointExtension/v1">
            <gpxtpx:hr>147</gpxtpx:hr>
          </gpxtpx:TrackPointExtension>
        </extensions>
      </trkpt>
      <trkpt lat="44.17306" lon="3.18524">
        <ele>749.8</ele>
        <time>2022-02-10T10:52:37Z</time>
        <extensions>
          <gpxtpx:TrackPointExtension xmlns:gpxtpx="http://www.garmin.com/xmlschemas/TrackPointExtension/v1">
            <gpxtpx:hr>147</gpxtpx:hr>
          </gpxtpx:TrackPointExtension>
        </extensions>
      </trkpt>
      <trkpt lat="44.17308" lon="3.18527">
        <ele>749.6</ele>
        <time>2022-02-10T10:52:38Z</time>
        <extensions>
          <gpxtpx:TrackPointExtension xmlns:gpxtpx="http://www.garmin.com/xmlschemas/TrackPointExtension/v1">
            <gpxtpx:hr>147</gpxtpx:hr>
          </gpxtpx:TrackPointExtension>
        </extensions>
      </trkpt>
      <trkpt lat="44.17309" lon="3.1853">
        <ele>749.2</ele>
        <time>2022-02-10T10:52:39Z</time>
        <extensions>
          <gpxtpx:TrackPointExtension xmlns:gpxtpx="http://www.garmin.com/xmlschemas/TrackPointExtension/v1">
            <gpxtpx:hr>146</gpxtpx:hr>
          </gpxtpx:TrackPointExtension>
        </extensions>
      </trkpt>
      <trkpt lat="44.17311" lon="3.18533">
        <ele>749</ele>
        <time>2022-02-10T10:52:40Z</time>
        <extensions>
          <gpxtpx:TrackPointExtension xmlns:gpxtpx="http://www.garmin.com/xmlschemas/TrackPointExtension/v1">
            <gpxtpx:hr>146</gpxtpx:hr>
          </gpxtpx:TrackPointExtension>
        </extensions>
      </trkpt>
      <trkpt lat="44.17313" lon="3.18536">
        <ele>748.8</ele>
        <time>2022-02-10T10:52:41Z</time>
        <extensions>
          <gpxtpx:TrackPointExtension xmlns:gpxtpx="http://www.garmin.com/xmlschemas/TrackPointExtension/v1">
            <gpxtpx:hr>146</gpxtpx:hr>
          </gpxtpx:TrackPointExtension>
        </extensions>
      </trkpt>
      <trkpt lat="44.17315" lon="3.18539">
        <ele>748.6</ele>
        <time>2022-02-10T10:52:42Z</time>
        <extensions>
          <gpxtpx:TrackPointExtension xmlns:gpxtpx="http://www.garmin.com/xmlschemas/TrackPointExtension/v1">
            <gpxtpx:hr>144</gpxtpx:hr>
          </gpxtpx:TrackPointExtension>
        </extensions>
      </trkpt>
      <trkpt lat="44.17317" lon="3.18542">
        <ele>748.6</ele>
        <time>2022-02-10T10:52:43Z</time>
        <extensions>
          <gpxtpx:TrackPointExtension xmlns:gpxtpx="http://www.garmin.com/xmlschemas/TrackPointExtension/v1">
            <gpxtpx:hr>144</gpxtpx:hr>
          </gpxtpx:TrackPointExtension>
        </extensions>
      </trkpt>
      <trkpt lat="44.17319" lon="3.18546">
        <ele>748.2</ele>
        <time>2022-02-10T10:52:44Z</time>
        <extensions>
          <gpxtpx:TrackPointExtension xmlns:gpxtpx="http://www.garmin.com/xmlschemas/TrackPointExtension/v1">
            <gpxtpx:hr>143</gpxtpx:hr>
          </gpxtpx:TrackPointExtension>
        </extensions>
      </trkpt>
      <trkpt lat="44.17321" lon="3.18549">
        <ele>748.2</ele>
        <time>2022-02-10T10:52:45Z</time>
        <extensions>
          <gpxtpx:TrackPointExtension xmlns:gpxtpx="http://www.garmin.com/xmlschemas/TrackPointExtension/v1">
            <gpxtpx:hr>144</gpxtpx:hr>
          </gpxtpx:TrackPointExtension>
        </extensions>
      </trkpt>
      <trkpt lat="44.17323" lon="3.18552">
        <ele>748</ele>
        <time>2022-02-10T10:52:46Z</time>
        <extensions>
          <gpxtpx:TrackPointExtension xmlns:gpxtpx="http://www.garmin.com/xmlschemas/TrackPointExtension/v1">
            <gpxtpx:hr>144</gpxtpx:hr>
          </gpxtpx:TrackPointExtension>
        </extensions>
      </trkpt>
      <trkpt lat="44.17325" lon="3.18555">
        <ele>748</ele>
        <time>2022-02-10T10:52:47Z</time>
        <extensions>
          <gpxtpx:TrackPointExtension xmlns:gpxtpx="http://www.garmin.com/xmlschemas/TrackPointExtension/v1">
            <gpxtpx:hr>145</gpxtpx:hr>
          </gpxtpx:TrackPointExtension>
        </extensions>
      </trkpt>
      <trkpt lat="44.17326" lon="3.18557">
        <ele>748</ele>
        <time>2022-02-10T10:52:48Z</time>
        <extensions>
          <gpxtpx:TrackPointExtension xmlns:gpxtpx="http://www.garmin.com/xmlschemas/TrackPointExtension/v1">
            <gpxtpx:hr>145</gpxtpx:hr>
          </gpxtpx:TrackPointExtension>
        </extensions>
      </trkpt>
      <trkpt lat="44.17328" lon="3.18559">
        <ele>747.6</ele>
        <time>2022-02-10T10:52:49Z</time>
        <extensions>
          <gpxtpx:TrackPointExtension xmlns:gpxtpx="http://www.garmin.com/xmlschemas/TrackPointExtension/v1">
            <gpxtpx:hr>144</gpxtpx:hr>
          </gpxtpx:TrackPointExtension>
        </extensions>
      </trkpt>
      <trkpt lat="44.17329" lon="3.18561">
        <ele>747.6</ele>
        <time>2022-02-10T10:52:50Z</time>
        <extensions>
          <gpxtpx:TrackPointExtension xmlns:gpxtpx="http://www.garmin.com/xmlschemas/TrackPointExtension/v1">
            <gpxtpx:hr>144</gpxtpx:hr>
          </gpxtpx:TrackPointExtension>
        </extensions>
      </trkpt>
      <trkpt lat="44.17334" lon="3.18569">
        <ele>747.6</ele>
        <time>2022-02-10T10:52:51Z</time>
        <extensions>
          <gpxtpx:TrackPointExtension xmlns:gpxtpx="http://www.garmin.com/xmlschemas/TrackPointExtension/v1">
            <gpxtpx:hr>144</gpxtpx:hr>
          </gpxtpx:TrackPointExtension>
        </extensions>
      </trkpt>
      <trkpt lat="44.17336" lon="3.18572">
        <ele>747.4</ele>
        <time>2022-02-10T10:52:52Z</time>
        <extensions>
          <gpxtpx:TrackPointExtension xmlns:gpxtpx="http://www.garmin.com/xmlschemas/TrackPointExtension/v1">
            <gpxtpx:hr>143</gpxtpx:hr>
          </gpxtpx:TrackPointExtension>
        </extensions>
      </trkpt>
      <trkpt lat="44.17338" lon="3.18574">
        <ele>747.4</ele>
        <time>2022-02-10T10:52:53Z</time>
        <extensions>
          <gpxtpx:TrackPointExtension xmlns:gpxtpx="http://www.garmin.com/xmlschemas/TrackPointExtension/v1">
            <gpxtpx:hr>142</gpxtpx:hr>
          </gpxtpx:TrackPointExtension>
        </extensions>
      </trkpt>
      <trkpt lat="44.17339" lon="3.18577">
        <ele>747</ele>
        <time>2022-02-10T10:52:54Z</time>
        <extensions>
          <gpxtpx:TrackPointExtension xmlns:gpxtpx="http://www.garmin.com/xmlschemas/TrackPointExtension/v1">
            <gpxtpx:hr>142</gpxtpx:hr>
          </gpxtpx:TrackPointExtension>
        </extensions>
      </trkpt>
      <trkpt lat="44.1734" lon="3.18579">
        <ele>747</ele>
        <time>2022-02-10T10:52:55Z</time>
        <extensions>
          <gpxtpx:TrackPointExtension xmlns:gpxtpx="http://www.garmin.com/xmlschemas/TrackPointExtension/v1">
            <gpxtpx:hr>142</gpxtpx:hr>
          </gpxtpx:TrackPointExtension>
        </extensions>
      </trkpt>
      <trkpt lat="44.17341" lon="3.18582">
        <ele>746.6</ele>
        <time>2022-02-10T10:52:56Z</time>
        <extensions>
          <gpxtpx:TrackPointExtension xmlns:gpxtpx="http://www.garmin.com/xmlschemas/TrackPointExtension/v1">
            <gpxtpx:hr>142</gpxtpx:hr>
          </gpxtpx:TrackPointExtension>
        </extensions>
      </trkpt>
      <trkpt lat="44.17343" lon="3.18584">
        <ele>746.2</ele>
        <time>2022-02-10T10:52:57Z</time>
        <extensions>
          <gpxtpx:TrackPointExtension xmlns:gpxtpx="http://www.garmin.com/xmlschemas/TrackPointExtension/v1">
            <gpxtpx:hr>142</gpxtpx:hr>
          </gpxtpx:TrackPointExtension>
        </extensions>
      </trkpt>
      <trkpt lat="44.17344" lon="3.18587">
        <ele>745.8</ele>
        <time>2022-02-10T10:52:58Z</time>
        <extensions>
          <gpxtpx:TrackPointExtension xmlns:gpxtpx="http://www.garmin.com/xmlschemas/TrackPointExtension/v1">
            <gpxtpx:hr>141</gpxtpx:hr>
          </gpxtpx:TrackPointExtension>
        </extensions>
      </trkpt>
      <trkpt lat="44.17345" lon="3.18589">
        <ele>745.6</ele>
        <time>2022-02-10T10:52:59Z</time>
        <extensions>
          <gpxtpx:TrackPointExtension xmlns:gpxtpx="http://www.garmin.com/xmlschemas/TrackPointExtension/v1">
            <gpxtpx:hr>143</gpxtpx:hr>
          </gpxtpx:TrackPointExtension>
        </extensions>
      </trkpt>
      <trkpt lat="44.17347" lon="3.18595">
        <ele>745.4</ele>
        <time>2022-02-10T10:53:00Z</time>
        <extensions>
          <gpxtpx:TrackPointExtension xmlns:gpxtpx="http://www.garmin.com/xmlschemas/TrackPointExtension/v1">
            <gpxtpx:hr>143</gpxtpx:hr>
          </gpxtpx:TrackPointExtension>
        </extensions>
      </trkpt>
      <trkpt lat="44.17349" lon="3.18601">
        <ele>745.2</ele>
        <time>2022-02-10T10:53:01Z</time>
        <extensions>
          <gpxtpx:TrackPointExtension xmlns:gpxtpx="http://www.garmin.com/xmlschemas/TrackPointExtension/v1">
            <gpxtpx:hr>142</gpxtpx:hr>
          </gpxtpx:TrackPointExtension>
        </extensions>
      </trkpt>
      <trkpt lat="44.1735" lon="3.18605">
        <ele>744.8</ele>
        <time>2022-02-10T10:53:02Z</time>
        <extensions>
          <gpxtpx:TrackPointExtension xmlns:gpxtpx="http://www.garmin.com/xmlschemas/TrackPointExtension/v1">
            <gpxtpx:hr>142</gpxtpx:hr>
          </gpxtpx:TrackPointExtension>
        </extensions>
      </trkpt>
      <trkpt lat="44.17351" lon="3.18609">
        <ele>744.8</ele>
        <time>2022-02-10T10:53:03Z</time>
        <extensions>
          <gpxtpx:TrackPointExtension xmlns:gpxtpx="http://www.garmin.com/xmlschemas/TrackPointExtension/v1">
            <gpxtpx:hr>141</gpxtpx:hr>
          </gpxtpx:TrackPointExtension>
        </extensions>
      </trkpt>
      <trkpt lat="44.17352" lon="3.18613">
        <ele>744.4</ele>
        <time>2022-02-10T10:53:04Z</time>
        <extensions>
          <gpxtpx:TrackPointExtension xmlns:gpxtpx="http://www.garmin.com/xmlschemas/TrackPointExtension/v1">
            <gpxtpx:hr>142</gpxtpx:hr>
          </gpxtpx:TrackPointExtension>
        </extensions>
      </trkpt>
      <trkpt lat="44.17352" lon="3.18616">
        <ele>744.2</ele>
        <time>2022-02-10T10:53:05Z</time>
        <extensions>
          <gpxtpx:TrackPointExtension xmlns:gpxtpx="http://www.garmin.com/xmlschemas/TrackPointExtension/v1">
            <gpxtpx:hr>142</gpxtpx:hr>
          </gpxtpx:TrackPointExtension>
        </extensions>
      </trkpt>
      <trkpt lat="44.17352" lon="3.1862">
        <ele>744</ele>
        <time>2022-02-10T10:53:06Z</time>
        <extensions>
          <gpxtpx:TrackPointExtension xmlns:gpxtpx="http://www.garmin.com/xmlschemas/TrackPointExtension/v1">
            <gpxtpx:hr>142</gpxtpx:hr>
          </gpxtpx:TrackPointExtension>
        </extensions>
      </trkpt>
      <trkpt lat="44.17353" lon="3.18623">
        <ele>743.8</ele>
        <time>2022-02-10T10:53:07Z</time>
        <extensions>
          <gpxtpx:TrackPointExtension xmlns:gpxtpx="http://www.garmin.com/xmlschemas/TrackPointExtension/v1">
            <gpxtpx:hr>142</gpxtpx:hr>
          </gpxtpx:TrackPointExtension>
        </extensions>
      </trkpt>
      <trkpt lat="44.17353" lon="3.18627">
        <ele>743.4</ele>
        <time>2022-02-10T10:53:08Z</time>
        <extensions>
          <gpxtpx:TrackPointExtension xmlns:gpxtpx="http://www.garmin.com/xmlschemas/TrackPointExtension/v1">
            <gpxtpx:hr>142</gpxtpx:hr>
          </gpxtpx:TrackPointExtension>
        </extensions>
      </trkpt>
      <trkpt lat="44.17353" lon="3.1863">
        <ele>743</ele>
        <time>2022-02-10T10:53:09Z</time>
        <extensions>
          <gpxtpx:TrackPointExtension xmlns:gpxtpx="http://www.garmin.com/xmlschemas/TrackPointExtension/v1">
            <gpxtpx:hr>142</gpxtpx:hr>
          </gpxtpx:TrackPointExtension>
        </extensions>
      </trkpt>
      <trkpt lat="44.17353" lon="3.18634">
        <ele>742.8</ele>
        <time>2022-02-10T10:53:10Z</time>
        <extensions>
          <gpxtpx:TrackPointExtension xmlns:gpxtpx="http://www.garmin.com/xmlschemas/TrackPointExtension/v1">
            <gpxtpx:hr>141</gpxtpx:hr>
          </gpxtpx:TrackPointExtension>
        </extensions>
      </trkpt>
      <trkpt lat="44.17353" lon="3.18637">
        <ele>742.4</ele>
        <time>2022-02-10T10:53:11Z</time>
        <extensions>
          <gpxtpx:TrackPointExtension xmlns:gpxtpx="http://www.garmin.com/xmlschemas/TrackPointExtension/v1">
            <gpxtpx:hr>141</gpxtpx:hr>
          </gpxtpx:TrackPointExtension>
        </extensions>
      </trkpt>
      <trkpt lat="44.17352" lon="3.18641">
        <ele>742</ele>
        <time>2022-02-10T10:53:12Z</time>
        <extensions>
          <gpxtpx:TrackPointExtension xmlns:gpxtpx="http://www.garmin.com/xmlschemas/TrackPointExtension/v1">
            <gpxtpx:hr>141</gpxtpx:hr>
          </gpxtpx:TrackPointExtension>
        </extensions>
      </trkpt>
      <trkpt lat="44.17352" lon="3.18644">
        <ele>741.6</ele>
        <time>2022-02-10T10:53:13Z</time>
        <extensions>
          <gpxtpx:TrackPointExtension xmlns:gpxtpx="http://www.garmin.com/xmlschemas/TrackPointExtension/v1">
            <gpxtpx:hr>141</gpxtpx:hr>
          </gpxtpx:TrackPointExtension>
        </extensions>
      </trkpt>
      <trkpt lat="44.17352" lon="3.18647">
        <ele>741.4</ele>
        <time>2022-02-10T10:53:14Z</time>
        <extensions>
          <gpxtpx:TrackPointExtension xmlns:gpxtpx="http://www.garmin.com/xmlschemas/TrackPointExtension/v1">
            <gpxtpx:hr>142</gpxtpx:hr>
          </gpxtpx:TrackPointExtension>
        </extensions>
      </trkpt>
      <trkpt lat="44.17352" lon="3.18651">
        <ele>741.2</ele>
        <time>2022-02-10T10:53:15Z</time>
        <extensions>
          <gpxtpx:TrackPointExtension xmlns:gpxtpx="http://www.garmin.com/xmlschemas/TrackPointExtension/v1">
            <gpxtpx:hr>142</gpxtpx:hr>
          </gpxtpx:TrackPointExtension>
        </extensions>
      </trkpt>
      <trkpt lat="44.17352" lon="3.18654">
        <ele>741</ele>
        <time>2022-02-10T10:53:16Z</time>
        <extensions>
          <gpxtpx:TrackPointExtension xmlns:gpxtpx="http://www.garmin.com/xmlschemas/TrackPointExtension/v1">
            <gpxtpx:hr>142</gpxtpx:hr>
          </gpxtpx:TrackPointExtension>
        </extensions>
      </trkpt>
      <trkpt lat="44.17351" lon="3.18657">
        <ele>741</ele>
        <time>2022-02-10T10:53:17Z</time>
        <extensions>
          <gpxtpx:TrackPointExtension xmlns:gpxtpx="http://www.garmin.com/xmlschemas/TrackPointExtension/v1">
            <gpxtpx:hr>141</gpxtpx:hr>
          </gpxtpx:TrackPointExtension>
        </extensions>
      </trkpt>
      <trkpt lat="44.17351" lon="3.18659">
        <ele>741</ele>
        <time>2022-02-10T10:53:18Z</time>
        <extensions>
          <gpxtpx:TrackPointExtension xmlns:gpxtpx="http://www.garmin.com/xmlschemas/TrackPointExtension/v1">
            <gpxtpx:hr>139</gpxtpx:hr>
          </gpxtpx:TrackPointExtension>
        </extensions>
      </trkpt>
      <trkpt lat="44.17351" lon="3.18662">
        <ele>740.8</ele>
        <time>2022-02-10T10:53:19Z</time>
        <extensions>
          <gpxtpx:TrackPointExtension xmlns:gpxtpx="http://www.garmin.com/xmlschemas/TrackPointExtension/v1">
            <gpxtpx:hr>140</gpxtpx:hr>
          </gpxtpx:TrackPointExtension>
        </extensions>
      </trkpt>
      <trkpt lat="44.1735" lon="3.18664">
        <ele>740.4</ele>
        <time>2022-02-10T10:53:20Z</time>
        <extensions>
          <gpxtpx:TrackPointExtension xmlns:gpxtpx="http://www.garmin.com/xmlschemas/TrackPointExtension/v1">
            <gpxtpx:hr>140</gpxtpx:hr>
          </gpxtpx:TrackPointExtension>
        </extensions>
      </trkpt>
      <trkpt lat="44.1735" lon="3.18667">
        <ele>740.4</ele>
        <time>2022-02-10T10:53:21Z</time>
        <extensions>
          <gpxtpx:TrackPointExtension xmlns:gpxtpx="http://www.garmin.com/xmlschemas/TrackPointExtension/v1">
            <gpxtpx:hr>142</gpxtpx:hr>
          </gpxtpx:TrackPointExtension>
        </extensions>
      </trkpt>
      <trkpt lat="44.17349" lon="3.1867">
        <ele>740.2</ele>
        <time>2022-02-10T10:53:22Z</time>
        <extensions>
          <gpxtpx:TrackPointExtension xmlns:gpxtpx="http://www.garmin.com/xmlschemas/TrackPointExtension/v1">
            <gpxtpx:hr>142</gpxtpx:hr>
          </gpxtpx:TrackPointExtension>
        </extensions>
      </trkpt>
      <trkpt lat="44.17349" lon="3.18672">
        <ele>740.2</ele>
        <time>2022-02-10T10:53:23Z</time>
        <extensions>
          <gpxtpx:TrackPointExtension xmlns:gpxtpx="http://www.garmin.com/xmlschemas/TrackPointExtension/v1">
            <gpxtpx:hr>139</gpxtpx:hr>
          </gpxtpx:TrackPointExtension>
        </extensions>
      </trkpt>
      <trkpt lat="44.17348" lon="3.18675">
        <ele>740.2</ele>
        <time>2022-02-10T10:53:24Z</time>
        <extensions>
          <gpxtpx:TrackPointExtension xmlns:gpxtpx="http://www.garmin.com/xmlschemas/TrackPointExtension/v1">
            <gpxtpx:hr>140</gpxtpx:hr>
          </gpxtpx:TrackPointExtension>
        </extensions>
      </trkpt>
      <trkpt lat="44.17347" lon="3.18678">
        <ele>740</ele>
        <time>2022-02-10T10:53:25Z</time>
        <extensions>
          <gpxtpx:TrackPointExtension xmlns:gpxtpx="http://www.garmin.com/xmlschemas/TrackPointExtension/v1">
            <gpxtpx:hr>140</gpxtpx:hr>
          </gpxtpx:TrackPointExtension>
        </extensions>
      </trkpt>
      <trkpt lat="44.17347" lon="3.18681">
        <ele>740</ele>
        <time>2022-02-10T10:53:26Z</time>
        <extensions>
          <gpxtpx:TrackPointExtension xmlns:gpxtpx="http://www.garmin.com/xmlschemas/TrackPointExtension/v1">
            <gpxtpx:hr>141</gpxtpx:hr>
          </gpxtpx:TrackPointExtension>
        </extensions>
      </trkpt>
      <trkpt lat="44.17347" lon="3.18684">
        <ele>740</ele>
        <time>2022-02-10T10:53:27Z</time>
        <extensions>
          <gpxtpx:TrackPointExtension xmlns:gpxtpx="http://www.garmin.com/xmlschemas/TrackPointExtension/v1">
            <gpxtpx:hr>141</gpxtpx:hr>
          </gpxtpx:TrackPointExtension>
        </extensions>
      </trkpt>
      <trkpt lat="44.17347" lon="3.18686">
        <ele>739.6</ele>
        <time>2022-02-10T10:53:28Z</time>
        <extensions>
          <gpxtpx:TrackPointExtension xmlns:gpxtpx="http://www.garmin.com/xmlschemas/TrackPointExtension/v1">
            <gpxtpx:hr>141</gpxtpx:hr>
          </gpxtpx:TrackPointExtension>
        </extensions>
      </trkpt>
      <trkpt lat="44.17347" lon="3.18689">
        <ele>739.6</ele>
        <time>2022-02-10T10:53:29Z</time>
        <extensions>
          <gpxtpx:TrackPointExtension xmlns:gpxtpx="http://www.garmin.com/xmlschemas/TrackPointExtension/v1">
            <gpxtpx:hr>141</gpxtpx:hr>
          </gpxtpx:TrackPointExtension>
        </extensions>
      </trkpt>
      <trkpt lat="44.17348" lon="3.18692">
        <ele>739.6</ele>
        <time>2022-02-10T10:53:30Z</time>
        <extensions>
          <gpxtpx:TrackPointExtension xmlns:gpxtpx="http://www.garmin.com/xmlschemas/TrackPointExtension/v1">
            <gpxtpx:hr>140</gpxtpx:hr>
          </gpxtpx:TrackPointExtension>
        </extensions>
      </trkpt>
      <trkpt lat="44.17348" lon="3.18695">
        <ele>739.4</ele>
        <time>2022-02-10T10:53:31Z</time>
        <extensions>
          <gpxtpx:TrackPointExtension xmlns:gpxtpx="http://www.garmin.com/xmlschemas/TrackPointExtension/v1">
            <gpxtpx:hr>140</gpxtpx:hr>
          </gpxtpx:TrackPointExtension>
        </extensions>
      </trkpt>
      <trkpt lat="44.17348" lon="3.18698">
        <ele>739.4</ele>
        <time>2022-02-10T10:53:32Z</time>
        <extensions>
          <gpxtpx:TrackPointExtension xmlns:gpxtpx="http://www.garmin.com/xmlschemas/TrackPointExtension/v1">
            <gpxtpx:hr>140</gpxtpx:hr>
          </gpxtpx:TrackPointExtension>
        </extensions>
      </trkpt>
      <trkpt lat="44.17348" lon="3.18701">
        <ele>739.4</ele>
        <time>2022-02-10T10:53:33Z</time>
        <extensions>
          <gpxtpx:TrackPointExtension xmlns:gpxtpx="http://www.garmin.com/xmlschemas/TrackPointExtension/v1">
            <gpxtpx:hr>142</gpxtpx:hr>
          </gpxtpx:TrackPointExtension>
        </extensions>
      </trkpt>
      <trkpt lat="44.17348" lon="3.18704">
        <ele>739</ele>
        <time>2022-02-10T10:53:34Z</time>
        <extensions>
          <gpxtpx:TrackPointExtension xmlns:gpxtpx="http://www.garmin.com/xmlschemas/TrackPointExtension/v1">
            <gpxtpx:hr>141</gpxtpx:hr>
          </gpxtpx:TrackPointExtension>
        </extensions>
      </trkpt>
      <trkpt lat="44.17349" lon="3.18707">
        <ele>739</ele>
        <time>2022-02-10T10:53:35Z</time>
        <extensions>
          <gpxtpx:TrackPointExtension xmlns:gpxtpx="http://www.garmin.com/xmlschemas/TrackPointExtension/v1">
            <gpxtpx:hr>142</gpxtpx:hr>
          </gpxtpx:TrackPointExtension>
        </extensions>
      </trkpt>
      <trkpt lat="44.17349" lon="3.1871">
        <ele>738.8</ele>
        <time>2022-02-10T10:53:36Z</time>
        <extensions>
          <gpxtpx:TrackPointExtension xmlns:gpxtpx="http://www.garmin.com/xmlschemas/TrackPointExtension/v1">
            <gpxtpx:hr>141</gpxtpx:hr>
          </gpxtpx:TrackPointExtension>
        </extensions>
      </trkpt>
      <trkpt lat="44.17349" lon="3.18712">
        <ele>738.8</ele>
        <time>2022-02-10T10:53:37Z</time>
        <extensions>
          <gpxtpx:TrackPointExtension xmlns:gpxtpx="http://www.garmin.com/xmlschemas/TrackPointExtension/v1">
            <gpxtpx:hr>141</gpxtpx:hr>
          </gpxtpx:TrackPointExtension>
        </extensions>
      </trkpt>
      <trkpt lat="44.1735" lon="3.18714">
        <ele>738.4</ele>
        <time>2022-02-10T10:53:38Z</time>
        <extensions>
          <gpxtpx:TrackPointExtension xmlns:gpxtpx="http://www.garmin.com/xmlschemas/TrackPointExtension/v1">
            <gpxtpx:hr>142</gpxtpx:hr>
          </gpxtpx:TrackPointExtension>
        </extensions>
      </trkpt>
      <trkpt lat="44.1735" lon="3.18717">
        <ele>738.4</ele>
        <time>2022-02-10T10:53:39Z</time>
        <extensions>
          <gpxtpx:TrackPointExtension xmlns:gpxtpx="http://www.garmin.com/xmlschemas/TrackPointExtension/v1">
            <gpxtpx:hr>142</gpxtpx:hr>
          </gpxtpx:TrackPointExtension>
        </extensions>
      </trkpt>
      <trkpt lat="44.17351" lon="3.18719">
        <ele>738.2</ele>
        <time>2022-02-10T10:53:40Z</time>
        <extensions>
          <gpxtpx:TrackPointExtension xmlns:gpxtpx="http://www.garmin.com/xmlschemas/TrackPointExtension/v1">
            <gpxtpx:hr>142</gpxtpx:hr>
          </gpxtpx:TrackPointExtension>
        </extensions>
      </trkpt>
      <trkpt lat="44.17351" lon="3.18721">
        <ele>738</ele>
        <time>2022-02-10T10:53:41Z</time>
        <extensions>
          <gpxtpx:TrackPointExtension xmlns:gpxtpx="http://www.garmin.com/xmlschemas/TrackPointExtension/v1">
            <gpxtpx:hr>143</gpxtpx:hr>
          </gpxtpx:TrackPointExtension>
        </extensions>
      </trkpt>
      <trkpt lat="44.17353" lon="3.18724">
        <ele>738</ele>
        <time>2022-02-10T10:53:42Z</time>
        <extensions>
          <gpxtpx:TrackPointExtension xmlns:gpxtpx="http://www.garmin.com/xmlschemas/TrackPointExtension/v1">
            <gpxtpx:hr>143</gpxtpx:hr>
          </gpxtpx:TrackPointExtension>
        </extensions>
      </trkpt>
      <trkpt lat="44.17354" lon="3.18726">
        <ele>737.6</ele>
        <time>2022-02-10T10:53:43Z</time>
        <extensions>
          <gpxtpx:TrackPointExtension xmlns:gpxtpx="http://www.garmin.com/xmlschemas/TrackPointExtension/v1">
            <gpxtpx:hr>143</gpxtpx:hr>
          </gpxtpx:TrackPointExtension>
        </extensions>
      </trkpt>
      <trkpt lat="44.17356" lon="3.18728">
        <ele>737.6</ele>
        <time>2022-02-10T10:53:44Z</time>
        <extensions>
          <gpxtpx:TrackPointExtension xmlns:gpxtpx="http://www.garmin.com/xmlschemas/TrackPointExtension/v1">
            <gpxtpx:hr>143</gpxtpx:hr>
          </gpxtpx:TrackPointExtension>
        </extensions>
      </trkpt>
      <trkpt lat="44.17357" lon="3.1873">
        <ele>737.6</ele>
        <time>2022-02-10T10:53:45Z</time>
        <extensions>
          <gpxtpx:TrackPointExtension xmlns:gpxtpx="http://www.garmin.com/xmlschemas/TrackPointExtension/v1">
            <gpxtpx:hr>142</gpxtpx:hr>
          </gpxtpx:TrackPointExtension>
        </extensions>
      </trkpt>
      <trkpt lat="44.17359" lon="3.18732">
        <ele>737.4</ele>
        <time>2022-02-10T10:53:46Z</time>
        <extensions>
          <gpxtpx:TrackPointExtension xmlns:gpxtpx="http://www.garmin.com/xmlschemas/TrackPointExtension/v1">
            <gpxtpx:hr>143</gpxtpx:hr>
          </gpxtpx:TrackPointExtension>
        </extensions>
      </trkpt>
      <trkpt lat="44.1736" lon="3.18735">
        <ele>737.4</ele>
        <time>2022-02-10T10:53:47Z</time>
        <extensions>
          <gpxtpx:TrackPointExtension xmlns:gpxtpx="http://www.garmin.com/xmlschemas/TrackPointExtension/v1">
            <gpxtpx:hr>145</gpxtpx:hr>
          </gpxtpx:TrackPointExtension>
        </extensions>
      </trkpt>
      <trkpt lat="44.17362" lon="3.18738">
        <ele>737.4</ele>
        <time>2022-02-10T10:53:48Z</time>
        <extensions>
          <gpxtpx:TrackPointExtension xmlns:gpxtpx="http://www.garmin.com/xmlschemas/TrackPointExtension/v1">
            <gpxtpx:hr>144</gpxtpx:hr>
          </gpxtpx:TrackPointExtension>
        </extensions>
      </trkpt>
      <trkpt lat="44.17364" lon="3.1874">
        <ele>737.2</ele>
        <time>2022-02-10T10:53:49Z</time>
        <extensions>
          <gpxtpx:TrackPointExtension xmlns:gpxtpx="http://www.garmin.com/xmlschemas/TrackPointExtension/v1">
            <gpxtpx:hr>143</gpxtpx:hr>
          </gpxtpx:TrackPointExtension>
        </extensions>
      </trkpt>
      <trkpt lat="44.17365" lon="3.18743">
        <ele>737.2</ele>
        <time>2022-02-10T10:53:50Z</time>
        <extensions>
          <gpxtpx:TrackPointExtension xmlns:gpxtpx="http://www.garmin.com/xmlschemas/TrackPointExtension/v1">
            <gpxtpx:hr>144</gpxtpx:hr>
          </gpxtpx:TrackPointExtension>
        </extensions>
      </trkpt>
      <trkpt lat="44.17366" lon="3.18744">
        <ele>737.2</ele>
        <time>2022-02-10T10:53:51Z</time>
        <extensions>
          <gpxtpx:TrackPointExtension xmlns:gpxtpx="http://www.garmin.com/xmlschemas/TrackPointExtension/v1">
            <gpxtpx:hr>143</gpxtpx:hr>
          </gpxtpx:TrackPointExtension>
        </extensions>
      </trkpt>
      <trkpt lat="44.17368" lon="3.18746">
        <ele>737.2</ele>
        <time>2022-02-10T10:53:52Z</time>
        <extensions>
          <gpxtpx:TrackPointExtension xmlns:gpxtpx="http://www.garmin.com/xmlschemas/TrackPointExtension/v1">
            <gpxtpx:hr>144</gpxtpx:hr>
          </gpxtpx:TrackPointExtension>
        </extensions>
      </trkpt>
      <trkpt lat="44.17369" lon="3.18748">
        <ele>736.8</ele>
        <time>2022-02-10T10:53:53Z</time>
        <extensions>
          <gpxtpx:TrackPointExtension xmlns:gpxtpx="http://www.garmin.com/xmlschemas/TrackPointExtension/v1">
            <gpxtpx:hr>145</gpxtpx:hr>
          </gpxtpx:TrackPointExtension>
        </extensions>
      </trkpt>
      <trkpt lat="44.17375" lon="3.18754">
        <ele>736.8</ele>
        <time>2022-02-10T10:53:54Z</time>
        <extensions>
          <gpxtpx:TrackPointExtension xmlns:gpxtpx="http://www.garmin.com/xmlschemas/TrackPointExtension/v1">
            <gpxtpx:hr>143</gpxtpx:hr>
          </gpxtpx:TrackPointExtension>
        </extensions>
      </trkpt>
      <trkpt lat="44.17377" lon="3.18756">
        <ele>736.8</ele>
        <time>2022-02-10T10:53:55Z</time>
        <extensions>
          <gpxtpx:TrackPointExtension xmlns:gpxtpx="http://www.garmin.com/xmlschemas/TrackPointExtension/v1">
            <gpxtpx:hr>143</gpxtpx:hr>
          </gpxtpx:TrackPointExtension>
        </extensions>
      </trkpt>
      <trkpt lat="44.1738" lon="3.18758">
        <ele>736.6</ele>
        <time>2022-02-10T10:53:56Z</time>
        <extensions>
          <gpxtpx:TrackPointExtension xmlns:gpxtpx="http://www.garmin.com/xmlschemas/TrackPointExtension/v1">
            <gpxtpx:hr>142</gpxtpx:hr>
          </gpxtpx:TrackPointExtension>
        </extensions>
      </trkpt>
      <trkpt lat="44.17382" lon="3.1876">
        <ele>736.6</ele>
        <time>2022-02-10T10:53:57Z</time>
        <extensions>
          <gpxtpx:TrackPointExtension xmlns:gpxtpx="http://www.garmin.com/xmlschemas/TrackPointExtension/v1">
            <gpxtpx:hr>142</gpxtpx:hr>
          </gpxtpx:TrackPointExtension>
        </extensions>
      </trkpt>
      <trkpt lat="44.17384" lon="3.1876">
        <ele>736.4</ele>
        <time>2022-02-10T10:53:58Z</time>
        <extensions>
          <gpxtpx:TrackPointExtension xmlns:gpxtpx="http://www.garmin.com/xmlschemas/TrackPointExtension/v1">
            <gpxtpx:hr>141</gpxtpx:hr>
          </gpxtpx:TrackPointExtension>
        </extensions>
      </trkpt>
      <trkpt lat="44.17385" lon="3.18761">
        <ele>736.4</ele>
        <time>2022-02-10T10:53:59Z</time>
        <extensions>
          <gpxtpx:TrackPointExtension xmlns:gpxtpx="http://www.garmin.com/xmlschemas/TrackPointExtension/v1">
            <gpxtpx:hr>141</gpxtpx:hr>
          </gpxtpx:TrackPointExtension>
        </extensions>
      </trkpt>
      <trkpt lat="44.17387" lon="3.18762">
        <ele>736</ele>
        <time>2022-02-10T10:54:00Z</time>
        <extensions>
          <gpxtpx:TrackPointExtension xmlns:gpxtpx="http://www.garmin.com/xmlschemas/TrackPointExtension/v1">
            <gpxtpx:hr>141</gpxtpx:hr>
          </gpxtpx:TrackPointExtension>
        </extensions>
      </trkpt>
      <trkpt lat="44.17389" lon="3.18762">
        <ele>736</ele>
        <time>2022-02-10T10:54:01Z</time>
        <extensions>
          <gpxtpx:TrackPointExtension xmlns:gpxtpx="http://www.garmin.com/xmlschemas/TrackPointExtension/v1">
            <gpxtpx:hr>141</gpxtpx:hr>
          </gpxtpx:TrackPointExtension>
        </extensions>
      </trkpt>
      <trkpt lat="44.17391" lon="3.18763">
        <ele>736</ele>
        <time>2022-02-10T10:54:02Z</time>
        <extensions>
          <gpxtpx:TrackPointExtension xmlns:gpxtpx="http://www.garmin.com/xmlschemas/TrackPointExtension/v1">
            <gpxtpx:hr>142</gpxtpx:hr>
          </gpxtpx:TrackPointExtension>
        </extensions>
      </trkpt>
      <trkpt lat="44.17393" lon="3.18762">
        <ele>736</ele>
        <time>2022-02-10T10:54:03Z</time>
        <extensions>
          <gpxtpx:TrackPointExtension xmlns:gpxtpx="http://www.garmin.com/xmlschemas/TrackPointExtension/v1">
            <gpxtpx:hr>140</gpxtpx:hr>
          </gpxtpx:TrackPointExtension>
        </extensions>
      </trkpt>
      <trkpt lat="44.17394" lon="3.18761">
        <ele>735.8</ele>
        <time>2022-02-10T10:54:04Z</time>
        <extensions>
          <gpxtpx:TrackPointExtension xmlns:gpxtpx="http://www.garmin.com/xmlschemas/TrackPointExtension/v1">
            <gpxtpx:hr>141</gpxtpx:hr>
          </gpxtpx:TrackPointExtension>
        </extensions>
      </trkpt>
      <trkpt lat="44.17396" lon="3.1876">
        <ele>735.8</ele>
        <time>2022-02-10T10:54:05Z</time>
        <extensions>
          <gpxtpx:TrackPointExtension xmlns:gpxtpx="http://www.garmin.com/xmlschemas/TrackPointExtension/v1">
            <gpxtpx:hr>140</gpxtpx:hr>
          </gpxtpx:TrackPointExtension>
        </extensions>
      </trkpt>
      <trkpt lat="44.17398" lon="3.18759">
        <ele>735.6</ele>
        <time>2022-02-10T10:54:06Z</time>
        <extensions>
          <gpxtpx:TrackPointExtension xmlns:gpxtpx="http://www.garmin.com/xmlschemas/TrackPointExtension/v1">
            <gpxtpx:hr>140</gpxtpx:hr>
          </gpxtpx:TrackPointExtension>
        </extensions>
      </trkpt>
      <trkpt lat="44.174" lon="3.18758">
        <ele>735.6</ele>
        <time>2022-02-10T10:54:07Z</time>
        <extensions>
          <gpxtpx:TrackPointExtension xmlns:gpxtpx="http://www.garmin.com/xmlschemas/TrackPointExtension/v1">
            <gpxtpx:hr>140</gpxtpx:hr>
          </gpxtpx:TrackPointExtension>
        </extensions>
      </trkpt>
      <trkpt lat="44.17401" lon="3.18757">
        <ele>735.6</ele>
        <time>2022-02-10T10:54:08Z</time>
        <extensions>
          <gpxtpx:TrackPointExtension xmlns:gpxtpx="http://www.garmin.com/xmlschemas/TrackPointExtension/v1">
            <gpxtpx:hr>138</gpxtpx:hr>
          </gpxtpx:TrackPointExtension>
        </extensions>
      </trkpt>
      <trkpt lat="44.17403" lon="3.18755">
        <ele>735.4</ele>
        <time>2022-02-10T10:54:09Z</time>
        <extensions>
          <gpxtpx:TrackPointExtension xmlns:gpxtpx="http://www.garmin.com/xmlschemas/TrackPointExtension/v1">
            <gpxtpx:hr>138</gpxtpx:hr>
          </gpxtpx:TrackPointExtension>
        </extensions>
      </trkpt>
      <trkpt lat="44.17405" lon="3.18754">
        <ele>735.4</ele>
        <time>2022-02-10T10:54:10Z</time>
        <extensions>
          <gpxtpx:TrackPointExtension xmlns:gpxtpx="http://www.garmin.com/xmlschemas/TrackPointExtension/v1">
            <gpxtpx:hr>138</gpxtpx:hr>
          </gpxtpx:TrackPointExtension>
        </extensions>
      </trkpt>
      <trkpt lat="44.17406" lon="3.18753">
        <ele>735.4</ele>
        <time>2022-02-10T10:54:11Z</time>
        <extensions>
          <gpxtpx:TrackPointExtension xmlns:gpxtpx="http://www.garmin.com/xmlschemas/TrackPointExtension/v1">
            <gpxtpx:hr>137</gpxtpx:hr>
          </gpxtpx:TrackPointExtension>
        </extensions>
      </trkpt>
      <trkpt lat="44.17408" lon="3.18751">
        <ele>735.2</ele>
        <time>2022-02-10T10:54:12Z</time>
        <extensions>
          <gpxtpx:TrackPointExtension xmlns:gpxtpx="http://www.garmin.com/xmlschemas/TrackPointExtension/v1">
            <gpxtpx:hr>136</gpxtpx:hr>
          </gpxtpx:TrackPointExtension>
        </extensions>
      </trkpt>
      <trkpt lat="44.1741" lon="3.1875">
        <ele>735.2</ele>
        <time>2022-02-10T10:54:13Z</time>
        <extensions>
          <gpxtpx:TrackPointExtension xmlns:gpxtpx="http://www.garmin.com/xmlschemas/TrackPointExtension/v1">
            <gpxtpx:hr>136</gpxtpx:hr>
          </gpxtpx:TrackPointExtension>
        </extensions>
      </trkpt>
      <trkpt lat="44.17412" lon="3.18749">
        <ele>735.2</ele>
        <time>2022-02-10T10:54:14Z</time>
        <extensions>
          <gpxtpx:TrackPointExtension xmlns:gpxtpx="http://www.garmin.com/xmlschemas/TrackPointExtension/v1">
            <gpxtpx:hr>136</gpxtpx:hr>
          </gpxtpx:TrackPointExtension>
        </extensions>
      </trkpt>
      <trkpt lat="44.17414" lon="3.18747">
        <ele>735.2</ele>
        <time>2022-02-10T10:54:15Z</time>
        <extensions>
          <gpxtpx:TrackPointExtension xmlns:gpxtpx="http://www.garmin.com/xmlschemas/TrackPointExtension/v1">
            <gpxtpx:hr>135</gpxtpx:hr>
          </gpxtpx:TrackPointExtension>
        </extensions>
      </trkpt>
      <trkpt lat="44.17416" lon="3.18746">
        <ele>735</ele>
        <time>2022-02-10T10:54:16Z</time>
        <extensions>
          <gpxtpx:TrackPointExtension xmlns:gpxtpx="http://www.garmin.com/xmlschemas/TrackPointExtension/v1">
            <gpxtpx:hr>134</gpxtpx:hr>
          </gpxtpx:TrackPointExtension>
        </extensions>
      </trkpt>
      <trkpt lat="44.17418" lon="3.18745">
        <ele>735</ele>
        <time>2022-02-10T10:54:17Z</time>
        <extensions>
          <gpxtpx:TrackPointExtension xmlns:gpxtpx="http://www.garmin.com/xmlschemas/TrackPointExtension/v1">
            <gpxtpx:hr>135</gpxtpx:hr>
          </gpxtpx:TrackPointExtension>
        </extensions>
      </trkpt>
      <trkpt lat="44.1742" lon="3.18744">
        <ele>734.8</ele>
        <time>2022-02-10T10:54:18Z</time>
        <extensions>
          <gpxtpx:TrackPointExtension xmlns:gpxtpx="http://www.garmin.com/xmlschemas/TrackPointExtension/v1">
            <gpxtpx:hr>136</gpxtpx:hr>
          </gpxtpx:TrackPointExtension>
        </extensions>
      </trkpt>
      <trkpt lat="44.17422" lon="3.18744">
        <ele>734.8</ele>
        <time>2022-02-10T10:54:19Z</time>
        <extensions>
          <gpxtpx:TrackPointExtension xmlns:gpxtpx="http://www.garmin.com/xmlschemas/TrackPointExtension/v1">
            <gpxtpx:hr>137</gpxtpx:hr>
          </gpxtpx:TrackPointExtension>
        </extensions>
      </trkpt>
      <trkpt lat="44.17424" lon="3.18743">
        <ele>734.8</ele>
        <time>2022-02-10T10:54:20Z</time>
        <extensions>
          <gpxtpx:TrackPointExtension xmlns:gpxtpx="http://www.garmin.com/xmlschemas/TrackPointExtension/v1">
            <gpxtpx:hr>136</gpxtpx:hr>
          </gpxtpx:TrackPointExtension>
        </extensions>
      </trkpt>
      <trkpt lat="44.17426" lon="3.18742">
        <ele>734.4</ele>
        <time>2022-02-10T10:54:21Z</time>
        <extensions>
          <gpxtpx:TrackPointExtension xmlns:gpxtpx="http://www.garmin.com/xmlschemas/TrackPointExtension/v1">
            <gpxtpx:hr>134</gpxtpx:hr>
          </gpxtpx:TrackPointExtension>
        </extensions>
      </trkpt>
      <trkpt lat="44.17429" lon="3.18742">
        <ele>734.4</ele>
        <time>2022-02-10T10:54:22Z</time>
        <extensions>
          <gpxtpx:TrackPointExtension xmlns:gpxtpx="http://www.garmin.com/xmlschemas/TrackPointExtension/v1">
            <gpxtpx:hr>135</gpxtpx:hr>
          </gpxtpx:TrackPointExtension>
        </extensions>
      </trkpt>
      <trkpt lat="44.17431" lon="3.18741">
        <ele>734.2</ele>
        <time>2022-02-10T10:54:23Z</time>
        <extensions>
          <gpxtpx:TrackPointExtension xmlns:gpxtpx="http://www.garmin.com/xmlschemas/TrackPointExtension/v1">
            <gpxtpx:hr>137</gpxtpx:hr>
          </gpxtpx:TrackPointExtension>
        </extensions>
      </trkpt>
      <trkpt lat="44.17434" lon="3.1874">
        <ele>734.2</ele>
        <time>2022-02-10T10:54:24Z</time>
        <extensions>
          <gpxtpx:TrackPointExtension xmlns:gpxtpx="http://www.garmin.com/xmlschemas/TrackPointExtension/v1">
            <gpxtpx:hr>138</gpxtpx:hr>
          </gpxtpx:TrackPointExtension>
        </extensions>
      </trkpt>
      <trkpt lat="44.17437" lon="3.18739">
        <ele>734</ele>
        <time>2022-02-10T10:54:25Z</time>
        <extensions>
          <gpxtpx:TrackPointExtension xmlns:gpxtpx="http://www.garmin.com/xmlschemas/TrackPointExtension/v1">
            <gpxtpx:hr>140</gpxtpx:hr>
          </gpxtpx:TrackPointExtension>
        </extensions>
      </trkpt>
      <trkpt lat="44.17439" lon="3.18739">
        <ele>733.8</ele>
        <time>2022-02-10T10:54:26Z</time>
        <extensions>
          <gpxtpx:TrackPointExtension xmlns:gpxtpx="http://www.garmin.com/xmlschemas/TrackPointExtension/v1">
            <gpxtpx:hr>141</gpxtpx:hr>
          </gpxtpx:TrackPointExtension>
        </extensions>
      </trkpt>
      <trkpt lat="44.1744" lon="3.1874">
        <ele>733.6</ele>
        <time>2022-02-10T10:54:27Z</time>
        <extensions>
          <gpxtpx:TrackPointExtension xmlns:gpxtpx="http://www.garmin.com/xmlschemas/TrackPointExtension/v1">
            <gpxtpx:hr>141</gpxtpx:hr>
          </gpxtpx:TrackPointExtension>
        </extensions>
      </trkpt>
      <trkpt lat="44.17442" lon="3.18741">
        <ele>733.2</ele>
        <time>2022-02-10T10:54:28Z</time>
        <extensions>
          <gpxtpx:TrackPointExtension xmlns:gpxtpx="http://www.garmin.com/xmlschemas/TrackPointExtension/v1">
            <gpxtpx:hr>137</gpxtpx:hr>
          </gpxtpx:TrackPointExtension>
        </extensions>
      </trkpt>
      <trkpt lat="44.17444" lon="3.18741">
        <ele>732.8</ele>
        <time>2022-02-10T10:54:29Z</time>
        <extensions>
          <gpxtpx:TrackPointExtension xmlns:gpxtpx="http://www.garmin.com/xmlschemas/TrackPointExtension/v1">
            <gpxtpx:hr>137</gpxtpx:hr>
          </gpxtpx:TrackPointExtension>
        </extensions>
      </trkpt>
      <trkpt lat="44.17446" lon="3.18742">
        <ele>732.6</ele>
        <time>2022-02-10T10:54:30Z</time>
        <extensions>
          <gpxtpx:TrackPointExtension xmlns:gpxtpx="http://www.garmin.com/xmlschemas/TrackPointExtension/v1">
            <gpxtpx:hr>137</gpxtpx:hr>
          </gpxtpx:TrackPointExtension>
        </extensions>
      </trkpt>
      <trkpt lat="44.17448" lon="3.18743">
        <ele>732.2</ele>
        <time>2022-02-10T10:54:31Z</time>
        <extensions>
          <gpxtpx:TrackPointExtension xmlns:gpxtpx="http://www.garmin.com/xmlschemas/TrackPointExtension/v1">
            <gpxtpx:hr>139</gpxtpx:hr>
          </gpxtpx:TrackPointExtension>
        </extensions>
      </trkpt>
      <trkpt lat="44.1745" lon="3.18743">
        <ele>731.8</ele>
        <time>2022-02-10T10:54:32Z</time>
        <extensions>
          <gpxtpx:TrackPointExtension xmlns:gpxtpx="http://www.garmin.com/xmlschemas/TrackPointExtension/v1">
            <gpxtpx:hr>139</gpxtpx:hr>
          </gpxtpx:TrackPointExtension>
        </extensions>
      </trkpt>
      <trkpt lat="44.17452" lon="3.18743">
        <ele>731.4</ele>
        <time>2022-02-10T10:54:33Z</time>
        <extensions>
          <gpxtpx:TrackPointExtension xmlns:gpxtpx="http://www.garmin.com/xmlschemas/TrackPointExtension/v1">
            <gpxtpx:hr>141</gpxtpx:hr>
          </gpxtpx:TrackPointExtension>
        </extensions>
      </trkpt>
      <trkpt lat="44.17454" lon="3.18744">
        <ele>731.2</ele>
        <time>2022-02-10T10:54:34Z</time>
        <extensions>
          <gpxtpx:TrackPointExtension xmlns:gpxtpx="http://www.garmin.com/xmlschemas/TrackPointExtension/v1">
            <gpxtpx:hr>141</gpxtpx:hr>
          </gpxtpx:TrackPointExtension>
        </extensions>
      </trkpt>
      <trkpt lat="44.17456" lon="3.18744">
        <ele>731</ele>
        <time>2022-02-10T10:54:35Z</time>
        <extensions>
          <gpxtpx:TrackPointExtension xmlns:gpxtpx="http://www.garmin.com/xmlschemas/TrackPointExtension/v1">
            <gpxtpx:hr>141</gpxtpx:hr>
          </gpxtpx:TrackPointExtension>
        </extensions>
      </trkpt>
      <trkpt lat="44.1746" lon="3.18744">
        <ele>731</ele>
        <time>2022-02-10T10:54:36Z</time>
        <extensions>
          <gpxtpx:TrackPointExtension xmlns:gpxtpx="http://www.garmin.com/xmlschemas/TrackPointExtension/v1">
            <gpxtpx:hr>141</gpxtpx:hr>
          </gpxtpx:TrackPointExtension>
        </extensions>
      </trkpt>
      <trkpt lat="44.17463" lon="3.18745">
        <ele>730.6</ele>
        <time>2022-02-10T10:54:37Z</time>
        <extensions>
          <gpxtpx:TrackPointExtension xmlns:gpxtpx="http://www.garmin.com/xmlschemas/TrackPointExtension/v1">
            <gpxtpx:hr>141</gpxtpx:hr>
          </gpxtpx:TrackPointExtension>
        </extensions>
      </trkpt>
      <trkpt lat="44.17466" lon="3.18745">
        <ele>730.6</ele>
        <time>2022-02-10T10:54:38Z</time>
        <extensions>
          <gpxtpx:TrackPointExtension xmlns:gpxtpx="http://www.garmin.com/xmlschemas/TrackPointExtension/v1">
            <gpxtpx:hr>141</gpxtpx:hr>
          </gpxtpx:TrackPointExtension>
        </extensions>
      </trkpt>
      <trkpt lat="44.17468" lon="3.18745">
        <ele>730.2</ele>
        <time>2022-02-10T10:54:39Z</time>
        <extensions>
          <gpxtpx:TrackPointExtension xmlns:gpxtpx="http://www.garmin.com/xmlschemas/TrackPointExtension/v1">
            <gpxtpx:hr>141</gpxtpx:hr>
          </gpxtpx:TrackPointExtension>
        </extensions>
      </trkpt>
      <trkpt lat="44.17469" lon="3.18745">
        <ele>730</ele>
        <time>2022-02-10T10:54:40Z</time>
        <extensions>
          <gpxtpx:TrackPointExtension xmlns:gpxtpx="http://www.garmin.com/xmlschemas/TrackPointExtension/v1">
            <gpxtpx:hr>143</gpxtpx:hr>
          </gpxtpx:TrackPointExtension>
        </extensions>
      </trkpt>
      <trkpt lat="44.1747" lon="3.18745">
        <ele>730</ele>
        <time>2022-02-10T10:54:41Z</time>
        <extensions>
          <gpxtpx:TrackPointExtension xmlns:gpxtpx="http://www.garmin.com/xmlschemas/TrackPointExtension/v1">
            <gpxtpx:hr>141</gpxtpx:hr>
          </gpxtpx:TrackPointExtension>
        </extensions>
      </trkpt>
      <trkpt lat="44.17472" lon="3.18746">
        <ele>729.8</ele>
        <time>2022-02-10T10:54:42Z</time>
        <extensions>
          <gpxtpx:TrackPointExtension xmlns:gpxtpx="http://www.garmin.com/xmlschemas/TrackPointExtension/v1">
            <gpxtpx:hr>141</gpxtpx:hr>
          </gpxtpx:TrackPointExtension>
        </extensions>
      </trkpt>
      <trkpt lat="44.17479" lon="3.18746">
        <ele>729.8</ele>
        <time>2022-02-10T10:54:43Z</time>
        <extensions>
          <gpxtpx:TrackPointExtension xmlns:gpxtpx="http://www.garmin.com/xmlschemas/TrackPointExtension/v1">
            <gpxtpx:hr>140</gpxtpx:hr>
          </gpxtpx:TrackPointExtension>
        </extensions>
      </trkpt>
      <trkpt lat="44.1748" lon="3.18745">
        <ele>729.4</ele>
        <time>2022-02-10T10:54:44Z</time>
        <extensions>
          <gpxtpx:TrackPointExtension xmlns:gpxtpx="http://www.garmin.com/xmlschemas/TrackPointExtension/v1">
            <gpxtpx:hr>141</gpxtpx:hr>
          </gpxtpx:TrackPointExtension>
        </extensions>
      </trkpt>
      <trkpt lat="44.17481" lon="3.18745">
        <ele>729.4</ele>
        <time>2022-02-10T10:54:45Z</time>
        <extensions>
          <gpxtpx:TrackPointExtension xmlns:gpxtpx="http://www.garmin.com/xmlschemas/TrackPointExtension/v1">
            <gpxtpx:hr>140</gpxtpx:hr>
          </gpxtpx:TrackPointExtension>
        </extensions>
      </trkpt>
      <trkpt lat="44.17483" lon="3.18745">
        <ele>729</ele>
        <time>2022-02-10T10:54:46Z</time>
        <extensions>
          <gpxtpx:TrackPointExtension xmlns:gpxtpx="http://www.garmin.com/xmlschemas/TrackPointExtension/v1">
            <gpxtpx:hr>140</gpxtpx:hr>
          </gpxtpx:TrackPointExtension>
        </extensions>
      </trkpt>
      <trkpt lat="44.17489" lon="3.18743">
        <ele>728.8</ele>
        <time>2022-02-10T10:54:47Z</time>
        <extensions>
          <gpxtpx:TrackPointExtension xmlns:gpxtpx="http://www.garmin.com/xmlschemas/TrackPointExtension/v1">
            <gpxtpx:hr>139</gpxtpx:hr>
          </gpxtpx:TrackPointExtension>
        </extensions>
      </trkpt>
      <trkpt lat="44.17491" lon="3.18743">
        <ele>728.6</ele>
        <time>2022-02-10T10:54:48Z</time>
        <extensions>
          <gpxtpx:TrackPointExtension xmlns:gpxtpx="http://www.garmin.com/xmlschemas/TrackPointExtension/v1">
            <gpxtpx:hr>139</gpxtpx:hr>
          </gpxtpx:TrackPointExtension>
        </extensions>
      </trkpt>
      <trkpt lat="44.17492" lon="3.18743">
        <ele>728.6</ele>
        <time>2022-02-10T10:54:49Z</time>
        <extensions>
          <gpxtpx:TrackPointExtension xmlns:gpxtpx="http://www.garmin.com/xmlschemas/TrackPointExtension/v1">
            <gpxtpx:hr>140</gpxtpx:hr>
          </gpxtpx:TrackPointExtension>
        </extensions>
      </trkpt>
      <trkpt lat="44.17493" lon="3.18742">
        <ele>728.2</ele>
        <time>2022-02-10T10:54:50Z</time>
        <extensions>
          <gpxtpx:TrackPointExtension xmlns:gpxtpx="http://www.garmin.com/xmlschemas/TrackPointExtension/v1">
            <gpxtpx:hr>140</gpxtpx:hr>
          </gpxtpx:TrackPointExtension>
        </extensions>
      </trkpt>
      <trkpt lat="44.17501" lon="3.18741">
        <ele>728.2</ele>
        <time>2022-02-10T10:54:51Z</time>
        <extensions>
          <gpxtpx:TrackPointExtension xmlns:gpxtpx="http://www.garmin.com/xmlschemas/TrackPointExtension/v1">
            <gpxtpx:hr>141</gpxtpx:hr>
          </gpxtpx:TrackPointExtension>
        </extensions>
      </trkpt>
      <trkpt lat="44.17504" lon="3.18741">
        <ele>728</ele>
        <time>2022-02-10T10:54:52Z</time>
        <extensions>
          <gpxtpx:TrackPointExtension xmlns:gpxtpx="http://www.garmin.com/xmlschemas/TrackPointExtension/v1">
            <gpxtpx:hr>141</gpxtpx:hr>
          </gpxtpx:TrackPointExtension>
        </extensions>
      </trkpt>
      <trkpt lat="44.17506" lon="3.1874">
        <ele>728</ele>
        <time>2022-02-10T10:54:53Z</time>
        <extensions>
          <gpxtpx:TrackPointExtension xmlns:gpxtpx="http://www.garmin.com/xmlschemas/TrackPointExtension/v1">
            <gpxtpx:hr>143</gpxtpx:hr>
          </gpxtpx:TrackPointExtension>
        </extensions>
      </trkpt>
      <trkpt lat="44.17508" lon="3.1874">
        <ele>727.6</ele>
        <time>2022-02-10T10:54:54Z</time>
        <extensions>
          <gpxtpx:TrackPointExtension xmlns:gpxtpx="http://www.garmin.com/xmlschemas/TrackPointExtension/v1">
            <gpxtpx:hr>145</gpxtpx:hr>
          </gpxtpx:TrackPointExtension>
        </extensions>
      </trkpt>
      <trkpt lat="44.1751" lon="3.1874">
        <ele>727.6</ele>
        <time>2022-02-10T10:54:55Z</time>
        <extensions>
          <gpxtpx:TrackPointExtension xmlns:gpxtpx="http://www.garmin.com/xmlschemas/TrackPointExtension/v1">
            <gpxtpx:hr>145</gpxtpx:hr>
          </gpxtpx:TrackPointExtension>
        </extensions>
      </trkpt>
      <trkpt lat="44.17512" lon="3.18741">
        <ele>727.2</ele>
        <time>2022-02-10T10:54:56Z</time>
        <extensions>
          <gpxtpx:TrackPointExtension xmlns:gpxtpx="http://www.garmin.com/xmlschemas/TrackPointExtension/v1">
            <gpxtpx:hr>147</gpxtpx:hr>
          </gpxtpx:TrackPointExtension>
        </extensions>
      </trkpt>
      <trkpt lat="44.17514" lon="3.18741">
        <ele>727.2</ele>
        <time>2022-02-10T10:54:57Z</time>
        <extensions>
          <gpxtpx:TrackPointExtension xmlns:gpxtpx="http://www.garmin.com/xmlschemas/TrackPointExtension/v1">
            <gpxtpx:hr>149</gpxtpx:hr>
          </gpxtpx:TrackPointExtension>
        </extensions>
      </trkpt>
      <trkpt lat="44.17516" lon="3.18741">
        <ele>727</ele>
        <time>2022-02-10T10:54:58Z</time>
        <extensions>
          <gpxtpx:TrackPointExtension xmlns:gpxtpx="http://www.garmin.com/xmlschemas/TrackPointExtension/v1">
            <gpxtpx:hr>151</gpxtpx:hr>
          </gpxtpx:TrackPointExtension>
        </extensions>
      </trkpt>
      <trkpt lat="44.17518" lon="3.18741">
        <ele>727</ele>
        <time>2022-02-10T10:54:59Z</time>
        <extensions>
          <gpxtpx:TrackPointExtension xmlns:gpxtpx="http://www.garmin.com/xmlschemas/TrackPointExtension/v1">
            <gpxtpx:hr>151</gpxtpx:hr>
          </gpxtpx:TrackPointExtension>
        </extensions>
      </trkpt>
      <trkpt lat="44.17519" lon="3.18742">
        <ele>727</ele>
        <time>2022-02-10T10:55:00Z</time>
        <extensions>
          <gpxtpx:TrackPointExtension xmlns:gpxtpx="http://www.garmin.com/xmlschemas/TrackPointExtension/v1">
            <gpxtpx:hr>150</gpxtpx:hr>
          </gpxtpx:TrackPointExtension>
        </extensions>
      </trkpt>
      <trkpt lat="44.1752" lon="3.18743">
        <ele>726.6</ele>
        <time>2022-02-10T10:55:01Z</time>
        <extensions>
          <gpxtpx:TrackPointExtension xmlns:gpxtpx="http://www.garmin.com/xmlschemas/TrackPointExtension/v1">
            <gpxtpx:hr>150</gpxtpx:hr>
          </gpxtpx:TrackPointExtension>
        </extensions>
      </trkpt>
      <trkpt lat="44.17521" lon="3.18745">
        <ele>726.6</ele>
        <time>2022-02-10T10:55:02Z</time>
        <extensions>
          <gpxtpx:TrackPointExtension xmlns:gpxtpx="http://www.garmin.com/xmlschemas/TrackPointExtension/v1">
            <gpxtpx:hr>149</gpxtpx:hr>
          </gpxtpx:TrackPointExtension>
        </extensions>
      </trkpt>
      <trkpt lat="44.17522" lon="3.18746">
        <ele>726.4</ele>
        <time>2022-02-10T10:55:03Z</time>
        <extensions>
          <gpxtpx:TrackPointExtension xmlns:gpxtpx="http://www.garmin.com/xmlschemas/TrackPointExtension/v1">
            <gpxtpx:hr>150</gpxtpx:hr>
          </gpxtpx:TrackPointExtension>
        </extensions>
      </trkpt>
      <trkpt lat="44.17529" lon="3.18753">
        <ele>726.4</ele>
        <time>2022-02-10T10:55:04Z</time>
        <extensions>
          <gpxtpx:TrackPointExtension xmlns:gpxtpx="http://www.garmin.com/xmlschemas/TrackPointExtension/v1">
            <gpxtpx:hr>150</gpxtpx:hr>
          </gpxtpx:TrackPointExtension>
        </extensions>
      </trkpt>
      <trkpt lat="44.1753" lon="3.18755">
        <ele>726.4</ele>
        <time>2022-02-10T10:55:05Z</time>
        <extensions>
          <gpxtpx:TrackPointExtension xmlns:gpxtpx="http://www.garmin.com/xmlschemas/TrackPointExtension/v1">
            <gpxtpx:hr>147</gpxtpx:hr>
          </gpxtpx:TrackPointExtension>
        </extensions>
      </trkpt>
      <trkpt lat="44.17532" lon="3.18757">
        <ele>726.2</ele>
        <time>2022-02-10T10:55:06Z</time>
        <extensions>
          <gpxtpx:TrackPointExtension xmlns:gpxtpx="http://www.garmin.com/xmlschemas/TrackPointExtension/v1">
            <gpxtpx:hr>147</gpxtpx:hr>
          </gpxtpx:TrackPointExtension>
        </extensions>
      </trkpt>
      <trkpt lat="44.17533" lon="3.1876">
        <ele>726.2</ele>
        <time>2022-02-10T10:55:07Z</time>
        <extensions>
          <gpxtpx:TrackPointExtension xmlns:gpxtpx="http://www.garmin.com/xmlschemas/TrackPointExtension/v1">
            <gpxtpx:hr>147</gpxtpx:hr>
          </gpxtpx:TrackPointExtension>
        </extensions>
      </trkpt>
      <trkpt lat="44.17535" lon="3.18762">
        <ele>726.2</ele>
        <time>2022-02-10T10:55:08Z</time>
        <extensions>
          <gpxtpx:TrackPointExtension xmlns:gpxtpx="http://www.garmin.com/xmlschemas/TrackPointExtension/v1">
            <gpxtpx:hr>147</gpxtpx:hr>
          </gpxtpx:TrackPointExtension>
        </extensions>
      </trkpt>
      <trkpt lat="44.17537" lon="3.18765">
        <ele>726</ele>
        <time>2022-02-10T10:55:09Z</time>
        <extensions>
          <gpxtpx:TrackPointExtension xmlns:gpxtpx="http://www.garmin.com/xmlschemas/TrackPointExtension/v1">
            <gpxtpx:hr>147</gpxtpx:hr>
          </gpxtpx:TrackPointExtension>
        </extensions>
      </trkpt>
      <trkpt lat="44.17539" lon="3.18769">
        <ele>726</ele>
        <time>2022-02-10T10:55:10Z</time>
        <extensions>
          <gpxtpx:TrackPointExtension xmlns:gpxtpx="http://www.garmin.com/xmlschemas/TrackPointExtension/v1">
            <gpxtpx:hr>147</gpxtpx:hr>
          </gpxtpx:TrackPointExtension>
        </extensions>
      </trkpt>
      <trkpt lat="44.17541" lon="3.18772">
        <ele>726</ele>
        <time>2022-02-10T10:55:11Z</time>
        <extensions>
          <gpxtpx:TrackPointExtension xmlns:gpxtpx="http://www.garmin.com/xmlschemas/TrackPointExtension/v1">
            <gpxtpx:hr>147</gpxtpx:hr>
          </gpxtpx:TrackPointExtension>
        </extensions>
      </trkpt>
      <trkpt lat="44.17544" lon="3.18776">
        <ele>725.8</ele>
        <time>2022-02-10T10:55:12Z</time>
        <extensions>
          <gpxtpx:TrackPointExtension xmlns:gpxtpx="http://www.garmin.com/xmlschemas/TrackPointExtension/v1">
            <gpxtpx:hr>147</gpxtpx:hr>
          </gpxtpx:TrackPointExtension>
        </extensions>
      </trkpt>
      <trkpt lat="44.17546" lon="3.18779">
        <ele>725.8</ele>
        <time>2022-02-10T10:55:13Z</time>
        <extensions>
          <gpxtpx:TrackPointExtension xmlns:gpxtpx="http://www.garmin.com/xmlschemas/TrackPointExtension/v1">
            <gpxtpx:hr>146</gpxtpx:hr>
          </gpxtpx:TrackPointExtension>
        </extensions>
      </trkpt>
      <trkpt lat="44.17548" lon="3.18782">
        <ele>725.6</ele>
        <time>2022-02-10T10:55:14Z</time>
        <extensions>
          <gpxtpx:TrackPointExtension xmlns:gpxtpx="http://www.garmin.com/xmlschemas/TrackPointExtension/v1">
            <gpxtpx:hr>147</gpxtpx:hr>
          </gpxtpx:TrackPointExtension>
        </extensions>
      </trkpt>
      <trkpt lat="44.1755" lon="3.18784">
        <ele>725.4</ele>
        <time>2022-02-10T10:55:15Z</time>
        <extensions>
          <gpxtpx:TrackPointExtension xmlns:gpxtpx="http://www.garmin.com/xmlschemas/TrackPointExtension/v1">
            <gpxtpx:hr>148</gpxtpx:hr>
          </gpxtpx:TrackPointExtension>
        </extensions>
      </trkpt>
      <trkpt lat="44.17552" lon="3.18787">
        <ele>725.2</ele>
        <time>2022-02-10T10:55:16Z</time>
        <extensions>
          <gpxtpx:TrackPointExtension xmlns:gpxtpx="http://www.garmin.com/xmlschemas/TrackPointExtension/v1">
            <gpxtpx:hr>151</gpxtpx:hr>
          </gpxtpx:TrackPointExtension>
        </extensions>
      </trkpt>
      <trkpt lat="44.17554" lon="3.18789">
        <ele>725</ele>
        <time>2022-02-10T10:55:17Z</time>
        <extensions>
          <gpxtpx:TrackPointExtension xmlns:gpxtpx="http://www.garmin.com/xmlschemas/TrackPointExtension/v1">
            <gpxtpx:hr>151</gpxtpx:hr>
          </gpxtpx:TrackPointExtension>
        </extensions>
      </trkpt>
      <trkpt lat="44.17556" lon="3.18791">
        <ele>725</ele>
        <time>2022-02-10T10:55:18Z</time>
        <extensions>
          <gpxtpx:TrackPointExtension xmlns:gpxtpx="http://www.garmin.com/xmlschemas/TrackPointExtension/v1">
            <gpxtpx:hr>151</gpxtpx:hr>
          </gpxtpx:TrackPointExtension>
        </extensions>
      </trkpt>
      <trkpt lat="44.17558" lon="3.18791">
        <ele>724.6</ele>
        <time>2022-02-10T10:55:19Z</time>
        <extensions>
          <gpxtpx:TrackPointExtension xmlns:gpxtpx="http://www.garmin.com/xmlschemas/TrackPointExtension/v1">
            <gpxtpx:hr>151</gpxtpx:hr>
          </gpxtpx:TrackPointExtension>
        </extensions>
      </trkpt>
      <trkpt lat="44.1756" lon="3.18791">
        <ele>724.6</ele>
        <time>2022-02-10T10:55:20Z</time>
        <extensions>
          <gpxtpx:TrackPointExtension xmlns:gpxtpx="http://www.garmin.com/xmlschemas/TrackPointExtension/v1">
            <gpxtpx:hr>151</gpxtpx:hr>
          </gpxtpx:TrackPointExtension>
        </extensions>
      </trkpt>
      <trkpt lat="44.17563" lon="3.18792">
        <ele>724.2</ele>
        <time>2022-02-10T10:55:21Z</time>
        <extensions>
          <gpxtpx:TrackPointExtension xmlns:gpxtpx="http://www.garmin.com/xmlschemas/TrackPointExtension/v1">
            <gpxtpx:hr>151</gpxtpx:hr>
          </gpxtpx:TrackPointExtension>
        </extensions>
      </trkpt>
      <trkpt lat="44.17565" lon="3.18792">
        <ele>724.2</ele>
        <time>2022-02-10T10:55:22Z</time>
        <extensions>
          <gpxtpx:TrackPointExtension xmlns:gpxtpx="http://www.garmin.com/xmlschemas/TrackPointExtension/v1">
            <gpxtpx:hr>151</gpxtpx:hr>
          </gpxtpx:TrackPointExtension>
        </extensions>
      </trkpt>
      <trkpt lat="44.17568" lon="3.18791">
        <ele>724.2</ele>
        <time>2022-02-10T10:55:23Z</time>
        <extensions>
          <gpxtpx:TrackPointExtension xmlns:gpxtpx="http://www.garmin.com/xmlschemas/TrackPointExtension/v1">
            <gpxtpx:hr>152</gpxtpx:hr>
          </gpxtpx:TrackPointExtension>
        </extensions>
      </trkpt>
      <trkpt lat="44.17571" lon="3.18789">
        <ele>724</ele>
        <time>2022-02-10T10:55:24Z</time>
        <extensions>
          <gpxtpx:TrackPointExtension xmlns:gpxtpx="http://www.garmin.com/xmlschemas/TrackPointExtension/v1">
            <gpxtpx:hr>151</gpxtpx:hr>
          </gpxtpx:TrackPointExtension>
        </extensions>
      </trkpt>
      <trkpt lat="44.17574" lon="3.18788">
        <ele>724</ele>
        <time>2022-02-10T10:55:25Z</time>
        <extensions>
          <gpxtpx:TrackPointExtension xmlns:gpxtpx="http://www.garmin.com/xmlschemas/TrackPointExtension/v1">
            <gpxtpx:hr>151</gpxtpx:hr>
          </gpxtpx:TrackPointExtension>
        </extensions>
      </trkpt>
      <trkpt lat="44.17576" lon="3.18787">
        <ele>724</ele>
        <time>2022-02-10T10:55:26Z</time>
        <extensions>
          <gpxtpx:TrackPointExtension xmlns:gpxtpx="http://www.garmin.com/xmlschemas/TrackPointExtension/v1">
            <gpxtpx:hr>150</gpxtpx:hr>
          </gpxtpx:TrackPointExtension>
        </extensions>
      </trkpt>
      <trkpt lat="44.17578" lon="3.18786">
        <ele>723.8</ele>
        <time>2022-02-10T10:55:27Z</time>
        <extensions>
          <gpxtpx:TrackPointExtension xmlns:gpxtpx="http://www.garmin.com/xmlschemas/TrackPointExtension/v1">
            <gpxtpx:hr>150</gpxtpx:hr>
          </gpxtpx:TrackPointExtension>
        </extensions>
      </trkpt>
      <trkpt lat="44.17579" lon="3.18785">
        <ele>723.4</ele>
        <time>2022-02-10T10:55:28Z</time>
        <extensions>
          <gpxtpx:TrackPointExtension xmlns:gpxtpx="http://www.garmin.com/xmlschemas/TrackPointExtension/v1">
            <gpxtpx:hr>150</gpxtpx:hr>
          </gpxtpx:TrackPointExtension>
        </extensions>
      </trkpt>
      <trkpt lat="44.17581" lon="3.18784">
        <ele>723.4</ele>
        <time>2022-02-10T10:55:29Z</time>
        <extensions>
          <gpxtpx:TrackPointExtension xmlns:gpxtpx="http://www.garmin.com/xmlschemas/TrackPointExtension/v1">
            <gpxtpx:hr>149</gpxtpx:hr>
          </gpxtpx:TrackPointExtension>
        </extensions>
      </trkpt>
      <trkpt lat="44.17583" lon="3.18783">
        <ele>723.2</ele>
        <time>2022-02-10T10:55:30Z</time>
        <extensions>
          <gpxtpx:TrackPointExtension xmlns:gpxtpx="http://www.garmin.com/xmlschemas/TrackPointExtension/v1">
            <gpxtpx:hr>150</gpxtpx:hr>
          </gpxtpx:TrackPointExtension>
        </extensions>
      </trkpt>
      <trkpt lat="44.17585" lon="3.18782">
        <ele>723.2</ele>
        <time>2022-02-10T10:55:31Z</time>
        <extensions>
          <gpxtpx:TrackPointExtension xmlns:gpxtpx="http://www.garmin.com/xmlschemas/TrackPointExtension/v1">
            <gpxtpx:hr>150</gpxtpx:hr>
          </gpxtpx:TrackPointExtension>
        </extensions>
      </trkpt>
      <trkpt lat="44.17587" lon="3.18781">
        <ele>723.2</ele>
        <time>2022-02-10T10:55:32Z</time>
        <extensions>
          <gpxtpx:TrackPointExtension xmlns:gpxtpx="http://www.garmin.com/xmlschemas/TrackPointExtension/v1">
            <gpxtpx:hr>150</gpxtpx:hr>
          </gpxtpx:TrackPointExtension>
        </extensions>
      </trkpt>
      <trkpt lat="44.17589" lon="3.18781">
        <ele>722.8</ele>
        <time>2022-02-10T10:55:33Z</time>
        <extensions>
          <gpxtpx:TrackPointExtension xmlns:gpxtpx="http://www.garmin.com/xmlschemas/TrackPointExtension/v1">
            <gpxtpx:hr>150</gpxtpx:hr>
          </gpxtpx:TrackPointExtension>
        </extensions>
      </trkpt>
      <trkpt lat="44.17591" lon="3.1878">
        <ele>722.6</ele>
        <time>2022-02-10T10:55:34Z</time>
        <extensions>
          <gpxtpx:TrackPointExtension xmlns:gpxtpx="http://www.garmin.com/xmlschemas/TrackPointExtension/v1">
            <gpxtpx:hr>151</gpxtpx:hr>
          </gpxtpx:TrackPointExtension>
        </extensions>
      </trkpt>
      <trkpt lat="44.17593" lon="3.18779">
        <ele>722.6</ele>
        <time>2022-02-10T10:55:35Z</time>
        <extensions>
          <gpxtpx:TrackPointExtension xmlns:gpxtpx="http://www.garmin.com/xmlschemas/TrackPointExtension/v1">
            <gpxtpx:hr>150</gpxtpx:hr>
          </gpxtpx:TrackPointExtension>
        </extensions>
      </trkpt>
      <trkpt lat="44.17594" lon="3.18779">
        <ele>722.4</ele>
        <time>2022-02-10T10:55:36Z</time>
        <extensions>
          <gpxtpx:TrackPointExtension xmlns:gpxtpx="http://www.garmin.com/xmlschemas/TrackPointExtension/v1">
            <gpxtpx:hr>151</gpxtpx:hr>
          </gpxtpx:TrackPointExtension>
        </extensions>
      </trkpt>
      <trkpt lat="44.17596" lon="3.18779">
        <ele>722.4</ele>
        <time>2022-02-10T10:55:37Z</time>
        <extensions>
          <gpxtpx:TrackPointExtension xmlns:gpxtpx="http://www.garmin.com/xmlschemas/TrackPointExtension/v1">
            <gpxtpx:hr>150</gpxtpx:hr>
          </gpxtpx:TrackPointExtension>
        </extensions>
      </trkpt>
      <trkpt lat="44.17597" lon="3.18779">
        <ele>722.4</ele>
        <time>2022-02-10T10:55:38Z</time>
        <extensions>
          <gpxtpx:TrackPointExtension xmlns:gpxtpx="http://www.garmin.com/xmlschemas/TrackPointExtension/v1">
            <gpxtpx:hr>150</gpxtpx:hr>
          </gpxtpx:TrackPointExtension>
        </extensions>
      </trkpt>
      <trkpt lat="44.17598" lon="3.18779">
        <ele>722.4</ele>
        <time>2022-02-10T10:55:39Z</time>
        <extensions>
          <gpxtpx:TrackPointExtension xmlns:gpxtpx="http://www.garmin.com/xmlschemas/TrackPointExtension/v1">
            <gpxtpx:hr>149</gpxtpx:hr>
          </gpxtpx:TrackPointExtension>
        </extensions>
      </trkpt>
      <trkpt lat="44.17605" lon="3.18781">
        <ele>722.4</ele>
        <time>2022-02-10T10:55:40Z</time>
        <extensions>
          <gpxtpx:TrackPointExtension xmlns:gpxtpx="http://www.garmin.com/xmlschemas/TrackPointExtension/v1">
            <gpxtpx:hr>150</gpxtpx:hr>
          </gpxtpx:TrackPointExtension>
        </extensions>
      </trkpt>
      <trkpt lat="44.17606" lon="3.18782">
        <ele>722.2</ele>
        <time>2022-02-10T10:55:41Z</time>
        <extensions>
          <gpxtpx:TrackPointExtension xmlns:gpxtpx="http://www.garmin.com/xmlschemas/TrackPointExtension/v1">
            <gpxtpx:hr>150</gpxtpx:hr>
          </gpxtpx:TrackPointExtension>
        </extensions>
      </trkpt>
      <trkpt lat="44.17608" lon="3.18783">
        <ele>722.2</ele>
        <time>2022-02-10T10:55:42Z</time>
        <extensions>
          <gpxtpx:TrackPointExtension xmlns:gpxtpx="http://www.garmin.com/xmlschemas/TrackPointExtension/v1">
            <gpxtpx:hr>150</gpxtpx:hr>
          </gpxtpx:TrackPointExtension>
        </extensions>
      </trkpt>
      <trkpt lat="44.17609" lon="3.18784">
        <ele>722.2</ele>
        <time>2022-02-10T10:55:43Z</time>
        <extensions>
          <gpxtpx:TrackPointExtension xmlns:gpxtpx="http://www.garmin.com/xmlschemas/TrackPointExtension/v1">
            <gpxtpx:hr>149</gpxtpx:hr>
          </gpxtpx:TrackPointExtension>
        </extensions>
      </trkpt>
      <trkpt lat="44.17611" lon="3.18786">
        <ele>722.2</ele>
        <time>2022-02-10T10:55:44Z</time>
        <extensions>
          <gpxtpx:TrackPointExtension xmlns:gpxtpx="http://www.garmin.com/xmlschemas/TrackPointExtension/v1">
            <gpxtpx:hr>150</gpxtpx:hr>
          </gpxtpx:TrackPointExtension>
        </extensions>
      </trkpt>
      <trkpt lat="44.17613" lon="3.18787">
        <ele>722.2</ele>
        <time>2022-02-10T10:55:45Z</time>
        <extensions>
          <gpxtpx:TrackPointExtension xmlns:gpxtpx="http://www.garmin.com/xmlschemas/TrackPointExtension/v1">
            <gpxtpx:hr>149</gpxtpx:hr>
          </gpxtpx:TrackPointExtension>
        </extensions>
      </trkpt>
      <trkpt lat="44.17615" lon="3.18789">
        <ele>722.2</ele>
        <time>2022-02-10T10:55:46Z</time>
        <extensions>
          <gpxtpx:TrackPointExtension xmlns:gpxtpx="http://www.garmin.com/xmlschemas/TrackPointExtension/v1">
            <gpxtpx:hr>148</gpxtpx:hr>
          </gpxtpx:TrackPointExtension>
        </extensions>
      </trkpt>
      <trkpt lat="44.17618" lon="3.1879">
        <ele>722.2</ele>
        <time>2022-02-10T10:55:47Z</time>
        <extensions>
          <gpxtpx:TrackPointExtension xmlns:gpxtpx="http://www.garmin.com/xmlschemas/TrackPointExtension/v1">
            <gpxtpx:hr>147</gpxtpx:hr>
          </gpxtpx:TrackPointExtension>
        </extensions>
      </trkpt>
      <trkpt lat="44.17621" lon="3.18792">
        <ele>722.2</ele>
        <time>2022-02-10T10:55:48Z</time>
        <extensions>
          <gpxtpx:TrackPointExtension xmlns:gpxtpx="http://www.garmin.com/xmlschemas/TrackPointExtension/v1">
            <gpxtpx:hr>147</gpxtpx:hr>
          </gpxtpx:TrackPointExtension>
        </extensions>
      </trkpt>
      <trkpt lat="44.17628" lon="3.18796">
        <ele>722</ele>
        <time>2022-02-10T10:55:51Z</time>
        <extensions>
          <gpxtpx:TrackPointExtension xmlns:gpxtpx="http://www.garmin.com/xmlschemas/TrackPointExtension/v1">
            <gpxtpx:hr>146</gpxtpx:hr>
          </gpxtpx:TrackPointExtension>
        </extensions>
      </trkpt>
      <trkpt lat="44.1763" lon="3.18797">
        <ele>722</ele>
        <time>2022-02-10T10:55:52Z</time>
        <extensions>
          <gpxtpx:TrackPointExtension xmlns:gpxtpx="http://www.garmin.com/xmlschemas/TrackPointExtension/v1">
            <gpxtpx:hr>146</gpxtpx:hr>
          </gpxtpx:TrackPointExtension>
        </extensions>
      </trkpt>
      <trkpt lat="44.17636" lon="3.18799">
        <ele>722</ele>
        <time>2022-02-10T10:55:54Z</time>
        <extensions>
          <gpxtpx:TrackPointExtension xmlns:gpxtpx="http://www.garmin.com/xmlschemas/TrackPointExtension/v1">
            <gpxtpx:hr>148</gpxtpx:hr>
          </gpxtpx:TrackPointExtension>
        </extensions>
      </trkpt>
      <trkpt lat="44.17641" lon="3.18801">
        <ele>722</ele>
        <time>2022-02-10T10:55:56Z</time>
        <extensions>
          <gpxtpx:TrackPointExtension xmlns:gpxtpx="http://www.garmin.com/xmlschemas/TrackPointExtension/v1">
            <gpxtpx:hr>148</gpxtpx:hr>
          </gpxtpx:TrackPointExtension>
        </extensions>
      </trkpt>
      <trkpt lat="44.17644" lon="3.18802">
        <ele>722</ele>
        <time>2022-02-10T10:55:57Z</time>
        <extensions>
          <gpxtpx:TrackPointExtension xmlns:gpxtpx="http://www.garmin.com/xmlschemas/TrackPointExtension/v1">
            <gpxtpx:hr>148</gpxtpx:hr>
          </gpxtpx:TrackPointExtension>
        </extensions>
      </trkpt>
      <trkpt lat="44.17646" lon="3.18802">
        <ele>721.8</ele>
        <time>2022-02-10T10:55:58Z</time>
        <extensions>
          <gpxtpx:TrackPointExtension xmlns:gpxtpx="http://www.garmin.com/xmlschemas/TrackPointExtension/v1">
            <gpxtpx:hr>150</gpxtpx:hr>
          </gpxtpx:TrackPointExtension>
        </extensions>
      </trkpt>
      <trkpt lat="44.17651" lon="3.18802">
        <ele>721.4</ele>
        <time>2022-02-10T10:56:00Z</time>
        <extensions>
          <gpxtpx:TrackPointExtension xmlns:gpxtpx="http://www.garmin.com/xmlschemas/TrackPointExtension/v1">
            <gpxtpx:hr>150</gpxtpx:hr>
          </gpxtpx:TrackPointExtension>
        </extensions>
      </trkpt>
      <trkpt lat="44.17653" lon="3.18802">
        <ele>721.4</ele>
        <time>2022-02-10T10:56:01Z</time>
        <extensions>
          <gpxtpx:TrackPointExtension xmlns:gpxtpx="http://www.garmin.com/xmlschemas/TrackPointExtension/v1">
            <gpxtpx:hr>151</gpxtpx:hr>
          </gpxtpx:TrackPointExtension>
        </extensions>
      </trkpt>
      <trkpt lat="44.17656" lon="3.18802">
        <ele>721.2</ele>
        <time>2022-02-10T10:56:02Z</time>
        <extensions>
          <gpxtpx:TrackPointExtension xmlns:gpxtpx="http://www.garmin.com/xmlschemas/TrackPointExtension/v1">
            <gpxtpx:hr>150</gpxtpx:hr>
          </gpxtpx:TrackPointExtension>
        </extensions>
      </trkpt>
      <trkpt lat="44.17658" lon="3.18802">
        <ele>721.2</ele>
        <time>2022-02-10T10:56:03Z</time>
        <extensions>
          <gpxtpx:TrackPointExtension xmlns:gpxtpx="http://www.garmin.com/xmlschemas/TrackPointExtension/v1">
            <gpxtpx:hr>150</gpxtpx:hr>
          </gpxtpx:TrackPointExtension>
        </extensions>
      </trkpt>
      <trkpt lat="44.1766" lon="3.18803">
        <ele>721</ele>
        <time>2022-02-10T10:56:04Z</time>
        <extensions>
          <gpxtpx:TrackPointExtension xmlns:gpxtpx="http://www.garmin.com/xmlschemas/TrackPointExtension/v1">
            <gpxtpx:hr>151</gpxtpx:hr>
          </gpxtpx:TrackPointExtension>
        </extensions>
      </trkpt>
      <trkpt lat="44.17662" lon="3.18803">
        <ele>721</ele>
        <time>2022-02-10T10:56:05Z</time>
        <extensions>
          <gpxtpx:TrackPointExtension xmlns:gpxtpx="http://www.garmin.com/xmlschemas/TrackPointExtension/v1">
            <gpxtpx:hr>149</gpxtpx:hr>
          </gpxtpx:TrackPointExtension>
        </extensions>
      </trkpt>
      <trkpt lat="44.17665" lon="3.18804">
        <ele>720.8</ele>
        <time>2022-02-10T10:56:06Z</time>
        <extensions>
          <gpxtpx:TrackPointExtension xmlns:gpxtpx="http://www.garmin.com/xmlschemas/TrackPointExtension/v1">
            <gpxtpx:hr>150</gpxtpx:hr>
          </gpxtpx:TrackPointExtension>
        </extensions>
      </trkpt>
      <trkpt lat="44.17668" lon="3.18805">
        <ele>720.8</ele>
        <time>2022-02-10T10:56:07Z</time>
        <extensions>
          <gpxtpx:TrackPointExtension xmlns:gpxtpx="http://www.garmin.com/xmlschemas/TrackPointExtension/v1">
            <gpxtpx:hr>148</gpxtpx:hr>
          </gpxtpx:TrackPointExtension>
        </extensions>
      </trkpt>
      <trkpt lat="44.1767" lon="3.18806">
        <ele>720.8</ele>
        <time>2022-02-10T10:56:08Z</time>
        <extensions>
          <gpxtpx:TrackPointExtension xmlns:gpxtpx="http://www.garmin.com/xmlschemas/TrackPointExtension/v1">
            <gpxtpx:hr>148</gpxtpx:hr>
          </gpxtpx:TrackPointExtension>
        </extensions>
      </trkpt>
      <trkpt lat="44.17672" lon="3.18807">
        <ele>720.4</ele>
        <time>2022-02-10T10:56:09Z</time>
        <extensions>
          <gpxtpx:TrackPointExtension xmlns:gpxtpx="http://www.garmin.com/xmlschemas/TrackPointExtension/v1">
            <gpxtpx:hr>149</gpxtpx:hr>
          </gpxtpx:TrackPointExtension>
        </extensions>
      </trkpt>
      <trkpt lat="44.17674" lon="3.18809">
        <ele>720.4</ele>
        <time>2022-02-10T10:56:10Z</time>
        <extensions>
          <gpxtpx:TrackPointExtension xmlns:gpxtpx="http://www.garmin.com/xmlschemas/TrackPointExtension/v1">
            <gpxtpx:hr>148</gpxtpx:hr>
          </gpxtpx:TrackPointExtension>
        </extensions>
      </trkpt>
      <trkpt lat="44.17678" lon="3.18813">
        <ele>719.6</ele>
        <time>2022-02-10T10:56:12Z</time>
        <extensions>
          <gpxtpx:TrackPointExtension xmlns:gpxtpx="http://www.garmin.com/xmlschemas/TrackPointExtension/v1">
            <gpxtpx:hr>148</gpxtpx:hr>
          </gpxtpx:TrackPointExtension>
        </extensions>
      </trkpt>
      <trkpt lat="44.1768" lon="3.18816">
        <ele>719.6</ele>
        <time>2022-02-10T10:56:13Z</time>
        <extensions>
          <gpxtpx:TrackPointExtension xmlns:gpxtpx="http://www.garmin.com/xmlschemas/TrackPointExtension/v1">
            <gpxtpx:hr>149</gpxtpx:hr>
          </gpxtpx:TrackPointExtension>
        </extensions>
      </trkpt>
      <trkpt lat="44.17682" lon="3.18818">
        <ele>719.2</ele>
        <time>2022-02-10T10:56:14Z</time>
        <extensions>
          <gpxtpx:TrackPointExtension xmlns:gpxtpx="http://www.garmin.com/xmlschemas/TrackPointExtension/v1">
            <gpxtpx:hr>150</gpxtpx:hr>
          </gpxtpx:TrackPointExtension>
        </extensions>
      </trkpt>
      <trkpt lat="44.17685" lon="3.1882">
        <ele>719</ele>
        <time>2022-02-10T10:56:15Z</time>
        <extensions>
          <gpxtpx:TrackPointExtension xmlns:gpxtpx="http://www.garmin.com/xmlschemas/TrackPointExtension/v1">
            <gpxtpx:hr>152</gpxtpx:hr>
          </gpxtpx:TrackPointExtension>
        </extensions>
      </trkpt>
      <trkpt lat="44.17689" lon="3.18823">
        <ele>718.6</ele>
        <time>2022-02-10T10:56:17Z</time>
        <extensions>
          <gpxtpx:TrackPointExtension xmlns:gpxtpx="http://www.garmin.com/xmlschemas/TrackPointExtension/v1">
            <gpxtpx:hr>152</gpxtpx:hr>
          </gpxtpx:TrackPointExtension>
        </extensions>
      </trkpt>
      <trkpt lat="44.17694" lon="3.18825">
        <ele>718.4</ele>
        <time>2022-02-10T10:56:19Z</time>
        <extensions>
          <gpxtpx:TrackPointExtension xmlns:gpxtpx="http://www.garmin.com/xmlschemas/TrackPointExtension/v1">
            <gpxtpx:hr>151</gpxtpx:hr>
          </gpxtpx:TrackPointExtension>
        </extensions>
      </trkpt>
      <trkpt lat="44.17696" lon="3.18825">
        <ele>718</ele>
        <time>2022-02-10T10:56:20Z</time>
        <extensions>
          <gpxtpx:TrackPointExtension xmlns:gpxtpx="http://www.garmin.com/xmlschemas/TrackPointExtension/v1">
            <gpxtpx:hr>150</gpxtpx:hr>
          </gpxtpx:TrackPointExtension>
        </extensions>
      </trkpt>
      <trkpt lat="44.17699" lon="3.18826">
        <ele>718</ele>
        <time>2022-02-10T10:56:21Z</time>
        <extensions>
          <gpxtpx:TrackPointExtension xmlns:gpxtpx="http://www.garmin.com/xmlschemas/TrackPointExtension/v1">
            <gpxtpx:hr>151</gpxtpx:hr>
          </gpxtpx:TrackPointExtension>
        </extensions>
      </trkpt>
      <trkpt lat="44.17701" lon="3.18826">
        <ele>717.8</ele>
        <time>2022-02-10T10:56:22Z</time>
        <extensions>
          <gpxtpx:TrackPointExtension xmlns:gpxtpx="http://www.garmin.com/xmlschemas/TrackPointExtension/v1">
            <gpxtpx:hr>152</gpxtpx:hr>
          </gpxtpx:TrackPointExtension>
        </extensions>
      </trkpt>
      <trkpt lat="44.17704" lon="3.18826">
        <ele>717.8</ele>
        <time>2022-02-10T10:56:23Z</time>
        <extensions>
          <gpxtpx:TrackPointExtension xmlns:gpxtpx="http://www.garmin.com/xmlschemas/TrackPointExtension/v1">
            <gpxtpx:hr>153</gpxtpx:hr>
          </gpxtpx:TrackPointExtension>
        </extensions>
      </trkpt>
      <trkpt lat="44.17706" lon="3.18826">
        <ele>717.6</ele>
        <time>2022-02-10T10:56:24Z</time>
        <extensions>
          <gpxtpx:TrackPointExtension xmlns:gpxtpx="http://www.garmin.com/xmlschemas/TrackPointExtension/v1">
            <gpxtpx:hr>153</gpxtpx:hr>
          </gpxtpx:TrackPointExtension>
        </extensions>
      </trkpt>
      <trkpt lat="44.17708" lon="3.18826">
        <ele>717.2</ele>
        <time>2022-02-10T10:56:25Z</time>
        <extensions>
          <gpxtpx:TrackPointExtension xmlns:gpxtpx="http://www.garmin.com/xmlschemas/TrackPointExtension/v1">
            <gpxtpx:hr>152</gpxtpx:hr>
          </gpxtpx:TrackPointExtension>
        </extensions>
      </trkpt>
      <trkpt lat="44.17713" lon="3.18826">
        <ele>717</ele>
        <time>2022-02-10T10:56:27Z</time>
        <extensions>
          <gpxtpx:TrackPointExtension xmlns:gpxtpx="http://www.garmin.com/xmlschemas/TrackPointExtension/v1">
            <gpxtpx:hr>150</gpxtpx:hr>
          </gpxtpx:TrackPointExtension>
        </extensions>
      </trkpt>
      <trkpt lat="44.17714" lon="3.18826">
        <ele>716.8</ele>
        <time>2022-02-10T10:56:29Z</time>
        <extensions>
          <gpxtpx:TrackPointExtension xmlns:gpxtpx="http://www.garmin.com/xmlschemas/TrackPointExtension/v1">
            <gpxtpx:hr>150</gpxtpx:hr>
          </gpxtpx:TrackPointExtension>
        </extensions>
      </trkpt>
      <trkpt lat="44.17716" lon="3.18826">
        <ele>716.4</ele>
        <time>2022-02-10T10:56:30Z</time>
        <extensions>
          <gpxtpx:TrackPointExtension xmlns:gpxtpx="http://www.garmin.com/xmlschemas/TrackPointExtension/v1">
            <gpxtpx:hr>149</gpxtpx:hr>
          </gpxtpx:TrackPointExtension>
        </extensions>
      </trkpt>
      <trkpt lat="44.17717" lon="3.18826">
        <ele>716.4</ele>
        <time>2022-02-10T10:56:31Z</time>
        <extensions>
          <gpxtpx:TrackPointExtension xmlns:gpxtpx="http://www.garmin.com/xmlschemas/TrackPointExtension/v1">
            <gpxtpx:hr>148</gpxtpx:hr>
          </gpxtpx:TrackPointExtension>
        </extensions>
      </trkpt>
      <trkpt lat="44.17719" lon="3.18827">
        <ele>716.2</ele>
        <time>2022-02-10T10:56:32Z</time>
        <extensions>
          <gpxtpx:TrackPointExtension xmlns:gpxtpx="http://www.garmin.com/xmlschemas/TrackPointExtension/v1">
            <gpxtpx:hr>148</gpxtpx:hr>
          </gpxtpx:TrackPointExtension>
        </extensions>
      </trkpt>
      <trkpt lat="44.17725" lon="3.18827">
        <ele>716.2</ele>
        <time>2022-02-10T10:56:33Z</time>
        <extensions>
          <gpxtpx:TrackPointExtension xmlns:gpxtpx="http://www.garmin.com/xmlschemas/TrackPointExtension/v1">
            <gpxtpx:hr>148</gpxtpx:hr>
          </gpxtpx:TrackPointExtension>
        </extensions>
      </trkpt>
      <trkpt lat="44.17728" lon="3.18827">
        <ele>716</ele>
        <time>2022-02-10T10:56:34Z</time>
        <extensions>
          <gpxtpx:TrackPointExtension xmlns:gpxtpx="http://www.garmin.com/xmlschemas/TrackPointExtension/v1">
            <gpxtpx:hr>150</gpxtpx:hr>
          </gpxtpx:TrackPointExtension>
        </extensions>
      </trkpt>
      <trkpt lat="44.1773" lon="3.18828">
        <ele>716</ele>
        <time>2022-02-10T10:56:35Z</time>
        <extensions>
          <gpxtpx:TrackPointExtension xmlns:gpxtpx="http://www.garmin.com/xmlschemas/TrackPointExtension/v1">
            <gpxtpx:hr>150</gpxtpx:hr>
          </gpxtpx:TrackPointExtension>
        </extensions>
      </trkpt>
      <trkpt lat="44.17732" lon="3.18828">
        <ele>715.8</ele>
        <time>2022-02-10T10:56:36Z</time>
        <extensions>
          <gpxtpx:TrackPointExtension xmlns:gpxtpx="http://www.garmin.com/xmlschemas/TrackPointExtension/v1">
            <gpxtpx:hr>152</gpxtpx:hr>
          </gpxtpx:TrackPointExtension>
        </extensions>
      </trkpt>
      <trkpt lat="44.17734" lon="3.18829">
        <ele>715.8</ele>
        <time>2022-02-10T10:56:37Z</time>
        <extensions>
          <gpxtpx:TrackPointExtension xmlns:gpxtpx="http://www.garmin.com/xmlschemas/TrackPointExtension/v1">
            <gpxtpx:hr>150</gpxtpx:hr>
          </gpxtpx:TrackPointExtension>
        </extensions>
      </trkpt>
      <trkpt lat="44.17736" lon="3.18829">
        <ele>715.4</ele>
        <time>2022-02-10T10:56:38Z</time>
        <extensions>
          <gpxtpx:TrackPointExtension xmlns:gpxtpx="http://www.garmin.com/xmlschemas/TrackPointExtension/v1">
            <gpxtpx:hr>149</gpxtpx:hr>
          </gpxtpx:TrackPointExtension>
        </extensions>
      </trkpt>
      <trkpt lat="44.17739" lon="3.18828">
        <ele>715.4</ele>
        <time>2022-02-10T10:56:39Z</time>
        <extensions>
          <gpxtpx:TrackPointExtension xmlns:gpxtpx="http://www.garmin.com/xmlschemas/TrackPointExtension/v1">
            <gpxtpx:hr>149</gpxtpx:hr>
          </gpxtpx:TrackPointExtension>
        </extensions>
      </trkpt>
      <trkpt lat="44.17741" lon="3.18828">
        <ele>715.2</ele>
        <time>2022-02-10T10:56:40Z</time>
        <extensions>
          <gpxtpx:TrackPointExtension xmlns:gpxtpx="http://www.garmin.com/xmlschemas/TrackPointExtension/v1">
            <gpxtpx:hr>149</gpxtpx:hr>
          </gpxtpx:TrackPointExtension>
        </extensions>
      </trkpt>
      <trkpt lat="44.17744" lon="3.18827">
        <ele>715.2</ele>
        <time>2022-02-10T10:56:41Z</time>
        <extensions>
          <gpxtpx:TrackPointExtension xmlns:gpxtpx="http://www.garmin.com/xmlschemas/TrackPointExtension/v1">
            <gpxtpx:hr>148</gpxtpx:hr>
          </gpxtpx:TrackPointExtension>
        </extensions>
      </trkpt>
      <trkpt lat="44.17776" lon="3.18817">
        <ele>705.8</ele>
      </trkpt>
      <trkpt lat="44.1779" lon="3.18813">
        <ele>703.5</ele>
      </trkpt>
      <trkpt lat="44.17807" lon="3.18801">
        <ele>701.1</ele>
      </trkpt>
      <trkpt lat="44.17823" lon="3.18785">
        <ele>699.5</ele>
      </trkpt>
      <trkpt lat="44.17837" lon="3.18776">
        <ele>697.7</ele>
      </trkpt>
      <trkpt lat="44.17852" lon="3.18766">
        <ele>696.3</ele>
      </trkpt>
      <trkpt lat="44.17861" lon="3.18759">
        <ele>695.4</ele>
      </trkpt>
      <trkpt lat="44.17868" lon="3.18741">
        <ele>696.7</ele>
      </trkpt>
      <trkpt lat="44.17869" lon="3.18734">
        <ele>697.3</ele>
      </trkpt>
      <trkpt lat="44.1787" lon="3.18728">
        <ele>708.6</ele>
        <time>2022-02-10T11:00:21Z</time>
        <extensions>
          <gpxtpx:TrackPointExtension xmlns:gpxtpx="http://www.garmin.com/xmlschemas/TrackPointExtension/v1">
            <gpxtpx:hr>130</gpxtpx:hr>
          </gpxtpx:TrackPointExtension>
        </extensions>
      </trkpt>
      <trkpt lat="44.17871" lon="3.18724">
        <ele>708.2</ele>
        <time>2022-02-10T11:00:23Z</time>
        <extensions>
          <gpxtpx:TrackPointExtension xmlns:gpxtpx="http://www.garmin.com/xmlschemas/TrackPointExtension/v1">
            <gpxtpx:hr>134</gpxtpx:hr>
          </gpxtpx:TrackPointExtension>
        </extensions>
      </trkpt>
      <trkpt lat="44.17871" lon="3.1872">
        <ele>708</ele>
        <time>2022-02-10T11:00:25Z</time>
        <extensions>
          <gpxtpx:TrackPointExtension xmlns:gpxtpx="http://www.garmin.com/xmlschemas/TrackPointExtension/v1">
            <gpxtpx:hr>135</gpxtpx:hr>
          </gpxtpx:TrackPointExtension>
        </extensions>
      </trkpt>
      <trkpt lat="44.1787" lon="3.18713">
        <ele>708</ele>
        <time>2022-02-10T11:00:27Z</time>
        <extensions>
          <gpxtpx:TrackPointExtension xmlns:gpxtpx="http://www.garmin.com/xmlschemas/TrackPointExtension/v1">
            <gpxtpx:hr>134</gpxtpx:hr>
          </gpxtpx:TrackPointExtension>
        </extensions>
      </trkpt>
      <trkpt lat="44.17869" lon="3.18705">
        <ele>708</ele>
        <time>2022-02-10T11:00:29Z</time>
        <extensions>
          <gpxtpx:TrackPointExtension xmlns:gpxtpx="http://www.garmin.com/xmlschemas/TrackPointExtension/v1">
            <gpxtpx:hr>137</gpxtpx:hr>
          </gpxtpx:TrackPointExtension>
        </extensions>
      </trkpt>
      <trkpt lat="44.17869" lon="3.18701">
        <ele>708</ele>
        <time>2022-02-10T11:00:30Z</time>
        <extensions>
          <gpxtpx:TrackPointExtension xmlns:gpxtpx="http://www.garmin.com/xmlschemas/TrackPointExtension/v1">
            <gpxtpx:hr>137</gpxtpx:hr>
          </gpxtpx:TrackPointExtension>
        </extensions>
      </trkpt>
      <trkpt lat="44.17869" lon="3.18696">
        <ele>708</ele>
        <time>2022-02-10T11:00:31Z</time>
        <extensions>
          <gpxtpx:TrackPointExtension xmlns:gpxtpx="http://www.garmin.com/xmlschemas/TrackPointExtension/v1">
            <gpxtpx:hr>137</gpxtpx:hr>
          </gpxtpx:TrackPointExtension>
        </extensions>
      </trkpt>
      <trkpt lat="44.17868" lon="3.18689">
        <ele>708</ele>
        <time>2022-02-10T11:00:33Z</time>
        <extensions>
          <gpxtpx:TrackPointExtension xmlns:gpxtpx="http://www.garmin.com/xmlschemas/TrackPointExtension/v1">
            <gpxtpx:hr>137</gpxtpx:hr>
          </gpxtpx:TrackPointExtension>
        </extensions>
      </trkpt>
      <trkpt lat="44.17867" lon="3.18685">
        <ele>708</ele>
        <time>2022-02-10T11:00:34Z</time>
        <extensions>
          <gpxtpx:TrackPointExtension xmlns:gpxtpx="http://www.garmin.com/xmlschemas/TrackPointExtension/v1">
            <gpxtpx:hr>137</gpxtpx:hr>
          </gpxtpx:TrackPointExtension>
        </extensions>
      </trkpt>
      <trkpt lat="44.17867" lon="3.18682">
        <ele>708</ele>
        <time>2022-02-10T11:00:35Z</time>
        <extensions>
          <gpxtpx:TrackPointExtension xmlns:gpxtpx="http://www.garmin.com/xmlschemas/TrackPointExtension/v1">
            <gpxtpx:hr>138</gpxtpx:hr>
          </gpxtpx:TrackPointExtension>
        </extensions>
      </trkpt>
      <trkpt lat="44.17865" lon="3.18679">
        <ele>708</ele>
        <time>2022-02-10T11:00:36Z</time>
        <extensions>
          <gpxtpx:TrackPointExtension xmlns:gpxtpx="http://www.garmin.com/xmlschemas/TrackPointExtension/v1">
            <gpxtpx:hr>138</gpxtpx:hr>
          </gpxtpx:TrackPointExtension>
        </extensions>
      </trkpt>
      <trkpt lat="44.17865" lon="3.18676">
        <ele>708</ele>
        <time>2022-02-10T11:00:37Z</time>
        <extensions>
          <gpxtpx:TrackPointExtension xmlns:gpxtpx="http://www.garmin.com/xmlschemas/TrackPointExtension/v1">
            <gpxtpx:hr>139</gpxtpx:hr>
          </gpxtpx:TrackPointExtension>
        </extensions>
      </trkpt>
      <trkpt lat="44.17862" lon="3.1867">
        <ele>708.2</ele>
        <time>2022-02-10T11:00:39Z</time>
        <extensions>
          <gpxtpx:TrackPointExtension xmlns:gpxtpx="http://www.garmin.com/xmlschemas/TrackPointExtension/v1">
            <gpxtpx:hr>138</gpxtpx:hr>
          </gpxtpx:TrackPointExtension>
        </extensions>
      </trkpt>
      <trkpt lat="44.17861" lon="3.18668">
        <ele>708.2</ele>
        <time>2022-02-10T11:00:40Z</time>
        <extensions>
          <gpxtpx:TrackPointExtension xmlns:gpxtpx="http://www.garmin.com/xmlschemas/TrackPointExtension/v1">
            <gpxtpx:hr>138</gpxtpx:hr>
          </gpxtpx:TrackPointExtension>
        </extensions>
      </trkpt>
      <trkpt lat="44.17861" lon="3.18665">
        <ele>708.2</ele>
        <time>2022-02-10T11:00:41Z</time>
        <extensions>
          <gpxtpx:TrackPointExtension xmlns:gpxtpx="http://www.garmin.com/xmlschemas/TrackPointExtension/v1">
            <gpxtpx:hr>139</gpxtpx:hr>
          </gpxtpx:TrackPointExtension>
        </extensions>
      </trkpt>
      <trkpt lat="44.1786" lon="3.18663">
        <ele>708.2</ele>
        <time>2022-02-10T11:00:42Z</time>
        <extensions>
          <gpxtpx:TrackPointExtension xmlns:gpxtpx="http://www.garmin.com/xmlschemas/TrackPointExtension/v1">
            <gpxtpx:hr>140</gpxtpx:hr>
          </gpxtpx:TrackPointExtension>
        </extensions>
      </trkpt>
      <trkpt lat="44.17859" lon="3.18661">
        <ele>708.2</ele>
        <time>2022-02-10T11:00:43Z</time>
        <extensions>
          <gpxtpx:TrackPointExtension xmlns:gpxtpx="http://www.garmin.com/xmlschemas/TrackPointExtension/v1">
            <gpxtpx:hr>140</gpxtpx:hr>
          </gpxtpx:TrackPointExtension>
        </extensions>
      </trkpt>
      <trkpt lat="44.17858" lon="3.18658">
        <ele>708.2</ele>
        <time>2022-02-10T11:00:44Z</time>
        <extensions>
          <gpxtpx:TrackPointExtension xmlns:gpxtpx="http://www.garmin.com/xmlschemas/TrackPointExtension/v1">
            <gpxtpx:hr>140</gpxtpx:hr>
          </gpxtpx:TrackPointExtension>
        </extensions>
      </trkpt>
      <trkpt lat="44.17857" lon="3.18655">
        <ele>708.2</ele>
        <time>2022-02-10T11:00:45Z</time>
        <extensions>
          <gpxtpx:TrackPointExtension xmlns:gpxtpx="http://www.garmin.com/xmlschemas/TrackPointExtension/v1">
            <gpxtpx:hr>141</gpxtpx:hr>
          </gpxtpx:TrackPointExtension>
        </extensions>
      </trkpt>
      <trkpt lat="44.17856" lon="3.1865">
        <ele>708.2</ele>
        <time>2022-02-10T11:00:47Z</time>
        <extensions>
          <gpxtpx:TrackPointExtension xmlns:gpxtpx="http://www.garmin.com/xmlschemas/TrackPointExtension/v1">
            <gpxtpx:hr>140</gpxtpx:hr>
          </gpxtpx:TrackPointExtension>
        </extensions>
      </trkpt>
      <trkpt lat="44.17856" lon="3.18644">
        <ele>708.2</ele>
        <time>2022-02-10T11:00:49Z</time>
        <extensions>
          <gpxtpx:TrackPointExtension xmlns:gpxtpx="http://www.garmin.com/xmlschemas/TrackPointExtension/v1">
            <gpxtpx:hr>141</gpxtpx:hr>
          </gpxtpx:TrackPointExtension>
        </extensions>
      </trkpt>
      <trkpt lat="44.17857" lon="3.18638">
        <ele>708.2</ele>
        <time>2022-02-10T11:00:51Z</time>
        <extensions>
          <gpxtpx:TrackPointExtension xmlns:gpxtpx="http://www.garmin.com/xmlschemas/TrackPointExtension/v1">
            <gpxtpx:hr>142</gpxtpx:hr>
          </gpxtpx:TrackPointExtension>
        </extensions>
      </trkpt>
      <trkpt lat="44.17859" lon="3.18632">
        <ele>708.2</ele>
        <time>2022-02-10T11:00:53Z</time>
        <extensions>
          <gpxtpx:TrackPointExtension xmlns:gpxtpx="http://www.garmin.com/xmlschemas/TrackPointExtension/v1">
            <gpxtpx:hr>144</gpxtpx:hr>
          </gpxtpx:TrackPointExtension>
        </extensions>
      </trkpt>
      <trkpt lat="44.17859" lon="3.18629">
        <ele>708.2</ele>
        <time>2022-02-10T11:00:54Z</time>
        <extensions>
          <gpxtpx:TrackPointExtension xmlns:gpxtpx="http://www.garmin.com/xmlschemas/TrackPointExtension/v1">
            <gpxtpx:hr>144</gpxtpx:hr>
          </gpxtpx:TrackPointExtension>
        </extensions>
      </trkpt>
      <trkpt lat="44.1786" lon="3.18627">
        <ele>708.2</ele>
        <time>2022-02-10T11:00:55Z</time>
        <extensions>
          <gpxtpx:TrackPointExtension xmlns:gpxtpx="http://www.garmin.com/xmlschemas/TrackPointExtension/v1">
            <gpxtpx:hr>145</gpxtpx:hr>
          </gpxtpx:TrackPointExtension>
        </extensions>
      </trkpt>
      <trkpt lat="44.17861" lon="3.18624">
        <ele>708.2</ele>
        <time>2022-02-10T11:00:56Z</time>
        <extensions>
          <gpxtpx:TrackPointExtension xmlns:gpxtpx="http://www.garmin.com/xmlschemas/TrackPointExtension/v1">
            <gpxtpx:hr>145</gpxtpx:hr>
          </gpxtpx:TrackPointExtension>
        </extensions>
      </trkpt>
      <trkpt lat="44.17863" lon="3.18621">
        <ele>708.2</ele>
        <time>2022-02-10T11:00:58Z</time>
        <extensions>
          <gpxtpx:TrackPointExtension xmlns:gpxtpx="http://www.garmin.com/xmlschemas/TrackPointExtension/v1">
            <gpxtpx:hr>148</gpxtpx:hr>
          </gpxtpx:TrackPointExtension>
        </extensions>
      </trkpt>
      <trkpt lat="44.17865" lon="3.1862">
        <ele>708.2</ele>
        <time>2022-02-10T11:00:59Z</time>
        <extensions>
          <gpxtpx:TrackPointExtension xmlns:gpxtpx="http://www.garmin.com/xmlschemas/TrackPointExtension/v1">
            <gpxtpx:hr>149</gpxtpx:hr>
          </gpxtpx:TrackPointExtension>
        </extensions>
      </trkpt>
      <trkpt lat="44.17867" lon="3.1862">
        <ele>708.2</ele>
        <time>2022-02-10T11:01:00Z</time>
        <extensions>
          <gpxtpx:TrackPointExtension xmlns:gpxtpx="http://www.garmin.com/xmlschemas/TrackPointExtension/v1">
            <gpxtpx:hr>149</gpxtpx:hr>
          </gpxtpx:TrackPointExtension>
        </extensions>
      </trkpt>
      <trkpt lat="44.17869" lon="3.1862">
        <ele>708.2</ele>
        <time>2022-02-10T11:01:01Z</time>
        <extensions>
          <gpxtpx:TrackPointExtension xmlns:gpxtpx="http://www.garmin.com/xmlschemas/TrackPointExtension/v1">
            <gpxtpx:hr>149</gpxtpx:hr>
          </gpxtpx:TrackPointExtension>
        </extensions>
      </trkpt>
      <trkpt lat="44.17872" lon="3.1862">
        <ele>708.2</ele>
        <time>2022-02-10T11:01:02Z</time>
        <extensions>
          <gpxtpx:TrackPointExtension xmlns:gpxtpx="http://www.garmin.com/xmlschemas/TrackPointExtension/v1">
            <gpxtpx:hr>149</gpxtpx:hr>
          </gpxtpx:TrackPointExtension>
        </extensions>
      </trkpt>
      <trkpt lat="44.17875" lon="3.18621">
        <ele>708.4</ele>
        <time>2022-02-10T11:01:03Z</time>
        <extensions>
          <gpxtpx:TrackPointExtension xmlns:gpxtpx="http://www.garmin.com/xmlschemas/TrackPointExtension/v1">
            <gpxtpx:hr>150</gpxtpx:hr>
          </gpxtpx:TrackPointExtension>
        </extensions>
      </trkpt>
      <trkpt lat="44.17879" lon="3.18623">
        <ele>708.8</ele>
        <time>2022-02-10T11:01:05Z</time>
        <extensions>
          <gpxtpx:TrackPointExtension xmlns:gpxtpx="http://www.garmin.com/xmlschemas/TrackPointExtension/v1">
            <gpxtpx:hr>148</gpxtpx:hr>
          </gpxtpx:TrackPointExtension>
        </extensions>
      </trkpt>
      <trkpt lat="44.17883" lon="3.18626">
        <ele>709</ele>
        <time>2022-02-10T11:01:07Z</time>
        <extensions>
          <gpxtpx:TrackPointExtension xmlns:gpxtpx="http://www.garmin.com/xmlschemas/TrackPointExtension/v1">
            <gpxtpx:hr>146</gpxtpx:hr>
          </gpxtpx:TrackPointExtension>
        </extensions>
      </trkpt>
      <trkpt lat="44.17887" lon="3.18628">
        <ele>709.4</ele>
        <time>2022-02-10T11:01:09Z</time>
        <extensions>
          <gpxtpx:TrackPointExtension xmlns:gpxtpx="http://www.garmin.com/xmlschemas/TrackPointExtension/v1">
            <gpxtpx:hr>148</gpxtpx:hr>
          </gpxtpx:TrackPointExtension>
        </extensions>
      </trkpt>
      <trkpt lat="44.17889" lon="3.1863">
        <ele>709.4</ele>
        <time>2022-02-10T11:01:10Z</time>
        <extensions>
          <gpxtpx:TrackPointExtension xmlns:gpxtpx="http://www.garmin.com/xmlschemas/TrackPointExtension/v1">
            <gpxtpx:hr>147</gpxtpx:hr>
          </gpxtpx:TrackPointExtension>
        </extensions>
      </trkpt>
      <trkpt lat="44.17891" lon="3.18632">
        <ele>709.8</ele>
        <time>2022-02-10T11:01:11Z</time>
        <extensions>
          <gpxtpx:TrackPointExtension xmlns:gpxtpx="http://www.garmin.com/xmlschemas/TrackPointExtension/v1">
            <gpxtpx:hr>147</gpxtpx:hr>
          </gpxtpx:TrackPointExtension>
        </extensions>
      </trkpt>
      <trkpt lat="44.17892" lon="3.18634">
        <ele>710</ele>
        <time>2022-02-10T11:01:12Z</time>
        <extensions>
          <gpxtpx:TrackPointExtension xmlns:gpxtpx="http://www.garmin.com/xmlschemas/TrackPointExtension/v1">
            <gpxtpx:hr>148</gpxtpx:hr>
          </gpxtpx:TrackPointExtension>
        </extensions>
      </trkpt>
      <trkpt lat="44.17894" lon="3.18636">
        <ele>710.2</ele>
        <time>2022-02-10T11:01:13Z</time>
        <extensions>
          <gpxtpx:TrackPointExtension xmlns:gpxtpx="http://www.garmin.com/xmlschemas/TrackPointExtension/v1">
            <gpxtpx:hr>149</gpxtpx:hr>
          </gpxtpx:TrackPointExtension>
        </extensions>
      </trkpt>
      <trkpt lat="44.17895" lon="3.18638">
        <ele>710.2</ele>
        <time>2022-02-10T11:01:14Z</time>
        <extensions>
          <gpxtpx:TrackPointExtension xmlns:gpxtpx="http://www.garmin.com/xmlschemas/TrackPointExtension/v1">
            <gpxtpx:hr>150</gpxtpx:hr>
          </gpxtpx:TrackPointExtension>
        </extensions>
      </trkpt>
      <trkpt lat="44.17898" lon="3.18643">
        <ele>710.8</ele>
        <time>2022-02-10T11:01:16Z</time>
        <extensions>
          <gpxtpx:TrackPointExtension xmlns:gpxtpx="http://www.garmin.com/xmlschemas/TrackPointExtension/v1">
            <gpxtpx:hr>149</gpxtpx:hr>
          </gpxtpx:TrackPointExtension>
        </extensions>
      </trkpt>
      <trkpt lat="44.17902" lon="3.18648">
        <ele>711.4</ele>
        <time>2022-02-10T11:01:19Z</time>
        <extensions>
          <gpxtpx:TrackPointExtension xmlns:gpxtpx="http://www.garmin.com/xmlschemas/TrackPointExtension/v1">
            <gpxtpx:hr>149</gpxtpx:hr>
          </gpxtpx:TrackPointExtension>
        </extensions>
      </trkpt>
      <trkpt lat="44.17904" lon="3.1865">
        <ele>711.8</ele>
        <time>2022-02-10T11:01:20Z</time>
        <extensions>
          <gpxtpx:TrackPointExtension xmlns:gpxtpx="http://www.garmin.com/xmlschemas/TrackPointExtension/v1">
            <gpxtpx:hr>152</gpxtpx:hr>
          </gpxtpx:TrackPointExtension>
        </extensions>
      </trkpt>
      <trkpt lat="44.17909" lon="3.18652">
        <ele>712.4</ele>
        <time>2022-02-10T11:01:23Z</time>
        <extensions>
          <gpxtpx:TrackPointExtension xmlns:gpxtpx="http://www.garmin.com/xmlschemas/TrackPointExtension/v1">
            <gpxtpx:hr>155</gpxtpx:hr>
          </gpxtpx:TrackPointExtension>
        </extensions>
      </trkpt>
      <trkpt lat="44.17911" lon="3.18652">
        <ele>712.8</ele>
        <time>2022-02-10T11:01:24Z</time>
        <extensions>
          <gpxtpx:TrackPointExtension xmlns:gpxtpx="http://www.garmin.com/xmlschemas/TrackPointExtension/v1">
            <gpxtpx:hr>156</gpxtpx:hr>
          </gpxtpx:TrackPointExtension>
        </extensions>
      </trkpt>
      <trkpt lat="44.17915" lon="3.18653">
        <ele>713.4</ele>
        <time>2022-02-10T11:01:26Z</time>
        <extensions>
          <gpxtpx:TrackPointExtension xmlns:gpxtpx="http://www.garmin.com/xmlschemas/TrackPointExtension/v1">
            <gpxtpx:hr>158</gpxtpx:hr>
          </gpxtpx:TrackPointExtension>
        </extensions>
      </trkpt>
      <trkpt lat="44.17919" lon="3.18652">
        <ele>713.6</ele>
        <time>2022-02-10T11:01:28Z</time>
        <extensions>
          <gpxtpx:TrackPointExtension xmlns:gpxtpx="http://www.garmin.com/xmlschemas/TrackPointExtension/v1">
            <gpxtpx:hr>158</gpxtpx:hr>
          </gpxtpx:TrackPointExtension>
        </extensions>
      </trkpt>
      <trkpt lat="44.17923" lon="3.18652">
        <ele>714</ele>
        <time>2022-02-10T11:01:30Z</time>
        <extensions>
          <gpxtpx:TrackPointExtension xmlns:gpxtpx="http://www.garmin.com/xmlschemas/TrackPointExtension/v1">
            <gpxtpx:hr>158</gpxtpx:hr>
          </gpxtpx:TrackPointExtension>
        </extensions>
      </trkpt>
      <trkpt lat="44.17927" lon="3.18651">
        <ele>714.4</ele>
        <time>2022-02-10T11:01:32Z</time>
        <extensions>
          <gpxtpx:TrackPointExtension xmlns:gpxtpx="http://www.garmin.com/xmlschemas/TrackPointExtension/v1">
            <gpxtpx:hr>160</gpxtpx:hr>
          </gpxtpx:TrackPointExtension>
        </extensions>
      </trkpt>
      <trkpt lat="44.17931" lon="3.1865">
        <ele>714.6</ele>
        <time>2022-02-10T11:01:34Z</time>
        <extensions>
          <gpxtpx:TrackPointExtension xmlns:gpxtpx="http://www.garmin.com/xmlschemas/TrackPointExtension/v1">
            <gpxtpx:hr>160</gpxtpx:hr>
          </gpxtpx:TrackPointExtension>
        </extensions>
      </trkpt>
      <trkpt lat="44.17933" lon="3.1865">
        <ele>714.6</ele>
        <time>2022-02-10T11:01:35Z</time>
        <extensions>
          <gpxtpx:TrackPointExtension xmlns:gpxtpx="http://www.garmin.com/xmlschemas/TrackPointExtension/v1">
            <gpxtpx:hr>161</gpxtpx:hr>
          </gpxtpx:TrackPointExtension>
        </extensions>
      </trkpt>
      <trkpt lat="44.17934" lon="3.1865">
        <ele>715</ele>
        <time>2022-02-10T11:01:36Z</time>
        <extensions>
          <gpxtpx:TrackPointExtension xmlns:gpxtpx="http://www.garmin.com/xmlschemas/TrackPointExtension/v1">
            <gpxtpx:hr>160</gpxtpx:hr>
          </gpxtpx:TrackPointExtension>
        </extensions>
      </trkpt>
      <trkpt lat="44.17938" lon="3.18649">
        <ele>715.4</ele>
        <time>2022-02-10T11:01:38Z</time>
        <extensions>
          <gpxtpx:TrackPointExtension xmlns:gpxtpx="http://www.garmin.com/xmlschemas/TrackPointExtension/v1">
            <gpxtpx:hr>160</gpxtpx:hr>
          </gpxtpx:TrackPointExtension>
        </extensions>
      </trkpt>
      <trkpt lat="44.1794" lon="3.18649">
        <ele>715.4</ele>
        <time>2022-02-10T11:01:39Z</time>
        <extensions>
          <gpxtpx:TrackPointExtension xmlns:gpxtpx="http://www.garmin.com/xmlschemas/TrackPointExtension/v1">
            <gpxtpx:hr>161</gpxtpx:hr>
          </gpxtpx:TrackPointExtension>
        </extensions>
      </trkpt>
      <trkpt lat="44.17942" lon="3.18648">
        <ele>715.4</ele>
        <time>2022-02-10T11:01:40Z</time>
        <extensions>
          <gpxtpx:TrackPointExtension xmlns:gpxtpx="http://www.garmin.com/xmlschemas/TrackPointExtension/v1">
            <gpxtpx:hr>161</gpxtpx:hr>
          </gpxtpx:TrackPointExtension>
        </extensions>
      </trkpt>
      <trkpt lat="44.17948" lon="3.18647">
        <ele>716.2</ele>
        <time>2022-02-10T11:01:43Z</time>
        <extensions>
          <gpxtpx:TrackPointExtension xmlns:gpxtpx="http://www.garmin.com/xmlschemas/TrackPointExtension/v1">
            <gpxtpx:hr>162</gpxtpx:hr>
          </gpxtpx:TrackPointExtension>
        </extensions>
      </trkpt>
      <trkpt lat="44.17951" lon="3.18646">
        <ele>716.6</ele>
        <time>2022-02-10T11:01:45Z</time>
        <extensions>
          <gpxtpx:TrackPointExtension xmlns:gpxtpx="http://www.garmin.com/xmlschemas/TrackPointExtension/v1">
            <gpxtpx:hr>162</gpxtpx:hr>
          </gpxtpx:TrackPointExtension>
        </extensions>
      </trkpt>
      <trkpt lat="44.17954" lon="3.18646">
        <ele>717</ele>
        <time>2022-02-10T11:01:47Z</time>
        <extensions>
          <gpxtpx:TrackPointExtension xmlns:gpxtpx="http://www.garmin.com/xmlschemas/TrackPointExtension/v1">
            <gpxtpx:hr>161</gpxtpx:hr>
          </gpxtpx:TrackPointExtension>
        </extensions>
      </trkpt>
      <trkpt lat="44.17957" lon="3.18645">
        <ele>717.4</ele>
        <time>2022-02-10T11:01:49Z</time>
        <extensions>
          <gpxtpx:TrackPointExtension xmlns:gpxtpx="http://www.garmin.com/xmlschemas/TrackPointExtension/v1">
            <gpxtpx:hr>162</gpxtpx:hr>
          </gpxtpx:TrackPointExtension>
        </extensions>
      </trkpt>
      <trkpt lat="44.17963" lon="3.18644">
        <ele>718</ele>
        <time>2022-02-10T11:01:52Z</time>
        <extensions>
          <gpxtpx:TrackPointExtension xmlns:gpxtpx="http://www.garmin.com/xmlschemas/TrackPointExtension/v1">
            <gpxtpx:hr>163</gpxtpx:hr>
          </gpxtpx:TrackPointExtension>
        </extensions>
      </trkpt>
      <trkpt lat="44.17966" lon="3.18644">
        <ele>718.6</ele>
        <time>2022-02-10T11:01:54Z</time>
        <extensions>
          <gpxtpx:TrackPointExtension xmlns:gpxtpx="http://www.garmin.com/xmlschemas/TrackPointExtension/v1">
            <gpxtpx:hr>164</gpxtpx:hr>
          </gpxtpx:TrackPointExtension>
        </extensions>
      </trkpt>
      <trkpt lat="44.17968" lon="3.18644">
        <ele>718.6</ele>
        <time>2022-02-10T11:01:55Z</time>
        <extensions>
          <gpxtpx:TrackPointExtension xmlns:gpxtpx="http://www.garmin.com/xmlschemas/TrackPointExtension/v1">
            <gpxtpx:hr>163</gpxtpx:hr>
          </gpxtpx:TrackPointExtension>
        </extensions>
      </trkpt>
      <trkpt lat="44.17972" lon="3.18644">
        <ele>719</ele>
        <time>2022-02-10T11:01:57Z</time>
        <extensions>
          <gpxtpx:TrackPointExtension xmlns:gpxtpx="http://www.garmin.com/xmlschemas/TrackPointExtension/v1">
            <gpxtpx:hr>162</gpxtpx:hr>
          </gpxtpx:TrackPointExtension>
        </extensions>
      </trkpt>
      <trkpt lat="44.17975" lon="3.18644">
        <ele>719.4</ele>
        <time>2022-02-10T11:01:59Z</time>
        <extensions>
          <gpxtpx:TrackPointExtension xmlns:gpxtpx="http://www.garmin.com/xmlschemas/TrackPointExtension/v1">
            <gpxtpx:hr>163</gpxtpx:hr>
          </gpxtpx:TrackPointExtension>
        </extensions>
      </trkpt>
      <trkpt lat="44.17977" lon="3.18643">
        <ele>719.6</ele>
        <time>2022-02-10T11:02:00Z</time>
        <extensions>
          <gpxtpx:TrackPointExtension xmlns:gpxtpx="http://www.garmin.com/xmlschemas/TrackPointExtension/v1">
            <gpxtpx:hr>163</gpxtpx:hr>
          </gpxtpx:TrackPointExtension>
        </extensions>
      </trkpt>
      <trkpt lat="44.17981" lon="3.18643">
        <ele>720</ele>
        <time>2022-02-10T11:02:02Z</time>
        <extensions>
          <gpxtpx:TrackPointExtension xmlns:gpxtpx="http://www.garmin.com/xmlschemas/TrackPointExtension/v1">
            <gpxtpx:hr>164</gpxtpx:hr>
          </gpxtpx:TrackPointExtension>
        </extensions>
      </trkpt>
      <trkpt lat="44.17982" lon="3.18643">
        <ele>720</ele>
        <time>2022-02-10T11:02:03Z</time>
        <extensions>
          <gpxtpx:TrackPointExtension xmlns:gpxtpx="http://www.garmin.com/xmlschemas/TrackPointExtension/v1">
            <gpxtpx:hr>164</gpxtpx:hr>
          </gpxtpx:TrackPointExtension>
        </extensions>
      </trkpt>
      <trkpt lat="44.17988" lon="3.18642">
        <ele>720.2</ele>
        <time>2022-02-10T11:02:06Z</time>
        <extensions>
          <gpxtpx:TrackPointExtension xmlns:gpxtpx="http://www.garmin.com/xmlschemas/TrackPointExtension/v1">
            <gpxtpx:hr>164</gpxtpx:hr>
          </gpxtpx:TrackPointExtension>
        </extensions>
      </trkpt>
      <trkpt lat="44.1799" lon="3.18642">
        <ele>720.6</ele>
        <time>2022-02-10T11:02:07Z</time>
        <extensions>
          <gpxtpx:TrackPointExtension xmlns:gpxtpx="http://www.garmin.com/xmlschemas/TrackPointExtension/v1">
            <gpxtpx:hr>163</gpxtpx:hr>
          </gpxtpx:TrackPointExtension>
        </extensions>
      </trkpt>
      <trkpt lat="44.17993" lon="3.18641">
        <ele>720.8</ele>
        <time>2022-02-10T11:02:09Z</time>
        <extensions>
          <gpxtpx:TrackPointExtension xmlns:gpxtpx="http://www.garmin.com/xmlschemas/TrackPointExtension/v1">
            <gpxtpx:hr>163</gpxtpx:hr>
          </gpxtpx:TrackPointExtension>
        </extensions>
      </trkpt>
      <trkpt lat="44.17997" lon="3.18641">
        <ele>721.2</ele>
        <time>2022-02-10T11:02:11Z</time>
        <extensions>
          <gpxtpx:TrackPointExtension xmlns:gpxtpx="http://www.garmin.com/xmlschemas/TrackPointExtension/v1">
            <gpxtpx:hr>164</gpxtpx:hr>
          </gpxtpx:TrackPointExtension>
        </extensions>
      </trkpt>
      <trkpt lat="44.18" lon="3.1864">
        <ele>721.4</ele>
        <time>2022-02-10T11:02:13Z</time>
        <extensions>
          <gpxtpx:TrackPointExtension xmlns:gpxtpx="http://www.garmin.com/xmlschemas/TrackPointExtension/v1">
            <gpxtpx:hr>165</gpxtpx:hr>
          </gpxtpx:TrackPointExtension>
        </extensions>
      </trkpt>
      <trkpt lat="44.18004" lon="3.1864">
        <ele>721.8</ele>
        <time>2022-02-10T11:02:15Z</time>
        <extensions>
          <gpxtpx:TrackPointExtension xmlns:gpxtpx="http://www.garmin.com/xmlschemas/TrackPointExtension/v1">
            <gpxtpx:hr>166</gpxtpx:hr>
          </gpxtpx:TrackPointExtension>
        </extensions>
      </trkpt>
      <trkpt lat="44.18006" lon="3.1864">
        <ele>722.2</ele>
        <time>2022-02-10T11:02:17Z</time>
        <extensions>
          <gpxtpx:TrackPointExtension xmlns:gpxtpx="http://www.garmin.com/xmlschemas/TrackPointExtension/v1">
            <gpxtpx:hr>165</gpxtpx:hr>
          </gpxtpx:TrackPointExtension>
        </extensions>
      </trkpt>
      <trkpt lat="44.18012" lon="3.1864">
        <ele>722.8</ele>
        <time>2022-02-10T11:02:20Z</time>
        <extensions>
          <gpxtpx:TrackPointExtension xmlns:gpxtpx="http://www.garmin.com/xmlschemas/TrackPointExtension/v1">
            <gpxtpx:hr>165</gpxtpx:hr>
          </gpxtpx:TrackPointExtension>
        </extensions>
      </trkpt>
      <trkpt lat="44.18013" lon="3.1864">
        <ele>722.8</ele>
        <time>2022-02-10T11:02:21Z</time>
        <extensions>
          <gpxtpx:TrackPointExtension xmlns:gpxtpx="http://www.garmin.com/xmlschemas/TrackPointExtension/v1">
            <gpxtpx:hr>164</gpxtpx:hr>
          </gpxtpx:TrackPointExtension>
        </extensions>
      </trkpt>
      <trkpt lat="44.18016" lon="3.18639">
        <ele>723</ele>
        <time>2022-02-10T11:02:23Z</time>
        <extensions>
          <gpxtpx:TrackPointExtension xmlns:gpxtpx="http://www.garmin.com/xmlschemas/TrackPointExtension/v1">
            <gpxtpx:hr>164</gpxtpx:hr>
          </gpxtpx:TrackPointExtension>
        </extensions>
      </trkpt>
      <trkpt lat="44.18022" lon="3.18639">
        <ele>723.4</ele>
        <time>2022-02-10T11:02:26Z</time>
        <extensions>
          <gpxtpx:TrackPointExtension xmlns:gpxtpx="http://www.garmin.com/xmlschemas/TrackPointExtension/v1">
            <gpxtpx:hr>164</gpxtpx:hr>
          </gpxtpx:TrackPointExtension>
        </extensions>
      </trkpt>
      <trkpt lat="44.18024" lon="3.18639">
        <ele>723.8</ele>
        <time>2022-02-10T11:02:27Z</time>
        <extensions>
          <gpxtpx:TrackPointExtension xmlns:gpxtpx="http://www.garmin.com/xmlschemas/TrackPointExtension/v1">
            <gpxtpx:hr>165</gpxtpx:hr>
          </gpxtpx:TrackPointExtension>
        </extensions>
      </trkpt>
      <trkpt lat="44.18027" lon="3.18639">
        <ele>724</ele>
        <time>2022-02-10T11:02:29Z</time>
        <extensions>
          <gpxtpx:TrackPointExtension xmlns:gpxtpx="http://www.garmin.com/xmlschemas/TrackPointExtension/v1">
            <gpxtpx:hr>166</gpxtpx:hr>
          </gpxtpx:TrackPointExtension>
        </extensions>
      </trkpt>
      <trkpt lat="44.1803" lon="3.18638">
        <ele>724.4</ele>
        <time>2022-02-10T11:02:31Z</time>
        <extensions>
          <gpxtpx:TrackPointExtension xmlns:gpxtpx="http://www.garmin.com/xmlschemas/TrackPointExtension/v1">
            <gpxtpx:hr>166</gpxtpx:hr>
          </gpxtpx:TrackPointExtension>
        </extensions>
      </trkpt>
      <trkpt lat="44.18036" lon="3.18637">
        <ele>725</ele>
        <time>2022-02-10T11:02:34Z</time>
        <extensions>
          <gpxtpx:TrackPointExtension xmlns:gpxtpx="http://www.garmin.com/xmlschemas/TrackPointExtension/v1">
            <gpxtpx:hr>165</gpxtpx:hr>
          </gpxtpx:TrackPointExtension>
        </extensions>
      </trkpt>
      <trkpt lat="44.18039" lon="3.18636">
        <ele>725.4</ele>
        <time>2022-02-10T11:02:36Z</time>
        <extensions>
          <gpxtpx:TrackPointExtension xmlns:gpxtpx="http://www.garmin.com/xmlschemas/TrackPointExtension/v1">
            <gpxtpx:hr>166</gpxtpx:hr>
          </gpxtpx:TrackPointExtension>
        </extensions>
      </trkpt>
      <trkpt lat="44.18043" lon="3.18636">
        <ele>725.8</ele>
        <time>2022-02-10T11:02:38Z</time>
        <extensions>
          <gpxtpx:TrackPointExtension xmlns:gpxtpx="http://www.garmin.com/xmlschemas/TrackPointExtension/v1">
            <gpxtpx:hr>165</gpxtpx:hr>
          </gpxtpx:TrackPointExtension>
        </extensions>
      </trkpt>
      <trkpt lat="44.18046" lon="3.18635">
        <ele>726</ele>
        <time>2022-02-10T11:02:40Z</time>
        <extensions>
          <gpxtpx:TrackPointExtension xmlns:gpxtpx="http://www.garmin.com/xmlschemas/TrackPointExtension/v1">
            <gpxtpx:hr>165</gpxtpx:hr>
          </gpxtpx:TrackPointExtension>
        </extensions>
      </trkpt>
      <trkpt lat="44.1805" lon="3.18636">
        <ele>726.2</ele>
        <time>2022-02-10T11:02:42Z</time>
        <extensions>
          <gpxtpx:TrackPointExtension xmlns:gpxtpx="http://www.garmin.com/xmlschemas/TrackPointExtension/v1">
            <gpxtpx:hr>165</gpxtpx:hr>
          </gpxtpx:TrackPointExtension>
        </extensions>
      </trkpt>
      <trkpt lat="44.18053" lon="3.18636">
        <ele>726.2</ele>
        <time>2022-02-10T11:02:44Z</time>
        <extensions>
          <gpxtpx:TrackPointExtension xmlns:gpxtpx="http://www.garmin.com/xmlschemas/TrackPointExtension/v1">
            <gpxtpx:hr>166</gpxtpx:hr>
          </gpxtpx:TrackPointExtension>
        </extensions>
      </trkpt>
      <trkpt lat="44.18058" lon="3.18635">
        <ele>726.4</ele>
        <time>2022-02-10T11:02:47Z</time>
        <extensions>
          <gpxtpx:TrackPointExtension xmlns:gpxtpx="http://www.garmin.com/xmlschemas/TrackPointExtension/v1">
            <gpxtpx:hr>166</gpxtpx:hr>
          </gpxtpx:TrackPointExtension>
        </extensions>
      </trkpt>
      <trkpt lat="44.18064" lon="3.18633">
        <ele>726.6</ele>
        <time>2022-02-10T11:02:50Z</time>
        <extensions>
          <gpxtpx:TrackPointExtension xmlns:gpxtpx="http://www.garmin.com/xmlschemas/TrackPointExtension/v1">
            <gpxtpx:hr>167</gpxtpx:hr>
          </gpxtpx:TrackPointExtension>
        </extensions>
      </trkpt>
      <trkpt lat="44.18065" lon="3.18633">
        <ele>726.6</ele>
        <time>2022-02-10T11:02:51Z</time>
        <extensions>
          <gpxtpx:TrackPointExtension xmlns:gpxtpx="http://www.garmin.com/xmlschemas/TrackPointExtension/v1">
            <gpxtpx:hr>167</gpxtpx:hr>
          </gpxtpx:TrackPointExtension>
        </extensions>
      </trkpt>
      <trkpt lat="44.18068" lon="3.18631">
        <ele>727</ele>
        <time>2022-02-10T11:02:53Z</time>
        <extensions>
          <gpxtpx:TrackPointExtension xmlns:gpxtpx="http://www.garmin.com/xmlschemas/TrackPointExtension/v1">
            <gpxtpx:hr>167</gpxtpx:hr>
          </gpxtpx:TrackPointExtension>
        </extensions>
      </trkpt>
      <trkpt lat="44.18073" lon="3.18629">
        <ele>727.6</ele>
        <time>2022-02-10T11:02:56Z</time>
        <extensions>
          <gpxtpx:TrackPointExtension xmlns:gpxtpx="http://www.garmin.com/xmlschemas/TrackPointExtension/v1">
            <gpxtpx:hr>166</gpxtpx:hr>
          </gpxtpx:TrackPointExtension>
        </extensions>
      </trkpt>
      <trkpt lat="44.18076" lon="3.18626">
        <ele>727.8</ele>
        <time>2022-02-10T11:02:58Z</time>
        <extensions>
          <gpxtpx:TrackPointExtension xmlns:gpxtpx="http://www.garmin.com/xmlschemas/TrackPointExtension/v1">
            <gpxtpx:hr>166</gpxtpx:hr>
          </gpxtpx:TrackPointExtension>
        </extensions>
      </trkpt>
      <trkpt lat="44.18078" lon="3.18624">
        <ele>728.2</ele>
        <time>2022-02-10T11:03:00Z</time>
        <extensions>
          <gpxtpx:TrackPointExtension xmlns:gpxtpx="http://www.garmin.com/xmlschemas/TrackPointExtension/v1">
            <gpxtpx:hr>164</gpxtpx:hr>
          </gpxtpx:TrackPointExtension>
        </extensions>
      </trkpt>
      <trkpt lat="44.1808" lon="3.18623">
        <ele>728.2</ele>
        <time>2022-02-10T11:03:01Z</time>
        <extensions>
          <gpxtpx:TrackPointExtension xmlns:gpxtpx="http://www.garmin.com/xmlschemas/TrackPointExtension/v1">
            <gpxtpx:hr>164</gpxtpx:hr>
          </gpxtpx:TrackPointExtension>
        </extensions>
      </trkpt>
      <trkpt lat="44.18083" lon="3.1862">
        <ele>728.6</ele>
        <time>2022-02-10T11:03:03Z</time>
        <extensions>
          <gpxtpx:TrackPointExtension xmlns:gpxtpx="http://www.garmin.com/xmlschemas/TrackPointExtension/v1">
            <gpxtpx:hr>165</gpxtpx:hr>
          </gpxtpx:TrackPointExtension>
        </extensions>
      </trkpt>
      <trkpt lat="44.18085" lon="3.18618">
        <ele>729.4</ele>
        <time>2022-02-10T11:03:05Z</time>
        <extensions>
          <gpxtpx:TrackPointExtension xmlns:gpxtpx="http://www.garmin.com/xmlschemas/TrackPointExtension/v1">
            <gpxtpx:hr>165</gpxtpx:hr>
          </gpxtpx:TrackPointExtension>
        </extensions>
      </trkpt>
      <trkpt lat="44.18087" lon="3.18616">
        <ele>729.4</ele>
        <time>2022-02-10T11:03:06Z</time>
        <extensions>
          <gpxtpx:TrackPointExtension xmlns:gpxtpx="http://www.garmin.com/xmlschemas/TrackPointExtension/v1">
            <gpxtpx:hr>166</gpxtpx:hr>
          </gpxtpx:TrackPointExtension>
        </extensions>
      </trkpt>
      <trkpt lat="44.18089" lon="3.18615">
        <ele>729.4</ele>
        <time>2022-02-10T11:03:07Z</time>
        <extensions>
          <gpxtpx:TrackPointExtension xmlns:gpxtpx="http://www.garmin.com/xmlschemas/TrackPointExtension/v1">
            <gpxtpx:hr>166</gpxtpx:hr>
          </gpxtpx:TrackPointExtension>
        </extensions>
      </trkpt>
      <trkpt lat="44.18092" lon="3.18611">
        <ele>729.6</ele>
        <time>2022-02-10T11:03:09Z</time>
        <extensions>
          <gpxtpx:TrackPointExtension xmlns:gpxtpx="http://www.garmin.com/xmlschemas/TrackPointExtension/v1">
            <gpxtpx:hr>166</gpxtpx:hr>
          </gpxtpx:TrackPointExtension>
        </extensions>
      </trkpt>
      <trkpt lat="44.18095" lon="3.18607">
        <ele>730.2</ele>
        <time>2022-02-10T11:03:11Z</time>
        <extensions>
          <gpxtpx:TrackPointExtension xmlns:gpxtpx="http://www.garmin.com/xmlschemas/TrackPointExtension/v1">
            <gpxtpx:hr>166</gpxtpx:hr>
          </gpxtpx:TrackPointExtension>
        </extensions>
      </trkpt>
      <trkpt lat="44.18099" lon="3.18603">
        <ele>730.4</ele>
        <time>2022-02-10T11:03:13Z</time>
        <extensions>
          <gpxtpx:TrackPointExtension xmlns:gpxtpx="http://www.garmin.com/xmlschemas/TrackPointExtension/v1">
            <gpxtpx:hr>166</gpxtpx:hr>
          </gpxtpx:TrackPointExtension>
        </extensions>
      </trkpt>
      <trkpt lat="44.18103" lon="3.18597">
        <ele>730.8</ele>
        <time>2022-02-10T11:03:16Z</time>
        <extensions>
          <gpxtpx:TrackPointExtension xmlns:gpxtpx="http://www.garmin.com/xmlschemas/TrackPointExtension/v1">
            <gpxtpx:hr>167</gpxtpx:hr>
          </gpxtpx:TrackPointExtension>
        </extensions>
      </trkpt>
      <trkpt lat="44.18104" lon="3.18595">
        <ele>731.2</ele>
        <time>2022-02-10T11:03:17Z</time>
        <extensions>
          <gpxtpx:TrackPointExtension xmlns:gpxtpx="http://www.garmin.com/xmlschemas/TrackPointExtension/v1">
            <gpxtpx:hr>167</gpxtpx:hr>
          </gpxtpx:TrackPointExtension>
        </extensions>
      </trkpt>
      <trkpt lat="44.18107" lon="3.18591">
        <ele>731.4</ele>
        <time>2022-02-10T11:03:19Z</time>
        <extensions>
          <gpxtpx:TrackPointExtension xmlns:gpxtpx="http://www.garmin.com/xmlschemas/TrackPointExtension/v1">
            <gpxtpx:hr>167</gpxtpx:hr>
          </gpxtpx:TrackPointExtension>
        </extensions>
      </trkpt>
      <trkpt lat="44.18109" lon="3.18588">
        <ele>731.6</ele>
        <time>2022-02-10T11:03:21Z</time>
        <extensions>
          <gpxtpx:TrackPointExtension xmlns:gpxtpx="http://www.garmin.com/xmlschemas/TrackPointExtension/v1">
            <gpxtpx:hr>167</gpxtpx:hr>
          </gpxtpx:TrackPointExtension>
        </extensions>
      </trkpt>
      <trkpt lat="44.1811" lon="3.18585">
        <ele>732.2</ele>
        <time>2022-02-10T11:03:23Z</time>
        <extensions>
          <gpxtpx:TrackPointExtension xmlns:gpxtpx="http://www.garmin.com/xmlschemas/TrackPointExtension/v1">
            <gpxtpx:hr>167</gpxtpx:hr>
          </gpxtpx:TrackPointExtension>
        </extensions>
      </trkpt>
      <trkpt lat="44.18112" lon="3.18583">
        <ele>732.6</ele>
        <time>2022-02-10T11:03:25Z</time>
        <extensions>
          <gpxtpx:TrackPointExtension xmlns:gpxtpx="http://www.garmin.com/xmlschemas/TrackPointExtension/v1">
            <gpxtpx:hr>167</gpxtpx:hr>
          </gpxtpx:TrackPointExtension>
        </extensions>
      </trkpt>
      <trkpt lat="44.18115" lon="3.1858">
        <ele>732.8</ele>
        <time>2022-02-10T11:03:27Z</time>
        <extensions>
          <gpxtpx:TrackPointExtension xmlns:gpxtpx="http://www.garmin.com/xmlschemas/TrackPointExtension/v1">
            <gpxtpx:hr>168</gpxtpx:hr>
          </gpxtpx:TrackPointExtension>
        </extensions>
      </trkpt>
      <trkpt lat="44.18117" lon="3.18577">
        <ele>733.2</ele>
        <time>2022-02-10T11:03:29Z</time>
        <extensions>
          <gpxtpx:TrackPointExtension xmlns:gpxtpx="http://www.garmin.com/xmlschemas/TrackPointExtension/v1">
            <gpxtpx:hr>167</gpxtpx:hr>
          </gpxtpx:TrackPointExtension>
        </extensions>
      </trkpt>
      <trkpt lat="44.18119" lon="3.18574">
        <ele>734</ele>
        <time>2022-02-10T11:03:31Z</time>
        <extensions>
          <gpxtpx:TrackPointExtension xmlns:gpxtpx="http://www.garmin.com/xmlschemas/TrackPointExtension/v1">
            <gpxtpx:hr>167</gpxtpx:hr>
          </gpxtpx:TrackPointExtension>
        </extensions>
      </trkpt>
      <trkpt lat="44.18121" lon="3.18571">
        <ele>734.2</ele>
        <time>2022-02-10T11:03:33Z</time>
        <extensions>
          <gpxtpx:TrackPointExtension xmlns:gpxtpx="http://www.garmin.com/xmlschemas/TrackPointExtension/v1">
            <gpxtpx:hr>167</gpxtpx:hr>
          </gpxtpx:TrackPointExtension>
        </extensions>
      </trkpt>
      <trkpt lat="44.18124" lon="3.18567">
        <ele>734.8</ele>
        <time>2022-02-10T11:03:35Z</time>
        <extensions>
          <gpxtpx:TrackPointExtension xmlns:gpxtpx="http://www.garmin.com/xmlschemas/TrackPointExtension/v1">
            <gpxtpx:hr>168</gpxtpx:hr>
          </gpxtpx:TrackPointExtension>
        </extensions>
      </trkpt>
      <trkpt lat="44.18125" lon="3.18564">
        <ele>735</ele>
        <time>2022-02-10T11:03:37Z</time>
        <extensions>
          <gpxtpx:TrackPointExtension xmlns:gpxtpx="http://www.garmin.com/xmlschemas/TrackPointExtension/v1">
            <gpxtpx:hr>168</gpxtpx:hr>
          </gpxtpx:TrackPointExtension>
        </extensions>
      </trkpt>
      <trkpt lat="44.18127" lon="3.18561">
        <ele>735.4</ele>
        <time>2022-02-10T11:03:39Z</time>
        <extensions>
          <gpxtpx:TrackPointExtension xmlns:gpxtpx="http://www.garmin.com/xmlschemas/TrackPointExtension/v1">
            <gpxtpx:hr>169</gpxtpx:hr>
          </gpxtpx:TrackPointExtension>
        </extensions>
      </trkpt>
      <trkpt lat="44.18129" lon="3.18558">
        <ele>736</ele>
        <time>2022-02-10T11:03:41Z</time>
        <extensions>
          <gpxtpx:TrackPointExtension xmlns:gpxtpx="http://www.garmin.com/xmlschemas/TrackPointExtension/v1">
            <gpxtpx:hr>169</gpxtpx:hr>
          </gpxtpx:TrackPointExtension>
        </extensions>
      </trkpt>
      <trkpt lat="44.18131" lon="3.18555">
        <ele>736</ele>
        <time>2022-02-10T11:03:43Z</time>
        <extensions>
          <gpxtpx:TrackPointExtension xmlns:gpxtpx="http://www.garmin.com/xmlschemas/TrackPointExtension/v1">
            <gpxtpx:hr>169</gpxtpx:hr>
          </gpxtpx:TrackPointExtension>
        </extensions>
      </trkpt>
      <trkpt lat="44.18133" lon="3.18552">
        <ele>736.6</ele>
        <time>2022-02-10T11:03:45Z</time>
        <extensions>
          <gpxtpx:TrackPointExtension xmlns:gpxtpx="http://www.garmin.com/xmlschemas/TrackPointExtension/v1">
            <gpxtpx:hr>169</gpxtpx:hr>
          </gpxtpx:TrackPointExtension>
        </extensions>
      </trkpt>
      <trkpt lat="44.18138" lon="3.18548">
        <ele>737</ele>
        <time>2022-02-10T11:03:48Z</time>
        <extensions>
          <gpxtpx:TrackPointExtension xmlns:gpxtpx="http://www.garmin.com/xmlschemas/TrackPointExtension/v1">
            <gpxtpx:hr>168</gpxtpx:hr>
          </gpxtpx:TrackPointExtension>
        </extensions>
      </trkpt>
      <trkpt lat="44.18139" lon="3.18547">
        <ele>737.6</ele>
        <time>2022-02-10T11:03:49Z</time>
        <extensions>
          <gpxtpx:TrackPointExtension xmlns:gpxtpx="http://www.garmin.com/xmlschemas/TrackPointExtension/v1">
            <gpxtpx:hr>167</gpxtpx:hr>
          </gpxtpx:TrackPointExtension>
        </extensions>
      </trkpt>
      <trkpt lat="44.18142" lon="3.18544">
        <ele>737.6</ele>
        <time>2022-02-10T11:03:51Z</time>
        <extensions>
          <gpxtpx:TrackPointExtension xmlns:gpxtpx="http://www.garmin.com/xmlschemas/TrackPointExtension/v1">
            <gpxtpx:hr>167</gpxtpx:hr>
          </gpxtpx:TrackPointExtension>
        </extensions>
      </trkpt>
      <trkpt lat="44.18144" lon="3.18542">
        <ele>737.8</ele>
        <time>2022-02-10T11:03:52Z</time>
        <extensions>
          <gpxtpx:TrackPointExtension xmlns:gpxtpx="http://www.garmin.com/xmlschemas/TrackPointExtension/v1">
            <gpxtpx:hr>167</gpxtpx:hr>
          </gpxtpx:TrackPointExtension>
        </extensions>
      </trkpt>
      <trkpt lat="44.18147" lon="3.1854">
        <ele>738</ele>
        <time>2022-02-10T11:03:54Z</time>
        <extensions>
          <gpxtpx:TrackPointExtension xmlns:gpxtpx="http://www.garmin.com/xmlschemas/TrackPointExtension/v1">
            <gpxtpx:hr>167</gpxtpx:hr>
          </gpxtpx:TrackPointExtension>
        </extensions>
      </trkpt>
      <trkpt lat="44.18149" lon="3.18538">
        <ele>738</ele>
        <time>2022-02-10T11:03:55Z</time>
        <extensions>
          <gpxtpx:TrackPointExtension xmlns:gpxtpx="http://www.garmin.com/xmlschemas/TrackPointExtension/v1">
            <gpxtpx:hr>167</gpxtpx:hr>
          </gpxtpx:TrackPointExtension>
        </extensions>
      </trkpt>
      <trkpt lat="44.1815" lon="3.18537">
        <ele>738</ele>
        <time>2022-02-10T11:03:56Z</time>
        <extensions>
          <gpxtpx:TrackPointExtension xmlns:gpxtpx="http://www.garmin.com/xmlschemas/TrackPointExtension/v1">
            <gpxtpx:hr>167</gpxtpx:hr>
          </gpxtpx:TrackPointExtension>
        </extensions>
      </trkpt>
      <trkpt lat="44.18153" lon="3.18535">
        <ele>738.4</ele>
        <time>2022-02-10T11:03:58Z</time>
        <extensions>
          <gpxtpx:TrackPointExtension xmlns:gpxtpx="http://www.garmin.com/xmlschemas/TrackPointExtension/v1">
            <gpxtpx:hr>167</gpxtpx:hr>
          </gpxtpx:TrackPointExtension>
        </extensions>
      </trkpt>
      <trkpt lat="44.18156" lon="3.18533">
        <ele>738.6</ele>
        <time>2022-02-10T11:04:00Z</time>
        <extensions>
          <gpxtpx:TrackPointExtension xmlns:gpxtpx="http://www.garmin.com/xmlschemas/TrackPointExtension/v1">
            <gpxtpx:hr>168</gpxtpx:hr>
          </gpxtpx:TrackPointExtension>
        </extensions>
      </trkpt>
      <trkpt lat="44.18159" lon="3.18532">
        <ele>738.6</ele>
        <time>2022-02-10T11:04:02Z</time>
        <extensions>
          <gpxtpx:TrackPointExtension xmlns:gpxtpx="http://www.garmin.com/xmlschemas/TrackPointExtension/v1">
            <gpxtpx:hr>168</gpxtpx:hr>
          </gpxtpx:TrackPointExtension>
        </extensions>
      </trkpt>
      <trkpt lat="44.18162" lon="3.1853">
        <ele>739</ele>
        <time>2022-02-10T11:04:04Z</time>
        <extensions>
          <gpxtpx:TrackPointExtension xmlns:gpxtpx="http://www.garmin.com/xmlschemas/TrackPointExtension/v1">
            <gpxtpx:hr>167</gpxtpx:hr>
          </gpxtpx:TrackPointExtension>
        </extensions>
      </trkpt>
      <trkpt lat="44.18165" lon="3.18529">
        <ele>739</ele>
        <time>2022-02-10T11:04:06Z</time>
        <extensions>
          <gpxtpx:TrackPointExtension xmlns:gpxtpx="http://www.garmin.com/xmlschemas/TrackPointExtension/v1">
            <gpxtpx:hr>168</gpxtpx:hr>
          </gpxtpx:TrackPointExtension>
        </extensions>
      </trkpt>
      <trkpt lat="44.18166" lon="3.18528">
        <ele>738.6</ele>
        <time>2022-02-10T11:04:09Z</time>
        <extensions>
          <gpxtpx:TrackPointExtension xmlns:gpxtpx="http://www.garmin.com/xmlschemas/TrackPointExtension/v1">
            <gpxtpx:hr>168</gpxtpx:hr>
          </gpxtpx:TrackPointExtension>
        </extensions>
      </trkpt>
      <trkpt lat="44.18225" lon="3.18503">
        <ele>734.4</ele>
      </trkpt>
      <trkpt lat="44.18281" lon="3.18481">
        <ele>732.4</ele>
      </trkpt>
      <trkpt lat="44.18305" lon="3.18464">
        <ele>732.5</ele>
      </trkpt>
      <trkpt lat="44.18348" lon="3.18428">
        <ele>731.3</ele>
      </trkpt>
      <trkpt lat="44.18354" lon="3.18427">
        <ele>730.6</ele>
      </trkpt>
      <trkpt lat="44.18358" lon="3.18431">
        <ele>729.9</ele>
      </trkpt>
      <trkpt lat="44.18359" lon="3.18444">
        <ele>729.2</ele>
      </trkpt>
      <trkpt lat="44.18362" lon="3.18456">
        <ele>727.7</ele>
      </trkpt>
      <trkpt lat="44.18364" lon="3.18472">
        <ele>726</ele>
      </trkpt>
      <trkpt lat="44.18369" lon="3.1848">
        <ele>725.6</ele>
      </trkpt>
      <trkpt lat="44.18381" lon="3.18481">
        <ele>725.3</ele>
      </trkpt>
      <trkpt lat="44.1839" lon="3.18475">
        <ele>728.9</ele>
        <time>2019-04-19T15:17:05Z</time>
      </trkpt>
      <trkpt lat="44.18393" lon="3.18474">
        <ele>728.9</ele>
        <time>2019-04-19T15:17:01Z</time>
      </trkpt>
      <trkpt lat="44.18396" lon="3.18474">
        <ele>729.1</ele>
        <time>2019-04-19T15:16:59Z</time>
      </trkpt>
      <trkpt lat="44.18399" lon="3.18469">
        <ele>729.3</ele>
        <time>2019-04-19T15:16:58Z</time>
      </trkpt>
      <trkpt lat="44.18401" lon="3.18466">
        <ele>729.5</ele>
        <time>2019-04-19T15:16:57Z</time>
      </trkpt>
      <trkpt lat="44.18404" lon="3.18463">
        <ele>729.7</ele>
        <time>2019-04-19T15:16:56Z</time>
      </trkpt>
      <trkpt lat="44.18406" lon="3.18457">
        <ele>730</ele>
        <time>2019-04-19T15:16:55Z</time>
      </trkpt>
      <trkpt lat="44.1841" lon="3.18448">
        <ele>730.5</ele>
        <time>2019-04-19T15:16:54Z</time>
      </trkpt>
      <trkpt lat="44.18413" lon="3.18445">
        <ele>730.7</ele>
        <time>2019-04-19T15:16:53Z</time>
      </trkpt>
      <trkpt lat="44.18416" lon="3.18441">
        <ele>730.9</ele>
        <time>2019-04-19T15:16:52Z</time>
      </trkpt>
      <trkpt lat="44.1842" lon="3.18438">
        <ele>731.2</ele>
        <time>2019-04-19T15:16:51Z</time>
      </trkpt>
      <trkpt lat="44.18425" lon="3.18434">
        <ele>731.5</ele>
        <time>2019-04-19T15:16:50Z</time>
      </trkpt>
      <trkpt lat="44.18428" lon="3.18427">
        <ele>731.8</ele>
        <time>2019-04-19T15:16:49Z</time>
      </trkpt>
      <trkpt lat="44.18433" lon="3.18423">
        <ele>732.2</ele>
        <time>2019-04-19T15:16:48Z</time>
      </trkpt>
      <trkpt lat="44.18435" lon="3.18414">
        <ele>732.5</ele>
        <time>2019-04-19T15:16:47Z</time>
      </trkpt>
      <trkpt lat="44.18437" lon="3.18405">
        <ele>733</ele>
        <time>2019-04-19T15:16:46Z</time>
      </trkpt>
      <trkpt lat="44.1844" lon="3.18394">
        <ele>733.3</ele>
        <time>2019-04-19T15:16:45Z</time>
      </trkpt>
      <trkpt lat="44.18442" lon="3.18384">
        <ele>733.8</ele>
        <time>2019-04-19T15:16:44Z</time>
      </trkpt>
      <trkpt lat="44.18445" lon="3.18378">
        <ele>734.1</ele>
        <time>2019-04-19T15:16:43Z</time>
      </trkpt>
      <trkpt lat="44.1845" lon="3.18374">
        <ele>734.4</ele>
        <time>2019-04-19T15:16:42Z</time>
      </trkpt>
      <trkpt lat="44.18457" lon="3.18366">
        <ele>734.6</ele>
        <time>2019-04-19T15:16:41Z</time>
      </trkpt>
      <trkpt lat="44.18463" lon="3.18356">
        <ele>734.8</ele>
        <time>2019-04-19T15:16:40Z</time>
      </trkpt>
      <trkpt lat="44.1847" lon="3.1835">
        <ele>735.1</ele>
        <time>2019-04-19T15:16:39Z</time>
      </trkpt>
      <trkpt lat="44.18476" lon="3.18343">
        <ele>735.4</ele>
        <time>2019-04-19T15:16:38Z</time>
      </trkpt>
      <trkpt lat="44.18483" lon="3.18341">
        <ele>735.5</ele>
        <time>2019-04-19T15:16:37Z</time>
      </trkpt>
      <trkpt lat="44.1849" lon="3.18337">
        <ele>735.8</ele>
        <time>2019-04-19T15:16:36Z</time>
      </trkpt>
      <trkpt lat="44.18503" lon="3.18336">
        <ele>736.3</ele>
        <time>2019-04-19T15:16:35Z</time>
      </trkpt>
      <trkpt lat="44.18505" lon="3.18327">
        <ele>736.7</ele>
        <time>2019-04-19T15:16:34Z</time>
      </trkpt>
      <trkpt lat="44.18509" lon="3.18316">
        <ele>737.3</ele>
        <time>2019-04-19T15:16:33Z</time>
      </trkpt>
      <trkpt lat="44.18516" lon="3.18306">
        <ele>738.1</ele>
        <time>2019-04-19T15:16:32Z</time>
      </trkpt>
      <trkpt lat="44.18518" lon="3.18297">
        <ele>738.7</ele>
        <time>2019-04-19T15:16:31Z</time>
      </trkpt>
      <trkpt lat="44.18521" lon="3.18294">
        <ele>739</ele>
        <time>2019-04-19T15:16:30Z</time>
      </trkpt>
      <trkpt lat="44.18528" lon="3.18294">
        <ele>739.6</ele>
        <time>2019-04-19T15:16:29Z</time>
      </trkpt>
      <trkpt lat="44.18535" lon="3.18293">
        <ele>740.3</ele>
        <time>2019-04-19T15:16:28Z</time>
      </trkpt>
      <trkpt lat="44.18544" lon="3.18288">
        <ele>741.1</ele>
        <time>2019-04-19T15:16:27Z</time>
      </trkpt>
      <trkpt lat="44.1855" lon="3.18279">
        <ele>742</ele>
        <time>2019-04-19T15:16:26Z</time>
      </trkpt>
      <trkpt lat="44.18559" lon="3.18279">
        <ele>742.8</ele>
        <time>2019-04-19T15:16:25Z</time>
      </trkpt>
      <trkpt lat="44.18564" lon="3.18275">
        <ele>743.3</ele>
        <time>2019-04-19T15:16:24Z</time>
      </trkpt>
      <trkpt lat="44.1857" lon="3.18267">
        <ele>744.1</ele>
        <time>2019-04-19T15:16:23Z</time>
      </trkpt>
      <trkpt lat="44.18577" lon="3.18262">
        <ele>745</ele>
        <time>2019-04-19T15:16:22Z</time>
      </trkpt>
      <trkpt lat="44.18584" lon="3.18261">
        <ele>745.7</ele>
        <time>2019-04-19T15:16:21Z</time>
      </trkpt>
      <trkpt lat="44.18589" lon="3.18255">
        <ele>746.5</ele>
        <time>2019-04-19T15:16:20Z</time>
      </trkpt>
      <trkpt lat="44.18594" lon="3.1825">
        <ele>747.4</ele>
        <time>2019-04-19T15:16:19Z</time>
      </trkpt>
      <trkpt lat="44.18598" lon="3.18243">
        <ele>748.4</ele>
        <time>2019-04-19T15:16:18Z</time>
      </trkpt>
      <trkpt lat="44.18602" lon="3.18239">
        <ele>749</ele>
        <time>2019-04-19T15:16:17Z</time>
      </trkpt>
      <trkpt lat="44.18606" lon="3.18233">
        <ele>749.5</ele>
        <time>2019-04-19T15:16:16Z</time>
      </trkpt>
      <trkpt lat="44.1861" lon="3.18228">
        <ele>750</ele>
        <time>2019-04-19T15:16:15Z</time>
      </trkpt>
      <trkpt lat="44.18614" lon="3.18221">
        <ele>750.5</ele>
        <time>2019-04-19T15:16:14Z</time>
      </trkpt>
      <trkpt lat="44.18618" lon="3.18213">
        <ele>750.9</ele>
        <time>2019-04-19T15:16:13Z</time>
      </trkpt>
      <trkpt lat="44.18623" lon="3.18211">
        <ele>751.2</ele>
        <time>2019-04-19T15:16:12Z</time>
      </trkpt>
      <trkpt lat="44.18629" lon="3.18207">
        <ele>751.6</ele>
        <time>2019-04-19T15:16:11Z</time>
      </trkpt>
      <trkpt lat="44.18633" lon="3.18199">
        <ele>751.9</ele>
        <time>2019-04-19T15:16:10Z</time>
      </trkpt>
      <trkpt lat="44.18636" lon="3.18196">
        <ele>752</ele>
        <time>2019-04-19T15:16:09Z</time>
      </trkpt>
      <trkpt lat="44.18639" lon="3.1819">
        <ele>752.2</ele>
        <time>2019-04-19T15:16:08Z</time>
      </trkpt>
      <trkpt lat="44.1864" lon="3.18176">
        <ele>752.8</ele>
        <time>2019-04-19T15:16:07Z</time>
      </trkpt>
      <trkpt lat="44.18643" lon="3.18171">
        <ele>753</ele>
        <time>2019-04-19T15:16:06Z</time>
      </trkpt>
      <trkpt lat="44.18645" lon="3.18167">
        <ele>753</ele>
        <time>2019-04-19T15:16:05Z</time>
      </trkpt>
      <trkpt lat="44.18648" lon="3.18164">
        <ele>753.1</ele>
        <time>2019-04-19T15:16:04Z</time>
      </trkpt>
      <trkpt lat="44.1865" lon="3.1816">
        <ele>753.3</ele>
        <time>2019-04-19T15:16:03Z</time>
      </trkpt>
      <trkpt lat="44.18653" lon="3.18156">
        <ele>753.4</ele>
        <time>2019-04-19T15:16:02Z</time>
      </trkpt>
      <trkpt lat="44.18655" lon="3.18152">
        <ele>753.5</ele>
        <time>2019-04-19T15:16:01Z</time>
      </trkpt>
      <trkpt lat="44.18657" lon="3.18148">
        <ele>753.5</ele>
        <time>2019-04-19T15:16:00Z</time>
      </trkpt>
      <trkpt lat="44.1866" lon="3.18143">
        <ele>753.6</ele>
        <time>2019-04-19T15:15:59Z</time>
      </trkpt>
      <trkpt lat="44.18662" lon="3.18139">
        <ele>753.6</ele>
        <time>2019-04-19T15:15:58Z</time>
      </trkpt>
      <trkpt lat="44.18663" lon="3.18135">
        <ele>753.5</ele>
        <time>2019-04-19T15:15:57Z</time>
      </trkpt>
      <trkpt lat="44.18665" lon="3.1813">
        <ele>753.5</ele>
        <time>2019-04-19T15:15:56Z</time>
      </trkpt>
      <trkpt lat="44.18666" lon="3.18124">
        <ele>753.5</ele>
        <time>2019-04-19T15:15:55Z</time>
      </trkpt>
      <trkpt lat="44.18667" lon="3.18118">
        <ele>753.5</ele>
        <time>2019-04-19T15:15:54Z</time>
      </trkpt>
      <trkpt lat="44.18668" lon="3.18112">
        <ele>753.5</ele>
        <time>2019-04-19T15:15:53Z</time>
      </trkpt>
      <trkpt lat="44.18668" lon="3.18106">
        <ele>753.5</ele>
        <time>2019-04-19T15:15:52Z</time>
      </trkpt>
      <trkpt lat="44.18668" lon="3.18101">
        <ele>753.6</ele>
        <time>2019-04-19T15:15:51Z</time>
      </trkpt>
      <trkpt lat="44.18668" lon="3.18097">
        <ele>753.6</ele>
        <time>2019-04-19T15:15:50Z</time>
      </trkpt>
      <trkpt lat="44.18669" lon="3.18091">
        <ele>753.6</ele>
        <time>2019-04-19T15:15:49Z</time>
      </trkpt>
      <trkpt lat="44.18671" lon="3.18086">
        <ele>753.6</ele>
        <time>2019-04-19T15:15:47Z</time>
      </trkpt>
      <trkpt lat="44.18672" lon="3.1808">
        <ele>753.6</ele>
        <time>2019-04-19T15:15:29Z</time>
      </trkpt>
      <trkpt lat="44.1867" lon="3.18077">
        <ele>753.5</ele>
        <time>2019-04-19T15:15:25Z</time>
      </trkpt>
      <trkpt lat="44.18667" lon="3.18074">
        <ele>753.4</ele>
        <time>2019-04-19T15:15:23Z</time>
      </trkpt>
      <trkpt lat="44.18663" lon="3.18073">
        <ele>753.4</ele>
        <time>2019-04-19T15:15:21Z</time>
      </trkpt>
      <trkpt lat="44.1866" lon="3.1807">
        <ele>753.3</ele>
        <time>2019-04-19T15:15:19Z</time>
      </trkpt>
      <trkpt lat="44.18658" lon="3.18068">
        <ele>753.2</ele>
        <time>2019-04-19T15:15:18Z</time>
      </trkpt>
      <trkpt lat="44.18656" lon="3.18065">
        <ele>753.1</ele>
        <time>2019-04-19T15:15:17Z</time>
      </trkpt>
      <trkpt lat="44.18655" lon="3.18059">
        <ele>753</ele>
        <time>2019-04-19T15:15:15Z</time>
      </trkpt>
      <trkpt lat="44.18654" lon="3.18052">
        <ele>752.9</ele>
        <time>2019-04-19T15:15:13Z</time>
      </trkpt>
      <trkpt lat="44.18651" lon="3.18049">
        <ele>752.9</ele>
        <time>2019-04-19T15:15:11Z</time>
      </trkpt>
      <trkpt lat="44.18647" lon="3.18047">
        <ele>752.8</ele>
        <time>2019-04-19T15:15:09Z</time>
      </trkpt>
      <trkpt lat="44.18643" lon="3.18046">
        <ele>752.7</ele>
        <time>2019-04-19T15:15:07Z</time>
      </trkpt>
      <trkpt lat="44.18639" lon="3.18044">
        <ele>752.5</ele>
        <time>2019-04-19T15:15:05Z</time>
      </trkpt>
      <trkpt lat="44.18635" lon="3.18045">
        <ele>752.4</ele>
        <time>2019-04-19T15:15:03Z</time>
      </trkpt>
      <trkpt lat="44.18633" lon="3.18048">
        <ele>752.3</ele>
        <time>2019-04-19T15:15:01Z</time>
      </trkpt>
      <trkpt lat="44.18629" lon="3.18053">
        <ele>752.1</ele>
        <time>2019-04-19T15:14:59Z</time>
      </trkpt>
      <trkpt lat="44.18627" lon="3.18055">
        <ele>752</ele>
        <time>2019-04-19T15:14:58Z</time>
      </trkpt>
      <trkpt lat="44.18623" lon="3.18059">
        <ele>751.8</ele>
        <time>2019-04-19T15:14:56Z</time>
      </trkpt>
      <trkpt lat="44.18619" lon="3.18061">
        <ele>751.7</ele>
        <time>2019-04-19T15:14:54Z</time>
      </trkpt>
      <trkpt lat="44.18616" lon="3.18062">
        <ele>751.6</ele>
        <time>2019-04-19T15:14:53Z</time>
      </trkpt>
      <trkpt lat="44.18613" lon="3.18064">
        <ele>751.5</ele>
        <time>2019-04-19T15:14:52Z</time>
      </trkpt>
      <trkpt lat="44.18611" lon="3.18065">
        <ele>751.4</ele>
        <time>2019-04-19T15:14:51Z</time>
      </trkpt>
      <trkpt lat="44.18606" lon="3.18068">
        <ele>751.3</ele>
        <time>2019-04-19T15:14:49Z</time>
      </trkpt>
      <trkpt lat="44.18603" lon="3.18068">
        <ele>751.1</ele>
        <time>2019-04-19T15:14:47Z</time>
      </trkpt>
      <trkpt lat="44.186" lon="3.18067">
        <ele>751</ele>
        <time>2019-04-19T15:14:45Z</time>
      </trkpt>
      <trkpt lat="44.18597" lon="3.18065">
        <ele>750.9</ele>
        <time>2019-04-19T15:14:44Z</time>
      </trkpt>
      <trkpt lat="44.18594" lon="3.18062">
        <ele>750.9</ele>
        <time>2019-04-19T15:14:43Z</time>
      </trkpt>
      <trkpt lat="44.18591" lon="3.18058">
        <ele>750.8</ele>
        <time>2019-04-19T15:14:42Z</time>
      </trkpt>
      <trkpt lat="44.18588" lon="3.18054">
        <ele>750.7</ele>
        <time>2019-04-19T15:14:41Z</time>
      </trkpt>
      <trkpt lat="44.18585" lon="3.18049">
        <ele>750.5</ele>
        <time>2019-04-19T15:14:40Z</time>
      </trkpt>
      <trkpt lat="44.18584" lon="3.18045">
        <ele>750.4</ele>
        <time>2019-04-19T15:14:39Z</time>
      </trkpt>
      <trkpt lat="44.18584" lon="3.18039">
        <ele>750.2</ele>
        <time>2019-04-19T15:14:36Z</time>
      </trkpt>
      <trkpt lat="44.18585" lon="3.18035">
        <ele>750.1</ele>
        <time>2019-04-19T15:14:33Z</time>
      </trkpt>
      <trkpt lat="44.18587" lon="3.1803">
        <ele>750</ele>
        <time>2019-04-19T15:14:31Z</time>
      </trkpt>
      <trkpt lat="44.18584" lon="3.18026">
        <ele>749.9</ele>
        <time>2019-04-19T15:14:30Z</time>
      </trkpt>
      <trkpt lat="44.18582" lon="3.18019">
        <ele>750</ele>
        <time>2019-04-19T15:14:28Z</time>
      </trkpt>
      <trkpt lat="44.18578" lon="3.18013">
        <ele>750.3</ele>
        <time>2019-04-19T15:14:25Z</time>
      </trkpt>
      <trkpt lat="44.18581" lon="3.18011">
        <ele>750.5</ele>
        <time>2019-04-19T15:14:23Z</time>
      </trkpt>
      <trkpt lat="44.18581" lon="3.18007">
        <ele>750.7</ele>
        <time>2019-04-19T15:14:22Z</time>
      </trkpt>
      <trkpt lat="44.18581" lon="3.17994">
        <ele>751.2</ele>
        <time>2019-04-19T15:14:21Z</time>
      </trkpt>
      <trkpt lat="44.18582" lon="3.17981">
        <ele>751.6</ele>
        <time>2019-04-19T15:14:20Z</time>
      </trkpt>
      <trkpt lat="44.18583" lon="3.17976">
        <ele>751.8</ele>
        <time>2019-04-19T15:14:19Z</time>
      </trkpt>
      <trkpt lat="44.18584" lon="3.17969">
        <ele>751.9</ele>
        <time>2019-04-19T15:14:18Z</time>
      </trkpt>
      <trkpt lat="44.18585" lon="3.17957">
        <ele>752.2</ele>
        <time>2019-04-19T15:14:17Z</time>
      </trkpt>
      <trkpt lat="44.1859" lon="3.17946">
        <ele>752.7</ele>
        <time>2019-04-19T15:14:16Z</time>
      </trkpt>
      <trkpt lat="44.18595" lon="3.17935">
        <ele>753.2</ele>
        <time>2019-04-19T15:14:15Z</time>
      </trkpt>
      <trkpt lat="44.18601" lon="3.17929">
        <ele>753.7</ele>
        <time>2019-04-19T15:14:14Z</time>
      </trkpt>
      <trkpt lat="44.18604" lon="3.17928">
        <ele>753.9</ele>
        <time>2019-04-19T15:14:13Z</time>
      </trkpt>
      <trkpt lat="44.18607" lon="3.17922">
        <ele>754.3</ele>
        <time>2019-04-19T15:14:12Z</time>
      </trkpt>
      <trkpt lat="44.18608" lon="3.17916">
        <ele>754.5</ele>
        <time>2019-04-19T15:14:11Z</time>
      </trkpt>
      <trkpt lat="44.1861" lon="3.179">
        <ele>755.3</ele>
        <time>2019-04-19T15:14:10Z</time>
      </trkpt>
      <trkpt lat="44.18612" lon="3.17893">
        <ele>755.7</ele>
        <time>2019-04-19T15:14:09Z</time>
      </trkpt>
      <trkpt lat="44.18614" lon="3.17887">
        <ele>756</ele>
        <time>2019-04-19T15:14:08Z</time>
      </trkpt>
      <trkpt lat="44.18615" lon="3.17884">
        <ele>756.3</ele>
        <time>2019-04-19T15:14:07Z</time>
      </trkpt>
      <trkpt lat="44.18619" lon="3.17878">
        <ele>756.6</ele>
        <time>2019-04-19T15:14:05Z</time>
      </trkpt>
      <trkpt lat="44.18622" lon="3.17875">
        <ele>757.2</ele>
        <time>2019-04-19T15:14:03Z</time>
      </trkpt>
      <trkpt lat="44.18625" lon="3.1787">
        <ele>757.6</ele>
        <time>2019-04-19T15:13:57Z</time>
      </trkpt>
      <trkpt lat="44.18623" lon="3.17867">
        <ele>757.9</ele>
        <time>2019-04-19T15:13:54Z</time>
      </trkpt>
      <trkpt lat="44.18624" lon="3.17862">
        <ele>758.3</ele>
        <time>2019-04-19T15:13:43Z</time>
      </trkpt>
      <trkpt lat="44.18626" lon="3.17861">
        <ele>758.6</ele>
        <time>2019-04-19T15:13:42Z</time>
      </trkpt>
      <trkpt lat="44.18628" lon="3.17856">
        <ele>758.8</ele>
        <time>2019-04-19T15:13:40Z</time>
      </trkpt>
      <trkpt lat="44.18629" lon="3.17851">
        <ele>759</ele>
        <time>2019-04-19T15:12:17Z</time>
      </trkpt>
      <trkpt lat="44.18626" lon="3.1785">
        <ele>759.3</ele>
        <time>2019-04-19T15:12:08Z</time>
      </trkpt>
      <trkpt lat="44.18625" lon="3.17846">
        <ele>759.6</ele>
        <time>2019-04-19T15:12:07Z</time>
      </trkpt>
      <trkpt lat="44.18624" lon="3.17839">
        <ele>760.1</ele>
        <time>2019-04-19T15:12:06Z</time>
      </trkpt>
      <trkpt lat="44.18621" lon="3.17833">
        <ele>760.3</ele>
        <time>2019-04-19T15:12:05Z</time>
      </trkpt>
      <trkpt lat="44.18619" lon="3.17827">
        <ele>760.6</ele>
        <time>2019-04-19T15:12:04Z</time>
      </trkpt>
      <trkpt lat="44.18615" lon="3.17819">
        <ele>760.9</ele>
        <time>2019-04-19T15:12:03Z</time>
      </trkpt>
      <trkpt lat="44.18613" lon="3.17813">
        <ele>761.1</ele>
        <time>2019-04-19T15:12:02Z</time>
      </trkpt>
      <trkpt lat="44.18611" lon="3.17807">
        <ele>761.3</ele>
        <time>2019-04-19T15:12:01Z</time>
      </trkpt>
      <trkpt lat="44.18608" lon="3.17799">
        <ele>762</ele>
        <time>2019-04-19T15:12:00Z</time>
      </trkpt>
      <trkpt lat="44.18608" lon="3.17792">
        <ele>762.3</ele>
        <time>2019-04-19T15:11:59Z</time>
      </trkpt>
      <trkpt lat="44.18607" lon="3.17779">
        <ele>762.9</ele>
        <time>2019-04-19T15:11:58Z</time>
      </trkpt>
      <trkpt lat="44.18606" lon="3.17773">
        <ele>763.2</ele>
        <time>2019-04-19T15:11:57Z</time>
      </trkpt>
      <trkpt lat="44.18604" lon="3.17767">
        <ele>763.3</ele>
        <time>2019-04-19T15:11:56Z</time>
      </trkpt>
      <trkpt lat="44.18603" lon="3.17762">
        <ele>763.5</ele>
        <time>2019-04-19T15:11:55Z</time>
      </trkpt>
      <trkpt lat="44.18602" lon="3.17757">
        <ele>763.6</ele>
        <time>2019-04-19T15:11:54Z</time>
      </trkpt>
      <trkpt lat="44.18602" lon="3.17753">
        <ele>763.7</ele>
        <time>2019-04-19T15:11:53Z</time>
      </trkpt>
      <trkpt lat="44.18603" lon="3.17747">
        <ele>763.8</ele>
        <time>2019-04-19T15:11:51Z</time>
      </trkpt>
      <trkpt lat="44.18605" lon="3.17741">
        <ele>763.9</ele>
        <time>2019-04-19T15:11:49Z</time>
      </trkpt>
      <trkpt lat="44.18606" lon="3.17734">
        <ele>764</ele>
        <time>2019-04-19T15:11:47Z</time>
      </trkpt>
      <trkpt lat="44.18607" lon="3.1773">
        <ele>764.1</ele>
        <time>2019-04-19T15:11:46Z</time>
      </trkpt>
      <trkpt lat="44.18607" lon="3.17726">
        <ele>764.1</ele>
        <time>2019-04-19T15:11:45Z</time>
      </trkpt>
      <trkpt lat="44.18607" lon="3.17721">
        <ele>764.2</ele>
        <time>2019-04-19T15:11:44Z</time>
      </trkpt>
      <trkpt lat="44.18606" lon="3.17717">
        <ele>764.3</ele>
        <time>2019-04-19T15:11:43Z</time>
      </trkpt>
      <trkpt lat="44.18603" lon="3.17712">
        <ele>764.3</ele>
        <time>2019-04-19T15:11:41Z</time>
      </trkpt>
      <trkpt lat="44.18601" lon="3.17708">
        <ele>764.4</ele>
        <time>2019-04-19T15:11:40Z</time>
      </trkpt>
      <trkpt lat="44.18599" lon="3.17705">
        <ele>764.4</ele>
        <time>2019-04-19T15:11:39Z</time>
      </trkpt>
      <trkpt lat="44.18596" lon="3.17701">
        <ele>764.5</ele>
        <time>2019-04-19T15:11:38Z</time>
      </trkpt>
      <trkpt lat="44.18594" lon="3.17697">
        <ele>764.6</ele>
        <time>2019-04-19T15:11:37Z</time>
      </trkpt>
      <trkpt lat="44.18591" lon="3.17693">
        <ele>764.6</ele>
        <time>2019-04-19T15:11:36Z</time>
      </trkpt>
      <trkpt lat="44.18586" lon="3.17688">
        <ele>764.7</ele>
        <time>2019-04-19T15:11:34Z</time>
      </trkpt>
      <trkpt lat="44.18582" lon="3.17685">
        <ele>764.8</ele>
        <time>2019-04-19T15:11:33Z</time>
      </trkpt>
      <trkpt lat="44.1858" lon="3.17681">
        <ele>764.9</ele>
        <time>2019-04-19T15:11:32Z</time>
      </trkpt>
      <trkpt lat="44.18577" lon="3.17675">
        <ele>765.1</ele>
        <time>2019-04-19T15:11:31Z</time>
      </trkpt>
      <trkpt lat="44.18575" lon="3.1767">
        <ele>765.3</ele>
        <time>2019-04-19T15:11:30Z</time>
      </trkpt>
      <trkpt lat="44.18574" lon="3.17664">
        <ele>765.4</ele>
        <time>2019-04-19T15:11:29Z</time>
      </trkpt>
      <trkpt lat="44.18573" lon="3.17657">
        <ele>765.6</ele>
        <time>2019-04-19T15:11:28Z</time>
      </trkpt>
      <trkpt lat="44.18571" lon="3.17647">
        <ele>765.8</ele>
        <time>2019-04-19T15:11:27Z</time>
      </trkpt>
      <trkpt lat="44.18571" lon="3.17641">
        <ele>766</ele>
        <time>2019-04-19T15:11:26Z</time>
      </trkpt>
      <trkpt lat="44.18571" lon="3.17634">
        <ele>766.1</ele>
        <time>2019-04-19T15:11:25Z</time>
      </trkpt>
      <trkpt lat="44.18573" lon="3.17627">
        <ele>766.3</ele>
        <time>2019-04-19T15:11:24Z</time>
      </trkpt>
      <trkpt lat="44.18575" lon="3.17622">
        <ele>766.4</ele>
        <time>2019-04-19T15:11:23Z</time>
      </trkpt>
      <trkpt lat="44.18577" lon="3.17617">
        <ele>766.5</ele>
        <time>2019-04-19T15:11:22Z</time>
      </trkpt>
      <trkpt lat="44.18577" lon="3.1761">
        <ele>766.6</ele>
        <time>2019-04-19T15:11:21Z</time>
      </trkpt>
      <trkpt lat="44.18575" lon="3.17604">
        <ele>766.8</ele>
        <time>2019-04-19T15:11:20Z</time>
      </trkpt>
      <trkpt lat="44.18575" lon="3.17596">
        <ele>766.9</ele>
        <time>2019-04-19T15:11:19Z</time>
      </trkpt>
      <trkpt lat="44.18573" lon="3.17592">
        <ele>766.9</ele>
        <time>2019-04-19T15:11:18Z</time>
      </trkpt>
      <trkpt lat="44.18568" lon="3.17589">
        <ele>766.9</ele>
        <time>2019-04-19T15:11:17Z</time>
      </trkpt>
      <trkpt lat="44.18562" lon="3.17586">
        <ele>766.9</ele>
        <time>2019-04-19T15:11:15Z</time>
      </trkpt>
      <trkpt lat="44.18559" lon="3.17586">
        <ele>766.9</ele>
        <time>2019-04-19T15:11:14Z</time>
      </trkpt>
      <trkpt lat="44.18552" lon="3.17586">
        <ele>766.8</ele>
        <time>2019-04-19T15:11:12Z</time>
      </trkpt>
      <trkpt lat="44.18548" lon="3.17588">
        <ele>766.8</ele>
        <time>2019-04-19T15:11:10Z</time>
      </trkpt>
      <trkpt lat="44.18545" lon="3.17581">
        <ele>766.7</ele>
        <time>2019-04-19T15:11:09Z</time>
      </trkpt>
      <trkpt lat="44.18542" lon="3.17574">
        <ele>766.7</ele>
        <time>2019-04-19T15:11:08Z</time>
      </trkpt>
      <trkpt lat="44.18542" lon="3.17569">
        <ele>766.6</ele>
        <time>2019-04-19T15:11:07Z</time>
      </trkpt>
      <trkpt lat="44.18541" lon="3.17559">
        <ele>766.6</ele>
        <time>2019-04-19T15:11:06Z</time>
      </trkpt>
      <trkpt lat="44.18538" lon="3.1755">
        <ele>766.7</ele>
        <time>2019-04-19T15:11:05Z</time>
      </trkpt>
      <trkpt lat="44.18534" lon="3.17538">
        <ele>766.9</ele>
        <time>2019-04-19T15:11:04Z</time>
      </trkpt>
      <trkpt lat="44.18527" lon="3.17533">
        <ele>767.3</ele>
        <time>2019-04-19T15:11:03Z</time>
      </trkpt>
      <trkpt lat="44.1852" lon="3.17528">
        <ele>767.6</ele>
        <time>2019-04-19T15:11:02Z</time>
      </trkpt>
      <trkpt lat="44.18512" lon="3.17524">
        <ele>767.9</ele>
        <time>2019-04-19T15:11:01Z</time>
      </trkpt>
      <trkpt lat="44.18506" lon="3.1752">
        <ele>767.9</ele>
        <time>2019-04-19T15:11:00Z</time>
      </trkpt>
      <trkpt lat="44.18499" lon="3.17518">
        <ele>767.6</ele>
        <time>2019-04-19T15:10:59Z</time>
      </trkpt>
      <trkpt lat="44.18493" lon="3.17517">
        <ele>767.4</ele>
        <time>2019-04-19T15:10:58Z</time>
      </trkpt>
      <trkpt lat="44.18488" lon="3.17516">
        <ele>767.3</ele>
        <time>2019-04-19T15:10:57Z</time>
      </trkpt>
      <trkpt lat="44.18482" lon="3.17515">
        <ele>767.5</ele>
        <time>2019-04-19T15:10:56Z</time>
      </trkpt>
      <trkpt lat="44.18476" lon="3.17512">
        <ele>768</ele>
        <time>2019-04-19T15:10:55Z</time>
      </trkpt>
      <trkpt lat="44.18471" lon="3.17508">
        <ele>768.4</ele>
        <time>2019-04-19T15:10:54Z</time>
      </trkpt>
      <trkpt lat="44.18464" lon="3.17503">
        <ele>769</ele>
        <time>2019-04-19T15:10:53Z</time>
      </trkpt>
      <trkpt lat="44.18462" lon="3.17497">
        <ele>769.4</ele>
        <time>2019-04-19T15:10:52Z</time>
      </trkpt>
      <trkpt lat="44.1846" lon="3.17493">
        <ele>769.7</ele>
        <time>2019-04-19T15:10:51Z</time>
      </trkpt>
      <trkpt lat="44.18459" lon="3.17488">
        <ele>770.1</ele>
        <time>2019-04-19T15:10:50Z</time>
      </trkpt>
      <trkpt lat="44.18458" lon="3.17482">
        <ele>770.4</ele>
        <time>2019-04-19T15:10:49Z</time>
      </trkpt>
      <trkpt lat="44.18458" lon="3.17476">
        <ele>770.7</ele>
        <time>2019-04-19T15:10:48Z</time>
      </trkpt>
      <trkpt lat="44.18457" lon="3.1747">
        <ele>771</ele>
        <time>2019-04-19T15:10:47Z</time>
      </trkpt>
      <trkpt lat="44.18457" lon="3.17465">
        <ele>771.3</ele>
        <time>2019-04-19T15:10:46Z</time>
      </trkpt>
      <trkpt lat="44.18457" lon="3.1746">
        <ele>771.7</ele>
        <time>2019-04-19T15:10:45Z</time>
      </trkpt>
      <trkpt lat="44.18456" lon="3.17454">
        <ele>772.1</ele>
        <time>2019-04-19T15:10:44Z</time>
      </trkpt>
      <trkpt lat="44.18457" lon="3.17449">
        <ele>772.5</ele>
        <time>2019-04-19T15:10:43Z</time>
      </trkpt>
      <trkpt lat="44.18457" lon="3.17443">
        <ele>772.9</ele>
        <time>2019-04-19T15:10:42Z</time>
      </trkpt>
      <trkpt lat="44.18457" lon="3.17439">
        <ele>773.2</ele>
        <time>2019-04-19T15:10:41Z</time>
      </trkpt>
      <trkpt lat="44.18457" lon="3.17434">
        <ele>773.5</ele>
        <time>2019-04-19T15:10:40Z</time>
      </trkpt>
      <trkpt lat="44.18457" lon="3.17429">
        <ele>773.7</ele>
        <time>2019-04-19T15:10:39Z</time>
      </trkpt>
      <trkpt lat="44.18456" lon="3.17424">
        <ele>774</ele>
        <time>2019-04-19T15:10:38Z</time>
      </trkpt>
      <trkpt lat="44.18455" lon="3.17419">
        <ele>774.3</ele>
        <time>2019-04-19T15:10:37Z</time>
      </trkpt>
      <trkpt lat="44.18453" lon="3.17414">
        <ele>774.7</ele>
        <time>2019-04-19T15:10:36Z</time>
      </trkpt>
      <trkpt lat="44.18452" lon="3.17408">
        <ele>775</ele>
        <time>2019-04-19T15:10:35Z</time>
      </trkpt>
      <trkpt lat="44.18451" lon="3.17404">
        <ele>775.1</ele>
        <time>2019-04-19T15:10:34Z</time>
      </trkpt>
      <trkpt lat="44.18451" lon="3.174">
        <ele>775.2</ele>
        <time>2019-04-19T15:10:33Z</time>
      </trkpt>
      <trkpt lat="44.18451" lon="3.17396">
        <ele>775.3</ele>
        <time>2019-04-19T15:10:32Z</time>
      </trkpt>
      <trkpt lat="44.18452" lon="3.17393">
        <ele>775.4</ele>
        <time>2019-04-19T15:10:31Z</time>
      </trkpt>
      <trkpt lat="44.18451" lon="3.17388">
        <ele>775.4</ele>
        <time>2019-04-19T15:10:27Z</time>
      </trkpt>
      <trkpt lat="44.18451" lon="3.17392">
        <ele>775.5</ele>
        <time>2019-04-19T15:10:25Z</time>
      </trkpt>
      <trkpt lat="44.18451" lon="3.17396">
        <ele>775.5</ele>
        <time>2019-04-19T15:10:23Z</time>
      </trkpt>
      <trkpt lat="44.1845" lon="3.17401">
        <ele>775.6</ele>
        <time>2019-04-19T15:10:21Z</time>
      </trkpt>
      <trkpt lat="44.18452" lon="3.17407">
        <ele>775.7</ele>
        <time>2019-04-19T15:10:19Z</time>
      </trkpt>
      <trkpt lat="44.18455" lon="3.17412">
        <ele>775.7</ele>
        <time>2019-04-19T15:10:17Z</time>
      </trkpt>
      <trkpt lat="44.18456" lon="3.17416">
        <ele>775.7</ele>
        <time>2019-04-19T15:10:16Z</time>
      </trkpt>
      <trkpt lat="44.18456" lon="3.1742">
        <ele>775.7</ele>
        <time>2019-04-19T15:10:15Z</time>
      </trkpt>
      <trkpt lat="44.18457" lon="3.17424">
        <ele>775.7</ele>
        <time>2019-04-19T15:10:14Z</time>
      </trkpt>
      <trkpt lat="44.18458" lon="3.17432">
        <ele>775.8</ele>
        <time>2019-04-19T15:10:12Z</time>
      </trkpt>
      <trkpt lat="44.18457" lon="3.17438">
        <ele>775.8</ele>
        <time>2019-04-19T15:10:10Z</time>
      </trkpt>
      <trkpt lat="44.18454" lon="3.17439">
        <ele>775.8</ele>
        <time>2019-04-19T15:10:08Z</time>
      </trkpt>
      <trkpt lat="44.1845" lon="3.17438">
        <ele>775.9</ele>
        <time>2019-04-19T15:10:03Z</time>
      </trkpt>
      <trkpt lat="44.18447" lon="3.17437">
        <ele>775.9</ele>
        <time>2019-04-19T15:10:01Z</time>
      </trkpt>
      <trkpt lat="44.18445" lon="3.1744">
        <ele>775.9</ele>
        <time>2019-04-19T15:09:57Z</time>
      </trkpt>
      <trkpt lat="44.18443" lon="3.17442">
        <ele>776</ele>
        <time>2019-04-19T15:09:50Z</time>
      </trkpt>
      <trkpt lat="44.18445" lon="3.17439">
        <ele>776.1</ele>
        <time>2019-04-19T15:09:40Z</time>
      </trkpt>
      <trkpt lat="44.18442" lon="3.17439">
        <ele>776.3</ele>
        <time>2019-04-19T15:09:37Z</time>
      </trkpt>
      <trkpt lat="44.1844" lon="3.17435">
        <ele>776.5</ele>
        <time>2019-04-19T15:09:35Z</time>
      </trkpt>
      <trkpt lat="44.18437" lon="3.17432">
        <ele>776.7</ele>
        <time>2019-04-19T15:09:33Z</time>
      </trkpt>
      <trkpt lat="44.18434" lon="3.17432">
        <ele>776.9</ele>
        <time>2019-04-19T15:09:32Z</time>
      </trkpt>
      <trkpt lat="44.18431" lon="3.17433">
        <ele>777.1</ele>
        <time>2019-04-19T15:09:31Z</time>
      </trkpt>
      <trkpt lat="44.18428" lon="3.17435">
        <ele>777.2</ele>
        <time>2019-04-19T15:09:30Z</time>
      </trkpt>
      <trkpt lat="44.18425" lon="3.17437">
        <ele>777.3</ele>
        <time>2019-04-19T15:09:29Z</time>
      </trkpt>
      <trkpt lat="44.18423" lon="3.17438">
        <ele>777.5</ele>
        <time>2019-04-19T15:09:28Z</time>
      </trkpt>
      <trkpt lat="44.1842" lon="3.17439">
        <ele>777.7</ele>
        <time>2019-04-19T15:09:27Z</time>
      </trkpt>
      <trkpt lat="44.18415" lon="3.17437">
        <ele>778.2</ele>
        <time>2019-04-19T15:09:25Z</time>
      </trkpt>
      <trkpt lat="44.18413" lon="3.17432">
        <ele>778.6</ele>
        <time>2019-04-19T15:09:22Z</time>
      </trkpt>
      <trkpt lat="44.18411" lon="3.17424">
        <ele>779</ele>
        <time>2019-04-19T15:08:52Z</time>
      </trkpt>
      <trkpt lat="44.18409" lon="3.17421">
        <ele>779.2</ele>
        <time>2019-04-19T15:08:50Z</time>
      </trkpt>
      <trkpt lat="44.18406" lon="3.17417">
        <ele>779.5</ele>
        <time>2019-04-19T15:08:48Z</time>
      </trkpt>
      <trkpt lat="44.18403" lon="3.17414">
        <ele>779.8</ele>
        <time>2019-04-19T15:08:46Z</time>
      </trkpt>
      <trkpt lat="44.18399" lon="3.17412">
        <ele>780.1</ele>
        <time>2019-04-19T15:08:44Z</time>
      </trkpt>
      <trkpt lat="44.18396" lon="3.17408">
        <ele>780.5</ele>
        <time>2019-04-19T15:08:42Z</time>
      </trkpt>
      <trkpt lat="44.18395" lon="3.17403">
        <ele>780.8</ele>
        <time>2019-04-19T15:08:40Z</time>
      </trkpt>
      <trkpt lat="44.18394" lon="3.17397">
        <ele>781.1</ele>
        <time>2019-04-19T15:08:38Z</time>
      </trkpt>
      <trkpt lat="44.18392" lon="3.17391">
        <ele>781.2</ele>
        <time>2019-04-19T15:08:36Z</time>
      </trkpt>
      <trkpt lat="44.1839" lon="3.17386">
        <ele>781.2</ele>
        <time>2019-04-19T15:08:34Z</time>
      </trkpt>
      <trkpt lat="44.18389" lon="3.17382">
        <ele>781.3</ele>
        <time>2019-04-19T15:08:32Z</time>
      </trkpt>
      <trkpt lat="44.1839" lon="3.17378">
        <ele>781.3</ele>
        <time>2019-04-19T15:08:14Z</time>
      </trkpt>
      <trkpt lat="44.18387" lon="3.17376">
        <ele>781.3</ele>
        <time>2019-04-19T15:08:12Z</time>
      </trkpt>
      <trkpt lat="44.18385" lon="3.17379">
        <ele>781.2</ele>
        <time>2019-04-19T15:07:41Z</time>
      </trkpt>
      <trkpt lat="44.18383" lon="3.17375">
        <ele>781.1</ele>
        <time>2019-04-19T15:07:37Z</time>
      </trkpt>
      <trkpt lat="44.18383" lon="3.17371">
        <ele>780.9</ele>
        <time>2019-04-19T15:05:44Z</time>
      </trkpt>
      <trkpt lat="44.18382" lon="3.17367">
        <ele>780.8</ele>
        <time>2019-04-19T15:05:42Z</time>
      </trkpt>
      <trkpt lat="44.18382" lon="3.17362">
        <ele>780.6</ele>
        <time>2019-04-19T15:05:41Z</time>
      </trkpt>
      <trkpt lat="44.18383" lon="3.17357">
        <ele>780.4</ele>
        <time>2019-04-19T15:05:40Z</time>
      </trkpt>
      <trkpt lat="44.18383" lon="3.17352">
        <ele>780.2</ele>
        <time>2019-04-19T15:05:39Z</time>
      </trkpt>
      <trkpt lat="44.18384" lon="3.17346">
        <ele>780</ele>
        <time>2019-04-19T15:05:38Z</time>
      </trkpt>
      <trkpt lat="44.18384" lon="3.1734">
        <ele>779.7</ele>
        <time>2019-04-19T15:05:37Z</time>
      </trkpt>
      <trkpt lat="44.18385" lon="3.17335">
        <ele>779.5</ele>
        <time>2019-04-19T15:05:36Z</time>
      </trkpt>
      <trkpt lat="44.18386" lon="3.17329">
        <ele>779.3</ele>
        <time>2019-04-19T15:05:35Z</time>
      </trkpt>
      <trkpt lat="44.18387" lon="3.17324">
        <ele>779.1</ele>
        <time>2019-04-19T15:05:34Z</time>
      </trkpt>
      <trkpt lat="44.18388" lon="3.17319">
        <ele>779</ele>
        <time>2019-04-19T15:05:33Z</time>
      </trkpt>
      <trkpt lat="44.18389" lon="3.17312">
        <ele>778.7</ele>
        <time>2019-04-19T15:05:32Z</time>
      </trkpt>
      <trkpt lat="44.1839" lon="3.17306">
        <ele>778.5</ele>
        <time>2019-04-19T15:05:31Z</time>
      </trkpt>
      <trkpt lat="44.1839" lon="3.17302">
        <ele>778.4</ele>
        <time>2019-04-19T15:05:30Z</time>
      </trkpt>
      <trkpt lat="44.18391" lon="3.17296">
        <ele>778.2</ele>
        <time>2019-04-19T15:05:29Z</time>
      </trkpt>
      <trkpt lat="44.18392" lon="3.17291">
        <ele>778</ele>
        <time>2019-04-19T15:05:28Z</time>
      </trkpt>
      <trkpt lat="44.18393" lon="3.17287">
        <ele>777.9</ele>
        <time>2019-04-19T15:05:27Z</time>
      </trkpt>
      <trkpt lat="44.18395" lon="3.17282">
        <ele>777.7</ele>
        <time>2019-04-19T15:05:26Z</time>
      </trkpt>
      <trkpt lat="44.18395" lon="3.17274">
        <ele>777.6</ele>
        <time>2019-04-19T15:05:25Z</time>
      </trkpt>
      <trkpt lat="44.18395" lon="3.17267">
        <ele>777.5</ele>
        <time>2019-04-19T15:05:24Z</time>
      </trkpt>
      <trkpt lat="44.18397" lon="3.17263">
        <ele>777.4</ele>
        <time>2019-04-19T15:05:23Z</time>
      </trkpt>
      <trkpt lat="44.18397" lon="3.17256">
        <ele>777.4</ele>
        <time>2019-04-19T15:05:22Z</time>
      </trkpt>
      <trkpt lat="44.18398" lon="3.17249">
        <ele>777.4</ele>
        <time>2019-04-19T15:05:21Z</time>
      </trkpt>
      <trkpt lat="44.184" lon="3.17243">
        <ele>777.5</ele>
        <time>2019-04-19T15:05:20Z</time>
      </trkpt>
      <trkpt lat="44.18402" lon="3.17235">
        <ele>777.5</ele>
        <time>2019-04-19T15:05:19Z</time>
      </trkpt>
      <trkpt lat="44.18404" lon="3.17228">
        <ele>777.5</ele>
        <time>2019-04-19T15:05:18Z</time>
      </trkpt>
      <trkpt lat="44.18406" lon="3.17221">
        <ele>777.5</ele>
        <time>2019-04-19T15:05:17Z</time>
      </trkpt>
      <trkpt lat="44.18407" lon="3.17214">
        <ele>777.6</ele>
        <time>2019-04-19T15:05:16Z</time>
      </trkpt>
      <trkpt lat="44.18408" lon="3.17207">
        <ele>777.6</ele>
        <time>2019-04-19T15:05:15Z</time>
      </trkpt>
      <trkpt lat="44.18411" lon="3.172">
        <ele>777.6</ele>
        <time>2019-04-19T15:05:14Z</time>
      </trkpt>
      <trkpt lat="44.18413" lon="3.17195">
        <ele>777.7</ele>
        <time>2019-04-19T15:05:13Z</time>
      </trkpt>
      <trkpt lat="44.18412" lon="3.1719">
        <ele>777.7</ele>
        <time>2019-04-19T15:05:12Z</time>
      </trkpt>
      <trkpt lat="44.18412" lon="3.17181">
        <ele>777.7</ele>
        <time>2019-04-19T15:05:11Z</time>
      </trkpt>
      <trkpt lat="44.18413" lon="3.17175">
        <ele>777.8</ele>
        <time>2019-04-19T15:05:10Z</time>
      </trkpt>
      <trkpt lat="44.18414" lon="3.17169">
        <ele>777.8</ele>
        <time>2019-04-19T15:05:09Z</time>
      </trkpt>
      <trkpt lat="44.18415" lon="3.17162">
        <ele>777.8</ele>
        <time>2019-04-19T15:05:08Z</time>
      </trkpt>
      <trkpt lat="44.18418" lon="3.17158">
        <ele>777.8</ele>
        <time>2019-04-19T15:05:07Z</time>
      </trkpt>
      <trkpt lat="44.18421" lon="3.17154">
        <ele>777.8</ele>
        <time>2019-04-19T15:05:06Z</time>
      </trkpt>
      <trkpt lat="44.18423" lon="3.17149">
        <ele>777.8</ele>
        <time>2019-04-19T15:05:05Z</time>
      </trkpt>
      <trkpt lat="44.18425" lon="3.17146">
        <ele>777.8</ele>
        <time>2019-04-19T15:05:04Z</time>
      </trkpt>
      <trkpt lat="44.18428" lon="3.17144">
        <ele>777.8</ele>
        <time>2019-04-19T15:05:03Z</time>
      </trkpt>
      <trkpt lat="44.18431" lon="3.17142">
        <ele>777.8</ele>
        <time>2019-04-19T15:05:02Z</time>
      </trkpt>
      <trkpt lat="44.18435" lon="3.17141">
        <ele>777.8</ele>
        <time>2019-04-19T15:05:01Z</time>
      </trkpt>
      <trkpt lat="44.18439" lon="3.1714">
        <ele>777.9</ele>
        <time>2019-04-19T15:05:00Z</time>
      </trkpt>
      <trkpt lat="44.18442" lon="3.17139">
        <ele>777.9</ele>
        <time>2019-04-19T15:04:59Z</time>
      </trkpt>
      <trkpt lat="44.18446" lon="3.17138">
        <ele>777.9</ele>
        <time>2019-04-19T15:04:58Z</time>
      </trkpt>
      <trkpt lat="44.18452" lon="3.17135">
        <ele>778</ele>
        <time>2019-04-19T15:04:57Z</time>
      </trkpt>
      <trkpt lat="44.18456" lon="3.17133">
        <ele>778</ele>
        <time>2019-04-19T15:04:56Z</time>
      </trkpt>
      <trkpt lat="44.18459" lon="3.17126">
        <ele>778.1</ele>
        <time>2019-04-19T15:04:55Z</time>
      </trkpt>
      <trkpt lat="44.18464" lon="3.17123">
        <ele>778.3</ele>
        <time>2019-04-19T15:04:54Z</time>
      </trkpt>
      <trkpt lat="44.18468" lon="3.17119">
        <ele>778.3</ele>
        <time>2019-04-19T15:04:53Z</time>
      </trkpt>
      <trkpt lat="44.18472" lon="3.17116">
        <ele>778.4</ele>
        <time>2019-04-19T15:04:52Z</time>
      </trkpt>
      <trkpt lat="44.18475" lon="3.17111">
        <ele>778.5</ele>
        <time>2019-04-19T15:04:51Z</time>
      </trkpt>
      <trkpt lat="44.18478" lon="3.17105">
        <ele>778.6</ele>
        <time>2019-04-19T15:04:50Z</time>
      </trkpt>
      <trkpt lat="44.18482" lon="3.17102">
        <ele>778.7</ele>
        <time>2019-04-19T15:04:49Z</time>
      </trkpt>
      <trkpt lat="44.18485" lon="3.17096">
        <ele>778.8</ele>
        <time>2019-04-19T15:04:48Z</time>
      </trkpt>
      <trkpt lat="44.18487" lon="3.17091">
        <ele>778.8</ele>
        <time>2019-04-19T15:04:47Z</time>
      </trkpt>
      <trkpt lat="44.18492" lon="3.17087">
        <ele>778.8</ele>
        <time>2019-04-19T15:04:46Z</time>
      </trkpt>
      <trkpt lat="44.18496" lon="3.17085">
        <ele>778.8</ele>
        <time>2019-04-19T15:04:45Z</time>
      </trkpt>
      <trkpt lat="44.185" lon="3.17081">
        <ele>778.8</ele>
        <time>2019-04-19T15:04:44Z</time>
      </trkpt>
      <trkpt lat="44.18505" lon="3.17081">
        <ele>778.7</ele>
        <time>2019-04-19T15:04:43Z</time>
      </trkpt>
      <trkpt lat="44.18509" lon="3.17081">
        <ele>778.6</ele>
        <time>2019-04-19T15:04:42Z</time>
      </trkpt>
      <trkpt lat="44.18512" lon="3.17077">
        <ele>778.5</ele>
        <time>2019-04-19T15:04:41Z</time>
      </trkpt>
      <trkpt lat="44.18518" lon="3.17077">
        <ele>778.4</ele>
        <time>2019-04-19T15:04:40Z</time>
      </trkpt>
      <trkpt lat="44.18523" lon="3.17076">
        <ele>778.2</ele>
        <time>2019-04-19T15:04:39Z</time>
      </trkpt>
      <trkpt lat="44.18528" lon="3.17074">
        <ele>778.1</ele>
        <time>2019-04-19T15:04:38Z</time>
      </trkpt>
      <trkpt lat="44.18533" lon="3.17073">
        <ele>777.9</ele>
        <time>2019-04-19T15:04:37Z</time>
      </trkpt>
      <trkpt lat="44.18538" lon="3.17072">
        <ele>777.8</ele>
        <time>2019-04-19T15:04:36Z</time>
      </trkpt>
      <trkpt lat="44.18543" lon="3.17071">
        <ele>777.6</ele>
        <time>2019-04-19T15:04:35Z</time>
      </trkpt>
      <trkpt lat="44.18547" lon="3.17071">
        <ele>777.4</ele>
        <time>2019-04-19T15:04:34Z</time>
      </trkpt>
      <trkpt lat="44.18555" lon="3.17068">
        <ele>777.3</ele>
        <time>2019-04-19T15:04:33Z</time>
      </trkpt>
      <trkpt lat="44.18559" lon="3.17068">
        <ele>777.2</ele>
        <time>2019-04-19T15:04:32Z</time>
      </trkpt>
      <trkpt lat="44.18564" lon="3.17068">
        <ele>777.1</ele>
        <time>2019-04-19T15:04:31Z</time>
      </trkpt>
      <trkpt lat="44.18569" lon="3.17068">
        <ele>777</ele>
        <time>2019-04-19T15:04:30Z</time>
      </trkpt>
      <trkpt lat="44.18573" lon="3.17069">
        <ele>776.9</ele>
        <time>2019-04-19T15:04:29Z</time>
      </trkpt>
      <trkpt lat="44.18576" lon="3.1707">
        <ele>776.8</ele>
        <time>2019-04-19T15:04:28Z</time>
      </trkpt>
      <trkpt lat="44.1858" lon="3.17071">
        <ele>776.7</ele>
        <time>2019-04-19T15:04:27Z</time>
      </trkpt>
      <trkpt lat="44.18584" lon="3.17072">
        <ele>776.6</ele>
        <time>2019-04-19T15:04:26Z</time>
      </trkpt>
      <trkpt lat="44.18588" lon="3.17073">
        <ele>776.6</ele>
        <time>2019-04-19T15:04:25Z</time>
      </trkpt>
      <trkpt lat="44.18592" lon="3.17074">
        <ele>776.5</ele>
        <time>2019-04-19T15:04:24Z</time>
      </trkpt>
      <trkpt lat="44.18595" lon="3.17075">
        <ele>776.4</ele>
        <time>2019-04-19T15:04:23Z</time>
      </trkpt>
      <trkpt lat="44.18598" lon="3.17076">
        <ele>776.3</ele>
        <time>2019-04-19T15:04:22Z</time>
      </trkpt>
      <trkpt lat="44.18602" lon="3.17077">
        <ele>776.3</ele>
        <time>2019-04-19T15:04:21Z</time>
      </trkpt>
      <trkpt lat="44.18605" lon="3.17078">
        <ele>776.2</ele>
        <time>2019-04-19T15:04:20Z</time>
      </trkpt>
      <trkpt lat="44.18609" lon="3.17079">
        <ele>776.1</ele>
        <time>2019-04-19T15:04:18Z</time>
      </trkpt>
      <trkpt lat="44.18614" lon="3.17079">
        <ele>776</ele>
        <time>2019-04-19T15:04:16Z</time>
      </trkpt>
      <trkpt lat="44.18619" lon="3.1708">
        <ele>775.8</ele>
        <time>2019-04-19T15:04:14Z</time>
      </trkpt>
      <trkpt lat="44.18623" lon="3.1708">
        <ele>775.7</ele>
        <time>2019-04-19T15:04:12Z</time>
      </trkpt>
      <trkpt lat="44.18628" lon="3.1708">
        <ele>775.6</ele>
        <time>2019-04-19T15:04:10Z</time>
      </trkpt>
      <trkpt lat="44.18633" lon="3.1708">
        <ele>775.6</ele>
        <time>2019-04-19T15:04:08Z</time>
      </trkpt>
      <trkpt lat="44.18636" lon="3.17079">
        <ele>775.5</ele>
        <time>2019-04-19T15:04:07Z</time>
      </trkpt>
      <trkpt lat="44.18639" lon="3.17079">
        <ele>775.5</ele>
        <time>2019-04-19T15:04:06Z</time>
      </trkpt>
      <trkpt lat="44.18642" lon="3.17079">
        <ele>775.4</ele>
        <time>2019-04-19T15:04:05Z</time>
      </trkpt>
      <trkpt lat="44.18644" lon="3.17079">
        <ele>775.3</ele>
        <time>2019-04-19T15:04:04Z</time>
      </trkpt>
      <trkpt lat="44.18647" lon="3.17078">
        <ele>775.3</ele>
        <time>2019-04-19T15:04:03Z</time>
      </trkpt>
      <trkpt lat="44.18651" lon="3.17078">
        <ele>775.2</ele>
        <time>2019-04-19T15:04:02Z</time>
      </trkpt>
      <trkpt lat="44.18654" lon="3.17078">
        <ele>775.2</ele>
        <time>2019-04-19T15:04:01Z</time>
      </trkpt>
      <trkpt lat="44.18658" lon="3.17076">
        <ele>775.1</ele>
        <time>2019-04-19T15:03:59Z</time>
      </trkpt>
      <trkpt lat="44.1866" lon="3.17073">
        <ele>775.1</ele>
        <time>2019-04-19T15:03:58Z</time>
      </trkpt>
      <trkpt lat="44.18661" lon="3.17069">
        <ele>775</ele>
        <time>2019-04-19T15:03:57Z</time>
      </trkpt>
      <trkpt lat="44.18663" lon="3.17066">
        <ele>775</ele>
        <time>2019-04-19T15:03:56Z</time>
      </trkpt>
      <trkpt lat="44.18666" lon="3.17061">
        <ele>774.9</ele>
        <time>2019-04-19T15:03:54Z</time>
      </trkpt>
      <trkpt lat="44.1867" lon="3.17057">
        <ele>774.8</ele>
        <time>2019-04-19T15:03:52Z</time>
      </trkpt>
      <trkpt lat="44.18672" lon="3.17052">
        <ele>774.8</ele>
        <time>2019-04-19T15:03:50Z</time>
      </trkpt>
      <trkpt lat="44.18675" lon="3.17047">
        <ele>774.7</ele>
        <time>2019-04-19T15:03:48Z</time>
      </trkpt>
      <trkpt lat="44.18676" lon="3.1704">
        <ele>774.6</ele>
        <time>2019-04-19T15:03:46Z</time>
      </trkpt>
      <trkpt lat="44.18677" lon="3.17035">
        <ele>774.5</ele>
        <time>2019-04-19T15:03:44Z</time>
      </trkpt>
      <trkpt lat="44.18677" lon="3.17031">
        <ele>774.5</ele>
        <time>2019-04-19T15:03:43Z</time>
      </trkpt>
      <trkpt lat="44.18679" lon="3.17024">
        <ele>774.4</ele>
        <time>2019-04-19T15:03:41Z</time>
      </trkpt>
      <trkpt lat="44.1868" lon="3.17021">
        <ele>774.3</ele>
        <time>2019-04-19T15:03:40Z</time>
      </trkpt>
      <trkpt lat="44.18682" lon="3.17015">
        <ele>774.2</ele>
        <time>2019-04-19T15:03:39Z</time>
      </trkpt>
      <trkpt lat="44.18682" lon="3.1701">
        <ele>774.1</ele>
        <time>2019-04-19T15:03:38Z</time>
      </trkpt>
      <trkpt lat="44.1868" lon="3.16997">
        <ele>774.1</ele>
        <time>2019-04-19T15:03:37Z</time>
      </trkpt>
      <trkpt lat="44.18679" lon="3.16991">
        <ele>774</ele>
        <time>2019-04-19T15:03:36Z</time>
      </trkpt>
      <trkpt lat="44.18677" lon="3.16985">
        <ele>773.9</ele>
        <time>2019-04-19T15:03:35Z</time>
      </trkpt>
      <trkpt lat="44.18675" lon="3.16979">
        <ele>773.9</ele>
        <time>2019-04-19T15:03:34Z</time>
      </trkpt>
      <trkpt lat="44.18674" lon="3.16973">
        <ele>773.8</ele>
        <time>2019-04-19T15:03:33Z</time>
      </trkpt>
      <trkpt lat="44.18673" lon="3.16968">
        <ele>773.8</ele>
        <time>2019-04-19T15:03:32Z</time>
      </trkpt>
      <trkpt lat="44.18672" lon="3.16964">
        <ele>773.7</ele>
        <time>2019-04-19T15:03:31Z</time>
      </trkpt>
      <trkpt lat="44.1867" lon="3.16959">
        <ele>773.7</ele>
        <time>2019-04-19T15:03:30Z</time>
      </trkpt>
      <trkpt lat="44.18669" lon="3.16955">
        <ele>773.6</ele>
        <time>2019-04-19T15:03:29Z</time>
      </trkpt>
      <trkpt lat="44.18667" lon="3.16947">
        <ele>773.4</ele>
        <time>2019-04-19T15:03:27Z</time>
      </trkpt>
      <trkpt lat="44.18666" lon="3.16943">
        <ele>773.3</ele>
        <time>2019-04-19T15:03:26Z</time>
      </trkpt>
      <trkpt lat="44.18664" lon="3.16939">
        <ele>773.1</ele>
        <time>2019-04-19T15:03:25Z</time>
      </trkpt>
      <trkpt lat="44.18663" lon="3.16935">
        <ele>773</ele>
        <time>2019-04-19T15:03:24Z</time>
      </trkpt>
      <trkpt lat="44.18663" lon="3.16932">
        <ele>772.8</ele>
        <time>2019-04-19T15:03:23Z</time>
      </trkpt>
      <trkpt lat="44.18664" lon="3.16926">
        <ele>772.6</ele>
        <time>2019-04-19T15:03:21Z</time>
      </trkpt>
      <trkpt lat="44.18664" lon="3.16921">
        <ele>772.5</ele>
        <time>2019-04-19T15:03:19Z</time>
      </trkpt>
      <trkpt lat="44.18665" lon="3.16916">
        <ele>772.3</ele>
        <time>2019-04-19T15:03:17Z</time>
      </trkpt>
      <trkpt lat="44.18668" lon="3.16911">
        <ele>772.1</ele>
        <time>2019-04-19T15:03:15Z</time>
      </trkpt>
      <trkpt lat="44.18672" lon="3.16907">
        <ele>771.9</ele>
        <time>2019-04-19T15:03:13Z</time>
      </trkpt>
      <trkpt lat="44.18675" lon="3.16904">
        <ele>771.7</ele>
        <time>2019-04-19T15:03:10Z</time>
      </trkpt>
      <trkpt lat="44.18676" lon="3.169">
        <ele>771.5</ele>
        <time>2019-04-19T15:03:07Z</time>
      </trkpt>
      <trkpt lat="44.18677" lon="3.16895">
        <ele>771.3</ele>
        <time>2019-04-19T15:03:05Z</time>
      </trkpt>
      <trkpt lat="44.18678" lon="3.16891">
        <ele>771.3</ele>
        <time>2019-04-19T15:03:03Z</time>
      </trkpt>
      <trkpt lat="44.18678" lon="3.16885">
        <ele>771.3</ele>
        <time>2019-04-19T15:03:01Z</time>
      </trkpt>
      <trkpt lat="44.18679" lon="3.16881">
        <ele>771</ele>
        <time>2019-04-19T15:03:00Z</time>
      </trkpt>
      <trkpt lat="44.18679" lon="3.16873">
        <ele>770.6</ele>
        <time>2019-04-19T15:02:58Z</time>
      </trkpt>
      <trkpt lat="44.18679" lon="3.16868">
        <ele>770.3</ele>
        <time>2019-04-19T15:02:56Z</time>
      </trkpt>
      <trkpt lat="44.18679" lon="3.16862">
        <ele>769.8</ele>
        <time>2019-04-19T15:02:54Z</time>
      </trkpt>
      <trkpt lat="44.18681" lon="3.16858">
        <ele>769.4</ele>
        <time>2019-04-19T15:02:52Z</time>
      </trkpt>
      <trkpt lat="44.18682" lon="3.16853">
        <ele>769</ele>
        <time>2019-04-19T15:02:50Z</time>
      </trkpt>
      <trkpt lat="44.1868" lon="3.16847">
        <ele>768.6</ele>
        <time>2019-04-19T15:02:48Z</time>
      </trkpt>
      <trkpt lat="44.18677" lon="3.16844">
        <ele>768.2</ele>
        <time>2019-04-19T15:02:47Z</time>
      </trkpt>
      <trkpt lat="44.18674" lon="3.1684">
        <ele>767.8</ele>
        <time>2019-04-19T15:02:46Z</time>
      </trkpt>
      <trkpt lat="44.18671" lon="3.16835">
        <ele>767.6</ele>
        <time>2019-04-19T15:02:44Z</time>
      </trkpt>
      <trkpt lat="44.18669" lon="3.1683">
        <ele>767.5</ele>
        <time>2019-04-19T15:02:42Z</time>
      </trkpt>
      <trkpt lat="44.18667" lon="3.16824">
        <ele>767.4</ele>
        <time>2019-04-19T15:02:40Z</time>
      </trkpt>
      <trkpt lat="44.18667" lon="3.16818">
        <ele>767.4</ele>
        <time>2019-04-19T15:02:38Z</time>
      </trkpt>
      <trkpt lat="44.18667" lon="3.16814">
        <ele>767.3</ele>
        <time>2019-04-19T15:02:37Z</time>
      </trkpt>
      <trkpt lat="44.18667" lon="3.16806">
        <ele>766.8</ele>
        <time>2019-04-19T15:02:35Z</time>
      </trkpt>
      <trkpt lat="44.18666" lon="3.16802">
        <ele>766.5</ele>
        <time>2019-04-19T15:02:34Z</time>
      </trkpt>
      <trkpt lat="44.18665" lon="3.16795">
        <ele>766</ele>
        <time>2019-04-19T15:02:32Z</time>
      </trkpt>
      <trkpt lat="44.18663" lon="3.16789">
        <ele>765.8</ele>
        <time>2019-04-19T15:02:30Z</time>
      </trkpt>
      <trkpt lat="44.18661" lon="3.16784">
        <ele>765.6</ele>
        <time>2019-04-19T15:02:28Z</time>
      </trkpt>
      <trkpt lat="44.18658" lon="3.16779">
        <ele>765.3</ele>
        <time>2019-04-19T15:02:26Z</time>
      </trkpt>
      <trkpt lat="44.18656" lon="3.16776">
        <ele>765.2</ele>
        <time>2019-04-19T15:02:25Z</time>
      </trkpt>
      <trkpt lat="44.18654" lon="3.16773">
        <ele>765.1</ele>
        <time>2019-04-19T15:02:24Z</time>
      </trkpt>
      <trkpt lat="44.18652" lon="3.16769">
        <ele>764.9</ele>
        <time>2019-04-19T15:02:23Z</time>
      </trkpt>
      <trkpt lat="44.1865" lon="3.16765">
        <ele>764.8</ele>
        <time>2019-04-19T15:02:22Z</time>
      </trkpt>
      <trkpt lat="44.18649" lon="3.16761">
        <ele>764.7</ele>
        <time>2019-04-19T15:02:21Z</time>
      </trkpt>
      <trkpt lat="44.18648" lon="3.16757">
        <ele>764.5</ele>
        <time>2019-04-19T15:02:20Z</time>
      </trkpt>
      <trkpt lat="44.18648" lon="3.16753">
        <ele>764.3</ele>
        <time>2019-04-19T15:02:19Z</time>
      </trkpt>
      <trkpt lat="44.18645" lon="3.16746">
        <ele>764</ele>
        <time>2019-04-19T15:02:17Z</time>
      </trkpt>
      <trkpt lat="44.18641" lon="3.16741">
        <ele>763.9</ele>
        <time>2019-04-19T15:02:15Z</time>
      </trkpt>
      <trkpt lat="44.18639" lon="3.16734">
        <ele>763.9</ele>
        <time>2019-04-19T15:02:14Z</time>
      </trkpt>
      <trkpt lat="44.18637" lon="3.16728">
        <ele>764</ele>
        <time>2019-04-19T15:02:13Z</time>
      </trkpt>
      <trkpt lat="44.18633" lon="3.16722">
        <ele>763.7</ele>
        <time>2019-04-19T15:02:12Z</time>
      </trkpt>
      <trkpt lat="44.18631" lon="3.16715">
        <ele>763.5</ele>
        <time>2019-04-19T15:02:11Z</time>
      </trkpt>
      <trkpt lat="44.18627" lon="3.1671">
        <ele>763.4</ele>
        <time>2019-04-19T15:02:10Z</time>
      </trkpt>
      <trkpt lat="44.18627" lon="3.16703">
        <ele>763.3</ele>
        <time>2019-04-19T15:02:09Z</time>
      </trkpt>
      <trkpt lat="44.18624" lon="3.16694">
        <ele>763</ele>
        <time>2019-04-19T15:02:08Z</time>
      </trkpt>
      <trkpt lat="44.18622" lon="3.16686">
        <ele>762.5</ele>
        <time>2019-04-19T15:02:07Z</time>
      </trkpt>
      <trkpt lat="44.18623" lon="3.16677">
        <ele>762</ele>
        <time>2019-04-19T15:02:06Z</time>
      </trkpt>
      <trkpt lat="44.18621" lon="3.1667">
        <ele>761.5</ele>
        <time>2019-04-19T15:02:05Z</time>
      </trkpt>
      <trkpt lat="44.18618" lon="3.16663">
        <ele>761</ele>
        <time>2019-04-19T15:02:04Z</time>
      </trkpt>
      <trkpt lat="44.18615" lon="3.16657">
        <ele>760.8</ele>
        <time>2019-04-19T15:02:03Z</time>
      </trkpt>
      <trkpt lat="44.18613" lon="3.1665">
        <ele>760.9</ele>
        <time>2019-04-19T15:02:02Z</time>
      </trkpt>
      <trkpt lat="44.18608" lon="3.16646">
        <ele>760.9</ele>
        <time>2019-04-19T15:02:01Z</time>
      </trkpt>
      <trkpt lat="44.18604" lon="3.1664">
        <ele>760.9</ele>
        <time>2019-04-19T15:02:00Z</time>
      </trkpt>
      <trkpt lat="44.18601" lon="3.16636">
        <ele>760.9</ele>
        <time>2019-04-19T15:01:59Z</time>
      </trkpt>
      <trkpt lat="44.18596" lon="3.1663">
        <ele>761.1</ele>
        <time>2019-04-19T15:01:58Z</time>
      </trkpt>
      <trkpt lat="44.1859" lon="3.16626">
        <ele>761.3</ele>
        <time>2019-04-19T15:01:57Z</time>
      </trkpt>
      <trkpt lat="44.18586" lon="3.16623">
        <ele>761.5</ele>
        <time>2019-04-19T15:01:56Z</time>
      </trkpt>
      <trkpt lat="44.18582" lon="3.1662">
        <ele>761.6</ele>
        <time>2019-04-19T15:01:55Z</time>
      </trkpt>
      <trkpt lat="44.18576" lon="3.16619">
        <ele>761.9</ele>
        <time>2019-04-19T15:01:54Z</time>
      </trkpt>
      <trkpt lat="44.18571" lon="3.16616">
        <ele>762.3</ele>
        <time>2019-04-19T15:01:53Z</time>
      </trkpt>
      <trkpt lat="44.18566" lon="3.16614">
        <ele>762.7</ele>
        <time>2019-04-19T15:01:52Z</time>
      </trkpt>
      <trkpt lat="44.18557" lon="3.16612">
        <ele>763.1</ele>
        <time>2019-04-19T15:01:51Z</time>
      </trkpt>
      <trkpt lat="44.18553" lon="3.16609">
        <ele>763.3</ele>
        <time>2019-04-19T15:01:50Z</time>
      </trkpt>
      <trkpt lat="44.18549" lon="3.16606">
        <ele>763.5</ele>
        <time>2019-04-19T15:01:49Z</time>
      </trkpt>
      <trkpt lat="44.18546" lon="3.16604">
        <ele>763.7</ele>
        <time>2019-04-19T15:01:48Z</time>
      </trkpt>
      <trkpt lat="44.18544" lon="3.16603">
        <ele>763.8</ele>
        <time>2019-04-19T15:01:47Z</time>
      </trkpt>
      <trkpt lat="44.1854" lon="3.16602">
        <ele>763.9</ele>
        <time>2019-04-19T15:01:46Z</time>
      </trkpt>
      <trkpt lat="44.18537" lon="3.16602">
        <ele>764</ele>
        <time>2019-04-19T15:01:45Z</time>
      </trkpt>
      <trkpt lat="44.18533" lon="3.16602">
        <ele>764.2</ele>
        <time>2019-04-19T15:01:44Z</time>
      </trkpt>
      <trkpt lat="44.18529" lon="3.16602">
        <ele>764.3</ele>
        <time>2019-04-19T15:01:43Z</time>
      </trkpt>
      <trkpt lat="44.18523" lon="3.16604">
        <ele>764.7</ele>
        <time>2019-04-19T15:01:42Z</time>
      </trkpt>
      <trkpt lat="44.1852" lon="3.16602">
        <ele>764.8</ele>
        <time>2019-04-19T15:01:41Z</time>
      </trkpt>
      <trkpt lat="44.18516" lon="3.16599">
        <ele>765</ele>
        <time>2019-04-19T15:01:40Z</time>
      </trkpt>
      <trkpt lat="44.18512" lon="3.16595">
        <ele>765</ele>
        <time>2019-04-19T15:01:39Z</time>
      </trkpt>
      <trkpt lat="44.1851" lon="3.16591">
        <ele>765.1</ele>
        <time>2019-04-19T15:01:38Z</time>
      </trkpt>
      <trkpt lat="44.18506" lon="3.16588">
        <ele>765.1</ele>
        <time>2019-04-19T15:01:37Z</time>
      </trkpt>
      <trkpt lat="44.18502" lon="3.16584">
        <ele>765.2</ele>
        <time>2019-04-19T15:01:36Z</time>
      </trkpt>
      <trkpt lat="44.18498" lon="3.16582">
        <ele>765.3</ele>
        <time>2019-04-19T15:01:35Z</time>
      </trkpt>
      <trkpt lat="44.18495" lon="3.16579">
        <ele>765.4</ele>
        <time>2019-04-19T15:01:34Z</time>
      </trkpt>
      <trkpt lat="44.18491" lon="3.16577">
        <ele>765.6</ele>
        <time>2019-04-19T15:01:33Z</time>
      </trkpt>
      <trkpt lat="44.18484" lon="3.16576">
        <ele>765.8</ele>
        <time>2019-04-19T15:01:32Z</time>
      </trkpt>
      <trkpt lat="44.18479" lon="3.16573">
        <ele>766</ele>
        <time>2019-04-19T15:01:31Z</time>
      </trkpt>
      <trkpt lat="44.18474" lon="3.16573">
        <ele>766.2</ele>
        <time>2019-04-19T15:01:30Z</time>
      </trkpt>
      <trkpt lat="44.18471" lon="3.16573">
        <ele>766.4</ele>
        <time>2019-04-19T15:01:29Z</time>
      </trkpt>
      <trkpt lat="44.18468" lon="3.16571">
        <ele>766.5</ele>
        <time>2019-04-19T15:01:28Z</time>
      </trkpt>
      <trkpt lat="44.18463" lon="3.16571">
        <ele>766.7</ele>
        <time>2019-04-19T15:01:27Z</time>
      </trkpt>
      <trkpt lat="44.18458" lon="3.16572">
        <ele>767</ele>
        <time>2019-04-19T15:01:26Z</time>
      </trkpt>
      <trkpt lat="44.18453" lon="3.16572">
        <ele>767.2</ele>
        <time>2019-04-19T15:01:25Z</time>
      </trkpt>
      <trkpt lat="44.18447" lon="3.16572">
        <ele>767.5</ele>
        <time>2019-04-19T15:01:24Z</time>
      </trkpt>
      <trkpt lat="44.18443" lon="3.16573">
        <ele>767.7</ele>
        <time>2019-04-19T15:01:23Z</time>
      </trkpt>
      <trkpt lat="44.18432" lon="3.16564">
        <ele>764.7</ele>
      </trkpt>
      <trkpt lat="44.18432" lon="3.16558">
        <ele>764.1</ele>
      </trkpt>
      <trkpt lat="44.1843" lon="3.16552">
        <ele>764.3</ele>
      </trkpt>
      <trkpt lat="44.18451" lon="3.16535">
        <ele>764.8</ele>
      </trkpt>
      <trkpt lat="44.18465" lon="3.16516">
        <ele>766.3</ele>
      </trkpt>
      <trkpt lat="44.18494" lon="3.16467">
        <ele>769.2</ele>
      </trkpt>
      <trkpt lat="44.18505" lon="3.16441">
        <ele>770.9</ele>
      </trkpt>
      <trkpt lat="44.1852" lon="3.16426">
        <ele>770.4</ele>
      </trkpt>
      <trkpt lat="44.18532" lon="3.16426">
        <ele>769.7</ele>
      </trkpt>
      <trkpt lat="44.18558" lon="3.16439">
        <ele>764.2</ele>
        <time>2021-10-31T15:41:31Z</time>
      </trkpt>
      <trkpt lat="44.18564" lon="3.1644">
        <ele>764</ele>
        <time>2021-10-31T15:41:33Z</time>
      </trkpt>
      <trkpt lat="44.18568" lon="3.16442">
        <ele>763.9</ele>
        <time>2021-10-31T15:41:34Z</time>
      </trkpt>
      <trkpt lat="44.18575" lon="3.16445">
        <ele>763.5</ele>
        <time>2021-10-31T15:41:35Z</time>
      </trkpt>
      <trkpt lat="44.18579" lon="3.16446">
        <ele>763.3</ele>
        <time>2021-10-31T15:41:36Z</time>
      </trkpt>
      <trkpt lat="44.18583" lon="3.16446">
        <ele>763</ele>
        <time>2021-10-31T15:41:38Z</time>
      </trkpt>
      <trkpt lat="44.18602" lon="3.16444">
        <ele>761.8</ele>
        <time>2021-10-31T15:41:40Z</time>
      </trkpt>
      <trkpt lat="44.18615" lon="3.16441">
        <ele>760.9</ele>
        <time>2021-10-31T15:41:42Z</time>
      </trkpt>
      <trkpt lat="44.18627" lon="3.16439">
        <ele>760.3</ele>
        <time>2021-10-31T15:41:44Z</time>
      </trkpt>
      <trkpt lat="44.18634" lon="3.1644">
        <ele>760</ele>
        <time>2021-10-31T15:41:45Z</time>
      </trkpt>
      <trkpt lat="44.18646" lon="3.1644">
        <ele>759.6</ele>
        <time>2021-10-31T15:41:47Z</time>
      </trkpt>
      <trkpt lat="44.18652" lon="3.16441">
        <ele>759.4</ele>
        <time>2021-10-31T15:41:48Z</time>
      </trkpt>
      <trkpt lat="44.18657" lon="3.16442">
        <ele>759.1</ele>
        <time>2021-10-31T15:41:49Z</time>
      </trkpt>
      <trkpt lat="44.18663" lon="3.16443">
        <ele>758.9</ele>
        <time>2021-10-31T15:41:50Z</time>
      </trkpt>
      <trkpt lat="44.1867" lon="3.16444">
        <ele>758.5</ele>
        <time>2021-10-31T15:41:52Z</time>
      </trkpt>
      <trkpt lat="44.18675" lon="3.16444">
        <ele>758.2</ele>
        <time>2021-10-31T15:41:53Z</time>
      </trkpt>
      <trkpt lat="44.18687" lon="3.16444">
        <ele>757.9</ele>
        <time>2021-10-31T15:41:55Z</time>
      </trkpt>
      <trkpt lat="44.18693" lon="3.16445">
        <ele>757.8</ele>
        <time>2021-10-31T15:41:56Z</time>
      </trkpt>
      <trkpt lat="44.18696" lon="3.16448">
        <ele>757.7</ele>
        <time>2021-10-31T15:41:58Z</time>
      </trkpt>
      <trkpt lat="44.18711" lon="3.16447">
        <ele>757.4</ele>
        <time>2021-10-31T15:42:00Z</time>
      </trkpt>
      <trkpt lat="44.18716" lon="3.16447">
        <ele>757.3</ele>
        <time>2021-10-31T15:42:01Z</time>
      </trkpt>
      <trkpt lat="44.18728" lon="3.16443">
        <ele>756.8</ele>
        <time>2021-10-31T15:42:03Z</time>
      </trkpt>
      <trkpt lat="44.18739" lon="3.16443">
        <ele>756.3</ele>
        <time>2021-10-31T15:42:05Z</time>
      </trkpt>
      <trkpt lat="44.18744" lon="3.16444">
        <ele>756.1</ele>
        <time>2021-10-31T15:42:06Z</time>
      </trkpt>
      <trkpt lat="44.18749" lon="3.16444">
        <ele>755.9</ele>
        <time>2021-10-31T15:42:07Z</time>
      </trkpt>
      <trkpt lat="44.18753" lon="3.16446">
        <ele>755.6</ele>
        <time>2021-10-31T15:42:08Z</time>
      </trkpt>
      <trkpt lat="44.1876" lon="3.16449">
        <ele>755.2</ele>
        <time>2021-10-31T15:42:09Z</time>
      </trkpt>
      <trkpt lat="44.18766" lon="3.16452">
        <ele>754.9</ele>
        <time>2021-10-31T15:42:11Z</time>
      </trkpt>
      <trkpt lat="44.18771" lon="3.16455">
        <ele>754.5</ele>
        <time>2021-10-31T15:42:12Z</time>
      </trkpt>
      <trkpt lat="44.18782" lon="3.16462">
        <ele>753.9</ele>
        <time>2021-10-31T15:42:14Z</time>
      </trkpt>
      <trkpt lat="44.1879" lon="3.16464">
        <ele>753.5</ele>
        <time>2021-10-31T15:42:15Z</time>
      </trkpt>
      <trkpt lat="44.18798" lon="3.16473">
        <ele>753.1</ele>
        <time>2021-10-31T15:42:17Z</time>
      </trkpt>
      <trkpt lat="44.18805" lon="3.16479">
        <ele>752.8</ele>
        <time>2021-10-31T15:42:18Z</time>
      </trkpt>
      <trkpt lat="44.18817" lon="3.16486">
        <ele>752.1</ele>
        <time>2021-10-31T15:42:20Z</time>
      </trkpt>
      <trkpt lat="44.18824" lon="3.16488">
        <ele>751.8</ele>
        <time>2021-10-31T15:42:21Z</time>
      </trkpt>
      <trkpt lat="44.18834" lon="3.16487">
        <ele>751.3</ele>
        <time>2021-10-31T15:42:23Z</time>
      </trkpt>
      <trkpt lat="44.18842" lon="3.16493">
        <ele>750.9</ele>
        <time>2021-10-31T15:42:25Z</time>
      </trkpt>
      <trkpt lat="44.18846" lon="3.16495">
        <ele>750.6</ele>
        <time>2021-10-31T15:42:26Z</time>
      </trkpt>
      <trkpt lat="44.18849" lon="3.16497">
        <ele>750.4</ele>
        <time>2021-10-31T15:42:27Z</time>
      </trkpt>
      <trkpt lat="44.18858" lon="3.16498">
        <ele>750</ele>
        <time>2021-10-31T15:42:29Z</time>
      </trkpt>
      <trkpt lat="44.18869" lon="3.16502">
        <ele>749.3</ele>
        <time>2021-10-31T15:42:31Z</time>
      </trkpt>
      <trkpt lat="44.1888" lon="3.16508">
        <ele>748.6</ele>
        <time>2021-10-31T15:42:33Z</time>
      </trkpt>
      <trkpt lat="44.18893" lon="3.16518">
        <ele>747.8</ele>
        <time>2021-10-31T15:42:35Z</time>
      </trkpt>
      <trkpt lat="44.18904" lon="3.16524">
        <ele>747.2</ele>
        <time>2021-10-31T15:42:37Z</time>
      </trkpt>
      <trkpt lat="44.1891" lon="3.16526">
        <ele>747</ele>
        <time>2021-10-31T15:42:38Z</time>
      </trkpt>
      <trkpt lat="44.18915" lon="3.16529">
        <ele>746.7</ele>
        <time>2021-10-31T15:42:39Z</time>
      </trkpt>
      <trkpt lat="44.1892" lon="3.16534">
        <ele>746.4</ele>
        <time>2021-10-31T15:42:40Z</time>
      </trkpt>
      <trkpt lat="44.18933" lon="3.1654">
        <ele>745.8</ele>
        <time>2021-10-31T15:42:42Z</time>
      </trkpt>
      <trkpt lat="44.18946" lon="3.16545">
        <ele>745.3</ele>
        <time>2021-10-31T15:42:44Z</time>
      </trkpt>
      <trkpt lat="44.18958" lon="3.1655">
        <ele>744.9</ele>
        <time>2021-10-31T15:42:46Z</time>
      </trkpt>
      <trkpt lat="44.18966" lon="3.1655">
        <ele>744.7</ele>
        <time>2021-10-31T15:42:48Z</time>
      </trkpt>
      <trkpt lat="44.1897" lon="3.16552">
        <ele>744.6</ele>
        <time>2021-10-31T15:42:49Z</time>
      </trkpt>
      <trkpt lat="44.18974" lon="3.16556">
        <ele>744.5</ele>
        <time>2021-10-31T15:42:50Z</time>
      </trkpt>
      <trkpt lat="44.18978" lon="3.16558">
        <ele>744.5</ele>
        <time>2021-10-31T15:42:51Z</time>
      </trkpt>
      <trkpt lat="44.18988" lon="3.16562">
        <ele>744.5</ele>
        <time>2021-10-31T15:42:53Z</time>
      </trkpt>
      <trkpt lat="44.18992" lon="3.16562">
        <ele>744.5</ele>
        <time>2021-10-31T15:42:54Z</time>
      </trkpt>
      <trkpt lat="44.18996" lon="3.16563">
        <ele>744.5</ele>
        <time>2021-10-31T15:42:55Z</time>
      </trkpt>
      <trkpt lat="44.19" lon="3.16564">
        <ele>744.5</ele>
        <time>2021-10-31T15:42:56Z</time>
      </trkpt>
      <trkpt lat="44.19005" lon="3.16564">
        <ele>744.6</ele>
        <time>2021-10-31T15:42:57Z</time>
      </trkpt>
      <trkpt lat="44.19011" lon="3.16566">
        <ele>744.6</ele>
        <time>2021-10-31T15:42:59Z</time>
      </trkpt>
      <trkpt lat="44.19016" lon="3.16568">
        <ele>744.7</ele>
        <time>2021-10-31T15:43:00Z</time>
      </trkpt>
      <trkpt lat="44.1902" lon="3.16566">
        <ele>744.7</ele>
        <time>2021-10-31T15:43:01Z</time>
      </trkpt>
      <trkpt lat="44.19024" lon="3.16567">
        <ele>744.8</ele>
        <time>2021-10-31T15:43:02Z</time>
      </trkpt>
      <trkpt lat="44.19028" lon="3.16567">
        <ele>744.8</ele>
        <time>2021-10-31T15:43:04Z</time>
      </trkpt>
      <trkpt lat="44.19032" lon="3.16567">
        <ele>744.9</ele>
        <time>2021-10-31T15:43:05Z</time>
      </trkpt>
      <trkpt lat="44.19036" lon="3.16567">
        <ele>744.9</ele>
        <time>2021-10-31T15:43:07Z</time>
      </trkpt>
      <trkpt lat="44.1904" lon="3.16567">
        <ele>745</ele>
        <time>2021-10-31T15:43:08Z</time>
      </trkpt>
      <trkpt lat="44.19044" lon="3.16568">
        <ele>745.1</ele>
        <time>2021-10-31T15:43:10Z</time>
      </trkpt>
      <trkpt lat="44.19048" lon="3.1657">
        <ele>745.1</ele>
        <time>2021-10-31T15:43:11Z</time>
      </trkpt>
      <trkpt lat="44.19051" lon="3.1657">
        <ele>745.2</ele>
        <time>2021-10-31T15:43:12Z</time>
      </trkpt>
      <trkpt lat="44.19056" lon="3.16572">
        <ele>745.3</ele>
        <time>2021-10-31T15:43:14Z</time>
      </trkpt>
      <trkpt lat="44.1906" lon="3.16573">
        <ele>745.3</ele>
        <time>2021-10-31T15:43:15Z</time>
      </trkpt>
      <trkpt lat="44.19065" lon="3.16574">
        <ele>745.3</ele>
        <time>2021-10-31T15:43:17Z</time>
      </trkpt>
      <trkpt lat="44.19069" lon="3.16576">
        <ele>745.4</ele>
        <time>2021-10-31T15:43:18Z</time>
      </trkpt>
      <trkpt lat="44.1907" lon="3.16576">
        <ele>745.4</ele>
        <time>2021-10-31T15:43:19Z</time>
      </trkpt>
      <trkpt lat="44.19073" lon="3.16578">
        <ele>745.3</ele>
        <time>2021-10-31T15:43:20Z</time>
      </trkpt>
      <trkpt lat="44.19077" lon="3.16579">
        <ele>745.3</ele>
        <time>2021-10-31T15:43:21Z</time>
      </trkpt>
      <trkpt lat="44.1908" lon="3.16578">
        <ele>745.3</ele>
        <time>2021-10-31T15:43:22Z</time>
      </trkpt>
      <trkpt lat="44.19083" lon="3.16578">
        <ele>745.3</ele>
        <time>2021-10-31T15:43:24Z</time>
      </trkpt>
      <trkpt lat="44.19086" lon="3.16576">
        <ele>745.2</ele>
        <time>2021-10-31T15:43:25Z</time>
      </trkpt>
      <trkpt lat="44.1909" lon="3.16575">
        <ele>745.1</ele>
        <time>2021-10-31T15:43:27Z</time>
      </trkpt>
      <trkpt lat="44.19091" lon="3.16575">
        <ele>745.1</ele>
        <time>2021-10-31T15:43:28Z</time>
      </trkpt>
      <trkpt lat="44.19095" lon="3.16575">
        <ele>744.9</ele>
        <time>2021-10-31T15:43:29Z</time>
      </trkpt>
      <trkpt lat="44.19099" lon="3.16574">
        <ele>744.8</ele>
        <time>2021-10-31T15:43:31Z</time>
      </trkpt>
      <trkpt lat="44.19104" lon="3.16578">
        <ele>744.5</ele>
        <time>2021-10-31T15:43:32Z</time>
      </trkpt>
      <trkpt lat="44.19109" lon="3.16579">
        <ele>744.3</ele>
        <time>2021-10-31T15:43:33Z</time>
      </trkpt>
      <trkpt lat="44.19113" lon="3.16579">
        <ele>744.1</ele>
        <time>2021-10-31T15:43:34Z</time>
      </trkpt>
      <trkpt lat="44.19118" lon="3.16578">
        <ele>743.9</ele>
        <time>2021-10-31T15:43:36Z</time>
      </trkpt>
      <trkpt lat="44.19123" lon="3.16579">
        <ele>743.7</ele>
        <time>2021-10-31T15:43:38Z</time>
      </trkpt>
      <trkpt lat="44.19127" lon="3.16582">
        <ele>743.5</ele>
        <time>2021-10-31T15:43:39Z</time>
      </trkpt>
      <trkpt lat="44.19132" lon="3.16584">
        <ele>743.4</ele>
        <time>2021-10-31T15:43:40Z</time>
      </trkpt>
      <trkpt lat="44.19137" lon="3.16585">
        <ele>743.2</ele>
        <time>2021-10-31T15:43:42Z</time>
      </trkpt>
      <trkpt lat="44.1914" lon="3.16584">
        <ele>743.1</ele>
        <time>2021-10-31T15:43:43Z</time>
      </trkpt>
      <trkpt lat="44.19144" lon="3.16584">
        <ele>743</ele>
        <time>2021-10-31T15:43:44Z</time>
      </trkpt>
      <trkpt lat="44.19151" lon="3.16587">
        <ele>742.7</ele>
        <time>2021-10-31T15:43:45Z</time>
      </trkpt>
      <trkpt lat="44.19156" lon="3.16587">
        <ele>742.6</ele>
        <time>2021-10-31T15:43:47Z</time>
      </trkpt>
      <trkpt lat="44.1916" lon="3.16586">
        <ele>742.5</ele>
        <time>2021-10-31T15:43:48Z</time>
      </trkpt>
      <trkpt lat="44.19164" lon="3.16586">
        <ele>742.4</ele>
        <time>2021-10-31T15:43:50Z</time>
      </trkpt>
      <trkpt lat="44.19169" lon="3.16584">
        <ele>742.4</ele>
        <time>2021-10-31T15:43:51Z</time>
      </trkpt>
      <trkpt lat="44.19172" lon="3.16581">
        <ele>742.4</ele>
        <time>2021-10-31T15:43:53Z</time>
      </trkpt>
      <trkpt lat="44.19174" lon="3.16579">
        <ele>742.4</ele>
        <time>2021-10-31T15:43:54Z</time>
      </trkpt>
      <trkpt lat="44.19179" lon="3.16576">
        <ele>742.4</ele>
        <time>2021-10-31T15:43:55Z</time>
      </trkpt>
      <trkpt lat="44.19182" lon="3.16576">
        <ele>742.4</ele>
        <time>2021-10-31T15:43:57Z</time>
      </trkpt>
      <trkpt lat="44.19185" lon="3.16576">
        <ele>742.4</ele>
        <time>2021-10-31T15:43:58Z</time>
      </trkpt>
      <trkpt lat="44.19189" lon="3.16577">
        <ele>742.4</ele>
        <time>2021-10-31T15:43:59Z</time>
      </trkpt>
      <trkpt lat="44.19195" lon="3.16577">
        <ele>742.4</ele>
        <time>2021-10-31T15:44:00Z</time>
      </trkpt>
      <trkpt lat="44.19199" lon="3.16578">
        <ele>742.3</ele>
        <time>2021-10-31T15:44:01Z</time>
      </trkpt>
      <trkpt lat="44.19205" lon="3.16578">
        <ele>742.3</ele>
        <time>2021-10-31T15:44:03Z</time>
      </trkpt>
      <trkpt lat="44.19208" lon="3.16578">
        <ele>742.3</ele>
        <time>2021-10-31T15:44:04Z</time>
      </trkpt>
      <trkpt lat="44.19212" lon="3.16578">
        <ele>742.3</ele>
        <time>2021-10-31T15:44:05Z</time>
      </trkpt>
      <trkpt lat="44.19215" lon="3.1658">
        <ele>742.2</ele>
        <time>2021-10-31T15:44:07Z</time>
      </trkpt>
      <trkpt lat="44.19219" lon="3.16581">
        <ele>742.2</ele>
        <time>2021-10-31T15:44:08Z</time>
      </trkpt>
      <trkpt lat="44.1922" lon="3.16582">
        <ele>742.2</ele>
        <time>2021-10-31T15:44:09Z</time>
      </trkpt>
      <trkpt lat="44.19223" lon="3.16583">
        <ele>742.1</ele>
        <time>2021-10-31T15:44:10Z</time>
      </trkpt>
      <trkpt lat="44.19225" lon="3.16583">
        <ele>742.1</ele>
        <time>2021-10-31T15:44:11Z</time>
      </trkpt>
      <trkpt lat="44.19229" lon="3.16582">
        <ele>742</ele>
        <time>2021-10-31T15:44:12Z</time>
      </trkpt>
      <trkpt lat="44.19232" lon="3.16582">
        <ele>741.9</ele>
        <time>2021-10-31T15:44:14Z</time>
      </trkpt>
      <trkpt lat="44.19237" lon="3.16581">
        <ele>741.7</ele>
        <time>2021-10-31T15:44:15Z</time>
      </trkpt>
      <trkpt lat="44.19242" lon="3.16579">
        <ele>741.4</ele>
        <time>2021-10-31T15:44:17Z</time>
      </trkpt>
      <trkpt lat="44.19246" lon="3.16576">
        <ele>741.2</ele>
        <time>2021-10-31T15:44:18Z</time>
      </trkpt>
      <trkpt lat="44.19249" lon="3.16575">
        <ele>740.9</ele>
        <time>2021-10-31T15:44:19Z</time>
      </trkpt>
      <trkpt lat="44.19252" lon="3.16575">
        <ele>740.7</ele>
        <time>2021-10-31T15:44:20Z</time>
      </trkpt>
      <trkpt lat="44.19254" lon="3.16574">
        <ele>740.5</ele>
        <time>2021-10-31T15:44:21Z</time>
      </trkpt>
      <trkpt lat="44.19256" lon="3.16574">
        <ele>740.2</ele>
        <time>2021-10-31T15:44:23Z</time>
      </trkpt>
      <trkpt lat="44.19259" lon="3.1657">
        <ele>739.7</ele>
        <time>2021-10-31T15:44:24Z</time>
      </trkpt>
      <trkpt lat="44.1926" lon="3.16569">
        <ele>739.5</ele>
        <time>2021-10-31T15:44:25Z</time>
      </trkpt>
      <trkpt lat="44.19261" lon="3.16566">
        <ele>739</ele>
        <time>2021-10-31T15:44:26Z</time>
      </trkpt>
      <trkpt lat="44.19264" lon="3.16562">
        <ele>738.3</ele>
        <time>2021-10-31T15:44:28Z</time>
      </trkpt>
      <trkpt lat="44.19267" lon="3.16561">
        <ele>737.6</ele>
        <time>2021-10-31T15:44:29Z</time>
      </trkpt>
      <trkpt lat="44.19275" lon="3.16555">
        <ele>735.8</ele>
        <time>2021-10-31T15:44:30Z</time>
      </trkpt>
      <trkpt lat="44.1928" lon="3.16551">
        <ele>734.4</ele>
        <time>2021-10-31T15:44:31Z</time>
      </trkpt>
      <trkpt lat="44.19286" lon="3.16547">
        <ele>732.7</ele>
        <time>2021-10-31T15:44:32Z</time>
      </trkpt>
      <trkpt lat="44.19293" lon="3.1654">
        <ele>730.4</ele>
        <time>2021-10-31T15:44:34Z</time>
      </trkpt>
      <trkpt lat="44.19297" lon="3.16537">
        <ele>729</ele>
        <time>2021-10-31T15:44:35Z</time>
      </trkpt>
      <trkpt lat="44.193" lon="3.16535">
        <ele>727.9</ele>
        <time>2021-10-31T15:44:36Z</time>
      </trkpt>
      <trkpt lat="44.19302" lon="3.16533">
        <ele>727.3</ele>
        <time>2021-10-31T15:44:37Z</time>
      </trkpt>
      <trkpt lat="44.19305" lon="3.16526">
        <ele>725.4</ele>
        <time>2021-10-31T15:44:39Z</time>
      </trkpt>
      <trkpt lat="44.19309" lon="3.16522">
        <ele>723.6</ele>
        <time>2021-10-31T15:44:41Z</time>
      </trkpt>
      <trkpt lat="44.19313" lon="3.16521">
        <ele>722.3</ele>
        <time>2021-10-31T15:44:42Z</time>
      </trkpt>
      <trkpt lat="44.19317" lon="3.16519">
        <ele>720.7</ele>
        <time>2021-10-31T15:44:43Z</time>
      </trkpt>
      <trkpt lat="44.19318" lon="3.16515">
        <ele>719.2</ele>
        <time>2021-10-31T15:44:45Z</time>
      </trkpt>
      <trkpt lat="44.19319" lon="3.16513">
        <ele>718.6</ele>
        <time>2021-10-31T15:44:46Z</time>
      </trkpt>
      <trkpt lat="44.19321" lon="3.16509">
        <ele>717.2</ele>
        <time>2021-10-31T15:44:48Z</time>
      </trkpt>
      <trkpt lat="44.19322" lon="3.16509">
        <ele>716.9</ele>
        <time>2021-10-31T15:44:49Z</time>
      </trkpt>
      <trkpt lat="44.19323" lon="3.16509">
        <ele>716.3</ele>
        <time>2021-10-31T15:44:50Z</time>
      </trkpt>
      <trkpt lat="44.19325" lon="3.1651">
        <ele>715.7</ele>
        <time>2021-10-31T15:44:51Z</time>
      </trkpt>
      <trkpt lat="44.19326" lon="3.16509">
        <ele>715</ele>
        <time>2021-10-31T15:44:52Z</time>
      </trkpt>
      <trkpt lat="44.19327" lon="3.16509">
        <ele>714.7</ele>
        <time>2021-10-31T15:44:54Z</time>
      </trkpt>
      <trkpt lat="44.19328" lon="3.1651">
        <ele>714.2</ele>
        <time>2021-10-31T15:44:55Z</time>
      </trkpt>
      <trkpt lat="44.19329" lon="3.1651">
        <ele>713.6</ele>
        <time>2021-10-31T15:44:56Z</time>
      </trkpt>
      <trkpt lat="44.1933" lon="3.16509">
        <ele>713.1</ele>
        <time>2021-10-31T15:44:57Z</time>
      </trkpt>
      <trkpt lat="44.19331" lon="3.16508">
        <ele>712.7</ele>
        <time>2021-10-31T15:44:59Z</time>
      </trkpt>
      <trkpt lat="44.19332" lon="3.16507">
        <ele>712.2</ele>
        <time>2021-10-31T15:45:00Z</time>
      </trkpt>
      <trkpt lat="44.19333" lon="3.16506">
        <ele>711.7</ele>
        <time>2021-10-31T15:45:01Z</time>
      </trkpt>
      <trkpt lat="44.19335" lon="3.16504">
        <ele>710.6</ele>
        <time>2021-10-31T15:45:02Z</time>
      </trkpt>
      <trkpt lat="44.19338" lon="3.16504">
        <ele>709.3</ele>
        <time>2021-10-31T15:45:04Z</time>
      </trkpt>
      <trkpt lat="44.19341" lon="3.16503">
        <ele>708</ele>
        <time>2021-10-31T15:45:05Z</time>
      </trkpt>
      <trkpt lat="44.19345" lon="3.16501">
        <ele>706.4</ele>
        <time>2021-10-31T15:45:07Z</time>
      </trkpt>
      <trkpt lat="44.19347" lon="3.165">
        <ele>705.5</ele>
        <time>2021-10-31T15:45:08Z</time>
      </trkpt>
      <trkpt lat="44.19348" lon="3.16499">
        <ele>704.8</ele>
        <time>2021-10-31T15:45:10Z</time>
      </trkpt>
      <trkpt lat="44.1935" lon="3.16495">
        <ele>703.7</ele>
        <time>2021-10-31T15:45:11Z</time>
      </trkpt>
      <trkpt lat="44.19351" lon="3.16494">
        <ele>703.4</ele>
        <time>2021-10-31T15:45:12Z</time>
      </trkpt>
      <trkpt lat="44.19353" lon="3.16493">
        <ele>702.5</ele>
        <time>2021-10-31T15:45:13Z</time>
      </trkpt>
      <trkpt lat="44.19358" lon="3.16491">
        <ele>700.8</ele>
        <time>2021-10-31T15:45:15Z</time>
      </trkpt>
      <trkpt lat="44.19361" lon="3.16489">
        <ele>699.5</ele>
        <time>2021-10-31T15:45:16Z</time>
      </trkpt>
      <trkpt lat="44.19363" lon="3.1649">
        <ele>699</ele>
        <time>2021-10-31T15:45:17Z</time>
      </trkpt>
      <trkpt lat="44.19366" lon="3.1649">
        <ele>698.2</ele>
        <time>2021-10-31T15:45:18Z</time>
      </trkpt>
      <trkpt lat="44.1937" lon="3.16491">
        <ele>697.1</ele>
        <time>2021-10-31T15:45:20Z</time>
      </trkpt>
      <trkpt lat="44.19371" lon="3.16491">
        <ele>696.8</ele>
        <time>2021-10-31T15:45:21Z</time>
      </trkpt>
      <trkpt lat="44.19372" lon="3.16491">
        <ele>696.4</ele>
        <time>2021-10-31T15:45:22Z</time>
      </trkpt>
      <trkpt lat="44.19375" lon="3.16489">
        <ele>695.6</ele>
        <time>2021-10-31T15:45:24Z</time>
      </trkpt>
      <trkpt lat="44.19379" lon="3.16486">
        <ele>694.5</ele>
        <time>2021-10-31T15:45:25Z</time>
      </trkpt>
      <trkpt lat="44.19383" lon="3.16482">
        <ele>693.2</ele>
        <time>2021-10-31T15:45:26Z</time>
      </trkpt>
      <trkpt lat="44.19394" lon="3.16472">
        <ele>690.5</ele>
        <time>2021-10-31T15:45:28Z</time>
      </trkpt>
      <trkpt lat="44.19401" lon="3.16467">
        <ele>689.3</ele>
        <time>2021-10-31T15:45:29Z</time>
      </trkpt>
      <trkpt lat="44.1941" lon="3.16462">
        <ele>687.7</ele>
        <time>2021-10-31T15:45:31Z</time>
      </trkpt>
      <trkpt lat="44.19412" lon="3.1646">
        <ele>687.1</ele>
        <time>2021-10-31T15:45:32Z</time>
      </trkpt>
      <trkpt lat="44.19413" lon="3.16458">
        <ele>686.9</ele>
        <time>2021-10-31T15:45:33Z</time>
      </trkpt>
      <trkpt lat="44.19414" lon="3.16455">
        <ele>686.4</ele>
        <time>2021-10-31T15:45:35Z</time>
      </trkpt>
      <trkpt lat="44.19413" lon="3.16454">
        <ele>686.2</ele>
        <time>2021-10-31T15:45:36Z</time>
      </trkpt>
      <trkpt lat="44.19413" lon="3.16455">
        <ele>686.1</ele>
        <time>2021-10-31T15:45:38Z</time>
      </trkpt>
      <trkpt lat="44.19416" lon="3.16453">
        <ele>685.5</ele>
        <time>2021-10-31T15:45:39Z</time>
      </trkpt>
      <trkpt lat="44.19418" lon="3.1645">
        <ele>685</ele>
        <time>2021-10-31T15:45:40Z</time>
      </trkpt>
      <trkpt lat="44.1942" lon="3.16447">
        <ele>684.4</ele>
        <time>2021-10-31T15:45:42Z</time>
      </trkpt>
      <trkpt lat="44.19422" lon="3.16444">
        <ele>683.7</ele>
        <time>2021-10-31T15:45:43Z</time>
      </trkpt>
      <trkpt lat="44.19424" lon="3.16441">
        <ele>683.1</ele>
        <time>2021-10-31T15:45:44Z</time>
      </trkpt>
      <trkpt lat="44.19427" lon="3.16439">
        <ele>682.4</ele>
        <time>2021-10-31T15:45:45Z</time>
      </trkpt>
      <trkpt lat="44.19431" lon="3.16436">
        <ele>681.3</ele>
        <time>2021-10-31T15:45:47Z</time>
      </trkpt>
      <trkpt lat="44.19435" lon="3.16432">
        <ele>680.4</ele>
        <time>2021-10-31T15:45:48Z</time>
      </trkpt>
      <trkpt lat="44.1944" lon="3.16428">
        <ele>679.2</ele>
        <time>2021-10-31T15:45:49Z</time>
      </trkpt>
      <trkpt lat="44.19444" lon="3.16425">
        <ele>678.4</ele>
        <time>2021-10-31T15:45:51Z</time>
      </trkpt>
      <trkpt lat="44.1945" lon="3.16421">
        <ele>677.1</ele>
        <time>2021-10-31T15:45:52Z</time>
      </trkpt>
      <trkpt lat="44.19455" lon="3.16415">
        <ele>675.7</ele>
        <time>2021-10-31T15:45:54Z</time>
      </trkpt>
      <trkpt lat="44.19458" lon="3.16412">
        <ele>675</ele>
        <time>2021-10-31T15:45:55Z</time>
      </trkpt>
      <trkpt lat="44.1946" lon="3.16407">
        <ele>674.1</ele>
        <time>2021-10-31T15:45:57Z</time>
      </trkpt>
      <trkpt lat="44.19463" lon="3.16403">
        <ele>673</ele>
        <time>2021-10-31T15:45:58Z</time>
      </trkpt>
      <trkpt lat="44.19465" lon="3.16401">
        <ele>672.4</ele>
        <time>2021-10-31T15:45:59Z</time>
      </trkpt>
      <trkpt lat="44.19466" lon="3.16399">
        <ele>671.9</ele>
        <time>2021-10-31T15:46:01Z</time>
      </trkpt>
      <trkpt lat="44.19467" lon="3.16397">
        <ele>671.6</ele>
        <time>2021-10-31T15:46:02Z</time>
      </trkpt>
      <trkpt lat="44.19468" lon="3.16392">
        <ele>670.6</ele>
        <time>2021-10-31T15:46:04Z</time>
      </trkpt>
      <trkpt lat="44.19469" lon="3.16391">
        <ele>670.2</ele>
        <time>2021-10-31T15:46:05Z</time>
      </trkpt>
      <trkpt lat="44.19473" lon="3.16386">
        <ele>668.8</ele>
        <time>2021-10-31T15:46:06Z</time>
      </trkpt>
      <trkpt lat="44.19475" lon="3.16382">
        <ele>667.8</ele>
        <time>2021-10-31T15:46:07Z</time>
      </trkpt>
      <trkpt lat="44.1948" lon="3.16376">
        <ele>666.1</ele>
        <time>2021-10-31T15:46:09Z</time>
      </trkpt>
      <trkpt lat="44.19484" lon="3.16371">
        <ele>664.6</ele>
        <time>2021-10-31T15:46:10Z</time>
      </trkpt>
      <trkpt lat="44.19488" lon="3.16368">
        <ele>663.2</ele>
        <time>2021-10-31T15:46:12Z</time>
      </trkpt>
      <trkpt lat="44.19491" lon="3.16365">
        <ele>662.2</ele>
        <time>2021-10-31T15:46:13Z</time>
      </trkpt>
      <trkpt lat="44.19494" lon="3.16361">
        <ele>661.1</ele>
        <time>2021-10-31T15:46:15Z</time>
      </trkpt>
      <trkpt lat="44.19497" lon="3.16358">
        <ele>659.9</ele>
        <time>2021-10-31T15:46:16Z</time>
      </trkpt>
      <trkpt lat="44.19498" lon="3.16356">
        <ele>659.2</ele>
        <time>2021-10-31T15:46:18Z</time>
      </trkpt>
      <trkpt lat="44.195" lon="3.16355">
        <ele>658.5</ele>
        <time>2021-10-31T15:46:19Z</time>
      </trkpt>
      <trkpt lat="44.19502" lon="3.16353">
        <ele>657.8</ele>
        <time>2021-10-31T15:46:21Z</time>
      </trkpt>
      <trkpt lat="44.19504" lon="3.16352">
        <ele>657.2</ele>
        <time>2021-10-31T15:46:23Z</time>
      </trkpt>
      <trkpt lat="44.19505" lon="3.1635">
        <ele>656.5</ele>
        <time>2021-10-31T15:47:13Z</time>
      </trkpt>
      <trkpt lat="44.19507" lon="3.16348">
        <ele>655.8</ele>
        <time>2021-10-31T15:47:14Z</time>
      </trkpt>
      <trkpt lat="44.19509" lon="3.16347">
        <ele>655.2</ele>
        <time>2021-10-31T15:47:16Z</time>
      </trkpt>
      <trkpt lat="44.19511" lon="3.16345">
        <ele>654.6</ele>
        <time>2021-10-31T15:47:17Z</time>
      </trkpt>
      <trkpt lat="44.19512" lon="3.16343">
        <ele>654.1</ele>
        <time>2021-10-31T15:47:18Z</time>
      </trkpt>
      <trkpt lat="44.19514" lon="3.1634">
        <ele>653.3</ele>
        <time>2021-10-31T15:47:20Z</time>
      </trkpt>
      <trkpt lat="44.19516" lon="3.16338">
        <ele>652.6</ele>
        <time>2021-10-31T15:47:21Z</time>
      </trkpt>
      <trkpt lat="44.19522" lon="3.16333">
        <ele>650.7</ele>
        <time>2021-10-31T15:47:23Z</time>
      </trkpt>
      <trkpt lat="44.19527" lon="3.16328">
        <ele>649.2</ele>
        <time>2021-10-31T15:47:24Z</time>
      </trkpt>
      <trkpt lat="44.1953" lon="3.16324">
        <ele>648.1</ele>
        <time>2021-10-31T15:47:25Z</time>
      </trkpt>
      <trkpt lat="44.19534" lon="3.16319">
        <ele>646.7</ele>
        <time>2021-10-31T15:47:27Z</time>
      </trkpt>
      <trkpt lat="44.19537" lon="3.16315">
        <ele>645.5</ele>
        <time>2021-10-31T15:47:28Z</time>
      </trkpt>
      <trkpt lat="44.1954" lon="3.16311">
        <ele>644.5</ele>
        <time>2021-10-31T15:47:30Z</time>
      </trkpt>
      <trkpt lat="44.19542" lon="3.16309">
        <ele>643.7</ele>
        <time>2021-10-31T15:47:31Z</time>
      </trkpt>
      <trkpt lat="44.19545" lon="3.16305">
        <ele>642.9</ele>
        <time>2021-10-31T15:47:32Z</time>
      </trkpt>
      <trkpt lat="44.19547" lon="3.16302">
        <ele>642</ele>
        <time>2021-10-31T15:47:34Z</time>
      </trkpt>
      <trkpt lat="44.1955" lon="3.16296">
        <ele>640.8</ele>
        <time>2021-10-31T15:47:35Z</time>
      </trkpt>
      <trkpt lat="44.19554" lon="3.16291">
        <ele>639.6</ele>
        <time>2021-10-31T15:47:37Z</time>
      </trkpt>
      <trkpt lat="44.19557" lon="3.16288">
        <ele>638.7</ele>
        <time>2021-10-31T15:47:38Z</time>
      </trkpt>
      <trkpt lat="44.19561" lon="3.16284">
        <ele>637.3</ele>
        <time>2021-10-31T15:47:40Z</time>
      </trkpt>
      <trkpt lat="44.19566" lon="3.16281">
        <ele>636.1</ele>
        <time>2021-10-31T15:47:41Z</time>
      </trkpt>
      <trkpt lat="44.19568" lon="3.16279">
        <ele>635.4</ele>
        <time>2021-10-31T15:47:42Z</time>
      </trkpt>
      <trkpt lat="44.19571" lon="3.16277">
        <ele>634.5</ele>
        <time>2021-10-31T15:47:44Z</time>
      </trkpt>
      <trkpt lat="44.19574" lon="3.16274">
        <ele>633.5</ele>
        <time>2021-10-31T15:47:45Z</time>
      </trkpt>
      <trkpt lat="44.19575" lon="3.16273">
        <ele>633.1</ele>
        <time>2021-10-31T15:47:46Z</time>
      </trkpt>
      <trkpt lat="44.19577" lon="3.16269">
        <ele>631.9</ele>
        <time>2021-10-31T15:47:48Z</time>
      </trkpt>
      <trkpt lat="44.19578" lon="3.16267">
        <ele>631.6</ele>
        <time>2021-10-31T15:47:49Z</time>
      </trkpt>
      <trkpt lat="44.19579" lon="3.16266">
        <ele>631.2</ele>
        <time>2021-10-31T15:47:50Z</time>
      </trkpt>
      <trkpt lat="44.19581" lon="3.16262">
        <ele>630.1</ele>
        <time>2021-10-31T15:47:51Z</time>
      </trkpt>
      <trkpt lat="44.19582" lon="3.1626">
        <ele>629.8</ele>
        <time>2021-10-31T15:47:52Z</time>
      </trkpt>
      <trkpt lat="44.19585" lon="3.16259">
        <ele>629</ele>
        <time>2021-10-31T15:47:54Z</time>
      </trkpt>
      <trkpt lat="44.19588" lon="3.1626">
        <ele>628.1</ele>
        <time>2021-10-31T15:47:56Z</time>
      </trkpt>
      <trkpt lat="44.19589" lon="3.16261">
        <ele>627.9</ele>
        <time>2021-10-31T15:47:58Z</time>
      </trkpt>
      <trkpt lat="44.19589" lon="3.16262">
        <ele>627.7</ele>
        <time>2021-10-31T15:47:59Z</time>
      </trkpt>
      <trkpt lat="44.1959" lon="3.16262">
        <ele>627.5</ele>
        <time>2021-10-31T15:48:00Z</time>
      </trkpt>
      <trkpt lat="44.19591" lon="3.16265">
        <ele>627.1</ele>
        <time>2021-10-31T15:48:02Z</time>
      </trkpt>
      <trkpt lat="44.19591" lon="3.16267">
        <ele>626.8</ele>
        <time>2021-10-31T15:48:04Z</time>
      </trkpt>
      <trkpt lat="44.19592" lon="3.16269">
        <ele>626.6</ele>
        <time>2021-10-31T15:48:05Z</time>
      </trkpt>
      <trkpt lat="44.19593" lon="3.16269">
        <ele>626.4</ele>
        <time>2021-10-31T15:48:07Z</time>
      </trkpt>
      <trkpt lat="44.19595" lon="3.16271">
        <ele>626</ele>
        <time>2021-10-31T15:48:09Z</time>
      </trkpt>
      <trkpt lat="44.19597" lon="3.16272">
        <ele>625.7</ele>
        <time>2021-10-31T15:48:10Z</time>
      </trkpt>
      <trkpt lat="44.19597" lon="3.16273">
        <ele>625.6</ele>
        <time>2021-10-31T15:48:12Z</time>
      </trkpt>
      <trkpt lat="44.19598" lon="3.16275">
        <ele>625.5</ele>
        <time>2021-10-31T15:48:13Z</time>
      </trkpt>
      <trkpt lat="44.19599" lon="3.16277">
        <ele>625.3</ele>
        <time>2021-10-31T15:48:15Z</time>
      </trkpt>
      <trkpt lat="44.196" lon="3.16283">
        <ele>624.7</ele>
        <time>2021-10-31T15:48:17Z</time>
      </trkpt>
      <trkpt lat="44.196" lon="3.16285">
        <ele>624.5</ele>
        <time>2021-10-31T15:48:18Z</time>
      </trkpt>
      <trkpt lat="44.19598" lon="3.1629">
        <ele>624.1</ele>
        <time>2021-10-31T15:48:20Z</time>
      </trkpt>
      <trkpt lat="44.19598" lon="3.16291">
        <ele>623.9</ele>
        <time>2021-10-31T15:48:21Z</time>
      </trkpt>
      <trkpt lat="44.19596" lon="3.16296">
        <ele>623.5</ele>
        <time>2021-10-31T15:48:22Z</time>
      </trkpt>
      <trkpt lat="44.19595" lon="3.163">
        <ele>623.1</ele>
        <time>2021-10-31T15:48:23Z</time>
      </trkpt>
      <trkpt lat="44.19595" lon="3.16305">
        <ele>622.6</ele>
        <time>2021-10-31T15:48:25Z</time>
      </trkpt>
      <trkpt lat="44.19595" lon="3.1631">
        <ele>622</ele>
        <time>2021-10-31T15:48:26Z</time>
      </trkpt>
      <trkpt lat="44.19596" lon="3.16314">
        <ele>621.5</ele>
        <time>2021-10-31T15:48:28Z</time>
      </trkpt>
      <trkpt lat="44.19596" lon="3.1632">
        <ele>620.8</ele>
        <time>2021-10-31T15:48:29Z</time>
      </trkpt>
      <trkpt lat="44.19596" lon="3.16327">
        <ele>620.1</ele>
        <time>2021-10-31T15:48:31Z</time>
      </trkpt>
      <trkpt lat="44.19596" lon="3.16335">
        <ele>619</ele>
        <time>2021-10-31T15:48:32Z</time>
      </trkpt>
      <trkpt lat="44.19596" lon="3.16341">
        <ele>618.2</ele>
        <time>2021-10-31T15:48:33Z</time>
      </trkpt>
      <trkpt lat="44.19596" lon="3.1635">
        <ele>617.1</ele>
        <time>2021-10-31T15:48:35Z</time>
      </trkpt>
      <trkpt lat="44.19596" lon="3.1636">
        <ele>615.9</ele>
        <time>2021-10-31T15:48:36Z</time>
      </trkpt>
      <trkpt lat="44.19596" lon="3.16366">
        <ele>615.2</ele>
        <time>2021-10-31T15:48:38Z</time>
      </trkpt>
      <trkpt lat="44.19596" lon="3.16374">
        <ele>614.4</ele>
        <time>2021-10-31T15:48:39Z</time>
      </trkpt>
      <trkpt lat="44.19597" lon="3.16379">
        <ele>614</ele>
        <time>2021-10-31T15:48:40Z</time>
      </trkpt>
      <trkpt lat="44.19597" lon="3.16385">
        <ele>613.4</ele>
        <time>2021-10-31T15:48:42Z</time>
      </trkpt>
      <trkpt lat="44.19596" lon="3.16391">
        <ele>612.7</ele>
        <time>2021-10-31T15:48:43Z</time>
      </trkpt>
      <trkpt lat="44.19596" lon="3.16398">
        <ele>612.1</ele>
        <time>2021-10-31T15:48:44Z</time>
      </trkpt>
      <trkpt lat="44.19594" lon="3.16407">
        <ele>611.4</ele>
        <time>2021-10-31T15:48:46Z</time>
      </trkpt>
      <trkpt lat="44.19593" lon="3.16411">
        <ele>611</ele>
        <time>2021-10-31T15:48:48Z</time>
      </trkpt>
      <trkpt lat="44.19593" lon="3.16413">
        <ele>610.9</ele>
        <time>2021-10-31T15:48:49Z</time>
      </trkpt>
      <trkpt lat="44.19591" lon="3.16419">
        <ele>610.3</ele>
        <time>2021-10-31T15:48:50Z</time>
      </trkpt>
      <trkpt lat="44.1959" lon="3.16426">
        <ele>609.8</ele>
        <time>2021-10-31T15:48:51Z</time>
      </trkpt>
      <trkpt lat="44.1959" lon="3.16429">
        <ele>609.5</ele>
        <time>2021-10-31T15:48:52Z</time>
      </trkpt>
      <trkpt lat="44.19589" lon="3.16432">
        <ele>609.3</ele>
        <time>2021-10-31T15:48:54Z</time>
      </trkpt>
      <trkpt lat="44.19589" lon="3.16437">
        <ele>609</ele>
        <time>2021-10-31T15:48:55Z</time>
      </trkpt>
      <trkpt lat="44.19588" lon="3.16444">
        <ele>608.6</ele>
        <time>2021-10-31T15:48:57Z</time>
      </trkpt>
      <trkpt lat="44.19587" lon="3.16446">
        <ele>608.5</ele>
        <time>2021-10-31T15:48:58Z</time>
      </trkpt>
      <trkpt lat="44.19587" lon="3.16449">
        <ele>608.3</ele>
        <time>2021-10-31T15:48:59Z</time>
      </trkpt>
      <trkpt lat="44.19586" lon="3.16454">
        <ele>608.1</ele>
        <time>2021-10-31T15:49:01Z</time>
      </trkpt>
      <trkpt lat="44.19583" lon="3.16459">
        <ele>607.7</ele>
        <time>2021-10-31T15:49:02Z</time>
      </trkpt>
      <trkpt lat="44.1958" lon="3.16462">
        <ele>607.5</ele>
        <time>2021-10-31T15:49:03Z</time>
      </trkpt>
      <trkpt lat="44.19578" lon="3.16465">
        <ele>607.3</ele>
        <time>2021-10-31T15:49:05Z</time>
      </trkpt>
      <trkpt lat="44.19578" lon="3.16469">
        <ele>607</ele>
        <time>2021-10-31T15:49:06Z</time>
      </trkpt>
      <trkpt lat="44.19576" lon="3.16474">
        <ele>606.6</ele>
        <time>2021-10-31T15:49:07Z</time>
      </trkpt>
      <trkpt lat="44.19575" lon="3.16481">
        <ele>606.1</ele>
        <time>2021-10-31T15:49:08Z</time>
      </trkpt>
      <trkpt lat="44.19572" lon="3.1649">
        <ele>605.4</ele>
        <time>2021-10-31T15:49:10Z</time>
      </trkpt>
      <trkpt lat="44.19571" lon="3.16495">
        <ele>605</ele>
        <time>2021-10-31T15:49:12Z</time>
      </trkpt>
      <trkpt lat="44.19569" lon="3.165">
        <ele>604.6</ele>
        <time>2021-10-31T15:49:13Z</time>
      </trkpt>
      <trkpt lat="44.19568" lon="3.16502">
        <ele>604.5</ele>
        <time>2021-10-31T15:49:14Z</time>
      </trkpt>
      <trkpt lat="44.19566" lon="3.16507">
        <ele>604</ele>
        <time>2021-10-31T15:49:16Z</time>
      </trkpt>
      <trkpt lat="44.19564" lon="3.1651">
        <ele>603.8</ele>
        <time>2021-10-31T15:49:17Z</time>
      </trkpt>
      <trkpt lat="44.19563" lon="3.16516">
        <ele>603.3</ele>
        <time>2021-10-31T15:49:18Z</time>
      </trkpt>
      <trkpt lat="44.19562" lon="3.16521">
        <ele>603</ele>
        <time>2021-10-31T15:49:20Z</time>
      </trkpt>
      <trkpt lat="44.1956" lon="3.16524">
        <ele>602.6</ele>
        <time>2021-10-31T15:49:21Z</time>
      </trkpt>
      <trkpt lat="44.19558" lon="3.16527">
        <ele>602.2</ele>
        <time>2021-10-31T15:49:22Z</time>
      </trkpt>
      <trkpt lat="44.19554" lon="3.1653">
        <ele>601.7</ele>
        <time>2021-10-31T15:49:23Z</time>
      </trkpt>
      <trkpt lat="44.19551" lon="3.16532">
        <ele>601.3</ele>
        <time>2021-10-31T15:49:24Z</time>
      </trkpt>
      <trkpt lat="44.19549" lon="3.16535">
        <ele>601</ele>
        <time>2021-10-31T15:49:25Z</time>
      </trkpt>
      <trkpt lat="44.19546" lon="3.16537">
        <ele>600.6</ele>
        <time>2021-10-31T15:49:27Z</time>
      </trkpt>
      <trkpt lat="44.19542" lon="3.16541">
        <ele>600</ele>
        <time>2021-10-31T15:49:28Z</time>
      </trkpt>
      <trkpt lat="44.19538" lon="3.16546">
        <ele>599.5</ele>
        <time>2021-10-31T15:49:30Z</time>
      </trkpt>
      <trkpt lat="44.19537" lon="3.16549">
        <ele>599.4</ele>
        <time>2021-10-31T15:49:32Z</time>
      </trkpt>
      <trkpt lat="44.19537" lon="3.16551">
        <ele>599.2</ele>
        <time>2021-10-31T15:49:33Z</time>
      </trkpt>
      <trkpt lat="44.19536" lon="3.16554">
        <ele>599</ele>
        <time>2021-10-31T15:49:34Z</time>
      </trkpt>
      <trkpt lat="44.19534" lon="3.16557">
        <ele>598.7</ele>
        <time>2021-10-31T15:49:36Z</time>
      </trkpt>
      <trkpt lat="44.19531" lon="3.16561">
        <ele>598.3</ele>
        <time>2021-10-31T15:49:37Z</time>
      </trkpt>
      <trkpt lat="44.19528" lon="3.16565">
        <ele>597.8</ele>
        <time>2021-10-31T15:49:38Z</time>
      </trkpt>
      <trkpt lat="44.19525" lon="3.16569">
        <ele>597.4</ele>
        <time>2021-10-31T15:49:39Z</time>
      </trkpt>
      <trkpt lat="44.19524" lon="3.16572">
        <ele>597</ele>
        <time>2021-10-31T15:49:40Z</time>
      </trkpt>
      <trkpt lat="44.19521" lon="3.16576">
        <ele>596.5</ele>
        <time>2021-10-31T15:49:41Z</time>
      </trkpt>
      <trkpt lat="44.1952" lon="3.16577">
        <ele>596.2</ele>
        <time>2021-10-31T15:49:42Z</time>
      </trkpt>
      <trkpt lat="44.19518" lon="3.16582">
        <ele>595.5</ele>
        <time>2021-10-31T15:49:44Z</time>
      </trkpt>
      <trkpt lat="44.19517" lon="3.16585">
        <ele>595.2</ele>
        <time>2021-10-31T15:49:45Z</time>
      </trkpt>
      <trkpt lat="44.19515" lon="3.16589">
        <ele>594.6</ele>
        <time>2021-10-31T15:49:46Z</time>
      </trkpt>
      <trkpt lat="44.19515" lon="3.1659">
        <ele>594.4</ele>
        <time>2021-10-31T15:49:47Z</time>
      </trkpt>
      <trkpt lat="44.19513" lon="3.16593">
        <ele>594</ele>
        <time>2021-10-31T15:49:48Z</time>
      </trkpt>
      <trkpt lat="44.1951" lon="3.16596">
        <ele>593.3</ele>
        <time>2021-10-31T15:49:50Z</time>
      </trkpt>
      <trkpt lat="44.19506" lon="3.166">
        <ele>592.2</ele>
        <time>2021-10-31T15:49:52Z</time>
      </trkpt>
      <trkpt lat="44.19502" lon="3.16602">
        <ele>591.5</ele>
        <time>2021-10-31T15:49:53Z</time>
      </trkpt>
      <trkpt lat="44.195" lon="3.16606">
        <ele>590.9</ele>
        <time>2021-10-31T15:49:54Z</time>
      </trkpt>
      <trkpt lat="44.19497" lon="3.16611">
        <ele>589.9</ele>
        <time>2021-10-31T15:49:56Z</time>
      </trkpt>
      <trkpt lat="44.19496" lon="3.16613">
        <ele>589.6</ele>
        <time>2021-10-31T15:49:57Z</time>
      </trkpt>
      <trkpt lat="44.19495" lon="3.16615">
        <ele>589.3</ele>
        <time>2021-10-31T15:49:58Z</time>
      </trkpt>
      <trkpt lat="44.19495" lon="3.16619">
        <ele>588.6</ele>
        <time>2021-10-31T15:49:59Z</time>
      </trkpt>
      <trkpt lat="44.19495" lon="3.1662">
        <ele>588.5</ele>
        <time>2021-10-31T15:50:01Z</time>
      </trkpt>
      <trkpt lat="44.19494" lon="3.16623">
        <ele>588</ele>
        <time>2021-10-31T15:50:02Z</time>
      </trkpt>
      <trkpt lat="44.19493" lon="3.16625">
        <ele>587.7</ele>
        <time>2021-10-31T15:50:03Z</time>
      </trkpt>
      <trkpt lat="44.19492" lon="3.16628">
        <ele>587.2</ele>
        <time>2021-10-31T15:50:05Z</time>
      </trkpt>
      <trkpt lat="44.19492" lon="3.16629">
        <ele>587.1</ele>
        <time>2021-10-31T15:50:06Z</time>
      </trkpt>
      <trkpt lat="44.19493" lon="3.16629">
        <ele>586.8</ele>
        <time>2021-10-31T15:50:15Z</time>
      </trkpt>
      <trkpt lat="44.19493" lon="3.16636">
        <ele>585.7</ele>
        <time>2021-10-31T15:50:35Z</time>
      </trkpt>
      <trkpt lat="44.19492" lon="3.16642">
        <ele>584.7</ele>
        <time>2021-10-31T15:50:37Z</time>
      </trkpt>
      <trkpt lat="44.1949" lon="3.16647">
        <ele>583.6</ele>
        <time>2021-10-31T15:50:38Z</time>
      </trkpt>
      <trkpt lat="44.19487" lon="3.16655">
        <ele>582.1</ele>
        <time>2021-10-31T15:50:40Z</time>
      </trkpt>
      <trkpt lat="44.19486" lon="3.16659">
        <ele>580.1</ele>
        <time>2021-10-31T15:50:41Z</time>
      </trkpt>
      <trkpt lat="44.19485" lon="3.16663">
        <ele>580.3</ele>
        <time>2021-10-31T15:50:42Z</time>
      </trkpt>
      <trkpt lat="44.19483" lon="3.16668">
        <ele>578.2</ele>
        <time>2021-10-31T15:50:44Z</time>
      </trkpt>
      <trkpt lat="44.19481" lon="3.16675">
        <ele>576.8</ele>
        <time>2021-10-31T15:50:45Z</time>
      </trkpt>
      <trkpt lat="44.19478" lon="3.16677">
        <ele>577.6</ele>
        <time>2021-10-31T15:50:46Z</time>
      </trkpt>
      <trkpt lat="44.19476" lon="3.16681">
        <ele>580.5</ele>
        <time>2021-10-31T15:50:48Z</time>
      </trkpt>
      <trkpt lat="44.19472" lon="3.16685">
        <ele>581.4</ele>
        <time>2021-10-31T15:50:49Z</time>
      </trkpt>
      <trkpt lat="44.19469" lon="3.16691">
        <ele>580.2</ele>
        <time>2021-10-31T15:50:51Z</time>
      </trkpt>
      <trkpt lat="44.19468" lon="3.16692">
        <ele>580.2</ele>
        <time>2021-10-31T15:50:52Z</time>
      </trkpt>
      <trkpt lat="44.19467" lon="3.16694">
        <ele>578.1</ele>
        <time>2021-10-31T15:50:53Z</time>
      </trkpt>
      <trkpt lat="44.19466" lon="3.16697">
        <ele>580.7</ele>
        <time>2021-10-31T15:50:55Z</time>
      </trkpt>
      <trkpt lat="44.19466" lon="3.16698">
        <ele>578.5</ele>
        <time>2021-10-31T15:50:56Z</time>
      </trkpt>
      <trkpt lat="44.19465" lon="3.16699">
        <ele>578.6</ele>
        <time>2021-10-31T15:50:57Z</time>
      </trkpt>
      <trkpt lat="44.19465" lon="3.167">
        <ele>578.6</ele>
        <time>2021-10-31T15:50:58Z</time>
      </trkpt>
      <trkpt lat="44.19465" lon="3.16701">
        <ele>578.7</ele>
        <time>2021-10-31T15:51:00Z</time>
      </trkpt>
      <trkpt lat="44.19466" lon="3.16701">
        <ele>578.7</ele>
        <time>2021-10-31T15:51:01Z</time>
      </trkpt>
      <trkpt lat="44.19467" lon="3.16701">
        <ele>578.8</ele>
        <time>2021-10-31T15:51:02Z</time>
      </trkpt>
      <trkpt lat="44.19468" lon="3.16701">
        <ele>576.3</ele>
        <time>2021-10-31T15:51:05Z</time>
      </trkpt>
      <trkpt lat="44.19467" lon="3.16716">
        <ele>567.5</ele>
        <time>2021-10-31T15:51:58Z</time>
      </trkpt>
      <trkpt lat="44.19467" lon="3.16715">
        <ele>567.3</ele>
        <time>2021-10-31T15:52:00Z</time>
      </trkpt>
      <trkpt lat="44.19468" lon="3.16715">
        <ele>567.1</ele>
        <time>2021-10-31T15:52:06Z</time>
      </trkpt>
      <trkpt lat="44.19468" lon="3.16716">
        <ele>567</ele>
        <time>2021-10-31T15:52:09Z</time>
      </trkpt>
      <trkpt lat="44.19468" lon="3.16717">
        <ele>566.8</ele>
        <time>2021-10-31T15:52:12Z</time>
      </trkpt>
      <trkpt lat="44.19469" lon="3.16717">
        <ele>566.6</ele>
        <time>2021-10-31T15:52:13Z</time>
      </trkpt>
      <trkpt lat="44.1947" lon="3.16717">
        <ele>566.3</ele>
        <time>2021-10-31T15:52:15Z</time>
      </trkpt>
      <trkpt lat="44.19474" lon="3.16716">
        <ele>565.2</ele>
        <time>2021-10-31T15:52:16Z</time>
      </trkpt>
      <trkpt lat="44.19478" lon="3.16715">
        <ele>564.3</ele>
        <time>2021-10-31T15:52:17Z</time>
      </trkpt>
      <trkpt lat="44.19483" lon="3.16713">
        <ele>563.2</ele>
        <time>2021-10-31T15:52:19Z</time>
      </trkpt>
      <trkpt lat="44.19487" lon="3.16711">
        <ele>562.2</ele>
        <time>2021-10-31T15:52:20Z</time>
      </trkpt>
      <trkpt lat="44.19491" lon="3.16709">
        <ele>561.3</ele>
        <time>2021-10-31T15:52:21Z</time>
      </trkpt>
      <trkpt lat="44.19495" lon="3.16707">
        <ele>560.3</ele>
        <time>2021-10-31T15:52:22Z</time>
      </trkpt>
      <trkpt lat="44.19499" lon="3.16706">
        <ele>559.5</ele>
        <time>2021-10-31T15:52:24Z</time>
      </trkpt>
      <trkpt lat="44.19504" lon="3.16705">
        <ele>558.3</ele>
        <time>2021-10-31T15:52:25Z</time>
      </trkpt>
      <trkpt lat="44.19517" lon="3.16696">
        <ele>555.1</ele>
        <time>2021-10-31T15:52:28Z</time>
      </trkpt>
      <trkpt lat="44.19519" lon="3.16695">
        <ele>554.4</ele>
        <time>2021-10-31T15:52:29Z</time>
      </trkpt>
      <trkpt lat="44.19524" lon="3.16692">
        <ele>553.3</ele>
        <time>2021-10-31T15:52:30Z</time>
      </trkpt>
      <trkpt lat="44.19527" lon="3.16686">
        <ele>552.2</ele>
        <time>2021-10-31T15:52:32Z</time>
      </trkpt>
      <trkpt lat="44.1953" lon="3.1668">
        <ele>551</ele>
        <time>2021-10-31T15:52:33Z</time>
      </trkpt>
      <trkpt lat="44.19534" lon="3.16676">
        <ele>550.2</ele>
        <time>2021-10-31T15:52:34Z</time>
      </trkpt>
      <trkpt lat="44.19539" lon="3.16668">
        <ele>548.9</ele>
        <time>2021-10-31T15:52:35Z</time>
      </trkpt>
      <trkpt lat="44.19544" lon="3.16662">
        <ele>547.6</ele>
        <time>2021-10-31T15:52:37Z</time>
      </trkpt>
      <trkpt lat="44.19548" lon="3.16659">
        <ele>546.7</ele>
        <time>2021-10-31T15:52:38Z</time>
      </trkpt>
      <trkpt lat="44.19553" lon="3.16655">
        <ele>545.7</ele>
        <time>2021-10-31T15:52:39Z</time>
      </trkpt>
      <trkpt lat="44.19564" lon="3.16648">
        <ele>543.4</ele>
        <time>2021-10-31T15:52:40Z</time>
      </trkpt>
      <trkpt lat="44.19568" lon="3.16642">
        <ele>542.3</ele>
        <time>2021-10-31T15:52:42Z</time>
      </trkpt>
      <trkpt lat="44.19575" lon="3.1664">
        <ele>541.1</ele>
        <time>2021-10-31T15:52:43Z</time>
      </trkpt>
      <trkpt lat="44.19582" lon="3.16638">
        <ele>539.8</ele>
        <time>2021-10-31T15:52:44Z</time>
      </trkpt>
      <trkpt lat="44.19588" lon="3.16637">
        <ele>538.7</ele>
        <time>2021-10-31T15:52:46Z</time>
      </trkpt>
      <trkpt lat="44.19605" lon="3.16632">
        <ele>535.6</ele>
        <time>2021-10-31T15:52:48Z</time>
      </trkpt>
      <trkpt lat="44.19612" lon="3.16628">
        <ele>534.3</ele>
        <time>2021-10-31T15:52:49Z</time>
      </trkpt>
      <trkpt lat="44.1962" lon="3.16622">
        <ele>532.8</ele>
        <time>2021-10-31T15:52:51Z</time>
      </trkpt>
      <trkpt lat="44.19624" lon="3.16619">
        <ele>532.1</ele>
        <time>2021-10-31T15:52:52Z</time>
      </trkpt>
      <trkpt lat="44.19624" lon="3.16618">
        <ele>532</ele>
        <time>2021-10-31T15:52:54Z</time>
      </trkpt>
      <trkpt lat="44.19622" lon="3.1662">
        <ele>531.6</ele>
        <time>2021-10-31T15:52:55Z</time>
      </trkpt>
      <trkpt lat="44.19622" lon="3.16622">
        <ele>531.3</ele>
        <time>2021-10-31T15:52:57Z</time>
      </trkpt>
      <trkpt lat="44.19622" lon="3.16623">
        <ele>531.2</ele>
        <time>2021-10-31T15:52:59Z</time>
      </trkpt>
      <trkpt lat="44.19622" lon="3.16622">
        <ele>531.1</ele>
        <time>2021-10-31T15:53:02Z</time>
      </trkpt>
      <trkpt lat="44.1962" lon="3.16625">
        <ele>530.5</ele>
        <time>2021-10-31T15:53:53Z</time>
      </trkpt>
      <trkpt lat="44.19619" lon="3.16625">
        <ele>530.4</ele>
        <time>2021-10-31T15:53:58Z</time>
      </trkpt>
      <trkpt lat="44.19619" lon="3.16627">
        <ele>530.1</ele>
        <time>2021-10-31T15:54:00Z</time>
      </trkpt>
      <trkpt lat="44.19619" lon="3.16626">
        <ele>529.9</ele>
        <time>2021-10-31T15:54:01Z</time>
      </trkpt>
      <trkpt lat="44.1962" lon="3.16626">
        <ele>529.9</ele>
        <time>2021-10-31T15:54:02Z</time>
      </trkpt>
      <trkpt lat="44.19619" lon="3.16627">
        <ele>529.8</ele>
        <time>2021-10-31T15:54:05Z</time>
      </trkpt>
      <trkpt lat="44.19619" lon="3.16628">
        <ele>529.6</ele>
        <time>2021-10-31T15:54:11Z</time>
      </trkpt>
      <trkpt lat="44.19621" lon="3.16628">
        <ele>529.2</ele>
        <time>2021-10-31T15:54:21Z</time>
      </trkpt>
      <trkpt lat="44.19621" lon="3.16627">
        <ele>529.1</ele>
        <time>2021-10-31T15:54:22Z</time>
      </trkpt>
      <trkpt lat="44.19622" lon="3.16627">
        <ele>528.9</ele>
        <time>2021-10-31T15:54:24Z</time>
      </trkpt>
      <trkpt lat="44.19623" lon="3.16628">
        <ele>528.7</ele>
        <time>2021-10-31T15:54:31Z</time>
      </trkpt>
      <trkpt lat="44.19623" lon="3.16629">
        <ele>528.5</ele>
        <time>2021-10-31T15:54:33Z</time>
      </trkpt>
      <trkpt lat="44.19624" lon="3.16629">
        <ele>528.3</ele>
        <time>2021-10-31T15:54:36Z</time>
      </trkpt>
      <trkpt lat="44.19624" lon="3.16628">
        <ele>528.2</ele>
        <time>2021-10-31T15:54:37Z</time>
      </trkpt>
      <trkpt lat="44.19625" lon="3.16629">
        <ele>528.1</ele>
        <time>2021-10-31T15:54:38Z</time>
      </trkpt>
      <trkpt lat="44.19626" lon="3.16629">
        <ele>527.7</ele>
        <time>2021-10-31T15:54:40Z</time>
      </trkpt>
      <trkpt lat="44.19628" lon="3.16629">
        <ele>527.2</ele>
        <time>2021-10-31T15:54:42Z</time>
      </trkpt>
      <trkpt lat="44.19632" lon="3.16628">
        <ele>526.3</ele>
        <time>2021-10-31T15:54:43Z</time>
      </trkpt>
      <trkpt lat="44.19638" lon="3.16626">
        <ele>525.2</ele>
        <time>2021-10-31T15:54:44Z</time>
      </trkpt>
      <trkpt lat="44.19643" lon="3.16624">
        <ele>524.2</ele>
        <time>2021-10-31T15:54:46Z</time>
      </trkpt>
      <trkpt lat="44.19652" lon="3.1662">
        <ele>522.4</ele>
        <time>2021-10-31T15:54:47Z</time>
      </trkpt>
      <trkpt lat="44.19658" lon="3.16617">
        <ele>521.2</ele>
        <time>2021-10-31T15:54:48Z</time>
      </trkpt>
      <trkpt lat="44.19664" lon="3.16615">
        <ele>520</ele>
        <time>2021-10-31T15:54:50Z</time>
      </trkpt>
      <trkpt lat="44.1967" lon="3.16613">
        <ele>518.8</ele>
        <time>2021-10-31T15:54:51Z</time>
      </trkpt>
      <trkpt lat="44.19676" lon="3.16612">
        <ele>517.7</ele>
        <time>2021-10-31T15:54:52Z</time>
      </trkpt>
      <trkpt lat="44.19686" lon="3.16608">
        <ele>515.6</ele>
        <time>2021-10-31T15:54:54Z</time>
      </trkpt>
      <trkpt lat="44.19692" lon="3.16605">
        <ele>514.2</ele>
        <time>2021-10-31T15:54:56Z</time>
      </trkpt>
      <trkpt lat="44.19695" lon="3.16605">
        <ele>513.5</ele>
        <time>2021-10-31T15:54:57Z</time>
      </trkpt>
      <trkpt lat="44.19696" lon="3.16605">
        <ele>513.3</ele>
        <time>2021-10-31T15:54:58Z</time>
      </trkpt>
      <trkpt lat="44.19698" lon="3.16607">
        <ele>511.8</ele>
        <time>2021-10-31T15:54:59Z</time>
      </trkpt>
      <trkpt lat="44.19699" lon="3.16608">
        <ele>511.7</ele>
        <time>2021-10-31T15:55:00Z</time>
      </trkpt>
      <trkpt lat="44.19701" lon="3.1661">
        <ele>511.2</ele>
        <time>2021-10-31T15:55:02Z</time>
      </trkpt>
      <trkpt lat="44.19703" lon="3.16612">
        <ele>510.7</ele>
        <time>2021-10-31T15:55:04Z</time>
      </trkpt>
      <trkpt lat="44.19705" lon="3.16615">
        <ele>510.2</ele>
        <time>2021-10-31T15:55:05Z</time>
      </trkpt>
      <trkpt lat="44.19708" lon="3.16616">
        <ele>509.6</ele>
        <time>2021-10-31T15:55:07Z</time>
      </trkpt>
      <trkpt lat="44.19711" lon="3.16618">
        <ele>509.1</ele>
        <time>2021-10-31T15:55:08Z</time>
      </trkpt>
      <trkpt lat="44.19714" lon="3.16619">
        <ele>508.5</ele>
        <time>2021-10-31T15:55:10Z</time>
      </trkpt>
      <trkpt lat="44.19717" lon="3.16622">
        <ele>507.8</ele>
        <time>2021-10-31T15:55:11Z</time>
      </trkpt>
      <trkpt lat="44.1972" lon="3.16626">
        <ele>507</ele>
        <time>2021-10-31T15:55:13Z</time>
      </trkpt>
      <trkpt lat="44.19721" lon="3.16627">
        <ele>506.7</ele>
        <time>2021-10-31T15:55:14Z</time>
      </trkpt>
      <trkpt lat="44.19722" lon="3.16629">
        <ele>506.4</ele>
        <time>2021-10-31T15:55:15Z</time>
      </trkpt>
      <trkpt lat="44.19724" lon="3.1663">
        <ele>506.1</ele>
        <time>2021-10-31T15:55:16Z</time>
      </trkpt>
      <trkpt lat="44.19727" lon="3.16631">
        <ele>505.6</ele>
        <time>2021-10-31T15:55:18Z</time>
      </trkpt>
      <trkpt lat="44.19728" lon="3.16632">
        <ele>505.3</ele>
        <time>2021-10-31T15:55:19Z</time>
      </trkpt>
      <trkpt lat="44.19728" lon="3.16635">
        <ele>504.9</ele>
        <time>2021-10-31T15:55:20Z</time>
      </trkpt>
      <trkpt lat="44.19729" lon="3.16638">
        <ele>504.5</ele>
        <time>2021-10-31T15:55:21Z</time>
      </trkpt>
      <trkpt lat="44.1973" lon="3.1664">
        <ele>504.2</ele>
        <time>2021-10-31T15:55:23Z</time>
      </trkpt>
      <trkpt lat="44.19733" lon="3.16644">
        <ele>503.5</ele>
        <time>2021-10-31T15:55:25Z</time>
      </trkpt>
      <trkpt lat="44.19735" lon="3.16648">
        <ele>502.8</ele>
        <time>2021-10-31T15:55:26Z</time>
      </trkpt>
      <trkpt lat="44.19737" lon="3.1665">
        <ele>502.4</ele>
        <time>2021-10-31T15:55:28Z</time>
      </trkpt>
      <trkpt lat="44.19738" lon="3.16652">
        <ele>501.9</ele>
        <time>2021-10-31T15:55:30Z</time>
      </trkpt>
      <trkpt lat="44.19739" lon="3.16653">
        <ele>501.7</ele>
        <time>2021-10-31T15:55:32Z</time>
      </trkpt>
      <trkpt lat="44.1974" lon="3.16654">
        <ele>501.4</ele>
        <time>2021-10-31T15:55:33Z</time>
      </trkpt>
      <trkpt lat="44.19741" lon="3.16655">
        <ele>501.2</ele>
        <time>2021-10-31T15:55:34Z</time>
      </trkpt>
      <trkpt lat="44.19747" lon="3.16662">
        <ele>499.6</ele>
        <time>2021-10-31T15:55:36Z</time>
      </trkpt>
      <trkpt lat="44.1975" lon="3.16667">
        <ele>498.6</ele>
        <time>2021-10-31T15:55:38Z</time>
      </trkpt>
      <trkpt lat="44.19754" lon="3.16674">
        <ele>497.4</ele>
        <time>2021-10-31T15:55:39Z</time>
      </trkpt>
      <trkpt lat="44.19757" lon="3.16677">
        <ele>496.7</ele>
        <time>2021-10-31T15:55:40Z</time>
      </trkpt>
      <trkpt lat="44.19762" lon="3.16679">
        <ele>495.6</ele>
        <time>2021-10-31T15:55:42Z</time>
      </trkpt>
      <trkpt lat="44.19764" lon="3.1668">
        <ele>495.3</ele>
        <time>2021-10-31T15:55:43Z</time>
      </trkpt>
      <trkpt lat="44.19765" lon="3.16681">
        <ele>494.9</ele>
        <time>2021-10-31T15:55:44Z</time>
      </trkpt>
      <trkpt lat="44.19768" lon="3.16683">
        <ele>494.3</ele>
        <time>2021-10-31T15:55:45Z</time>
      </trkpt>
      <trkpt lat="44.19771" lon="3.16684">
        <ele>493.7</ele>
        <time>2021-10-31T15:55:47Z</time>
      </trkpt>
      <trkpt lat="44.19775" lon="3.16685">
        <ele>492.9</ele>
        <time>2021-10-31T15:55:49Z</time>
      </trkpt>
      <trkpt lat="44.19779" lon="3.16687">
        <ele>492</ele>
        <time>2021-10-31T15:55:50Z</time>
      </trkpt>
      <trkpt lat="44.19784" lon="3.16689">
        <ele>491</ele>
        <time>2021-10-31T15:55:52Z</time>
      </trkpt>
      <trkpt lat="44.19789" lon="3.16692">
        <ele>490</ele>
        <time>2021-10-31T15:55:53Z</time>
      </trkpt>
      <trkpt lat="44.19792" lon="3.16695">
        <ele>489.2</ele>
        <time>2021-10-31T15:55:55Z</time>
      </trkpt>
      <trkpt lat="44.19795" lon="3.16698">
        <ele>488.5</ele>
        <time>2021-10-31T15:55:56Z</time>
      </trkpt>
      <trkpt lat="44.19798" lon="3.16702">
        <ele>487.8</ele>
        <time>2021-10-31T15:55:58Z</time>
      </trkpt>
      <trkpt lat="44.198" lon="3.16705">
        <ele>487.1</ele>
        <time>2021-10-31T15:55:59Z</time>
      </trkpt>
      <trkpt lat="44.19802" lon="3.16706">
        <ele>486.9</ele>
        <time>2021-10-31T15:56:00Z</time>
      </trkpt>
      <trkpt lat="44.19803" lon="3.16707">
        <ele>486.6</ele>
        <time>2021-10-31T15:56:03Z</time>
      </trkpt>
      <trkpt lat="44.19804" lon="3.16708">
        <ele>486.4</ele>
        <time>2021-10-31T15:56:04Z</time>
      </trkpt>
      <trkpt lat="44.19805" lon="3.16708">
        <ele>486.3</ele>
        <time>2021-10-31T15:56:05Z</time>
      </trkpt>
      <trkpt lat="44.19805" lon="3.16709">
        <ele>486.1</ele>
        <time>2021-10-31T15:56:07Z</time>
      </trkpt>
      <trkpt lat="44.19806" lon="3.1671">
        <ele>485.9</ele>
        <time>2021-10-31T15:56:09Z</time>
      </trkpt>
      <trkpt lat="44.19806" lon="3.16711">
        <ele>485.9</ele>
        <time>2021-10-31T15:56:10Z</time>
      </trkpt>
      <trkpt lat="44.19807" lon="3.16711">
        <ele>485.7</ele>
        <time>2021-10-31T15:56:11Z</time>
      </trkpt>
      <trkpt lat="44.19807" lon="3.16712">
        <ele>485.6</ele>
        <time>2021-10-31T15:56:13Z</time>
      </trkpt>
      <trkpt lat="44.19813" lon="3.16719">
        <ele>484.3</ele>
        <time>2021-10-31T15:56:37Z</time>
      </trkpt>
      <trkpt lat="44.19813" lon="3.16722">
        <ele>484</ele>
        <time>2021-10-31T15:56:39Z</time>
      </trkpt>
      <trkpt lat="44.19814" lon="3.16724">
        <ele>483.7</ele>
        <time>2021-10-31T15:56:40Z</time>
      </trkpt>
      <trkpt lat="44.19816" lon="3.16729">
        <ele>483</ele>
        <time>2021-10-31T15:56:42Z</time>
      </trkpt>
      <trkpt lat="44.19817" lon="3.1673">
        <ele>482.7</ele>
        <time>2021-10-31T15:56:43Z</time>
      </trkpt>
      <trkpt lat="44.19819" lon="3.16732">
        <ele>482.3</ele>
        <time>2021-10-31T15:56:44Z</time>
      </trkpt>
      <trkpt lat="44.19823" lon="3.16734">
        <ele>481.6</ele>
        <time>2021-10-31T15:56:46Z</time>
      </trkpt>
      <trkpt lat="44.19827" lon="3.16737">
        <ele>480.7</ele>
        <time>2021-10-31T15:56:47Z</time>
      </trkpt>
      <trkpt lat="44.19831" lon="3.16741">
        <ele>479.8</ele>
        <time>2021-10-31T15:56:49Z</time>
      </trkpt>
      <trkpt lat="44.19835" lon="3.16744">
        <ele>479</ele>
        <time>2021-10-31T15:56:51Z</time>
      </trkpt>
      <trkpt lat="44.19839" lon="3.16747">
        <ele>478.1</ele>
        <time>2021-10-31T15:56:52Z</time>
      </trkpt>
      <trkpt lat="44.19842" lon="3.1675">
        <ele>477.5</ele>
        <time>2021-10-31T15:56:54Z</time>
      </trkpt>
      <trkpt lat="44.19844" lon="3.16752">
        <ele>477</ele>
        <time>2021-10-31T15:56:55Z</time>
      </trkpt>
      <trkpt lat="44.19848" lon="3.16752">
        <ele>476.3</ele>
        <time>2021-10-31T15:56:57Z</time>
      </trkpt>
      <trkpt lat="44.19851" lon="3.16753">
        <ele>475.8</ele>
        <time>2021-10-31T15:56:58Z</time>
      </trkpt>
      <trkpt lat="44.19853" lon="3.16754">
        <ele>475.4</ele>
        <time>2021-10-31T15:56:59Z</time>
      </trkpt>
      <trkpt lat="44.19855" lon="3.16755">
        <ele>475.1</ele>
        <time>2021-10-31T15:57:01Z</time>
      </trkpt>
      <trkpt lat="44.19857" lon="3.16758">
        <ele>474.5</ele>
        <time>2021-10-31T15:57:02Z</time>
      </trkpt>
      <trkpt lat="44.19859" lon="3.16759">
        <ele>472.2</ele>
        <time>2021-10-31T15:57:03Z</time>
      </trkpt>
      <trkpt lat="44.19862" lon="3.1676">
        <ele>470.3</ele>
        <time>2021-10-31T15:57:05Z</time>
      </trkpt>
      <trkpt lat="44.19867" lon="3.16761">
        <ele>467.3</ele>
        <time>2021-10-31T15:57:06Z</time>
      </trkpt>
      <trkpt lat="44.19869" lon="3.16761">
        <ele>466.5</ele>
        <time>2021-10-31T15:57:07Z</time>
      </trkpt>
      <trkpt lat="44.19872" lon="3.1676">
        <ele>464.6</ele>
        <time>2021-10-31T15:57:09Z</time>
      </trkpt>
      <trkpt lat="44.19873" lon="3.1676">
        <ele>462.7</ele>
        <time>2021-10-31T15:57:10Z</time>
      </trkpt>
      <trkpt lat="44.19874" lon="3.1676">
        <ele>462</ele>
        <time>2021-10-31T15:57:11Z</time>
      </trkpt>
      <trkpt lat="44.19875" lon="3.16761">
        <ele>461.2</ele>
        <time>2021-10-31T15:57:12Z</time>
      </trkpt>
      <trkpt lat="44.19876" lon="3.16762">
        <ele>459.2</ele>
        <time>2021-10-31T15:57:13Z</time>
      </trkpt>
      <trkpt lat="44.19877" lon="3.16762">
        <ele>458.5</ele>
        <time>2021-10-31T15:57:14Z</time>
      </trkpt>
      <trkpt lat="44.19878" lon="3.16763">
        <ele>457.5</ele>
        <time>2021-10-31T15:57:15Z</time>
      </trkpt>
      <trkpt lat="44.19878" lon="3.16764">
        <ele>456.7</ele>
        <time>2021-10-31T15:57:17Z</time>
      </trkpt>
      <trkpt lat="44.19878" lon="3.16765">
        <ele>454.4</ele>
        <time>2021-10-31T15:57:21Z</time>
      </trkpt>
      <trkpt lat="44.19878" lon="3.16766">
        <ele>452</ele>
        <time>2021-10-31T15:57:25Z</time>
      </trkpt>
      <trkpt lat="44.19878" lon="3.16767">
        <ele>451</ele>
        <time>2021-10-31T15:57:26Z</time>
      </trkpt>
      <trkpt lat="44.19881" lon="3.16771">
        <ele>448.1</ele>
        <time>2021-10-31T15:57:31Z</time>
      </trkpt>
      <trkpt lat="44.19886" lon="3.16777">
        <ele>444.6</ele>
        <time>2021-10-31T15:57:33Z</time>
      </trkpt>
      <trkpt lat="44.19891" lon="3.16785">
        <ele>440.9</ele>
        <time>2021-10-31T15:57:34Z</time>
      </trkpt>
      <trkpt lat="44.19896" lon="3.1679">
        <ele>438.7</ele>
        <time>2021-10-31T15:57:35Z</time>
      </trkpt>
      <trkpt lat="44.199" lon="3.16794">
        <ele>436.6</ele>
        <time>2021-10-31T15:57:36Z</time>
      </trkpt>
      <trkpt lat="44.19904" lon="3.16798">
        <ele>433.4</ele>
        <time>2021-10-31T15:57:38Z</time>
      </trkpt>
      <trkpt lat="44.19909" lon="3.16804">
        <ele>431.4</ele>
        <time>2021-10-31T15:57:40Z</time>
      </trkpt>
      <trkpt lat="44.19911" lon="3.16809">
        <ele>429.4</ele>
        <time>2021-10-31T15:57:41Z</time>
      </trkpt>
      <trkpt lat="44.19911" lon="3.16814">
        <ele>428.4</ele>
        <time>2021-10-31T15:57:43Z</time>
      </trkpt>
      <trkpt lat="44.19908" lon="3.16819">
        <ele>428.6</ele>
        <time>2021-10-31T15:57:45Z</time>
      </trkpt>
      <trkpt lat="44.19905" lon="3.16821">
        <ele>428.8</ele>
        <time>2021-10-31T15:57:46Z</time>
      </trkpt>
      <trkpt lat="44.19903" lon="3.16821">
        <ele>429.1</ele>
        <time>2021-10-31T15:57:47Z</time>
      </trkpt>
      <trkpt lat="44.199" lon="3.16822">
        <ele>429.4</ele>
        <time>2021-10-31T15:57:48Z</time>
      </trkpt>
      <trkpt lat="44.19898" lon="3.16822">
        <ele>427.9</ele>
        <time>2021-10-31T15:57:50Z</time>
      </trkpt>
      <trkpt lat="44.19897" lon="3.16824">
        <ele>428.1</ele>
        <time>2021-10-31T15:57:52Z</time>
      </trkpt>
      <trkpt lat="44.19896" lon="3.16827">
        <ele>427.2</ele>
        <time>2021-10-31T15:57:54Z</time>
      </trkpt>
      <trkpt lat="44.19895" lon="3.16831">
        <ele>426.2</ele>
        <time>2021-10-31T15:57:55Z</time>
      </trkpt>
      <trkpt lat="44.19894" lon="3.16834">
        <ele>425.4</ele>
        <time>2021-10-31T15:57:56Z</time>
      </trkpt>
      <trkpt lat="44.19892" lon="3.16836">
        <ele>425.6</ele>
        <time>2021-10-31T15:57:57Z</time>
      </trkpt>
      <trkpt lat="44.19891" lon="3.16837">
        <ele>426</ele>
        <time>2021-10-31T15:57:58Z</time>
      </trkpt>
      <trkpt lat="44.1989" lon="3.16839">
        <ele>425.2</ele>
        <time>2021-10-31T15:58:00Z</time>
      </trkpt>
      <trkpt lat="44.19889" lon="3.1684">
        <ele>424.3</ele>
        <time>2021-10-31T15:58:01Z</time>
      </trkpt>
      <trkpt lat="44.19888" lon="3.16845">
        <ele>423.3</ele>
        <time>2021-10-31T15:58:02Z</time>
      </trkpt>
      <trkpt lat="44.19888" lon="3.16846">
        <ele>423.6</ele>
        <time>2021-10-31T15:58:03Z</time>
      </trkpt>
      <trkpt lat="44.19887" lon="3.16851">
        <ele>422.7</ele>
        <time>2021-10-31T15:58:04Z</time>
      </trkpt>
      <trkpt lat="44.19887" lon="3.16854">
        <ele>422.3</ele>
        <time>2021-10-31T15:58:06Z</time>
      </trkpt>
      <trkpt lat="44.19887" lon="3.16856">
        <ele>422</ele>
        <time>2021-10-31T15:58:07Z</time>
      </trkpt>
      <trkpt lat="44.19888" lon="3.1686">
        <ele>421.4</ele>
        <time>2021-10-31T15:58:08Z</time>
      </trkpt>
      <trkpt lat="44.1989" lon="3.16865">
        <ele>420.6</ele>
        <time>2021-10-31T15:58:09Z</time>
      </trkpt>
      <trkpt lat="44.19894" lon="3.1687">
        <ele>419.5</ele>
        <time>2021-10-31T15:58:11Z</time>
      </trkpt>
      <trkpt lat="44.19914" lon="3.16892">
        <ele>414.5</ele>
        <time>2021-10-31T15:58:12Z</time>
      </trkpt>
      <trkpt lat="44.19921" lon="3.16897">
        <ele>413</ele>
        <time>2021-10-31T15:58:14Z</time>
      </trkpt>
      <trkpt lat="44.19938" lon="3.16919">
        <ele>409</ele>
        <time>2021-10-31T15:58:16Z</time>
      </trkpt>
      <trkpt lat="44.19957" lon="3.16946">
        <ele>404.5</ele>
        <time>2021-10-31T15:58:18Z</time>
      </trkpt>
      <trkpt lat="44.19973" lon="3.16966">
        <ele>400.7</ele>
        <time>2021-10-31T15:58:20Z</time>
      </trkpt>
      <trkpt lat="44.19978" lon="3.16975">
        <ele>399</ele>
        <time>2021-10-31T15:58:21Z</time>
      </trkpt>
      <trkpt lat="44.19983" lon="3.16983">
        <ele>397.3</ele>
        <time>2021-10-31T15:58:22Z</time>
      </trkpt>
      <trkpt lat="44.19987" lon="3.16992">
        <ele>395.7</ele>
        <time>2021-10-31T15:58:23Z</time>
      </trkpt>
      <trkpt lat="44.1999" lon="3.17001">
        <ele>394.3</ele>
        <time>2021-10-31T15:58:24Z</time>
      </trkpt>
      <trkpt lat="44.19996" lon="3.17018">
        <ele>391.6</ele>
        <time>2021-10-31T15:58:26Z</time>
      </trkpt>
      <trkpt lat="44.2" lon="3.17026">
        <ele>389.9</ele>
        <time>2021-10-31T15:58:28Z</time>
      </trkpt>
      <trkpt lat="44.20001" lon="3.17025">
        <ele>389.9</ele>
        <time>2021-10-31T15:58:29Z</time>
      </trkpt>
      <trkpt lat="44.20002" lon="3.17024">
        <ele>389.9</ele>
        <time>2021-10-31T15:58:31Z</time>
      </trkpt>
      <trkpt lat="44.20003" lon="3.17023">
        <ele>389.9</ele>
        <time>2021-10-31T15:58:32Z</time>
      </trkpt>
      <trkpt lat="44.20003" lon="3.17022">
        <ele>389.9</ele>
        <time>2021-10-31T15:58:34Z</time>
      </trkpt>
      <trkpt lat="44.20004" lon="3.17021">
        <ele>389.9</ele>
        <time>2021-10-31T15:58:35Z</time>
      </trkpt>
      <trkpt lat="44.20005" lon="3.17019">
        <ele>389.9</ele>
        <time>2021-10-31T15:58:36Z</time>
      </trkpt>
      <trkpt lat="44.20006" lon="3.17016">
        <ele>389.9</ele>
        <time>2021-10-31T15:58:39Z</time>
      </trkpt>
      <trkpt lat="44.20007" lon="3.17017">
        <ele>389.9</ele>
        <time>2021-10-31T15:58:41Z</time>
      </trkpt>
      <trkpt lat="44.20007" lon="3.17016">
        <ele>389.9</ele>
        <time>2021-10-31T15:58:42Z</time>
      </trkpt>
      <trkpt lat="44.20008" lon="3.17016">
        <ele>389.9</ele>
        <time>2021-10-31T15:58:50Z</time>
      </trkpt>
      <trkpt lat="44.20008" lon="3.17009">
        <ele>389.8</ele>
        <time>2021-10-31T15:59:06Z</time>
      </trkpt>
      <trkpt lat="44.20009" lon="3.17005">
        <ele>389.8</ele>
        <time>2021-10-31T15:59:07Z</time>
      </trkpt>
      <trkpt lat="44.2001" lon="3.16998">
        <ele>389.8</ele>
        <time>2021-10-31T15:59:09Z</time>
      </trkpt>
      <trkpt lat="44.20012" lon="3.16992">
        <ele>389.8</ele>
        <time>2021-10-31T15:59:10Z</time>
      </trkpt>
      <trkpt lat="44.20013" lon="3.16987">
        <ele>389.7</ele>
        <time>2021-10-31T15:59:12Z</time>
      </trkpt>
      <trkpt lat="44.20015" lon="3.16982">
        <ele>389.7</ele>
        <time>2021-10-31T15:59:13Z</time>
      </trkpt>
      <trkpt lat="44.20016" lon="3.16978">
        <ele>389.6</ele>
        <time>2021-10-31T15:59:14Z</time>
      </trkpt>
      <trkpt lat="44.20016" lon="3.16974">
        <ele>389.6</ele>
        <time>2021-10-31T15:59:15Z</time>
      </trkpt>
      <trkpt lat="44.20019" lon="3.16969">
        <ele>389.5</ele>
        <time>2021-10-31T15:59:17Z</time>
      </trkpt>
      <trkpt lat="44.2002" lon="3.16964">
        <ele>389.5</ele>
        <time>2021-10-31T15:59:18Z</time>
      </trkpt>
      <trkpt lat="44.20022" lon="3.1696">
        <ele>389.4</ele>
        <time>2021-10-31T15:59:19Z</time>
      </trkpt>
      <trkpt lat="44.20023" lon="3.16959">
        <ele>389.4</ele>
        <time>2021-10-31T15:59:20Z</time>
      </trkpt>
      <trkpt lat="44.20023" lon="3.16957">
        <ele>389.4</ele>
        <time>2021-10-31T15:59:21Z</time>
      </trkpt>
      <trkpt lat="44.20022" lon="3.16954">
        <ele>389.4</ele>
        <time>2021-10-31T15:59:23Z</time>
      </trkpt>
      <trkpt lat="44.20022" lon="3.16949">
        <ele>389.4</ele>
        <time>2021-10-31T15:59:24Z</time>
      </trkpt>
      <trkpt lat="44.20022" lon="3.16945">
        <ele>389.4</ele>
        <time>2021-10-31T15:59:25Z</time>
      </trkpt>
      <trkpt lat="44.20023" lon="3.16943">
        <ele>389.4</ele>
        <time>2021-10-31T15:59:26Z</time>
      </trkpt>
      <trkpt lat="44.20023" lon="3.16938">
        <ele>389.3</ele>
        <time>2021-10-31T15:59:28Z</time>
      </trkpt>
      <trkpt lat="44.20024" lon="3.16933">
        <ele>389.3</ele>
        <time>2021-10-31T15:59:29Z</time>
      </trkpt>
      <trkpt lat="44.20025" lon="3.16927">
        <ele>389.3</ele>
        <time>2021-10-31T15:59:30Z</time>
      </trkpt>
      <trkpt lat="44.20027" lon="3.16922">
        <ele>389.3</ele>
        <time>2021-10-31T15:59:32Z</time>
      </trkpt>
      <trkpt lat="44.20028" lon="3.16916">
        <ele>389.3</ele>
        <time>2021-10-31T15:59:33Z</time>
      </trkpt>
      <trkpt lat="44.2003" lon="3.1691">
        <ele>389.2</ele>
        <time>2021-10-31T15:59:34Z</time>
      </trkpt>
      <trkpt lat="44.20032" lon="3.169">
        <ele>389.2</ele>
        <time>2021-10-31T15:59:36Z</time>
      </trkpt>
      <trkpt lat="44.20034" lon="3.16889">
        <ele>389.1</ele>
        <time>2021-10-31T15:59:37Z</time>
      </trkpt>
      <trkpt lat="44.20034" lon="3.16882">
        <ele>389.1</ele>
        <time>2021-10-31T15:59:39Z</time>
      </trkpt>
      <trkpt lat="44.20033" lon="3.16876">
        <ele>389.1</ele>
        <time>2021-10-31T15:59:40Z</time>
      </trkpt>
      <trkpt lat="44.20031" lon="3.16868">
        <ele>389.1</ele>
        <time>2021-10-31T15:59:41Z</time>
      </trkpt>
      <trkpt lat="44.2003" lon="3.16863">
        <ele>389.1</ele>
        <time>2021-10-31T15:59:43Z</time>
      </trkpt>
      <trkpt lat="44.20028" lon="3.16856">
        <ele>389.1</ele>
        <time>2021-10-31T15:59:44Z</time>
      </trkpt>
      <trkpt lat="44.20025" lon="3.16844">
        <ele>389.2</ele>
        <time>2021-10-31T15:59:46Z</time>
      </trkpt>
      <trkpt lat="44.20023" lon="3.16815">
        <ele>389.5</ele>
        <time>2021-10-31T15:59:48Z</time>
      </trkpt>
      <trkpt lat="44.20022" lon="3.16808">
        <ele>389.5</ele>
        <time>2021-10-31T15:59:49Z</time>
      </trkpt>
      <trkpt lat="44.2002" lon="3.16796">
        <ele>389.7</ele>
        <time>2021-10-31T15:59:50Z</time>
      </trkpt>
      <trkpt lat="44.20019" lon="3.16783">
        <ele>389.9</ele>
        <time>2021-10-31T15:59:52Z</time>
      </trkpt>
      <trkpt lat="44.20018" lon="3.16768">
        <ele>390.1</ele>
        <time>2021-10-31T15:59:54Z</time>
      </trkpt>
      <trkpt lat="44.20014" lon="3.16758">
        <ele>390.4</ele>
        <time>2021-10-31T15:59:56Z</time>
      </trkpt>
      <trkpt lat="44.20014" lon="3.1675">
        <ele>390.5</ele>
        <time>2021-10-31T15:59:57Z</time>
      </trkpt>
      <trkpt lat="44.20014" lon="3.16742">
        <ele>390.8</ele>
        <time>2021-10-31T15:59:58Z</time>
      </trkpt>
      <trkpt lat="44.20014" lon="3.1673">
        <ele>391.1</ele>
        <time>2021-10-31T16:00:00Z</time>
      </trkpt>
      <trkpt lat="44.20013" lon="3.16725">
        <ele>391.3</ele>
        <time>2021-10-31T16:00:01Z</time>
      </trkpt>
      <trkpt lat="44.20013" lon="3.16719">
        <ele>391.5</ele>
        <time>2021-10-31T16:00:02Z</time>
      </trkpt>
      <trkpt lat="44.20013" lon="3.16708">
        <ele>391.8</ele>
        <time>2021-10-31T16:00:04Z</time>
      </trkpt>
      <trkpt lat="44.20011" lon="3.16696">
        <ele>392.2</ele>
        <time>2021-10-31T16:00:05Z</time>
      </trkpt>
      <trkpt lat="44.20011" lon="3.16684">
        <ele>392.5</ele>
        <time>2021-10-31T16:00:08Z</time>
      </trkpt>
      <trkpt lat="44.2001" lon="3.16679">
        <ele>392.7</ele>
        <time>2021-10-31T16:00:09Z</time>
      </trkpt>
      <trkpt lat="44.2001" lon="3.16674">
        <ele>392.8</ele>
        <time>2021-10-31T16:00:10Z</time>
      </trkpt>
      <trkpt lat="44.20009" lon="3.16667">
        <ele>393</ele>
        <time>2021-10-31T16:00:11Z</time>
      </trkpt>
      <trkpt lat="44.20008" lon="3.1666">
        <ele>393.2</ele>
        <time>2021-10-31T16:00:13Z</time>
      </trkpt>
      <trkpt lat="44.20007" lon="3.16655">
        <ele>393.4</ele>
        <time>2021-10-31T16:00:14Z</time>
      </trkpt>
      <trkpt lat="44.20004" lon="3.1665">
        <ele>393.6</ele>
        <time>2021-10-31T16:00:15Z</time>
      </trkpt>
      <trkpt lat="44.20001" lon="3.16647">
        <ele>393.8</ele>
        <time>2021-10-31T16:00:17Z</time>
      </trkpt>
      <trkpt lat="44.19998" lon="3.16641">
        <ele>394.1</ele>
        <time>2021-10-31T16:00:18Z</time>
      </trkpt>
      <trkpt lat="44.19996" lon="3.16635">
        <ele>394.4</ele>
        <time>2021-10-31T16:00:19Z</time>
      </trkpt>
      <trkpt lat="44.19995" lon="3.16629">
        <ele>394.6</ele>
        <time>2021-10-31T16:00:21Z</time>
      </trkpt>
      <trkpt lat="44.19994" lon="3.16623">
        <ele>394.8</ele>
        <time>2021-10-31T16:00:22Z</time>
      </trkpt>
      <trkpt lat="44.19992" lon="3.16615">
        <ele>395.1</ele>
        <time>2021-10-31T16:00:24Z</time>
      </trkpt>
      <trkpt lat="44.19989" lon="3.16605">
        <ele>395.5</ele>
        <time>2021-10-31T16:00:26Z</time>
      </trkpt>
      <trkpt lat="44.19988" lon="3.16599">
        <ele>395.7</ele>
        <time>2021-10-31T16:00:27Z</time>
      </trkpt>
      <trkpt lat="44.19987" lon="3.16594">
        <ele>395.9</ele>
        <time>2021-10-31T16:00:28Z</time>
      </trkpt>
      <trkpt lat="44.19986" lon="3.16584">
        <ele>396.2</ele>
        <time>2021-10-31T16:00:29Z</time>
      </trkpt>
      <trkpt lat="44.19985" lon="3.16577">
        <ele>396.5</ele>
        <time>2021-10-31T16:00:31Z</time>
      </trkpt>
      <trkpt lat="44.19985" lon="3.16568">
        <ele>396.7</ele>
        <time>2021-10-31T16:00:33Z</time>
      </trkpt>
      <trkpt lat="44.19983" lon="3.16563">
        <ele>396.9</ele>
        <time>2021-10-31T16:00:34Z</time>
      </trkpt>
      <trkpt lat="44.19982" lon="3.16556">
        <ele>397.2</ele>
        <time>2021-10-31T16:00:36Z</time>
      </trkpt>
      <trkpt lat="44.19981" lon="3.16548">
        <ele>397.5</ele>
        <time>2021-10-31T16:00:37Z</time>
      </trkpt>
      <trkpt lat="44.19979" lon="3.16538">
        <ele>397.8</ele>
        <time>2021-10-31T16:00:39Z</time>
      </trkpt>
      <trkpt lat="44.19976" lon="3.1653">
        <ele>398.2</ele>
        <time>2021-10-31T16:00:41Z</time>
      </trkpt>
      <trkpt lat="44.19975" lon="3.16526">
        <ele>398.3</ele>
        <time>2021-10-31T16:00:42Z</time>
      </trkpt>
      <trkpt lat="44.19973" lon="3.16522">
        <ele>398.5</ele>
        <time>2021-10-31T16:00:44Z</time>
      </trkpt>
      <trkpt lat="44.1997" lon="3.16515">
        <ele>398.8</ele>
        <time>2021-10-31T16:00:45Z</time>
      </trkpt>
      <trkpt lat="44.19969" lon="3.16507">
        <ele>399.1</ele>
        <time>2021-10-31T16:00:47Z</time>
      </trkpt>
      <trkpt lat="44.19968" lon="3.16498">
        <ele>399.4</ele>
        <time>2021-10-31T16:00:48Z</time>
      </trkpt>
      <trkpt lat="44.19967" lon="3.16491">
        <ele>399.6</ele>
        <time>2021-10-31T16:00:50Z</time>
      </trkpt>
      <trkpt lat="44.19964" lon="3.16482">
        <ele>400</ele>
        <time>2021-10-31T16:00:52Z</time>
      </trkpt>
      <trkpt lat="44.19964" lon="3.16476">
        <ele>400.1</ele>
        <time>2021-10-31T16:00:53Z</time>
      </trkpt>
      <trkpt lat="44.19963" lon="3.16468">
        <ele>400.4</ele>
        <time>2021-10-31T16:00:55Z</time>
      </trkpt>
      <trkpt lat="44.19963" lon="3.16463">
        <ele>400.5</ele>
        <time>2021-10-31T16:00:56Z</time>
      </trkpt>
      <trkpt lat="44.19962" lon="3.16457">
        <ele>400.7</ele>
        <time>2021-10-31T16:00:57Z</time>
      </trkpt>
      <trkpt lat="44.19962" lon="3.16448">
        <ele>400.9</ele>
        <time>2021-10-31T16:00:58Z</time>
      </trkpt>
      <trkpt lat="44.19962" lon="3.16438">
        <ele>401.1</ele>
        <time>2021-10-31T16:01:00Z</time>
      </trkpt>
      <trkpt lat="44.19961" lon="3.16424">
        <ele>401.3</ele>
        <time>2021-10-31T16:01:01Z</time>
      </trkpt>
      <trkpt lat="44.1996" lon="3.16416">
        <ele>401.4</ele>
        <time>2021-10-31T16:01:03Z</time>
      </trkpt>
      <trkpt lat="44.19959" lon="3.16404">
        <ele>401.5</ele>
        <time>2021-10-31T16:01:05Z</time>
      </trkpt>
      <trkpt lat="44.19958" lon="3.16398">
        <ele>401.6</ele>
        <time>2021-10-31T16:01:06Z</time>
      </trkpt>
      <trkpt lat="44.19958" lon="3.1639">
        <ele>401.7</ele>
        <time>2021-10-31T16:01:07Z</time>
      </trkpt>
      <trkpt lat="44.19958" lon="3.16379">
        <ele>401.7</ele>
        <time>2021-10-31T16:01:08Z</time>
      </trkpt>
      <trkpt lat="44.19958" lon="3.16371">
        <ele>401.7</ele>
        <time>2021-10-31T16:01:10Z</time>
      </trkpt>
      <trkpt lat="44.19958" lon="3.16359">
        <ele>401.7</ele>
        <time>2021-10-31T16:01:11Z</time>
      </trkpt>
      <trkpt lat="44.19953" lon="3.16341">
        <ele>401.6</ele>
        <time>2021-10-31T16:01:13Z</time>
      </trkpt>
      <trkpt lat="44.19951" lon="3.16326">
        <ele>401.5</ele>
        <time>2021-10-31T16:01:15Z</time>
      </trkpt>
      <trkpt lat="44.19951" lon="3.16313">
        <ele>401.4</ele>
        <time>2021-10-31T16:01:17Z</time>
      </trkpt>
      <trkpt lat="44.19948" lon="3.16298">
        <ele>401.1</ele>
        <time>2021-10-31T16:01:19Z</time>
      </trkpt>
      <trkpt lat="44.19941" lon="3.16281">
        <ele>400.8</ele>
        <time>2021-10-31T16:01:21Z</time>
      </trkpt>
      <trkpt lat="44.19939" lon="3.16272">
        <ele>400.6</ele>
        <time>2021-10-31T16:01:22Z</time>
      </trkpt>
      <trkpt lat="44.1994" lon="3.16257">
        <ele>400.2</ele>
        <time>2021-10-31T16:01:24Z</time>
      </trkpt>
      <trkpt lat="44.19935" lon="3.16243">
        <ele>399.8</ele>
        <time>2021-10-31T16:01:26Z</time>
      </trkpt>
      <trkpt lat="44.19932" lon="3.16236">
        <ele>399.6</ele>
        <time>2021-10-31T16:01:27Z</time>
      </trkpt>
      <trkpt lat="44.19931" lon="3.16227">
        <ele>399.3</ele>
        <time>2021-10-31T16:01:28Z</time>
      </trkpt>
      <trkpt lat="44.1993" lon="3.16207">
        <ele>398.8</ele>
        <time>2021-10-31T16:01:30Z</time>
      </trkpt>
      <trkpt lat="44.1993" lon="3.16198">
        <ele>398.5</ele>
        <time>2021-10-31T16:01:31Z</time>
      </trkpt>
      <trkpt lat="44.19929" lon="3.16191">
        <ele>398.3</ele>
        <time>2021-10-31T16:01:32Z</time>
      </trkpt>
      <trkpt lat="44.19926" lon="3.16181">
        <ele>398</ele>
        <time>2021-10-31T16:01:33Z</time>
      </trkpt>
      <trkpt lat="44.19921" lon="3.16162">
        <ele>397.3</ele>
        <time>2021-10-31T16:01:35Z</time>
      </trkpt>
      <trkpt lat="44.19919" lon="3.16152">
        <ele>396.9</ele>
        <time>2021-10-31T16:01:36Z</time>
      </trkpt>
      <trkpt lat="44.19916" lon="3.16131">
        <ele>396.1</ele>
        <time>2021-10-31T16:01:38Z</time>
      </trkpt>
      <trkpt lat="44.19914" lon="3.1611">
        <ele>395.3</ele>
        <time>2021-10-31T16:01:40Z</time>
      </trkpt>
      <trkpt lat="44.19912" lon="3.16099">
        <ele>394.8</ele>
        <time>2021-10-31T16:01:41Z</time>
      </trkpt>
      <trkpt lat="44.19909" lon="3.16087">
        <ele>394.4</ele>
        <time>2021-10-31T16:01:42Z</time>
      </trkpt>
      <trkpt lat="44.19902" lon="3.16065">
        <ele>393.4</ele>
        <time>2021-10-31T16:01:44Z</time>
      </trkpt>
      <trkpt lat="44.19895" lon="3.16043">
        <ele>392.3</ele>
        <time>2021-10-31T16:01:46Z</time>
      </trkpt>
      <trkpt lat="44.19892" lon="3.16032">
        <ele>391.8</ele>
        <time>2021-10-31T16:01:47Z</time>
      </trkpt>
      <trkpt lat="44.19889" lon="3.1602">
        <ele>391.3</ele>
        <time>2021-10-31T16:01:48Z</time>
      </trkpt>
      <trkpt lat="44.19883" lon="3.15996">
        <ele>390.4</ele>
        <time>2021-10-31T16:01:50Z</time>
      </trkpt>
      <trkpt lat="44.19881" lon="3.15985">
        <ele>390</ele>
        <time>2021-10-31T16:01:51Z</time>
      </trkpt>
      <trkpt lat="44.19877" lon="3.15963">
        <ele>389.6</ele>
        <time>2021-10-31T16:01:53Z</time>
      </trkpt>
      <trkpt lat="44.19875" lon="3.15953">
        <ele>389.5</ele>
        <time>2021-10-31T16:01:54Z</time>
      </trkpt>
      <trkpt lat="44.1987" lon="3.15944">
        <ele>389.5</ele>
        <time>2021-10-31T16:01:55Z</time>
      </trkpt>
      <trkpt lat="44.19861" lon="3.15927">
        <ele>389.6</ele>
        <time>2021-10-31T16:01:57Z</time>
      </trkpt>
      <trkpt lat="44.19851" lon="3.15913">
        <ele>389.8</ele>
        <time>2021-10-31T16:01:59Z</time>
      </trkpt>
      <trkpt lat="44.19846" lon="3.15906">
        <ele>390</ele>
        <time>2021-10-31T16:02:00Z</time>
      </trkpt>
      <trkpt lat="44.19841" lon="3.15901">
        <ele>390.2</ele>
        <time>2021-10-31T16:02:01Z</time>
      </trkpt>
      <trkpt lat="44.19836" lon="3.15895">
        <ele>390.4</ele>
        <time>2021-10-31T16:02:02Z</time>
      </trkpt>
      <trkpt lat="44.19832" lon="3.1589">
        <ele>390.7</ele>
        <time>2021-10-31T16:02:03Z</time>
      </trkpt>
      <trkpt lat="44.19824" lon="3.1588">
        <ele>391.3</ele>
        <time>2021-10-31T16:02:05Z</time>
      </trkpt>
      <trkpt lat="44.1982" lon="3.15876">
        <ele>391.6</ele>
        <time>2021-10-31T16:02:06Z</time>
      </trkpt>
      <trkpt lat="44.19815" lon="3.15869">
        <ele>392.1</ele>
        <time>2021-10-31T16:02:08Z</time>
      </trkpt>
      <trkpt lat="44.19812" lon="3.15865">
        <ele>392.5</ele>
        <time>2021-10-31T16:02:09Z</time>
      </trkpt>
      <trkpt lat="44.19806" lon="3.15858">
        <ele>393</ele>
        <time>2021-10-31T16:02:11Z</time>
      </trkpt>
      <trkpt lat="44.19803" lon="3.15855">
        <ele>393.2</ele>
        <time>2021-10-31T16:02:12Z</time>
      </trkpt>
      <trkpt lat="44.198" lon="3.15851">
        <ele>393.5</ele>
        <time>2021-10-31T16:02:13Z</time>
      </trkpt>
      <trkpt lat="44.198" lon="3.15852">
        <ele>393.5</ele>
        <time>2021-10-31T16:02:14Z</time>
      </trkpt>
      <trkpt lat="44.19798" lon="3.15849">
        <ele>393.7</ele>
        <time>2021-10-31T16:02:16Z</time>
      </trkpt>
      <trkpt lat="44.19796" lon="3.15846">
        <ele>393.9</ele>
        <time>2021-10-31T16:02:17Z</time>
      </trkpt>
      <trkpt lat="44.19793" lon="3.15838">
        <ele>394.5</ele>
        <time>2021-10-31T16:02:19Z</time>
      </trkpt>
      <trkpt lat="44.19791" lon="3.15835">
        <ele>394.7</ele>
        <time>2021-10-31T16:02:20Z</time>
      </trkpt>
      <trkpt lat="44.1979" lon="3.1583">
        <ele>395.1</ele>
        <time>2021-10-31T16:02:21Z</time>
      </trkpt>
      <trkpt lat="44.19787" lon="3.15826">
        <ele>395.4</ele>
        <time>2021-10-31T16:02:22Z</time>
      </trkpt>
      <trkpt lat="44.19785" lon="3.15823">
        <ele>395.8</ele>
        <time>2021-10-31T16:02:24Z</time>
      </trkpt>
      <trkpt lat="44.19783" lon="3.1582">
        <ele>396</ele>
        <time>2021-10-31T16:02:25Z</time>
      </trkpt>
      <trkpt lat="44.19782" lon="3.15817">
        <ele>396.3</ele>
        <time>2021-10-31T16:02:26Z</time>
      </trkpt>
      <trkpt lat="44.19779" lon="3.15814">
        <ele>396.6</ele>
        <time>2021-10-31T16:02:28Z</time>
      </trkpt>
      <trkpt lat="44.19777" lon="3.15811">
        <ele>397</ele>
        <time>2021-10-31T16:02:29Z</time>
      </trkpt>
      <trkpt lat="44.19774" lon="3.15806">
        <ele>397.4</ele>
        <time>2021-10-31T16:02:31Z</time>
      </trkpt>
      <trkpt lat="44.19771" lon="3.15802">
        <ele>397.8</ele>
        <time>2021-10-31T16:02:32Z</time>
      </trkpt>
      <trkpt lat="44.19768" lon="3.15799">
        <ele>398.2</ele>
        <time>2021-10-31T16:02:34Z</time>
      </trkpt>
      <trkpt lat="44.19767" lon="3.15798">
        <ele>398.3</ele>
        <time>2021-10-31T16:02:35Z</time>
      </trkpt>
      <trkpt lat="44.19764" lon="3.15795">
        <ele>398.6</ele>
        <time>2021-10-31T16:02:36Z</time>
      </trkpt>
      <trkpt lat="44.19762" lon="3.15793">
        <ele>398.9</ele>
        <time>2021-10-31T16:02:37Z</time>
      </trkpt>
      <trkpt lat="44.19759" lon="3.15791">
        <ele>399.2</ele>
        <time>2021-10-31T16:02:38Z</time>
      </trkpt>
      <trkpt lat="44.19756" lon="3.15787">
        <ele>399.6</ele>
        <time>2021-10-31T16:02:40Z</time>
      </trkpt>
      <trkpt lat="44.19754" lon="3.15786">
        <ele>399.8</ele>
        <time>2021-10-31T16:02:41Z</time>
      </trkpt>
      <trkpt lat="44.19753" lon="3.15785">
        <ele>399.9</ele>
        <time>2021-10-31T16:02:42Z</time>
      </trkpt>
      <trkpt lat="44.19749" lon="3.15782">
        <ele>400.3</ele>
        <time>2021-10-31T16:02:43Z</time>
      </trkpt>
      <trkpt lat="44.19746" lon="3.1578">
        <ele>400.7</ele>
        <time>2021-10-31T16:02:45Z</time>
      </trkpt>
      <trkpt lat="44.19742" lon="3.15776">
        <ele>401.1</ele>
        <time>2021-10-31T16:02:47Z</time>
      </trkpt>
      <trkpt lat="44.19739" lon="3.15774">
        <ele>401.5</ele>
        <time>2021-10-31T16:02:48Z</time>
      </trkpt>
      <trkpt lat="44.19738" lon="3.15773">
        <ele>401.6</ele>
        <time>2021-10-31T16:02:49Z</time>
      </trkpt>
      <trkpt lat="44.19734" lon="3.15771">
        <ele>402</ele>
        <time>2021-10-31T16:02:50Z</time>
      </trkpt>
      <trkpt lat="44.19732" lon="3.1577">
        <ele>402.2</ele>
        <time>2021-10-31T16:02:51Z</time>
      </trkpt>
      <trkpt lat="44.19729" lon="3.15768">
        <ele>402.6</ele>
        <time>2021-10-31T16:02:53Z</time>
      </trkpt>
      <trkpt lat="44.19725" lon="3.15766">
        <ele>403</ele>
        <time>2021-10-31T16:02:54Z</time>
      </trkpt>
      <trkpt lat="44.19722" lon="3.15764">
        <ele>403.3</ele>
        <time>2021-10-31T16:02:56Z</time>
      </trkpt>
      <trkpt lat="44.19718" lon="3.15763">
        <ele>403.7</ele>
        <time>2021-10-31T16:02:57Z</time>
      </trkpt>
      <trkpt lat="44.19715" lon="3.15761">
        <ele>404</ele>
        <time>2021-10-31T16:02:58Z</time>
      </trkpt>
      <trkpt lat="44.19711" lon="3.1576">
        <ele>404.3</ele>
        <time>2021-10-31T16:03:00Z</time>
      </trkpt>
      <trkpt lat="44.19708" lon="3.15758">
        <ele>404.7</ele>
        <time>2021-10-31T16:03:01Z</time>
      </trkpt>
      <trkpt lat="44.19707" lon="3.15757">
        <ele>404.9</ele>
        <time>2021-10-31T16:03:02Z</time>
      </trkpt>
      <trkpt lat="44.19703" lon="3.15755">
        <ele>405.2</ele>
        <time>2021-10-31T16:03:04Z</time>
      </trkpt>
      <trkpt lat="44.19701" lon="3.15755">
        <ele>405.4</ele>
        <time>2021-10-31T16:03:05Z</time>
      </trkpt>
      <trkpt lat="44.19697" lon="3.15755">
        <ele>405.8</ele>
        <time>2021-10-31T16:03:07Z</time>
      </trkpt>
      <trkpt lat="44.19694" lon="3.15754">
        <ele>406.1</ele>
        <time>2021-10-31T16:03:08Z</time>
      </trkpt>
      <trkpt lat="44.19691" lon="3.15753">
        <ele>406.4</ele>
        <time>2021-10-31T16:03:10Z</time>
      </trkpt>
      <trkpt lat="44.19687" lon="3.15751">
        <ele>406.9</ele>
        <time>2021-10-31T16:03:12Z</time>
      </trkpt>
      <trkpt lat="44.19684" lon="3.15751">
        <ele>407.2</ele>
        <time>2021-10-31T16:03:13Z</time>
      </trkpt>
      <trkpt lat="44.19682" lon="3.1575">
        <ele>407.3</ele>
        <time>2021-10-31T16:03:14Z</time>
      </trkpt>
      <trkpt lat="44.19679" lon="3.1575">
        <ele>407.6</ele>
        <time>2021-10-31T16:03:16Z</time>
      </trkpt>
      <trkpt lat="44.19675" lon="3.15749">
        <ele>408</ele>
        <time>2021-10-31T16:03:18Z</time>
      </trkpt>
      <trkpt lat="44.19672" lon="3.15749">
        <ele>408.3</ele>
        <time>2021-10-31T16:03:19Z</time>
      </trkpt>
      <trkpt lat="44.1967" lon="3.15748">
        <ele>408.5</ele>
        <time>2021-10-31T16:03:20Z</time>
      </trkpt>
      <trkpt lat="44.19665" lon="3.15748">
        <ele>408.9</ele>
        <time>2021-10-31T16:03:22Z</time>
      </trkpt>
      <trkpt lat="44.19663" lon="3.15748">
        <ele>409</ele>
        <time>2021-10-31T16:03:23Z</time>
      </trkpt>
      <trkpt lat="44.19662" lon="3.15748">
        <ele>409.2</ele>
        <time>2021-10-31T16:03:24Z</time>
      </trkpt>
      <trkpt lat="44.19658" lon="3.15749">
        <ele>409.5</ele>
        <time>2021-10-31T16:03:26Z</time>
      </trkpt>
      <trkpt lat="44.19654" lon="3.1575">
        <ele>409.9</ele>
        <time>2021-10-31T16:03:28Z</time>
      </trkpt>
      <trkpt lat="44.19649" lon="3.15751">
        <ele>410.2</ele>
        <time>2021-10-31T16:03:30Z</time>
      </trkpt>
      <trkpt lat="44.19645" lon="3.15752">
        <ele>410.6</ele>
        <time>2021-10-31T16:03:32Z</time>
      </trkpt>
      <trkpt lat="44.19642" lon="3.15753">
        <ele>410.9</ele>
        <time>2021-10-31T16:03:33Z</time>
      </trkpt>
      <trkpt lat="44.19638" lon="3.15755">
        <ele>411.3</ele>
        <time>2021-10-31T16:03:35Z</time>
      </trkpt>
      <trkpt lat="44.19635" lon="3.15756">
        <ele>411.5</ele>
        <time>2021-10-31T16:03:36Z</time>
      </trkpt>
      <trkpt lat="44.1963" lon="3.15759">
        <ele>412</ele>
        <time>2021-10-31T16:03:38Z</time>
      </trkpt>
      <trkpt lat="44.19628" lon="3.1576">
        <ele>412.2</ele>
        <time>2021-10-31T16:03:39Z</time>
      </trkpt>
      <trkpt lat="44.19624" lon="3.15762">
        <ele>412.6</ele>
        <time>2021-10-31T16:03:41Z</time>
      </trkpt>
      <trkpt lat="44.19621" lon="3.15763">
        <ele>412.8</ele>
        <time>2021-10-31T16:03:42Z</time>
      </trkpt>
      <trkpt lat="44.19617" lon="3.15765">
        <ele>413.2</ele>
        <time>2021-10-31T16:03:44Z</time>
      </trkpt>
      <trkpt lat="44.19614" lon="3.15767">
        <ele>413.4</ele>
        <time>2021-10-31T16:03:45Z</time>
      </trkpt>
      <trkpt lat="44.19612" lon="3.15768">
        <ele>413.6</ele>
        <time>2021-10-31T16:03:46Z</time>
      </trkpt>
      <trkpt lat="44.19608" lon="3.1577">
        <ele>413.9</ele>
        <time>2021-10-31T16:03:48Z</time>
      </trkpt>
      <trkpt lat="44.19604" lon="3.15772">
        <ele>414.3</ele>
        <time>2021-10-31T16:03:50Z</time>
      </trkpt>
      <trkpt lat="44.19601" lon="3.15774">
        <ele>414.6</ele>
        <time>2021-10-31T16:03:52Z</time>
      </trkpt>
      <trkpt lat="44.19598" lon="3.15775">
        <ele>414.8</ele>
        <time>2021-10-31T16:03:53Z</time>
      </trkpt>
      <trkpt lat="44.19594" lon="3.15777">
        <ele>415.2</ele>
        <time>2021-10-31T16:03:55Z</time>
      </trkpt>
      <trkpt lat="44.1959" lon="3.15778">
        <ele>415.6</ele>
        <time>2021-10-31T16:03:57Z</time>
      </trkpt>
      <trkpt lat="44.19587" lon="3.1578">
        <ele>415.9</ele>
        <time>2021-10-31T16:03:58Z</time>
      </trkpt>
      <trkpt lat="44.19585" lon="3.15781">
        <ele>416</ele>
        <time>2021-10-31T16:03:59Z</time>
      </trkpt>
      <trkpt lat="44.19582" lon="3.15782">
        <ele>416.3</ele>
        <time>2021-10-31T16:04:02Z</time>
      </trkpt>
      <trkpt lat="44.19579" lon="3.15784">
        <ele>416.5</ele>
        <time>2021-10-31T16:04:03Z</time>
      </trkpt>
      <trkpt lat="44.19577" lon="3.15785">
        <ele>416.7</ele>
        <time>2021-10-31T16:04:05Z</time>
      </trkpt>
      <trkpt lat="44.19574" lon="3.15785">
        <ele>417</ele>
        <time>2021-10-31T16:04:06Z</time>
      </trkpt>
      <trkpt lat="44.19572" lon="3.15786">
        <ele>417.1</ele>
        <time>2021-10-31T16:04:07Z</time>
      </trkpt>
      <trkpt lat="44.19569" lon="3.15787">
        <ele>417.3</ele>
        <time>2021-10-31T16:04:09Z</time>
      </trkpt>
      <trkpt lat="44.19565" lon="3.15788">
        <ele>417.6</ele>
        <time>2021-10-31T16:04:11Z</time>
      </trkpt>
      <trkpt lat="44.19563" lon="3.15788">
        <ele>417.7</ele>
        <time>2021-10-31T16:04:12Z</time>
      </trkpt>
      <trkpt lat="44.19559" lon="3.15788">
        <ele>418</ele>
        <time>2021-10-31T16:04:14Z</time>
      </trkpt>
      <trkpt lat="44.19556" lon="3.15788">
        <ele>418.2</ele>
        <time>2021-10-31T16:04:15Z</time>
      </trkpt>
      <trkpt lat="44.19555" lon="3.15788">
        <ele>418.3</ele>
        <time>2021-10-31T16:04:16Z</time>
      </trkpt>
      <trkpt lat="44.19552" lon="3.15788">
        <ele>418.5</ele>
        <time>2021-10-31T16:04:17Z</time>
      </trkpt>
      <trkpt lat="44.19549" lon="3.15787">
        <ele>418.7</ele>
        <time>2021-10-31T16:04:19Z</time>
      </trkpt>
      <trkpt lat="44.19547" lon="3.15788">
        <ele>418.8</ele>
        <time>2021-10-31T16:04:20Z</time>
      </trkpt>
      <trkpt lat="44.19545" lon="3.15788">
        <ele>418.9</ele>
        <time>2021-10-31T16:04:22Z</time>
      </trkpt>
      <trkpt lat="44.19541" lon="3.15789">
        <ele>419.1</ele>
        <time>2021-10-31T16:04:23Z</time>
      </trkpt>
      <trkpt lat="44.19538" lon="3.1579">
        <ele>419.2</ele>
        <time>2021-10-31T16:04:25Z</time>
      </trkpt>
      <trkpt lat="44.19534" lon="3.1579">
        <ele>419.4</ele>
        <time>2021-10-31T16:04:26Z</time>
      </trkpt>
      <trkpt lat="44.19528" lon="3.15791">
        <ele>419.7</ele>
        <time>2021-10-31T16:04:28Z</time>
      </trkpt>
      <trkpt lat="44.19522" lon="3.15792">
        <ele>419.9</ele>
        <time>2021-10-31T16:04:29Z</time>
      </trkpt>
      <trkpt lat="44.19518" lon="3.15793">
        <ele>420</ele>
        <time>2021-10-31T16:04:31Z</time>
      </trkpt>
      <trkpt lat="44.19514" lon="3.15794">
        <ele>420.1</ele>
        <time>2021-10-31T16:04:32Z</time>
      </trkpt>
      <trkpt lat="44.1951" lon="3.15795">
        <ele>420.2</ele>
        <time>2021-10-31T16:04:33Z</time>
      </trkpt>
      <trkpt lat="44.19506" lon="3.15797">
        <ele>420.4</ele>
        <time>2021-10-31T16:04:34Z</time>
      </trkpt>
      <trkpt lat="44.19501" lon="3.15799">
        <ele>420.5</ele>
        <time>2021-10-31T16:04:35Z</time>
      </trkpt>
      <trkpt lat="44.19496" lon="3.15801">
        <ele>420.6</ele>
        <time>2021-10-31T16:04:37Z</time>
      </trkpt>
      <trkpt lat="44.1949" lon="3.15803">
        <ele>420.7</ele>
        <time>2021-10-31T16:04:38Z</time>
      </trkpt>
      <trkpt lat="44.19485" lon="3.15807">
        <ele>420.7</ele>
        <time>2021-10-31T16:04:40Z</time>
      </trkpt>
      <trkpt lat="44.19481" lon="3.1581">
        <ele>420.8</ele>
        <time>2021-10-31T16:04:41Z</time>
      </trkpt>
      <trkpt lat="44.19475" lon="3.15814">
        <ele>420.8</ele>
        <time>2021-10-31T16:04:42Z</time>
      </trkpt>
      <trkpt lat="44.1947" lon="3.15817">
        <ele>420.8</ele>
        <time>2021-10-31T16:04:44Z</time>
      </trkpt>
      <trkpt lat="44.19466" lon="3.15819">
        <ele>420.8</ele>
        <time>2021-10-31T16:04:45Z</time>
      </trkpt>
      <trkpt lat="44.19461" lon="3.15823">
        <ele>420.7</ele>
        <time>2021-10-31T16:04:46Z</time>
      </trkpt>
      <trkpt lat="44.19451" lon="3.15829">
        <ele>420.6</ele>
        <time>2021-10-31T16:04:48Z</time>
      </trkpt>
      <trkpt lat="44.19442" lon="3.15836">
        <ele>420.4</ele>
        <time>2021-10-31T16:04:50Z</time>
      </trkpt>
      <trkpt lat="44.19433" lon="3.15841">
        <ele>420.1</ele>
        <time>2021-10-31T16:04:52Z</time>
      </trkpt>
      <trkpt lat="44.19428" lon="3.15844">
        <ele>420</ele>
        <time>2021-10-31T16:04:53Z</time>
      </trkpt>
      <trkpt lat="44.19419" lon="3.1585">
        <ele>419.6</ele>
        <time>2021-10-31T16:04:55Z</time>
      </trkpt>
      <trkpt lat="44.19414" lon="3.15854">
        <ele>419.3</ele>
        <time>2021-10-31T16:04:56Z</time>
      </trkpt>
      <trkpt lat="44.19409" lon="3.15858">
        <ele>419.1</ele>
        <time>2021-10-31T16:04:57Z</time>
      </trkpt>
      <trkpt lat="44.19404" lon="3.15862">
        <ele>418.8</ele>
        <time>2021-10-31T16:04:58Z</time>
      </trkpt>
      <trkpt lat="44.19398" lon="3.15866">
        <ele>418.5</ele>
        <time>2021-10-31T16:04:59Z</time>
      </trkpt>
      <trkpt lat="44.19384" lon="3.15874">
        <ele>417.7</ele>
        <time>2021-10-31T16:05:01Z</time>
      </trkpt>
      <trkpt lat="44.1937" lon="3.15882">
        <ele>416.7</ele>
        <time>2021-10-31T16:05:03Z</time>
      </trkpt>
      <trkpt lat="44.19355" lon="3.1589">
        <ele>415.4</ele>
        <time>2021-10-31T16:05:05Z</time>
      </trkpt>
      <trkpt lat="44.19346" lon="3.15894">
        <ele>414.7</ele>
        <time>2021-10-31T16:05:06Z</time>
      </trkpt>
      <trkpt lat="44.19329" lon="3.15903">
        <ele>413.1</ele>
        <time>2021-10-31T16:05:08Z</time>
      </trkpt>
      <trkpt lat="44.19311" lon="3.1591">
        <ele>411.4</ele>
        <time>2021-10-31T16:05:10Z</time>
      </trkpt>
      <trkpt lat="44.19292" lon="3.15917">
        <ele>409.7</ele>
        <time>2021-10-31T16:05:12Z</time>
      </trkpt>
      <trkpt lat="44.19272" lon="3.15922">
        <ele>408</ele>
        <time>2021-10-31T16:05:14Z</time>
      </trkpt>
      <trkpt lat="44.19261" lon="3.15927">
        <ele>407</ele>
        <time>2021-10-31T16:05:15Z</time>
      </trkpt>
      <trkpt lat="44.1924" lon="3.15932">
        <ele>405.1</ele>
        <time>2021-10-31T16:05:17Z</time>
      </trkpt>
      <trkpt lat="44.19219" lon="3.15938">
        <ele>403.3</ele>
        <time>2021-10-31T16:05:19Z</time>
      </trkpt>
      <trkpt lat="44.19208" lon="3.1594">
        <ele>402.4</ele>
        <time>2021-10-31T16:05:20Z</time>
      </trkpt>
      <trkpt lat="44.19196" lon="3.15941">
        <ele>401.4</ele>
        <time>2021-10-31T16:05:21Z</time>
      </trkpt>
      <trkpt lat="44.19183" lon="3.15941">
        <ele>400.4</ele>
        <time>2021-10-31T16:05:22Z</time>
      </trkpt>
      <trkpt lat="44.1917" lon="3.15942">
        <ele>399.2</ele>
        <time>2021-10-31T16:05:23Z</time>
      </trkpt>
      <trkpt lat="44.19146" lon="3.15943">
        <ele>397.1</ele>
        <time>2021-10-31T16:05:25Z</time>
      </trkpt>
      <trkpt lat="44.19135" lon="3.15943">
        <ele>396</ele>
        <time>2021-10-31T16:05:26Z</time>
      </trkpt>
      <trkpt lat="44.19116" lon="3.15939">
        <ele>394.3</ele>
        <time>2021-10-31T16:05:28Z</time>
      </trkpt>
      <trkpt lat="44.19096" lon="3.15933">
        <ele>392.5</ele>
        <time>2021-10-31T16:05:30Z</time>
      </trkpt>
      <trkpt lat="44.19086" lon="3.15928">
        <ele>391.6</ele>
        <time>2021-10-31T16:05:31Z</time>
      </trkpt>
      <trkpt lat="44.19076" lon="3.15923">
        <ele>390.6</ele>
        <time>2021-10-31T16:05:32Z</time>
      </trkpt>
      <trkpt lat="44.19066" lon="3.15919">
        <ele>389.7</ele>
        <time>2021-10-31T16:05:33Z</time>
      </trkpt>
      <trkpt lat="44.19054" lon="3.15914">
        <ele>388.6</ele>
        <time>2021-10-31T16:05:34Z</time>
      </trkpt>
      <trkpt lat="44.19029" lon="3.15904">
        <ele>386.8</ele>
        <time>2021-10-31T16:05:36Z</time>
      </trkpt>
      <trkpt lat="44.19004" lon="3.15894">
        <ele>385.8</ele>
        <time>2021-10-31T16:05:38Z</time>
      </trkpt>
      <trkpt lat="44.18986" lon="3.15884">
        <ele>385.6</ele>
        <time>2021-10-31T16:05:40Z</time>
      </trkpt>
      <trkpt lat="44.1898" lon="3.15881">
        <ele>385.7</ele>
        <time>2021-10-31T16:05:41Z</time>
      </trkpt>
      <trkpt lat="44.18964" lon="3.15871">
        <ele>386.1</ele>
        <time>2021-10-31T16:05:43Z</time>
      </trkpt>
      <trkpt lat="44.18949" lon="3.1586">
        <ele>386.8</ele>
        <time>2021-10-31T16:05:45Z</time>
      </trkpt>
      <trkpt lat="44.18936" lon="3.15851">
        <ele>387.4</ele>
        <time>2021-10-31T16:05:47Z</time>
      </trkpt>
      <trkpt lat="44.18926" lon="3.15842">
        <ele>387.9</ele>
        <time>2021-10-31T16:05:49Z</time>
      </trkpt>
      <trkpt lat="44.18922" lon="3.15839">
        <ele>388.2</ele>
        <time>2021-10-31T16:05:50Z</time>
      </trkpt>
      <trkpt lat="44.18918" lon="3.15836">
        <ele>388.4</ele>
        <time>2021-10-31T16:05:51Z</time>
      </trkpt>
      <trkpt lat="44.18915" lon="3.15832">
        <ele>388.7</ele>
        <time>2021-10-31T16:05:52Z</time>
      </trkpt>
      <trkpt lat="44.18912" lon="3.15829">
        <ele>388.9</ele>
        <time>2021-10-31T16:05:54Z</time>
      </trkpt>
      <trkpt lat="44.18906" lon="3.15825">
        <ele>389.3</ele>
        <time>2021-10-31T16:05:56Z</time>
      </trkpt>
      <trkpt lat="44.18901" lon="3.15821">
        <ele>389.7</ele>
        <time>2021-10-31T16:05:58Z</time>
      </trkpt>
      <trkpt lat="44.18895" lon="3.15816">
        <ele>390.1</ele>
        <time>2021-10-31T16:06:00Z</time>
      </trkpt>
      <trkpt lat="44.18887" lon="3.15811">
        <ele>390.6</ele>
        <time>2021-10-31T16:06:02Z</time>
      </trkpt>
      <trkpt lat="44.18883" lon="3.15808">
        <ele>390.9</ele>
        <time>2021-10-31T16:06:03Z</time>
      </trkpt>
      <trkpt lat="44.18879" lon="3.15806">
        <ele>391.1</ele>
        <time>2021-10-31T16:06:04Z</time>
      </trkpt>
      <trkpt lat="44.18876" lon="3.15803">
        <ele>391.3</ele>
        <time>2021-10-31T16:06:05Z</time>
      </trkpt>
      <trkpt lat="44.18873" lon="3.15801">
        <ele>391.5</ele>
        <time>2021-10-31T16:06:06Z</time>
      </trkpt>
      <trkpt lat="44.1887" lon="3.15798">
        <ele>391.7</ele>
        <time>2021-10-31T16:06:07Z</time>
      </trkpt>
      <trkpt lat="44.18864" lon="3.15793">
        <ele>392</ele>
        <time>2021-10-31T16:06:09Z</time>
      </trkpt>
      <trkpt lat="44.18856" lon="3.15787">
        <ele>392.4</ele>
        <time>2021-10-31T16:06:11Z</time>
      </trkpt>
      <trkpt lat="44.18849" lon="3.1578">
        <ele>392.7</ele>
        <time>2021-10-31T16:06:13Z</time>
      </trkpt>
      <trkpt lat="44.18845" lon="3.15777">
        <ele>392.9</ele>
        <time>2021-10-31T16:06:14Z</time>
      </trkpt>
      <trkpt lat="44.18841" lon="3.15773">
        <ele>393</ele>
        <time>2021-10-31T16:06:15Z</time>
      </trkpt>
      <trkpt lat="44.18833" lon="3.15763">
        <ele>393.3</ele>
        <time>2021-10-31T16:06:17Z</time>
      </trkpt>
      <trkpt lat="44.18829" lon="3.15759">
        <ele>393.5</ele>
        <time>2021-10-31T16:06:18Z</time>
      </trkpt>
      <trkpt lat="44.18824" lon="3.1575">
        <ele>393.7</ele>
        <time>2021-10-31T16:06:20Z</time>
      </trkpt>
      <trkpt lat="44.18822" lon="3.15746">
        <ele>393.9</ele>
        <time>2021-10-31T16:06:21Z</time>
      </trkpt>
      <trkpt lat="44.1882" lon="3.15741">
        <ele>394</ele>
        <time>2021-10-31T16:06:22Z</time>
      </trkpt>
      <trkpt lat="44.18817" lon="3.15737">
        <ele>394.2</ele>
        <time>2021-10-31T16:06:23Z</time>
      </trkpt>
      <trkpt lat="44.18815" lon="3.15731">
        <ele>394.3</ele>
        <time>2021-10-31T16:06:24Z</time>
      </trkpt>
      <trkpt lat="44.18812" lon="3.15722">
        <ele>394.6</ele>
        <time>2021-10-31T16:06:26Z</time>
      </trkpt>
      <trkpt lat="44.18808" lon="3.15713">
        <ele>394.9</ele>
        <time>2021-10-31T16:06:28Z</time>
      </trkpt>
      <trkpt lat="44.18806" lon="3.15709">
        <ele>395</ele>
        <time>2021-10-31T16:06:29Z</time>
      </trkpt>
      <trkpt lat="44.18804" lon="3.15703">
        <ele>395.1</ele>
        <time>2021-10-31T16:06:30Z</time>
      </trkpt>
      <trkpt lat="44.18801" lon="3.15698">
        <ele>395.3</ele>
        <time>2021-10-31T16:06:31Z</time>
      </trkpt>
      <trkpt lat="44.18799" lon="3.15693">
        <ele>395.5</ele>
        <time>2021-10-31T16:06:32Z</time>
      </trkpt>
      <trkpt lat="44.18795" lon="3.15685">
        <ele>395.7</ele>
        <time>2021-10-31T16:06:34Z</time>
      </trkpt>
      <trkpt lat="44.18794" lon="3.15682">
        <ele>395.8</ele>
        <time>2021-10-31T16:06:35Z</time>
      </trkpt>
      <trkpt lat="44.18792" lon="3.15677">
        <ele>396</ele>
        <time>2021-10-31T16:06:37Z</time>
      </trkpt>
      <trkpt lat="44.1879" lon="3.15668">
        <ele>396.2</ele>
        <time>2021-10-31T16:06:39Z</time>
      </trkpt>
      <trkpt lat="44.18788" lon="3.15662">
        <ele>396.4</ele>
        <time>2021-10-31T16:06:40Z</time>
      </trkpt>
      <trkpt lat="44.18787" lon="3.15657">
        <ele>396.5</ele>
        <time>2021-10-31T16:06:41Z</time>
      </trkpt>
      <trkpt lat="44.18784" lon="3.15653">
        <ele>396.7</ele>
        <time>2021-10-31T16:06:43Z</time>
      </trkpt>
      <trkpt lat="44.18781" lon="3.15644">
        <ele>396.8</ele>
        <time>2021-10-31T16:06:45Z</time>
      </trkpt>
      <trkpt lat="44.18778" lon="3.15634">
        <ele>397.1</ele>
        <time>2021-10-31T16:06:47Z</time>
      </trkpt>
      <trkpt lat="44.18776" lon="3.15628">
        <ele>397.2</ele>
        <time>2021-10-31T16:06:48Z</time>
      </trkpt>
      <trkpt lat="44.18775" lon="3.15621">
        <ele>397.4</ele>
        <time>2021-10-31T16:06:49Z</time>
      </trkpt>
      <trkpt lat="44.18773" lon="3.15615">
        <ele>397.6</ele>
        <time>2021-10-31T16:06:50Z</time>
      </trkpt>
      <trkpt lat="44.18771" lon="3.15609">
        <ele>397.7</ele>
        <time>2021-10-31T16:06:51Z</time>
      </trkpt>
      <trkpt lat="44.18769" lon="3.15603">
        <ele>397.9</ele>
        <time>2021-10-31T16:06:53Z</time>
      </trkpt>
      <trkpt lat="44.18768" lon="3.15599">
        <ele>398</ele>
        <time>2021-10-31T16:06:54Z</time>
      </trkpt>
      <trkpt lat="44.18768" lon="3.15594">
        <ele>398.1</ele>
        <time>2021-10-31T16:06:55Z</time>
      </trkpt>
      <trkpt lat="44.18769" lon="3.15589">
        <ele>398.3</ele>
        <time>2021-10-31T16:06:57Z</time>
      </trkpt>
      <trkpt lat="44.18769" lon="3.15584">
        <ele>398.4</ele>
        <time>2021-10-31T16:06:58Z</time>
      </trkpt>
      <trkpt lat="44.18768" lon="3.15575">
        <ele>398.6</ele>
        <time>2021-10-31T16:07:00Z</time>
      </trkpt>
      <trkpt lat="44.18768" lon="3.15568">
        <ele>398.8</ele>
        <time>2021-10-31T16:07:01Z</time>
      </trkpt>
      <trkpt lat="44.18767" lon="3.15563">
        <ele>399</ele>
        <time>2021-10-31T16:07:02Z</time>
      </trkpt>
      <trkpt lat="44.18766" lon="3.15557">
        <ele>399.1</ele>
        <time>2021-10-31T16:07:04Z</time>
      </trkpt>
      <trkpt lat="44.18764" lon="3.15548">
        <ele>399.4</ele>
        <time>2021-10-31T16:07:06Z</time>
      </trkpt>
      <trkpt lat="44.18764" lon="3.1554">
        <ele>399.6</ele>
        <time>2021-10-31T16:07:07Z</time>
      </trkpt>
      <trkpt lat="44.18764" lon="3.15533">
        <ele>399.8</ele>
        <time>2021-10-31T16:07:09Z</time>
      </trkpt>
      <trkpt lat="44.18765" lon="3.15529">
        <ele>400</ele>
        <time>2021-10-31T16:07:10Z</time>
      </trkpt>
      <trkpt lat="44.18766" lon="3.15525">
        <ele>400.1</ele>
        <time>2021-10-31T16:07:11Z</time>
      </trkpt>
      <trkpt lat="44.18767" lon="3.15518">
        <ele>400.3</ele>
        <time>2021-10-31T16:07:13Z</time>
      </trkpt>
      <trkpt lat="44.18767" lon="3.15514">
        <ele>400.4</ele>
        <time>2021-10-31T16:07:14Z</time>
      </trkpt>
      <trkpt lat="44.18769" lon="3.15509">
        <ele>400.6</ele>
        <time>2021-10-31T16:07:16Z</time>
      </trkpt>
      <trkpt lat="44.18769" lon="3.15502">
        <ele>400.8</ele>
        <time>2021-10-31T16:07:17Z</time>
      </trkpt>
      <trkpt lat="44.18769" lon="3.15499">
        <ele>400.9</ele>
        <time>2021-10-31T16:07:18Z</time>
      </trkpt>
      <trkpt lat="44.18768" lon="3.15494">
        <ele>401.1</ele>
        <time>2021-10-31T16:07:19Z</time>
      </trkpt>
      <trkpt lat="44.18765" lon="3.15488">
        <ele>401.3</ele>
        <time>2021-10-31T16:07:21Z</time>
      </trkpt>
      <trkpt lat="44.18764" lon="3.15485">
        <ele>401.4</ele>
        <time>2021-10-31T16:07:22Z</time>
      </trkpt>
      <trkpt lat="44.18762" lon="3.1548">
        <ele>401.6</ele>
        <time>2021-10-31T16:07:23Z</time>
      </trkpt>
      <trkpt lat="44.18762" lon="3.15477">
        <ele>401.7</ele>
        <time>2021-10-31T16:07:24Z</time>
      </trkpt>
      <trkpt lat="44.18761" lon="3.1547">
        <ele>402</ele>
        <time>2021-10-31T16:07:25Z</time>
      </trkpt>
      <trkpt lat="44.18759" lon="3.15462">
        <ele>402.3</ele>
        <time>2021-10-31T16:07:27Z</time>
      </trkpt>
      <trkpt lat="44.18757" lon="3.15456">
        <ele>402.6</ele>
        <time>2021-10-31T16:07:28Z</time>
      </trkpt>
      <trkpt lat="44.18754" lon="3.15447">
        <ele>403</ele>
        <time>2021-10-31T16:07:30Z</time>
      </trkpt>
      <trkpt lat="44.18751" lon="3.15438">
        <ele>403.4</ele>
        <time>2021-10-31T16:07:32Z</time>
      </trkpt>
      <trkpt lat="44.1875" lon="3.15434">
        <ele>403.6</ele>
        <time>2021-10-31T16:07:33Z</time>
      </trkpt>
      <trkpt lat="44.18748" lon="3.15429">
        <ele>403.8</ele>
        <time>2021-10-31T16:07:34Z</time>
      </trkpt>
      <trkpt lat="44.18746" lon="3.15425">
        <ele>404</ele>
        <time>2021-10-31T16:07:35Z</time>
      </trkpt>
      <trkpt lat="44.18743" lon="3.15416">
        <ele>404.4</ele>
        <time>2021-10-31T16:07:37Z</time>
      </trkpt>
      <trkpt lat="44.18743" lon="3.15411">
        <ele>404.7</ele>
        <time>2021-10-31T16:07:38Z</time>
      </trkpt>
      <trkpt lat="44.18742" lon="3.15406">
        <ele>404.9</ele>
        <time>2021-10-31T16:07:39Z</time>
      </trkpt>
      <trkpt lat="44.18742" lon="3.15399">
        <ele>405.2</ele>
        <time>2021-10-31T16:07:40Z</time>
      </trkpt>
      <trkpt lat="44.18742" lon="3.15393">
        <ele>405.4</ele>
        <time>2021-10-31T16:07:41Z</time>
      </trkpt>
      <trkpt lat="44.18743" lon="3.15385">
        <ele>405.7</ele>
        <time>2021-10-31T16:07:43Z</time>
      </trkpt>
      <trkpt lat="44.18745" lon="3.15377">
        <ele>406</ele>
        <time>2021-10-31T16:07:45Z</time>
      </trkpt>
      <trkpt lat="44.18745" lon="3.15371">
        <ele>406.2</ele>
        <time>2021-10-31T16:07:46Z</time>
      </trkpt>
      <trkpt lat="44.18746" lon="3.15365">
        <ele>406.4</ele>
        <time>2021-10-31T16:07:47Z</time>
      </trkpt>
      <trkpt lat="44.18746" lon="3.15357">
        <ele>406.7</ele>
        <time>2021-10-31T16:07:49Z</time>
      </trkpt>
      <trkpt lat="44.18746" lon="3.15352">
        <ele>406.8</ele>
        <time>2021-10-31T16:07:50Z</time>
      </trkpt>
      <trkpt lat="44.18744" lon="3.15344">
        <ele>407</ele>
        <time>2021-10-31T16:07:51Z</time>
      </trkpt>
      <trkpt lat="44.1874" lon="3.15338">
        <ele>407.3</ele>
        <time>2021-10-31T16:07:53Z</time>
      </trkpt>
      <trkpt lat="44.18737" lon="3.15333">
        <ele>407.4</ele>
        <time>2021-10-31T16:07:54Z</time>
      </trkpt>
      <trkpt lat="44.18734" lon="3.15328">
        <ele>407.6</ele>
        <time>2021-10-31T16:07:55Z</time>
      </trkpt>
      <trkpt lat="44.18731" lon="3.1532">
        <ele>407.7</ele>
        <time>2021-10-31T16:07:56Z</time>
      </trkpt>
      <trkpt lat="44.18729" lon="3.15315">
        <ele>407.8</ele>
        <time>2021-10-31T16:07:58Z</time>
      </trkpt>
      <trkpt lat="44.18728" lon="3.15308">
        <ele>407.9</ele>
        <time>2021-10-31T16:07:59Z</time>
      </trkpt>
      <trkpt lat="44.18727" lon="3.15301">
        <ele>408</ele>
        <time>2021-10-31T16:08:01Z</time>
      </trkpt>
      <trkpt lat="44.18727" lon="3.15295">
        <ele>408.1</ele>
        <time>2021-10-31T16:08:02Z</time>
      </trkpt>
      <trkpt lat="44.18726" lon="3.15287">
        <ele>408.1</ele>
        <time>2021-10-31T16:08:03Z</time>
      </trkpt>
      <trkpt lat="44.18725" lon="3.15279">
        <ele>408.1</ele>
        <time>2021-10-31T16:08:05Z</time>
      </trkpt>
      <trkpt lat="44.18724" lon="3.15274">
        <ele>408.1</ele>
        <time>2021-10-31T16:08:06Z</time>
      </trkpt>
      <trkpt lat="44.18722" lon="3.15264">
        <ele>408.1</ele>
        <time>2021-10-31T16:08:07Z</time>
      </trkpt>
      <trkpt lat="44.1872" lon="3.15257">
        <ele>408.1</ele>
        <time>2021-10-31T16:08:08Z</time>
      </trkpt>
      <trkpt lat="44.18717" lon="3.15252">
        <ele>408</ele>
        <time>2021-10-31T16:08:09Z</time>
      </trkpt>
      <trkpt lat="44.18715" lon="3.15245">
        <ele>408</ele>
        <time>2021-10-31T16:08:10Z</time>
      </trkpt>
      <trkpt lat="44.18713" lon="3.15238">
        <ele>407.9</ele>
        <time>2021-10-31T16:08:12Z</time>
      </trkpt>
      <trkpt lat="44.18715" lon="3.15229">
        <ele>407.8</ele>
        <time>2021-10-31T16:08:13Z</time>
      </trkpt>
      <trkpt lat="44.18724" lon="3.15211">
        <ele>407.4</ele>
        <time>2021-10-31T16:08:15Z</time>
      </trkpt>
      <trkpt lat="44.18729" lon="3.15203">
        <ele>407.2</ele>
        <time>2021-10-31T16:08:16Z</time>
      </trkpt>
      <trkpt lat="44.18733" lon="3.15195">
        <ele>406.9</ele>
        <time>2021-10-31T16:08:17Z</time>
      </trkpt>
      <trkpt lat="44.18743" lon="3.15182">
        <ele>406.2</ele>
        <time>2021-10-31T16:08:19Z</time>
      </trkpt>
      <trkpt lat="44.18748" lon="3.15176">
        <ele>405.8</ele>
        <time>2021-10-31T16:08:20Z</time>
      </trkpt>
      <trkpt lat="44.18754" lon="3.1517">
        <ele>405.4</ele>
        <time>2021-10-31T16:08:21Z</time>
      </trkpt>
      <trkpt lat="44.18766" lon="3.15158">
        <ele>404.6</ele>
        <time>2021-10-31T16:08:23Z</time>
      </trkpt>
      <trkpt lat="44.18778" lon="3.15143">
        <ele>403.7</ele>
        <time>2021-10-31T16:08:25Z</time>
      </trkpt>
      <trkpt lat="44.18784" lon="3.15135">
        <ele>403.2</ele>
        <time>2021-10-31T16:08:26Z</time>
      </trkpt>
      <trkpt lat="44.18789" lon="3.15126">
        <ele>402.7</ele>
        <time>2021-10-31T16:08:27Z</time>
      </trkpt>
      <trkpt lat="44.18793" lon="3.15116">
        <ele>402.2</ele>
        <time>2021-10-31T16:08:28Z</time>
      </trkpt>
      <trkpt lat="44.18797" lon="3.15106">
        <ele>401.6</ele>
        <time>2021-10-31T16:08:29Z</time>
      </trkpt>
      <trkpt lat="44.18807" lon="3.15086">
        <ele>400.2</ele>
        <time>2021-10-31T16:08:31Z</time>
      </trkpt>
      <trkpt lat="44.18814" lon="3.15075">
        <ele>399.3</ele>
        <time>2021-10-31T16:08:32Z</time>
      </trkpt>
      <trkpt lat="44.18823" lon="3.15053">
        <ele>397.8</ele>
        <time>2021-10-31T16:08:34Z</time>
      </trkpt>
      <trkpt lat="44.18827" lon="3.1504">
        <ele>397.1</ele>
        <time>2021-10-31T16:08:35Z</time>
      </trkpt>
      <trkpt lat="44.18835" lon="3.15016">
        <ele>395.6</ele>
        <time>2021-10-31T16:08:37Z</time>
      </trkpt>
      <trkpt lat="44.18843" lon="3.1499">
        <ele>393.9</ele>
        <time>2021-10-31T16:08:39Z</time>
      </trkpt>
      <trkpt lat="44.18851" lon="3.14965">
        <ele>392.4</ele>
        <time>2021-10-31T16:08:41Z</time>
      </trkpt>
      <trkpt lat="44.18856" lon="3.14953">
        <ele>391.7</ele>
        <time>2021-10-31T16:08:42Z</time>
      </trkpt>
      <trkpt lat="44.18861" lon="3.1494">
        <ele>391.1</ele>
        <time>2021-10-31T16:08:43Z</time>
      </trkpt>
      <trkpt lat="44.18868" lon="3.14912">
        <ele>390</ele>
        <time>2021-10-31T16:08:45Z</time>
      </trkpt>
      <trkpt lat="44.18875" lon="3.14887">
        <ele>389.5</ele>
        <time>2021-10-31T16:08:47Z</time>
      </trkpt>
      <trkpt lat="44.18881" lon="3.14865">
        <ele>389.4</ele>
        <time>2021-10-31T16:08:49Z</time>
      </trkpt>
      <trkpt lat="44.18885" lon="3.14845">
        <ele>389.6</ele>
        <time>2021-10-31T16:08:51Z</time>
      </trkpt>
      <trkpt lat="44.18887" lon="3.14835">
        <ele>389.8</ele>
        <time>2021-10-31T16:08:52Z</time>
      </trkpt>
      <trkpt lat="44.18891" lon="3.14818">
        <ele>390.3</ele>
        <time>2021-10-31T16:08:54Z</time>
      </trkpt>
      <trkpt lat="44.18895" lon="3.14801">
        <ele>390.7</ele>
        <time>2021-10-31T16:08:56Z</time>
      </trkpt>
      <trkpt lat="44.18898" lon="3.14787">
        <ele>391.1</ele>
        <time>2021-10-31T16:08:58Z</time>
      </trkpt>
      <trkpt lat="44.18899" lon="3.14771">
        <ele>391.4</ele>
        <time>2021-10-31T16:09:00Z</time>
      </trkpt>
      <trkpt lat="44.189" lon="3.14763">
        <ele>391.6</ele>
        <time>2021-10-31T16:09:01Z</time>
      </trkpt>
      <trkpt lat="44.18902" lon="3.14756">
        <ele>391.7</ele>
        <time>2021-10-31T16:09:02Z</time>
      </trkpt>
      <trkpt lat="44.18902" lon="3.14742">
        <ele>392</ele>
        <time>2021-10-31T16:09:04Z</time>
      </trkpt>
      <trkpt lat="44.18902" lon="3.14735">
        <ele>392.1</ele>
        <time>2021-10-31T16:09:05Z</time>
      </trkpt>
      <trkpt lat="44.18902" lon="3.14721">
        <ele>392.4</ele>
        <time>2021-10-31T16:09:07Z</time>
      </trkpt>
      <trkpt lat="44.18902" lon="3.14715">
        <ele>392.5</ele>
        <time>2021-10-31T16:09:08Z</time>
      </trkpt>
      <trkpt lat="44.18901" lon="3.14708">
        <ele>392.6</ele>
        <time>2021-10-31T16:09:09Z</time>
      </trkpt>
      <trkpt lat="44.18901" lon="3.14701">
        <ele>392.7</ele>
        <time>2021-10-31T16:09:10Z</time>
      </trkpt>
      <trkpt lat="44.189" lon="3.14688">
        <ele>392.9</ele>
        <time>2021-10-31T16:09:12Z</time>
      </trkpt>
      <trkpt lat="44.189" lon="3.1468">
        <ele>393</ele>
        <time>2021-10-31T16:09:13Z</time>
      </trkpt>
      <trkpt lat="44.18899" lon="3.14667">
        <ele>393.2</ele>
        <time>2021-10-31T16:09:15Z</time>
      </trkpt>
      <trkpt lat="44.18899" lon="3.1466">
        <ele>393.2</ele>
        <time>2021-10-31T16:09:16Z</time>
      </trkpt>
      <trkpt lat="44.189" lon="3.14647">
        <ele>393.2</ele>
        <time>2021-10-31T16:09:18Z</time>
      </trkpt>
      <trkpt lat="44.18901" lon="3.1464">
        <ele>393.2</ele>
        <time>2021-10-31T16:09:19Z</time>
      </trkpt>
      <trkpt lat="44.18901" lon="3.14633">
        <ele>393.2</ele>
        <time>2021-10-31T16:09:20Z</time>
      </trkpt>
      <trkpt lat="44.18901" lon="3.14623">
        <ele>393.2</ele>
        <time>2021-10-31T16:09:22Z</time>
      </trkpt>
      <trkpt lat="44.18902" lon="3.14616">
        <ele>393.2</ele>
        <time>2021-10-31T16:09:23Z</time>
      </trkpt>
      <trkpt lat="44.18904" lon="3.1461">
        <ele>393.2</ele>
        <time>2021-10-31T16:09:24Z</time>
      </trkpt>
      <trkpt lat="44.18906" lon="3.14597">
        <ele>393.1</ele>
        <time>2021-10-31T16:09:26Z</time>
      </trkpt>
      <trkpt lat="44.18906" lon="3.14591">
        <ele>393</ele>
        <time>2021-10-31T16:09:27Z</time>
      </trkpt>
      <trkpt lat="44.18908" lon="3.14576">
        <ele>392.9</ele>
        <time>2021-10-31T16:09:29Z</time>
      </trkpt>
      <trkpt lat="44.18909" lon="3.14561">
        <ele>392.6</ele>
        <time>2021-10-31T16:09:31Z</time>
      </trkpt>
      <trkpt lat="44.1891" lon="3.14553">
        <ele>392.5</ele>
        <time>2021-10-31T16:09:32Z</time>
      </trkpt>
      <trkpt lat="44.18913" lon="3.14537">
        <ele>392.3</ele>
        <time>2021-10-31T16:09:34Z</time>
      </trkpt>
      <trkpt lat="44.18912" lon="3.14522">
        <ele>392</ele>
        <time>2021-10-31T16:09:36Z</time>
      </trkpt>
      <trkpt lat="44.18913" lon="3.14505">
        <ele>391.7</ele>
        <time>2021-10-31T16:09:38Z</time>
      </trkpt>
      <trkpt lat="44.18915" lon="3.14489">
        <ele>391.4</ele>
        <time>2021-10-31T16:09:40Z</time>
      </trkpt>
      <trkpt lat="44.18916" lon="3.14471">
        <ele>391</ele>
        <time>2021-10-31T16:09:42Z</time>
      </trkpt>
      <trkpt lat="44.18916" lon="3.14461">
        <ele>390.8</ele>
        <time>2021-10-31T16:09:43Z</time>
      </trkpt>
      <trkpt lat="44.18915" lon="3.14443">
        <ele>390.5</ele>
        <time>2021-10-31T16:09:45Z</time>
      </trkpt>
      <trkpt lat="44.18916" lon="3.14434">
        <ele>390.4</ele>
        <time>2021-10-31T16:09:46Z</time>
      </trkpt>
      <trkpt lat="44.18918" lon="3.14419">
        <ele>390.2</ele>
        <time>2021-10-31T16:09:48Z</time>
      </trkpt>
      <trkpt lat="44.1892" lon="3.14404">
        <ele>390.1</ele>
        <time>2021-10-31T16:09:50Z</time>
      </trkpt>
      <trkpt lat="44.18918" lon="3.14395">
        <ele>390.1</ele>
        <time>2021-10-31T16:09:51Z</time>
      </trkpt>
      <trkpt lat="44.18912" lon="3.14377">
        <ele>390.1</ele>
        <time>2021-10-31T16:09:53Z</time>
      </trkpt>
      <trkpt lat="44.1891" lon="3.1437">
        <ele>390.2</ele>
        <time>2021-10-31T16:09:54Z</time>
      </trkpt>
      <trkpt lat="44.18905" lon="3.14357">
        <ele>390.4</ele>
        <time>2021-10-31T16:09:56Z</time>
      </trkpt>
      <trkpt lat="44.18903" lon="3.14351">
        <ele>390.4</ele>
        <time>2021-10-31T16:09:57Z</time>
      </trkpt>
      <trkpt lat="44.18898" lon="3.14339">
        <ele>390.6</ele>
        <time>2021-10-31T16:09:59Z</time>
      </trkpt>
      <trkpt lat="44.18894" lon="3.14327">
        <ele>390.9</ele>
        <time>2021-10-31T16:10:01Z</time>
      </trkpt>
      <trkpt lat="44.18892" lon="3.14321">
        <ele>391</ele>
        <time>2021-10-31T16:10:02Z</time>
      </trkpt>
      <trkpt lat="44.1889" lon="3.14316">
        <ele>391.1</ele>
        <time>2021-10-31T16:10:03Z</time>
      </trkpt>
      <trkpt lat="44.18889" lon="3.1431">
        <ele>391.3</ele>
        <time>2021-10-31T16:10:04Z</time>
      </trkpt>
      <trkpt lat="44.18887" lon="3.14305">
        <ele>391.4</ele>
        <time>2021-10-31T16:10:05Z</time>
      </trkpt>
      <trkpt lat="44.18885" lon="3.14295">
        <ele>391.7</ele>
        <time>2021-10-31T16:10:07Z</time>
      </trkpt>
      <trkpt lat="44.18883" lon="3.1429">
        <ele>391.8</ele>
        <time>2021-10-31T16:10:08Z</time>
      </trkpt>
      <trkpt lat="44.18882" lon="3.14285">
        <ele>392</ele>
        <time>2021-10-31T16:10:09Z</time>
      </trkpt>
      <trkpt lat="44.18878" lon="3.14275">
        <ele>392.3</ele>
        <time>2021-10-31T16:10:11Z</time>
      </trkpt>
      <trkpt lat="44.18876" lon="3.14266">
        <ele>392.6</ele>
        <time>2021-10-31T16:10:13Z</time>
      </trkpt>
      <trkpt lat="44.18875" lon="3.14262">
        <ele>392.8</ele>
        <time>2021-10-31T16:10:14Z</time>
      </trkpt>
      <trkpt lat="44.18872" lon="3.14253">
        <ele>393.2</ele>
        <time>2021-10-31T16:10:16Z</time>
      </trkpt>
      <trkpt lat="44.1887" lon="3.14244">
        <ele>393.6</ele>
        <time>2021-10-31T16:10:18Z</time>
      </trkpt>
      <trkpt lat="44.18867" lon="3.14236">
        <ele>394.1</ele>
        <time>2021-10-31T16:10:20Z</time>
      </trkpt>
      <trkpt lat="44.18866" lon="3.14232">
        <ele>394.3</ele>
        <time>2021-10-31T16:10:21Z</time>
      </trkpt>
      <trkpt lat="44.18865" lon="3.14229">
        <ele>394.5</ele>
        <time>2021-10-31T16:10:22Z</time>
      </trkpt>
      <trkpt lat="44.18864" lon="3.14225">
        <ele>394.7</ele>
        <time>2021-10-31T16:10:23Z</time>
      </trkpt>
      <trkpt lat="44.18862" lon="3.14221">
        <ele>395</ele>
        <time>2021-10-31T16:10:24Z</time>
      </trkpt>
      <trkpt lat="44.1886" lon="3.14214">
        <ele>395.4</ele>
        <time>2021-10-31T16:10:26Z</time>
      </trkpt>
      <trkpt lat="44.18859" lon="3.1421">
        <ele>395.7</ele>
        <time>2021-10-31T16:10:27Z</time>
      </trkpt>
      <trkpt lat="44.18857" lon="3.14202">
        <ele>396.2</ele>
        <time>2021-10-31T16:10:29Z</time>
      </trkpt>
      <trkpt lat="44.18856" lon="3.14196">
        <ele>396.6</ele>
        <time>2021-10-31T16:10:30Z</time>
      </trkpt>
      <trkpt lat="44.18853" lon="3.1419">
        <ele>397.1</ele>
        <time>2021-10-31T16:10:31Z</time>
      </trkpt>
      <trkpt lat="44.18851" lon="3.14185">
        <ele>397.4</ele>
        <time>2021-10-31T16:10:33Z</time>
      </trkpt>
      <trkpt lat="44.18849" lon="3.14179">
        <ele>397.8</ele>
        <time>2021-10-31T16:10:34Z</time>
      </trkpt>
      <trkpt lat="44.18847" lon="3.14173">
        <ele>398.3</ele>
        <time>2021-10-31T16:10:36Z</time>
      </trkpt>
      <trkpt lat="44.18845" lon="3.14169">
        <ele>398.5</ele>
        <time>2021-10-31T16:10:37Z</time>
      </trkpt>
      <trkpt lat="44.18843" lon="3.1416">
        <ele>399</ele>
        <time>2021-10-31T16:10:39Z</time>
      </trkpt>
      <trkpt lat="44.1884" lon="3.14153">
        <ele>399.4</ele>
        <time>2021-10-31T16:10:41Z</time>
      </trkpt>
      <trkpt lat="44.18839" lon="3.14148">
        <ele>399.5</ele>
        <time>2021-10-31T16:10:42Z</time>
      </trkpt>
      <trkpt lat="44.18837" lon="3.14144">
        <ele>399.6</ele>
        <time>2021-10-31T16:10:43Z</time>
      </trkpt>
      <trkpt lat="44.18836" lon="3.14139">
        <ele>399.8</ele>
        <time>2021-10-31T16:10:44Z</time>
      </trkpt>
      <trkpt lat="44.18834" lon="3.14132">
        <ele>400</ele>
        <time>2021-10-31T16:10:45Z</time>
      </trkpt>
      <trkpt lat="44.18832" lon="3.14127">
        <ele>400.1</ele>
        <time>2021-10-31T16:10:46Z</time>
      </trkpt>
      <trkpt lat="44.1883" lon="3.14122">
        <ele>400.2</ele>
        <time>2021-10-31T16:10:48Z</time>
      </trkpt>
      <trkpt lat="44.18828" lon="3.14114">
        <ele>400.4</ele>
        <time>2021-10-31T16:10:49Z</time>
      </trkpt>
      <trkpt lat="44.18826" lon="3.14108">
        <ele>400.5</ele>
        <time>2021-10-31T16:10:51Z</time>
      </trkpt>
      <trkpt lat="44.18824" lon="3.14104">
        <ele>400.5</ele>
        <time>2021-10-31T16:10:52Z</time>
      </trkpt>
      <trkpt lat="44.18821" lon="3.14096">
        <ele>400.6</ele>
        <time>2021-10-31T16:10:53Z</time>
      </trkpt>
      <trkpt lat="44.18818" lon="3.14089">
        <ele>400.6</ele>
        <time>2021-10-31T16:10:55Z</time>
      </trkpt>
      <trkpt lat="44.18815" lon="3.14082">
        <ele>400.6</ele>
        <time>2021-10-31T16:10:56Z</time>
      </trkpt>
      <trkpt lat="44.18813" lon="3.14075">
        <ele>400.5</ele>
        <time>2021-10-31T16:10:57Z</time>
      </trkpt>
      <trkpt lat="44.18809" lon="3.14067">
        <ele>400.4</ele>
        <time>2021-10-31T16:10:59Z</time>
      </trkpt>
      <trkpt lat="44.18807" lon="3.1406">
        <ele>400.3</ele>
        <time>2021-10-31T16:11:00Z</time>
      </trkpt>
      <trkpt lat="44.18804" lon="3.14052">
        <ele>400.2</ele>
        <time>2021-10-31T16:11:01Z</time>
      </trkpt>
      <trkpt lat="44.18802" lon="3.14046">
        <ele>400.1</ele>
        <time>2021-10-31T16:11:02Z</time>
      </trkpt>
      <trkpt lat="44.18802" lon="3.14041">
        <ele>400</ele>
        <time>2021-10-31T16:11:04Z</time>
      </trkpt>
      <trkpt lat="44.18801" lon="3.14036">
        <ele>399.9</ele>
        <time>2021-10-31T16:11:05Z</time>
      </trkpt>
      <trkpt lat="44.188" lon="3.14028">
        <ele>399.8</ele>
        <time>2021-10-31T16:11:06Z</time>
      </trkpt>
      <trkpt lat="44.18799" lon="3.1402">
        <ele>399.6</ele>
        <time>2021-10-31T16:11:08Z</time>
      </trkpt>
      <trkpt lat="44.18795" lon="3.14009">
        <ele>399.4</ele>
        <time>2021-10-31T16:11:09Z</time>
      </trkpt>
      <trkpt lat="44.18791" lon="3.14003">
        <ele>399.3</ele>
        <time>2021-10-31T16:11:10Z</time>
      </trkpt>
      <trkpt lat="44.1878" lon="3.13985">
        <ele>398.8</ele>
        <time>2021-10-31T16:11:12Z</time>
      </trkpt>
      <trkpt lat="44.18771" lon="3.13968">
        <ele>398.4</ele>
        <time>2021-10-31T16:11:14Z</time>
      </trkpt>
      <trkpt lat="44.18769" lon="3.1396">
        <ele>398.2</ele>
        <time>2021-10-31T16:11:15Z</time>
      </trkpt>
      <trkpt lat="44.18766" lon="3.13951">
        <ele>398</ele>
        <time>2021-10-31T16:11:16Z</time>
      </trkpt>
      <trkpt lat="44.18762" lon="3.13933">
        <ele>397.6</ele>
        <time>2021-10-31T16:11:18Z</time>
      </trkpt>
      <trkpt lat="44.1876" lon="3.13924">
        <ele>397.4</ele>
        <time>2021-10-31T16:11:19Z</time>
      </trkpt>
      <trkpt lat="44.18756" lon="3.13906">
        <ele>397</ele>
        <time>2021-10-31T16:11:21Z</time>
      </trkpt>
      <trkpt lat="44.18751" lon="3.13887">
        <ele>396.6</ele>
        <time>2021-10-31T16:11:23Z</time>
      </trkpt>
      <trkpt lat="44.18749" lon="3.13877">
        <ele>396.5</ele>
        <time>2021-10-31T16:11:24Z</time>
      </trkpt>
      <trkpt lat="44.18744" lon="3.13857">
        <ele>396.1</ele>
        <time>2021-10-31T16:11:26Z</time>
      </trkpt>
      <trkpt lat="44.18742" lon="3.13847">
        <ele>395.9</ele>
        <time>2021-10-31T16:11:27Z</time>
      </trkpt>
      <trkpt lat="44.18738" lon="3.13827">
        <ele>395.6</ele>
        <time>2021-10-31T16:11:29Z</time>
      </trkpt>
      <trkpt lat="44.18734" lon="3.13806">
        <ele>395.3</ele>
        <time>2021-10-31T16:11:31Z</time>
      </trkpt>
      <trkpt lat="44.1873" lon="3.13786">
        <ele>394.9</ele>
        <time>2021-10-31T16:11:33Z</time>
      </trkpt>
      <trkpt lat="44.18726" lon="3.13765">
        <ele>394.6</ele>
        <time>2021-10-31T16:11:35Z</time>
      </trkpt>
      <trkpt lat="44.18725" lon="3.13755">
        <ele>394.5</ele>
        <time>2021-10-31T16:11:36Z</time>
      </trkpt>
      <trkpt lat="44.18721" lon="3.13734">
        <ele>394.3</ele>
        <time>2021-10-31T16:11:38Z</time>
      </trkpt>
      <trkpt lat="44.18717" lon="3.13713">
        <ele>394</ele>
        <time>2021-10-31T16:11:40Z</time>
      </trkpt>
      <trkpt lat="44.18714" lon="3.13703">
        <ele>393.8</ele>
        <time>2021-10-31T16:11:41Z</time>
      </trkpt>
      <trkpt lat="44.1871" lon="3.13694">
        <ele>393.7</ele>
        <time>2021-10-31T16:11:42Z</time>
      </trkpt>
      <trkpt lat="44.18706" lon="3.13684">
        <ele>393.5</ele>
        <time>2021-10-31T16:11:43Z</time>
      </trkpt>
      <trkpt lat="44.18702" lon="3.13675">
        <ele>393.4</ele>
        <time>2021-10-31T16:11:44Z</time>
      </trkpt>
      <trkpt lat="44.18695" lon="3.13657">
        <ele>393.1</ele>
        <time>2021-10-31T16:11:46Z</time>
      </trkpt>
      <trkpt lat="44.18691" lon="3.13648">
        <ele>393</ele>
        <time>2021-10-31T16:11:47Z</time>
      </trkpt>
      <trkpt lat="44.18682" lon="3.13629">
        <ele>392.9</ele>
        <time>2021-10-31T16:11:49Z</time>
      </trkpt>
      <trkpt lat="44.18675" lon="3.1361">
        <ele>392.8</ele>
        <time>2021-10-31T16:11:51Z</time>
      </trkpt>
      <trkpt lat="44.18673" lon="3.13601">
        <ele>392.7</ele>
        <time>2021-10-31T16:11:52Z</time>
      </trkpt>
      <trkpt lat="44.18667" lon="3.13582">
        <ele>392.7</ele>
        <time>2021-10-31T16:11:54Z</time>
      </trkpt>
      <trkpt lat="44.18664" lon="3.13574">
        <ele>392.7</ele>
        <time>2021-10-31T16:11:55Z</time>
      </trkpt>
      <trkpt lat="44.18661" lon="3.13565">
        <ele>392.6</ele>
        <time>2021-10-31T16:11:56Z</time>
      </trkpt>
      <trkpt lat="44.18655" lon="3.13549">
        <ele>392.6</ele>
        <time>2021-10-31T16:11:58Z</time>
      </trkpt>
      <trkpt lat="44.18648" lon="3.13534">
        <ele>392.5</ele>
        <time>2021-10-31T16:12:00Z</time>
      </trkpt>
      <trkpt lat="44.18644" lon="3.13526">
        <ele>392.5</ele>
        <time>2021-10-31T16:12:01Z</time>
      </trkpt>
      <trkpt lat="44.1864" lon="3.13518">
        <ele>392.4</ele>
        <time>2021-10-31T16:12:02Z</time>
      </trkpt>
      <trkpt lat="44.18631" lon="3.13503">
        <ele>392.2</ele>
        <time>2021-10-31T16:12:04Z</time>
      </trkpt>
      <trkpt lat="44.18627" lon="3.13495">
        <ele>392.1</ele>
        <time>2021-10-31T16:12:05Z</time>
      </trkpt>
      <trkpt lat="44.18619" lon="3.13479">
        <ele>391.8</ele>
        <time>2021-10-31T16:12:07Z</time>
      </trkpt>
      <trkpt lat="44.1861" lon="3.13464">
        <ele>391.6</ele>
        <time>2021-10-31T16:12:09Z</time>
      </trkpt>
      <trkpt lat="44.18602" lon="3.13452">
        <ele>391.4</ele>
        <time>2021-10-31T16:12:11Z</time>
      </trkpt>
      <trkpt lat="44.18591" lon="3.13439">
        <ele>391.2</ele>
        <time>2021-10-31T16:12:13Z</time>
      </trkpt>
      <trkpt lat="44.18581" lon="3.13427">
        <ele>391</ele>
        <time>2021-10-31T16:12:15Z</time>
      </trkpt>
      <trkpt lat="44.18574" lon="3.13421">
        <ele>390.9</ele>
        <time>2021-10-31T16:12:16Z</time>
      </trkpt>
      <trkpt lat="44.18564" lon="3.13407">
        <ele>390.1</ele>
        <time>2021-10-31T16:12:18Z</time>
      </trkpt>
      <trkpt lat="44.18559" lon="3.13387">
        <ele>388</ele>
        <time>2021-10-31T16:12:20Z</time>
      </trkpt>
      <trkpt lat="44.18557" lon="3.13363">
        <ele>385.4</ele>
        <time>2021-10-31T16:12:22Z</time>
      </trkpt>
      <trkpt lat="44.1855" lon="3.13331">
        <ele>382.7</ele>
        <time>2021-10-31T16:12:24Z</time>
      </trkpt>
      <trkpt lat="44.18545" lon="3.13316">
        <ele>381.9</ele>
        <time>2021-10-31T16:12:25Z</time>
      </trkpt>
      <trkpt lat="44.18536" lon="3.13289">
        <ele>380.7</ele>
        <time>2021-10-31T16:12:27Z</time>
      </trkpt>
      <trkpt lat="44.18528" lon="3.13261">
        <ele>379.8</ele>
        <time>2021-10-31T16:12:29Z</time>
      </trkpt>
      <trkpt lat="44.18523" lon="3.13248">
        <ele>379.4</ele>
        <time>2021-10-31T16:12:30Z</time>
      </trkpt>
      <trkpt lat="44.18518" lon="3.13237">
        <ele>379.2</ele>
        <time>2021-10-31T16:12:31Z</time>
      </trkpt>
      <trkpt lat="44.18507" lon="3.1322">
        <ele>379</ele>
        <time>2021-10-31T16:12:33Z</time>
      </trkpt>
      <trkpt lat="44.18497" lon="3.13205">
        <ele>378.8</ele>
        <time>2021-10-31T16:12:35Z</time>
      </trkpt>
      <trkpt lat="44.18487" lon="3.13191">
        <ele>378.6</ele>
        <time>2021-10-31T16:12:37Z</time>
      </trkpt>
      <trkpt lat="44.18476" lon="3.13178">
        <ele>378.5</ele>
        <time>2021-10-31T16:12:39Z</time>
      </trkpt>
      <trkpt lat="44.18464" lon="3.13165">
        <ele>378.5</ele>
        <time>2021-10-31T16:12:41Z</time>
      </trkpt>
      <trkpt lat="44.18458" lon="3.13159">
        <ele>378.5</ele>
        <time>2021-10-31T16:12:42Z</time>
      </trkpt>
      <trkpt lat="44.18449" lon="3.1315">
        <ele>378.5</ele>
        <time>2021-10-31T16:12:44Z</time>
      </trkpt>
      <trkpt lat="44.18438" lon="3.13142">
        <ele>378.6</ele>
        <time>2021-10-31T16:12:46Z</time>
      </trkpt>
      <trkpt lat="44.18432" lon="3.13138">
        <ele>378.7</ele>
        <time>2021-10-31T16:12:47Z</time>
      </trkpt>
      <trkpt lat="44.18423" lon="3.13132">
        <ele>378.8</ele>
        <time>2021-10-31T16:12:49Z</time>
      </trkpt>
      <trkpt lat="44.18412" lon="3.13126">
        <ele>379</ele>
        <time>2021-10-31T16:12:51Z</time>
      </trkpt>
      <trkpt lat="44.18407" lon="3.13123">
        <ele>379</ele>
        <time>2021-10-31T16:12:52Z</time>
      </trkpt>
      <trkpt lat="44.18397" lon="3.13114">
        <ele>379</ele>
        <time>2021-10-31T16:12:54Z</time>
      </trkpt>
      <trkpt lat="44.18391" lon="3.1311">
        <ele>379</ele>
        <time>2021-10-31T16:12:55Z</time>
      </trkpt>
      <trkpt lat="44.18386" lon="3.13105">
        <ele>378.9</ele>
        <time>2021-10-31T16:12:56Z</time>
      </trkpt>
      <trkpt lat="44.18374" lon="3.13094">
        <ele>378.8</ele>
        <time>2021-10-31T16:12:58Z</time>
      </trkpt>
      <trkpt lat="44.18368" lon="3.1309">
        <ele>378.8</ele>
        <time>2021-10-31T16:12:59Z</time>
      </trkpt>
      <trkpt lat="44.18363" lon="3.13086">
        <ele>378.7</ele>
        <time>2021-10-31T16:13:00Z</time>
      </trkpt>
      <trkpt lat="44.18358" lon="3.13082">
        <ele>378.7</ele>
        <time>2021-10-31T16:13:01Z</time>
      </trkpt>
      <trkpt lat="44.18347" lon="3.13075">
        <ele>378.6</ele>
        <time>2021-10-31T16:13:03Z</time>
      </trkpt>
      <trkpt lat="44.18338" lon="3.1307">
        <ele>378.6</ele>
        <time>2021-10-31T16:13:05Z</time>
      </trkpt>
      <trkpt lat="44.18334" lon="3.13067">
        <ele>378.6</ele>
        <time>2021-10-31T16:13:06Z</time>
      </trkpt>
      <trkpt lat="44.18328" lon="3.13064">
        <ele>378.6</ele>
        <time>2021-10-31T16:13:07Z</time>
      </trkpt>
      <trkpt lat="44.18319" lon="3.13058">
        <ele>378.6</ele>
        <time>2021-10-31T16:13:09Z</time>
      </trkpt>
      <trkpt lat="44.1831" lon="3.13051">
        <ele>378.6</ele>
        <time>2021-10-31T16:13:11Z</time>
      </trkpt>
      <trkpt lat="44.183" lon="3.13045">
        <ele>378.7</ele>
        <time>2021-10-31T16:13:13Z</time>
      </trkpt>
      <trkpt lat="44.1829" lon="3.13039">
        <ele>378.7</ele>
        <time>2021-10-31T16:13:15Z</time>
      </trkpt>
      <trkpt lat="44.18281" lon="3.13034">
        <ele>378.8</ele>
        <time>2021-10-31T16:13:17Z</time>
      </trkpt>
      <trkpt lat="44.18276" lon="3.13031">
        <ele>378.8</ele>
        <time>2021-10-31T16:13:18Z</time>
      </trkpt>
      <trkpt lat="44.18272" lon="3.13028">
        <ele>378.8</ele>
        <time>2021-10-31T16:13:19Z</time>
      </trkpt>
      <trkpt lat="44.18262" lon="3.1302">
        <ele>378.8</ele>
        <time>2021-10-31T16:13:21Z</time>
      </trkpt>
      <trkpt lat="44.18256" lon="3.13016">
        <ele>378.8</ele>
        <time>2021-10-31T16:13:22Z</time>
      </trkpt>
      <trkpt lat="44.18246" lon="3.13008">
        <ele>378.8</ele>
        <time>2021-10-31T16:13:24Z</time>
      </trkpt>
      <trkpt lat="44.18235" lon="3.13001">
        <ele>378.8</ele>
        <time>2021-10-31T16:13:26Z</time>
      </trkpt>
      <trkpt lat="44.1823" lon="3.12997">
        <ele>378.7</ele>
        <time>2021-10-31T16:13:27Z</time>
      </trkpt>
      <trkpt lat="44.18219" lon="3.1299">
        <ele>378.7</ele>
        <time>2021-10-31T16:13:29Z</time>
      </trkpt>
      <trkpt lat="44.18209" lon="3.12983">
        <ele>378.6</ele>
        <time>2021-10-31T16:13:31Z</time>
      </trkpt>
      <trkpt lat="44.18205" lon="3.1298">
        <ele>378.6</ele>
        <time>2021-10-31T16:13:32Z</time>
      </trkpt>
      <trkpt lat="44.182" lon="3.12976">
        <ele>378.6</ele>
        <time>2021-10-31T16:13:33Z</time>
      </trkpt>
      <trkpt lat="44.18191" lon="3.1297">
        <ele>378.6</ele>
        <time>2021-10-31T16:13:35Z</time>
      </trkpt>
      <trkpt lat="44.18186" lon="3.12967">
        <ele>378.6</ele>
        <time>2021-10-31T16:13:36Z</time>
      </trkpt>
      <trkpt lat="44.18174" lon="3.12959">
        <ele>378.6</ele>
        <time>2021-10-31T16:13:38Z</time>
      </trkpt>
      <trkpt lat="44.18162" lon="3.12952">
        <ele>378.6</ele>
        <time>2021-10-31T16:13:40Z</time>
      </trkpt>
      <trkpt lat="44.18155" lon="3.12948">
        <ele>378.5</ele>
        <time>2021-10-31T16:13:41Z</time>
      </trkpt>
      <trkpt lat="44.18143" lon="3.12941">
        <ele>378.5</ele>
        <time>2021-10-31T16:13:43Z</time>
      </trkpt>
      <trkpt lat="44.18136" lon="3.12936">
        <ele>378.5</ele>
        <time>2021-10-31T16:13:44Z</time>
      </trkpt>
      <trkpt lat="44.18126" lon="3.12925">
        <ele>378.5</ele>
        <time>2021-10-31T16:13:46Z</time>
      </trkpt>
      <trkpt lat="44.18122" lon="3.12918">
        <ele>378.4</ele>
        <time>2021-10-31T16:13:47Z</time>
      </trkpt>
      <trkpt lat="44.18116" lon="3.12904">
        <ele>378.4</ele>
        <time>2021-10-31T16:13:49Z</time>
      </trkpt>
      <trkpt lat="44.18111" lon="3.12892">
        <ele>378.3</ele>
        <time>2021-10-31T16:13:51Z</time>
      </trkpt>
      <trkpt lat="44.18108" lon="3.12886">
        <ele>378.3</ele>
        <time>2021-10-31T16:13:52Z</time>
      </trkpt>
      <trkpt lat="44.18107" lon="3.1288">
        <ele>378.2</ele>
        <time>2021-10-31T16:13:53Z</time>
      </trkpt>
      <trkpt lat="44.18104" lon="3.1287">
        <ele>378.2</ele>
        <time>2021-10-31T16:13:55Z</time>
      </trkpt>
      <trkpt lat="44.18101" lon="3.12861">
        <ele>378.2</ele>
        <time>2021-10-31T16:13:57Z</time>
      </trkpt>
      <trkpt lat="44.18099" lon="3.12857">
        <ele>378.2</ele>
        <time>2021-10-31T16:13:58Z</time>
      </trkpt>
      <trkpt lat="44.18094" lon="3.12848">
        <ele>378.2</ele>
        <time>2021-10-31T16:14:00Z</time>
      </trkpt>
      <trkpt lat="44.18091" lon="3.12845">
        <ele>378.2</ele>
        <time>2021-10-31T16:14:01Z</time>
      </trkpt>
      <trkpt lat="44.18083" lon="3.12839">
        <ele>378.3</ele>
        <time>2021-10-31T16:14:03Z</time>
      </trkpt>
      <trkpt lat="44.18078" lon="3.12837">
        <ele>378.3</ele>
        <time>2021-10-31T16:14:04Z</time>
      </trkpt>
      <trkpt lat="44.18073" lon="3.12837">
        <ele>378.4</ele>
        <time>2021-10-31T16:14:05Z</time>
      </trkpt>
      <trkpt lat="44.18064" lon="3.12838">
        <ele>378.6</ele>
        <time>2021-10-31T16:14:07Z</time>
      </trkpt>
      <trkpt lat="44.18055" lon="3.12836">
        <ele>378.8</ele>
        <time>2021-10-31T16:14:09Z</time>
      </trkpt>
      <trkpt lat="44.18052" lon="3.12833">
        <ele>378.9</ele>
        <time>2021-10-31T16:14:10Z</time>
      </trkpt>
      <trkpt lat="44.1805" lon="3.12832">
        <ele>379</ele>
        <time>2021-10-31T16:14:11Z</time>
      </trkpt>
      <trkpt lat="44.18043" lon="3.1283">
        <ele>379.3</ele>
        <time>2021-10-31T16:14:13Z</time>
      </trkpt>
      <trkpt lat="44.18039" lon="3.12829">
        <ele>379.5</ele>
        <time>2021-10-31T16:14:14Z</time>
      </trkpt>
      <trkpt lat="44.18029" lon="3.12829">
        <ele>380</ele>
        <time>2021-10-31T16:14:16Z</time>
      </trkpt>
      <trkpt lat="44.18021" lon="3.12831">
        <ele>380.5</ele>
        <time>2021-10-31T16:14:20Z</time>
      </trkpt>
      <trkpt lat="44.18016" lon="3.1283">
        <ele>380.8</ele>
        <time>2021-10-31T16:14:21Z</time>
      </trkpt>
      <trkpt lat="44.18014" lon="3.12829">
        <ele>381</ele>
        <time>2021-10-31T16:14:22Z</time>
      </trkpt>
      <trkpt lat="44.18011" lon="3.12829">
        <ele>381.2</ele>
        <time>2021-10-31T16:14:24Z</time>
      </trkpt>
      <trkpt lat="44.1801" lon="3.12829">
        <ele>381.3</ele>
        <time>2021-10-31T16:14:25Z</time>
      </trkpt>
      <trkpt lat="44.18008" lon="3.1283">
        <ele>381.4</ele>
        <time>2021-10-31T16:14:26Z</time>
      </trkpt>
      <trkpt lat="44.18005" lon="3.12833">
        <ele>381.7</ele>
        <time>2021-10-31T16:14:28Z</time>
      </trkpt>
      <trkpt lat="44.18" lon="3.12836">
        <ele>382.1</ele>
        <time>2021-10-31T16:14:30Z</time>
      </trkpt>
      <trkpt lat="44.17996" lon="3.12838">
        <ele>382.4</ele>
        <time>2021-10-31T16:14:31Z</time>
      </trkpt>
      <trkpt lat="44.17993" lon="3.12839">
        <ele>382.6</ele>
        <time>2021-10-31T16:14:32Z</time>
      </trkpt>
      <trkpt lat="44.17989" lon="3.1284">
        <ele>382.9</ele>
        <time>2021-10-31T16:14:33Z</time>
      </trkpt>
      <trkpt lat="44.17985" lon="3.12841">
        <ele>383.2</ele>
        <time>2021-10-31T16:14:35Z</time>
      </trkpt>
      <trkpt lat="44.17982" lon="3.12842">
        <ele>383.4</ele>
        <time>2021-10-31T16:14:36Z</time>
      </trkpt>
      <trkpt lat="44.17977" lon="3.12844">
        <ele>383.8</ele>
        <time>2021-10-31T16:14:38Z</time>
      </trkpt>
      <trkpt lat="44.17973" lon="3.12846">
        <ele>384.1</ele>
        <time>2021-10-31T16:14:39Z</time>
      </trkpt>
      <trkpt lat="44.1797" lon="3.12847">
        <ele>384.3</ele>
        <time>2021-10-31T16:14:40Z</time>
      </trkpt>
      <trkpt lat="44.17966" lon="3.12847">
        <ele>384.6</ele>
        <time>2021-10-31T16:14:42Z</time>
      </trkpt>
      <trkpt lat="44.17965" lon="3.12847">
        <ele>384.7</ele>
        <time>2021-10-31T16:14:43Z</time>
      </trkpt>
      <trkpt lat="44.17962" lon="3.12847">
        <ele>384.9</ele>
        <time>2021-10-31T16:14:44Z</time>
      </trkpt>
      <trkpt lat="44.17959" lon="3.12848">
        <ele>385.1</ele>
        <time>2021-10-31T16:14:45Z</time>
      </trkpt>
      <trkpt lat="44.17955" lon="3.12847">
        <ele>385.4</ele>
        <time>2021-10-31T16:14:47Z</time>
      </trkpt>
      <trkpt lat="44.17952" lon="3.12846">
        <ele>385.6</ele>
        <time>2021-10-31T16:14:48Z</time>
      </trkpt>
      <trkpt lat="44.17947" lon="3.12845">
        <ele>385.9</ele>
        <time>2021-10-31T16:14:50Z</time>
      </trkpt>
      <trkpt lat="44.17945" lon="3.12843">
        <ele>386.1</ele>
        <time>2021-10-31T16:14:51Z</time>
      </trkpt>
      <trkpt lat="44.1794" lon="3.12841">
        <ele>386.4</ele>
        <time>2021-10-31T16:14:53Z</time>
      </trkpt>
      <trkpt lat="44.17937" lon="3.12839">
        <ele>386.7</ele>
        <time>2021-10-31T16:14:54Z</time>
      </trkpt>
      <trkpt lat="44.17935" lon="3.12839">
        <ele>386.8</ele>
        <time>2021-10-31T16:14:55Z</time>
      </trkpt>
      <trkpt lat="44.17931" lon="3.12836">
        <ele>387</ele>
        <time>2021-10-31T16:14:56Z</time>
      </trkpt>
      <trkpt lat="44.1793" lon="3.12835">
        <ele>387.1</ele>
        <time>2021-10-31T16:14:57Z</time>
      </trkpt>
      <trkpt lat="44.17926" lon="3.12833">
        <ele>387.4</ele>
        <time>2021-10-31T16:14:59Z</time>
      </trkpt>
      <trkpt lat="44.17923" lon="3.12831">
        <ele>387.5</ele>
        <time>2021-10-31T16:15:00Z</time>
      </trkpt>
      <trkpt lat="44.17919" lon="3.12828">
        <ele>387.9</ele>
        <time>2021-10-31T16:15:02Z</time>
      </trkpt>
      <trkpt lat="44.17914" lon="3.12826">
        <ele>388.2</ele>
        <time>2021-10-31T16:15:04Z</time>
      </trkpt>
      <trkpt lat="44.17909" lon="3.12824">
        <ele>388.5</ele>
        <time>2021-10-31T16:15:05Z</time>
      </trkpt>
      <trkpt lat="44.17905" lon="3.12823">
        <ele>388.8</ele>
        <time>2021-10-31T16:15:07Z</time>
      </trkpt>
      <trkpt lat="44.17904" lon="3.12823">
        <ele>388.9</ele>
        <time>2021-10-31T16:15:08Z</time>
      </trkpt>
      <trkpt lat="44.179" lon="3.12821">
        <ele>389.2</ele>
        <time>2021-10-31T16:15:10Z</time>
      </trkpt>
      <trkpt lat="44.17895" lon="3.1282">
        <ele>389.6</ele>
        <time>2021-10-31T16:15:12Z</time>
      </trkpt>
      <trkpt lat="44.17889" lon="3.12818">
        <ele>390</ele>
        <time>2021-10-31T16:15:14Z</time>
      </trkpt>
      <trkpt lat="44.17885" lon="3.12817">
        <ele>390.2</ele>
        <time>2021-10-31T16:15:15Z</time>
      </trkpt>
      <trkpt lat="44.17881" lon="3.12816">
        <ele>390.6</ele>
        <time>2021-10-31T16:15:16Z</time>
      </trkpt>
      <trkpt lat="44.17876" lon="3.12815">
        <ele>390.9</ele>
        <time>2021-10-31T16:15:18Z</time>
      </trkpt>
      <trkpt lat="44.17874" lon="3.12815">
        <ele>391</ele>
        <time>2021-10-31T16:15:19Z</time>
      </trkpt>
      <trkpt lat="44.17872" lon="3.12814">
        <ele>391.1</ele>
        <time>2021-10-31T16:15:20Z</time>
      </trkpt>
      <trkpt lat="44.1787" lon="3.12812">
        <ele>391.3</ele>
        <time>2021-10-31T16:15:22Z</time>
      </trkpt>
      <trkpt lat="44.17868" lon="3.12807">
        <ele>391.6</ele>
        <time>2021-10-31T16:15:23Z</time>
      </trkpt>
      <trkpt lat="44.17868" lon="3.12802">
        <ele>392.5</ele>
        <time>2021-10-31T16:15:24Z</time>
      </trkpt>
      <trkpt lat="44.17869" lon="3.12791">
        <ele>392.1</ele>
        <time>2021-10-31T16:15:27Z</time>
      </trkpt>
      <trkpt lat="44.17871" lon="3.12782">
        <ele>391.7</ele>
        <time>2021-10-31T16:15:28Z</time>
      </trkpt>
      <trkpt lat="44.17868" lon="3.12766">
        <ele>391.1</ele>
        <time>2021-10-31T16:15:30Z</time>
      </trkpt>
      <trkpt lat="44.1787" lon="3.1275">
        <ele>390.5</ele>
        <time>2021-10-31T16:15:32Z</time>
      </trkpt>
      <trkpt lat="44.1787" lon="3.12738">
        <ele>390.1</ele>
        <time>2021-10-31T16:15:34Z</time>
      </trkpt>
      <trkpt lat="44.17869" lon="3.1273">
        <ele>389.8</ele>
        <time>2021-10-31T16:15:35Z</time>
      </trkpt>
      <trkpt lat="44.17865" lon="3.12714">
        <ele>389.1</ele>
        <time>2021-10-31T16:15:37Z</time>
      </trkpt>
      <trkpt lat="44.17862" lon="3.12707">
        <ele>388.8</ele>
        <time>2021-10-31T16:15:38Z</time>
      </trkpt>
      <trkpt lat="44.17857" lon="3.12702">
        <ele>388.4</ele>
        <time>2021-10-31T16:15:39Z</time>
      </trkpt>
      <trkpt lat="44.17842" lon="3.12694">
        <ele>387.5</ele>
        <time>2021-10-31T16:15:41Z</time>
      </trkpt>
      <trkpt lat="44.17834" lon="3.1269">
        <ele>387</ele>
        <time>2021-10-31T16:15:42Z</time>
      </trkpt>
      <trkpt lat="44.17827" lon="3.12686">
        <ele>386.6</ele>
        <time>2021-10-31T16:15:43Z</time>
      </trkpt>
      <trkpt lat="44.17814" lon="3.12679">
        <ele>385.9</ele>
        <time>2021-10-31T16:15:45Z</time>
      </trkpt>
      <trkpt lat="44.178" lon="3.12667">
        <ele>385.2</ele>
        <time>2021-10-31T16:15:47Z</time>
      </trkpt>
      <trkpt lat="44.17789" lon="3.12651">
        <ele>384.6</ele>
        <time>2021-10-31T16:15:49Z</time>
      </trkpt>
      <trkpt lat="44.17786" lon="3.1264">
        <ele>384.4</ele>
        <time>2021-10-31T16:15:50Z</time>
      </trkpt>
      <trkpt lat="44.17781" lon="3.12619">
        <ele>384.2</ele>
        <time>2021-10-31T16:15:52Z</time>
      </trkpt>
      <trkpt lat="44.17779" lon="3.12608">
        <ele>384.1</ele>
        <time>2021-10-31T16:15:53Z</time>
      </trkpt>
      <trkpt lat="44.17777" lon="3.12599">
        <ele>384.1</ele>
        <time>2021-10-31T16:15:54Z</time>
      </trkpt>
      <trkpt lat="44.17774" lon="3.12592">
        <ele>384.1</ele>
        <time>2021-10-31T16:15:56Z</time>
      </trkpt>
      <trkpt lat="44.17775" lon="3.12585">
        <ele>384.1</ele>
        <time>2021-10-31T16:15:57Z</time>
      </trkpt>
      <trkpt lat="44.17774" lon="3.12573">
        <ele>384.1</ele>
        <time>2021-10-31T16:15:59Z</time>
      </trkpt>
      <trkpt lat="44.17771" lon="3.12566">
        <ele>384.2</ele>
        <time>2021-10-31T16:16:00Z</time>
      </trkpt>
      <trkpt lat="44.17768" lon="3.12557">
        <ele>384.2</ele>
        <time>2021-10-31T16:16:01Z</time>
      </trkpt>
      <trkpt lat="44.17764" lon="3.12544">
        <ele>384.3</ele>
        <time>2021-10-31T16:16:02Z</time>
      </trkpt>
      <trkpt lat="44.1776" lon="3.12533">
        <ele>384.4</ele>
        <time>2021-10-31T16:16:03Z</time>
      </trkpt>
      <trkpt lat="44.17753" lon="3.12524">
        <ele>384.4</ele>
        <time>2021-10-31T16:16:04Z</time>
      </trkpt>
      <trkpt lat="44.17747" lon="3.1252">
        <ele>384.5</ele>
        <time>2021-10-31T16:16:05Z</time>
      </trkpt>
      <trkpt lat="44.17743" lon="3.12514">
        <ele>384.6</ele>
        <time>2021-10-31T16:16:07Z</time>
      </trkpt>
      <trkpt lat="44.17744" lon="3.12518">
        <ele>384.6</ele>
        <time>2021-10-31T16:16:08Z</time>
      </trkpt>
      <trkpt lat="44.1774" lon="3.12522">
        <ele>384.7</ele>
        <time>2021-10-31T16:16:09Z</time>
      </trkpt>
      <trkpt lat="44.17723" lon="3.1252">
        <ele>385</ele>
        <time>2021-10-31T16:16:11Z</time>
      </trkpt>
      <trkpt lat="44.1772" lon="3.12523">
        <ele>385.1</ele>
        <time>2021-10-31T16:16:13Z</time>
      </trkpt>
      <trkpt lat="44.17715" lon="3.12523">
        <ele>385.2</ele>
        <time>2021-10-31T16:16:14Z</time>
      </trkpt>
      <trkpt lat="44.17708" lon="3.1252">
        <ele>385.4</ele>
        <time>2021-10-31T16:16:15Z</time>
      </trkpt>
      <trkpt lat="44.17702" lon="3.12517">
        <ele>385.6</ele>
        <time>2021-10-31T16:16:16Z</time>
      </trkpt>
      <trkpt lat="44.17696" lon="3.12514">
        <ele>386</ele>
        <time>2021-10-31T16:16:17Z</time>
      </trkpt>
      <trkpt lat="44.1769" lon="3.12511">
        <ele>386.4</ele>
        <time>2021-10-31T16:16:18Z</time>
      </trkpt>
      <trkpt lat="44.17685" lon="3.12509">
        <ele>386.8</ele>
        <time>2021-10-31T16:16:20Z</time>
      </trkpt>
      <trkpt lat="44.17678" lon="3.12505">
        <ele>387.3</ele>
        <time>2021-10-31T16:16:21Z</time>
      </trkpt>
      <trkpt lat="44.17673" lon="3.12501">
        <ele>387.7</ele>
        <time>2021-10-31T16:16:22Z</time>
      </trkpt>
      <trkpt lat="44.17669" lon="3.12498">
        <ele>388.1</ele>
        <time>2021-10-31T16:16:24Z</time>
      </trkpt>
      <trkpt lat="44.17665" lon="3.12495">
        <ele>388.5</ele>
        <time>2021-10-31T16:16:25Z</time>
      </trkpt>
      <trkpt lat="44.17657" lon="3.1249">
        <ele>389.1</ele>
        <time>2021-10-31T16:16:27Z</time>
      </trkpt>
      <trkpt lat="44.17653" lon="3.12488">
        <ele>389.4</ele>
        <time>2021-10-31T16:16:28Z</time>
      </trkpt>
      <trkpt lat="44.17649" lon="3.12486">
        <ele>389.8</ele>
        <time>2021-10-31T16:16:29Z</time>
      </trkpt>
      <trkpt lat="44.17643" lon="3.12483">
        <ele>390.3</ele>
        <time>2021-10-31T16:16:30Z</time>
      </trkpt>
      <trkpt lat="44.17638" lon="3.12482">
        <ele>390.7</ele>
        <time>2021-10-31T16:16:32Z</time>
      </trkpt>
      <trkpt lat="44.17632" lon="3.12481">
        <ele>391.2</ele>
        <time>2021-10-31T16:16:34Z</time>
      </trkpt>
      <trkpt lat="44.17629" lon="3.12481">
        <ele>391.4</ele>
        <time>2021-10-31T16:16:35Z</time>
      </trkpt>
      <trkpt lat="44.17624" lon="3.12481">
        <ele>391.7</ele>
        <time>2021-10-31T16:16:36Z</time>
      </trkpt>
      <trkpt lat="44.1762" lon="3.1248">
        <ele>392</ele>
        <time>2021-10-31T16:16:37Z</time>
      </trkpt>
      <trkpt lat="44.17613" lon="3.12477">
        <ele>392.4</ele>
        <time>2021-10-31T16:16:40Z</time>
      </trkpt>
      <trkpt lat="44.17608" lon="3.12469">
        <ele>393.4</ele>
        <time>2021-10-31T16:16:42Z</time>
      </trkpt>
      <trkpt lat="44.17609" lon="3.12463">
        <ele>393.9</ele>
        <time>2021-10-31T16:16:43Z</time>
      </trkpt>
      <trkpt lat="44.17613" lon="3.1246">
        <ele>394.8</ele>
        <time>2021-10-31T16:16:44Z</time>
      </trkpt>
      <trkpt lat="44.17619" lon="3.12458">
        <ele>395</ele>
        <time>2021-10-31T16:16:46Z</time>
      </trkpt>
      <trkpt lat="44.17626" lon="3.12456">
        <ele>395.1</ele>
        <time>2021-10-31T16:16:47Z</time>
      </trkpt>
      <trkpt lat="44.17633" lon="3.12456">
        <ele>395.3</ele>
        <time>2021-10-31T16:16:48Z</time>
      </trkpt>
      <trkpt lat="44.17638" lon="3.12455">
        <ele>395.4</ele>
        <time>2021-10-31T16:16:50Z</time>
      </trkpt>
      <trkpt lat="44.17643" lon="3.12455">
        <ele>395.5</ele>
        <time>2021-10-31T16:16:51Z</time>
      </trkpt>
      <trkpt lat="44.17649" lon="3.12455">
        <ele>395.6</ele>
        <time>2021-10-31T16:16:52Z</time>
      </trkpt>
      <trkpt lat="44.17655" lon="3.12454">
        <ele>395.8</ele>
        <time>2021-10-31T16:16:54Z</time>
      </trkpt>
      <trkpt lat="44.17659" lon="3.12454">
        <ele>395.9</ele>
        <time>2021-10-31T16:16:55Z</time>
      </trkpt>
      <trkpt lat="44.17665" lon="3.12453">
        <ele>396</ele>
        <time>2021-10-31T16:16:56Z</time>
      </trkpt>
      <trkpt lat="44.17669" lon="3.12453">
        <ele>396.1</ele>
        <time>2021-10-31T16:16:57Z</time>
      </trkpt>
      <trkpt lat="44.17674" lon="3.12453">
        <ele>396.2</ele>
        <time>2021-10-31T16:16:58Z</time>
      </trkpt>
      <trkpt lat="44.1768" lon="3.12452">
        <ele>396.4</ele>
        <time>2021-10-31T16:17:00Z</time>
      </trkpt>
      <trkpt lat="44.17686" lon="3.12451">
        <ele>396.6</ele>
        <time>2021-10-31T16:17:01Z</time>
      </trkpt>
      <trkpt lat="44.1769" lon="3.1245">
        <ele>396.8</ele>
        <time>2021-10-31T16:17:02Z</time>
      </trkpt>
      <trkpt lat="44.17694" lon="3.1245">
        <ele>396.9</ele>
        <time>2021-10-31T16:17:04Z</time>
      </trkpt>
      <trkpt lat="44.17698" lon="3.12449">
        <ele>397</ele>
        <time>2021-10-31T16:17:05Z</time>
      </trkpt>
      <trkpt lat="44.17703" lon="3.12449">
        <ele>397.2</ele>
        <time>2021-10-31T16:17:06Z</time>
      </trkpt>
      <trkpt lat="44.17709" lon="3.12448">
        <ele>397.4</ele>
        <time>2021-10-31T16:17:07Z</time>
      </trkpt>
      <trkpt lat="44.17714" lon="3.12447">
        <ele>397.6</ele>
        <time>2021-10-31T16:17:09Z</time>
      </trkpt>
      <trkpt lat="44.1772" lon="3.12447">
        <ele>397.7</ele>
        <time>2021-10-31T16:17:10Z</time>
      </trkpt>
      <trkpt lat="44.17724" lon="3.12446">
        <ele>397.8</ele>
        <time>2021-10-31T16:17:11Z</time>
      </trkpt>
      <trkpt lat="44.17729" lon="3.12446">
        <ele>397.9</ele>
        <time>2021-10-31T16:17:13Z</time>
      </trkpt>
      <trkpt lat="44.17733" lon="3.12445">
        <ele>398</ele>
        <time>2021-10-31T16:17:14Z</time>
      </trkpt>
      <trkpt lat="44.17737" lon="3.12445">
        <ele>398.1</ele>
        <time>2021-10-31T16:17:15Z</time>
      </trkpt>
      <trkpt lat="44.17745" lon="3.12444">
        <ele>398.2</ele>
        <time>2021-10-31T16:17:16Z</time>
      </trkpt>
      <trkpt lat="44.17751" lon="3.12443">
        <ele>398.3</ele>
        <time>2021-10-31T16:17:18Z</time>
      </trkpt>
      <trkpt lat="44.17756" lon="3.12443">
        <ele>398.4</ele>
        <time>2021-10-31T16:17:19Z</time>
      </trkpt>
      <trkpt lat="44.17765" lon="3.12442">
        <ele>398.4</ele>
        <time>2021-10-31T16:17:21Z</time>
      </trkpt>
      <trkpt lat="44.1777" lon="3.12442">
        <ele>398.4</ele>
        <time>2021-10-31T16:17:23Z</time>
      </trkpt>
      <trkpt lat="44.17775" lon="3.12442">
        <ele>398.4</ele>
        <time>2021-10-31T16:17:24Z</time>
      </trkpt>
      <trkpt lat="44.17779" lon="3.12442">
        <ele>398.4</ele>
        <time>2021-10-31T16:17:25Z</time>
      </trkpt>
      <trkpt lat="44.1779" lon="3.1244">
        <ele>398.3</ele>
        <time>2021-10-31T16:17:27Z</time>
      </trkpt>
      <trkpt lat="44.17796" lon="3.12439">
        <ele>398.3</ele>
        <time>2021-10-31T16:17:28Z</time>
      </trkpt>
      <trkpt lat="44.17801" lon="3.12437">
        <ele>398.2</ele>
        <time>2021-10-31T16:17:29Z</time>
      </trkpt>
      <trkpt lat="44.17806" lon="3.12435">
        <ele>398.1</ele>
        <time>2021-10-31T16:17:30Z</time>
      </trkpt>
      <trkpt lat="44.17812" lon="3.12434">
        <ele>398</ele>
        <time>2021-10-31T16:17:31Z</time>
      </trkpt>
      <trkpt lat="44.17825" lon="3.12432">
        <ele>397.7</ele>
        <time>2021-10-31T16:17:33Z</time>
      </trkpt>
      <trkpt lat="44.17837" lon="3.1243">
        <ele>397.4</ele>
        <time>2021-10-31T16:17:35Z</time>
      </trkpt>
      <trkpt lat="44.17843" lon="3.12429">
        <ele>397.3</ele>
        <time>2021-10-31T16:17:36Z</time>
      </trkpt>
      <trkpt lat="44.17855" lon="3.12427">
        <ele>397.1</ele>
        <time>2021-10-31T16:17:38Z</time>
      </trkpt>
      <trkpt lat="44.17862" lon="3.12427">
        <ele>397.1</ele>
        <time>2021-10-31T16:17:39Z</time>
      </trkpt>
      <trkpt lat="44.17868" lon="3.12427">
        <ele>397</ele>
        <time>2021-10-31T16:17:40Z</time>
      </trkpt>
      <trkpt lat="44.1788" lon="3.12427">
        <ele>396.8</ele>
        <time>2021-10-31T16:17:42Z</time>
      </trkpt>
      <trkpt lat="44.17893" lon="3.12429">
        <ele>396.6</ele>
        <time>2021-10-31T16:17:44Z</time>
      </trkpt>
      <trkpt lat="44.17906" lon="3.12434">
        <ele>396.2</ele>
        <time>2021-10-31T16:17:46Z</time>
      </trkpt>
      <trkpt lat="44.17912" lon="3.12437">
        <ele>396.1</ele>
        <time>2021-10-31T16:17:47Z</time>
      </trkpt>
      <trkpt lat="44.17925" lon="3.12442">
        <ele>395.8</ele>
        <time>2021-10-31T16:17:49Z</time>
      </trkpt>
      <trkpt lat="44.17938" lon="3.12448">
        <ele>395.5</ele>
        <time>2021-10-31T16:17:51Z</time>
      </trkpt>
      <trkpt lat="44.17951" lon="3.12453">
        <ele>395.1</ele>
        <time>2021-10-31T16:17:53Z</time>
      </trkpt>
      <trkpt lat="44.17958" lon="3.12457">
        <ele>394.9</ele>
        <time>2021-10-31T16:17:54Z</time>
      </trkpt>
      <trkpt lat="44.1797" lon="3.12465">
        <ele>394.6</ele>
        <time>2021-10-31T16:17:56Z</time>
      </trkpt>
      <trkpt lat="44.17977" lon="3.12468">
        <ele>394.4</ele>
        <time>2021-10-31T16:17:57Z</time>
      </trkpt>
      <trkpt lat="44.17984" lon="3.12471">
        <ele>394.2</ele>
        <time>2021-10-31T16:17:58Z</time>
      </trkpt>
      <trkpt lat="44.17998" lon="3.12478">
        <ele>393.8</ele>
        <time>2021-10-31T16:18:00Z</time>
      </trkpt>
      <trkpt lat="44.18011" lon="3.12485">
        <ele>393.5</ele>
        <time>2021-10-31T16:18:02Z</time>
      </trkpt>
      <trkpt lat="44.18018" lon="3.12488">
        <ele>393.3</ele>
        <time>2021-10-31T16:18:03Z</time>
      </trkpt>
      <trkpt lat="44.18025" lon="3.12491">
        <ele>393.2</ele>
        <time>2021-10-31T16:18:04Z</time>
      </trkpt>
      <trkpt lat="44.18032" lon="3.12494">
        <ele>393</ele>
        <time>2021-10-31T16:18:05Z</time>
      </trkpt>
      <trkpt lat="44.18045" lon="3.12501">
        <ele>392.7</ele>
        <time>2021-10-31T16:18:07Z</time>
      </trkpt>
      <trkpt lat="44.18058" lon="3.12507">
        <ele>392.4</ele>
        <time>2021-10-31T16:18:09Z</time>
      </trkpt>
      <trkpt lat="44.18072" lon="3.12513">
        <ele>392.1</ele>
        <time>2021-10-31T16:18:11Z</time>
      </trkpt>
      <trkpt lat="44.18078" lon="3.12516">
        <ele>391.9</ele>
        <time>2021-10-31T16:18:12Z</time>
      </trkpt>
      <trkpt lat="44.18092" lon="3.12522">
        <ele>391.6</ele>
        <time>2021-10-31T16:18:14Z</time>
      </trkpt>
      <trkpt lat="44.18099" lon="3.12525">
        <ele>391.5</ele>
        <time>2021-10-31T16:18:15Z</time>
      </trkpt>
      <trkpt lat="44.18112" lon="3.12531">
        <ele>391.2</ele>
        <time>2021-10-31T16:18:17Z</time>
      </trkpt>
      <trkpt lat="44.18119" lon="3.12535">
        <ele>391.1</ele>
        <time>2021-10-31T16:18:18Z</time>
      </trkpt>
      <trkpt lat="44.18126" lon="3.12538">
        <ele>390.9</ele>
        <time>2021-10-31T16:18:19Z</time>
      </trkpt>
      <trkpt lat="44.18132" lon="3.12541">
        <ele>390.8</ele>
        <time>2021-10-31T16:18:20Z</time>
      </trkpt>
      <trkpt lat="44.18145" lon="3.12549">
        <ele>390.5</ele>
        <time>2021-10-31T16:18:22Z</time>
      </trkpt>
      <trkpt lat="44.18151" lon="3.12553">
        <ele>390.3</ele>
        <time>2021-10-31T16:18:23Z</time>
      </trkpt>
      <trkpt lat="44.18157" lon="3.12556">
        <ele>390.2</ele>
        <time>2021-10-31T16:18:24Z</time>
      </trkpt>
      <trkpt lat="44.1817" lon="3.12563">
        <ele>389.8</ele>
        <time>2021-10-31T16:18:26Z</time>
      </trkpt>
      <trkpt lat="44.18176" lon="3.12567">
        <ele>389.6</ele>
        <time>2021-10-31T16:18:27Z</time>
      </trkpt>
      <trkpt lat="44.18182" lon="3.12572">
        <ele>389.5</ele>
        <time>2021-10-31T16:18:28Z</time>
      </trkpt>
      <trkpt lat="44.18188" lon="3.12576">
        <ele>389.3</ele>
        <time>2021-10-31T16:18:29Z</time>
      </trkpt>
      <trkpt lat="44.18195" lon="3.1258">
        <ele>389.1</ele>
        <time>2021-10-31T16:18:30Z</time>
      </trkpt>
      <trkpt lat="44.18207" lon="3.12589">
        <ele>388.8</ele>
        <time>2021-10-31T16:18:32Z</time>
      </trkpt>
      <trkpt lat="44.18214" lon="3.12594">
        <ele>388.6</ele>
        <time>2021-10-31T16:18:33Z</time>
      </trkpt>
      <trkpt lat="44.1822" lon="3.12599">
        <ele>388.5</ele>
        <time>2021-10-31T16:18:34Z</time>
      </trkpt>
      <trkpt lat="44.18233" lon="3.1261">
        <ele>388.3</ele>
        <time>2021-10-31T16:18:36Z</time>
      </trkpt>
      <trkpt lat="44.18243" lon="3.12623">
        <ele>388.1</ele>
        <time>2021-10-31T16:18:38Z</time>
      </trkpt>
      <trkpt lat="44.18249" lon="3.1263">
        <ele>387.9</ele>
        <time>2021-10-31T16:18:39Z</time>
      </trkpt>
      <trkpt lat="44.18254" lon="3.12636">
        <ele>387.8</ele>
        <time>2021-10-31T16:18:40Z</time>
      </trkpt>
      <trkpt lat="44.18265" lon="3.12647">
        <ele>387.6</ele>
        <time>2021-10-31T16:18:42Z</time>
      </trkpt>
      <trkpt lat="44.18271" lon="3.12652">
        <ele>387.4</ele>
        <time>2021-10-31T16:18:43Z</time>
      </trkpt>
      <trkpt lat="44.18284" lon="3.12661">
        <ele>387.2</ele>
        <time>2021-10-31T16:18:45Z</time>
      </trkpt>
      <trkpt lat="44.18298" lon="3.12667">
        <ele>386.9</ele>
        <time>2021-10-31T16:18:47Z</time>
      </trkpt>
      <trkpt lat="44.18311" lon="3.12671">
        <ele>386.6</ele>
        <time>2021-10-31T16:18:49Z</time>
      </trkpt>
      <trkpt lat="44.18325" lon="3.12677">
        <ele>386.3</ele>
        <time>2021-10-31T16:18:51Z</time>
      </trkpt>
      <trkpt lat="44.18332" lon="3.12679">
        <ele>386.2</ele>
        <time>2021-10-31T16:18:52Z</time>
      </trkpt>
      <trkpt lat="44.18339" lon="3.12681">
        <ele>386</ele>
        <time>2021-10-31T16:18:53Z</time>
      </trkpt>
      <trkpt lat="44.18355" lon="3.12686">
        <ele>385.7</ele>
        <time>2021-10-31T16:18:55Z</time>
      </trkpt>
      <trkpt lat="44.18363" lon="3.12688">
        <ele>385.5</ele>
        <time>2021-10-31T16:18:56Z</time>
      </trkpt>
      <trkpt lat="44.18371" lon="3.1269">
        <ele>385.3</ele>
        <time>2021-10-31T16:18:57Z</time>
      </trkpt>
      <trkpt lat="44.18379" lon="3.12693">
        <ele>385.2</ele>
        <time>2021-10-31T16:18:58Z</time>
      </trkpt>
      <trkpt lat="44.18395" lon="3.12699">
        <ele>384.8</ele>
        <time>2021-10-31T16:19:00Z</time>
      </trkpt>
      <trkpt lat="44.18402" lon="3.12702">
        <ele>384.7</ele>
        <time>2021-10-31T16:19:01Z</time>
      </trkpt>
      <trkpt lat="44.18418" lon="3.12709">
        <ele>384.4</ele>
        <time>2021-10-31T16:19:03Z</time>
      </trkpt>
      <trkpt lat="44.18426" lon="3.12712">
        <ele>384.2</ele>
        <time>2021-10-31T16:19:04Z</time>
      </trkpt>
      <trkpt lat="44.18434" lon="3.12716">
        <ele>384.1</ele>
        <time>2021-10-31T16:19:05Z</time>
      </trkpt>
      <trkpt lat="44.18449" lon="3.12726">
        <ele>383.9</ele>
        <time>2021-10-31T16:19:07Z</time>
      </trkpt>
      <trkpt lat="44.18455" lon="3.12732">
        <ele>383.9</ele>
        <time>2021-10-31T16:19:08Z</time>
      </trkpt>
      <trkpt lat="44.18462" lon="3.12738">
        <ele>383.8</ele>
        <time>2021-10-31T16:19:09Z</time>
      </trkpt>
      <trkpt lat="44.18474" lon="3.12749">
        <ele>383.9</ele>
        <time>2021-10-31T16:19:11Z</time>
      </trkpt>
      <trkpt lat="44.1848" lon="3.12755">
        <ele>383.9</ele>
        <time>2021-10-31T16:19:12Z</time>
      </trkpt>
      <trkpt lat="44.18491" lon="3.12764">
        <ele>384</ele>
        <time>2021-10-31T16:19:14Z</time>
      </trkpt>
      <trkpt lat="44.18496" lon="3.12768">
        <ele>384.1</ele>
        <time>2021-10-31T16:19:15Z</time>
      </trkpt>
      <trkpt lat="44.18507" lon="3.12777">
        <ele>384.2</ele>
        <time>2021-10-31T16:19:17Z</time>
      </trkpt>
      <trkpt lat="44.18512" lon="3.12781">
        <ele>384.3</ele>
        <time>2021-10-31T16:19:18Z</time>
      </trkpt>
      <trkpt lat="44.18517" lon="3.12786">
        <ele>384.3</ele>
        <time>2021-10-31T16:19:19Z</time>
      </trkpt>
      <trkpt lat="44.18521" lon="3.1279">
        <ele>384.4</ele>
        <time>2021-10-31T16:19:20Z</time>
      </trkpt>
      <trkpt lat="44.1853" lon="3.12798">
        <ele>384.5</ele>
        <time>2021-10-31T16:19:22Z</time>
      </trkpt>
      <trkpt lat="44.18534" lon="3.12801">
        <ele>384.6</ele>
        <time>2021-10-31T16:19:23Z</time>
      </trkpt>
      <trkpt lat="44.18542" lon="3.12807">
        <ele>384.7</ele>
        <time>2021-10-31T16:19:25Z</time>
      </trkpt>
      <trkpt lat="44.18546" lon="3.12811">
        <ele>384.7</ele>
        <time>2021-10-31T16:19:26Z</time>
      </trkpt>
      <trkpt lat="44.18551" lon="3.12814">
        <ele>384.8</ele>
        <time>2021-10-31T16:19:27Z</time>
      </trkpt>
      <trkpt lat="44.18559" lon="3.12819">
        <ele>384.9</ele>
        <time>2021-10-31T16:19:29Z</time>
      </trkpt>
      <trkpt lat="44.18562" lon="3.12822">
        <ele>384.9</ele>
        <time>2021-10-31T16:19:30Z</time>
      </trkpt>
      <trkpt lat="44.18565" lon="3.12824">
        <ele>385</ele>
        <time>2021-10-31T16:19:31Z</time>
      </trkpt>
      <trkpt lat="44.18569" lon="3.12829">
        <ele>385</ele>
        <time>2021-10-31T16:19:33Z</time>
      </trkpt>
      <trkpt lat="44.18571" lon="3.12831">
        <ele>385.1</ele>
        <time>2021-10-31T16:19:34Z</time>
      </trkpt>
      <trkpt lat="44.18575" lon="3.12834">
        <ele>385.1</ele>
        <time>2021-10-31T16:19:36Z</time>
      </trkpt>
      <trkpt lat="44.18578" lon="3.12836">
        <ele>385.2</ele>
        <time>2021-10-31T16:19:38Z</time>
      </trkpt>
      <trkpt lat="44.1858" lon="3.12838">
        <ele>385.2</ele>
        <time>2021-10-31T16:19:39Z</time>
      </trkpt>
      <trkpt lat="44.18582" lon="3.12835">
        <ele>385.4</ele>
        <time>2021-10-31T16:19:41Z</time>
      </trkpt>
      <trkpt lat="44.18586" lon="3.12828">
        <ele>386</ele>
        <time>2021-10-31T16:19:42Z</time>
      </trkpt>
      <trkpt lat="44.18592" lon="3.12815">
        <ele>386.8</ele>
        <time>2021-10-31T16:19:44Z</time>
      </trkpt>
      <trkpt lat="44.18596" lon="3.1281">
        <ele>387.1</ele>
        <time>2021-10-31T16:19:45Z</time>
      </trkpt>
      <trkpt lat="44.18603" lon="3.12806">
        <ele>387.7</ele>
        <time>2021-10-31T16:19:46Z</time>
      </trkpt>
      <trkpt lat="44.18608" lon="3.1281">
        <ele>388.1</ele>
        <time>2021-10-31T16:19:48Z</time>
      </trkpt>
      <trkpt lat="44.18613" lon="3.12811">
        <ele>388.4</ele>
        <time>2021-10-31T16:19:49Z</time>
      </trkpt>
      <trkpt lat="44.1862" lon="3.12808">
        <ele>388.9</ele>
        <time>2021-10-31T16:19:51Z</time>
      </trkpt>
      <trkpt lat="44.18625" lon="3.12804">
        <ele>389.4</ele>
        <time>2021-10-31T16:19:52Z</time>
      </trkpt>
      <trkpt lat="44.18631" lon="3.12799">
        <ele>389.8</ele>
        <time>2021-10-31T16:19:54Z</time>
      </trkpt>
      <trkpt lat="44.18636" lon="3.12791">
        <ele>390.4</ele>
        <time>2021-10-31T16:19:56Z</time>
      </trkpt>
      <trkpt lat="44.18639" lon="3.12786">
        <ele>390.7</ele>
        <time>2021-10-31T16:19:57Z</time>
      </trkpt>
      <trkpt lat="44.18642" lon="3.12779">
        <ele>391.2</ele>
        <time>2021-10-31T16:19:58Z</time>
      </trkpt>
      <trkpt lat="44.18644" lon="3.12773">
        <ele>391.5</ele>
        <time>2021-10-31T16:19:59Z</time>
      </trkpt>
      <trkpt lat="44.18647" lon="3.12761">
        <ele>392</ele>
        <time>2021-10-31T16:20:01Z</time>
      </trkpt>
      <trkpt lat="44.18648" lon="3.12751">
        <ele>392.5</ele>
        <time>2021-10-31T16:20:03Z</time>
      </trkpt>
      <trkpt lat="44.18646" lon="3.12742">
        <ele>392.6</ele>
        <time>2021-10-31T16:20:05Z</time>
      </trkpt>
      <trkpt lat="44.18645" lon="3.12738">
        <ele>392.6</ele>
        <time>2021-10-31T16:20:06Z</time>
      </trkpt>
      <trkpt lat="44.18644" lon="3.12737">
        <ele>392.6</ele>
        <time>2021-10-31T16:20:08Z</time>
      </trkpt>
      <trkpt lat="44.18643" lon="3.12738">
        <ele>392.7</ele>
        <time>2021-10-31T16:20:09Z</time>
      </trkpt>
      <trkpt lat="44.18641" lon="3.12739">
        <ele>392.7</ele>
        <time>2021-10-31T16:20:11Z</time>
      </trkpt>
      <trkpt lat="44.1864" lon="3.12743">
        <ele>392.7</ele>
        <time>2021-10-31T16:20:12Z</time>
      </trkpt>
      <trkpt lat="44.18639" lon="3.12743">
        <ele>392.7</ele>
        <time>2021-10-31T16:20:14Z</time>
      </trkpt>
      <trkpt lat="44.18638" lon="3.12743">
        <ele>392.7</ele>
        <time>2021-10-31T16:20:15Z</time>
      </trkpt>
      <trkpt lat="44.18638" lon="3.12744">
        <ele>392.8</ele>
        <time>2021-10-31T16:20:16Z</time>
      </trkpt>
      <trkpt lat="44.18637" lon="3.12744">
        <ele>392.8</ele>
        <time>2021-10-31T16:20:18Z</time>
      </trkpt>
      <trkpt lat="44.18636" lon="3.12745">
        <ele>392.8</ele>
        <time>2021-10-31T16:20:22Z</time>
      </trkpt>
      <trkpt lat="44.18635" lon="3.12745">
        <ele>392.8</ele>
        <time>2021-10-31T16:20:48Z</time>
      </trkpt>
      <trkpt lat="44.18635" lon="3.12746">
        <ele>392.8</ele>
        <time>2021-10-31T16:20:49Z</time>
      </trkpt>
      <trkpt lat="44.18634" lon="3.12746">
        <ele>392.8</ele>
        <time>2021-10-31T16:20:51Z</time>
      </trkpt>
      <trkpt lat="44.18634" lon="3.12747">
        <ele>392.8</ele>
        <time>2021-10-31T16:20:54Z</time>
      </trkpt>
      <trkpt lat="44.18633" lon="3.12747">
        <ele>392.8</ele>
        <time>2021-10-31T16:20:55Z</time>
      </trkpt>
      <trkpt lat="44.18632" lon="3.12749">
        <ele>392.9</ele>
        <time>2021-10-31T16:20:58Z</time>
      </trkpt>
      <trkpt lat="44.18632" lon="3.1275">
        <ele>392.9</ele>
        <time>2021-10-31T16:21:00Z</time>
      </trkpt>
    </trkseg>
  </trk>
</gpx>